<?xml version="1.0" encoding="UTF-8" standalone="no" ?>
<gpx xmlns="http://www.topografix.com/GPX/1/1" xmlns:xsi="http://www.w3.org/2001/XMLSchema-instance" xsi:schemaLocation="http://www.topografix.com/GPX/1/1 http://www.topografix.com/GPX/1/1/gpx.xsd" version="1.1" creator="VisuGPX - https://www.visugpx.com">
  <metadata>
    <name>Course à pied le matin</name>
  </metadata>
  <trk>
    <name><![CDATA[Course à pied le matin_1]]></name>
    <trkseg>
      <trkpt lat="43.64761" lon="1.37621">
        <ele>147</ele>
        <time>2025-03-23T09:29:28Z</time>
      </trkpt>
      <trkpt lat="43.64763" lon="1.37618">
        <ele>147</ele>
        <time>2025-03-23T09:29:29Z</time>
      </trkpt>
      <trkpt lat="43.64763" lon="1.37618">
        <ele>147</ele>
        <time>2025-03-23T09:29:30Z</time>
      </trkpt>
      <trkpt lat="43.64766" lon="1.37616">
        <ele>146</ele>
        <time>2025-03-23T09:29:31Z</time>
      </trkpt>
      <trkpt lat="43.64768" lon="1.37614">
        <ele>146</ele>
        <time>2025-03-23T09:29:32Z</time>
      </trkpt>
      <trkpt lat="43.6477" lon="1.37613">
        <ele>146</ele>
        <time>2025-03-23T09:29:33Z</time>
      </trkpt>
      <trkpt lat="43.64772" lon="1.37613">
        <ele>146</ele>
        <time>2025-03-23T09:29:34Z</time>
      </trkpt>
      <trkpt lat="43.64774" lon="1.37611">
        <ele>146</ele>
        <time>2025-03-23T09:29:35Z</time>
      </trkpt>
      <trkpt lat="43.64776" lon="1.37609">
        <ele>146</ele>
        <time>2025-03-23T09:29:36Z</time>
      </trkpt>
      <trkpt lat="43.64778" lon="1.37608">
        <ele>146</ele>
        <time>2025-03-23T09:29:37Z</time>
      </trkpt>
      <trkpt lat="43.6478" lon="1.37606">
        <ele>146</ele>
        <time>2025-03-23T09:29:38Z</time>
      </trkpt>
      <trkpt lat="43.64782" lon="1.37605">
        <ele>146</ele>
        <time>2025-03-23T09:29:39Z</time>
      </trkpt>
      <trkpt lat="43.64784" lon="1.37604">
        <ele>146</ele>
        <time>2025-03-23T09:29:40Z</time>
      </trkpt>
      <trkpt lat="43.64786" lon="1.37603">
        <ele>146</ele>
        <time>2025-03-23T09:29:41Z</time>
      </trkpt>
      <trkpt lat="43.64788" lon="1.37602">
        <ele>146</ele>
        <time>2025-03-23T09:29:42Z</time>
      </trkpt>
      <trkpt lat="43.6479" lon="1.37601">
        <ele>145</ele>
        <time>2025-03-23T09:29:43Z</time>
      </trkpt>
      <trkpt lat="43.64792" lon="1.376">
        <ele>145</ele>
        <time>2025-03-23T09:29:44Z</time>
      </trkpt>
      <trkpt lat="43.64794" lon="1.376">
        <ele>145</ele>
        <time>2025-03-23T09:29:45Z</time>
      </trkpt>
      <trkpt lat="43.64797" lon="1.37599">
        <ele>145</ele>
        <time>2025-03-23T09:29:46Z</time>
      </trkpt>
      <trkpt lat="43.64798" lon="1.376">
        <ele>146</ele>
        <time>2025-03-23T09:29:47Z</time>
      </trkpt>
      <trkpt lat="43.648" lon="1.376">
        <ele>146</ele>
        <time>2025-03-23T09:29:48Z</time>
      </trkpt>
      <trkpt lat="43.64803" lon="1.376">
        <ele>146</ele>
        <time>2025-03-23T09:29:49Z</time>
      </trkpt>
      <trkpt lat="43.64805" lon="1.37601">
        <ele>147</ele>
        <time>2025-03-23T09:29:50Z</time>
      </trkpt>
      <trkpt lat="43.64808" lon="1.37602">
        <ele>147</ele>
        <time>2025-03-23T09:29:51Z</time>
      </trkpt>
      <trkpt lat="43.64809" lon="1.37603">
        <ele>146</ele>
        <time>2025-03-23T09:29:52Z</time>
      </trkpt>
      <trkpt lat="43.64812" lon="1.37604">
        <ele>146</ele>
        <time>2025-03-23T09:29:53Z</time>
      </trkpt>
      <trkpt lat="43.64814" lon="1.37605">
        <ele>147</ele>
        <time>2025-03-23T09:29:54Z</time>
      </trkpt>
      <trkpt lat="43.64816" lon="1.37605">
        <ele>147</ele>
        <time>2025-03-23T09:29:55Z</time>
      </trkpt>
      <trkpt lat="43.64819" lon="1.37606">
        <ele>147</ele>
        <time>2025-03-23T09:29:56Z</time>
      </trkpt>
      <trkpt lat="43.64822" lon="1.37607">
        <ele>147</ele>
        <time>2025-03-23T09:29:57Z</time>
      </trkpt>
      <trkpt lat="43.64823" lon="1.37608">
        <ele>147</ele>
        <time>2025-03-23T09:29:58Z</time>
      </trkpt>
      <trkpt lat="43.64825" lon="1.37609">
        <ele>147</ele>
        <time>2025-03-23T09:29:59Z</time>
      </trkpt>
      <trkpt lat="43.64828" lon="1.3761">
        <ele>146</ele>
        <time>2025-03-23T09:30:00Z</time>
      </trkpt>
      <trkpt lat="43.64831" lon="1.37611">
        <ele>145</ele>
        <time>2025-03-23T09:30:01Z</time>
      </trkpt>
      <trkpt lat="43.64833" lon="1.37612">
        <ele>145</ele>
        <time>2025-03-23T09:30:02Z</time>
      </trkpt>
      <trkpt lat="43.64835" lon="1.37614">
        <ele>145</ele>
        <time>2025-03-23T09:30:03Z</time>
      </trkpt>
      <trkpt lat="43.64837" lon="1.37615">
        <ele>145</ele>
        <time>2025-03-23T09:30:04Z</time>
      </trkpt>
      <trkpt lat="43.64839" lon="1.37617">
        <ele>145</ele>
        <time>2025-03-23T09:30:05Z</time>
      </trkpt>
      <trkpt lat="43.64841" lon="1.37619">
        <ele>146</ele>
        <time>2025-03-23T09:30:06Z</time>
      </trkpt>
      <trkpt lat="43.64843" lon="1.3762">
        <ele>146</ele>
        <time>2025-03-23T09:30:07Z</time>
      </trkpt>
      <trkpt lat="43.64845" lon="1.37622">
        <ele>146</ele>
        <time>2025-03-23T09:30:08Z</time>
      </trkpt>
      <trkpt lat="43.64847" lon="1.37624">
        <ele>146</ele>
        <time>2025-03-23T09:30:09Z</time>
      </trkpt>
      <trkpt lat="43.64849" lon="1.37626">
        <ele>146</ele>
        <time>2025-03-23T09:30:10Z</time>
      </trkpt>
      <trkpt lat="43.64851" lon="1.37628">
        <ele>146</ele>
        <time>2025-03-23T09:30:11Z</time>
      </trkpt>
      <trkpt lat="43.64855" lon="1.37632">
        <ele>146</ele>
        <time>2025-03-23T09:30:12Z</time>
      </trkpt>
      <trkpt lat="43.64856" lon="1.37633">
        <ele>146</ele>
        <time>2025-03-23T09:30:13Z</time>
      </trkpt>
      <trkpt lat="43.64858" lon="1.37635">
        <ele>145</ele>
        <time>2025-03-23T09:30:14Z</time>
      </trkpt>
      <trkpt lat="43.6486" lon="1.37637">
        <ele>145</ele>
        <time>2025-03-23T09:30:15Z</time>
      </trkpt>
      <trkpt lat="43.64862" lon="1.3764">
        <ele>145</ele>
        <time>2025-03-23T09:30:16Z</time>
      </trkpt>
      <trkpt lat="43.64865" lon="1.37642">
        <ele>145</ele>
        <time>2025-03-23T09:30:17Z</time>
      </trkpt>
      <trkpt lat="43.64867" lon="1.37644">
        <ele>145</ele>
        <time>2025-03-23T09:30:18Z</time>
      </trkpt>
      <trkpt lat="43.64869" lon="1.37646">
        <ele>145</ele>
        <time>2025-03-23T09:30:19Z</time>
      </trkpt>
      <trkpt lat="43.64871" lon="1.37648">
        <ele>145</ele>
        <time>2025-03-23T09:30:20Z</time>
      </trkpt>
      <trkpt lat="43.64873" lon="1.37651">
        <ele>145</ele>
        <time>2025-03-23T09:30:21Z</time>
      </trkpt>
      <trkpt lat="43.64875" lon="1.37654">
        <ele>145</ele>
        <time>2025-03-23T09:30:22Z</time>
      </trkpt>
      <trkpt lat="43.64876" lon="1.37656">
        <ele>145</ele>
        <time>2025-03-23T09:30:23Z</time>
      </trkpt>
      <trkpt lat="43.64878" lon="1.37662">
        <ele>145</ele>
        <time>2025-03-23T09:30:24Z</time>
      </trkpt>
      <trkpt lat="43.64878" lon="1.37664">
        <ele>145</ele>
        <time>2025-03-23T09:30:25Z</time>
      </trkpt>
      <trkpt lat="43.6488" lon="1.37668">
        <ele>145</ele>
        <time>2025-03-23T09:30:26Z</time>
      </trkpt>
      <trkpt lat="43.6488" lon="1.37671">
        <ele>145</ele>
        <time>2025-03-23T09:30:27Z</time>
      </trkpt>
      <trkpt lat="43.64881" lon="1.37675">
        <ele>145</ele>
        <time>2025-03-23T09:30:28Z</time>
      </trkpt>
      <trkpt lat="43.64881" lon="1.37679">
        <ele>145</ele>
        <time>2025-03-23T09:30:29Z</time>
      </trkpt>
      <trkpt lat="43.64883" lon="1.37684">
        <ele>145</ele>
        <time>2025-03-23T09:30:30Z</time>
      </trkpt>
      <trkpt lat="43.64883" lon="1.37686">
        <ele>145</ele>
        <time>2025-03-23T09:30:31Z</time>
      </trkpt>
      <trkpt lat="43.64884" lon="1.37689">
        <ele>145</ele>
        <time>2025-03-23T09:30:32Z</time>
      </trkpt>
      <trkpt lat="43.64885" lon="1.37692">
        <ele>145</ele>
        <time>2025-03-23T09:30:33Z</time>
      </trkpt>
      <trkpt lat="43.64886" lon="1.37696">
        <ele>145</ele>
        <time>2025-03-23T09:30:34Z</time>
      </trkpt>
      <trkpt lat="43.64887" lon="1.37699">
        <ele>145</ele>
        <time>2025-03-23T09:30:35Z</time>
      </trkpt>
      <trkpt lat="43.64887" lon="1.37703">
        <ele>145</ele>
        <time>2025-03-23T09:30:36Z</time>
      </trkpt>
      <trkpt lat="43.64888" lon="1.37706">
        <ele>145</ele>
        <time>2025-03-23T09:30:37Z</time>
      </trkpt>
      <trkpt lat="43.64889" lon="1.37709">
        <ele>145</ele>
        <time>2025-03-23T09:30:38Z</time>
      </trkpt>
      <trkpt lat="43.6489" lon="1.37712">
        <ele>145</ele>
        <time>2025-03-23T09:30:39Z</time>
      </trkpt>
      <trkpt lat="43.64891" lon="1.37715">
        <ele>145</ele>
        <time>2025-03-23T09:30:40Z</time>
      </trkpt>
      <trkpt lat="43.64892" lon="1.37718">
        <ele>145</ele>
        <time>2025-03-23T09:30:41Z</time>
      </trkpt>
      <trkpt lat="43.64893" lon="1.37721">
        <ele>145</ele>
        <time>2025-03-23T09:30:42Z</time>
      </trkpt>
      <trkpt lat="43.64894" lon="1.37726">
        <ele>145</ele>
        <time>2025-03-23T09:30:43Z</time>
      </trkpt>
      <trkpt lat="43.64894" lon="1.37728">
        <ele>145</ele>
        <time>2025-03-23T09:30:44Z</time>
      </trkpt>
      <trkpt lat="43.64895" lon="1.37731">
        <ele>145</ele>
        <time>2025-03-23T09:30:45Z</time>
      </trkpt>
      <trkpt lat="43.64896" lon="1.37735">
        <ele>145</ele>
        <time>2025-03-23T09:30:46Z</time>
      </trkpt>
      <trkpt lat="43.64896" lon="1.37738">
        <ele>145</ele>
        <time>2025-03-23T09:30:47Z</time>
      </trkpt>
      <trkpt lat="43.64896" lon="1.37741">
        <ele>145</ele>
        <time>2025-03-23T09:30:48Z</time>
      </trkpt>
      <trkpt lat="43.64897" lon="1.37744">
        <ele>145</ele>
        <time>2025-03-23T09:30:49Z</time>
      </trkpt>
      <trkpt lat="43.64898" lon="1.37749">
        <ele>145</ele>
        <time>2025-03-23T09:30:50Z</time>
      </trkpt>
      <trkpt lat="43.64898" lon="1.3775">
        <ele>145</ele>
        <time>2025-03-23T09:30:51Z</time>
      </trkpt>
      <trkpt lat="43.64898" lon="1.37754">
        <ele>145</ele>
        <time>2025-03-23T09:30:52Z</time>
      </trkpt>
      <trkpt lat="43.64899" lon="1.37757">
        <ele>145</ele>
        <time>2025-03-23T09:30:53Z</time>
      </trkpt>
      <trkpt lat="43.64899" lon="1.3776">
        <ele>145</ele>
        <time>2025-03-23T09:30:54Z</time>
      </trkpt>
      <trkpt lat="43.649" lon="1.37763">
        <ele>145</ele>
        <time>2025-03-23T09:30:55Z</time>
      </trkpt>
      <trkpt lat="43.649" lon="1.37766">
        <ele>145</ele>
        <time>2025-03-23T09:30:56Z</time>
      </trkpt>
      <trkpt lat="43.64901" lon="1.37769">
        <ele>145</ele>
        <time>2025-03-23T09:30:57Z</time>
      </trkpt>
      <trkpt lat="43.64902" lon="1.37773">
        <ele>145</ele>
        <time>2025-03-23T09:30:58Z</time>
      </trkpt>
      <trkpt lat="43.64904" lon="1.37776">
        <ele>145</ele>
        <time>2025-03-23T09:30:59Z</time>
      </trkpt>
      <trkpt lat="43.64905" lon="1.37779">
        <ele>145</ele>
        <time>2025-03-23T09:31:00Z</time>
      </trkpt>
      <trkpt lat="43.64906" lon="1.37782">
        <ele>145</ele>
        <time>2025-03-23T09:31:01Z</time>
      </trkpt>
      <trkpt lat="43.64908" lon="1.37786">
        <ele>145</ele>
        <time>2025-03-23T09:31:02Z</time>
      </trkpt>
      <trkpt lat="43.64908" lon="1.37788">
        <ele>145</ele>
        <time>2025-03-23T09:31:03Z</time>
      </trkpt>
      <trkpt lat="43.64909" lon="1.37791">
        <ele>145</ele>
        <time>2025-03-23T09:31:04Z</time>
      </trkpt>
      <trkpt lat="43.6491" lon="1.37794">
        <ele>145</ele>
        <time>2025-03-23T09:31:05Z</time>
      </trkpt>
      <trkpt lat="43.6491" lon="1.37797">
        <ele>145</ele>
        <time>2025-03-23T09:31:06Z</time>
      </trkpt>
      <trkpt lat="43.64911" lon="1.378">
        <ele>145</ele>
        <time>2025-03-23T09:31:07Z</time>
      </trkpt>
      <trkpt lat="43.64911" lon="1.37803">
        <ele>145</ele>
        <time>2025-03-23T09:31:08Z</time>
      </trkpt>
      <trkpt lat="43.64912" lon="1.37807">
        <ele>145</ele>
        <time>2025-03-23T09:31:09Z</time>
      </trkpt>
      <trkpt lat="43.64912" lon="1.3781">
        <ele>145</ele>
        <time>2025-03-23T09:31:10Z</time>
      </trkpt>
      <trkpt lat="43.64913" lon="1.37814">
        <ele>145</ele>
        <time>2025-03-23T09:31:11Z</time>
      </trkpt>
      <trkpt lat="43.64913" lon="1.37816">
        <ele>145</ele>
        <time>2025-03-23T09:31:12Z</time>
      </trkpt>
      <trkpt lat="43.64913" lon="1.37819">
        <ele>145</ele>
        <time>2025-03-23T09:31:13Z</time>
      </trkpt>
      <trkpt lat="43.64914" lon="1.37823">
        <ele>145</ele>
        <time>2025-03-23T09:31:14Z</time>
      </trkpt>
      <trkpt lat="43.64915" lon="1.37826">
        <ele>145</ele>
        <time>2025-03-23T09:31:15Z</time>
      </trkpt>
      <trkpt lat="43.64916" lon="1.37828">
        <ele>145</ele>
        <time>2025-03-23T09:31:16Z</time>
      </trkpt>
      <trkpt lat="43.64916" lon="1.37831">
        <ele>145</ele>
        <time>2025-03-23T09:31:17Z</time>
      </trkpt>
      <trkpt lat="43.64918" lon="1.37835">
        <ele>145</ele>
        <time>2025-03-23T09:31:18Z</time>
      </trkpt>
      <trkpt lat="43.64919" lon="1.37838">
        <ele>145</ele>
        <time>2025-03-23T09:31:19Z</time>
      </trkpt>
      <trkpt lat="43.6492" lon="1.37841">
        <ele>145</ele>
        <time>2025-03-23T09:31:20Z</time>
      </trkpt>
      <trkpt lat="43.64922" lon="1.37846">
        <ele>145</ele>
        <time>2025-03-23T09:31:21Z</time>
      </trkpt>
      <trkpt lat="43.64922" lon="1.37847">
        <ele>145</ele>
        <time>2025-03-23T09:31:22Z</time>
      </trkpt>
      <trkpt lat="43.64923" lon="1.37851">
        <ele>144</ele>
        <time>2025-03-23T09:31:23Z</time>
      </trkpt>
      <trkpt lat="43.64924" lon="1.37854">
        <ele>144</ele>
        <time>2025-03-23T09:31:24Z</time>
      </trkpt>
      <trkpt lat="43.64925" lon="1.37857">
        <ele>145</ele>
        <time>2025-03-23T09:31:25Z</time>
      </trkpt>
      <trkpt lat="43.64926" lon="1.3786">
        <ele>145</ele>
        <time>2025-03-23T09:31:26Z</time>
      </trkpt>
      <trkpt lat="43.64926" lon="1.37863">
        <ele>145</ele>
        <time>2025-03-23T09:31:27Z</time>
      </trkpt>
      <trkpt lat="43.64927" lon="1.37866">
        <ele>145</ele>
        <time>2025-03-23T09:31:28Z</time>
      </trkpt>
      <trkpt lat="43.64928" lon="1.37869">
        <ele>144</ele>
        <time>2025-03-23T09:31:29Z</time>
      </trkpt>
      <trkpt lat="43.64928" lon="1.37872">
        <ele>144</ele>
        <time>2025-03-23T09:31:30Z</time>
      </trkpt>
      <trkpt lat="43.6493" lon="1.37875">
        <ele>144</ele>
        <time>2025-03-23T09:31:31Z</time>
      </trkpt>
      <trkpt lat="43.64931" lon="1.3788">
        <ele>144</ele>
        <time>2025-03-23T09:31:32Z</time>
      </trkpt>
      <trkpt lat="43.64932" lon="1.37882">
        <ele>144</ele>
        <time>2025-03-23T09:31:33Z</time>
      </trkpt>
      <trkpt lat="43.64932" lon="1.37885">
        <ele>144</ele>
        <time>2025-03-23T09:31:34Z</time>
      </trkpt>
      <trkpt lat="43.64933" lon="1.37888">
        <ele>144</ele>
        <time>2025-03-23T09:31:35Z</time>
      </trkpt>
      <trkpt lat="43.64933" lon="1.37891">
        <ele>144</ele>
        <time>2025-03-23T09:31:36Z</time>
      </trkpt>
      <trkpt lat="43.64934" lon="1.37894">
        <ele>144</ele>
        <time>2025-03-23T09:31:37Z</time>
      </trkpt>
      <trkpt lat="43.64935" lon="1.37898">
        <ele>144</ele>
        <time>2025-03-23T09:31:38Z</time>
      </trkpt>
      <trkpt lat="43.64936" lon="1.37901">
        <ele>144</ele>
        <time>2025-03-23T09:31:39Z</time>
      </trkpt>
      <trkpt lat="43.64937" lon="1.37906">
        <ele>144</ele>
        <time>2025-03-23T09:31:40Z</time>
      </trkpt>
      <trkpt lat="43.64938" lon="1.37907">
        <ele>144</ele>
        <time>2025-03-23T09:31:41Z</time>
      </trkpt>
      <trkpt lat="43.64938" lon="1.3791">
        <ele>144</ele>
        <time>2025-03-23T09:31:42Z</time>
      </trkpt>
      <trkpt lat="43.64939" lon="1.37913">
        <ele>144</ele>
        <time>2025-03-23T09:31:43Z</time>
      </trkpt>
      <trkpt lat="43.64939" lon="1.37917">
        <ele>144</ele>
        <time>2025-03-23T09:31:44Z</time>
      </trkpt>
      <trkpt lat="43.6494" lon="1.3792">
        <ele>144</ele>
        <time>2025-03-23T09:31:45Z</time>
      </trkpt>
      <trkpt lat="43.6494" lon="1.37923">
        <ele>144</ele>
        <time>2025-03-23T09:31:46Z</time>
      </trkpt>
      <trkpt lat="43.6494" lon="1.37926">
        <ele>143</ele>
        <time>2025-03-23T09:31:47Z</time>
      </trkpt>
      <trkpt lat="43.64941" lon="1.37929">
        <ele>143</ele>
        <time>2025-03-23T09:31:48Z</time>
      </trkpt>
      <trkpt lat="43.64942" lon="1.37932">
        <ele>143</ele>
        <time>2025-03-23T09:31:49Z</time>
      </trkpt>
      <trkpt lat="43.64943" lon="1.37935">
        <ele>143</ele>
        <time>2025-03-23T09:31:50Z</time>
      </trkpt>
      <trkpt lat="43.64943" lon="1.37938">
        <ele>144</ele>
        <time>2025-03-23T09:31:51Z</time>
      </trkpt>
      <trkpt lat="43.64943" lon="1.37941">
        <ele>144</ele>
        <time>2025-03-23T09:31:52Z</time>
      </trkpt>
      <trkpt lat="43.64945" lon="1.37945">
        <ele>144</ele>
        <time>2025-03-23T09:31:53Z</time>
      </trkpt>
      <trkpt lat="43.64945" lon="1.37947">
        <ele>144</ele>
        <time>2025-03-23T09:31:54Z</time>
      </trkpt>
      <trkpt lat="43.64946" lon="1.37951">
        <ele>144</ele>
        <time>2025-03-23T09:31:55Z</time>
      </trkpt>
      <trkpt lat="43.64946" lon="1.37954">
        <ele>144</ele>
        <time>2025-03-23T09:31:56Z</time>
      </trkpt>
      <trkpt lat="43.64947" lon="1.37957">
        <ele>144</ele>
        <time>2025-03-23T09:31:57Z</time>
      </trkpt>
      <trkpt lat="43.64948" lon="1.3796">
        <ele>144</ele>
        <time>2025-03-23T09:31:58Z</time>
      </trkpt>
      <trkpt lat="43.64949" lon="1.37965">
        <ele>144</ele>
        <time>2025-03-23T09:31:59Z</time>
      </trkpt>
      <trkpt lat="43.6495" lon="1.37967">
        <ele>143</ele>
        <time>2025-03-23T09:32:00Z</time>
      </trkpt>
      <trkpt lat="43.6495" lon="1.3797">
        <ele>143</ele>
        <time>2025-03-23T09:32:01Z</time>
      </trkpt>
      <trkpt lat="43.6495" lon="1.37973">
        <ele>143</ele>
        <time>2025-03-23T09:32:02Z</time>
      </trkpt>
      <trkpt lat="43.6495" lon="1.37976">
        <ele>143</ele>
        <time>2025-03-23T09:32:03Z</time>
      </trkpt>
      <trkpt lat="43.64951" lon="1.3798">
        <ele>143</ele>
        <time>2025-03-23T09:32:04Z</time>
      </trkpt>
      <trkpt lat="43.64951" lon="1.37984">
        <ele>143</ele>
        <time>2025-03-23T09:32:05Z</time>
      </trkpt>
      <trkpt lat="43.64953" lon="1.37987">
        <ele>143</ele>
        <time>2025-03-23T09:32:06Z</time>
      </trkpt>
      <trkpt lat="43.64954" lon="1.37992">
        <ele>143</ele>
        <time>2025-03-23T09:32:07Z</time>
      </trkpt>
      <trkpt lat="43.64955" lon="1.37993">
        <ele>143</ele>
        <time>2025-03-23T09:32:08Z</time>
      </trkpt>
      <trkpt lat="43.64956" lon="1.37996">
        <ele>143</ele>
        <time>2025-03-23T09:32:09Z</time>
      </trkpt>
      <trkpt lat="43.64957" lon="1.37998">
        <ele>143</ele>
        <time>2025-03-23T09:32:10Z</time>
      </trkpt>
      <trkpt lat="43.64959" lon="1.38">
        <ele>143</ele>
        <time>2025-03-23T09:32:11Z</time>
      </trkpt>
      <trkpt lat="43.64961" lon="1.38002">
        <ele>144</ele>
        <time>2025-03-23T09:32:12Z</time>
      </trkpt>
      <trkpt lat="43.64962" lon="1.38004">
        <ele>144</ele>
        <time>2025-03-23T09:32:13Z</time>
      </trkpt>
      <trkpt lat="43.64963" lon="1.38006">
        <ele>144</ele>
        <time>2025-03-23T09:32:14Z</time>
      </trkpt>
      <trkpt lat="43.64964" lon="1.38009">
        <ele>144</ele>
        <time>2025-03-23T09:32:15Z</time>
      </trkpt>
      <trkpt lat="43.64965" lon="1.38012">
        <ele>144</ele>
        <time>2025-03-23T09:32:16Z</time>
      </trkpt>
      <trkpt lat="43.64965" lon="1.38014">
        <ele>144</ele>
        <time>2025-03-23T09:32:17Z</time>
      </trkpt>
      <trkpt lat="43.64966" lon="1.38017">
        <ele>144</ele>
        <time>2025-03-23T09:32:18Z</time>
      </trkpt>
      <trkpt lat="43.64966" lon="1.3802">
        <ele>143</ele>
        <time>2025-03-23T09:32:19Z</time>
      </trkpt>
      <trkpt lat="43.64967" lon="1.38023">
        <ele>143</ele>
        <time>2025-03-23T09:32:20Z</time>
      </trkpt>
      <trkpt lat="43.64968" lon="1.38027">
        <ele>143</ele>
        <time>2025-03-23T09:32:21Z</time>
      </trkpt>
      <trkpt lat="43.64969" lon="1.3803">
        <ele>143</ele>
        <time>2025-03-23T09:32:22Z</time>
      </trkpt>
      <trkpt lat="43.6497" lon="1.38033">
        <ele>143</ele>
        <time>2025-03-23T09:32:23Z</time>
      </trkpt>
      <trkpt lat="43.64971" lon="1.38036">
        <ele>143</ele>
        <time>2025-03-23T09:32:24Z</time>
      </trkpt>
      <trkpt lat="43.64972" lon="1.38038">
        <ele>143</ele>
        <time>2025-03-23T09:32:25Z</time>
      </trkpt>
      <trkpt lat="43.64973" lon="1.38041">
        <ele>143</ele>
        <time>2025-03-23T09:32:26Z</time>
      </trkpt>
      <trkpt lat="43.64974" lon="1.38044">
        <ele>143</ele>
        <time>2025-03-23T09:32:27Z</time>
      </trkpt>
      <trkpt lat="43.64975" lon="1.38047">
        <ele>143</ele>
        <time>2025-03-23T09:32:28Z</time>
      </trkpt>
      <trkpt lat="43.64976" lon="1.3805">
        <ele>143</ele>
        <time>2025-03-23T09:32:29Z</time>
      </trkpt>
      <trkpt lat="43.64978" lon="1.38052">
        <ele>143</ele>
        <time>2025-03-23T09:32:30Z</time>
      </trkpt>
      <trkpt lat="43.64979" lon="1.38055">
        <ele>143</ele>
        <time>2025-03-23T09:32:31Z</time>
      </trkpt>
      <trkpt lat="43.64979" lon="1.38058">
        <ele>143</ele>
        <time>2025-03-23T09:32:32Z</time>
      </trkpt>
      <trkpt lat="43.6498" lon="1.38061">
        <ele>143</ele>
        <time>2025-03-23T09:32:33Z</time>
      </trkpt>
      <trkpt lat="43.64981" lon="1.38064">
        <ele>143</ele>
        <time>2025-03-23T09:32:34Z</time>
      </trkpt>
      <trkpt lat="43.64982" lon="1.38069">
        <ele>143</ele>
        <time>2025-03-23T09:32:35Z</time>
      </trkpt>
      <trkpt lat="43.64983" lon="1.3807">
        <ele>143</ele>
        <time>2025-03-23T09:32:36Z</time>
      </trkpt>
      <trkpt lat="43.64984" lon="1.38074">
        <ele>143</ele>
        <time>2025-03-23T09:32:37Z</time>
      </trkpt>
      <trkpt lat="43.64985" lon="1.38076">
        <ele>144</ele>
        <time>2025-03-23T09:32:38Z</time>
      </trkpt>
      <trkpt lat="43.64986" lon="1.38078">
        <ele>144</ele>
        <time>2025-03-23T09:32:39Z</time>
      </trkpt>
      <trkpt lat="43.64988" lon="1.38081">
        <ele>143</ele>
        <time>2025-03-23T09:32:40Z</time>
      </trkpt>
      <trkpt lat="43.64989" lon="1.38084">
        <ele>143</ele>
        <time>2025-03-23T09:32:41Z</time>
      </trkpt>
      <trkpt lat="43.6499" lon="1.38088">
        <ele>143</ele>
        <time>2025-03-23T09:32:42Z</time>
      </trkpt>
      <trkpt lat="43.64992" lon="1.38091">
        <ele>143</ele>
        <time>2025-03-23T09:32:43Z</time>
      </trkpt>
      <trkpt lat="43.64993" lon="1.38093">
        <ele>143</ele>
        <time>2025-03-23T09:32:44Z</time>
      </trkpt>
      <trkpt lat="43.64995" lon="1.38096">
        <ele>144</ele>
        <time>2025-03-23T09:32:45Z</time>
      </trkpt>
      <trkpt lat="43.64997" lon="1.38099">
        <ele>144</ele>
        <time>2025-03-23T09:32:46Z</time>
      </trkpt>
      <trkpt lat="43.64998" lon="1.38102">
        <ele>144</ele>
        <time>2025-03-23T09:32:47Z</time>
      </trkpt>
      <trkpt lat="43.65" lon="1.38105">
        <ele>144</ele>
        <time>2025-03-23T09:32:48Z</time>
      </trkpt>
      <trkpt lat="43.65" lon="1.38108">
        <ele>144</ele>
        <time>2025-03-23T09:32:49Z</time>
      </trkpt>
      <trkpt lat="43.65001" lon="1.38111">
        <ele>144</ele>
        <time>2025-03-23T09:32:50Z</time>
      </trkpt>
      <trkpt lat="43.65002" lon="1.38114">
        <ele>144</ele>
        <time>2025-03-23T09:32:51Z</time>
      </trkpt>
      <trkpt lat="43.65003" lon="1.38117">
        <ele>144</ele>
        <time>2025-03-23T09:32:52Z</time>
      </trkpt>
      <trkpt lat="43.65004" lon="1.38121">
        <ele>144</ele>
        <time>2025-03-23T09:32:53Z</time>
      </trkpt>
      <trkpt lat="43.65005" lon="1.38124">
        <ele>144</ele>
        <time>2025-03-23T09:32:54Z</time>
      </trkpt>
      <trkpt lat="43.65006" lon="1.38127">
        <ele>144</ele>
        <time>2025-03-23T09:32:55Z</time>
      </trkpt>
      <trkpt lat="43.65006" lon="1.38131">
        <ele>144</ele>
        <time>2025-03-23T09:32:56Z</time>
      </trkpt>
      <trkpt lat="43.65008" lon="1.38134">
        <ele>144</ele>
        <time>2025-03-23T09:32:57Z</time>
      </trkpt>
      <trkpt lat="43.65009" lon="1.38138">
        <ele>144</ele>
        <time>2025-03-23T09:32:58Z</time>
      </trkpt>
      <trkpt lat="43.6501" lon="1.38142">
        <ele>144</ele>
        <time>2025-03-23T09:32:59Z</time>
      </trkpt>
      <trkpt lat="43.65011" lon="1.38146">
        <ele>144</ele>
        <time>2025-03-23T09:33:00Z</time>
      </trkpt>
      <trkpt lat="43.65013" lon="1.3815">
        <ele>144</ele>
        <time>2025-03-23T09:33:01Z</time>
      </trkpt>
      <trkpt lat="43.65012" lon="1.38153">
        <ele>144</ele>
        <time>2025-03-23T09:33:02Z</time>
      </trkpt>
      <trkpt lat="43.65012" lon="1.38156">
        <ele>144</ele>
        <time>2025-03-23T09:33:03Z</time>
      </trkpt>
      <trkpt lat="43.65013" lon="1.38159">
        <ele>144</ele>
        <time>2025-03-23T09:33:04Z</time>
      </trkpt>
      <trkpt lat="43.65012" lon="1.38162">
        <ele>144</ele>
        <time>2025-03-23T09:33:05Z</time>
      </trkpt>
      <trkpt lat="43.65011" lon="1.38165">
        <ele>144</ele>
        <time>2025-03-23T09:33:06Z</time>
      </trkpt>
      <trkpt lat="43.65009" lon="1.38168">
        <ele>144</ele>
        <time>2025-03-23T09:33:07Z</time>
      </trkpt>
      <trkpt lat="43.65008" lon="1.38171">
        <ele>144</ele>
        <time>2025-03-23T09:33:08Z</time>
      </trkpt>
      <trkpt lat="43.65008" lon="1.38174">
        <ele>144</ele>
        <time>2025-03-23T09:33:09Z</time>
      </trkpt>
      <trkpt lat="43.65008" lon="1.38178">
        <ele>144</ele>
        <time>2025-03-23T09:33:10Z</time>
      </trkpt>
      <trkpt lat="43.65008" lon="1.38181">
        <ele>144</ele>
        <time>2025-03-23T09:33:11Z</time>
      </trkpt>
      <trkpt lat="43.65008" lon="1.38184">
        <ele>144</ele>
        <time>2025-03-23T09:33:12Z</time>
      </trkpt>
      <trkpt lat="43.65008" lon="1.38187">
        <ele>143</ele>
        <time>2025-03-23T09:33:13Z</time>
      </trkpt>
      <trkpt lat="43.65008" lon="1.38191">
        <ele>143</ele>
        <time>2025-03-23T09:33:14Z</time>
      </trkpt>
      <trkpt lat="43.65005" lon="1.38195">
        <ele>143</ele>
        <time>2025-03-23T09:33:15Z</time>
      </trkpt>
      <trkpt lat="43.65003" lon="1.38197">
        <ele>144</ele>
        <time>2025-03-23T09:33:16Z</time>
      </trkpt>
      <trkpt lat="43.65" lon="1.38199">
        <ele>144</ele>
        <time>2025-03-23T09:33:17Z</time>
      </trkpt>
      <trkpt lat="43.64996" lon="1.38201">
        <ele>144</ele>
        <time>2025-03-23T09:33:18Z</time>
      </trkpt>
      <trkpt lat="43.64993" lon="1.38203">
        <ele>144</ele>
        <time>2025-03-23T09:33:19Z</time>
      </trkpt>
      <trkpt lat="43.6499" lon="1.38205">
        <ele>144</ele>
        <time>2025-03-23T09:33:20Z</time>
      </trkpt>
      <trkpt lat="43.64987" lon="1.38207">
        <ele>144</ele>
        <time>2025-03-23T09:33:21Z</time>
      </trkpt>
      <trkpt lat="43.64984" lon="1.38208">
        <ele>144</ele>
        <time>2025-03-23T09:33:22Z</time>
      </trkpt>
      <trkpt lat="43.64982" lon="1.3821">
        <ele>144</ele>
        <time>2025-03-23T09:33:23Z</time>
      </trkpt>
      <trkpt lat="43.64979" lon="1.38212">
        <ele>145</ele>
        <time>2025-03-23T09:33:24Z</time>
      </trkpt>
      <trkpt lat="43.64977" lon="1.38213">
        <ele>145</ele>
        <time>2025-03-23T09:33:25Z</time>
      </trkpt>
      <trkpt lat="43.64974" lon="1.38215">
        <ele>145</ele>
        <time>2025-03-23T09:33:26Z</time>
      </trkpt>
      <trkpt lat="43.64972" lon="1.38217">
        <ele>145</ele>
        <time>2025-03-23T09:33:27Z</time>
      </trkpt>
      <trkpt lat="43.6497" lon="1.38218">
        <ele>145</ele>
        <time>2025-03-23T09:33:28Z</time>
      </trkpt>
      <trkpt lat="43.64968" lon="1.3822">
        <ele>145</ele>
        <time>2025-03-23T09:33:29Z</time>
      </trkpt>
      <trkpt lat="43.64966" lon="1.38221">
        <ele>145</ele>
        <time>2025-03-23T09:33:30Z</time>
      </trkpt>
      <trkpt lat="43.64964" lon="1.38223">
        <ele>145</ele>
        <time>2025-03-23T09:33:31Z</time>
      </trkpt>
      <trkpt lat="43.6496" lon="1.38225">
        <ele>145</ele>
        <time>2025-03-23T09:33:32Z</time>
      </trkpt>
      <trkpt lat="43.64959" lon="1.38225">
        <ele>145</ele>
        <time>2025-03-23T09:33:33Z</time>
      </trkpt>
      <trkpt lat="43.64956" lon="1.38227">
        <ele>145</ele>
        <time>2025-03-23T09:33:34Z</time>
      </trkpt>
      <trkpt lat="43.64955" lon="1.38228">
        <ele>145</ele>
        <time>2025-03-23T09:33:35Z</time>
      </trkpt>
      <trkpt lat="43.64952" lon="1.3823">
        <ele>145</ele>
        <time>2025-03-23T09:33:36Z</time>
      </trkpt>
      <trkpt lat="43.6495" lon="1.38231">
        <ele>145</ele>
        <time>2025-03-23T09:33:37Z</time>
      </trkpt>
      <trkpt lat="43.64948" lon="1.38233">
        <ele>145</ele>
        <time>2025-03-23T09:33:38Z</time>
      </trkpt>
      <trkpt lat="43.64946" lon="1.38235">
        <ele>145</ele>
        <time>2025-03-23T09:33:39Z</time>
      </trkpt>
      <trkpt lat="43.64944" lon="1.38237">
        <ele>145</ele>
        <time>2025-03-23T09:33:40Z</time>
      </trkpt>
      <trkpt lat="43.64942" lon="1.38239">
        <ele>145</ele>
        <time>2025-03-23T09:33:41Z</time>
      </trkpt>
      <trkpt lat="43.6494" lon="1.38241">
        <ele>145</ele>
        <time>2025-03-23T09:33:42Z</time>
      </trkpt>
      <trkpt lat="43.64938" lon="1.38242">
        <ele>145</ele>
        <time>2025-03-23T09:33:43Z</time>
      </trkpt>
      <trkpt lat="43.64936" lon="1.38244">
        <ele>145</ele>
        <time>2025-03-23T09:33:44Z</time>
      </trkpt>
      <trkpt lat="43.64934" lon="1.38247">
        <ele>145</ele>
        <time>2025-03-23T09:33:45Z</time>
      </trkpt>
      <trkpt lat="43.64932" lon="1.38248">
        <ele>145</ele>
        <time>2025-03-23T09:33:46Z</time>
      </trkpt>
      <trkpt lat="43.64929" lon="1.3825">
        <ele>145</ele>
        <time>2025-03-23T09:33:47Z</time>
      </trkpt>
      <trkpt lat="43.64927" lon="1.38252">
        <ele>145</ele>
        <time>2025-03-23T09:33:48Z</time>
      </trkpt>
      <trkpt lat="43.64925" lon="1.38254">
        <ele>145</ele>
        <time>2025-03-23T09:33:49Z</time>
      </trkpt>
      <trkpt lat="43.64922" lon="1.38256">
        <ele>145</ele>
        <time>2025-03-23T09:33:50Z</time>
      </trkpt>
      <trkpt lat="43.6492" lon="1.38257">
        <ele>145</ele>
        <time>2025-03-23T09:33:51Z</time>
      </trkpt>
      <trkpt lat="43.64917" lon="1.38258">
        <ele>145</ele>
        <time>2025-03-23T09:33:52Z</time>
      </trkpt>
      <trkpt lat="43.64915" lon="1.38259">
        <ele>145</ele>
        <time>2025-03-23T09:33:53Z</time>
      </trkpt>
      <trkpt lat="43.64913" lon="1.3826">
        <ele>145</ele>
        <time>2025-03-23T09:33:54Z</time>
      </trkpt>
      <trkpt lat="43.6491" lon="1.3826">
        <ele>145</ele>
        <time>2025-03-23T09:33:55Z</time>
      </trkpt>
      <trkpt lat="43.64908" lon="1.38262">
        <ele>145</ele>
        <time>2025-03-23T09:33:56Z</time>
      </trkpt>
      <trkpt lat="43.64906" lon="1.38263">
        <ele>145</ele>
        <time>2025-03-23T09:33:57Z</time>
      </trkpt>
      <trkpt lat="43.64902" lon="1.38264">
        <ele>145</ele>
        <time>2025-03-23T09:33:58Z</time>
      </trkpt>
      <trkpt lat="43.649" lon="1.38265">
        <ele>145</ele>
        <time>2025-03-23T09:33:59Z</time>
      </trkpt>
      <trkpt lat="43.64898" lon="1.38266">
        <ele>145</ele>
        <time>2025-03-23T09:34:00Z</time>
      </trkpt>
      <trkpt lat="43.64896" lon="1.38268">
        <ele>145</ele>
        <time>2025-03-23T09:34:01Z</time>
      </trkpt>
      <trkpt lat="43.64894" lon="1.38269">
        <ele>145</ele>
        <time>2025-03-23T09:34:02Z</time>
      </trkpt>
      <trkpt lat="43.64892" lon="1.38271">
        <ele>145</ele>
        <time>2025-03-23T09:34:03Z</time>
      </trkpt>
      <trkpt lat="43.6489" lon="1.38273">
        <ele>145</ele>
        <time>2025-03-23T09:34:04Z</time>
      </trkpt>
      <trkpt lat="43.64888" lon="1.38275">
        <ele>145</ele>
        <time>2025-03-23T09:34:05Z</time>
      </trkpt>
      <trkpt lat="43.64886" lon="1.38277">
        <ele>145</ele>
        <time>2025-03-23T09:34:06Z</time>
      </trkpt>
      <trkpt lat="43.64884" lon="1.38279">
        <ele>145</ele>
        <time>2025-03-23T09:34:07Z</time>
      </trkpt>
      <trkpt lat="43.64882" lon="1.38281">
        <ele>145</ele>
        <time>2025-03-23T09:34:08Z</time>
      </trkpt>
      <trkpt lat="43.6488" lon="1.38282">
        <ele>145</ele>
        <time>2025-03-23T09:34:09Z</time>
      </trkpt>
      <trkpt lat="43.64878" lon="1.38283">
        <ele>145</ele>
        <time>2025-03-23T09:34:10Z</time>
      </trkpt>
      <trkpt lat="43.64876" lon="1.38285">
        <ele>145</ele>
        <time>2025-03-23T09:34:11Z</time>
      </trkpt>
      <trkpt lat="43.64873" lon="1.38286">
        <ele>145</ele>
        <time>2025-03-23T09:34:12Z</time>
      </trkpt>
      <trkpt lat="43.64872" lon="1.38287">
        <ele>145</ele>
        <time>2025-03-23T09:34:13Z</time>
      </trkpt>
      <trkpt lat="43.6487" lon="1.38288">
        <ele>145</ele>
        <time>2025-03-23T09:34:14Z</time>
      </trkpt>
      <trkpt lat="43.64868" lon="1.3829">
        <ele>145</ele>
        <time>2025-03-23T09:34:15Z</time>
      </trkpt>
      <trkpt lat="43.64865" lon="1.38291">
        <ele>145</ele>
        <time>2025-03-23T09:34:16Z</time>
      </trkpt>
      <trkpt lat="43.64863" lon="1.38292">
        <ele>145</ele>
        <time>2025-03-23T09:34:17Z</time>
      </trkpt>
      <trkpt lat="43.64861" lon="1.38294">
        <ele>145</ele>
        <time>2025-03-23T09:34:18Z</time>
      </trkpt>
      <trkpt lat="43.64858" lon="1.38296">
        <ele>145</ele>
        <time>2025-03-23T09:34:19Z</time>
      </trkpt>
      <trkpt lat="43.64857" lon="1.38297">
        <ele>145</ele>
        <time>2025-03-23T09:34:20Z</time>
      </trkpt>
      <trkpt lat="43.64854" lon="1.38299">
        <ele>145</ele>
        <time>2025-03-23T09:34:21Z</time>
      </trkpt>
      <trkpt lat="43.64853" lon="1.383">
        <ele>145</ele>
        <time>2025-03-23T09:34:22Z</time>
      </trkpt>
      <trkpt lat="43.64851" lon="1.38302">
        <ele>145</ele>
        <time>2025-03-23T09:34:23Z</time>
      </trkpt>
      <trkpt lat="43.64848" lon="1.38303">
        <ele>144</ele>
        <time>2025-03-23T09:34:24Z</time>
      </trkpt>
      <trkpt lat="43.64846" lon="1.38305">
        <ele>144</ele>
        <time>2025-03-23T09:34:25Z</time>
      </trkpt>
      <trkpt lat="43.64844" lon="1.38306">
        <ele>144</ele>
        <time>2025-03-23T09:34:26Z</time>
      </trkpt>
      <trkpt lat="43.64842" lon="1.38308">
        <ele>144</ele>
        <time>2025-03-23T09:34:27Z</time>
      </trkpt>
      <trkpt lat="43.6484" lon="1.38309">
        <ele>144</ele>
        <time>2025-03-23T09:34:28Z</time>
      </trkpt>
      <trkpt lat="43.6484" lon="1.38309">
        <ele>145</ele>
        <time>2025-03-23T09:34:29Z</time>
      </trkpt>
      <trkpt lat="43.64837" lon="1.38312">
        <ele>145</ele>
        <time>2025-03-23T09:34:30Z</time>
      </trkpt>
      <trkpt lat="43.64835" lon="1.38313">
        <ele>145</ele>
        <time>2025-03-23T09:34:31Z</time>
      </trkpt>
      <trkpt lat="43.64834" lon="1.38314">
        <ele>145</ele>
        <time>2025-03-23T09:34:32Z</time>
      </trkpt>
      <trkpt lat="43.64832" lon="1.38316">
        <ele>145</ele>
        <time>2025-03-23T09:34:33Z</time>
      </trkpt>
      <trkpt lat="43.64829" lon="1.38317">
        <ele>145</ele>
        <time>2025-03-23T09:34:34Z</time>
      </trkpt>
      <trkpt lat="43.64828" lon="1.38318">
        <ele>145</ele>
        <time>2025-03-23T09:34:35Z</time>
      </trkpt>
      <trkpt lat="43.64825" lon="1.38319">
        <ele>145</ele>
        <time>2025-03-23T09:34:36Z</time>
      </trkpt>
      <trkpt lat="43.64823" lon="1.38321">
        <ele>145</ele>
        <time>2025-03-23T09:34:37Z</time>
      </trkpt>
      <trkpt lat="43.64821" lon="1.38322">
        <ele>145</ele>
        <time>2025-03-23T09:34:38Z</time>
      </trkpt>
      <trkpt lat="43.64819" lon="1.38324">
        <ele>145</ele>
        <time>2025-03-23T09:34:39Z</time>
      </trkpt>
      <trkpt lat="43.64817" lon="1.38325">
        <ele>145</ele>
        <time>2025-03-23T09:34:40Z</time>
      </trkpt>
      <trkpt lat="43.64815" lon="1.38326">
        <ele>145</ele>
        <time>2025-03-23T09:34:41Z</time>
      </trkpt>
      <trkpt lat="43.64813" lon="1.38327">
        <ele>145</ele>
        <time>2025-03-23T09:34:42Z</time>
      </trkpt>
      <trkpt lat="43.6481" lon="1.38329">
        <ele>145</ele>
        <time>2025-03-23T09:34:43Z</time>
      </trkpt>
      <trkpt lat="43.64808" lon="1.3833">
        <ele>145</ele>
        <time>2025-03-23T09:34:44Z</time>
      </trkpt>
      <trkpt lat="43.64805" lon="1.38332">
        <ele>145</ele>
        <time>2025-03-23T09:34:45Z</time>
      </trkpt>
      <trkpt lat="43.64803" lon="1.38333">
        <ele>145</ele>
        <time>2025-03-23T09:34:46Z</time>
      </trkpt>
      <trkpt lat="43.64801" lon="1.38334">
        <ele>145</ele>
        <time>2025-03-23T09:34:47Z</time>
      </trkpt>
      <trkpt lat="43.64799" lon="1.38335">
        <ele>145</ele>
        <time>2025-03-23T09:34:48Z</time>
      </trkpt>
      <trkpt lat="43.64797" lon="1.38337">
        <ele>145</ele>
        <time>2025-03-23T09:34:49Z</time>
      </trkpt>
      <trkpt lat="43.64793" lon="1.38339">
        <ele>145</ele>
        <time>2025-03-23T09:34:50Z</time>
      </trkpt>
      <trkpt lat="43.64792" lon="1.3834">
        <ele>145</ele>
        <time>2025-03-23T09:34:51Z</time>
      </trkpt>
      <trkpt lat="43.6479" lon="1.38341">
        <ele>145</ele>
        <time>2025-03-23T09:34:52Z</time>
      </trkpt>
      <trkpt lat="43.64788" lon="1.38343">
        <ele>145</ele>
        <time>2025-03-23T09:34:53Z</time>
      </trkpt>
      <trkpt lat="43.64784" lon="1.38345">
        <ele>145</ele>
        <time>2025-03-23T09:34:54Z</time>
      </trkpt>
      <trkpt lat="43.64783" lon="1.38346">
        <ele>145</ele>
        <time>2025-03-23T09:34:55Z</time>
      </trkpt>
      <trkpt lat="43.64781" lon="1.38347">
        <ele>145</ele>
        <time>2025-03-23T09:34:56Z</time>
      </trkpt>
      <trkpt lat="43.64779" lon="1.38349">
        <ele>145</ele>
        <time>2025-03-23T09:34:57Z</time>
      </trkpt>
      <trkpt lat="43.64777" lon="1.3835">
        <ele>145</ele>
        <time>2025-03-23T09:34:58Z</time>
      </trkpt>
      <trkpt lat="43.64775" lon="1.38352">
        <ele>145</ele>
        <time>2025-03-23T09:34:59Z</time>
      </trkpt>
      <trkpt lat="43.64773" lon="1.38354">
        <ele>145</ele>
        <time>2025-03-23T09:35:00Z</time>
      </trkpt>
      <trkpt lat="43.64771" lon="1.38356">
        <ele>145</ele>
        <time>2025-03-23T09:35:01Z</time>
      </trkpt>
      <trkpt lat="43.64769" lon="1.38358">
        <ele>145</ele>
        <time>2025-03-23T09:35:02Z</time>
      </trkpt>
      <trkpt lat="43.64767" lon="1.3836">
        <ele>145</ele>
        <time>2025-03-23T09:35:03Z</time>
      </trkpt>
      <trkpt lat="43.64764" lon="1.38361">
        <ele>145</ele>
        <time>2025-03-23T09:35:04Z</time>
      </trkpt>
      <trkpt lat="43.64762" lon="1.38363">
        <ele>145</ele>
        <time>2025-03-23T09:35:05Z</time>
      </trkpt>
      <trkpt lat="43.6476" lon="1.38365">
        <ele>145</ele>
        <time>2025-03-23T09:35:06Z</time>
      </trkpt>
      <trkpt lat="43.64758" lon="1.38366">
        <ele>145</ele>
        <time>2025-03-23T09:35:07Z</time>
      </trkpt>
      <trkpt lat="43.64757" lon="1.38368">
        <ele>145</ele>
        <time>2025-03-23T09:35:08Z</time>
      </trkpt>
      <trkpt lat="43.64755" lon="1.38369">
        <ele>145</ele>
        <time>2025-03-23T09:35:09Z</time>
      </trkpt>
      <trkpt lat="43.64753" lon="1.3837">
        <ele>145</ele>
        <time>2025-03-23T09:35:10Z</time>
      </trkpt>
      <trkpt lat="43.64751" lon="1.38372">
        <ele>145</ele>
        <time>2025-03-23T09:35:11Z</time>
      </trkpt>
      <trkpt lat="43.64748" lon="1.38373">
        <ele>145</ele>
        <time>2025-03-23T09:35:12Z</time>
      </trkpt>
      <trkpt lat="43.64746" lon="1.38374">
        <ele>145</ele>
        <time>2025-03-23T09:35:13Z</time>
      </trkpt>
      <trkpt lat="43.64743" lon="1.38376">
        <ele>145</ele>
        <time>2025-03-23T09:35:14Z</time>
      </trkpt>
      <trkpt lat="43.64739" lon="1.38378">
        <ele>145</ele>
        <time>2025-03-23T09:35:15Z</time>
      </trkpt>
      <trkpt lat="43.64738" lon="1.38379">
        <ele>145</ele>
        <time>2025-03-23T09:35:16Z</time>
      </trkpt>
      <trkpt lat="43.64736" lon="1.38381">
        <ele>145</ele>
        <time>2025-03-23T09:35:17Z</time>
      </trkpt>
      <trkpt lat="43.64733" lon="1.38382">
        <ele>145</ele>
        <time>2025-03-23T09:35:18Z</time>
      </trkpt>
      <trkpt lat="43.64731" lon="1.38383">
        <ele>145</ele>
        <time>2025-03-23T09:35:19Z</time>
      </trkpt>
      <trkpt lat="43.64728" lon="1.38385">
        <ele>145</ele>
        <time>2025-03-23T09:35:20Z</time>
      </trkpt>
      <trkpt lat="43.64726" lon="1.38386">
        <ele>145</ele>
        <time>2025-03-23T09:35:21Z</time>
      </trkpt>
      <trkpt lat="43.64725" lon="1.38388">
        <ele>145</ele>
        <time>2025-03-23T09:35:22Z</time>
      </trkpt>
      <trkpt lat="43.64722" lon="1.38391">
        <ele>145</ele>
        <time>2025-03-23T09:35:23Z</time>
      </trkpt>
      <trkpt lat="43.6472" lon="1.38393">
        <ele>145</ele>
        <time>2025-03-23T09:35:24Z</time>
      </trkpt>
      <trkpt lat="43.64718" lon="1.38395">
        <ele>145</ele>
        <time>2025-03-23T09:35:25Z</time>
      </trkpt>
      <trkpt lat="43.64716" lon="1.38397">
        <ele>145</ele>
        <time>2025-03-23T09:35:26Z</time>
      </trkpt>
      <trkpt lat="43.64714" lon="1.38398">
        <ele>145</ele>
        <time>2025-03-23T09:35:27Z</time>
      </trkpt>
      <trkpt lat="43.64712" lon="1.38399">
        <ele>145</ele>
        <time>2025-03-23T09:35:28Z</time>
      </trkpt>
      <trkpt lat="43.64711" lon="1.38401">
        <ele>145</ele>
        <time>2025-03-23T09:35:29Z</time>
      </trkpt>
      <trkpt lat="43.64709" lon="1.38402">
        <ele>145</ele>
        <time>2025-03-23T09:35:30Z</time>
      </trkpt>
      <trkpt lat="43.64707" lon="1.38404">
        <ele>145</ele>
        <time>2025-03-23T09:35:31Z</time>
      </trkpt>
      <trkpt lat="43.64705" lon="1.38405">
        <ele>145</ele>
        <time>2025-03-23T09:35:32Z</time>
      </trkpt>
      <trkpt lat="43.64703" lon="1.38406">
        <ele>145</ele>
        <time>2025-03-23T09:35:33Z</time>
      </trkpt>
      <trkpt lat="43.647" lon="1.38408">
        <ele>145</ele>
        <time>2025-03-23T09:35:34Z</time>
      </trkpt>
      <trkpt lat="43.64698" lon="1.38409">
        <ele>145</ele>
        <time>2025-03-23T09:35:35Z</time>
      </trkpt>
      <trkpt lat="43.64695" lon="1.38412">
        <ele>145</ele>
        <time>2025-03-23T09:35:36Z</time>
      </trkpt>
      <trkpt lat="43.64694" lon="1.38413">
        <ele>145</ele>
        <time>2025-03-23T09:35:37Z</time>
      </trkpt>
      <trkpt lat="43.64692" lon="1.38415">
        <ele>145</ele>
        <time>2025-03-23T09:35:38Z</time>
      </trkpt>
      <trkpt lat="43.6469" lon="1.38416">
        <ele>145</ele>
        <time>2025-03-23T09:35:39Z</time>
      </trkpt>
      <trkpt lat="43.64688" lon="1.38418">
        <ele>145</ele>
        <time>2025-03-23T09:35:40Z</time>
      </trkpt>
      <trkpt lat="43.64686" lon="1.3842">
        <ele>145</ele>
        <time>2025-03-23T09:35:41Z</time>
      </trkpt>
      <trkpt lat="43.64685" lon="1.38421">
        <ele>145</ele>
        <time>2025-03-23T09:35:42Z</time>
      </trkpt>
      <trkpt lat="43.64683" lon="1.38422">
        <ele>145</ele>
        <time>2025-03-23T09:35:43Z</time>
      </trkpt>
      <trkpt lat="43.64681" lon="1.38423">
        <ele>145</ele>
        <time>2025-03-23T09:35:44Z</time>
      </trkpt>
      <trkpt lat="43.64678" lon="1.38425">
        <ele>145</ele>
        <time>2025-03-23T09:35:45Z</time>
      </trkpt>
      <trkpt lat="43.64676" lon="1.38426">
        <ele>145</ele>
        <time>2025-03-23T09:35:46Z</time>
      </trkpt>
      <trkpt lat="43.64672" lon="1.38428">
        <ele>145</ele>
        <time>2025-03-23T09:35:47Z</time>
      </trkpt>
      <trkpt lat="43.64671" lon="1.38428">
        <ele>146</ele>
        <time>2025-03-23T09:35:48Z</time>
      </trkpt>
      <trkpt lat="43.64669" lon="1.38429">
        <ele>146</ele>
        <time>2025-03-23T09:35:49Z</time>
      </trkpt>
      <trkpt lat="43.64666" lon="1.3843">
        <ele>146</ele>
        <time>2025-03-23T09:35:50Z</time>
      </trkpt>
      <trkpt lat="43.64664" lon="1.38432">
        <ele>146</ele>
        <time>2025-03-23T09:35:51Z</time>
      </trkpt>
      <trkpt lat="43.64662" lon="1.38433">
        <ele>146</ele>
        <time>2025-03-23T09:35:52Z</time>
      </trkpt>
      <trkpt lat="43.6466" lon="1.38434">
        <ele>145</ele>
        <time>2025-03-23T09:35:53Z</time>
      </trkpt>
      <trkpt lat="43.64658" lon="1.38436">
        <ele>145</ele>
        <time>2025-03-23T09:35:54Z</time>
      </trkpt>
      <trkpt lat="43.64656" lon="1.38437">
        <ele>145</ele>
        <time>2025-03-23T09:35:55Z</time>
      </trkpt>
      <trkpt lat="43.64653" lon="1.38438">
        <ele>145</ele>
        <time>2025-03-23T09:35:56Z</time>
      </trkpt>
      <trkpt lat="43.6465" lon="1.3844">
        <ele>145</ele>
        <time>2025-03-23T09:35:57Z</time>
      </trkpt>
      <trkpt lat="43.64649" lon="1.38441">
        <ele>145</ele>
        <time>2025-03-23T09:35:58Z</time>
      </trkpt>
      <trkpt lat="43.64646" lon="1.38443">
        <ele>145</ele>
        <time>2025-03-23T09:35:59Z</time>
      </trkpt>
      <trkpt lat="43.64644" lon="1.38444">
        <ele>145</ele>
        <time>2025-03-23T09:36:00Z</time>
      </trkpt>
      <trkpt lat="43.64641" lon="1.38446">
        <ele>145</ele>
        <time>2025-03-23T09:36:01Z</time>
      </trkpt>
      <trkpt lat="43.64639" lon="1.38447">
        <ele>145</ele>
        <time>2025-03-23T09:36:02Z</time>
      </trkpt>
      <trkpt lat="43.64637" lon="1.38449">
        <ele>145</ele>
        <time>2025-03-23T09:36:03Z</time>
      </trkpt>
      <trkpt lat="43.64634" lon="1.3845">
        <ele>145</ele>
        <time>2025-03-23T09:36:04Z</time>
      </trkpt>
      <trkpt lat="43.64632" lon="1.38451">
        <ele>145</ele>
        <time>2025-03-23T09:36:05Z</time>
      </trkpt>
      <trkpt lat="43.64629" lon="1.38454">
        <ele>145</ele>
        <time>2025-03-23T09:36:06Z</time>
      </trkpt>
      <trkpt lat="43.64628" lon="1.38455">
        <ele>145</ele>
        <time>2025-03-23T09:36:07Z</time>
      </trkpt>
      <trkpt lat="43.64627" lon="1.38457">
        <ele>145</ele>
        <time>2025-03-23T09:36:08Z</time>
      </trkpt>
      <trkpt lat="43.64625" lon="1.38459">
        <ele>145</ele>
        <time>2025-03-23T09:36:09Z</time>
      </trkpt>
      <trkpt lat="43.64622" lon="1.38461">
        <ele>145</ele>
        <time>2025-03-23T09:36:10Z</time>
      </trkpt>
      <trkpt lat="43.6462" lon="1.38462">
        <ele>145</ele>
        <time>2025-03-23T09:36:11Z</time>
      </trkpt>
      <trkpt lat="43.64618" lon="1.38463">
        <ele>145</ele>
        <time>2025-03-23T09:36:12Z</time>
      </trkpt>
      <trkpt lat="43.64616" lon="1.38465">
        <ele>146</ele>
        <time>2025-03-23T09:36:13Z</time>
      </trkpt>
      <trkpt lat="43.64614" lon="1.38467">
        <ele>146</ele>
        <time>2025-03-23T09:36:14Z</time>
      </trkpt>
      <trkpt lat="43.64612" lon="1.38468">
        <ele>146</ele>
        <time>2025-03-23T09:36:15Z</time>
      </trkpt>
      <trkpt lat="43.64609" lon="1.3847">
        <ele>146</ele>
        <time>2025-03-23T09:36:16Z</time>
      </trkpt>
      <trkpt lat="43.64605" lon="1.38472">
        <ele>146</ele>
        <time>2025-03-23T09:36:17Z</time>
      </trkpt>
      <trkpt lat="43.64604" lon="1.38473">
        <ele>146</ele>
        <time>2025-03-23T09:36:18Z</time>
      </trkpt>
      <trkpt lat="43.64602" lon="1.38474">
        <ele>146</ele>
        <time>2025-03-23T09:36:19Z</time>
      </trkpt>
      <trkpt lat="43.646" lon="1.38476">
        <ele>146</ele>
        <time>2025-03-23T09:36:20Z</time>
      </trkpt>
      <trkpt lat="43.64598" lon="1.38477">
        <ele>146</ele>
        <time>2025-03-23T09:36:21Z</time>
      </trkpt>
      <trkpt lat="43.64596" lon="1.38479">
        <ele>146</ele>
        <time>2025-03-23T09:36:22Z</time>
      </trkpt>
      <trkpt lat="43.64594" lon="1.38481">
        <ele>146</ele>
        <time>2025-03-23T09:36:23Z</time>
      </trkpt>
      <trkpt lat="43.64592" lon="1.38484">
        <ele>146</ele>
        <time>2025-03-23T09:36:24Z</time>
      </trkpt>
      <trkpt lat="43.64588" lon="1.38487">
        <ele>146</ele>
        <time>2025-03-23T09:36:25Z</time>
      </trkpt>
      <trkpt lat="43.64587" lon="1.38488">
        <ele>146</ele>
        <time>2025-03-23T09:36:26Z</time>
      </trkpt>
      <trkpt lat="43.64585" lon="1.38489">
        <ele>146</ele>
        <time>2025-03-23T09:36:27Z</time>
      </trkpt>
      <trkpt lat="43.64583" lon="1.3849">
        <ele>146</ele>
        <time>2025-03-23T09:36:28Z</time>
      </trkpt>
      <trkpt lat="43.64581" lon="1.38492">
        <ele>146</ele>
        <time>2025-03-23T09:36:29Z</time>
      </trkpt>
      <trkpt lat="43.64579" lon="1.38494">
        <ele>146</ele>
        <time>2025-03-23T09:36:30Z</time>
      </trkpt>
      <trkpt lat="43.64576" lon="1.38495">
        <ele>146</ele>
        <time>2025-03-23T09:36:31Z</time>
      </trkpt>
      <trkpt lat="43.64574" lon="1.38497">
        <ele>146</ele>
        <time>2025-03-23T09:36:32Z</time>
      </trkpt>
      <trkpt lat="43.64572" lon="1.38498">
        <ele>146</ele>
        <time>2025-03-23T09:36:33Z</time>
      </trkpt>
      <trkpt lat="43.64569" lon="1.385">
        <ele>146</ele>
        <time>2025-03-23T09:36:34Z</time>
      </trkpt>
      <trkpt lat="43.64567" lon="1.38501">
        <ele>146</ele>
        <time>2025-03-23T09:36:35Z</time>
      </trkpt>
      <trkpt lat="43.64565" lon="1.38503">
        <ele>146</ele>
        <time>2025-03-23T09:36:36Z</time>
      </trkpt>
      <trkpt lat="43.64561" lon="1.38505">
        <ele>146</ele>
        <time>2025-03-23T09:36:37Z</time>
      </trkpt>
      <trkpt lat="43.6456" lon="1.38506">
        <ele>146</ele>
        <time>2025-03-23T09:36:38Z</time>
      </trkpt>
      <trkpt lat="43.64558" lon="1.38507">
        <ele>146</ele>
        <time>2025-03-23T09:36:39Z</time>
      </trkpt>
      <trkpt lat="43.64556" lon="1.38509">
        <ele>146</ele>
        <time>2025-03-23T09:36:40Z</time>
      </trkpt>
      <trkpt lat="43.64554" lon="1.38511">
        <ele>146</ele>
        <time>2025-03-23T09:36:41Z</time>
      </trkpt>
      <trkpt lat="43.64552" lon="1.38512">
        <ele>146</ele>
        <time>2025-03-23T09:36:42Z</time>
      </trkpt>
      <trkpt lat="43.6455" lon="1.38514">
        <ele>146</ele>
        <time>2025-03-23T09:36:43Z</time>
      </trkpt>
      <trkpt lat="43.64546" lon="1.38517">
        <ele>146</ele>
        <time>2025-03-23T09:36:44Z</time>
      </trkpt>
      <trkpt lat="43.64545" lon="1.38518">
        <ele>146</ele>
        <time>2025-03-23T09:36:45Z</time>
      </trkpt>
      <trkpt lat="43.64543" lon="1.38519">
        <ele>146</ele>
        <time>2025-03-23T09:36:46Z</time>
      </trkpt>
      <trkpt lat="43.64541" lon="1.38521">
        <ele>146</ele>
        <time>2025-03-23T09:36:47Z</time>
      </trkpt>
      <trkpt lat="43.64539" lon="1.38522">
        <ele>146</ele>
        <time>2025-03-23T09:36:48Z</time>
      </trkpt>
      <trkpt lat="43.64536" lon="1.38524">
        <ele>146</ele>
        <time>2025-03-23T09:36:49Z</time>
      </trkpt>
      <trkpt lat="43.64534" lon="1.38526">
        <ele>146</ele>
        <time>2025-03-23T09:36:50Z</time>
      </trkpt>
      <trkpt lat="43.64531" lon="1.38527">
        <ele>146</ele>
        <time>2025-03-23T09:36:51Z</time>
      </trkpt>
      <trkpt lat="43.64529" lon="1.38529">
        <ele>146</ele>
        <time>2025-03-23T09:36:52Z</time>
      </trkpt>
      <trkpt lat="43.64527" lon="1.3853">
        <ele>146</ele>
        <time>2025-03-23T09:36:53Z</time>
      </trkpt>
      <trkpt lat="43.64524" lon="1.38532">
        <ele>146</ele>
        <time>2025-03-23T09:36:54Z</time>
      </trkpt>
      <trkpt lat="43.64522" lon="1.38533">
        <ele>146</ele>
        <time>2025-03-23T09:36:55Z</time>
      </trkpt>
      <trkpt lat="43.64519" lon="1.38536">
        <ele>146</ele>
        <time>2025-03-23T09:36:56Z</time>
      </trkpt>
      <trkpt lat="43.64517" lon="1.38537">
        <ele>146</ele>
        <time>2025-03-23T09:36:57Z</time>
      </trkpt>
      <trkpt lat="43.64515" lon="1.38538">
        <ele>146</ele>
        <time>2025-03-23T09:36:58Z</time>
      </trkpt>
      <trkpt lat="43.64513" lon="1.3854">
        <ele>146</ele>
        <time>2025-03-23T09:36:59Z</time>
      </trkpt>
      <trkpt lat="43.6451" lon="1.38541">
        <ele>146</ele>
        <time>2025-03-23T09:37:00Z</time>
      </trkpt>
      <trkpt lat="43.64508" lon="1.38543">
        <ele>146</ele>
        <time>2025-03-23T09:37:01Z</time>
      </trkpt>
      <trkpt lat="43.64506" lon="1.38544">
        <ele>146</ele>
        <time>2025-03-23T09:37:02Z</time>
      </trkpt>
      <trkpt lat="43.64503" lon="1.38546">
        <ele>146</ele>
        <time>2025-03-23T09:37:03Z</time>
      </trkpt>
      <trkpt lat="43.64502" lon="1.38547">
        <ele>146</ele>
        <time>2025-03-23T09:37:04Z</time>
      </trkpt>
      <trkpt lat="43.64499" lon="1.38548">
        <ele>146</ele>
        <time>2025-03-23T09:37:05Z</time>
      </trkpt>
      <trkpt lat="43.64497" lon="1.38549">
        <ele>146</ele>
        <time>2025-03-23T09:37:06Z</time>
      </trkpt>
      <trkpt lat="43.64495" lon="1.38551">
        <ele>146</ele>
        <time>2025-03-23T09:37:07Z</time>
      </trkpt>
      <trkpt lat="43.64493" lon="1.38553">
        <ele>146</ele>
        <time>2025-03-23T09:37:08Z</time>
      </trkpt>
      <trkpt lat="43.64492" lon="1.38556">
        <ele>146</ele>
        <time>2025-03-23T09:37:09Z</time>
      </trkpt>
      <trkpt lat="43.6449" lon="1.38558">
        <ele>146</ele>
        <time>2025-03-23T09:37:10Z</time>
      </trkpt>
      <trkpt lat="43.64488" lon="1.3856">
        <ele>146</ele>
        <time>2025-03-23T09:37:11Z</time>
      </trkpt>
      <trkpt lat="43.64485" lon="1.38562">
        <ele>145</ele>
        <time>2025-03-23T09:37:12Z</time>
      </trkpt>
      <trkpt lat="43.64482" lon="1.38564">
        <ele>145</ele>
        <time>2025-03-23T09:37:13Z</time>
      </trkpt>
      <trkpt lat="43.6448" lon="1.38565">
        <ele>145</ele>
        <time>2025-03-23T09:37:14Z</time>
      </trkpt>
      <trkpt lat="43.64477" lon="1.38565">
        <ele>145</ele>
        <time>2025-03-23T09:37:15Z</time>
      </trkpt>
      <trkpt lat="43.64474" lon="1.38566">
        <ele>145</ele>
        <time>2025-03-23T09:37:16Z</time>
      </trkpt>
      <trkpt lat="43.64473" lon="1.38567">
        <ele>145</ele>
        <time>2025-03-23T09:37:17Z</time>
      </trkpt>
      <trkpt lat="43.64471" lon="1.38567">
        <ele>145</ele>
        <time>2025-03-23T09:37:18Z</time>
      </trkpt>
      <trkpt lat="43.64468" lon="1.38568">
        <ele>146</ele>
        <time>2025-03-23T09:37:19Z</time>
      </trkpt>
      <trkpt lat="43.64466" lon="1.38569">
        <ele>146</ele>
        <time>2025-03-23T09:37:20Z</time>
      </trkpt>
      <trkpt lat="43.64464" lon="1.3857">
        <ele>146</ele>
        <time>2025-03-23T09:37:21Z</time>
      </trkpt>
      <trkpt lat="43.64461" lon="1.38573">
        <ele>146</ele>
        <time>2025-03-23T09:37:22Z</time>
      </trkpt>
      <trkpt lat="43.64459" lon="1.38574">
        <ele>146</ele>
        <time>2025-03-23T09:37:23Z</time>
      </trkpt>
      <trkpt lat="43.64457" lon="1.38576">
        <ele>146</ele>
        <time>2025-03-23T09:37:24Z</time>
      </trkpt>
      <trkpt lat="43.64455" lon="1.38577">
        <ele>146</ele>
        <time>2025-03-23T09:37:25Z</time>
      </trkpt>
      <trkpt lat="43.64453" lon="1.38578">
        <ele>146</ele>
        <time>2025-03-23T09:37:26Z</time>
      </trkpt>
      <trkpt lat="43.6445" lon="1.3858">
        <ele>146</ele>
        <time>2025-03-23T09:37:27Z</time>
      </trkpt>
      <trkpt lat="43.64448" lon="1.38581">
        <ele>146</ele>
        <time>2025-03-23T09:37:28Z</time>
      </trkpt>
      <trkpt lat="43.64446" lon="1.38582">
        <ele>146</ele>
        <time>2025-03-23T09:37:29Z</time>
      </trkpt>
      <trkpt lat="43.64444" lon="1.38584">
        <ele>145</ele>
        <time>2025-03-23T09:37:30Z</time>
      </trkpt>
      <trkpt lat="43.64442" lon="1.38586">
        <ele>145</ele>
        <time>2025-03-23T09:37:31Z</time>
      </trkpt>
      <trkpt lat="43.6444" lon="1.38587">
        <ele>145</ele>
        <time>2025-03-23T09:37:32Z</time>
      </trkpt>
      <trkpt lat="43.64438" lon="1.38588">
        <ele>145</ele>
        <time>2025-03-23T09:37:33Z</time>
      </trkpt>
      <trkpt lat="43.64436" lon="1.38589">
        <ele>145</ele>
        <time>2025-03-23T09:37:34Z</time>
      </trkpt>
      <trkpt lat="43.64434" lon="1.38591">
        <ele>145</ele>
        <time>2025-03-23T09:37:35Z</time>
      </trkpt>
      <trkpt lat="43.64432" lon="1.38592">
        <ele>145</ele>
        <time>2025-03-23T09:37:36Z</time>
      </trkpt>
      <trkpt lat="43.6443" lon="1.38593">
        <ele>145</ele>
        <time>2025-03-23T09:37:37Z</time>
      </trkpt>
      <trkpt lat="43.64428" lon="1.38594">
        <ele>145</ele>
        <time>2025-03-23T09:37:38Z</time>
      </trkpt>
      <trkpt lat="43.64426" lon="1.38596">
        <ele>145</ele>
        <time>2025-03-23T09:37:39Z</time>
      </trkpt>
      <trkpt lat="43.64424" lon="1.38597">
        <ele>145</ele>
        <time>2025-03-23T09:37:40Z</time>
      </trkpt>
      <trkpt lat="43.64422" lon="1.38601">
        <ele>145</ele>
        <time>2025-03-23T09:37:41Z</time>
      </trkpt>
      <trkpt lat="43.64421" lon="1.38603">
        <ele>145</ele>
        <time>2025-03-23T09:37:42Z</time>
      </trkpt>
      <trkpt lat="43.64418" lon="1.38605">
        <ele>145</ele>
        <time>2025-03-23T09:37:43Z</time>
      </trkpt>
      <trkpt lat="43.64416" lon="1.38607">
        <ele>145</ele>
        <time>2025-03-23T09:37:44Z</time>
      </trkpt>
      <trkpt lat="43.64413" lon="1.38609">
        <ele>145</ele>
        <time>2025-03-23T09:37:45Z</time>
      </trkpt>
      <trkpt lat="43.6441" lon="1.3861">
        <ele>145</ele>
        <time>2025-03-23T09:37:46Z</time>
      </trkpt>
      <trkpt lat="43.64408" lon="1.38612">
        <ele>145</ele>
        <time>2025-03-23T09:37:47Z</time>
      </trkpt>
      <trkpt lat="43.64406" lon="1.38613">
        <ele>145</ele>
        <time>2025-03-23T09:37:48Z</time>
      </trkpt>
      <trkpt lat="43.64404" lon="1.38614">
        <ele>145</ele>
        <time>2025-03-23T09:37:49Z</time>
      </trkpt>
      <trkpt lat="43.64402" lon="1.38616">
        <ele>145</ele>
        <time>2025-03-23T09:37:50Z</time>
      </trkpt>
      <trkpt lat="43.644" lon="1.38617">
        <ele>145</ele>
        <time>2025-03-23T09:37:51Z</time>
      </trkpt>
      <trkpt lat="43.64398" lon="1.38619">
        <ele>145</ele>
        <time>2025-03-23T09:37:52Z</time>
      </trkpt>
      <trkpt lat="43.64396" lon="1.3862">
        <ele>145</ele>
        <time>2025-03-23T09:37:53Z</time>
      </trkpt>
      <trkpt lat="43.64393" lon="1.38622">
        <ele>145</ele>
        <time>2025-03-23T09:37:54Z</time>
      </trkpt>
      <trkpt lat="43.64391" lon="1.38623">
        <ele>145</ele>
        <time>2025-03-23T09:37:55Z</time>
      </trkpt>
      <trkpt lat="43.64389" lon="1.38625">
        <ele>145</ele>
        <time>2025-03-23T09:37:56Z</time>
      </trkpt>
      <trkpt lat="43.64386" lon="1.38628">
        <ele>145</ele>
        <time>2025-03-23T09:37:57Z</time>
      </trkpt>
      <trkpt lat="43.64385" lon="1.38629">
        <ele>145</ele>
        <time>2025-03-23T09:37:58Z</time>
      </trkpt>
      <trkpt lat="43.64383" lon="1.3863">
        <ele>145</ele>
        <time>2025-03-23T09:37:59Z</time>
      </trkpt>
      <trkpt lat="43.64379" lon="1.38632">
        <ele>145</ele>
        <time>2025-03-23T09:38:00Z</time>
      </trkpt>
      <trkpt lat="43.64378" lon="1.38633">
        <ele>145</ele>
        <time>2025-03-23T09:38:01Z</time>
      </trkpt>
      <trkpt lat="43.64376" lon="1.38634">
        <ele>145</ele>
        <time>2025-03-23T09:38:02Z</time>
      </trkpt>
      <trkpt lat="43.64374" lon="1.38636">
        <ele>145</ele>
        <time>2025-03-23T09:38:03Z</time>
      </trkpt>
      <trkpt lat="43.64372" lon="1.38637">
        <ele>145</ele>
        <time>2025-03-23T09:38:04Z</time>
      </trkpt>
      <trkpt lat="43.64369" lon="1.38639">
        <ele>145</ele>
        <time>2025-03-23T09:38:05Z</time>
      </trkpt>
      <trkpt lat="43.64367" lon="1.38641">
        <ele>146</ele>
        <time>2025-03-23T09:38:06Z</time>
      </trkpt>
      <trkpt lat="43.64365" lon="1.38642">
        <ele>146</ele>
        <time>2025-03-23T09:38:07Z</time>
      </trkpt>
      <trkpt lat="43.64363" lon="1.38644">
        <ele>146</ele>
        <time>2025-03-23T09:38:08Z</time>
      </trkpt>
      <trkpt lat="43.64361" lon="1.38646">
        <ele>146</ele>
        <time>2025-03-23T09:38:09Z</time>
      </trkpt>
      <trkpt lat="43.64358" lon="1.38647">
        <ele>146</ele>
        <time>2025-03-23T09:38:10Z</time>
      </trkpt>
      <trkpt lat="43.64356" lon="1.38649">
        <ele>146</ele>
        <time>2025-03-23T09:38:11Z</time>
      </trkpt>
      <trkpt lat="43.64354" lon="1.3865">
        <ele>146</ele>
        <time>2025-03-23T09:38:12Z</time>
      </trkpt>
      <trkpt lat="43.64352" lon="1.38652">
        <ele>146</ele>
        <time>2025-03-23T09:38:13Z</time>
      </trkpt>
      <trkpt lat="43.64349" lon="1.38653">
        <ele>146</ele>
        <time>2025-03-23T09:38:14Z</time>
      </trkpt>
      <trkpt lat="43.64347" lon="1.38655">
        <ele>146</ele>
        <time>2025-03-23T09:38:15Z</time>
      </trkpt>
      <trkpt lat="43.64345" lon="1.38656">
        <ele>146</ele>
        <time>2025-03-23T09:38:16Z</time>
      </trkpt>
      <trkpt lat="43.64342" lon="1.38659">
        <ele>146</ele>
        <time>2025-03-23T09:38:17Z</time>
      </trkpt>
      <trkpt lat="43.6434" lon="1.38659">
        <ele>146</ele>
        <time>2025-03-23T09:38:18Z</time>
      </trkpt>
      <trkpt lat="43.64337" lon="1.38661">
        <ele>146</ele>
        <time>2025-03-23T09:38:19Z</time>
      </trkpt>
      <trkpt lat="43.64336" lon="1.38662">
        <ele>146</ele>
        <time>2025-03-23T09:38:20Z</time>
      </trkpt>
      <trkpt lat="43.64334" lon="1.38663">
        <ele>146</ele>
        <time>2025-03-23T09:38:21Z</time>
      </trkpt>
      <trkpt lat="43.64332" lon="1.38665">
        <ele>146</ele>
        <time>2025-03-23T09:38:22Z</time>
      </trkpt>
      <trkpt lat="43.6433" lon="1.38666">
        <ele>145</ele>
        <time>2025-03-23T09:38:23Z</time>
      </trkpt>
      <trkpt lat="43.64328" lon="1.38668">
        <ele>145</ele>
        <time>2025-03-23T09:38:24Z</time>
      </trkpt>
      <trkpt lat="43.64326" lon="1.38669">
        <ele>145</ele>
        <time>2025-03-23T09:38:25Z</time>
      </trkpt>
      <trkpt lat="43.64324" lon="1.3867">
        <ele>145</ele>
        <time>2025-03-23T09:38:26Z</time>
      </trkpt>
      <trkpt lat="43.64321" lon="1.38672">
        <ele>145</ele>
        <time>2025-03-23T09:38:27Z</time>
      </trkpt>
      <trkpt lat="43.64319" lon="1.38673">
        <ele>145</ele>
        <time>2025-03-23T09:38:28Z</time>
      </trkpt>
      <trkpt lat="43.64317" lon="1.38674">
        <ele>145</ele>
        <time>2025-03-23T09:38:29Z</time>
      </trkpt>
      <trkpt lat="43.64315" lon="1.38676">
        <ele>145</ele>
        <time>2025-03-23T09:38:30Z</time>
      </trkpt>
      <trkpt lat="43.64313" lon="1.38678">
        <ele>145</ele>
        <time>2025-03-23T09:38:31Z</time>
      </trkpt>
      <trkpt lat="43.64311" lon="1.38679">
        <ele>145</ele>
        <time>2025-03-23T09:38:32Z</time>
      </trkpt>
      <trkpt lat="43.64309" lon="1.38681">
        <ele>145</ele>
        <time>2025-03-23T09:38:33Z</time>
      </trkpt>
      <trkpt lat="43.64306" lon="1.38683">
        <ele>145</ele>
        <time>2025-03-23T09:38:34Z</time>
      </trkpt>
      <trkpt lat="43.64304" lon="1.38685">
        <ele>145</ele>
        <time>2025-03-23T09:38:35Z</time>
      </trkpt>
      <trkpt lat="43.64302" lon="1.38686">
        <ele>145</ele>
        <time>2025-03-23T09:38:36Z</time>
      </trkpt>
      <trkpt lat="43.643" lon="1.38688">
        <ele>146</ele>
        <time>2025-03-23T09:38:37Z</time>
      </trkpt>
      <trkpt lat="43.64297" lon="1.3869">
        <ele>146</ele>
        <time>2025-03-23T09:38:38Z</time>
      </trkpt>
      <trkpt lat="43.64296" lon="1.3869">
        <ele>146</ele>
        <time>2025-03-23T09:38:39Z</time>
      </trkpt>
      <trkpt lat="43.64294" lon="1.38692">
        <ele>146</ele>
        <time>2025-03-23T09:38:40Z</time>
      </trkpt>
      <trkpt lat="43.64292" lon="1.38694">
        <ele>146</ele>
        <time>2025-03-23T09:38:41Z</time>
      </trkpt>
      <trkpt lat="43.6429" lon="1.38696">
        <ele>146</ele>
        <time>2025-03-23T09:38:42Z</time>
      </trkpt>
      <trkpt lat="43.64288" lon="1.38698">
        <ele>146</ele>
        <time>2025-03-23T09:38:43Z</time>
      </trkpt>
      <trkpt lat="43.64286" lon="1.38701">
        <ele>146</ele>
        <time>2025-03-23T09:38:44Z</time>
      </trkpt>
      <trkpt lat="43.64285" lon="1.38703">
        <ele>146</ele>
        <time>2025-03-23T09:38:45Z</time>
      </trkpt>
      <trkpt lat="43.64283" lon="1.38706">
        <ele>146</ele>
        <time>2025-03-23T09:38:46Z</time>
      </trkpt>
      <trkpt lat="43.64282" lon="1.38709">
        <ele>146</ele>
        <time>2025-03-23T09:38:47Z</time>
      </trkpt>
      <trkpt lat="43.64281" lon="1.38713">
        <ele>146</ele>
        <time>2025-03-23T09:38:48Z</time>
      </trkpt>
      <trkpt lat="43.6428" lon="1.38716">
        <ele>146</ele>
        <time>2025-03-23T09:38:49Z</time>
      </trkpt>
      <trkpt lat="43.64279" lon="1.3872">
        <ele>146</ele>
        <time>2025-03-23T09:38:50Z</time>
      </trkpt>
      <trkpt lat="43.64278" lon="1.38723">
        <ele>146</ele>
        <time>2025-03-23T09:38:51Z</time>
      </trkpt>
      <trkpt lat="43.64277" lon="1.38727">
        <ele>146</ele>
        <time>2025-03-23T09:38:52Z</time>
      </trkpt>
      <trkpt lat="43.64278" lon="1.3873">
        <ele>146</ele>
        <time>2025-03-23T09:38:53Z</time>
      </trkpt>
      <trkpt lat="43.64278" lon="1.38733">
        <ele>146</ele>
        <time>2025-03-23T09:38:54Z</time>
      </trkpt>
      <trkpt lat="43.64279" lon="1.38736">
        <ele>146</ele>
        <time>2025-03-23T09:38:55Z</time>
      </trkpt>
      <trkpt lat="43.6428" lon="1.38739">
        <ele>146</ele>
        <time>2025-03-23T09:38:56Z</time>
      </trkpt>
      <trkpt lat="43.64281" lon="1.38743">
        <ele>146</ele>
        <time>2025-03-23T09:38:57Z</time>
      </trkpt>
      <trkpt lat="43.64282" lon="1.38746">
        <ele>146</ele>
        <time>2025-03-23T09:38:58Z</time>
      </trkpt>
      <trkpt lat="43.64284" lon="1.38749">
        <ele>146</ele>
        <time>2025-03-23T09:38:59Z</time>
      </trkpt>
      <trkpt lat="43.64285" lon="1.38752">
        <ele>146</ele>
        <time>2025-03-23T09:39:00Z</time>
      </trkpt>
      <trkpt lat="43.64286" lon="1.38754">
        <ele>146</ele>
        <time>2025-03-23T09:39:01Z</time>
      </trkpt>
      <trkpt lat="43.64287" lon="1.38757">
        <ele>145</ele>
        <time>2025-03-23T09:39:02Z</time>
      </trkpt>
      <trkpt lat="43.64289" lon="1.3876">
        <ele>145</ele>
        <time>2025-03-23T09:39:03Z</time>
      </trkpt>
      <trkpt lat="43.6429" lon="1.38763">
        <ele>145</ele>
        <time>2025-03-23T09:39:04Z</time>
      </trkpt>
      <trkpt lat="43.64291" lon="1.38766">
        <ele>145</ele>
        <time>2025-03-23T09:39:05Z</time>
      </trkpt>
      <trkpt lat="43.64292" lon="1.38769">
        <ele>145</ele>
        <time>2025-03-23T09:39:06Z</time>
      </trkpt>
      <trkpt lat="43.64293" lon="1.38772">
        <ele>145</ele>
        <time>2025-03-23T09:39:07Z</time>
      </trkpt>
      <trkpt lat="43.64295" lon="1.38775">
        <ele>145</ele>
        <time>2025-03-23T09:39:08Z</time>
      </trkpt>
      <trkpt lat="43.64296" lon="1.38778">
        <ele>145</ele>
        <time>2025-03-23T09:39:09Z</time>
      </trkpt>
      <trkpt lat="43.64297" lon="1.38781">
        <ele>145</ele>
        <time>2025-03-23T09:39:10Z</time>
      </trkpt>
      <trkpt lat="43.64298" lon="1.38784">
        <ele>145</ele>
        <time>2025-03-23T09:39:11Z</time>
      </trkpt>
      <trkpt lat="43.643" lon="1.38786">
        <ele>145</ele>
        <time>2025-03-23T09:39:12Z</time>
      </trkpt>
      <trkpt lat="43.64302" lon="1.38788">
        <ele>145</ele>
        <time>2025-03-23T09:39:13Z</time>
      </trkpt>
      <trkpt lat="43.64304" lon="1.38789">
        <ele>145</ele>
        <time>2025-03-23T09:39:14Z</time>
      </trkpt>
      <trkpt lat="43.64306" lon="1.38791">
        <ele>145</ele>
        <time>2025-03-23T09:39:15Z</time>
      </trkpt>
      <trkpt lat="43.64308" lon="1.38795">
        <ele>145</ele>
        <time>2025-03-23T09:39:16Z</time>
      </trkpt>
      <trkpt lat="43.64308" lon="1.38797">
        <ele>144</ele>
        <time>2025-03-23T09:39:17Z</time>
      </trkpt>
      <trkpt lat="43.64308" lon="1.38801">
        <ele>144</ele>
        <time>2025-03-23T09:39:18Z</time>
      </trkpt>
      <trkpt lat="43.64307" lon="1.38806">
        <ele>144</ele>
        <time>2025-03-23T09:39:19Z</time>
      </trkpt>
      <trkpt lat="43.64307" lon="1.38807">
        <ele>144</ele>
        <time>2025-03-23T09:39:20Z</time>
      </trkpt>
      <trkpt lat="43.64307" lon="1.38811">
        <ele>144</ele>
        <time>2025-03-23T09:39:21Z</time>
      </trkpt>
      <trkpt lat="43.64308" lon="1.38814">
        <ele>144</ele>
        <time>2025-03-23T09:39:22Z</time>
      </trkpt>
      <trkpt lat="43.64309" lon="1.38817">
        <ele>144</ele>
        <time>2025-03-23T09:39:23Z</time>
      </trkpt>
      <trkpt lat="43.6431" lon="1.38819">
        <ele>144</ele>
        <time>2025-03-23T09:39:24Z</time>
      </trkpt>
      <trkpt lat="43.64311" lon="1.38822">
        <ele>144</ele>
        <time>2025-03-23T09:39:25Z</time>
      </trkpt>
      <trkpt lat="43.64312" lon="1.38825">
        <ele>144</ele>
        <time>2025-03-23T09:39:26Z</time>
      </trkpt>
      <trkpt lat="43.64314" lon="1.38828">
        <ele>144</ele>
        <time>2025-03-23T09:39:27Z</time>
      </trkpt>
      <trkpt lat="43.64315" lon="1.38831">
        <ele>144</ele>
        <time>2025-03-23T09:39:28Z</time>
      </trkpt>
      <trkpt lat="43.64317" lon="1.38833">
        <ele>144</ele>
        <time>2025-03-23T09:39:29Z</time>
      </trkpt>
      <trkpt lat="43.64318" lon="1.38836">
        <ele>144</ele>
        <time>2025-03-23T09:39:30Z</time>
      </trkpt>
      <trkpt lat="43.64319" lon="1.38839">
        <ele>144</ele>
        <time>2025-03-23T09:39:31Z</time>
      </trkpt>
      <trkpt lat="43.6432" lon="1.38842">
        <ele>144</ele>
        <time>2025-03-23T09:39:32Z</time>
      </trkpt>
      <trkpt lat="43.64321" lon="1.38845">
        <ele>144</ele>
        <time>2025-03-23T09:39:33Z</time>
      </trkpt>
      <trkpt lat="43.64322" lon="1.38848">
        <ele>144</ele>
        <time>2025-03-23T09:39:34Z</time>
      </trkpt>
      <trkpt lat="43.64324" lon="1.38852">
        <ele>144</ele>
        <time>2025-03-23T09:39:35Z</time>
      </trkpt>
      <trkpt lat="43.64325" lon="1.38854">
        <ele>144</ele>
        <time>2025-03-23T09:39:36Z</time>
      </trkpt>
      <trkpt lat="43.64326" lon="1.38858">
        <ele>144</ele>
        <time>2025-03-23T09:39:37Z</time>
      </trkpt>
      <trkpt lat="43.64327" lon="1.3886">
        <ele>144</ele>
        <time>2025-03-23T09:39:38Z</time>
      </trkpt>
      <trkpt lat="43.64329" lon="1.38864">
        <ele>144</ele>
        <time>2025-03-23T09:39:39Z</time>
      </trkpt>
      <trkpt lat="43.64329" lon="1.38866">
        <ele>144</ele>
        <time>2025-03-23T09:39:40Z</time>
      </trkpt>
      <trkpt lat="43.6433" lon="1.38869">
        <ele>144</ele>
        <time>2025-03-23T09:39:41Z</time>
      </trkpt>
      <trkpt lat="43.64332" lon="1.38872">
        <ele>144</ele>
        <time>2025-03-23T09:39:42Z</time>
      </trkpt>
      <trkpt lat="43.64333" lon="1.38874">
        <ele>144</ele>
        <time>2025-03-23T09:39:43Z</time>
      </trkpt>
      <trkpt lat="43.64334" lon="1.38877">
        <ele>144</ele>
        <time>2025-03-23T09:39:44Z</time>
      </trkpt>
      <trkpt lat="43.64335" lon="1.3888">
        <ele>144</ele>
        <time>2025-03-23T09:39:45Z</time>
      </trkpt>
      <trkpt lat="43.64336" lon="1.38883">
        <ele>144</ele>
        <time>2025-03-23T09:39:46Z</time>
      </trkpt>
      <trkpt lat="43.64337" lon="1.38887">
        <ele>144</ele>
        <time>2025-03-23T09:39:47Z</time>
      </trkpt>
      <trkpt lat="43.64338" lon="1.3889">
        <ele>144</ele>
        <time>2025-03-23T09:39:48Z</time>
      </trkpt>
      <trkpt lat="43.6434" lon="1.38892">
        <ele>144</ele>
        <time>2025-03-23T09:39:49Z</time>
      </trkpt>
      <trkpt lat="43.64341" lon="1.38895">
        <ele>144</ele>
        <time>2025-03-23T09:39:50Z</time>
      </trkpt>
      <trkpt lat="43.64342" lon="1.38897">
        <ele>144</ele>
        <time>2025-03-23T09:39:51Z</time>
      </trkpt>
      <trkpt lat="43.64344" lon="1.38899">
        <ele>144</ele>
        <time>2025-03-23T09:39:52Z</time>
      </trkpt>
      <trkpt lat="43.64346" lon="1.389">
        <ele>144</ele>
        <time>2025-03-23T09:39:53Z</time>
      </trkpt>
      <trkpt lat="43.64348" lon="1.38902">
        <ele>144</ele>
        <time>2025-03-23T09:39:54Z</time>
      </trkpt>
      <trkpt lat="43.6435" lon="1.38903">
        <ele>144</ele>
        <time>2025-03-23T09:39:55Z</time>
      </trkpt>
      <trkpt lat="43.64352" lon="1.38905">
        <ele>144</ele>
        <time>2025-03-23T09:39:56Z</time>
      </trkpt>
      <trkpt lat="43.64353" lon="1.38907">
        <ele>144</ele>
        <time>2025-03-23T09:39:57Z</time>
      </trkpt>
      <trkpt lat="43.64355" lon="1.38909">
        <ele>144</ele>
        <time>2025-03-23T09:39:58Z</time>
      </trkpt>
      <trkpt lat="43.64356" lon="1.38912">
        <ele>144</ele>
        <time>2025-03-23T09:39:59Z</time>
      </trkpt>
      <trkpt lat="43.64358" lon="1.38915">
        <ele>144</ele>
        <time>2025-03-23T09:40:00Z</time>
      </trkpt>
      <trkpt lat="43.64358" lon="1.38921">
        <ele>144</ele>
        <time>2025-03-23T09:40:01Z</time>
      </trkpt>
      <trkpt lat="43.64358" lon="1.38922">
        <ele>144</ele>
        <time>2025-03-23T09:40:02Z</time>
      </trkpt>
      <trkpt lat="43.64357" lon="1.38926">
        <ele>144</ele>
        <time>2025-03-23T09:40:03Z</time>
      </trkpt>
      <trkpt lat="43.64356" lon="1.38929">
        <ele>144</ele>
        <time>2025-03-23T09:40:04Z</time>
      </trkpt>
      <trkpt lat="43.64356" lon="1.38932">
        <ele>144</ele>
        <time>2025-03-23T09:40:05Z</time>
      </trkpt>
      <trkpt lat="43.64356" lon="1.38936">
        <ele>144</ele>
        <time>2025-03-23T09:40:06Z</time>
      </trkpt>
      <trkpt lat="43.64356" lon="1.3894">
        <ele>144</ele>
        <time>2025-03-23T09:40:07Z</time>
      </trkpt>
      <trkpt lat="43.64356" lon="1.38944">
        <ele>144</ele>
        <time>2025-03-23T09:40:08Z</time>
      </trkpt>
      <trkpt lat="43.64357" lon="1.38947">
        <ele>144</ele>
        <time>2025-03-23T09:40:09Z</time>
      </trkpt>
      <trkpt lat="43.64357" lon="1.38951">
        <ele>144</ele>
        <time>2025-03-23T09:40:10Z</time>
      </trkpt>
      <trkpt lat="43.64357" lon="1.38955">
        <ele>144</ele>
        <time>2025-03-23T09:40:11Z</time>
      </trkpt>
      <trkpt lat="43.64357" lon="1.38959">
        <ele>144</ele>
        <time>2025-03-23T09:40:12Z</time>
      </trkpt>
      <trkpt lat="43.64358" lon="1.38964">
        <ele>144</ele>
        <time>2025-03-23T09:40:13Z</time>
      </trkpt>
      <trkpt lat="43.64358" lon="1.38965">
        <ele>144</ele>
        <time>2025-03-23T09:40:14Z</time>
      </trkpt>
      <trkpt lat="43.64358" lon="1.38969">
        <ele>144</ele>
        <time>2025-03-23T09:40:15Z</time>
      </trkpt>
      <trkpt lat="43.64359" lon="1.38972">
        <ele>144</ele>
        <time>2025-03-23T09:40:16Z</time>
      </trkpt>
      <trkpt lat="43.64359" lon="1.38976">
        <ele>144</ele>
        <time>2025-03-23T09:40:17Z</time>
      </trkpt>
      <trkpt lat="43.6436" lon="1.38979">
        <ele>144</ele>
        <time>2025-03-23T09:40:18Z</time>
      </trkpt>
      <trkpt lat="43.6436" lon="1.38983">
        <ele>144</ele>
        <time>2025-03-23T09:40:19Z</time>
      </trkpt>
      <trkpt lat="43.64361" lon="1.38988">
        <ele>144</ele>
        <time>2025-03-23T09:40:20Z</time>
      </trkpt>
      <trkpt lat="43.64361" lon="1.3899">
        <ele>144</ele>
        <time>2025-03-23T09:40:21Z</time>
      </trkpt>
      <trkpt lat="43.64361" lon="1.38994">
        <ele>144</ele>
        <time>2025-03-23T09:40:22Z</time>
      </trkpt>
      <trkpt lat="43.64362" lon="1.38997">
        <ele>144</ele>
        <time>2025-03-23T09:40:23Z</time>
      </trkpt>
      <trkpt lat="43.64362" lon="1.39001">
        <ele>144</ele>
        <time>2025-03-23T09:40:24Z</time>
      </trkpt>
      <trkpt lat="43.64362" lon="1.39004">
        <ele>144</ele>
        <time>2025-03-23T09:40:25Z</time>
      </trkpt>
      <trkpt lat="43.64362" lon="1.39008">
        <ele>144</ele>
        <time>2025-03-23T09:40:26Z</time>
      </trkpt>
      <trkpt lat="43.64363" lon="1.39012">
        <ele>144</ele>
        <time>2025-03-23T09:40:27Z</time>
      </trkpt>
      <trkpt lat="43.64363" lon="1.39015">
        <ele>144</ele>
        <time>2025-03-23T09:40:28Z</time>
      </trkpt>
      <trkpt lat="43.64363" lon="1.39018">
        <ele>144</ele>
        <time>2025-03-23T09:40:29Z</time>
      </trkpt>
      <trkpt lat="43.64364" lon="1.39022">
        <ele>144</ele>
        <time>2025-03-23T09:40:30Z</time>
      </trkpt>
      <trkpt lat="43.64364" lon="1.39025">
        <ele>144</ele>
        <time>2025-03-23T09:40:31Z</time>
      </trkpt>
      <trkpt lat="43.64365" lon="1.39031">
        <ele>144</ele>
        <time>2025-03-23T09:40:32Z</time>
      </trkpt>
      <trkpt lat="43.64365" lon="1.39032">
        <ele>144</ele>
        <time>2025-03-23T09:40:33Z</time>
      </trkpt>
      <trkpt lat="43.64365" lon="1.39036">
        <ele>144</ele>
        <time>2025-03-23T09:40:34Z</time>
      </trkpt>
      <trkpt lat="43.64365" lon="1.39039">
        <ele>144</ele>
        <time>2025-03-23T09:40:35Z</time>
      </trkpt>
      <trkpt lat="43.64366" lon="1.39043">
        <ele>144</ele>
        <time>2025-03-23T09:40:36Z</time>
      </trkpt>
      <trkpt lat="43.64367" lon="1.39047">
        <ele>144</ele>
        <time>2025-03-23T09:40:37Z</time>
      </trkpt>
      <trkpt lat="43.64367" lon="1.3905">
        <ele>144</ele>
        <time>2025-03-23T09:40:38Z</time>
      </trkpt>
      <trkpt lat="43.64368" lon="1.39056">
        <ele>144</ele>
        <time>2025-03-23T09:40:39Z</time>
      </trkpt>
      <trkpt lat="43.64368" lon="1.39058">
        <ele>144</ele>
        <time>2025-03-23T09:40:40Z</time>
      </trkpt>
      <trkpt lat="43.64368" lon="1.39061">
        <ele>144</ele>
        <time>2025-03-23T09:40:41Z</time>
      </trkpt>
      <trkpt lat="43.64369" lon="1.39065">
        <ele>144</ele>
        <time>2025-03-23T09:40:42Z</time>
      </trkpt>
      <trkpt lat="43.6437" lon="1.39067">
        <ele>144</ele>
        <time>2025-03-23T09:40:43Z</time>
      </trkpt>
      <trkpt lat="43.64372" lon="1.39069">
        <ele>144</ele>
        <time>2025-03-23T09:40:44Z</time>
      </trkpt>
      <trkpt lat="43.64375" lon="1.3907">
        <ele>144</ele>
        <time>2025-03-23T09:40:45Z</time>
      </trkpt>
      <trkpt lat="43.64377" lon="1.3907">
        <ele>144</ele>
        <time>2025-03-23T09:40:46Z</time>
      </trkpt>
      <trkpt lat="43.6438" lon="1.39071">
        <ele>144</ele>
        <time>2025-03-23T09:40:47Z</time>
      </trkpt>
      <trkpt lat="43.64382" lon="1.39071">
        <ele>144</ele>
        <time>2025-03-23T09:40:48Z</time>
      </trkpt>
      <trkpt lat="43.64385" lon="1.39071">
        <ele>144</ele>
        <time>2025-03-23T09:40:49Z</time>
      </trkpt>
      <trkpt lat="43.64388" lon="1.3907">
        <ele>144</ele>
        <time>2025-03-23T09:40:50Z</time>
      </trkpt>
      <trkpt lat="43.64392" lon="1.39069">
        <ele>144</ele>
        <time>2025-03-23T09:40:51Z</time>
      </trkpt>
      <trkpt lat="43.64393" lon="1.39068">
        <ele>144</ele>
        <time>2025-03-23T09:40:52Z</time>
      </trkpt>
      <trkpt lat="43.64396" lon="1.39067">
        <ele>144</ele>
        <time>2025-03-23T09:40:53Z</time>
      </trkpt>
      <trkpt lat="43.64398" lon="1.39066">
        <ele>144</ele>
        <time>2025-03-23T09:40:54Z</time>
      </trkpt>
      <trkpt lat="43.64401" lon="1.39066">
        <ele>144</ele>
        <time>2025-03-23T09:40:55Z</time>
      </trkpt>
      <trkpt lat="43.64403" lon="1.39065">
        <ele>144</ele>
        <time>2025-03-23T09:40:56Z</time>
      </trkpt>
      <trkpt lat="43.64406" lon="1.39064">
        <ele>144</ele>
        <time>2025-03-23T09:40:57Z</time>
      </trkpt>
      <trkpt lat="43.64409" lon="1.39063">
        <ele>144</ele>
        <time>2025-03-23T09:40:58Z</time>
      </trkpt>
      <trkpt lat="43.6441" lon="1.39062">
        <ele>144</ele>
        <time>2025-03-23T09:40:59Z</time>
      </trkpt>
      <trkpt lat="43.64413" lon="1.39061">
        <ele>144</ele>
        <time>2025-03-23T09:41:00Z</time>
      </trkpt>
      <trkpt lat="43.64415" lon="1.3906">
        <ele>144</ele>
        <time>2025-03-23T09:41:01Z</time>
      </trkpt>
      <trkpt lat="43.64418" lon="1.39059">
        <ele>144</ele>
        <time>2025-03-23T09:41:02Z</time>
      </trkpt>
      <trkpt lat="43.6442" lon="1.39057">
        <ele>144</ele>
        <time>2025-03-23T09:41:03Z</time>
      </trkpt>
      <trkpt lat="43.64422" lon="1.39056">
        <ele>144</ele>
        <time>2025-03-23T09:41:04Z</time>
      </trkpt>
      <trkpt lat="43.64424" lon="1.39055">
        <ele>143</ele>
        <time>2025-03-23T09:41:05Z</time>
      </trkpt>
      <trkpt lat="43.64426" lon="1.39054">
        <ele>143</ele>
        <time>2025-03-23T09:41:06Z</time>
      </trkpt>
      <trkpt lat="43.64429" lon="1.39053">
        <ele>143</ele>
        <time>2025-03-23T09:41:07Z</time>
      </trkpt>
      <trkpt lat="43.64431" lon="1.39052">
        <ele>143</ele>
        <time>2025-03-23T09:41:08Z</time>
      </trkpt>
      <trkpt lat="43.64433" lon="1.39051">
        <ele>143</ele>
        <time>2025-03-23T09:41:09Z</time>
      </trkpt>
      <trkpt lat="43.64437" lon="1.39051">
        <ele>143</ele>
        <time>2025-03-23T09:41:10Z</time>
      </trkpt>
      <trkpt lat="43.64438" lon="1.39051">
        <ele>143</ele>
        <time>2025-03-23T09:41:11Z</time>
      </trkpt>
      <trkpt lat="43.6444" lon="1.39053">
        <ele>143</ele>
        <time>2025-03-23T09:41:12Z</time>
      </trkpt>
      <trkpt lat="43.64443" lon="1.39056">
        <ele>144</ele>
        <time>2025-03-23T09:41:13Z</time>
      </trkpt>
      <trkpt lat="43.64444" lon="1.3906">
        <ele>144</ele>
        <time>2025-03-23T09:41:14Z</time>
      </trkpt>
      <trkpt lat="43.64444" lon="1.39064">
        <ele>144</ele>
        <time>2025-03-23T09:41:15Z</time>
      </trkpt>
      <trkpt lat="43.64443" lon="1.39068">
        <ele>143</ele>
        <time>2025-03-23T09:41:16Z</time>
      </trkpt>
      <trkpt lat="43.64442" lon="1.39071">
        <ele>143</ele>
        <time>2025-03-23T09:41:17Z</time>
      </trkpt>
      <trkpt lat="43.6444" lon="1.39076">
        <ele>143</ele>
        <time>2025-03-23T09:41:18Z</time>
      </trkpt>
      <trkpt lat="43.64439" lon="1.39078">
        <ele>142</ele>
        <time>2025-03-23T09:41:19Z</time>
      </trkpt>
      <trkpt lat="43.64438" lon="1.39081">
        <ele>142</ele>
        <time>2025-03-23T09:41:20Z</time>
      </trkpt>
      <trkpt lat="43.64437" lon="1.39085">
        <ele>142</ele>
        <time>2025-03-23T09:41:21Z</time>
      </trkpt>
      <trkpt lat="43.64436" lon="1.39088">
        <ele>143</ele>
        <time>2025-03-23T09:41:22Z</time>
      </trkpt>
      <trkpt lat="43.64434" lon="1.39091">
        <ele>143</ele>
        <time>2025-03-23T09:41:23Z</time>
      </trkpt>
      <trkpt lat="43.64432" lon="1.39095">
        <ele>143</ele>
        <time>2025-03-23T09:41:24Z</time>
      </trkpt>
      <trkpt lat="43.64431" lon="1.39098">
        <ele>142</ele>
        <time>2025-03-23T09:41:25Z</time>
      </trkpt>
      <trkpt lat="43.6443" lon="1.39101">
        <ele>142</ele>
        <time>2025-03-23T09:41:26Z</time>
      </trkpt>
      <trkpt lat="43.64428" lon="1.39104">
        <ele>141</ele>
        <time>2025-03-23T09:41:27Z</time>
      </trkpt>
      <trkpt lat="43.64427" lon="1.39107">
        <ele>141</ele>
        <time>2025-03-23T09:41:28Z</time>
      </trkpt>
      <trkpt lat="43.64425" lon="1.39112">
        <ele>141</ele>
        <time>2025-03-23T09:41:29Z</time>
      </trkpt>
      <trkpt lat="43.64425" lon="1.39114">
        <ele>141</ele>
        <time>2025-03-23T09:41:30Z</time>
      </trkpt>
      <trkpt lat="43.64424" lon="1.39117">
        <ele>141</ele>
        <time>2025-03-23T09:41:31Z</time>
      </trkpt>
      <trkpt lat="43.64423" lon="1.39121">
        <ele>140</ele>
        <time>2025-03-23T09:41:32Z</time>
      </trkpt>
      <trkpt lat="43.64422" lon="1.39124">
        <ele>140</ele>
        <time>2025-03-23T09:41:33Z</time>
      </trkpt>
      <trkpt lat="43.64422" lon="1.39128">
        <ele>140</ele>
        <time>2025-03-23T09:41:34Z</time>
      </trkpt>
      <trkpt lat="43.64421" lon="1.39132">
        <ele>139</ele>
        <time>2025-03-23T09:41:35Z</time>
      </trkpt>
      <trkpt lat="43.64421" lon="1.39138">
        <ele>139</ele>
        <time>2025-03-23T09:41:36Z</time>
      </trkpt>
      <trkpt lat="43.64421" lon="1.3914">
        <ele>138</ele>
        <time>2025-03-23T09:41:37Z</time>
      </trkpt>
      <trkpt lat="43.6442" lon="1.39144">
        <ele>138</ele>
        <time>2025-03-23T09:41:38Z</time>
      </trkpt>
      <trkpt lat="43.64419" lon="1.39148">
        <ele>138</ele>
        <time>2025-03-23T09:41:39Z</time>
      </trkpt>
      <trkpt lat="43.64419" lon="1.39152">
        <ele>138</ele>
        <time>2025-03-23T09:41:40Z</time>
      </trkpt>
      <trkpt lat="43.64418" lon="1.39156">
        <ele>138</ele>
        <time>2025-03-23T09:41:41Z</time>
      </trkpt>
      <trkpt lat="43.64418" lon="1.3916">
        <ele>137</ele>
        <time>2025-03-23T09:41:42Z</time>
      </trkpt>
      <trkpt lat="43.64418" lon="1.39164">
        <ele>137</ele>
        <time>2025-03-23T09:41:43Z</time>
      </trkpt>
      <trkpt lat="43.64418" lon="1.39168">
        <ele>137</ele>
        <time>2025-03-23T09:41:44Z</time>
      </trkpt>
      <trkpt lat="43.64418" lon="1.39172">
        <ele>136</ele>
        <time>2025-03-23T09:41:45Z</time>
      </trkpt>
      <trkpt lat="43.64418" lon="1.39175">
        <ele>135</ele>
        <time>2025-03-23T09:41:46Z</time>
      </trkpt>
      <trkpt lat="43.64418" lon="1.39179">
        <ele>135</ele>
        <time>2025-03-23T09:41:47Z</time>
      </trkpt>
      <trkpt lat="43.64418" lon="1.39184">
        <ele>135</ele>
        <time>2025-03-23T09:41:48Z</time>
      </trkpt>
      <trkpt lat="43.64419" lon="1.39186">
        <ele>135</ele>
        <time>2025-03-23T09:41:49Z</time>
      </trkpt>
      <trkpt lat="43.64419" lon="1.3919">
        <ele>135</ele>
        <time>2025-03-23T09:41:50Z</time>
      </trkpt>
      <trkpt lat="43.6442" lon="1.39194">
        <ele>134</ele>
        <time>2025-03-23T09:41:51Z</time>
      </trkpt>
      <trkpt lat="43.64421" lon="1.39197">
        <ele>134</ele>
        <time>2025-03-23T09:41:52Z</time>
      </trkpt>
      <trkpt lat="43.64423" lon="1.392">
        <ele>133</ele>
        <time>2025-03-23T09:41:53Z</time>
      </trkpt>
      <trkpt lat="43.64425" lon="1.39205">
        <ele>133</ele>
        <time>2025-03-23T09:41:54Z</time>
      </trkpt>
      <trkpt lat="43.64426" lon="1.39207">
        <ele>133</ele>
        <time>2025-03-23T09:41:55Z</time>
      </trkpt>
      <trkpt lat="43.64427" lon="1.3921">
        <ele>133</ele>
        <time>2025-03-23T09:41:56Z</time>
      </trkpt>
      <trkpt lat="43.64429" lon="1.39212">
        <ele>133</ele>
        <time>2025-03-23T09:41:57Z</time>
      </trkpt>
      <trkpt lat="43.6443" lon="1.39215">
        <ele>133</ele>
        <time>2025-03-23T09:41:58Z</time>
      </trkpt>
      <trkpt lat="43.64432" lon="1.39218">
        <ele>132</ele>
        <time>2025-03-23T09:41:59Z</time>
      </trkpt>
      <trkpt lat="43.64433" lon="1.39221">
        <ele>132</ele>
        <time>2025-03-23T09:42:00Z</time>
      </trkpt>
      <trkpt lat="43.64435" lon="1.39224">
        <ele>132</ele>
        <time>2025-03-23T09:42:01Z</time>
      </trkpt>
      <trkpt lat="43.64437" lon="1.39227">
        <ele>132</ele>
        <time>2025-03-23T09:42:02Z</time>
      </trkpt>
      <trkpt lat="43.64438" lon="1.3923">
        <ele>132</ele>
        <time>2025-03-23T09:42:03Z</time>
      </trkpt>
      <trkpt lat="43.64439" lon="1.39233">
        <ele>131</ele>
        <time>2025-03-23T09:42:04Z</time>
      </trkpt>
      <trkpt lat="43.64441" lon="1.39236">
        <ele>131</ele>
        <time>2025-03-23T09:42:05Z</time>
      </trkpt>
      <trkpt lat="43.64442" lon="1.39238">
        <ele>131</ele>
        <time>2025-03-23T09:42:06Z</time>
      </trkpt>
      <trkpt lat="43.64445" lon="1.39242">
        <ele>131</ele>
        <time>2025-03-23T09:42:07Z</time>
      </trkpt>
      <trkpt lat="43.64446" lon="1.39243">
        <ele>130</ele>
        <time>2025-03-23T09:42:08Z</time>
      </trkpt>
      <trkpt lat="43.64447" lon="1.39247">
        <ele>130</ele>
        <time>2025-03-23T09:42:09Z</time>
      </trkpt>
      <trkpt lat="43.64449" lon="1.3925">
        <ele>130</ele>
        <time>2025-03-23T09:42:10Z</time>
      </trkpt>
      <trkpt lat="43.6445" lon="1.39253">
        <ele>130</ele>
        <time>2025-03-23T09:42:11Z</time>
      </trkpt>
      <trkpt lat="43.64451" lon="1.39256">
        <ele>131</ele>
        <time>2025-03-23T09:42:12Z</time>
      </trkpt>
      <trkpt lat="43.64452" lon="1.39261">
        <ele>131</ele>
        <time>2025-03-23T09:42:13Z</time>
      </trkpt>
      <trkpt lat="43.64453" lon="1.39263">
        <ele>130</ele>
        <time>2025-03-23T09:42:14Z</time>
      </trkpt>
      <trkpt lat="43.64454" lon="1.39266">
        <ele>130</ele>
        <time>2025-03-23T09:42:15Z</time>
      </trkpt>
      <trkpt lat="43.64455" lon="1.3927">
        <ele>130</ele>
        <time>2025-03-23T09:42:16Z</time>
      </trkpt>
      <trkpt lat="43.64456" lon="1.39273">
        <ele>130</ele>
        <time>2025-03-23T09:42:17Z</time>
      </trkpt>
      <trkpt lat="43.64457" lon="1.39276">
        <ele>130</ele>
        <time>2025-03-23T09:42:18Z</time>
      </trkpt>
      <trkpt lat="43.64458" lon="1.3928">
        <ele>130</ele>
        <time>2025-03-23T09:42:19Z</time>
      </trkpt>
      <trkpt lat="43.64458" lon="1.39284">
        <ele>130</ele>
        <time>2025-03-23T09:42:20Z</time>
      </trkpt>
      <trkpt lat="43.64459" lon="1.39287">
        <ele>130</ele>
        <time>2025-03-23T09:42:21Z</time>
      </trkpt>
      <trkpt lat="43.64459" lon="1.3929">
        <ele>130</ele>
        <time>2025-03-23T09:42:22Z</time>
      </trkpt>
      <trkpt lat="43.6446" lon="1.39294">
        <ele>130</ele>
        <time>2025-03-23T09:42:23Z</time>
      </trkpt>
      <trkpt lat="43.6446" lon="1.39297">
        <ele>130</ele>
        <time>2025-03-23T09:42:24Z</time>
      </trkpt>
      <trkpt lat="43.64461" lon="1.393">
        <ele>130</ele>
        <time>2025-03-23T09:42:25Z</time>
      </trkpt>
      <trkpt lat="43.64461" lon="1.39306">
        <ele>130</ele>
        <time>2025-03-23T09:42:26Z</time>
      </trkpt>
      <trkpt lat="43.64461" lon="1.39307">
        <ele>130</ele>
        <time>2025-03-23T09:42:27Z</time>
      </trkpt>
      <trkpt lat="43.6446" lon="1.39311">
        <ele>130</ele>
        <time>2025-03-23T09:42:28Z</time>
      </trkpt>
      <trkpt lat="43.64461" lon="1.39315">
        <ele>130</ele>
        <time>2025-03-23T09:42:29Z</time>
      </trkpt>
      <trkpt lat="43.64461" lon="1.39318">
        <ele>130</ele>
        <time>2025-03-23T09:42:30Z</time>
      </trkpt>
      <trkpt lat="43.64463" lon="1.39322">
        <ele>130</ele>
        <time>2025-03-23T09:42:31Z</time>
      </trkpt>
      <trkpt lat="43.64464" lon="1.39327">
        <ele>130</ele>
        <time>2025-03-23T09:42:32Z</time>
      </trkpt>
      <trkpt lat="43.64465" lon="1.39329">
        <ele>130</ele>
        <time>2025-03-23T09:42:33Z</time>
      </trkpt>
      <trkpt lat="43.64465" lon="1.39333">
        <ele>130</ele>
        <time>2025-03-23T09:42:34Z</time>
      </trkpt>
      <trkpt lat="43.64466" lon="1.39336">
        <ele>130</ele>
        <time>2025-03-23T09:42:35Z</time>
      </trkpt>
      <trkpt lat="43.64467" lon="1.3934">
        <ele>129</ele>
        <time>2025-03-23T09:42:36Z</time>
      </trkpt>
      <trkpt lat="43.64468" lon="1.39343">
        <ele>130</ele>
        <time>2025-03-23T09:42:37Z</time>
      </trkpt>
      <trkpt lat="43.64468" lon="1.39346">
        <ele>130</ele>
        <time>2025-03-23T09:42:38Z</time>
      </trkpt>
      <trkpt lat="43.64469" lon="1.3935">
        <ele>129</ele>
        <time>2025-03-23T09:42:39Z</time>
      </trkpt>
      <trkpt lat="43.64469" lon="1.39353">
        <ele>130</ele>
        <time>2025-03-23T09:42:40Z</time>
      </trkpt>
      <trkpt lat="43.6447" lon="1.39357">
        <ele>130</ele>
        <time>2025-03-23T09:42:41Z</time>
      </trkpt>
      <trkpt lat="43.6447" lon="1.3936">
        <ele>130</ele>
        <time>2025-03-23T09:42:42Z</time>
      </trkpt>
      <trkpt lat="43.64471" lon="1.39363">
        <ele>130</ele>
        <time>2025-03-23T09:42:43Z</time>
      </trkpt>
      <trkpt lat="43.64472" lon="1.39367">
        <ele>130</ele>
        <time>2025-03-23T09:42:44Z</time>
      </trkpt>
      <trkpt lat="43.64474" lon="1.39372">
        <ele>130</ele>
        <time>2025-03-23T09:42:45Z</time>
      </trkpt>
      <trkpt lat="43.64474" lon="1.39373">
        <ele>130</ele>
        <time>2025-03-23T09:42:46Z</time>
      </trkpt>
      <trkpt lat="43.64475" lon="1.39377">
        <ele>130</ele>
        <time>2025-03-23T09:42:47Z</time>
      </trkpt>
      <trkpt lat="43.64476" lon="1.3938">
        <ele>130</ele>
        <time>2025-03-23T09:42:48Z</time>
      </trkpt>
      <trkpt lat="43.64477" lon="1.39384">
        <ele>130</ele>
        <time>2025-03-23T09:42:49Z</time>
      </trkpt>
      <trkpt lat="43.64477" lon="1.39387">
        <ele>130</ele>
        <time>2025-03-23T09:42:50Z</time>
      </trkpt>
      <trkpt lat="43.64478" lon="1.39393">
        <ele>130</ele>
        <time>2025-03-23T09:42:51Z</time>
      </trkpt>
      <trkpt lat="43.64478" lon="1.39394">
        <ele>130</ele>
        <time>2025-03-23T09:42:52Z</time>
      </trkpt>
      <trkpt lat="43.64479" lon="1.39398">
        <ele>130</ele>
        <time>2025-03-23T09:42:53Z</time>
      </trkpt>
      <trkpt lat="43.64479" lon="1.39402">
        <ele>130</ele>
        <time>2025-03-23T09:42:54Z</time>
      </trkpt>
      <trkpt lat="43.6448" lon="1.39405">
        <ele>130</ele>
        <time>2025-03-23T09:42:55Z</time>
      </trkpt>
      <trkpt lat="43.6448" lon="1.39408">
        <ele>130</ele>
        <time>2025-03-23T09:42:56Z</time>
      </trkpt>
      <trkpt lat="43.64481" lon="1.39412">
        <ele>130</ele>
        <time>2025-03-23T09:42:57Z</time>
      </trkpt>
      <trkpt lat="43.64481" lon="1.39415">
        <ele>130</ele>
        <time>2025-03-23T09:42:58Z</time>
      </trkpt>
      <trkpt lat="43.64482" lon="1.39419">
        <ele>130</ele>
        <time>2025-03-23T09:42:59Z</time>
      </trkpt>
      <trkpt lat="43.64482" lon="1.39423">
        <ele>129</ele>
        <time>2025-03-23T09:43:00Z</time>
      </trkpt>
      <trkpt lat="43.64482" lon="1.39426">
        <ele>129</ele>
        <time>2025-03-23T09:43:01Z</time>
      </trkpt>
      <trkpt lat="43.64483" lon="1.39429">
        <ele>129</ele>
        <time>2025-03-23T09:43:02Z</time>
      </trkpt>
      <trkpt lat="43.64483" lon="1.39433">
        <ele>129</ele>
        <time>2025-03-23T09:43:03Z</time>
      </trkpt>
      <trkpt lat="43.64484" lon="1.39438">
        <ele>129</ele>
        <time>2025-03-23T09:43:04Z</time>
      </trkpt>
      <trkpt lat="43.64484" lon="1.3944">
        <ele>129</ele>
        <time>2025-03-23T09:43:05Z</time>
      </trkpt>
      <trkpt lat="43.64484" lon="1.39443">
        <ele>129</ele>
        <time>2025-03-23T09:43:06Z</time>
      </trkpt>
      <trkpt lat="43.64485" lon="1.39446">
        <ele>130</ele>
        <time>2025-03-23T09:43:07Z</time>
      </trkpt>
      <trkpt lat="43.64486" lon="1.3945">
        <ele>130</ele>
        <time>2025-03-23T09:43:08Z</time>
      </trkpt>
      <trkpt lat="43.64486" lon="1.39453">
        <ele>130</ele>
        <time>2025-03-23T09:43:09Z</time>
      </trkpt>
      <trkpt lat="43.64487" lon="1.39456">
        <ele>130</ele>
        <time>2025-03-23T09:43:10Z</time>
      </trkpt>
      <trkpt lat="43.64488" lon="1.39461">
        <ele>130</ele>
        <time>2025-03-23T09:43:11Z</time>
      </trkpt>
      <trkpt lat="43.64489" lon="1.39463">
        <ele>130</ele>
        <time>2025-03-23T09:43:12Z</time>
      </trkpt>
      <trkpt lat="43.64489" lon="1.39467">
        <ele>130</ele>
        <time>2025-03-23T09:43:13Z</time>
      </trkpt>
      <trkpt lat="43.6449" lon="1.3947">
        <ele>130</ele>
        <time>2025-03-23T09:43:14Z</time>
      </trkpt>
      <trkpt lat="43.6449" lon="1.39474">
        <ele>129</ele>
        <time>2025-03-23T09:43:15Z</time>
      </trkpt>
      <trkpt lat="43.64491" lon="1.39477">
        <ele>129</ele>
        <time>2025-03-23T09:43:16Z</time>
      </trkpt>
      <trkpt lat="43.64491" lon="1.39481">
        <ele>129</ele>
        <time>2025-03-23T09:43:17Z</time>
      </trkpt>
      <trkpt lat="43.64492" lon="1.39484">
        <ele>129</ele>
        <time>2025-03-23T09:43:18Z</time>
      </trkpt>
      <trkpt lat="43.64492" lon="1.39487">
        <ele>129</ele>
        <time>2025-03-23T09:43:19Z</time>
      </trkpt>
      <trkpt lat="43.64492" lon="1.39491">
        <ele>129</ele>
        <time>2025-03-23T09:43:20Z</time>
      </trkpt>
      <trkpt lat="43.64493" lon="1.39494">
        <ele>129</ele>
        <time>2025-03-23T09:43:21Z</time>
      </trkpt>
      <trkpt lat="43.64494" lon="1.39498">
        <ele>129</ele>
        <time>2025-03-23T09:43:22Z</time>
      </trkpt>
      <trkpt lat="43.64494" lon="1.39501">
        <ele>129</ele>
        <time>2025-03-23T09:43:23Z</time>
      </trkpt>
      <trkpt lat="43.64495" lon="1.39505">
        <ele>130</ele>
        <time>2025-03-23T09:43:24Z</time>
      </trkpt>
      <trkpt lat="43.64495" lon="1.39508">
        <ele>130</ele>
        <time>2025-03-23T09:43:25Z</time>
      </trkpt>
      <trkpt lat="43.64496" lon="1.39511">
        <ele>130</ele>
        <time>2025-03-23T09:43:26Z</time>
      </trkpt>
      <trkpt lat="43.64496" lon="1.39515">
        <ele>129</ele>
        <time>2025-03-23T09:43:27Z</time>
      </trkpt>
      <trkpt lat="43.64496" lon="1.39518">
        <ele>129</ele>
        <time>2025-03-23T09:43:28Z</time>
      </trkpt>
      <trkpt lat="43.64497" lon="1.39521">
        <ele>129</ele>
        <time>2025-03-23T09:43:29Z</time>
      </trkpt>
      <trkpt lat="43.64497" lon="1.39527">
        <ele>129</ele>
        <time>2025-03-23T09:43:30Z</time>
      </trkpt>
      <trkpt lat="43.64497" lon="1.39528">
        <ele>129</ele>
        <time>2025-03-23T09:43:31Z</time>
      </trkpt>
      <trkpt lat="43.64498" lon="1.39532">
        <ele>129</ele>
        <time>2025-03-23T09:43:32Z</time>
      </trkpt>
      <trkpt lat="43.64498" lon="1.39535">
        <ele>129</ele>
        <time>2025-03-23T09:43:33Z</time>
      </trkpt>
      <trkpt lat="43.64498" lon="1.39539">
        <ele>129</ele>
        <time>2025-03-23T09:43:34Z</time>
      </trkpt>
      <trkpt lat="43.64498" lon="1.39542">
        <ele>129</ele>
        <time>2025-03-23T09:43:35Z</time>
      </trkpt>
      <trkpt lat="43.64499" lon="1.39546">
        <ele>129</ele>
        <time>2025-03-23T09:43:36Z</time>
      </trkpt>
      <trkpt lat="43.64499" lon="1.39549">
        <ele>129</ele>
        <time>2025-03-23T09:43:37Z</time>
      </trkpt>
      <trkpt lat="43.64499" lon="1.39553">
        <ele>130</ele>
        <time>2025-03-23T09:43:38Z</time>
      </trkpt>
      <trkpt lat="43.645" lon="1.39557">
        <ele>130</ele>
        <time>2025-03-23T09:43:39Z</time>
      </trkpt>
      <trkpt lat="43.645" lon="1.3956">
        <ele>130</ele>
        <time>2025-03-23T09:43:40Z</time>
      </trkpt>
      <trkpt lat="43.645" lon="1.39564">
        <ele>130</ele>
        <time>2025-03-23T09:43:41Z</time>
      </trkpt>
      <trkpt lat="43.64501" lon="1.39569">
        <ele>130</ele>
        <time>2025-03-23T09:43:42Z</time>
      </trkpt>
      <trkpt lat="43.64501" lon="1.39571">
        <ele>129</ele>
        <time>2025-03-23T09:43:43Z</time>
      </trkpt>
      <trkpt lat="43.64502" lon="1.39575">
        <ele>129</ele>
        <time>2025-03-23T09:43:44Z</time>
      </trkpt>
      <trkpt lat="43.64502" lon="1.39578">
        <ele>129</ele>
        <time>2025-03-23T09:43:45Z</time>
      </trkpt>
      <trkpt lat="43.64503" lon="1.39582">
        <ele>129</ele>
        <time>2025-03-23T09:43:46Z</time>
      </trkpt>
      <trkpt lat="43.64504" lon="1.39585">
        <ele>129</ele>
        <time>2025-03-23T09:43:47Z</time>
      </trkpt>
      <trkpt lat="43.64504" lon="1.39589">
        <ele>129</ele>
        <time>2025-03-23T09:43:48Z</time>
      </trkpt>
      <trkpt lat="43.64505" lon="1.39594">
        <ele>129</ele>
        <time>2025-03-23T09:43:49Z</time>
      </trkpt>
      <trkpt lat="43.64505" lon="1.39596">
        <ele>129</ele>
        <time>2025-03-23T09:43:50Z</time>
      </trkpt>
      <trkpt lat="43.64505" lon="1.396">
        <ele>129</ele>
        <time>2025-03-23T09:43:51Z</time>
      </trkpt>
      <trkpt lat="43.64506" lon="1.39603">
        <ele>129</ele>
        <time>2025-03-23T09:43:52Z</time>
      </trkpt>
      <trkpt lat="43.64506" lon="1.39607">
        <ele>129</ele>
        <time>2025-03-23T09:43:53Z</time>
      </trkpt>
      <trkpt lat="43.64506" lon="1.3961">
        <ele>129</ele>
        <time>2025-03-23T09:43:54Z</time>
      </trkpt>
      <trkpt lat="43.64506" lon="1.39614">
        <ele>130</ele>
        <time>2025-03-23T09:43:55Z</time>
      </trkpt>
      <trkpt lat="43.64506" lon="1.39618">
        <ele>130</ele>
        <time>2025-03-23T09:43:56Z</time>
      </trkpt>
      <trkpt lat="43.64506" lon="1.39622">
        <ele>130</ele>
        <time>2025-03-23T09:43:57Z</time>
      </trkpt>
      <trkpt lat="43.64506" lon="1.39625">
        <ele>130</ele>
        <time>2025-03-23T09:43:58Z</time>
      </trkpt>
      <trkpt lat="43.64506" lon="1.39629">
        <ele>130</ele>
        <time>2025-03-23T09:43:59Z</time>
      </trkpt>
      <trkpt lat="43.64507" lon="1.39633">
        <ele>130</ele>
        <time>2025-03-23T09:44:00Z</time>
      </trkpt>
      <trkpt lat="43.64506" lon="1.39638">
        <ele>130</ele>
        <time>2025-03-23T09:44:01Z</time>
      </trkpt>
      <trkpt lat="43.64506" lon="1.3964">
        <ele>130</ele>
        <time>2025-03-23T09:44:02Z</time>
      </trkpt>
      <trkpt lat="43.64506" lon="1.39644">
        <ele>130</ele>
        <time>2025-03-23T09:44:03Z</time>
      </trkpt>
      <trkpt lat="43.64506" lon="1.39647">
        <ele>130</ele>
        <time>2025-03-23T09:44:04Z</time>
      </trkpt>
      <trkpt lat="43.64506" lon="1.39651">
        <ele>130</ele>
        <time>2025-03-23T09:44:05Z</time>
      </trkpt>
      <trkpt lat="43.64507" lon="1.39654">
        <ele>130</ele>
        <time>2025-03-23T09:44:06Z</time>
      </trkpt>
      <trkpt lat="43.64508" lon="1.39658">
        <ele>130</ele>
        <time>2025-03-23T09:44:07Z</time>
      </trkpt>
      <trkpt lat="43.64508" lon="1.39663">
        <ele>130</ele>
        <time>2025-03-23T09:44:08Z</time>
      </trkpt>
      <trkpt lat="43.64508" lon="1.39665">
        <ele>130</ele>
        <time>2025-03-23T09:44:09Z</time>
      </trkpt>
      <trkpt lat="43.64508" lon="1.39669">
        <ele>130</ele>
        <time>2025-03-23T09:44:10Z</time>
      </trkpt>
      <trkpt lat="43.64509" lon="1.39672">
        <ele>130</ele>
        <time>2025-03-23T09:44:11Z</time>
      </trkpt>
      <trkpt lat="43.64509" lon="1.39676">
        <ele>130</ele>
        <time>2025-03-23T09:44:12Z</time>
      </trkpt>
      <trkpt lat="43.64509" lon="1.3968">
        <ele>130</ele>
        <time>2025-03-23T09:44:13Z</time>
      </trkpt>
      <trkpt lat="43.64509" lon="1.39683">
        <ele>130</ele>
        <time>2025-03-23T09:44:14Z</time>
      </trkpt>
      <trkpt lat="43.64508" lon="1.39687">
        <ele>130</ele>
        <time>2025-03-23T09:44:15Z</time>
      </trkpt>
      <trkpt lat="43.64508" lon="1.39691">
        <ele>130</ele>
        <time>2025-03-23T09:44:16Z</time>
      </trkpt>
      <trkpt lat="43.64507" lon="1.39695">
        <ele>130</ele>
        <time>2025-03-23T09:44:17Z</time>
      </trkpt>
      <trkpt lat="43.64507" lon="1.39698">
        <ele>130</ele>
        <time>2025-03-23T09:44:18Z</time>
      </trkpt>
      <trkpt lat="43.64507" lon="1.39702">
        <ele>130</ele>
        <time>2025-03-23T09:44:19Z</time>
      </trkpt>
      <trkpt lat="43.64506" lon="1.39708">
        <ele>130</ele>
        <time>2025-03-23T09:44:20Z</time>
      </trkpt>
      <trkpt lat="43.64506" lon="1.39709">
        <ele>130</ele>
        <time>2025-03-23T09:44:21Z</time>
      </trkpt>
      <trkpt lat="43.64506" lon="1.39713">
        <ele>130</ele>
        <time>2025-03-23T09:44:22Z</time>
      </trkpt>
      <trkpt lat="43.64506" lon="1.39716">
        <ele>130</ele>
        <time>2025-03-23T09:44:23Z</time>
      </trkpt>
      <trkpt lat="43.64506" lon="1.3972">
        <ele>130</ele>
        <time>2025-03-23T09:44:24Z</time>
      </trkpt>
      <trkpt lat="43.64506" lon="1.39723">
        <ele>130</ele>
        <time>2025-03-23T09:44:25Z</time>
      </trkpt>
      <trkpt lat="43.64506" lon="1.39727">
        <ele>130</ele>
        <time>2025-03-23T09:44:26Z</time>
      </trkpt>
      <trkpt lat="43.64506" lon="1.39732">
        <ele>130</ele>
        <time>2025-03-23T09:44:27Z</time>
      </trkpt>
      <trkpt lat="43.64506" lon="1.39734">
        <ele>130</ele>
        <time>2025-03-23T09:44:28Z</time>
      </trkpt>
      <trkpt lat="43.64506" lon="1.39738">
        <ele>130</ele>
        <time>2025-03-23T09:44:29Z</time>
      </trkpt>
      <trkpt lat="43.64506" lon="1.39742">
        <ele>129</ele>
        <time>2025-03-23T09:44:30Z</time>
      </trkpt>
      <trkpt lat="43.64506" lon="1.39745">
        <ele>129</ele>
        <time>2025-03-23T09:44:31Z</time>
      </trkpt>
      <trkpt lat="43.64506" lon="1.39749">
        <ele>129</ele>
        <time>2025-03-23T09:44:32Z</time>
      </trkpt>
      <trkpt lat="43.64507" lon="1.39752">
        <ele>129</ele>
        <time>2025-03-23T09:44:33Z</time>
      </trkpt>
      <trkpt lat="43.64507" lon="1.39756">
        <ele>129</ele>
        <time>2025-03-23T09:44:34Z</time>
      </trkpt>
      <trkpt lat="43.64508" lon="1.3976">
        <ele>129</ele>
        <time>2025-03-23T09:44:35Z</time>
      </trkpt>
      <trkpt lat="43.64508" lon="1.39764">
        <ele>129</ele>
        <time>2025-03-23T09:44:36Z</time>
      </trkpt>
      <trkpt lat="43.64508" lon="1.39767">
        <ele>130</ele>
        <time>2025-03-23T09:44:37Z</time>
      </trkpt>
      <trkpt lat="43.64507" lon="1.39771">
        <ele>130</ele>
        <time>2025-03-23T09:44:38Z</time>
      </trkpt>
      <trkpt lat="43.64507" lon="1.39776">
        <ele>130</ele>
        <time>2025-03-23T09:44:39Z</time>
      </trkpt>
      <trkpt lat="43.64506" lon="1.39778">
        <ele>130</ele>
        <time>2025-03-23T09:44:40Z</time>
      </trkpt>
      <trkpt lat="43.64506" lon="1.39782">
        <ele>130</ele>
        <time>2025-03-23T09:44:41Z</time>
      </trkpt>
      <trkpt lat="43.64505" lon="1.39785">
        <ele>130</ele>
        <time>2025-03-23T09:44:42Z</time>
      </trkpt>
      <trkpt lat="43.64505" lon="1.39789">
        <ele>130</ele>
        <time>2025-03-23T09:44:43Z</time>
      </trkpt>
      <trkpt lat="43.64506" lon="1.39793">
        <ele>130</ele>
        <time>2025-03-23T09:44:44Z</time>
      </trkpt>
      <trkpt lat="43.64506" lon="1.39796">
        <ele>130</ele>
        <time>2025-03-23T09:44:45Z</time>
      </trkpt>
      <trkpt lat="43.64506" lon="1.39802">
        <ele>130</ele>
        <time>2025-03-23T09:44:46Z</time>
      </trkpt>
      <trkpt lat="43.64507" lon="1.39804">
        <ele>130</ele>
        <time>2025-03-23T09:44:47Z</time>
      </trkpt>
      <trkpt lat="43.64507" lon="1.39807">
        <ele>129</ele>
        <time>2025-03-23T09:44:48Z</time>
      </trkpt>
      <trkpt lat="43.64507" lon="1.39811">
        <ele>129</ele>
        <time>2025-03-23T09:44:49Z</time>
      </trkpt>
      <trkpt lat="43.64508" lon="1.39815">
        <ele>130</ele>
        <time>2025-03-23T09:44:50Z</time>
      </trkpt>
      <trkpt lat="43.64508" lon="1.39818">
        <ele>130</ele>
        <time>2025-03-23T09:44:51Z</time>
      </trkpt>
      <trkpt lat="43.64508" lon="1.39822">
        <ele>129</ele>
        <time>2025-03-23T09:44:52Z</time>
      </trkpt>
      <trkpt lat="43.64508" lon="1.39825">
        <ele>129</ele>
        <time>2025-03-23T09:44:53Z</time>
      </trkpt>
      <trkpt lat="43.64508" lon="1.39829">
        <ele>130</ele>
        <time>2025-03-23T09:44:54Z</time>
      </trkpt>
      <trkpt lat="43.64508" lon="1.39832">
        <ele>130</ele>
        <time>2025-03-23T09:44:55Z</time>
      </trkpt>
      <trkpt lat="43.64508" lon="1.39836">
        <ele>130</ele>
        <time>2025-03-23T09:44:56Z</time>
      </trkpt>
      <trkpt lat="43.64508" lon="1.39839">
        <ele>130</ele>
        <time>2025-03-23T09:44:57Z</time>
      </trkpt>
      <trkpt lat="43.64508" lon="1.39843">
        <ele>130</ele>
        <time>2025-03-23T09:44:58Z</time>
      </trkpt>
      <trkpt lat="43.64508" lon="1.39846">
        <ele>130</ele>
        <time>2025-03-23T09:44:59Z</time>
      </trkpt>
      <trkpt lat="43.64508" lon="1.3985">
        <ele>129</ele>
        <time>2025-03-23T09:45:00Z</time>
      </trkpt>
      <trkpt lat="43.64507" lon="1.39853">
        <ele>129</ele>
        <time>2025-03-23T09:45:01Z</time>
      </trkpt>
      <trkpt lat="43.64507" lon="1.39857">
        <ele>129</ele>
        <time>2025-03-23T09:45:02Z</time>
      </trkpt>
      <trkpt lat="43.64507" lon="1.3986">
        <ele>129</ele>
        <time>2025-03-23T09:45:03Z</time>
      </trkpt>
      <trkpt lat="43.64507" lon="1.39864">
        <ele>129</ele>
        <time>2025-03-23T09:45:04Z</time>
      </trkpt>
      <trkpt lat="43.64507" lon="1.39867">
        <ele>129</ele>
        <time>2025-03-23T09:45:05Z</time>
      </trkpt>
      <trkpt lat="43.64507" lon="1.39873">
        <ele>129</ele>
        <time>2025-03-23T09:45:06Z</time>
      </trkpt>
      <trkpt lat="43.64507" lon="1.39874">
        <ele>129</ele>
        <time>2025-03-23T09:45:07Z</time>
      </trkpt>
      <trkpt lat="43.64507" lon="1.39878">
        <ele>129</ele>
        <time>2025-03-23T09:45:08Z</time>
      </trkpt>
      <trkpt lat="43.64507" lon="1.39882">
        <ele>129</ele>
        <time>2025-03-23T09:45:09Z</time>
      </trkpt>
      <trkpt lat="43.64507" lon="1.39885">
        <ele>129</ele>
        <time>2025-03-23T09:45:10Z</time>
      </trkpt>
      <trkpt lat="43.64507" lon="1.39889">
        <ele>129</ele>
        <time>2025-03-23T09:45:11Z</time>
      </trkpt>
      <trkpt lat="43.64506" lon="1.39892">
        <ele>129</ele>
        <time>2025-03-23T09:45:12Z</time>
      </trkpt>
      <trkpt lat="43.64506" lon="1.39896">
        <ele>130</ele>
        <time>2025-03-23T09:45:13Z</time>
      </trkpt>
      <trkpt lat="43.64506" lon="1.39899">
        <ele>130</ele>
        <time>2025-03-23T09:45:14Z</time>
      </trkpt>
      <trkpt lat="43.64505" lon="1.39902">
        <ele>130</ele>
        <time>2025-03-23T09:45:15Z</time>
      </trkpt>
      <trkpt lat="43.64505" lon="1.39906">
        <ele>130</ele>
        <time>2025-03-23T09:45:16Z</time>
      </trkpt>
      <trkpt lat="43.64504" lon="1.39911">
        <ele>130</ele>
        <time>2025-03-23T09:45:17Z</time>
      </trkpt>
      <trkpt lat="43.64504" lon="1.39912">
        <ele>130</ele>
        <time>2025-03-23T09:45:18Z</time>
      </trkpt>
      <trkpt lat="43.64504" lon="1.39916">
        <ele>130</ele>
        <time>2025-03-23T09:45:19Z</time>
      </trkpt>
      <trkpt lat="43.64505" lon="1.39919">
        <ele>130</ele>
        <time>2025-03-23T09:45:20Z</time>
      </trkpt>
      <trkpt lat="43.64505" lon="1.39923">
        <ele>130</ele>
        <time>2025-03-23T09:45:21Z</time>
      </trkpt>
      <trkpt lat="43.64506" lon="1.39926">
        <ele>130</ele>
        <time>2025-03-23T09:45:22Z</time>
      </trkpt>
      <trkpt lat="43.64507" lon="1.39928">
        <ele>130</ele>
        <time>2025-03-23T09:45:23Z</time>
      </trkpt>
      <trkpt lat="43.64508" lon="1.39931">
        <ele>130</ele>
        <time>2025-03-23T09:45:24Z</time>
      </trkpt>
      <trkpt lat="43.64511" lon="1.39935">
        <ele>130</ele>
        <time>2025-03-23T09:45:25Z</time>
      </trkpt>
      <trkpt lat="43.64512" lon="1.39936">
        <ele>130</ele>
        <time>2025-03-23T09:45:26Z</time>
      </trkpt>
      <trkpt lat="43.64513" lon="1.39939">
        <ele>130</ele>
        <time>2025-03-23T09:45:27Z</time>
      </trkpt>
      <trkpt lat="43.64513" lon="1.39943">
        <ele>130</ele>
        <time>2025-03-23T09:45:28Z</time>
      </trkpt>
      <trkpt lat="43.64513" lon="1.39947">
        <ele>130</ele>
        <time>2025-03-23T09:45:29Z</time>
      </trkpt>
      <trkpt lat="43.64512" lon="1.39951">
        <ele>130</ele>
        <time>2025-03-23T09:45:30Z</time>
      </trkpt>
      <trkpt lat="43.6451" lon="1.39954">
        <ele>130</ele>
        <time>2025-03-23T09:45:31Z</time>
      </trkpt>
      <trkpt lat="43.64508" lon="1.39956">
        <ele>130</ele>
        <time>2025-03-23T09:45:32Z</time>
      </trkpt>
      <trkpt lat="43.64506" lon="1.39957">
        <ele>130</ele>
        <time>2025-03-23T09:45:33Z</time>
      </trkpt>
      <trkpt lat="43.64504" lon="1.39958">
        <ele>130</ele>
        <time>2025-03-23T09:45:34Z</time>
      </trkpt>
      <trkpt lat="43.64501" lon="1.39959">
        <ele>130</ele>
        <time>2025-03-23T09:45:35Z</time>
      </trkpt>
      <trkpt lat="43.64499" lon="1.3996">
        <ele>130</ele>
        <time>2025-03-23T09:45:36Z</time>
      </trkpt>
      <trkpt lat="43.64497" lon="1.39961">
        <ele>130</ele>
        <time>2025-03-23T09:45:37Z</time>
      </trkpt>
      <trkpt lat="43.64495" lon="1.39961">
        <ele>130</ele>
        <time>2025-03-23T09:45:38Z</time>
      </trkpt>
      <trkpt lat="43.64492" lon="1.39962">
        <ele>130</ele>
        <time>2025-03-23T09:45:39Z</time>
      </trkpt>
      <trkpt lat="43.64489" lon="1.39963">
        <ele>130</ele>
        <time>2025-03-23T09:45:40Z</time>
      </trkpt>
      <trkpt lat="43.64486" lon="1.39964">
        <ele>130</ele>
        <time>2025-03-23T09:45:41Z</time>
      </trkpt>
      <trkpt lat="43.64483" lon="1.39965">
        <ele>130</ele>
        <time>2025-03-23T09:45:42Z</time>
      </trkpt>
      <trkpt lat="43.6448" lon="1.39966">
        <ele>130</ele>
        <time>2025-03-23T09:45:43Z</time>
      </trkpt>
      <trkpt lat="43.64476" lon="1.39967">
        <ele>130</ele>
        <time>2025-03-23T09:45:44Z</time>
      </trkpt>
      <trkpt lat="43.64475" lon="1.39968">
        <ele>130</ele>
        <time>2025-03-23T09:45:45Z</time>
      </trkpt>
      <trkpt lat="43.64472" lon="1.39968">
        <ele>129</ele>
        <time>2025-03-23T09:45:46Z</time>
      </trkpt>
      <trkpt lat="43.64469" lon="1.39968">
        <ele>129</ele>
        <time>2025-03-23T09:45:47Z</time>
      </trkpt>
      <trkpt lat="43.64466" lon="1.39968">
        <ele>128</ele>
        <time>2025-03-23T09:45:48Z</time>
      </trkpt>
      <trkpt lat="43.64463" lon="1.39968">
        <ele>128</ele>
        <time>2025-03-23T09:45:49Z</time>
      </trkpt>
      <trkpt lat="43.6446" lon="1.39968">
        <ele>128</ele>
        <time>2025-03-23T09:45:50Z</time>
      </trkpt>
      <trkpt lat="43.64458" lon="1.39968">
        <ele>128</ele>
        <time>2025-03-23T09:45:51Z</time>
      </trkpt>
      <trkpt lat="43.64455" lon="1.39968">
        <ele>128</ele>
        <time>2025-03-23T09:45:52Z</time>
      </trkpt>
      <trkpt lat="43.64453" lon="1.39969">
        <ele>128</ele>
        <time>2025-03-23T09:45:53Z</time>
      </trkpt>
      <trkpt lat="43.6445" lon="1.39968">
        <ele>128</ele>
        <time>2025-03-23T09:45:54Z</time>
      </trkpt>
      <trkpt lat="43.64446" lon="1.39968">
        <ele>128</ele>
        <time>2025-03-23T09:45:55Z</time>
      </trkpt>
      <trkpt lat="43.64445" lon="1.39968">
        <ele>128</ele>
        <time>2025-03-23T09:45:56Z</time>
      </trkpt>
      <trkpt lat="43.64443" lon="1.39969">
        <ele>128</ele>
        <time>2025-03-23T09:45:57Z</time>
      </trkpt>
      <trkpt lat="43.6444" lon="1.39969">
        <ele>128</ele>
        <time>2025-03-23T09:45:58Z</time>
      </trkpt>
      <trkpt lat="43.64438" lon="1.39969">
        <ele>128</ele>
        <time>2025-03-23T09:45:59Z</time>
      </trkpt>
      <trkpt lat="43.64435" lon="1.39969">
        <ele>128</ele>
        <time>2025-03-23T09:46:00Z</time>
      </trkpt>
      <trkpt lat="43.64433" lon="1.3997">
        <ele>128</ele>
        <time>2025-03-23T09:46:01Z</time>
      </trkpt>
      <trkpt lat="43.6443" lon="1.3997">
        <ele>128</ele>
        <time>2025-03-23T09:46:02Z</time>
      </trkpt>
      <trkpt lat="43.64427" lon="1.3997">
        <ele>128</ele>
        <time>2025-03-23T09:46:03Z</time>
      </trkpt>
      <trkpt lat="43.64425" lon="1.3997">
        <ele>128</ele>
        <time>2025-03-23T09:46:04Z</time>
      </trkpt>
      <trkpt lat="43.64423" lon="1.3997">
        <ele>128</ele>
        <time>2025-03-23T09:46:05Z</time>
      </trkpt>
      <trkpt lat="43.6442" lon="1.3997">
        <ele>128</ele>
        <time>2025-03-23T09:46:06Z</time>
      </trkpt>
      <trkpt lat="43.64417" lon="1.3997">
        <ele>128</ele>
        <time>2025-03-23T09:46:07Z</time>
      </trkpt>
      <trkpt lat="43.64414" lon="1.3997">
        <ele>128</ele>
        <time>2025-03-23T09:46:08Z</time>
      </trkpt>
      <trkpt lat="43.64411" lon="1.3997">
        <ele>128</ele>
        <time>2025-03-23T09:46:09Z</time>
      </trkpt>
      <trkpt lat="43.64408" lon="1.3997">
        <ele>128</ele>
        <time>2025-03-23T09:46:10Z</time>
      </trkpt>
      <trkpt lat="43.64407" lon="1.39969">
        <ele>128</ele>
        <time>2025-03-23T09:46:11Z</time>
      </trkpt>
      <trkpt lat="43.64405" lon="1.39969">
        <ele>128</ele>
        <time>2025-03-23T09:46:12Z</time>
      </trkpt>
      <trkpt lat="43.64402" lon="1.39969">
        <ele>128</ele>
        <time>2025-03-23T09:46:13Z</time>
      </trkpt>
      <trkpt lat="43.64399" lon="1.39968">
        <ele>128</ele>
        <time>2025-03-23T09:46:14Z</time>
      </trkpt>
      <trkpt lat="43.64398" lon="1.39967">
        <ele>128</ele>
        <time>2025-03-23T09:46:15Z</time>
      </trkpt>
      <trkpt lat="43.64396" lon="1.39967">
        <ele>128</ele>
        <time>2025-03-23T09:46:16Z</time>
      </trkpt>
      <trkpt lat="43.64393" lon="1.39967">
        <ele>128</ele>
        <time>2025-03-23T09:46:17Z</time>
      </trkpt>
      <trkpt lat="43.64391" lon="1.39966">
        <ele>128</ele>
        <time>2025-03-23T09:46:18Z</time>
      </trkpt>
      <trkpt lat="43.64389" lon="1.39966">
        <ele>128</ele>
        <time>2025-03-23T09:46:19Z</time>
      </trkpt>
      <trkpt lat="43.64386" lon="1.39965">
        <ele>128</ele>
        <time>2025-03-23T09:46:20Z</time>
      </trkpt>
      <trkpt lat="43.64383" lon="1.39965">
        <ele>128</ele>
        <time>2025-03-23T09:46:21Z</time>
      </trkpt>
      <trkpt lat="43.6438" lon="1.39965">
        <ele>128</ele>
        <time>2025-03-23T09:46:22Z</time>
      </trkpt>
      <trkpt lat="43.64377" lon="1.39965">
        <ele>128</ele>
        <time>2025-03-23T09:46:23Z</time>
      </trkpt>
      <trkpt lat="43.64375" lon="1.39965">
        <ele>128</ele>
        <time>2025-03-23T09:46:24Z</time>
      </trkpt>
      <trkpt lat="43.64373" lon="1.39965">
        <ele>128</ele>
        <time>2025-03-23T09:46:25Z</time>
      </trkpt>
      <trkpt lat="43.6437" lon="1.39965">
        <ele>128</ele>
        <time>2025-03-23T09:46:26Z</time>
      </trkpt>
      <trkpt lat="43.64367" lon="1.39965">
        <ele>128</ele>
        <time>2025-03-23T09:46:27Z</time>
      </trkpt>
      <trkpt lat="43.64364" lon="1.39964">
        <ele>128</ele>
        <time>2025-03-23T09:46:28Z</time>
      </trkpt>
      <trkpt lat="43.64361" lon="1.39963">
        <ele>128</ele>
        <time>2025-03-23T09:46:29Z</time>
      </trkpt>
      <trkpt lat="43.64358" lon="1.39962">
        <ele>128</ele>
        <time>2025-03-23T09:46:30Z</time>
      </trkpt>
      <trkpt lat="43.64355" lon="1.39962">
        <ele>129</ele>
        <time>2025-03-23T09:46:31Z</time>
      </trkpt>
      <trkpt lat="43.64353" lon="1.39961">
        <ele>129</ele>
        <time>2025-03-23T09:46:32Z</time>
      </trkpt>
      <trkpt lat="43.64349" lon="1.3996">
        <ele>129</ele>
        <time>2025-03-23T09:46:33Z</time>
      </trkpt>
      <trkpt lat="43.64348" lon="1.3996">
        <ele>128</ele>
        <time>2025-03-23T09:46:34Z</time>
      </trkpt>
      <trkpt lat="43.64345" lon="1.39959">
        <ele>128</ele>
        <time>2025-03-23T09:46:35Z</time>
      </trkpt>
      <trkpt lat="43.64343" lon="1.39958">
        <ele>128</ele>
        <time>2025-03-23T09:46:36Z</time>
      </trkpt>
      <trkpt lat="43.6434" lon="1.39958">
        <ele>128</ele>
        <time>2025-03-23T09:46:37Z</time>
      </trkpt>
      <trkpt lat="43.64338" lon="1.39957">
        <ele>129</ele>
        <time>2025-03-23T09:46:38Z</time>
      </trkpt>
      <trkpt lat="43.64335" lon="1.39957">
        <ele>129</ele>
        <time>2025-03-23T09:46:39Z</time>
      </trkpt>
      <trkpt lat="43.64332" lon="1.39955">
        <ele>129</ele>
        <time>2025-03-23T09:46:40Z</time>
      </trkpt>
      <trkpt lat="43.64329" lon="1.39954">
        <ele>129</ele>
        <time>2025-03-23T09:46:41Z</time>
      </trkpt>
      <trkpt lat="43.64327" lon="1.39954">
        <ele>129</ele>
        <time>2025-03-23T09:46:42Z</time>
      </trkpt>
      <trkpt lat="43.64325" lon="1.39953">
        <ele>129</ele>
        <time>2025-03-23T09:46:43Z</time>
      </trkpt>
      <trkpt lat="43.64322" lon="1.39952">
        <ele>129</ele>
        <time>2025-03-23T09:46:44Z</time>
      </trkpt>
      <trkpt lat="43.6432" lon="1.39951">
        <ele>129</ele>
        <time>2025-03-23T09:46:45Z</time>
      </trkpt>
      <trkpt lat="43.64317" lon="1.3995">
        <ele>129</ele>
        <time>2025-03-23T09:46:46Z</time>
      </trkpt>
      <trkpt lat="43.64315" lon="1.39949">
        <ele>129</ele>
        <time>2025-03-23T09:46:47Z</time>
      </trkpt>
      <trkpt lat="43.64313" lon="1.39948">
        <ele>129</ele>
        <time>2025-03-23T09:46:48Z</time>
      </trkpt>
      <trkpt lat="43.64311" lon="1.39946">
        <ele>129</ele>
        <time>2025-03-23T09:46:49Z</time>
      </trkpt>
      <trkpt lat="43.64308" lon="1.39945">
        <ele>129</ele>
        <time>2025-03-23T09:46:50Z</time>
      </trkpt>
      <trkpt lat="43.64306" lon="1.39944">
        <ele>129</ele>
        <time>2025-03-23T09:46:51Z</time>
      </trkpt>
      <trkpt lat="43.64302" lon="1.39943">
        <ele>129</ele>
        <time>2025-03-23T09:46:52Z</time>
      </trkpt>
      <trkpt lat="43.64301" lon="1.39943">
        <ele>129</ele>
        <time>2025-03-23T09:46:53Z</time>
      </trkpt>
      <trkpt lat="43.64298" lon="1.39943">
        <ele>129</ele>
        <time>2025-03-23T09:46:54Z</time>
      </trkpt>
      <trkpt lat="43.64295" lon="1.39942">
        <ele>129</ele>
        <time>2025-03-23T09:46:55Z</time>
      </trkpt>
      <trkpt lat="43.64293" lon="1.39941">
        <ele>129</ele>
        <time>2025-03-23T09:46:56Z</time>
      </trkpt>
      <trkpt lat="43.64291" lon="1.39941">
        <ele>129</ele>
        <time>2025-03-23T09:46:57Z</time>
      </trkpt>
      <trkpt lat="43.64289" lon="1.3994">
        <ele>129</ele>
        <time>2025-03-23T09:46:58Z</time>
      </trkpt>
      <trkpt lat="43.64286" lon="1.39939">
        <ele>129</ele>
        <time>2025-03-23T09:46:59Z</time>
      </trkpt>
      <trkpt lat="43.64284" lon="1.39938">
        <ele>129</ele>
        <time>2025-03-23T09:47:00Z</time>
      </trkpt>
      <trkpt lat="43.6428" lon="1.39937">
        <ele>129</ele>
        <time>2025-03-23T09:47:01Z</time>
      </trkpt>
      <trkpt lat="43.64278" lon="1.39937">
        <ele>129</ele>
        <time>2025-03-23T09:47:02Z</time>
      </trkpt>
      <trkpt lat="43.64276" lon="1.39936">
        <ele>129</ele>
        <time>2025-03-23T09:47:03Z</time>
      </trkpt>
      <trkpt lat="43.64273" lon="1.39936">
        <ele>129</ele>
        <time>2025-03-23T09:47:04Z</time>
      </trkpt>
      <trkpt lat="43.6427" lon="1.39935">
        <ele>129</ele>
        <time>2025-03-23T09:47:05Z</time>
      </trkpt>
      <trkpt lat="43.64267" lon="1.39935">
        <ele>129</ele>
        <time>2025-03-23T09:47:06Z</time>
      </trkpt>
      <trkpt lat="43.64263" lon="1.39935">
        <ele>129</ele>
        <time>2025-03-23T09:47:07Z</time>
      </trkpt>
      <trkpt lat="43.64261" lon="1.39935">
        <ele>129</ele>
        <time>2025-03-23T09:47:08Z</time>
      </trkpt>
      <trkpt lat="43.64259" lon="1.39935">
        <ele>129</ele>
        <time>2025-03-23T09:47:09Z</time>
      </trkpt>
      <trkpt lat="43.64256" lon="1.39935">
        <ele>129</ele>
        <time>2025-03-23T09:47:10Z</time>
      </trkpt>
      <trkpt lat="43.64252" lon="1.39935">
        <ele>129</ele>
        <time>2025-03-23T09:47:11Z</time>
      </trkpt>
      <trkpt lat="43.64251" lon="1.39934">
        <ele>129</ele>
        <time>2025-03-23T09:47:12Z</time>
      </trkpt>
      <trkpt lat="43.64249" lon="1.39935">
        <ele>129</ele>
        <time>2025-03-23T09:47:13Z</time>
      </trkpt>
      <trkpt lat="43.64246" lon="1.39935">
        <ele>129</ele>
        <time>2025-03-23T09:47:14Z</time>
      </trkpt>
      <trkpt lat="43.64244" lon="1.39936">
        <ele>129</ele>
        <time>2025-03-23T09:47:15Z</time>
      </trkpt>
      <trkpt lat="43.64242" lon="1.39937">
        <ele>129</ele>
        <time>2025-03-23T09:47:16Z</time>
      </trkpt>
      <trkpt lat="43.6424" lon="1.39938">
        <ele>129</ele>
        <time>2025-03-23T09:47:17Z</time>
      </trkpt>
      <trkpt lat="43.64238" lon="1.39939">
        <ele>129</ele>
        <time>2025-03-23T09:47:18Z</time>
      </trkpt>
      <trkpt lat="43.64236" lon="1.39941">
        <ele>129</ele>
        <time>2025-03-23T09:47:19Z</time>
      </trkpt>
      <trkpt lat="43.64233" lon="1.39943">
        <ele>129</ele>
        <time>2025-03-23T09:47:20Z</time>
      </trkpt>
      <trkpt lat="43.6423" lon="1.39945">
        <ele>129</ele>
        <time>2025-03-23T09:47:21Z</time>
      </trkpt>
      <trkpt lat="43.64229" lon="1.39946">
        <ele>129</ele>
        <time>2025-03-23T09:47:22Z</time>
      </trkpt>
      <trkpt lat="43.64227" lon="1.39949">
        <ele>129</ele>
        <time>2025-03-23T09:47:23Z</time>
      </trkpt>
      <trkpt lat="43.64225" lon="1.39951">
        <ele>129</ele>
        <time>2025-03-23T09:47:24Z</time>
      </trkpt>
      <trkpt lat="43.64223" lon="1.39953">
        <ele>129</ele>
        <time>2025-03-23T09:47:25Z</time>
      </trkpt>
      <trkpt lat="43.64221" lon="1.39955">
        <ele>129</ele>
        <time>2025-03-23T09:47:26Z</time>
      </trkpt>
      <trkpt lat="43.64219" lon="1.39958">
        <ele>129</ele>
        <time>2025-03-23T09:47:27Z</time>
      </trkpt>
      <trkpt lat="43.64217" lon="1.3996">
        <ele>129</ele>
        <time>2025-03-23T09:47:28Z</time>
      </trkpt>
      <trkpt lat="43.64215" lon="1.39963">
        <ele>129</ele>
        <time>2025-03-23T09:47:29Z</time>
      </trkpt>
      <trkpt lat="43.64211" lon="1.39966">
        <ele>129</ele>
        <time>2025-03-23T09:47:30Z</time>
      </trkpt>
      <trkpt lat="43.6421" lon="1.39967">
        <ele>129</ele>
        <time>2025-03-23T09:47:31Z</time>
      </trkpt>
      <trkpt lat="43.64208" lon="1.39969">
        <ele>129</ele>
        <time>2025-03-23T09:47:32Z</time>
      </trkpt>
      <trkpt lat="43.64205" lon="1.39971">
        <ele>129</ele>
        <time>2025-03-23T09:47:33Z</time>
      </trkpt>
      <trkpt lat="43.64203" lon="1.39972">
        <ele>129</ele>
        <time>2025-03-23T09:47:34Z</time>
      </trkpt>
      <trkpt lat="43.642" lon="1.39973">
        <ele>129</ele>
        <time>2025-03-23T09:47:35Z</time>
      </trkpt>
      <trkpt lat="43.64197" lon="1.39974">
        <ele>129</ele>
        <time>2025-03-23T09:47:36Z</time>
      </trkpt>
      <trkpt lat="43.64195" lon="1.39975">
        <ele>129</ele>
        <time>2025-03-23T09:47:37Z</time>
      </trkpt>
      <trkpt lat="43.64192" lon="1.39976">
        <ele>129</ele>
        <time>2025-03-23T09:47:38Z</time>
      </trkpt>
      <trkpt lat="43.64188" lon="1.39977">
        <ele>129</ele>
        <time>2025-03-23T09:47:39Z</time>
      </trkpt>
      <trkpt lat="43.64187" lon="1.39978">
        <ele>129</ele>
        <time>2025-03-23T09:47:40Z</time>
      </trkpt>
      <trkpt lat="43.64184" lon="1.39978">
        <ele>129</ele>
        <time>2025-03-23T09:47:41Z</time>
      </trkpt>
      <trkpt lat="43.64181" lon="1.39979">
        <ele>129</ele>
        <time>2025-03-23T09:47:42Z</time>
      </trkpt>
      <trkpt lat="43.64179" lon="1.3998">
        <ele>129</ele>
        <time>2025-03-23T09:47:43Z</time>
      </trkpt>
      <trkpt lat="43.64177" lon="1.39981">
        <ele>129</ele>
        <time>2025-03-23T09:47:44Z</time>
      </trkpt>
      <trkpt lat="43.64174" lon="1.39982">
        <ele>129</ele>
        <time>2025-03-23T09:47:45Z</time>
      </trkpt>
      <trkpt lat="43.64172" lon="1.39982">
        <ele>129</ele>
        <time>2025-03-23T09:47:46Z</time>
      </trkpt>
      <trkpt lat="43.64169" lon="1.39983">
        <ele>129</ele>
        <time>2025-03-23T09:47:47Z</time>
      </trkpt>
      <trkpt lat="43.64167" lon="1.39984">
        <ele>129</ele>
        <time>2025-03-23T09:47:48Z</time>
      </trkpt>
      <trkpt lat="43.64164" lon="1.39986">
        <ele>129</ele>
        <time>2025-03-23T09:47:49Z</time>
      </trkpt>
      <trkpt lat="43.64163" lon="1.39988">
        <ele>129</ele>
        <time>2025-03-23T09:47:50Z</time>
      </trkpt>
      <trkpt lat="43.64161" lon="1.39991">
        <ele>129</ele>
        <time>2025-03-23T09:47:51Z</time>
      </trkpt>
      <trkpt lat="43.6416" lon="1.39994">
        <ele>129</ele>
        <time>2025-03-23T09:47:52Z</time>
      </trkpt>
      <trkpt lat="43.64159" lon="1.39998">
        <ele>129</ele>
        <time>2025-03-23T09:47:53Z</time>
      </trkpt>
      <trkpt lat="43.64158" lon="1.40002">
        <ele>128</ele>
        <time>2025-03-23T09:47:54Z</time>
      </trkpt>
      <trkpt lat="43.64158" lon="1.40006">
        <ele>128</ele>
        <time>2025-03-23T09:47:55Z</time>
      </trkpt>
      <trkpt lat="43.64158" lon="1.4001">
        <ele>128</ele>
        <time>2025-03-23T09:47:56Z</time>
      </trkpt>
      <trkpt lat="43.64158" lon="1.40014">
        <ele>128</ele>
        <time>2025-03-23T09:47:57Z</time>
      </trkpt>
      <trkpt lat="43.64158" lon="1.40021">
        <ele>128</ele>
        <time>2025-03-23T09:47:58Z</time>
      </trkpt>
      <trkpt lat="43.64158" lon="1.40023">
        <ele>128</ele>
        <time>2025-03-23T09:47:59Z</time>
      </trkpt>
      <trkpt lat="43.64158" lon="1.40027">
        <ele>127</ele>
        <time>2025-03-23T09:48:00Z</time>
      </trkpt>
      <trkpt lat="43.64158" lon="1.40031">
        <ele>127</ele>
        <time>2025-03-23T09:48:01Z</time>
      </trkpt>
      <trkpt lat="43.64158" lon="1.40035">
        <ele>127</ele>
        <time>2025-03-23T09:48:02Z</time>
      </trkpt>
      <trkpt lat="43.64157" lon="1.40038">
        <ele>127</ele>
        <time>2025-03-23T09:48:03Z</time>
      </trkpt>
      <trkpt lat="43.64157" lon="1.40042">
        <ele>127</ele>
        <time>2025-03-23T09:48:04Z</time>
      </trkpt>
      <trkpt lat="43.64156" lon="1.40045">
        <ele>126</ele>
        <time>2025-03-23T09:48:05Z</time>
      </trkpt>
      <trkpt lat="43.64155" lon="1.40049">
        <ele>126</ele>
        <time>2025-03-23T09:48:06Z</time>
      </trkpt>
      <trkpt lat="43.64155" lon="1.40053">
        <ele>126</ele>
        <time>2025-03-23T09:48:07Z</time>
      </trkpt>
      <trkpt lat="43.64155" lon="1.40058">
        <ele>126</ele>
        <time>2025-03-23T09:48:08Z</time>
      </trkpt>
      <trkpt lat="43.64155" lon="1.4006">
        <ele>126</ele>
        <time>2025-03-23T09:48:09Z</time>
      </trkpt>
      <trkpt lat="43.64155" lon="1.40063">
        <ele>126</ele>
        <time>2025-03-23T09:48:10Z</time>
      </trkpt>
      <trkpt lat="43.64155" lon="1.40067">
        <ele>127</ele>
        <time>2025-03-23T09:48:11Z</time>
      </trkpt>
      <trkpt lat="43.64155" lon="1.40071">
        <ele>127</ele>
        <time>2025-03-23T09:48:12Z</time>
      </trkpt>
      <trkpt lat="43.64154" lon="1.40075">
        <ele>127</ele>
        <time>2025-03-23T09:48:13Z</time>
      </trkpt>
      <trkpt lat="43.64153" lon="1.40079">
        <ele>127</ele>
        <time>2025-03-23T09:48:14Z</time>
      </trkpt>
      <trkpt lat="43.64153" lon="1.40082">
        <ele>126</ele>
        <time>2025-03-23T09:48:15Z</time>
      </trkpt>
      <trkpt lat="43.64153" lon="1.40087">
        <ele>126</ele>
        <time>2025-03-23T09:48:16Z</time>
      </trkpt>
      <trkpt lat="43.64152" lon="1.40088">
        <ele>126</ele>
        <time>2025-03-23T09:48:17Z</time>
      </trkpt>
      <trkpt lat="43.64152" lon="1.40091">
        <ele>127</ele>
        <time>2025-03-23T09:48:18Z</time>
      </trkpt>
      <trkpt lat="43.64152" lon="1.40094">
        <ele>127</ele>
        <time>2025-03-23T09:48:19Z</time>
      </trkpt>
      <trkpt lat="43.64152" lon="1.40097">
        <ele>127</ele>
        <time>2025-03-23T09:48:20Z</time>
      </trkpt>
      <trkpt lat="43.64152" lon="1.40101">
        <ele>127</ele>
        <time>2025-03-23T09:48:21Z</time>
      </trkpt>
      <trkpt lat="43.64152" lon="1.40104">
        <ele>127</ele>
        <time>2025-03-23T09:48:22Z</time>
      </trkpt>
      <trkpt lat="43.64152" lon="1.40107">
        <ele>127</ele>
        <time>2025-03-23T09:48:23Z</time>
      </trkpt>
      <trkpt lat="43.64152" lon="1.40111">
        <ele>127</ele>
        <time>2025-03-23T09:48:24Z</time>
      </trkpt>
      <trkpt lat="43.64153" lon="1.40114">
        <ele>127</ele>
        <time>2025-03-23T09:48:25Z</time>
      </trkpt>
      <trkpt lat="43.64153" lon="1.40118">
        <ele>127</ele>
        <time>2025-03-23T09:48:26Z</time>
      </trkpt>
      <trkpt lat="43.64153" lon="1.40124">
        <ele>127</ele>
        <time>2025-03-23T09:48:27Z</time>
      </trkpt>
      <trkpt lat="43.64152" lon="1.40125">
        <ele>127</ele>
        <time>2025-03-23T09:48:28Z</time>
      </trkpt>
      <trkpt lat="43.64152" lon="1.40129">
        <ele>127</ele>
        <time>2025-03-23T09:48:29Z</time>
      </trkpt>
      <trkpt lat="43.64151" lon="1.40132">
        <ele>127</ele>
        <time>2025-03-23T09:48:30Z</time>
      </trkpt>
      <trkpt lat="43.6415" lon="1.40136">
        <ele>127</ele>
        <time>2025-03-23T09:48:31Z</time>
      </trkpt>
      <trkpt lat="43.64149" lon="1.40139">
        <ele>126</ele>
        <time>2025-03-23T09:48:32Z</time>
      </trkpt>
      <trkpt lat="43.64147" lon="1.40142">
        <ele>126</ele>
        <time>2025-03-23T09:48:33Z</time>
      </trkpt>
      <trkpt lat="43.64145" lon="1.40144">
        <ele>126</ele>
        <time>2025-03-23T09:48:34Z</time>
      </trkpt>
      <trkpt lat="43.64143" lon="1.40146">
        <ele>126</ele>
        <time>2025-03-23T09:48:35Z</time>
      </trkpt>
      <trkpt lat="43.64142" lon="1.4015">
        <ele>126</ele>
        <time>2025-03-23T09:48:36Z</time>
      </trkpt>
      <trkpt lat="43.64141" lon="1.40151">
        <ele>126</ele>
        <time>2025-03-23T09:48:37Z</time>
      </trkpt>
      <trkpt lat="43.6414" lon="1.40153">
        <ele>126</ele>
        <time>2025-03-23T09:48:38Z</time>
      </trkpt>
      <trkpt lat="43.64138" lon="1.40155">
        <ele>126</ele>
        <time>2025-03-23T09:48:39Z</time>
      </trkpt>
      <trkpt lat="43.64137" lon="1.40156">
        <ele>126</ele>
        <time>2025-03-23T09:48:40Z</time>
      </trkpt>
      <trkpt lat="43.64135" lon="1.40158">
        <ele>126</ele>
        <time>2025-03-23T09:48:41Z</time>
      </trkpt>
      <trkpt lat="43.64135" lon="1.40158">
        <ele>126</ele>
        <time>2025-03-23T09:48:42Z</time>
      </trkpt>
      <trkpt lat="43.64132" lon="1.40159">
        <ele>126</ele>
        <time>2025-03-23T09:48:43Z</time>
      </trkpt>
      <trkpt lat="43.64129" lon="1.40159">
        <ele>126</ele>
        <time>2025-03-23T09:48:44Z</time>
      </trkpt>
      <trkpt lat="43.64127" lon="1.40161">
        <ele>126</ele>
        <time>2025-03-23T09:48:45Z</time>
      </trkpt>
      <trkpt lat="43.64125" lon="1.40162">
        <ele>126</ele>
        <time>2025-03-23T09:48:47Z</time>
      </trkpt>
      <trkpt lat="43.64123" lon="1.40164">
        <ele>126</ele>
        <time>2025-03-23T09:48:48Z</time>
      </trkpt>
      <trkpt lat="43.64116" lon="1.40168">
        <ele>126</ele>
        <time>2025-03-23T09:48:49Z</time>
      </trkpt>
      <trkpt lat="43.64114" lon="1.40171">
        <ele>126</ele>
        <time>2025-03-23T09:48:50Z</time>
      </trkpt>
      <trkpt lat="43.64111" lon="1.40173">
        <ele>126</ele>
        <time>2025-03-23T09:48:51Z</time>
      </trkpt>
      <trkpt lat="43.64109" lon="1.40174">
        <ele>126</ele>
        <time>2025-03-23T09:48:52Z</time>
      </trkpt>
      <trkpt lat="43.64106" lon="1.40176">
        <ele>126</ele>
        <time>2025-03-23T09:48:53Z</time>
      </trkpt>
      <trkpt lat="43.64104" lon="1.40178">
        <ele>126</ele>
        <time>2025-03-23T09:48:54Z</time>
      </trkpt>
      <trkpt lat="43.64101" lon="1.4018">
        <ele>126</ele>
        <time>2025-03-23T09:48:55Z</time>
      </trkpt>
      <trkpt lat="43.64098" lon="1.40183">
        <ele>126</ele>
        <time>2025-03-23T09:48:56Z</time>
      </trkpt>
      <trkpt lat="43.64097" lon="1.40184">
        <ele>126</ele>
        <time>2025-03-23T09:48:57Z</time>
      </trkpt>
      <trkpt lat="43.64094" lon="1.40186">
        <ele>126</ele>
        <time>2025-03-23T09:48:58Z</time>
      </trkpt>
      <trkpt lat="43.64091" lon="1.40188">
        <ele>126</ele>
        <time>2025-03-23T09:48:59Z</time>
      </trkpt>
      <trkpt lat="43.64089" lon="1.40189">
        <ele>126</ele>
        <time>2025-03-23T09:49:00Z</time>
      </trkpt>
      <trkpt lat="43.64087" lon="1.4019">
        <ele>126</ele>
        <time>2025-03-23T09:49:01Z</time>
      </trkpt>
      <trkpt lat="43.64084" lon="1.40191">
        <ele>126</ele>
        <time>2025-03-23T09:49:02Z</time>
      </trkpt>
      <trkpt lat="43.64081" lon="1.40192">
        <ele>126</ele>
        <time>2025-03-23T09:49:03Z</time>
      </trkpt>
      <trkpt lat="43.64079" lon="1.40192">
        <ele>125</ele>
        <time>2025-03-23T09:49:04Z</time>
      </trkpt>
      <trkpt lat="43.64074" lon="1.40193">
        <ele>125</ele>
        <time>2025-03-23T09:49:05Z</time>
      </trkpt>
      <trkpt lat="43.64072" lon="1.40193">
        <ele>126</ele>
        <time>2025-03-23T09:49:06Z</time>
      </trkpt>
      <trkpt lat="43.6407" lon="1.40194">
        <ele>126</ele>
        <time>2025-03-23T09:49:07Z</time>
      </trkpt>
      <trkpt lat="43.64068" lon="1.40194">
        <ele>126</ele>
        <time>2025-03-23T09:49:08Z</time>
      </trkpt>
      <trkpt lat="43.64066" lon="1.40194">
        <ele>126</ele>
        <time>2025-03-23T09:49:09Z</time>
      </trkpt>
      <trkpt lat="43.6406" lon="1.40195">
        <ele>126</ele>
        <time>2025-03-23T09:49:10Z</time>
      </trkpt>
      <trkpt lat="43.64057" lon="1.40195">
        <ele>126</ele>
        <time>2025-03-23T09:49:11Z</time>
      </trkpt>
      <trkpt lat="43.64054" lon="1.40195">
        <ele>126</ele>
        <time>2025-03-23T09:49:12Z</time>
      </trkpt>
      <trkpt lat="43.64049" lon="1.40194">
        <ele>126</ele>
        <time>2025-03-23T09:49:13Z</time>
      </trkpt>
      <trkpt lat="43.64048" lon="1.40194">
        <ele>126</ele>
        <time>2025-03-23T09:49:14Z</time>
      </trkpt>
      <trkpt lat="43.64044" lon="1.40193">
        <ele>126</ele>
        <time>2025-03-23T09:49:15Z</time>
      </trkpt>
      <trkpt lat="43.64041" lon="1.40193">
        <ele>126</ele>
        <time>2025-03-23T09:49:16Z</time>
      </trkpt>
      <trkpt lat="43.64038" lon="1.40192">
        <ele>126</ele>
        <time>2025-03-23T09:49:17Z</time>
      </trkpt>
      <trkpt lat="43.64036" lon="1.40191">
        <ele>126</ele>
        <time>2025-03-23T09:49:18Z</time>
      </trkpt>
      <trkpt lat="43.64033" lon="1.40191">
        <ele>126</ele>
        <time>2025-03-23T09:49:19Z</time>
      </trkpt>
      <trkpt lat="43.64031" lon="1.40191">
        <ele>126</ele>
        <time>2025-03-23T09:49:20Z</time>
      </trkpt>
      <trkpt lat="43.64029" lon="1.4019">
        <ele>126</ele>
        <time>2025-03-23T09:49:21Z</time>
      </trkpt>
      <trkpt lat="43.64027" lon="1.40191">
        <ele>126</ele>
        <time>2025-03-23T09:49:22Z</time>
      </trkpt>
      <trkpt lat="43.64025" lon="1.40193">
        <ele>126</ele>
        <time>2025-03-23T09:49:23Z</time>
      </trkpt>
      <trkpt lat="43.64022" lon="1.40197">
        <ele>126</ele>
        <time>2025-03-23T09:49:24Z</time>
      </trkpt>
      <trkpt lat="43.64021" lon="1.40198">
        <ele>126</ele>
        <time>2025-03-23T09:49:25Z</time>
      </trkpt>
      <trkpt lat="43.6402" lon="1.40201">
        <ele>126</ele>
        <time>2025-03-23T09:49:26Z</time>
      </trkpt>
      <trkpt lat="43.64019" lon="1.40203">
        <ele>126</ele>
        <time>2025-03-23T09:49:27Z</time>
      </trkpt>
      <trkpt lat="43.64017" lon="1.40206">
        <ele>126</ele>
        <time>2025-03-23T09:49:28Z</time>
      </trkpt>
      <trkpt lat="43.64015" lon="1.40208">
        <ele>126</ele>
        <time>2025-03-23T09:49:29Z</time>
      </trkpt>
      <trkpt lat="43.64014" lon="1.4021">
        <ele>126</ele>
        <time>2025-03-23T09:49:30Z</time>
      </trkpt>
      <trkpt lat="43.64012" lon="1.40211">
        <ele>126</ele>
        <time>2025-03-23T09:49:31Z</time>
      </trkpt>
      <trkpt lat="43.6401" lon="1.40212">
        <ele>125</ele>
        <time>2025-03-23T09:49:32Z</time>
      </trkpt>
      <trkpt lat="43.64008" lon="1.40213">
        <ele>125</ele>
        <time>2025-03-23T09:49:33Z</time>
      </trkpt>
      <trkpt lat="43.64007" lon="1.40214">
        <ele>126</ele>
        <time>2025-03-23T09:49:34Z</time>
      </trkpt>
      <trkpt lat="43.64007" lon="1.40214">
        <ele>126</ele>
        <time>2025-03-23T09:49:35Z</time>
      </trkpt>
      <trkpt lat="43.64004" lon="1.40216">
        <ele>126</ele>
        <time>2025-03-23T09:49:36Z</time>
      </trkpt>
      <trkpt lat="43.64004" lon="1.40216">
        <ele>126</ele>
        <time>2025-03-23T09:49:37Z</time>
      </trkpt>
      <trkpt lat="43.64003" lon="1.40218">
        <ele>126</ele>
        <time>2025-03-23T09:49:38Z</time>
      </trkpt>
      <trkpt lat="43.64003" lon="1.40218">
        <ele>125</ele>
        <time>2025-03-23T09:49:39Z</time>
      </trkpt>
      <trkpt lat="43.64" lon="1.4022">
        <ele>125</ele>
        <time>2025-03-23T09:49:40Z</time>
      </trkpt>
      <trkpt lat="43.64" lon="1.4022">
        <ele>125</ele>
        <time>2025-03-23T09:49:41Z</time>
      </trkpt>
      <trkpt lat="43.63997" lon="1.40222">
        <ele>125</ele>
        <time>2025-03-23T09:49:42Z</time>
      </trkpt>
      <trkpt lat="43.63995" lon="1.40223">
        <ele>125</ele>
        <time>2025-03-23T09:49:44Z</time>
      </trkpt>
      <trkpt lat="43.63995" lon="1.40223">
        <ele>125</ele>
        <time>2025-03-23T09:49:45Z</time>
      </trkpt>
      <trkpt lat="43.63992" lon="1.40225">
        <ele>125</ele>
        <time>2025-03-23T09:49:46Z</time>
      </trkpt>
      <trkpt lat="43.63992" lon="1.40225">
        <ele>125</ele>
        <time>2025-03-23T09:49:47Z</time>
      </trkpt>
      <trkpt lat="43.6399" lon="1.40228">
        <ele>126</ele>
        <time>2025-03-23T09:49:48Z</time>
      </trkpt>
      <trkpt lat="43.6399" lon="1.40228">
        <ele>126</ele>
        <time>2025-03-23T09:49:49Z</time>
      </trkpt>
      <trkpt lat="43.63988" lon="1.40229">
        <ele>126</ele>
        <time>2025-03-23T09:49:50Z</time>
      </trkpt>
      <trkpt lat="43.63988" lon="1.40229">
        <ele>126</ele>
        <time>2025-03-23T09:49:51Z</time>
      </trkpt>
      <trkpt lat="43.63985" lon="1.4023">
        <ele>126</ele>
        <time>2025-03-23T09:49:52Z</time>
      </trkpt>
      <trkpt lat="43.63985" lon="1.4023">
        <ele>126</ele>
        <time>2025-03-23T09:49:53Z</time>
      </trkpt>
      <trkpt lat="43.63983" lon="1.40232">
        <ele>126</ele>
        <time>2025-03-23T09:49:54Z</time>
      </trkpt>
      <trkpt lat="43.63983" lon="1.40232">
        <ele>126</ele>
        <time>2025-03-23T09:49:55Z</time>
      </trkpt>
      <trkpt lat="43.6398" lon="1.40234">
        <ele>126</ele>
        <time>2025-03-23T09:49:56Z</time>
      </trkpt>
      <trkpt lat="43.63979" lon="1.40234">
        <ele>126</ele>
        <time>2025-03-23T09:49:57Z</time>
      </trkpt>
      <trkpt lat="43.63979" lon="1.40234">
        <ele>126</ele>
        <time>2025-03-23T09:49:58Z</time>
      </trkpt>
      <trkpt lat="43.63975" lon="1.40235">
        <ele>126</ele>
        <time>2025-03-23T09:49:59Z</time>
      </trkpt>
      <trkpt lat="43.63975" lon="1.40235">
        <ele>126</ele>
        <time>2025-03-23T09:50:00Z</time>
      </trkpt>
      <trkpt lat="43.63973" lon="1.40236">
        <ele>126</ele>
        <time>2025-03-23T09:50:01Z</time>
      </trkpt>
      <trkpt lat="43.63971" lon="1.40238">
        <ele>126</ele>
        <time>2025-03-23T09:50:03Z</time>
      </trkpt>
      <trkpt lat="43.63971" lon="1.40238">
        <ele>126</ele>
        <time>2025-03-23T09:50:04Z</time>
      </trkpt>
      <trkpt lat="43.63967" lon="1.40238">
        <ele>126</ele>
        <time>2025-03-23T09:50:05Z</time>
      </trkpt>
      <trkpt lat="43.63967" lon="1.40238">
        <ele>126</ele>
        <time>2025-03-23T09:50:06Z</time>
      </trkpt>
      <trkpt lat="43.63965" lon="1.40239">
        <ele>126</ele>
        <time>2025-03-23T09:50:07Z</time>
      </trkpt>
      <trkpt lat="43.63965" lon="1.40239">
        <ele>126</ele>
        <time>2025-03-23T09:50:08Z</time>
      </trkpt>
      <trkpt lat="43.63962" lon="1.4024">
        <ele>126</ele>
        <time>2025-03-23T09:50:09Z</time>
      </trkpt>
      <trkpt lat="43.63962" lon="1.4024">
        <ele>126</ele>
        <time>2025-03-23T09:50:10Z</time>
      </trkpt>
      <trkpt lat="43.6396" lon="1.4024">
        <ele>126</ele>
        <time>2025-03-23T09:50:11Z</time>
      </trkpt>
      <trkpt lat="43.6396" lon="1.4024">
        <ele>126</ele>
        <time>2025-03-23T09:50:12Z</time>
      </trkpt>
      <trkpt lat="43.63958" lon="1.4024">
        <ele>126</ele>
        <time>2025-03-23T09:50:13Z</time>
      </trkpt>
      <trkpt lat="43.63958" lon="1.4024">
        <ele>126</ele>
        <time>2025-03-23T09:50:14Z</time>
      </trkpt>
      <trkpt lat="43.63955" lon="1.40242">
        <ele>126</ele>
        <time>2025-03-23T09:50:15Z</time>
      </trkpt>
      <trkpt lat="43.63955" lon="1.40242">
        <ele>126</ele>
        <time>2025-03-23T09:50:16Z</time>
      </trkpt>
      <trkpt lat="43.63952" lon="1.40242">
        <ele>126</ele>
        <time>2025-03-23T09:50:17Z</time>
      </trkpt>
      <trkpt lat="43.63952" lon="1.40242">
        <ele>126</ele>
        <time>2025-03-23T09:50:18Z</time>
      </trkpt>
      <trkpt lat="43.6395" lon="1.40242">
        <ele>125</ele>
        <time>2025-03-23T09:50:19Z</time>
      </trkpt>
      <trkpt lat="43.6395" lon="1.40242">
        <ele>125</ele>
        <time>2025-03-23T09:50:20Z</time>
      </trkpt>
      <trkpt lat="43.6395" lon="1.40242">
        <ele>126</ele>
        <time>2025-03-23T09:50:22Z</time>
      </trkpt>
      <trkpt lat="43.6395" lon="1.40242">
        <ele>126</ele>
        <time>2025-03-23T09:50:23Z</time>
      </trkpt>
      <trkpt lat="43.63948" lon="1.40244">
        <ele>126</ele>
        <time>2025-03-23T09:50:24Z</time>
      </trkpt>
      <trkpt lat="43.63948" lon="1.40244">
        <ele>126</ele>
        <time>2025-03-23T09:50:25Z</time>
      </trkpt>
      <trkpt lat="43.63945" lon="1.40246">
        <ele>126</ele>
        <time>2025-03-23T09:50:26Z</time>
      </trkpt>
      <trkpt lat="43.63945" lon="1.40246">
        <ele>126</ele>
        <time>2025-03-23T09:50:27Z</time>
      </trkpt>
      <trkpt lat="43.63941" lon="1.40247">
        <ele>126</ele>
        <time>2025-03-23T09:50:28Z</time>
      </trkpt>
      <trkpt lat="43.6394" lon="1.40248">
        <ele>125</ele>
        <time>2025-03-23T09:50:29Z</time>
      </trkpt>
      <trkpt lat="43.6394" lon="1.40248">
        <ele>125</ele>
        <time>2025-03-23T09:50:30Z</time>
      </trkpt>
      <trkpt lat="43.63937" lon="1.40248">
        <ele>125</ele>
        <time>2025-03-23T09:50:31Z</time>
      </trkpt>
      <trkpt lat="43.63937" lon="1.40248">
        <ele>125</ele>
        <time>2025-03-23T09:50:32Z</time>
      </trkpt>
      <trkpt lat="43.63934" lon="1.40249">
        <ele>125</ele>
        <time>2025-03-23T09:50:33Z</time>
      </trkpt>
      <trkpt lat="43.63934" lon="1.40249">
        <ele>125</ele>
        <time>2025-03-23T09:50:34Z</time>
      </trkpt>
      <trkpt lat="43.6393" lon="1.40249">
        <ele>125</ele>
        <time>2025-03-23T09:50:35Z</time>
      </trkpt>
      <trkpt lat="43.6393" lon="1.40249">
        <ele>125</ele>
        <time>2025-03-23T09:50:36Z</time>
      </trkpt>
      <trkpt lat="43.63928" lon="1.40249">
        <ele>125</ele>
        <time>2025-03-23T09:50:37Z</time>
      </trkpt>
      <trkpt lat="43.63928" lon="1.40249">
        <ele>125</ele>
        <time>2025-03-23T09:50:38Z</time>
      </trkpt>
      <trkpt lat="43.63925" lon="1.4025">
        <ele>125</ele>
        <time>2025-03-23T09:50:39Z</time>
      </trkpt>
      <trkpt lat="43.63925" lon="1.4025">
        <ele>126</ele>
        <time>2025-03-23T09:50:41Z</time>
      </trkpt>
      <trkpt lat="43.63924" lon="1.40252">
        <ele>126</ele>
        <time>2025-03-23T09:50:42Z</time>
      </trkpt>
      <trkpt lat="43.63924" lon="1.40252">
        <ele>126</ele>
        <time>2025-03-23T09:50:43Z</time>
      </trkpt>
      <trkpt lat="43.63922" lon="1.40254">
        <ele>126</ele>
        <time>2025-03-23T09:50:44Z</time>
      </trkpt>
      <trkpt lat="43.63922" lon="1.40254">
        <ele>126</ele>
        <time>2025-03-23T09:50:45Z</time>
      </trkpt>
      <trkpt lat="43.63922" lon="1.40254">
        <ele>126</ele>
        <time>2025-03-23T09:50:46Z</time>
      </trkpt>
      <trkpt lat="43.6392" lon="1.40256">
        <ele>126</ele>
        <time>2025-03-23T09:50:47Z</time>
      </trkpt>
      <trkpt lat="43.6392" lon="1.40256">
        <ele>126</ele>
        <time>2025-03-23T09:50:48Z</time>
      </trkpt>
      <trkpt lat="43.63919" lon="1.40259">
        <ele>126</ele>
        <time>2025-03-23T09:50:49Z</time>
      </trkpt>
      <trkpt lat="43.63919" lon="1.40259">
        <ele>126</ele>
        <time>2025-03-23T09:50:50Z</time>
      </trkpt>
      <trkpt lat="43.63918" lon="1.40261">
        <ele>126</ele>
        <time>2025-03-23T09:50:51Z</time>
      </trkpt>
      <trkpt lat="43.63918" lon="1.40261">
        <ele>125</ele>
        <time>2025-03-23T09:50:52Z</time>
      </trkpt>
      <trkpt lat="43.63915" lon="1.40262">
        <ele>125</ele>
        <time>2025-03-23T09:50:53Z</time>
      </trkpt>
      <trkpt lat="43.63915" lon="1.40262">
        <ele>125</ele>
        <time>2025-03-23T09:50:54Z</time>
      </trkpt>
      <trkpt lat="43.63912" lon="1.40264">
        <ele>125</ele>
        <time>2025-03-23T09:50:55Z</time>
      </trkpt>
      <trkpt lat="43.63912" lon="1.40264">
        <ele>125</ele>
        <time>2025-03-23T09:50:56Z</time>
      </trkpt>
      <trkpt lat="43.63909" lon="1.40265">
        <ele>125</ele>
        <time>2025-03-23T09:50:57Z</time>
      </trkpt>
      <trkpt lat="43.63907" lon="1.40264">
        <ele>125</ele>
        <time>2025-03-23T09:50:58Z</time>
      </trkpt>
      <trkpt lat="43.63904" lon="1.40265">
        <ele>125</ele>
        <time>2025-03-23T09:51:00Z</time>
      </trkpt>
      <trkpt lat="43.63902" lon="1.40265">
        <ele>125</ele>
        <time>2025-03-23T09:51:01Z</time>
      </trkpt>
      <trkpt lat="43.639" lon="1.40265">
        <ele>125</ele>
        <time>2025-03-23T09:51:02Z</time>
      </trkpt>
      <trkpt lat="43.63898" lon="1.40265">
        <ele>125</ele>
        <time>2025-03-23T09:51:03Z</time>
      </trkpt>
      <trkpt lat="43.63898" lon="1.40265">
        <ele>125</ele>
        <time>2025-03-23T09:51:04Z</time>
      </trkpt>
      <trkpt lat="43.63895" lon="1.40265">
        <ele>125</ele>
        <time>2025-03-23T09:51:05Z</time>
      </trkpt>
      <trkpt lat="43.63895" lon="1.40265">
        <ele>125</ele>
        <time>2025-03-23T09:51:06Z</time>
      </trkpt>
      <trkpt lat="43.63892" lon="1.40265">
        <ele>125</ele>
        <time>2025-03-23T09:51:07Z</time>
      </trkpt>
      <trkpt lat="43.63892" lon="1.40265">
        <ele>125</ele>
        <time>2025-03-23T09:51:08Z</time>
      </trkpt>
      <trkpt lat="43.6389" lon="1.40266">
        <ele>125</ele>
        <time>2025-03-23T09:51:09Z</time>
      </trkpt>
      <trkpt lat="43.6389" lon="1.40266">
        <ele>125</ele>
        <time>2025-03-23T09:51:10Z</time>
      </trkpt>
      <trkpt lat="43.63888" lon="1.40266">
        <ele>125</ele>
        <time>2025-03-23T09:51:11Z</time>
      </trkpt>
      <trkpt lat="43.63888" lon="1.40266">
        <ele>125</ele>
        <time>2025-03-23T09:51:12Z</time>
      </trkpt>
      <trkpt lat="43.63885" lon="1.40266">
        <ele>125</ele>
        <time>2025-03-23T09:51:13Z</time>
      </trkpt>
      <trkpt lat="43.63885" lon="1.40266">
        <ele>125</ele>
        <time>2025-03-23T09:51:14Z</time>
      </trkpt>
      <trkpt lat="43.63883" lon="1.40267">
        <ele>125</ele>
        <time>2025-03-23T09:51:15Z</time>
      </trkpt>
      <trkpt lat="43.63881" lon="1.40267">
        <ele>125</ele>
        <time>2025-03-23T09:51:16Z</time>
      </trkpt>
      <trkpt lat="43.63879" lon="1.40267">
        <ele>125</ele>
        <time>2025-03-23T09:51:17Z</time>
      </trkpt>
      <trkpt lat="43.63877" lon="1.40268">
        <ele>125</ele>
        <time>2025-03-23T09:51:18Z</time>
      </trkpt>
      <trkpt lat="43.63875" lon="1.40268">
        <ele>126</ele>
        <time>2025-03-23T09:51:19Z</time>
      </trkpt>
      <trkpt lat="43.63875" lon="1.40268">
        <ele>126</ele>
        <time>2025-03-23T09:51:20Z</time>
      </trkpt>
      <trkpt lat="43.63872" lon="1.40268">
        <ele>126</ele>
        <time>2025-03-23T09:51:21Z</time>
      </trkpt>
      <trkpt lat="43.6387" lon="1.40269">
        <ele>126</ele>
        <time>2025-03-23T09:51:22Z</time>
      </trkpt>
      <trkpt lat="43.63868" lon="1.40269">
        <ele>126</ele>
        <time>2025-03-23T09:51:23Z</time>
      </trkpt>
      <trkpt lat="43.63868" lon="1.40269">
        <ele>125</ele>
        <time>2025-03-23T09:51:24Z</time>
      </trkpt>
      <trkpt lat="43.63865" lon="1.4027">
        <ele>125</ele>
        <time>2025-03-23T09:51:25Z</time>
      </trkpt>
      <trkpt lat="43.63865" lon="1.4027">
        <ele>125</ele>
        <time>2025-03-23T09:51:26Z</time>
      </trkpt>
      <trkpt lat="43.63862" lon="1.40271">
        <ele>125</ele>
        <time>2025-03-23T09:51:27Z</time>
      </trkpt>
      <trkpt lat="43.63862" lon="1.40271">
        <ele>125</ele>
        <time>2025-03-23T09:51:28Z</time>
      </trkpt>
      <trkpt lat="43.63859" lon="1.40272">
        <ele>125</ele>
        <time>2025-03-23T09:51:29Z</time>
      </trkpt>
      <trkpt lat="43.63859" lon="1.40272">
        <ele>125</ele>
        <time>2025-03-23T09:51:30Z</time>
      </trkpt>
      <trkpt lat="43.63857" lon="1.40273">
        <ele>125</ele>
        <time>2025-03-23T09:51:31Z</time>
      </trkpt>
      <trkpt lat="43.63857" lon="1.40273">
        <ele>125</ele>
        <time>2025-03-23T09:51:32Z</time>
      </trkpt>
      <trkpt lat="43.63854" lon="1.40274">
        <ele>125</ele>
        <time>2025-03-23T09:51:33Z</time>
      </trkpt>
      <trkpt lat="43.63854" lon="1.40274">
        <ele>125</ele>
        <time>2025-03-23T09:51:34Z</time>
      </trkpt>
      <trkpt lat="43.6385" lon="1.40276">
        <ele>125</ele>
        <time>2025-03-23T09:51:35Z</time>
      </trkpt>
      <trkpt lat="43.63847" lon="1.40277">
        <ele>125</ele>
        <time>2025-03-23T09:51:36Z</time>
      </trkpt>
      <trkpt lat="43.63843" lon="1.40279">
        <ele>125</ele>
        <time>2025-03-23T09:51:37Z</time>
      </trkpt>
      <trkpt lat="43.63842" lon="1.40279">
        <ele>125</ele>
        <time>2025-03-23T09:51:38Z</time>
      </trkpt>
      <trkpt lat="43.63839" lon="1.4028">
        <ele>125</ele>
        <time>2025-03-23T09:51:39Z</time>
      </trkpt>
      <trkpt lat="43.63837" lon="1.40281">
        <ele>125</ele>
        <time>2025-03-23T09:51:40Z</time>
      </trkpt>
      <trkpt lat="43.63834" lon="1.40281">
        <ele>125</ele>
        <time>2025-03-23T09:51:41Z</time>
      </trkpt>
      <trkpt lat="43.63832" lon="1.40281">
        <ele>125</ele>
        <time>2025-03-23T09:51:42Z</time>
      </trkpt>
      <trkpt lat="43.6383" lon="1.40282">
        <ele>125</ele>
        <time>2025-03-23T09:51:43Z</time>
      </trkpt>
      <trkpt lat="43.63828" lon="1.40282">
        <ele>125</ele>
        <time>2025-03-23T09:51:44Z</time>
      </trkpt>
      <trkpt lat="43.63826" lon="1.40283">
        <ele>126</ele>
        <time>2025-03-23T09:51:45Z</time>
      </trkpt>
      <trkpt lat="43.63823" lon="1.40283">
        <ele>126</ele>
        <time>2025-03-23T09:51:46Z</time>
      </trkpt>
      <trkpt lat="43.63821" lon="1.40283">
        <ele>126</ele>
        <time>2025-03-23T09:51:47Z</time>
      </trkpt>
      <trkpt lat="43.63818" lon="1.40283">
        <ele>126</ele>
        <time>2025-03-23T09:51:48Z</time>
      </trkpt>
      <trkpt lat="43.63816" lon="1.40284">
        <ele>126</ele>
        <time>2025-03-23T09:51:49Z</time>
      </trkpt>
      <trkpt lat="43.63814" lon="1.40284">
        <ele>126</ele>
        <time>2025-03-23T09:51:50Z</time>
      </trkpt>
      <trkpt lat="43.63811" lon="1.40283">
        <ele>126</ele>
        <time>2025-03-23T09:51:51Z</time>
      </trkpt>
      <trkpt lat="43.63808" lon="1.40284">
        <ele>126</ele>
        <time>2025-03-23T09:51:52Z</time>
      </trkpt>
      <trkpt lat="43.63805" lon="1.40284">
        <ele>126</ele>
        <time>2025-03-23T09:51:53Z</time>
      </trkpt>
      <trkpt lat="43.63803" lon="1.40284">
        <ele>126</ele>
        <time>2025-03-23T09:51:54Z</time>
      </trkpt>
      <trkpt lat="43.63801" lon="1.40284">
        <ele>126</ele>
        <time>2025-03-23T09:51:55Z</time>
      </trkpt>
      <trkpt lat="43.63798" lon="1.40285">
        <ele>126</ele>
        <time>2025-03-23T09:51:56Z</time>
      </trkpt>
      <trkpt lat="43.63796" lon="1.40285">
        <ele>125</ele>
        <time>2025-03-23T09:51:57Z</time>
      </trkpt>
      <trkpt lat="43.63794" lon="1.40286">
        <ele>125</ele>
        <time>2025-03-23T09:51:58Z</time>
      </trkpt>
      <trkpt lat="43.63792" lon="1.40286">
        <ele>125</ele>
        <time>2025-03-23T09:51:59Z</time>
      </trkpt>
      <trkpt lat="43.63789" lon="1.40286">
        <ele>125</ele>
        <time>2025-03-23T09:52:00Z</time>
      </trkpt>
      <trkpt lat="43.63787" lon="1.40287">
        <ele>125</ele>
        <time>2025-03-23T09:52:01Z</time>
      </trkpt>
      <trkpt lat="43.63785" lon="1.40286">
        <ele>125</ele>
        <time>2025-03-23T09:52:02Z</time>
      </trkpt>
      <trkpt lat="43.63783" lon="1.40286">
        <ele>125</ele>
        <time>2025-03-23T09:52:03Z</time>
      </trkpt>
      <trkpt lat="43.6378" lon="1.40286">
        <ele>125</ele>
        <time>2025-03-23T09:52:04Z</time>
      </trkpt>
      <trkpt lat="43.63778" lon="1.40287">
        <ele>126</ele>
        <time>2025-03-23T09:52:05Z</time>
      </trkpt>
      <trkpt lat="43.63776" lon="1.40288">
        <ele>126</ele>
        <time>2025-03-23T09:52:06Z</time>
      </trkpt>
      <trkpt lat="43.63772" lon="1.40289">
        <ele>126</ele>
        <time>2025-03-23T09:52:07Z</time>
      </trkpt>
      <trkpt lat="43.63767" lon="1.40289">
        <ele>126</ele>
        <time>2025-03-23T09:52:08Z</time>
      </trkpt>
      <trkpt lat="43.63766" lon="1.40289">
        <ele>126</ele>
        <time>2025-03-23T09:52:09Z</time>
      </trkpt>
      <trkpt lat="43.63763" lon="1.40289">
        <ele>126</ele>
        <time>2025-03-23T09:52:10Z</time>
      </trkpt>
      <trkpt lat="43.6376" lon="1.40289">
        <ele>126</ele>
        <time>2025-03-23T09:52:11Z</time>
      </trkpt>
      <trkpt lat="43.63758" lon="1.40289">
        <ele>126</ele>
        <time>2025-03-23T09:52:12Z</time>
      </trkpt>
      <trkpt lat="43.63755" lon="1.4029">
        <ele>126</ele>
        <time>2025-03-23T09:52:13Z</time>
      </trkpt>
      <trkpt lat="43.63753" lon="1.4029">
        <ele>126</ele>
        <time>2025-03-23T09:52:14Z</time>
      </trkpt>
      <trkpt lat="43.63749" lon="1.40291">
        <ele>126</ele>
        <time>2025-03-23T09:52:15Z</time>
      </trkpt>
      <trkpt lat="43.63748" lon="1.40291">
        <ele>126</ele>
        <time>2025-03-23T09:52:16Z</time>
      </trkpt>
      <trkpt lat="43.63746" lon="1.40292">
        <ele>126</ele>
        <time>2025-03-23T09:52:17Z</time>
      </trkpt>
      <trkpt lat="43.63743" lon="1.40293">
        <ele>126</ele>
        <time>2025-03-23T09:52:18Z</time>
      </trkpt>
      <trkpt lat="43.6374" lon="1.40293">
        <ele>126</ele>
        <time>2025-03-23T09:52:19Z</time>
      </trkpt>
      <trkpt lat="43.63738" lon="1.40293">
        <ele>126</ele>
        <time>2025-03-23T09:52:20Z</time>
      </trkpt>
      <trkpt lat="43.63736" lon="1.40292">
        <ele>126</ele>
        <time>2025-03-23T09:52:21Z</time>
      </trkpt>
      <trkpt lat="43.63734" lon="1.40292">
        <ele>126</ele>
        <time>2025-03-23T09:52:22Z</time>
      </trkpt>
      <trkpt lat="43.63732" lon="1.40292">
        <ele>126</ele>
        <time>2025-03-23T09:52:23Z</time>
      </trkpt>
      <trkpt lat="43.63729" lon="1.40293">
        <ele>126</ele>
        <time>2025-03-23T09:52:24Z</time>
      </trkpt>
      <trkpt lat="43.63726" lon="1.40294">
        <ele>126</ele>
        <time>2025-03-23T09:52:25Z</time>
      </trkpt>
      <trkpt lat="43.63724" lon="1.40294">
        <ele>126</ele>
        <time>2025-03-23T09:52:26Z</time>
      </trkpt>
      <trkpt lat="43.63721" lon="1.40295">
        <ele>126</ele>
        <time>2025-03-23T09:52:27Z</time>
      </trkpt>
      <trkpt lat="43.63718" lon="1.40297">
        <ele>126</ele>
        <time>2025-03-23T09:52:28Z</time>
      </trkpt>
      <trkpt lat="43.63716" lon="1.40297">
        <ele>127</ele>
        <time>2025-03-23T09:52:29Z</time>
      </trkpt>
      <trkpt lat="43.63713" lon="1.40298">
        <ele>126</ele>
        <time>2025-03-23T09:52:30Z</time>
      </trkpt>
      <trkpt lat="43.63711" lon="1.403">
        <ele>126</ele>
        <time>2025-03-23T09:52:31Z</time>
      </trkpt>
      <trkpt lat="43.63709" lon="1.40301">
        <ele>126</ele>
        <time>2025-03-23T09:52:32Z</time>
      </trkpt>
      <trkpt lat="43.63707" lon="1.40302">
        <ele>126</ele>
        <time>2025-03-23T09:52:33Z</time>
      </trkpt>
      <trkpt lat="43.63703" lon="1.40303">
        <ele>126</ele>
        <time>2025-03-23T09:52:34Z</time>
      </trkpt>
      <trkpt lat="43.63702" lon="1.40303">
        <ele>126</ele>
        <time>2025-03-23T09:52:35Z</time>
      </trkpt>
      <trkpt lat="43.63699" lon="1.40303">
        <ele>126</ele>
        <time>2025-03-23T09:52:36Z</time>
      </trkpt>
      <trkpt lat="43.63697" lon="1.40302">
        <ele>126</ele>
        <time>2025-03-23T09:52:37Z</time>
      </trkpt>
      <trkpt lat="43.63695" lon="1.40301">
        <ele>126</ele>
        <time>2025-03-23T09:52:38Z</time>
      </trkpt>
      <trkpt lat="43.63693" lon="1.403">
        <ele>126</ele>
        <time>2025-03-23T09:52:39Z</time>
      </trkpt>
      <trkpt lat="43.6369" lon="1.40299">
        <ele>126</ele>
        <time>2025-03-23T09:52:40Z</time>
      </trkpt>
      <trkpt lat="43.63688" lon="1.40298">
        <ele>126</ele>
        <time>2025-03-23T09:52:41Z</time>
      </trkpt>
      <trkpt lat="43.63685" lon="1.40297">
        <ele>127</ele>
        <time>2025-03-23T09:52:42Z</time>
      </trkpt>
      <trkpt lat="43.63683" lon="1.40296">
        <ele>127</ele>
        <time>2025-03-23T09:52:43Z</time>
      </trkpt>
      <trkpt lat="43.63679" lon="1.40294">
        <ele>127</ele>
        <time>2025-03-23T09:52:44Z</time>
      </trkpt>
      <trkpt lat="43.63677" lon="1.40294">
        <ele>128</ele>
        <time>2025-03-23T09:52:45Z</time>
      </trkpt>
      <trkpt lat="43.63674" lon="1.40294">
        <ele>128</ele>
        <time>2025-03-23T09:52:46Z</time>
      </trkpt>
      <trkpt lat="43.6367" lon="1.40293">
        <ele>128</ele>
        <time>2025-03-23T09:52:47Z</time>
      </trkpt>
      <trkpt lat="43.63668" lon="1.40293">
        <ele>129</ele>
        <time>2025-03-23T09:52:48Z</time>
      </trkpt>
      <trkpt lat="43.63666" lon="1.40293">
        <ele>129</ele>
        <time>2025-03-23T09:52:49Z</time>
      </trkpt>
      <trkpt lat="43.63663" lon="1.40293">
        <ele>130</ele>
        <time>2025-03-23T09:52:50Z</time>
      </trkpt>
      <trkpt lat="43.6366" lon="1.40292">
        <ele>130</ele>
        <time>2025-03-23T09:52:51Z</time>
      </trkpt>
      <trkpt lat="43.63657" lon="1.40292">
        <ele>130</ele>
        <time>2025-03-23T09:52:52Z</time>
      </trkpt>
      <trkpt lat="43.63654" lon="1.40292">
        <ele>130</ele>
        <time>2025-03-23T09:52:53Z</time>
      </trkpt>
      <trkpt lat="43.63653" lon="1.40292">
        <ele>131</ele>
        <time>2025-03-23T09:52:54Z</time>
      </trkpt>
      <trkpt lat="43.6365" lon="1.40291">
        <ele>131</ele>
        <time>2025-03-23T09:52:55Z</time>
      </trkpt>
      <trkpt lat="43.63648" lon="1.40291">
        <ele>131</ele>
        <time>2025-03-23T09:52:56Z</time>
      </trkpt>
      <trkpt lat="43.63645" lon="1.40291">
        <ele>131</ele>
        <time>2025-03-23T09:52:57Z</time>
      </trkpt>
      <trkpt lat="43.63642" lon="1.40291">
        <ele>131</ele>
        <time>2025-03-23T09:52:58Z</time>
      </trkpt>
      <trkpt lat="43.6364" lon="1.40292">
        <ele>131</ele>
        <time>2025-03-23T09:52:59Z</time>
      </trkpt>
      <trkpt lat="43.63637" lon="1.40292">
        <ele>131</ele>
        <time>2025-03-23T09:53:00Z</time>
      </trkpt>
      <trkpt lat="43.63635" lon="1.40292">
        <ele>131</ele>
        <time>2025-03-23T09:53:01Z</time>
      </trkpt>
      <trkpt lat="43.63633" lon="1.40292">
        <ele>131</ele>
        <time>2025-03-23T09:53:02Z</time>
      </trkpt>
      <trkpt lat="43.63631" lon="1.40291">
        <ele>131</ele>
        <time>2025-03-23T09:53:03Z</time>
      </trkpt>
      <trkpt lat="43.63629" lon="1.40291">
        <ele>131</ele>
        <time>2025-03-23T09:53:04Z</time>
      </trkpt>
      <trkpt lat="43.63626" lon="1.40291">
        <ele>131</ele>
        <time>2025-03-23T09:53:05Z</time>
      </trkpt>
      <trkpt lat="43.63623" lon="1.40291">
        <ele>131</ele>
        <time>2025-03-23T09:53:06Z</time>
      </trkpt>
      <trkpt lat="43.6362" lon="1.4029">
        <ele>131</ele>
        <time>2025-03-23T09:53:07Z</time>
      </trkpt>
      <trkpt lat="43.63618" lon="1.4029">
        <ele>131</ele>
        <time>2025-03-23T09:53:08Z</time>
      </trkpt>
      <trkpt lat="43.63617" lon="1.40289">
        <ele>131</ele>
        <time>2025-03-23T09:53:09Z</time>
      </trkpt>
      <trkpt lat="43.63615" lon="1.40289">
        <ele>131</ele>
        <time>2025-03-23T09:53:10Z</time>
      </trkpt>
      <trkpt lat="43.63612" lon="1.40289">
        <ele>131</ele>
        <time>2025-03-23T09:53:11Z</time>
      </trkpt>
      <trkpt lat="43.63608" lon="1.40288">
        <ele>131</ele>
        <time>2025-03-23T09:53:12Z</time>
      </trkpt>
      <trkpt lat="43.63607" lon="1.40288">
        <ele>131</ele>
        <time>2025-03-23T09:53:13Z</time>
      </trkpt>
      <trkpt lat="43.63604" lon="1.40288">
        <ele>131</ele>
        <time>2025-03-23T09:53:14Z</time>
      </trkpt>
      <trkpt lat="43.63602" lon="1.40288">
        <ele>131</ele>
        <time>2025-03-23T09:53:15Z</time>
      </trkpt>
      <trkpt lat="43.636" lon="1.40288">
        <ele>131</ele>
        <time>2025-03-23T09:53:16Z</time>
      </trkpt>
      <trkpt lat="43.63598" lon="1.40288">
        <ele>131</ele>
        <time>2025-03-23T09:53:17Z</time>
      </trkpt>
      <trkpt lat="43.63595" lon="1.40288">
        <ele>131</ele>
        <time>2025-03-23T09:53:18Z</time>
      </trkpt>
      <trkpt lat="43.63593" lon="1.40288">
        <ele>131</ele>
        <time>2025-03-23T09:53:19Z</time>
      </trkpt>
      <trkpt lat="43.63591" lon="1.40288">
        <ele>131</ele>
        <time>2025-03-23T09:53:20Z</time>
      </trkpt>
      <trkpt lat="43.63589" lon="1.40287">
        <ele>130</ele>
        <time>2025-03-23T09:53:21Z</time>
      </trkpt>
      <trkpt lat="43.63587" lon="1.40287">
        <ele>130</ele>
        <time>2025-03-23T09:53:22Z</time>
      </trkpt>
      <trkpt lat="43.63583" lon="1.40286">
        <ele>130</ele>
        <time>2025-03-23T09:53:23Z</time>
      </trkpt>
      <trkpt lat="43.63582" lon="1.40286">
        <ele>130</ele>
        <time>2025-03-23T09:53:24Z</time>
      </trkpt>
      <trkpt lat="43.6358" lon="1.40285">
        <ele>130</ele>
        <time>2025-03-23T09:53:25Z</time>
      </trkpt>
      <trkpt lat="43.63577" lon="1.40285">
        <ele>130</ele>
        <time>2025-03-23T09:53:26Z</time>
      </trkpt>
      <trkpt lat="43.63572" lon="1.40285">
        <ele>130</ele>
        <time>2025-03-23T09:53:27Z</time>
      </trkpt>
      <trkpt lat="43.6357" lon="1.40285">
        <ele>130</ele>
        <time>2025-03-23T09:53:28Z</time>
      </trkpt>
      <trkpt lat="43.63567" lon="1.40285">
        <ele>130</ele>
        <time>2025-03-23T09:53:29Z</time>
      </trkpt>
      <trkpt lat="43.63564" lon="1.40284">
        <ele>130</ele>
        <time>2025-03-23T09:53:30Z</time>
      </trkpt>
      <trkpt lat="43.6356" lon="1.40284">
        <ele>130</ele>
        <time>2025-03-23T09:53:31Z</time>
      </trkpt>
      <trkpt lat="43.63558" lon="1.40284">
        <ele>130</ele>
        <time>2025-03-23T09:53:32Z</time>
      </trkpt>
      <trkpt lat="43.63555" lon="1.40283">
        <ele>130</ele>
        <time>2025-03-23T09:53:33Z</time>
      </trkpt>
      <trkpt lat="43.63552" lon="1.40283">
        <ele>130</ele>
        <time>2025-03-23T09:53:34Z</time>
      </trkpt>
      <trkpt lat="43.6355" lon="1.40283">
        <ele>130</ele>
        <time>2025-03-23T09:53:35Z</time>
      </trkpt>
      <trkpt lat="43.63548" lon="1.40283">
        <ele>130</ele>
        <time>2025-03-23T09:53:36Z</time>
      </trkpt>
      <trkpt lat="43.63545" lon="1.40282">
        <ele>130</ele>
        <time>2025-03-23T09:53:37Z</time>
      </trkpt>
      <trkpt lat="43.63542" lon="1.40282">
        <ele>130</ele>
        <time>2025-03-23T09:53:38Z</time>
      </trkpt>
      <trkpt lat="43.63539" lon="1.40282">
        <ele>130</ele>
        <time>2025-03-23T09:53:39Z</time>
      </trkpt>
      <trkpt lat="43.63537" lon="1.40281">
        <ele>130</ele>
        <time>2025-03-23T09:53:40Z</time>
      </trkpt>
      <trkpt lat="43.63534" lon="1.4028">
        <ele>130</ele>
        <time>2025-03-23T09:53:41Z</time>
      </trkpt>
      <trkpt lat="43.63532" lon="1.4028">
        <ele>130</ele>
        <time>2025-03-23T09:53:42Z</time>
      </trkpt>
      <trkpt lat="43.63529" lon="1.40279">
        <ele>129</ele>
        <time>2025-03-23T09:53:43Z</time>
      </trkpt>
      <trkpt lat="43.63527" lon="1.40279">
        <ele>129</ele>
        <time>2025-03-23T09:53:44Z</time>
      </trkpt>
      <trkpt lat="43.63524" lon="1.40279">
        <ele>129</ele>
        <time>2025-03-23T09:53:45Z</time>
      </trkpt>
      <trkpt lat="43.6352" lon="1.40278">
        <ele>129</ele>
        <time>2025-03-23T09:53:46Z</time>
      </trkpt>
      <trkpt lat="43.63519" lon="1.40277">
        <ele>129</ele>
        <time>2025-03-23T09:53:47Z</time>
      </trkpt>
      <trkpt lat="43.63516" lon="1.40277">
        <ele>129</ele>
        <time>2025-03-23T09:53:48Z</time>
      </trkpt>
      <trkpt lat="43.63514" lon="1.40276">
        <ele>129</ele>
        <time>2025-03-23T09:53:49Z</time>
      </trkpt>
      <trkpt lat="43.63511" lon="1.40275">
        <ele>129</ele>
        <time>2025-03-23T09:53:50Z</time>
      </trkpt>
      <trkpt lat="43.63509" lon="1.40275">
        <ele>129</ele>
        <time>2025-03-23T09:53:51Z</time>
      </trkpt>
      <trkpt lat="43.63507" lon="1.40274">
        <ele>129</ele>
        <time>2025-03-23T09:53:52Z</time>
      </trkpt>
      <trkpt lat="43.63504" lon="1.40273">
        <ele>129</ele>
        <time>2025-03-23T09:53:53Z</time>
      </trkpt>
      <trkpt lat="43.63501" lon="1.40272">
        <ele>129</ele>
        <time>2025-03-23T09:53:54Z</time>
      </trkpt>
      <trkpt lat="43.635" lon="1.40272">
        <ele>129</ele>
        <time>2025-03-23T09:53:55Z</time>
      </trkpt>
      <trkpt lat="43.63497" lon="1.40271">
        <ele>129</ele>
        <time>2025-03-23T09:53:56Z</time>
      </trkpt>
      <trkpt lat="43.63496" lon="1.4027">
        <ele>129</ele>
        <time>2025-03-23T09:53:57Z</time>
      </trkpt>
      <trkpt lat="43.63494" lon="1.40269">
        <ele>129</ele>
        <time>2025-03-23T09:53:58Z</time>
      </trkpt>
      <trkpt lat="43.63491" lon="1.40268">
        <ele>129</ele>
        <time>2025-03-23T09:53:59Z</time>
      </trkpt>
      <trkpt lat="43.63488" lon="1.40267">
        <ele>129</ele>
        <time>2025-03-23T09:54:00Z</time>
      </trkpt>
      <trkpt lat="43.63485" lon="1.40267">
        <ele>129</ele>
        <time>2025-03-23T09:54:01Z</time>
      </trkpt>
      <trkpt lat="43.63482" lon="1.40266">
        <ele>129</ele>
        <time>2025-03-23T09:54:02Z</time>
      </trkpt>
      <trkpt lat="43.63479" lon="1.40265">
        <ele>129</ele>
        <time>2025-03-23T09:54:03Z</time>
      </trkpt>
      <trkpt lat="43.63477" lon="1.40264">
        <ele>129</ele>
        <time>2025-03-23T09:54:04Z</time>
      </trkpt>
      <trkpt lat="43.63474" lon="1.40264">
        <ele>129</ele>
        <time>2025-03-23T09:54:05Z</time>
      </trkpt>
      <trkpt lat="43.63471" lon="1.40263">
        <ele>129</ele>
        <time>2025-03-23T09:54:06Z</time>
      </trkpt>
      <trkpt lat="43.63468" lon="1.40262">
        <ele>129</ele>
        <time>2025-03-23T09:54:07Z</time>
      </trkpt>
      <trkpt lat="43.63466" lon="1.40262">
        <ele>129</ele>
        <time>2025-03-23T09:54:08Z</time>
      </trkpt>
      <trkpt lat="43.63462" lon="1.40262">
        <ele>129</ele>
        <time>2025-03-23T09:54:09Z</time>
      </trkpt>
      <trkpt lat="43.63461" lon="1.40262">
        <ele>130</ele>
        <time>2025-03-23T09:54:10Z</time>
      </trkpt>
      <trkpt lat="43.63459" lon="1.40261">
        <ele>130</ele>
        <time>2025-03-23T09:54:11Z</time>
      </trkpt>
      <trkpt lat="43.63456" lon="1.40261">
        <ele>130</ele>
        <time>2025-03-23T09:54:12Z</time>
      </trkpt>
      <trkpt lat="43.63452" lon="1.4026">
        <ele>130</ele>
        <time>2025-03-23T09:54:13Z</time>
      </trkpt>
      <trkpt lat="43.6345" lon="1.4026">
        <ele>130</ele>
        <time>2025-03-23T09:54:14Z</time>
      </trkpt>
      <trkpt lat="43.63448" lon="1.40259">
        <ele>130</ele>
        <time>2025-03-23T09:54:15Z</time>
      </trkpt>
      <trkpt lat="43.63445" lon="1.40259">
        <ele>130</ele>
        <time>2025-03-23T09:54:16Z</time>
      </trkpt>
      <trkpt lat="43.63442" lon="1.40258">
        <ele>130</ele>
        <time>2025-03-23T09:54:17Z</time>
      </trkpt>
      <trkpt lat="43.63439" lon="1.40257">
        <ele>129</ele>
        <time>2025-03-23T09:54:18Z</time>
      </trkpt>
      <trkpt lat="43.63436" lon="1.40255">
        <ele>129</ele>
        <time>2025-03-23T09:54:19Z</time>
      </trkpt>
      <trkpt lat="43.63433" lon="1.40254">
        <ele>129</ele>
        <time>2025-03-23T09:54:20Z</time>
      </trkpt>
      <trkpt lat="43.63431" lon="1.40253">
        <ele>129</ele>
        <time>2025-03-23T09:54:21Z</time>
      </trkpt>
      <trkpt lat="43.63429" lon="1.40253">
        <ele>129</ele>
        <time>2025-03-23T09:54:22Z</time>
      </trkpt>
      <trkpt lat="43.63425" lon="1.40251">
        <ele>129</ele>
        <time>2025-03-23T09:54:23Z</time>
      </trkpt>
      <trkpt lat="43.63423" lon="1.40251">
        <ele>129</ele>
        <time>2025-03-23T09:54:24Z</time>
      </trkpt>
      <trkpt lat="43.63421" lon="1.40249">
        <ele>129</ele>
        <time>2025-03-23T09:54:25Z</time>
      </trkpt>
      <trkpt lat="43.63417" lon="1.40248">
        <ele>129</ele>
        <time>2025-03-23T09:54:26Z</time>
      </trkpt>
      <trkpt lat="43.63416" lon="1.40248">
        <ele>129</ele>
        <time>2025-03-23T09:54:27Z</time>
      </trkpt>
      <trkpt lat="43.63412" lon="1.40246">
        <ele>129</ele>
        <time>2025-03-23T09:54:28Z</time>
      </trkpt>
      <trkpt lat="43.6341" lon="1.40245">
        <ele>129</ele>
        <time>2025-03-23T09:54:29Z</time>
      </trkpt>
      <trkpt lat="43.63408" lon="1.40243">
        <ele>129</ele>
        <time>2025-03-23T09:54:30Z</time>
      </trkpt>
      <trkpt lat="43.63405" lon="1.40242">
        <ele>129</ele>
        <time>2025-03-23T09:54:31Z</time>
      </trkpt>
      <trkpt lat="43.63402" lon="1.40242">
        <ele>129</ele>
        <time>2025-03-23T09:54:32Z</time>
      </trkpt>
      <trkpt lat="43.634" lon="1.40242">
        <ele>129</ele>
        <time>2025-03-23T09:54:33Z</time>
      </trkpt>
      <trkpt lat="43.63397" lon="1.40241">
        <ele>129</ele>
        <time>2025-03-23T09:54:34Z</time>
      </trkpt>
      <trkpt lat="43.63394" lon="1.4024">
        <ele>129</ele>
        <time>2025-03-23T09:54:35Z</time>
      </trkpt>
      <trkpt lat="43.63393" lon="1.4024">
        <ele>129</ele>
        <time>2025-03-23T09:54:36Z</time>
      </trkpt>
      <trkpt lat="43.6339" lon="1.40241">
        <ele>129</ele>
        <time>2025-03-23T09:54:38Z</time>
      </trkpt>
      <trkpt lat="43.63387" lon="1.40242">
        <ele>129</ele>
        <time>2025-03-23T09:54:39Z</time>
      </trkpt>
      <trkpt lat="43.63387" lon="1.40242">
        <ele>129</ele>
        <time>2025-03-23T09:54:40Z</time>
      </trkpt>
      <trkpt lat="43.63384" lon="1.40242">
        <ele>128</ele>
        <time>2025-03-23T09:54:41Z</time>
      </trkpt>
      <trkpt lat="43.63384" lon="1.40242">
        <ele>128</ele>
        <time>2025-03-23T09:54:42Z</time>
      </trkpt>
      <trkpt lat="43.63381" lon="1.4024">
        <ele>127</ele>
        <time>2025-03-23T09:54:43Z</time>
      </trkpt>
      <trkpt lat="43.63381" lon="1.4024">
        <ele>127</ele>
        <time>2025-03-23T09:54:44Z</time>
      </trkpt>
      <trkpt lat="43.63378" lon="1.40238">
        <ele>127</ele>
        <time>2025-03-23T09:54:45Z</time>
      </trkpt>
      <trkpt lat="43.63376" lon="1.40237">
        <ele>126</ele>
        <time>2025-03-23T09:54:46Z</time>
      </trkpt>
      <trkpt lat="43.63372" lon="1.40235">
        <ele>126</ele>
        <time>2025-03-23T09:54:47Z</time>
      </trkpt>
      <trkpt lat="43.6337" lon="1.40235">
        <ele>126</ele>
        <time>2025-03-23T09:54:48Z</time>
      </trkpt>
      <trkpt lat="43.63369" lon="1.40235">
        <ele>126</ele>
        <time>2025-03-23T09:54:49Z</time>
      </trkpt>
      <trkpt lat="43.63366" lon="1.40234">
        <ele>126</ele>
        <time>2025-03-23T09:54:50Z</time>
      </trkpt>
      <trkpt lat="43.63364" lon="1.40234">
        <ele>126</ele>
        <time>2025-03-23T09:54:51Z</time>
      </trkpt>
      <trkpt lat="43.63364" lon="1.40234">
        <ele>126</ele>
        <time>2025-03-23T09:54:52Z</time>
      </trkpt>
      <trkpt lat="43.63361" lon="1.40233">
        <ele>126</ele>
        <time>2025-03-23T09:54:53Z</time>
      </trkpt>
      <trkpt lat="43.63359" lon="1.40233">
        <ele>126</ele>
        <time>2025-03-23T09:54:54Z</time>
      </trkpt>
      <trkpt lat="43.63357" lon="1.40232">
        <ele>126</ele>
        <time>2025-03-23T09:54:55Z</time>
      </trkpt>
      <trkpt lat="43.63355" lon="1.40231">
        <ele>126</ele>
        <time>2025-03-23T09:54:56Z</time>
      </trkpt>
      <trkpt lat="43.63353" lon="1.4023">
        <ele>126</ele>
        <time>2025-03-23T09:54:57Z</time>
      </trkpt>
      <trkpt lat="43.63351" lon="1.40229">
        <ele>126</ele>
        <time>2025-03-23T09:54:58Z</time>
      </trkpt>
      <trkpt lat="43.63349" lon="1.40228">
        <ele>126</ele>
        <time>2025-03-23T09:54:59Z</time>
      </trkpt>
      <trkpt lat="43.63344" lon="1.40227">
        <ele>126</ele>
        <time>2025-03-23T09:55:00Z</time>
      </trkpt>
      <trkpt lat="43.6334" lon="1.40226">
        <ele>126</ele>
        <time>2025-03-23T09:55:01Z</time>
      </trkpt>
      <trkpt lat="43.63338" lon="1.40225">
        <ele>126</ele>
        <time>2025-03-23T09:55:02Z</time>
      </trkpt>
      <trkpt lat="43.63335" lon="1.40224">
        <ele>126</ele>
        <time>2025-03-23T09:55:03Z</time>
      </trkpt>
      <trkpt lat="43.63333" lon="1.40223">
        <ele>126</ele>
        <time>2025-03-23T09:55:04Z</time>
      </trkpt>
      <trkpt lat="43.63331" lon="1.40222">
        <ele>126</ele>
        <time>2025-03-23T09:55:05Z</time>
      </trkpt>
      <trkpt lat="43.63325" lon="1.4022">
        <ele>126</ele>
        <time>2025-03-23T09:55:07Z</time>
      </trkpt>
      <trkpt lat="43.63324" lon="1.4022">
        <ele>126</ele>
        <time>2025-03-23T09:55:08Z</time>
      </trkpt>
      <trkpt lat="43.63321" lon="1.40219">
        <ele>126</ele>
        <time>2025-03-23T09:55:09Z</time>
      </trkpt>
      <trkpt lat="43.63318" lon="1.40217">
        <ele>126</ele>
        <time>2025-03-23T09:55:10Z</time>
      </trkpt>
      <trkpt lat="43.63316" lon="1.40215">
        <ele>127</ele>
        <time>2025-03-23T09:55:11Z</time>
      </trkpt>
      <trkpt lat="43.63313" lon="1.40212">
        <ele>127</ele>
        <time>2025-03-23T09:55:12Z</time>
      </trkpt>
      <trkpt lat="43.63312" lon="1.40212">
        <ele>127</ele>
        <time>2025-03-23T09:55:13Z</time>
      </trkpt>
      <trkpt lat="43.6331" lon="1.4021">
        <ele>126</ele>
        <time>2025-03-23T09:55:14Z</time>
      </trkpt>
      <trkpt lat="43.63308" lon="1.40209">
        <ele>126</ele>
        <time>2025-03-23T09:55:15Z</time>
      </trkpt>
      <trkpt lat="43.63308" lon="1.40209">
        <ele>126</ele>
        <time>2025-03-23T09:55:16Z</time>
      </trkpt>
      <trkpt lat="43.63305" lon="1.40207">
        <ele>126</ele>
        <time>2025-03-23T09:55:17Z</time>
      </trkpt>
      <trkpt lat="43.63303" lon="1.40207">
        <ele>126</ele>
        <time>2025-03-23T09:55:18Z</time>
      </trkpt>
      <trkpt lat="43.63299" lon="1.40206">
        <ele>126</ele>
        <time>2025-03-23T09:55:19Z</time>
      </trkpt>
      <trkpt lat="43.63297" lon="1.40206">
        <ele>126</ele>
        <time>2025-03-23T09:55:20Z</time>
      </trkpt>
      <trkpt lat="43.63295" lon="1.40206">
        <ele>126</ele>
        <time>2025-03-23T09:55:21Z</time>
      </trkpt>
      <trkpt lat="43.63292" lon="1.40206">
        <ele>126</ele>
        <time>2025-03-23T09:55:22Z</time>
      </trkpt>
      <trkpt lat="43.6329" lon="1.40206">
        <ele>126</ele>
        <time>2025-03-23T09:55:23Z</time>
      </trkpt>
      <trkpt lat="43.63288" lon="1.40205">
        <ele>127</ele>
        <time>2025-03-23T09:55:24Z</time>
      </trkpt>
      <trkpt lat="43.63285" lon="1.40205">
        <ele>127</ele>
        <time>2025-03-23T09:55:25Z</time>
      </trkpt>
      <trkpt lat="43.63283" lon="1.40204">
        <ele>127</ele>
        <time>2025-03-23T09:55:26Z</time>
      </trkpt>
      <trkpt lat="43.63277" lon="1.40202">
        <ele>127</ele>
        <time>2025-03-23T09:55:27Z</time>
      </trkpt>
      <trkpt lat="43.63276" lon="1.40201">
        <ele>127</ele>
        <time>2025-03-23T09:55:28Z</time>
      </trkpt>
      <trkpt lat="43.63273" lon="1.40199">
        <ele>127</ele>
        <time>2025-03-23T09:55:29Z</time>
      </trkpt>
      <trkpt lat="43.63271" lon="1.40198">
        <ele>127</ele>
        <time>2025-03-23T09:55:30Z</time>
      </trkpt>
      <trkpt lat="43.63268" lon="1.40197">
        <ele>127</ele>
        <time>2025-03-23T09:55:31Z</time>
      </trkpt>
      <trkpt lat="43.63264" lon="1.40196">
        <ele>126</ele>
        <time>2025-03-23T09:55:32Z</time>
      </trkpt>
      <trkpt lat="43.63262" lon="1.40195">
        <ele>126</ele>
        <time>2025-03-23T09:55:33Z</time>
      </trkpt>
      <trkpt lat="43.63259" lon="1.40193">
        <ele>126</ele>
        <time>2025-03-23T09:55:34Z</time>
      </trkpt>
      <trkpt lat="43.63257" lon="1.40192">
        <ele>126</ele>
        <time>2025-03-23T09:55:35Z</time>
      </trkpt>
      <trkpt lat="43.63257" lon="1.40192">
        <ele>127</ele>
        <time>2025-03-23T09:55:36Z</time>
      </trkpt>
      <trkpt lat="43.63253" lon="1.40191">
        <ele>127</ele>
        <time>2025-03-23T09:55:37Z</time>
      </trkpt>
      <trkpt lat="43.63251" lon="1.4019">
        <ele>127</ele>
        <time>2025-03-23T09:55:38Z</time>
      </trkpt>
      <trkpt lat="43.63249" lon="1.40189">
        <ele>127</ele>
        <time>2025-03-23T09:55:39Z</time>
      </trkpt>
      <trkpt lat="43.63246" lon="1.40187">
        <ele>127</ele>
        <time>2025-03-23T09:55:40Z</time>
      </trkpt>
      <trkpt lat="43.63243" lon="1.40186">
        <ele>127</ele>
        <time>2025-03-23T09:55:41Z</time>
      </trkpt>
      <trkpt lat="43.63239" lon="1.40184">
        <ele>127</ele>
        <time>2025-03-23T09:55:42Z</time>
      </trkpt>
      <trkpt lat="43.63238" lon="1.40184">
        <ele>127</ele>
        <time>2025-03-23T09:55:43Z</time>
      </trkpt>
      <trkpt lat="43.63235" lon="1.40183">
        <ele>127</ele>
        <time>2025-03-23T09:55:45Z</time>
      </trkpt>
      <trkpt lat="43.63235" lon="1.40183">
        <ele>127</ele>
        <time>2025-03-23T09:55:46Z</time>
      </trkpt>
      <trkpt lat="43.63231" lon="1.40183">
        <ele>127</ele>
        <time>2025-03-23T09:55:47Z</time>
      </trkpt>
      <trkpt lat="43.63231" lon="1.40183">
        <ele>127</ele>
        <time>2025-03-23T09:55:48Z</time>
      </trkpt>
      <trkpt lat="43.63228" lon="1.40183">
        <ele>127</ele>
        <time>2025-03-23T09:55:49Z</time>
      </trkpt>
      <trkpt lat="43.63225" lon="1.40182">
        <ele>127</ele>
        <time>2025-03-23T09:55:50Z</time>
      </trkpt>
      <trkpt lat="43.63223" lon="1.40181">
        <ele>127</ele>
        <time>2025-03-23T09:55:51Z</time>
      </trkpt>
      <trkpt lat="43.6322" lon="1.4018">
        <ele>127</ele>
        <time>2025-03-23T09:55:52Z</time>
      </trkpt>
      <trkpt lat="43.63217" lon="1.40178">
        <ele>127</ele>
        <time>2025-03-23T09:55:53Z</time>
      </trkpt>
      <trkpt lat="43.63214" lon="1.40176">
        <ele>127</ele>
        <time>2025-03-23T09:55:54Z</time>
      </trkpt>
      <trkpt lat="43.63212" lon="1.40174">
        <ele>127</ele>
        <time>2025-03-23T09:55:55Z</time>
      </trkpt>
      <trkpt lat="43.63209" lon="1.40173">
        <ele>128</ele>
        <time>2025-03-23T09:55:56Z</time>
      </trkpt>
      <trkpt lat="43.63207" lon="1.40173">
        <ele>129</ele>
        <time>2025-03-23T09:55:57Z</time>
      </trkpt>
      <trkpt lat="43.63205" lon="1.40174">
        <ele>129</ele>
        <time>2025-03-23T09:55:58Z</time>
      </trkpt>
      <trkpt lat="43.63202" lon="1.40175">
        <ele>128</ele>
        <time>2025-03-23T09:55:59Z</time>
      </trkpt>
      <trkpt lat="43.632" lon="1.40175">
        <ele>128</ele>
        <time>2025-03-23T09:56:00Z</time>
      </trkpt>
      <trkpt lat="43.63198" lon="1.40174">
        <ele>128</ele>
        <time>2025-03-23T09:56:01Z</time>
      </trkpt>
      <trkpt lat="43.63193" lon="1.40172">
        <ele>127</ele>
        <time>2025-03-23T09:56:02Z</time>
      </trkpt>
      <trkpt lat="43.63192" lon="1.40171">
        <ele>127</ele>
        <time>2025-03-23T09:56:03Z</time>
      </trkpt>
      <trkpt lat="43.6319" lon="1.4017">
        <ele>127</ele>
        <time>2025-03-23T09:56:04Z</time>
      </trkpt>
      <trkpt lat="43.63187" lon="1.40168">
        <ele>127</ele>
        <time>2025-03-23T09:56:05Z</time>
      </trkpt>
      <trkpt lat="43.63184" lon="1.40166">
        <ele>127</ele>
        <time>2025-03-23T09:56:06Z</time>
      </trkpt>
      <trkpt lat="43.63182" lon="1.40164">
        <ele>127</ele>
        <time>2025-03-23T09:56:07Z</time>
      </trkpt>
      <trkpt lat="43.6318" lon="1.40162">
        <ele>127</ele>
        <time>2025-03-23T09:56:08Z</time>
      </trkpt>
      <trkpt lat="43.63178" lon="1.40161">
        <ele>127</ele>
        <time>2025-03-23T09:56:09Z</time>
      </trkpt>
      <trkpt lat="43.63175" lon="1.4016">
        <ele>127</ele>
        <time>2025-03-23T09:56:10Z</time>
      </trkpt>
      <trkpt lat="43.63173" lon="1.40159">
        <ele>127</ele>
        <time>2025-03-23T09:56:11Z</time>
      </trkpt>
      <trkpt lat="43.63171" lon="1.40158">
        <ele>127</ele>
        <time>2025-03-23T09:56:12Z</time>
      </trkpt>
      <trkpt lat="43.63166" lon="1.40155">
        <ele>127</ele>
        <time>2025-03-23T09:56:13Z</time>
      </trkpt>
      <trkpt lat="43.63165" lon="1.40154">
        <ele>128</ele>
        <time>2025-03-23T09:56:14Z</time>
      </trkpt>
      <trkpt lat="43.63162" lon="1.40152">
        <ele>128</ele>
        <time>2025-03-23T09:56:15Z</time>
      </trkpt>
      <trkpt lat="43.63159" lon="1.40151">
        <ele>128</ele>
        <time>2025-03-23T09:56:16Z</time>
      </trkpt>
      <trkpt lat="43.63157" lon="1.40149">
        <ele>128</ele>
        <time>2025-03-23T09:56:17Z</time>
      </trkpt>
      <trkpt lat="43.63154" lon="1.40148">
        <ele>128</ele>
        <time>2025-03-23T09:56:18Z</time>
      </trkpt>
      <trkpt lat="43.63152" lon="1.40147">
        <ele>128</ele>
        <time>2025-03-23T09:56:19Z</time>
      </trkpt>
      <trkpt lat="43.63148" lon="1.40144">
        <ele>128</ele>
        <time>2025-03-23T09:56:20Z</time>
      </trkpt>
      <trkpt lat="43.63147" lon="1.40144">
        <ele>128</ele>
        <time>2025-03-23T09:56:21Z</time>
      </trkpt>
      <trkpt lat="43.63144" lon="1.40142">
        <ele>128</ele>
        <time>2025-03-23T09:56:22Z</time>
      </trkpt>
      <trkpt lat="43.63143" lon="1.40142">
        <ele>128</ele>
        <time>2025-03-23T09:56:23Z</time>
      </trkpt>
      <trkpt lat="43.63139" lon="1.4014">
        <ele>128</ele>
        <time>2025-03-23T09:56:24Z</time>
      </trkpt>
      <trkpt lat="43.63138" lon="1.4014">
        <ele>128</ele>
        <time>2025-03-23T09:56:25Z</time>
      </trkpt>
      <trkpt lat="43.63136" lon="1.40139">
        <ele>128</ele>
        <time>2025-03-23T09:56:26Z</time>
      </trkpt>
      <trkpt lat="43.63136" lon="1.40139">
        <ele>128</ele>
        <time>2025-03-23T09:56:27Z</time>
      </trkpt>
      <trkpt lat="43.63133" lon="1.40138">
        <ele>127</ele>
        <time>2025-03-23T09:56:28Z</time>
      </trkpt>
      <trkpt lat="43.63131" lon="1.40137">
        <ele>127</ele>
        <time>2025-03-23T09:56:29Z</time>
      </trkpt>
      <trkpt lat="43.63128" lon="1.40136">
        <ele>127</ele>
        <time>2025-03-23T09:56:30Z</time>
      </trkpt>
      <trkpt lat="43.63126" lon="1.40135">
        <ele>127</ele>
        <time>2025-03-23T09:56:31Z</time>
      </trkpt>
      <trkpt lat="43.63125" lon="1.40135">
        <ele>127</ele>
        <time>2025-03-23T09:56:32Z</time>
      </trkpt>
      <trkpt lat="43.63122" lon="1.40135">
        <ele>127</ele>
        <time>2025-03-23T09:56:33Z</time>
      </trkpt>
      <trkpt lat="43.63121" lon="1.40134">
        <ele>127</ele>
        <time>2025-03-23T09:56:34Z</time>
      </trkpt>
      <trkpt lat="43.63118" lon="1.40134">
        <ele>127</ele>
        <time>2025-03-23T09:56:35Z</time>
      </trkpt>
      <trkpt lat="43.63116" lon="1.40133">
        <ele>127</ele>
        <time>2025-03-23T09:56:36Z</time>
      </trkpt>
      <trkpt lat="43.63113" lon="1.40133">
        <ele>127</ele>
        <time>2025-03-23T09:56:37Z</time>
      </trkpt>
      <trkpt lat="43.6311" lon="1.40132">
        <ele>127</ele>
        <time>2025-03-23T09:56:38Z</time>
      </trkpt>
      <trkpt lat="43.63107" lon="1.40132">
        <ele>127</ele>
        <time>2025-03-23T09:56:39Z</time>
      </trkpt>
      <trkpt lat="43.63104" lon="1.40132">
        <ele>127</ele>
        <time>2025-03-23T09:56:40Z</time>
      </trkpt>
      <trkpt lat="43.63099" lon="1.40129">
        <ele>127</ele>
        <time>2025-03-23T09:56:42Z</time>
      </trkpt>
      <trkpt lat="43.63095" lon="1.40128">
        <ele>128</ele>
        <time>2025-03-23T09:56:43Z</time>
      </trkpt>
      <trkpt lat="43.6309" lon="1.40127">
        <ele>128</ele>
        <time>2025-03-23T09:56:44Z</time>
      </trkpt>
      <trkpt lat="43.63088" lon="1.40125">
        <ele>128</ele>
        <time>2025-03-23T09:56:45Z</time>
      </trkpt>
      <trkpt lat="43.63086" lon="1.40124">
        <ele>128</ele>
        <time>2025-03-23T09:56:46Z</time>
      </trkpt>
      <trkpt lat="43.63084" lon="1.40123">
        <ele>129</ele>
        <time>2025-03-23T09:56:47Z</time>
      </trkpt>
      <trkpt lat="43.63081" lon="1.40121">
        <ele>129</ele>
        <time>2025-03-23T09:56:48Z</time>
      </trkpt>
      <trkpt lat="43.63078" lon="1.4012">
        <ele>129</ele>
        <time>2025-03-23T09:56:49Z</time>
      </trkpt>
      <trkpt lat="43.63076" lon="1.4012">
        <ele>129</ele>
        <time>2025-03-23T09:56:50Z</time>
      </trkpt>
      <trkpt lat="43.63073" lon="1.40119">
        <ele>129</ele>
        <time>2025-03-23T09:56:51Z</time>
      </trkpt>
      <trkpt lat="43.63071" lon="1.40119">
        <ele>129</ele>
        <time>2025-03-23T09:56:52Z</time>
      </trkpt>
      <trkpt lat="43.63068" lon="1.40118">
        <ele>129</ele>
        <time>2025-03-23T09:56:53Z</time>
      </trkpt>
      <trkpt lat="43.63065" lon="1.40117">
        <ele>129</ele>
        <time>2025-03-23T09:56:54Z</time>
      </trkpt>
      <trkpt lat="43.63062" lon="1.40117">
        <ele>129</ele>
        <time>2025-03-23T09:56:55Z</time>
      </trkpt>
      <trkpt lat="43.6306" lon="1.40116">
        <ele>129</ele>
        <time>2025-03-23T09:56:56Z</time>
      </trkpt>
      <trkpt lat="43.63058" lon="1.40115">
        <ele>129</ele>
        <time>2025-03-23T09:56:57Z</time>
      </trkpt>
      <trkpt lat="43.63055" lon="1.40115">
        <ele>129</ele>
        <time>2025-03-23T09:56:58Z</time>
      </trkpt>
      <trkpt lat="43.63052" lon="1.40113">
        <ele>129</ele>
        <time>2025-03-23T09:56:59Z</time>
      </trkpt>
      <trkpt lat="43.63048" lon="1.40112">
        <ele>129</ele>
        <time>2025-03-23T09:57:00Z</time>
      </trkpt>
      <trkpt lat="43.63047" lon="1.40112">
        <ele>129</ele>
        <time>2025-03-23T09:57:01Z</time>
      </trkpt>
      <trkpt lat="43.63043" lon="1.40112">
        <ele>129</ele>
        <time>2025-03-23T09:57:02Z</time>
      </trkpt>
      <trkpt lat="43.63042" lon="1.40112">
        <ele>129</ele>
        <time>2025-03-23T09:57:03Z</time>
      </trkpt>
      <trkpt lat="43.63039" lon="1.40111">
        <ele>129</ele>
        <time>2025-03-23T09:57:04Z</time>
      </trkpt>
      <trkpt lat="43.63036" lon="1.4011">
        <ele>129</ele>
        <time>2025-03-23T09:57:05Z</time>
      </trkpt>
      <trkpt lat="43.63033" lon="1.40109">
        <ele>129</ele>
        <time>2025-03-23T09:57:06Z</time>
      </trkpt>
      <trkpt lat="43.63031" lon="1.40109">
        <ele>129</ele>
        <time>2025-03-23T09:57:07Z</time>
      </trkpt>
      <trkpt lat="43.63029" lon="1.40108">
        <ele>129</ele>
        <time>2025-03-23T09:57:08Z</time>
      </trkpt>
      <trkpt lat="43.63027" lon="1.40108">
        <ele>129</ele>
        <time>2025-03-23T09:57:09Z</time>
      </trkpt>
      <trkpt lat="43.63024" lon="1.40108">
        <ele>129</ele>
        <time>2025-03-23T09:57:10Z</time>
      </trkpt>
      <trkpt lat="43.63022" lon="1.40108">
        <ele>129</ele>
        <time>2025-03-23T09:57:11Z</time>
      </trkpt>
      <trkpt lat="43.6302" lon="1.40108">
        <ele>128</ele>
        <time>2025-03-23T09:57:12Z</time>
      </trkpt>
      <trkpt lat="43.63017" lon="1.40107">
        <ele>128</ele>
        <time>2025-03-23T09:57:13Z</time>
      </trkpt>
      <trkpt lat="43.63015" lon="1.40107">
        <ele>128</ele>
        <time>2025-03-23T09:57:14Z</time>
      </trkpt>
      <trkpt lat="43.63013" lon="1.40107">
        <ele>128</ele>
        <time>2025-03-23T09:57:15Z</time>
      </trkpt>
      <trkpt lat="43.63011" lon="1.40107">
        <ele>128</ele>
        <time>2025-03-23T09:57:16Z</time>
      </trkpt>
      <trkpt lat="43.63009" lon="1.40106">
        <ele>128</ele>
        <time>2025-03-23T09:57:17Z</time>
      </trkpt>
      <trkpt lat="43.63006" lon="1.40105">
        <ele>128</ele>
        <time>2025-03-23T09:57:18Z</time>
      </trkpt>
      <trkpt lat="43.63003" lon="1.40104">
        <ele>128</ele>
        <time>2025-03-23T09:57:19Z</time>
      </trkpt>
      <trkpt lat="43.63002" lon="1.40104">
        <ele>128</ele>
        <time>2025-03-23T09:57:20Z</time>
      </trkpt>
      <trkpt lat="43.62999" lon="1.40103">
        <ele>128</ele>
        <time>2025-03-23T09:57:21Z</time>
      </trkpt>
      <trkpt lat="43.62998" lon="1.40103">
        <ele>128</ele>
        <time>2025-03-23T09:57:22Z</time>
      </trkpt>
      <trkpt lat="43.62994" lon="1.40102">
        <ele>128</ele>
        <time>2025-03-23T09:57:23Z</time>
      </trkpt>
      <trkpt lat="43.62993" lon="1.40102">
        <ele>128</ele>
        <time>2025-03-23T09:57:24Z</time>
      </trkpt>
      <trkpt lat="43.62991" lon="1.40101">
        <ele>128</ele>
        <time>2025-03-23T09:57:25Z</time>
      </trkpt>
      <trkpt lat="43.62988" lon="1.401">
        <ele>128</ele>
        <time>2025-03-23T09:57:26Z</time>
      </trkpt>
      <trkpt lat="43.62987" lon="1.401">
        <ele>128</ele>
        <time>2025-03-23T09:57:27Z</time>
      </trkpt>
      <trkpt lat="43.62985" lon="1.40099">
        <ele>127</ele>
        <time>2025-03-23T09:57:28Z</time>
      </trkpt>
      <trkpt lat="43.62982" lon="1.40099">
        <ele>128</ele>
        <time>2025-03-23T09:57:29Z</time>
      </trkpt>
      <trkpt lat="43.62979" lon="1.40099">
        <ele>128</ele>
        <time>2025-03-23T09:57:30Z</time>
      </trkpt>
      <trkpt lat="43.62976" lon="1.40099">
        <ele>128</ele>
        <time>2025-03-23T09:57:31Z</time>
      </trkpt>
      <trkpt lat="43.62973" lon="1.40098">
        <ele>128</ele>
        <time>2025-03-23T09:57:32Z</time>
      </trkpt>
      <trkpt lat="43.6297" lon="1.40097">
        <ele>128</ele>
        <time>2025-03-23T09:57:33Z</time>
      </trkpt>
      <trkpt lat="43.62967" lon="1.40096">
        <ele>128</ele>
        <time>2025-03-23T09:57:34Z</time>
      </trkpt>
      <trkpt lat="43.62963" lon="1.40095">
        <ele>129</ele>
        <time>2025-03-23T09:57:35Z</time>
      </trkpt>
      <trkpt lat="43.6296" lon="1.40095">
        <ele>129</ele>
        <time>2025-03-23T09:57:36Z</time>
      </trkpt>
      <trkpt lat="43.62957" lon="1.40094">
        <ele>129</ele>
        <time>2025-03-23T09:57:37Z</time>
      </trkpt>
      <trkpt lat="43.62952" lon="1.40091">
        <ele>128</ele>
        <time>2025-03-23T09:57:39Z</time>
      </trkpt>
      <trkpt lat="43.6295" lon="1.40089">
        <ele>128</ele>
        <time>2025-03-23T09:57:40Z</time>
      </trkpt>
      <trkpt lat="43.62947" lon="1.40089">
        <ele>128</ele>
        <time>2025-03-23T09:57:41Z</time>
      </trkpt>
      <trkpt lat="43.62943" lon="1.40087">
        <ele>128</ele>
        <time>2025-03-23T09:57:42Z</time>
      </trkpt>
      <trkpt lat="43.62942" lon="1.40086">
        <ele>128</ele>
        <time>2025-03-23T09:57:43Z</time>
      </trkpt>
      <trkpt lat="43.6294" lon="1.40084">
        <ele>128</ele>
        <time>2025-03-23T09:57:44Z</time>
      </trkpt>
      <trkpt lat="43.62936" lon="1.40082">
        <ele>128</ele>
        <time>2025-03-23T09:57:45Z</time>
      </trkpt>
      <trkpt lat="43.62935" lon="1.40081">
        <ele>128</ele>
        <time>2025-03-23T09:57:46Z</time>
      </trkpt>
      <trkpt lat="43.62933" lon="1.4008">
        <ele>128</ele>
        <time>2025-03-23T09:57:47Z</time>
      </trkpt>
      <trkpt lat="43.62931" lon="1.4008">
        <ele>128</ele>
        <time>2025-03-23T09:57:48Z</time>
      </trkpt>
      <trkpt lat="43.62929" lon="1.40079">
        <ele>128</ele>
        <time>2025-03-23T09:57:49Z</time>
      </trkpt>
      <trkpt lat="43.62927" lon="1.40078">
        <ele>128</ele>
        <time>2025-03-23T09:57:50Z</time>
      </trkpt>
      <trkpt lat="43.62924" lon="1.40077">
        <ele>128</ele>
        <time>2025-03-23T09:57:51Z</time>
      </trkpt>
      <trkpt lat="43.62922" lon="1.40076">
        <ele>128</ele>
        <time>2025-03-23T09:57:52Z</time>
      </trkpt>
      <trkpt lat="43.62919" lon="1.40076">
        <ele>128</ele>
        <time>2025-03-23T09:57:53Z</time>
      </trkpt>
      <trkpt lat="43.62916" lon="1.40075">
        <ele>128</ele>
        <time>2025-03-23T09:57:54Z</time>
      </trkpt>
      <trkpt lat="43.62914" lon="1.40074">
        <ele>128</ele>
        <time>2025-03-23T09:57:55Z</time>
      </trkpt>
      <trkpt lat="43.62911" lon="1.40072">
        <ele>128</ele>
        <time>2025-03-23T09:57:56Z</time>
      </trkpt>
      <trkpt lat="43.62907" lon="1.40071">
        <ele>128</ele>
        <time>2025-03-23T09:57:57Z</time>
      </trkpt>
      <trkpt lat="43.62906" lon="1.4007">
        <ele>128</ele>
        <time>2025-03-23T09:57:58Z</time>
      </trkpt>
      <trkpt lat="43.62904" lon="1.4007">
        <ele>128</ele>
        <time>2025-03-23T09:57:59Z</time>
      </trkpt>
      <trkpt lat="43.62902" lon="1.40069">
        <ele>128</ele>
        <time>2025-03-23T09:58:00Z</time>
      </trkpt>
      <trkpt lat="43.629" lon="1.40069">
        <ele>129</ele>
        <time>2025-03-23T09:58:01Z</time>
      </trkpt>
      <trkpt lat="43.629" lon="1.40069">
        <ele>129</ele>
        <time>2025-03-23T09:58:02Z</time>
      </trkpt>
      <trkpt lat="43.62897" lon="1.40068">
        <ele>129</ele>
        <time>2025-03-23T09:58:03Z</time>
      </trkpt>
      <trkpt lat="43.62897" lon="1.40068">
        <ele>129</ele>
        <time>2025-03-23T09:58:04Z</time>
      </trkpt>
      <trkpt lat="43.62894" lon="1.40067">
        <ele>129</ele>
        <time>2025-03-23T09:58:05Z</time>
      </trkpt>
      <trkpt lat="43.62892" lon="1.40066">
        <ele>129</ele>
        <time>2025-03-23T09:58:06Z</time>
      </trkpt>
      <trkpt lat="43.62891" lon="1.40065">
        <ele>129</ele>
        <time>2025-03-23T09:58:07Z</time>
      </trkpt>
      <trkpt lat="43.62888" lon="1.40065">
        <ele>129</ele>
        <time>2025-03-23T09:58:08Z</time>
      </trkpt>
      <trkpt lat="43.62886" lon="1.40064">
        <ele>129</ele>
        <time>2025-03-23T09:58:09Z</time>
      </trkpt>
      <trkpt lat="43.62883" lon="1.40063">
        <ele>129</ele>
        <time>2025-03-23T09:58:10Z</time>
      </trkpt>
      <trkpt lat="43.6288" lon="1.40063">
        <ele>129</ele>
        <time>2025-03-23T09:58:11Z</time>
      </trkpt>
      <trkpt lat="43.62877" lon="1.40062">
        <ele>129</ele>
        <time>2025-03-23T09:58:12Z</time>
      </trkpt>
      <trkpt lat="43.62875" lon="1.40062">
        <ele>129</ele>
        <time>2025-03-23T09:58:13Z</time>
      </trkpt>
      <trkpt lat="43.62872" lon="1.40062">
        <ele>129</ele>
        <time>2025-03-23T09:58:14Z</time>
      </trkpt>
      <trkpt lat="43.62868" lon="1.40061">
        <ele>129</ele>
        <time>2025-03-23T09:58:15Z</time>
      </trkpt>
      <trkpt lat="43.62866" lon="1.40061">
        <ele>129</ele>
        <time>2025-03-23T09:58:16Z</time>
      </trkpt>
      <trkpt lat="43.62864" lon="1.40061">
        <ele>129</ele>
        <time>2025-03-23T09:58:17Z</time>
      </trkpt>
      <trkpt lat="43.62861" lon="1.40061">
        <ele>129</ele>
        <time>2025-03-23T09:58:18Z</time>
      </trkpt>
      <trkpt lat="43.62858" lon="1.4006">
        <ele>129</ele>
        <time>2025-03-23T09:58:19Z</time>
      </trkpt>
      <trkpt lat="43.62857" lon="1.4006">
        <ele>129</ele>
        <time>2025-03-23T09:58:20Z</time>
      </trkpt>
      <trkpt lat="43.62854" lon="1.4006">
        <ele>129</ele>
        <time>2025-03-23T09:58:21Z</time>
      </trkpt>
      <trkpt lat="43.62852" lon="1.4006">
        <ele>129</ele>
        <time>2025-03-23T09:58:22Z</time>
      </trkpt>
      <trkpt lat="43.62848" lon="1.4006">
        <ele>129</ele>
        <time>2025-03-23T09:58:23Z</time>
      </trkpt>
      <trkpt lat="43.62847" lon="1.40059">
        <ele>129</ele>
        <time>2025-03-23T09:58:24Z</time>
      </trkpt>
      <trkpt lat="43.62844" lon="1.40059">
        <ele>129</ele>
        <time>2025-03-23T09:58:25Z</time>
      </trkpt>
      <trkpt lat="43.62842" lon="1.40059">
        <ele>129</ele>
        <time>2025-03-23T09:58:26Z</time>
      </trkpt>
      <trkpt lat="43.62839" lon="1.40059">
        <ele>129</ele>
        <time>2025-03-23T09:58:27Z</time>
      </trkpt>
      <trkpt lat="43.62836" lon="1.40058">
        <ele>129</ele>
        <time>2025-03-23T09:58:28Z</time>
      </trkpt>
      <trkpt lat="43.62832" lon="1.40058">
        <ele>129</ele>
        <time>2025-03-23T09:58:29Z</time>
      </trkpt>
      <trkpt lat="43.62831" lon="1.40058">
        <ele>129</ele>
        <time>2025-03-23T09:58:30Z</time>
      </trkpt>
      <trkpt lat="43.62828" lon="1.40058">
        <ele>129</ele>
        <time>2025-03-23T09:58:31Z</time>
      </trkpt>
      <trkpt lat="43.62825" lon="1.40058">
        <ele>129</ele>
        <time>2025-03-23T09:58:32Z</time>
      </trkpt>
      <trkpt lat="43.62822" lon="1.40057">
        <ele>129</ele>
        <time>2025-03-23T09:58:33Z</time>
      </trkpt>
      <trkpt lat="43.62819" lon="1.40057">
        <ele>129</ele>
        <time>2025-03-23T09:58:34Z</time>
      </trkpt>
      <trkpt lat="43.62816" lon="1.40057">
        <ele>129</ele>
        <time>2025-03-23T09:58:35Z</time>
      </trkpt>
      <trkpt lat="43.62814" lon="1.40057">
        <ele>129</ele>
        <time>2025-03-23T09:58:36Z</time>
      </trkpt>
      <trkpt lat="43.62812" lon="1.40057">
        <ele>129</ele>
        <time>2025-03-23T09:58:37Z</time>
      </trkpt>
      <trkpt lat="43.6281" lon="1.40057">
        <ele>129</ele>
        <time>2025-03-23T09:58:38Z</time>
      </trkpt>
      <trkpt lat="43.6281" lon="1.40057">
        <ele>129</ele>
        <time>2025-03-23T09:58:39Z</time>
      </trkpt>
      <trkpt lat="43.62806" lon="1.40057">
        <ele>129</ele>
        <time>2025-03-23T09:58:40Z</time>
      </trkpt>
      <trkpt lat="43.62804" lon="1.40057">
        <ele>129</ele>
        <time>2025-03-23T09:58:41Z</time>
      </trkpt>
      <trkpt lat="43.62802" lon="1.40057">
        <ele>129</ele>
        <time>2025-03-23T09:58:42Z</time>
      </trkpt>
      <trkpt lat="43.62798" lon="1.40056">
        <ele>129</ele>
        <time>2025-03-23T09:58:43Z</time>
      </trkpt>
      <trkpt lat="43.62796" lon="1.40056">
        <ele>129</ele>
        <time>2025-03-23T09:58:44Z</time>
      </trkpt>
      <trkpt lat="43.62793" lon="1.40056">
        <ele>129</ele>
        <time>2025-03-23T09:58:45Z</time>
      </trkpt>
      <trkpt lat="43.6279" lon="1.40055">
        <ele>129</ele>
        <time>2025-03-23T09:58:46Z</time>
      </trkpt>
      <trkpt lat="43.62785" lon="1.40055">
        <ele>129</ele>
        <time>2025-03-23T09:58:47Z</time>
      </trkpt>
      <trkpt lat="43.62781" lon="1.40054">
        <ele>129</ele>
        <time>2025-03-23T09:58:48Z</time>
      </trkpt>
      <trkpt lat="43.6278" lon="1.40054">
        <ele>129</ele>
        <time>2025-03-23T09:58:49Z</time>
      </trkpt>
      <trkpt lat="43.62777" lon="1.40053">
        <ele>129</ele>
        <time>2025-03-23T09:58:50Z</time>
      </trkpt>
      <trkpt lat="43.62774" lon="1.40053">
        <ele>129</ele>
        <time>2025-03-23T09:58:51Z</time>
      </trkpt>
      <trkpt lat="43.62771" lon="1.40053">
        <ele>129</ele>
        <time>2025-03-23T09:58:52Z</time>
      </trkpt>
      <trkpt lat="43.62769" lon="1.40053">
        <ele>129</ele>
        <time>2025-03-23T09:58:53Z</time>
      </trkpt>
      <trkpt lat="43.62765" lon="1.40052">
        <ele>129</ele>
        <time>2025-03-23T09:58:54Z</time>
      </trkpt>
      <trkpt lat="43.62764" lon="1.40052">
        <ele>129</ele>
        <time>2025-03-23T09:58:55Z</time>
      </trkpt>
      <trkpt lat="43.62761" lon="1.40052">
        <ele>129</ele>
        <time>2025-03-23T09:58:56Z</time>
      </trkpt>
      <trkpt lat="43.62759" lon="1.40051">
        <ele>129</ele>
        <time>2025-03-23T09:58:57Z</time>
      </trkpt>
      <trkpt lat="43.62756" lon="1.40051">
        <ele>129</ele>
        <time>2025-03-23T09:58:58Z</time>
      </trkpt>
      <trkpt lat="43.62752" lon="1.40051">
        <ele>129</ele>
        <time>2025-03-23T09:58:59Z</time>
      </trkpt>
      <trkpt lat="43.6275" lon="1.40051">
        <ele>129</ele>
        <time>2025-03-23T09:59:00Z</time>
      </trkpt>
      <trkpt lat="43.62746" lon="1.4005">
        <ele>129</ele>
        <time>2025-03-23T09:59:01Z</time>
      </trkpt>
      <trkpt lat="43.62744" lon="1.40049">
        <ele>129</ele>
        <time>2025-03-23T09:59:02Z</time>
      </trkpt>
      <trkpt lat="43.62742" lon="1.40049">
        <ele>129</ele>
        <time>2025-03-23T09:59:03Z</time>
      </trkpt>
      <trkpt lat="43.62739" lon="1.40049">
        <ele>129</ele>
        <time>2025-03-23T09:59:04Z</time>
      </trkpt>
      <trkpt lat="43.62736" lon="1.40049">
        <ele>129</ele>
        <time>2025-03-23T09:59:05Z</time>
      </trkpt>
      <trkpt lat="43.62732" lon="1.40048">
        <ele>129</ele>
        <time>2025-03-23T09:59:06Z</time>
      </trkpt>
      <trkpt lat="43.62731" lon="1.40048">
        <ele>129</ele>
        <time>2025-03-23T09:59:07Z</time>
      </trkpt>
      <trkpt lat="43.62729" lon="1.40048">
        <ele>129</ele>
        <time>2025-03-23T09:59:08Z</time>
      </trkpt>
      <trkpt lat="43.62727" lon="1.40047">
        <ele>129</ele>
        <time>2025-03-23T09:59:09Z</time>
      </trkpt>
      <trkpt lat="43.62725" lon="1.40047">
        <ele>129</ele>
        <time>2025-03-23T09:59:10Z</time>
      </trkpt>
      <trkpt lat="43.62722" lon="1.40047">
        <ele>129</ele>
        <time>2025-03-23T09:59:11Z</time>
      </trkpt>
      <trkpt lat="43.6272" lon="1.40046">
        <ele>129</ele>
        <time>2025-03-23T09:59:12Z</time>
      </trkpt>
      <trkpt lat="43.62716" lon="1.40046">
        <ele>129</ele>
        <time>2025-03-23T09:59:14Z</time>
      </trkpt>
      <trkpt lat="43.62714" lon="1.40046">
        <ele>129</ele>
        <time>2025-03-23T09:59:15Z</time>
      </trkpt>
      <trkpt lat="43.62711" lon="1.40046">
        <ele>129</ele>
        <time>2025-03-23T09:59:16Z</time>
      </trkpt>
      <trkpt lat="43.62709" lon="1.40045">
        <ele>129</ele>
        <time>2025-03-23T09:59:17Z</time>
      </trkpt>
      <trkpt lat="43.62707" lon="1.40045">
        <ele>129</ele>
        <time>2025-03-23T09:59:18Z</time>
      </trkpt>
      <trkpt lat="43.62704" lon="1.40045">
        <ele>129</ele>
        <time>2025-03-23T09:59:19Z</time>
      </trkpt>
      <trkpt lat="43.62702" lon="1.40044">
        <ele>129</ele>
        <time>2025-03-23T09:59:20Z</time>
      </trkpt>
      <trkpt lat="43.62699" lon="1.40043">
        <ele>129</ele>
        <time>2025-03-23T09:59:21Z</time>
      </trkpt>
      <trkpt lat="43.62697" lon="1.40043">
        <ele>130</ele>
        <time>2025-03-23T09:59:22Z</time>
      </trkpt>
      <trkpt lat="43.62695" lon="1.40043">
        <ele>130</ele>
        <time>2025-03-23T09:59:23Z</time>
      </trkpt>
      <trkpt lat="43.62692" lon="1.40043">
        <ele>130</ele>
        <time>2025-03-23T09:59:24Z</time>
      </trkpt>
      <trkpt lat="43.6269" lon="1.40043">
        <ele>130</ele>
        <time>2025-03-23T09:59:25Z</time>
      </trkpt>
      <trkpt lat="43.62686" lon="1.40043">
        <ele>130</ele>
        <time>2025-03-23T09:59:26Z</time>
      </trkpt>
      <trkpt lat="43.62683" lon="1.40043">
        <ele>130</ele>
        <time>2025-03-23T09:59:27Z</time>
      </trkpt>
      <trkpt lat="43.62681" lon="1.40043">
        <ele>130</ele>
        <time>2025-03-23T09:59:28Z</time>
      </trkpt>
      <trkpt lat="43.62678" lon="1.40043">
        <ele>130</ele>
        <time>2025-03-23T09:59:29Z</time>
      </trkpt>
      <trkpt lat="43.62675" lon="1.40043">
        <ele>130</ele>
        <time>2025-03-23T09:59:30Z</time>
      </trkpt>
      <trkpt lat="43.62672" lon="1.40043">
        <ele>130</ele>
        <time>2025-03-23T09:59:31Z</time>
      </trkpt>
      <trkpt lat="43.62669" lon="1.40042">
        <ele>130</ele>
        <time>2025-03-23T09:59:32Z</time>
      </trkpt>
      <trkpt lat="43.62668" lon="1.40042">
        <ele>130</ele>
        <time>2025-03-23T09:59:33Z</time>
      </trkpt>
      <trkpt lat="43.62666" lon="1.40042">
        <ele>130</ele>
        <time>2025-03-23T09:59:34Z</time>
      </trkpt>
      <trkpt lat="43.62663" lon="1.40042">
        <ele>130</ele>
        <time>2025-03-23T09:59:35Z</time>
      </trkpt>
      <trkpt lat="43.6266" lon="1.40041">
        <ele>130</ele>
        <time>2025-03-23T09:59:36Z</time>
      </trkpt>
      <trkpt lat="43.62657" lon="1.40041">
        <ele>130</ele>
        <time>2025-03-23T09:59:37Z</time>
      </trkpt>
      <trkpt lat="43.62656" lon="1.40041">
        <ele>130</ele>
        <time>2025-03-23T09:59:38Z</time>
      </trkpt>
      <trkpt lat="43.62654" lon="1.4004">
        <ele>130</ele>
        <time>2025-03-23T09:59:39Z</time>
      </trkpt>
      <trkpt lat="43.62651" lon="1.4004">
        <ele>130</ele>
        <time>2025-03-23T09:59:40Z</time>
      </trkpt>
      <trkpt lat="43.62648" lon="1.40039">
        <ele>130</ele>
        <time>2025-03-23T09:59:41Z</time>
      </trkpt>
      <trkpt lat="43.62646" lon="1.40039">
        <ele>130</ele>
        <time>2025-03-23T09:59:42Z</time>
      </trkpt>
      <trkpt lat="43.62643" lon="1.40039">
        <ele>130</ele>
        <time>2025-03-23T09:59:43Z</time>
      </trkpt>
      <trkpt lat="43.62641" lon="1.40039">
        <ele>130</ele>
        <time>2025-03-23T09:59:44Z</time>
      </trkpt>
      <trkpt lat="43.62639" lon="1.40039">
        <ele>130</ele>
        <time>2025-03-23T09:59:45Z</time>
      </trkpt>
      <trkpt lat="43.62636" lon="1.40039">
        <ele>130</ele>
        <time>2025-03-23T09:59:46Z</time>
      </trkpt>
      <trkpt lat="43.62633" lon="1.40038">
        <ele>130</ele>
        <time>2025-03-23T09:59:47Z</time>
      </trkpt>
      <trkpt lat="43.6263" lon="1.40038">
        <ele>130</ele>
        <time>2025-03-23T09:59:48Z</time>
      </trkpt>
      <trkpt lat="43.62628" lon="1.40037">
        <ele>130</ele>
        <time>2025-03-23T09:59:49Z</time>
      </trkpt>
      <trkpt lat="43.62626" lon="1.40037">
        <ele>130</ele>
        <time>2025-03-23T09:59:50Z</time>
      </trkpt>
      <trkpt lat="43.62622" lon="1.40037">
        <ele>130</ele>
        <time>2025-03-23T09:59:51Z</time>
      </trkpt>
      <trkpt lat="43.62621" lon="1.40037">
        <ele>130</ele>
        <time>2025-03-23T09:59:52Z</time>
      </trkpt>
      <trkpt lat="43.62619" lon="1.40037">
        <ele>130</ele>
        <time>2025-03-23T09:59:53Z</time>
      </trkpt>
      <trkpt lat="43.62617" lon="1.40037">
        <ele>130</ele>
        <time>2025-03-23T09:59:54Z</time>
      </trkpt>
      <trkpt lat="43.62615" lon="1.40037">
        <ele>130</ele>
        <time>2025-03-23T09:59:55Z</time>
      </trkpt>
      <trkpt lat="43.62612" lon="1.40037">
        <ele>130</ele>
        <time>2025-03-23T09:59:56Z</time>
      </trkpt>
      <trkpt lat="43.62609" lon="1.40037">
        <ele>130</ele>
        <time>2025-03-23T09:59:57Z</time>
      </trkpt>
      <trkpt lat="43.62606" lon="1.40036">
        <ele>130</ele>
        <time>2025-03-23T09:59:58Z</time>
      </trkpt>
      <trkpt lat="43.62602" lon="1.40035">
        <ele>130</ele>
        <time>2025-03-23T09:59:59Z</time>
      </trkpt>
      <trkpt lat="43.626" lon="1.40035">
        <ele>130</ele>
        <time>2025-03-23T10:00:00Z</time>
      </trkpt>
      <trkpt lat="43.62598" lon="1.40034">
        <ele>130</ele>
        <time>2025-03-23T10:00:01Z</time>
      </trkpt>
      <trkpt lat="43.62595" lon="1.40034">
        <ele>129</ele>
        <time>2025-03-23T10:00:02Z</time>
      </trkpt>
      <trkpt lat="43.62591" lon="1.40033">
        <ele>129</ele>
        <time>2025-03-23T10:00:03Z</time>
      </trkpt>
      <trkpt lat="43.6259" lon="1.40032">
        <ele>129</ele>
        <time>2025-03-23T10:00:04Z</time>
      </trkpt>
      <trkpt lat="43.62587" lon="1.40032">
        <ele>129</ele>
        <time>2025-03-23T10:00:05Z</time>
      </trkpt>
      <trkpt lat="43.62584" lon="1.40031">
        <ele>130</ele>
        <time>2025-03-23T10:00:06Z</time>
      </trkpt>
      <trkpt lat="43.62581" lon="1.40031">
        <ele>130</ele>
        <time>2025-03-23T10:00:07Z</time>
      </trkpt>
      <trkpt lat="43.62579" lon="1.40031">
        <ele>130</ele>
        <time>2025-03-23T10:00:08Z</time>
      </trkpt>
      <trkpt lat="43.62577" lon="1.40031">
        <ele>130</ele>
        <time>2025-03-23T10:00:09Z</time>
      </trkpt>
      <trkpt lat="43.62573" lon="1.40032">
        <ele>131</ele>
        <time>2025-03-23T10:00:11Z</time>
      </trkpt>
      <trkpt lat="43.6257" lon="1.40032">
        <ele>131</ele>
        <time>2025-03-23T10:00:12Z</time>
      </trkpt>
      <trkpt lat="43.62567" lon="1.40031">
        <ele>131</ele>
        <time>2025-03-23T10:00:13Z</time>
      </trkpt>
      <trkpt lat="43.62564" lon="1.4003">
        <ele>131</ele>
        <time>2025-03-23T10:00:14Z</time>
      </trkpt>
      <trkpt lat="43.62562" lon="1.40029">
        <ele>131</ele>
        <time>2025-03-23T10:00:15Z</time>
      </trkpt>
      <trkpt lat="43.62559" lon="1.4003">
        <ele>131</ele>
        <time>2025-03-23T10:00:16Z</time>
      </trkpt>
      <trkpt lat="43.62555" lon="1.4003">
        <ele>131</ele>
        <time>2025-03-23T10:00:17Z</time>
      </trkpt>
      <trkpt lat="43.62554" lon="1.4003">
        <ele>131</ele>
        <time>2025-03-23T10:00:18Z</time>
      </trkpt>
      <trkpt lat="43.6255" lon="1.40029">
        <ele>131</ele>
        <time>2025-03-23T10:00:19Z</time>
      </trkpt>
      <trkpt lat="43.62549" lon="1.40029">
        <ele>131</ele>
        <time>2025-03-23T10:00:20Z</time>
      </trkpt>
      <trkpt lat="43.62547" lon="1.40029">
        <ele>131</ele>
        <time>2025-03-23T10:00:21Z</time>
      </trkpt>
      <trkpt lat="43.62544" lon="1.40029">
        <ele>131</ele>
        <time>2025-03-23T10:00:22Z</time>
      </trkpt>
      <trkpt lat="43.62542" lon="1.40028">
        <ele>131</ele>
        <time>2025-03-23T10:00:23Z</time>
      </trkpt>
      <trkpt lat="43.6254" lon="1.40028">
        <ele>131</ele>
        <time>2025-03-23T10:00:24Z</time>
      </trkpt>
      <trkpt lat="43.62537" lon="1.40028">
        <ele>131</ele>
        <time>2025-03-23T10:00:25Z</time>
      </trkpt>
      <trkpt lat="43.62535" lon="1.40027">
        <ele>131</ele>
        <time>2025-03-23T10:00:26Z</time>
      </trkpt>
      <trkpt lat="43.62532" lon="1.40027">
        <ele>131</ele>
        <time>2025-03-23T10:00:27Z</time>
      </trkpt>
      <trkpt lat="43.62529" lon="1.40026">
        <ele>131</ele>
        <time>2025-03-23T10:00:28Z</time>
      </trkpt>
      <trkpt lat="43.62525" lon="1.40025">
        <ele>131</ele>
        <time>2025-03-23T10:00:29Z</time>
      </trkpt>
      <trkpt lat="43.62523" lon="1.40025">
        <ele>131</ele>
        <time>2025-03-23T10:00:30Z</time>
      </trkpt>
      <trkpt lat="43.6252" lon="1.40025">
        <ele>131</ele>
        <time>2025-03-23T10:00:31Z</time>
      </trkpt>
      <trkpt lat="43.62518" lon="1.40025">
        <ele>131</ele>
        <time>2025-03-23T10:00:32Z</time>
      </trkpt>
      <trkpt lat="43.62516" lon="1.40024">
        <ele>131</ele>
        <time>2025-03-23T10:00:33Z</time>
      </trkpt>
      <trkpt lat="43.62516" lon="1.40024">
        <ele>131</ele>
        <time>2025-03-23T10:00:34Z</time>
      </trkpt>
      <trkpt lat="43.62513" lon="1.40024">
        <ele>131</ele>
        <time>2025-03-23T10:00:35Z</time>
      </trkpt>
      <trkpt lat="43.62513" lon="1.40024">
        <ele>131</ele>
        <time>2025-03-23T10:00:36Z</time>
      </trkpt>
      <trkpt lat="43.6251" lon="1.40025">
        <ele>131</ele>
        <time>2025-03-23T10:00:37Z</time>
      </trkpt>
      <trkpt lat="43.62507" lon="1.40025">
        <ele>131</ele>
        <time>2025-03-23T10:00:38Z</time>
      </trkpt>
      <trkpt lat="43.62504" lon="1.40025">
        <ele>131</ele>
        <time>2025-03-23T10:00:39Z</time>
      </trkpt>
      <trkpt lat="43.62502" lon="1.40024">
        <ele>131</ele>
        <time>2025-03-23T10:00:40Z</time>
      </trkpt>
      <trkpt lat="43.625" lon="1.4002">
        <ele>131</ele>
        <time>2025-03-23T10:00:41Z</time>
      </trkpt>
      <trkpt lat="43.625" lon="1.40018">
        <ele>131</ele>
        <time>2025-03-23T10:00:42Z</time>
      </trkpt>
      <trkpt lat="43.62499" lon="1.40015">
        <ele>131</ele>
        <time>2025-03-23T10:00:43Z</time>
      </trkpt>
      <trkpt lat="43.62499" lon="1.40011">
        <ele>131</ele>
        <time>2025-03-23T10:00:44Z</time>
      </trkpt>
      <trkpt lat="43.62499" lon="1.40008">
        <ele>131</ele>
        <time>2025-03-23T10:00:45Z</time>
      </trkpt>
      <trkpt lat="43.62498" lon="1.40004">
        <ele>132</ele>
        <time>2025-03-23T10:00:46Z</time>
      </trkpt>
      <trkpt lat="43.62497" lon="1.40001">
        <ele>132</ele>
        <time>2025-03-23T10:00:47Z</time>
      </trkpt>
      <trkpt lat="43.62496" lon="1.39996">
        <ele>132</ele>
        <time>2025-03-23T10:00:48Z</time>
      </trkpt>
      <trkpt lat="43.62496" lon="1.39994">
        <ele>133</ele>
        <time>2025-03-23T10:00:49Z</time>
      </trkpt>
      <trkpt lat="43.62495" lon="1.39991">
        <ele>133</ele>
        <time>2025-03-23T10:00:50Z</time>
      </trkpt>
      <trkpt lat="43.62494" lon="1.39987">
        <ele>134</ele>
        <time>2025-03-23T10:00:51Z</time>
      </trkpt>
      <trkpt lat="43.62493" lon="1.39983">
        <ele>134</ele>
        <time>2025-03-23T10:00:52Z</time>
      </trkpt>
      <trkpt lat="43.62493" lon="1.39977">
        <ele>134</ele>
        <time>2025-03-23T10:00:53Z</time>
      </trkpt>
      <trkpt lat="43.62493" lon="1.39975">
        <ele>134</ele>
        <time>2025-03-23T10:00:54Z</time>
      </trkpt>
      <trkpt lat="43.62492" lon="1.39971">
        <ele>134</ele>
        <time>2025-03-23T10:00:55Z</time>
      </trkpt>
      <trkpt lat="43.62492" lon="1.39969">
        <ele>134</ele>
        <time>2025-03-23T10:00:56Z</time>
      </trkpt>
      <trkpt lat="43.62492" lon="1.39969">
        <ele>134</ele>
        <time>2025-03-23T10:00:57Z</time>
      </trkpt>
      <trkpt lat="43.62492" lon="1.39969">
        <ele>134</ele>
        <time>2025-03-23T10:00:58Z</time>
      </trkpt>
      <trkpt lat="43.6249" lon="1.39973">
        <ele>134</ele>
        <time>2025-03-23T10:00:59Z</time>
      </trkpt>
      <trkpt lat="43.62489" lon="1.39979">
        <ele>134</ele>
        <time>2025-03-23T10:01:00Z</time>
      </trkpt>
      <trkpt lat="43.62489" lon="1.39981">
        <ele>134</ele>
        <time>2025-03-23T10:01:01Z</time>
      </trkpt>
      <trkpt lat="43.62488" lon="1.39983">
        <ele>135</ele>
        <time>2025-03-23T10:01:02Z</time>
      </trkpt>
      <trkpt lat="43.62488" lon="1.39987">
        <ele>136</ele>
        <time>2025-03-23T10:01:03Z</time>
      </trkpt>
      <trkpt lat="43.62487" lon="1.39992">
        <ele>136</ele>
        <time>2025-03-23T10:01:04Z</time>
      </trkpt>
      <trkpt lat="43.62487" lon="1.39994">
        <ele>136</ele>
        <time>2025-03-23T10:01:05Z</time>
      </trkpt>
      <trkpt lat="43.62486" lon="1.39997">
        <ele>136</ele>
        <time>2025-03-23T10:01:06Z</time>
      </trkpt>
      <trkpt lat="43.62486" lon="1.40002">
        <ele>136</ele>
        <time>2025-03-23T10:01:07Z</time>
      </trkpt>
      <trkpt lat="43.62485" lon="1.40004">
        <ele>136</ele>
        <time>2025-03-23T10:01:08Z</time>
      </trkpt>
      <trkpt lat="43.62485" lon="1.40008">
        <ele>136</ele>
        <time>2025-03-23T10:01:09Z</time>
      </trkpt>
      <trkpt lat="43.62485" lon="1.40011">
        <ele>136</ele>
        <time>2025-03-23T10:01:10Z</time>
      </trkpt>
      <trkpt lat="43.62485" lon="1.40015">
        <ele>136</ele>
        <time>2025-03-23T10:01:11Z</time>
      </trkpt>
      <trkpt lat="43.62485" lon="1.40018">
        <ele>136</ele>
        <time>2025-03-23T10:01:12Z</time>
      </trkpt>
      <trkpt lat="43.62484" lon="1.40022">
        <ele>136</ele>
        <time>2025-03-23T10:01:13Z</time>
      </trkpt>
      <trkpt lat="43.62484" lon="1.40026">
        <ele>136</ele>
        <time>2025-03-23T10:01:14Z</time>
      </trkpt>
      <trkpt lat="43.62483" lon="1.40028">
        <ele>136</ele>
        <time>2025-03-23T10:01:15Z</time>
      </trkpt>
      <trkpt lat="43.62484" lon="1.40031">
        <ele>137</ele>
        <time>2025-03-23T10:01:16Z</time>
      </trkpt>
      <trkpt lat="43.62484" lon="1.40034">
        <ele>137</ele>
        <time>2025-03-23T10:01:17Z</time>
      </trkpt>
      <trkpt lat="43.62483" lon="1.40038">
        <ele>137</ele>
        <time>2025-03-23T10:01:18Z</time>
      </trkpt>
      <trkpt lat="43.62484" lon="1.40041">
        <ele>137</ele>
        <time>2025-03-23T10:01:19Z</time>
      </trkpt>
      <trkpt lat="43.62484" lon="1.40045">
        <ele>137</ele>
        <time>2025-03-23T10:01:20Z</time>
      </trkpt>
      <trkpt lat="43.62484" lon="1.40048">
        <ele>137</ele>
        <time>2025-03-23T10:01:21Z</time>
      </trkpt>
      <trkpt lat="43.62484" lon="1.40053">
        <ele>137</ele>
        <time>2025-03-23T10:01:22Z</time>
      </trkpt>
      <trkpt lat="43.62484" lon="1.40055">
        <ele>137</ele>
        <time>2025-03-23T10:01:23Z</time>
      </trkpt>
      <trkpt lat="43.62484" lon="1.40059">
        <ele>137</ele>
        <time>2025-03-23T10:01:24Z</time>
      </trkpt>
      <trkpt lat="43.62483" lon="1.40064">
        <ele>137</ele>
        <time>2025-03-23T10:01:25Z</time>
      </trkpt>
      <trkpt lat="43.62483" lon="1.40066">
        <ele>137</ele>
        <time>2025-03-23T10:01:26Z</time>
      </trkpt>
      <trkpt lat="43.62482" lon="1.40069">
        <ele>137</ele>
        <time>2025-03-23T10:01:27Z</time>
      </trkpt>
      <trkpt lat="43.62482" lon="1.40072">
        <ele>137</ele>
        <time>2025-03-23T10:01:28Z</time>
      </trkpt>
      <trkpt lat="43.62482" lon="1.40076">
        <ele>137</ele>
        <time>2025-03-23T10:01:29Z</time>
      </trkpt>
      <trkpt lat="43.62482" lon="1.4008">
        <ele>137</ele>
        <time>2025-03-23T10:01:30Z</time>
      </trkpt>
      <trkpt lat="43.62482" lon="1.40083">
        <ele>138</ele>
        <time>2025-03-23T10:01:31Z</time>
      </trkpt>
      <trkpt lat="43.62481" lon="1.40087">
        <ele>138</ele>
        <time>2025-03-23T10:01:32Z</time>
      </trkpt>
      <trkpt lat="43.62481" lon="1.40091">
        <ele>137</ele>
        <time>2025-03-23T10:01:33Z</time>
      </trkpt>
      <trkpt lat="43.62481" lon="1.40094">
        <ele>137</ele>
        <time>2025-03-23T10:01:34Z</time>
      </trkpt>
      <trkpt lat="43.62481" lon="1.401">
        <ele>137</ele>
        <time>2025-03-23T10:01:35Z</time>
      </trkpt>
      <trkpt lat="43.62481" lon="1.40102">
        <ele>137</ele>
        <time>2025-03-23T10:01:36Z</time>
      </trkpt>
      <trkpt lat="43.6248" lon="1.40106">
        <ele>137</ele>
        <time>2025-03-23T10:01:37Z</time>
      </trkpt>
      <trkpt lat="43.6248" lon="1.4011">
        <ele>138</ele>
        <time>2025-03-23T10:01:38Z</time>
      </trkpt>
      <trkpt lat="43.6248" lon="1.40113">
        <ele>138</ele>
        <time>2025-03-23T10:01:39Z</time>
      </trkpt>
      <trkpt lat="43.6248" lon="1.40119">
        <ele>138</ele>
        <time>2025-03-23T10:01:40Z</time>
      </trkpt>
      <trkpt lat="43.6248" lon="1.40121">
        <ele>138</ele>
        <time>2025-03-23T10:01:41Z</time>
      </trkpt>
      <trkpt lat="43.6248" lon="1.40124">
        <ele>138</ele>
        <time>2025-03-23T10:01:42Z</time>
      </trkpt>
      <trkpt lat="43.6248" lon="1.4013">
        <ele>137</ele>
        <time>2025-03-23T10:01:43Z</time>
      </trkpt>
      <trkpt lat="43.6248" lon="1.40132">
        <ele>137</ele>
        <time>2025-03-23T10:01:44Z</time>
      </trkpt>
      <trkpt lat="43.62479" lon="1.40137">
        <ele>137</ele>
        <time>2025-03-23T10:01:45Z</time>
      </trkpt>
      <trkpt lat="43.62479" lon="1.40139">
        <ele>138</ele>
        <time>2025-03-23T10:01:46Z</time>
      </trkpt>
      <trkpt lat="43.62479" lon="1.40142">
        <ele>138</ele>
        <time>2025-03-23T10:01:47Z</time>
      </trkpt>
      <trkpt lat="43.62479" lon="1.40146">
        <ele>138</ele>
        <time>2025-03-23T10:01:48Z</time>
      </trkpt>
      <trkpt lat="43.62478" lon="1.4015">
        <ele>138</ele>
        <time>2025-03-23T10:01:49Z</time>
      </trkpt>
      <trkpt lat="43.62478" lon="1.40154">
        <ele>138</ele>
        <time>2025-03-23T10:01:50Z</time>
      </trkpt>
      <trkpt lat="43.62477" lon="1.40157">
        <ele>138</ele>
        <time>2025-03-23T10:01:51Z</time>
      </trkpt>
      <trkpt lat="43.62477" lon="1.40161">
        <ele>138</ele>
        <time>2025-03-23T10:01:52Z</time>
      </trkpt>
      <trkpt lat="43.62477" lon="1.40165">
        <ele>138</ele>
        <time>2025-03-23T10:01:53Z</time>
      </trkpt>
      <trkpt lat="43.62477" lon="1.40169">
        <ele>138</ele>
        <time>2025-03-23T10:01:54Z</time>
      </trkpt>
      <trkpt lat="43.62477" lon="1.40172">
        <ele>138</ele>
        <time>2025-03-23T10:01:55Z</time>
      </trkpt>
      <trkpt lat="43.62476" lon="1.40176">
        <ele>138</ele>
        <time>2025-03-23T10:01:56Z</time>
      </trkpt>
      <trkpt lat="43.62476" lon="1.4018">
        <ele>137</ele>
        <time>2025-03-23T10:01:57Z</time>
      </trkpt>
      <trkpt lat="43.62475" lon="1.40183">
        <ele>137</ele>
        <time>2025-03-23T10:01:58Z</time>
      </trkpt>
      <trkpt lat="43.62475" lon="1.40189">
        <ele>137</ele>
        <time>2025-03-23T10:01:59Z</time>
      </trkpt>
      <trkpt lat="43.62475" lon="1.4019">
        <ele>137</ele>
        <time>2025-03-23T10:02:00Z</time>
      </trkpt>
      <trkpt lat="43.62475" lon="1.40194">
        <ele>137</ele>
        <time>2025-03-23T10:02:01Z</time>
      </trkpt>
      <trkpt lat="43.62475" lon="1.40198">
        <ele>137</ele>
        <time>2025-03-23T10:02:02Z</time>
      </trkpt>
      <trkpt lat="43.62474" lon="1.40201">
        <ele>137</ele>
        <time>2025-03-23T10:02:03Z</time>
      </trkpt>
      <trkpt lat="43.62474" lon="1.40206">
        <ele>137</ele>
        <time>2025-03-23T10:02:04Z</time>
      </trkpt>
      <trkpt lat="43.62475" lon="1.40208">
        <ele>137</ele>
        <time>2025-03-23T10:02:05Z</time>
      </trkpt>
      <trkpt lat="43.62475" lon="1.40212">
        <ele>137</ele>
        <time>2025-03-23T10:02:06Z</time>
      </trkpt>
      <trkpt lat="43.62475" lon="1.40218">
        <ele>137</ele>
        <time>2025-03-23T10:02:07Z</time>
      </trkpt>
      <trkpt lat="43.62475" lon="1.4022">
        <ele>137</ele>
        <time>2025-03-23T10:02:08Z</time>
      </trkpt>
      <trkpt lat="43.62475" lon="1.40223">
        <ele>137</ele>
        <time>2025-03-23T10:02:09Z</time>
      </trkpt>
      <trkpt lat="43.62475" lon="1.40227">
        <ele>137</ele>
        <time>2025-03-23T10:02:10Z</time>
      </trkpt>
      <trkpt lat="43.62475" lon="1.40231">
        <ele>136</ele>
        <time>2025-03-23T10:02:11Z</time>
      </trkpt>
      <trkpt lat="43.62475" lon="1.40234">
        <ele>136</ele>
        <time>2025-03-23T10:02:12Z</time>
      </trkpt>
      <trkpt lat="43.62475" lon="1.40238">
        <ele>136</ele>
        <time>2025-03-23T10:02:13Z</time>
      </trkpt>
      <trkpt lat="43.62475" lon="1.40243">
        <ele>136</ele>
        <time>2025-03-23T10:02:14Z</time>
      </trkpt>
      <trkpt lat="43.62475" lon="1.40244">
        <ele>136</ele>
        <time>2025-03-23T10:02:15Z</time>
      </trkpt>
      <trkpt lat="43.62474" lon="1.40248">
        <ele>136</ele>
        <time>2025-03-23T10:02:16Z</time>
      </trkpt>
      <trkpt lat="43.62474" lon="1.40252">
        <ele>136</ele>
        <time>2025-03-23T10:02:17Z</time>
      </trkpt>
      <trkpt lat="43.62474" lon="1.40256">
        <ele>136</ele>
        <time>2025-03-23T10:02:18Z</time>
      </trkpt>
      <trkpt lat="43.62474" lon="1.40256">
        <ele>135</ele>
        <time>2025-03-23T10:02:19Z</time>
      </trkpt>
      <trkpt lat="43.62474" lon="1.40256">
        <ele>135</ele>
        <time>2025-03-23T10:02:20Z</time>
      </trkpt>
      <trkpt lat="43.62474" lon="1.40256">
        <ele>135</ele>
        <time>2025-03-23T10:02:21Z</time>
      </trkpt>
      <trkpt lat="43.62476" lon="1.40252">
        <ele>135</ele>
        <time>2025-03-23T10:02:22Z</time>
      </trkpt>
      <trkpt lat="43.62478" lon="1.40247">
        <ele>135</ele>
        <time>2025-03-23T10:02:23Z</time>
      </trkpt>
      <trkpt lat="43.62479" lon="1.40246">
        <ele>135</ele>
        <time>2025-03-23T10:02:24Z</time>
      </trkpt>
      <trkpt lat="43.62483" lon="1.40245">
        <ele>135</ele>
        <time>2025-03-23T10:02:25Z</time>
      </trkpt>
      <trkpt lat="43.62484" lon="1.40245">
        <ele>135</ele>
        <time>2025-03-23T10:02:26Z</time>
      </trkpt>
      <trkpt lat="43.62486" lon="1.40245">
        <ele>134</ele>
        <time>2025-03-23T10:02:27Z</time>
      </trkpt>
      <trkpt lat="43.62489" lon="1.40245">
        <ele>133</ele>
        <time>2025-03-23T10:02:28Z</time>
      </trkpt>
      <trkpt lat="43.62492" lon="1.40244">
        <ele>133</ele>
        <time>2025-03-23T10:02:29Z</time>
      </trkpt>
      <trkpt lat="43.62494" lon="1.40242">
        <ele>133</ele>
        <time>2025-03-23T10:02:30Z</time>
      </trkpt>
      <trkpt lat="43.62497" lon="1.40241">
        <ele>133</ele>
        <time>2025-03-23T10:02:31Z</time>
      </trkpt>
      <trkpt lat="43.62501" lon="1.40239">
        <ele>133</ele>
        <time>2025-03-23T10:02:32Z</time>
      </trkpt>
      <trkpt lat="43.62502" lon="1.40239">
        <ele>133</ele>
        <time>2025-03-23T10:02:33Z</time>
      </trkpt>
      <trkpt lat="43.62505" lon="1.40238">
        <ele>133</ele>
        <time>2025-03-23T10:02:34Z</time>
      </trkpt>
      <trkpt lat="43.62508" lon="1.40237">
        <ele>133</ele>
        <time>2025-03-23T10:02:35Z</time>
      </trkpt>
      <trkpt lat="43.6251" lon="1.40237">
        <ele>132</ele>
        <time>2025-03-23T10:02:36Z</time>
      </trkpt>
      <trkpt lat="43.62512" lon="1.40236">
        <ele>132</ele>
        <time>2025-03-23T10:02:37Z</time>
      </trkpt>
      <trkpt lat="43.62515" lon="1.40236">
        <ele>132</ele>
        <time>2025-03-23T10:02:38Z</time>
      </trkpt>
      <trkpt lat="43.62518" lon="1.40234">
        <ele>132</ele>
        <time>2025-03-23T10:02:39Z</time>
      </trkpt>
      <trkpt lat="43.6252" lon="1.40233">
        <ele>132</ele>
        <time>2025-03-23T10:02:40Z</time>
      </trkpt>
      <trkpt lat="43.62521" lon="1.40232">
        <ele>131</ele>
        <time>2025-03-23T10:02:41Z</time>
      </trkpt>
      <trkpt lat="43.62524" lon="1.4023">
        <ele>131</ele>
        <time>2025-03-23T10:02:42Z</time>
      </trkpt>
      <trkpt lat="43.62525" lon="1.40229">
        <ele>131</ele>
        <time>2025-03-23T10:02:43Z</time>
      </trkpt>
      <trkpt lat="43.62527" lon="1.40227">
        <ele>131</ele>
        <time>2025-03-23T10:02:44Z</time>
      </trkpt>
      <trkpt lat="43.6253" lon="1.40224">
        <ele>130</ele>
        <time>2025-03-23T10:02:45Z</time>
      </trkpt>
      <trkpt lat="43.62531" lon="1.40223">
        <ele>130</ele>
        <time>2025-03-23T10:02:46Z</time>
      </trkpt>
      <trkpt lat="43.62533" lon="1.40221">
        <ele>131</ele>
        <time>2025-03-23T10:02:47Z</time>
      </trkpt>
      <trkpt lat="43.62535" lon="1.40219">
        <ele>130</ele>
        <time>2025-03-23T10:02:48Z</time>
      </trkpt>
      <trkpt lat="43.62537" lon="1.40217">
        <ele>130</ele>
        <time>2025-03-23T10:02:49Z</time>
      </trkpt>
      <trkpt lat="43.62539" lon="1.40215">
        <ele>130</ele>
        <time>2025-03-23T10:02:50Z</time>
      </trkpt>
      <trkpt lat="43.62541" lon="1.40214">
        <ele>130</ele>
        <time>2025-03-23T10:02:51Z</time>
      </trkpt>
      <trkpt lat="43.62545" lon="1.40212">
        <ele>130</ele>
        <time>2025-03-23T10:02:52Z</time>
      </trkpt>
      <trkpt lat="43.62546" lon="1.40212">
        <ele>130</ele>
        <time>2025-03-23T10:02:53Z</time>
      </trkpt>
      <trkpt lat="43.62549" lon="1.40212">
        <ele>130</ele>
        <time>2025-03-23T10:02:54Z</time>
      </trkpt>
      <trkpt lat="43.62551" lon="1.40212">
        <ele>130</ele>
        <time>2025-03-23T10:02:55Z</time>
      </trkpt>
      <trkpt lat="43.62553" lon="1.40212">
        <ele>130</ele>
        <time>2025-03-23T10:02:56Z</time>
      </trkpt>
      <trkpt lat="43.62556" lon="1.40213">
        <ele>130</ele>
        <time>2025-03-23T10:02:57Z</time>
      </trkpt>
      <trkpt lat="43.62558" lon="1.40214">
        <ele>130</ele>
        <time>2025-03-23T10:02:58Z</time>
      </trkpt>
      <trkpt lat="43.62562" lon="1.40215">
        <ele>130</ele>
        <time>2025-03-23T10:02:59Z</time>
      </trkpt>
      <trkpt lat="43.62563" lon="1.40215">
        <ele>130</ele>
        <time>2025-03-23T10:03:00Z</time>
      </trkpt>
      <trkpt lat="43.62564" lon="1.40216">
        <ele>130</ele>
        <time>2025-03-23T10:03:01Z</time>
      </trkpt>
      <trkpt lat="43.62568" lon="1.40219">
        <ele>130</ele>
        <time>2025-03-23T10:03:02Z</time>
      </trkpt>
      <trkpt lat="43.6257" lon="1.40219">
        <ele>129</ele>
        <time>2025-03-23T10:03:03Z</time>
      </trkpt>
      <trkpt lat="43.62573" lon="1.4022">
        <ele>129</ele>
        <time>2025-03-23T10:03:04Z</time>
      </trkpt>
      <trkpt lat="43.62577" lon="1.40221">
        <ele>129</ele>
        <time>2025-03-23T10:03:05Z</time>
      </trkpt>
      <trkpt lat="43.6258" lon="1.40222">
        <ele>129</ele>
        <time>2025-03-23T10:03:06Z</time>
      </trkpt>
      <trkpt lat="43.62582" lon="1.40223">
        <ele>129</ele>
        <time>2025-03-23T10:03:07Z</time>
      </trkpt>
      <trkpt lat="43.62584" lon="1.40223">
        <ele>129</ele>
        <time>2025-03-23T10:03:08Z</time>
      </trkpt>
      <trkpt lat="43.62587" lon="1.40223">
        <ele>129</ele>
        <time>2025-03-23T10:03:09Z</time>
      </trkpt>
      <trkpt lat="43.62589" lon="1.40223">
        <ele>129</ele>
        <time>2025-03-23T10:03:10Z</time>
      </trkpt>
      <trkpt lat="43.62592" lon="1.40223">
        <ele>129</ele>
        <time>2025-03-23T10:03:11Z</time>
      </trkpt>
      <trkpt lat="43.62594" lon="1.40223">
        <ele>129</ele>
        <time>2025-03-23T10:03:12Z</time>
      </trkpt>
      <trkpt lat="43.62597" lon="1.40223">
        <ele>129</ele>
        <time>2025-03-23T10:03:13Z</time>
      </trkpt>
      <trkpt lat="43.626" lon="1.40223">
        <ele>129</ele>
        <time>2025-03-23T10:03:14Z</time>
      </trkpt>
      <trkpt lat="43.62601" lon="1.40223">
        <ele>129</ele>
        <time>2025-03-23T10:03:15Z</time>
      </trkpt>
      <trkpt lat="43.62604" lon="1.40223">
        <ele>129</ele>
        <time>2025-03-23T10:03:16Z</time>
      </trkpt>
      <trkpt lat="43.62606" lon="1.40223">
        <ele>129</ele>
        <time>2025-03-23T10:03:17Z</time>
      </trkpt>
      <trkpt lat="43.62609" lon="1.40223">
        <ele>129</ele>
        <time>2025-03-23T10:03:18Z</time>
      </trkpt>
      <trkpt lat="43.62611" lon="1.40224">
        <ele>129</ele>
        <time>2025-03-23T10:03:19Z</time>
      </trkpt>
      <trkpt lat="43.62615" lon="1.40224">
        <ele>129</ele>
        <time>2025-03-23T10:03:20Z</time>
      </trkpt>
      <trkpt lat="43.62617" lon="1.40224">
        <ele>129</ele>
        <time>2025-03-23T10:03:21Z</time>
      </trkpt>
      <trkpt lat="43.62619" lon="1.40225">
        <ele>129</ele>
        <time>2025-03-23T10:03:22Z</time>
      </trkpt>
      <trkpt lat="43.62622" lon="1.40225">
        <ele>129</ele>
        <time>2025-03-23T10:03:23Z</time>
      </trkpt>
      <trkpt lat="43.62624" lon="1.40225">
        <ele>128</ele>
        <time>2025-03-23T10:03:24Z</time>
      </trkpt>
      <trkpt lat="43.62628" lon="1.40225">
        <ele>128</ele>
        <time>2025-03-23T10:03:25Z</time>
      </trkpt>
      <trkpt lat="43.62629" lon="1.40225">
        <ele>128</ele>
        <time>2025-03-23T10:03:26Z</time>
      </trkpt>
      <trkpt lat="43.62632" lon="1.40226">
        <ele>128</ele>
        <time>2025-03-23T10:03:27Z</time>
      </trkpt>
      <trkpt lat="43.62635" lon="1.40226">
        <ele>128</ele>
        <time>2025-03-23T10:03:28Z</time>
      </trkpt>
      <trkpt lat="43.62638" lon="1.40225">
        <ele>128</ele>
        <time>2025-03-23T10:03:29Z</time>
      </trkpt>
      <trkpt lat="43.62642" lon="1.40226">
        <ele>128</ele>
        <time>2025-03-23T10:03:30Z</time>
      </trkpt>
      <trkpt lat="43.62643" lon="1.40227">
        <ele>128</ele>
        <time>2025-03-23T10:03:31Z</time>
      </trkpt>
      <trkpt lat="43.62646" lon="1.40227">
        <ele>129</ele>
        <time>2025-03-23T10:03:32Z</time>
      </trkpt>
      <trkpt lat="43.62649" lon="1.40228">
        <ele>129</ele>
        <time>2025-03-23T10:03:33Z</time>
      </trkpt>
      <trkpt lat="43.62652" lon="1.4023">
        <ele>129</ele>
        <time>2025-03-23T10:03:34Z</time>
      </trkpt>
      <trkpt lat="43.62654" lon="1.4023">
        <ele>129</ele>
        <time>2025-03-23T10:03:35Z</time>
      </trkpt>
      <trkpt lat="43.62657" lon="1.40231">
        <ele>129</ele>
        <time>2025-03-23T10:03:36Z</time>
      </trkpt>
      <trkpt lat="43.62661" lon="1.40233">
        <ele>129</ele>
        <time>2025-03-23T10:03:37Z</time>
      </trkpt>
      <trkpt lat="43.62663" lon="1.40234">
        <ele>129</ele>
        <time>2025-03-23T10:03:38Z</time>
      </trkpt>
      <trkpt lat="43.62664" lon="1.40234">
        <ele>129</ele>
        <time>2025-03-23T10:03:39Z</time>
      </trkpt>
      <trkpt lat="43.62667" lon="1.40234">
        <ele>129</ele>
        <time>2025-03-23T10:03:40Z</time>
      </trkpt>
      <trkpt lat="43.6267" lon="1.40235">
        <ele>129</ele>
        <time>2025-03-23T10:03:41Z</time>
      </trkpt>
      <trkpt lat="43.62672" lon="1.40235">
        <ele>129</ele>
        <time>2025-03-23T10:03:42Z</time>
      </trkpt>
      <trkpt lat="43.62675" lon="1.40235">
        <ele>129</ele>
        <time>2025-03-23T10:03:43Z</time>
      </trkpt>
      <trkpt lat="43.62677" lon="1.40236">
        <ele>129</ele>
        <time>2025-03-23T10:03:44Z</time>
      </trkpt>
      <trkpt lat="43.6268" lon="1.40237">
        <ele>129</ele>
        <time>2025-03-23T10:03:45Z</time>
      </trkpt>
      <trkpt lat="43.62683" lon="1.40238">
        <ele>129</ele>
        <time>2025-03-23T10:03:46Z</time>
      </trkpt>
      <trkpt lat="43.62686" lon="1.40238">
        <ele>129</ele>
        <time>2025-03-23T10:03:47Z</time>
      </trkpt>
      <trkpt lat="43.62689" lon="1.40238">
        <ele>128</ele>
        <time>2025-03-23T10:03:48Z</time>
      </trkpt>
      <trkpt lat="43.62691" lon="1.40239">
        <ele>128</ele>
        <time>2025-03-23T10:03:49Z</time>
      </trkpt>
      <trkpt lat="43.62694" lon="1.40239">
        <ele>128</ele>
        <time>2025-03-23T10:03:50Z</time>
      </trkpt>
      <trkpt lat="43.62697" lon="1.4024">
        <ele>128</ele>
        <time>2025-03-23T10:03:51Z</time>
      </trkpt>
      <trkpt lat="43.62699" lon="1.40241">
        <ele>128</ele>
        <time>2025-03-23T10:03:52Z</time>
      </trkpt>
      <trkpt lat="43.62703" lon="1.40242">
        <ele>129</ele>
        <time>2025-03-23T10:03:53Z</time>
      </trkpt>
      <trkpt lat="43.62704" lon="1.40242">
        <ele>129</ele>
        <time>2025-03-23T10:03:54Z</time>
      </trkpt>
      <trkpt lat="43.62706" lon="1.40243">
        <ele>129</ele>
        <time>2025-03-23T10:03:55Z</time>
      </trkpt>
      <trkpt lat="43.62708" lon="1.40243">
        <ele>129</ele>
        <time>2025-03-23T10:03:56Z</time>
      </trkpt>
      <trkpt lat="43.6271" lon="1.40243">
        <ele>129</ele>
        <time>2025-03-23T10:03:57Z</time>
      </trkpt>
      <trkpt lat="43.62713" lon="1.40244">
        <ele>129</ele>
        <time>2025-03-23T10:03:58Z</time>
      </trkpt>
      <trkpt lat="43.62714" lon="1.40245">
        <ele>129</ele>
        <time>2025-03-23T10:03:59Z</time>
      </trkpt>
      <trkpt lat="43.62717" lon="1.40245">
        <ele>129</ele>
        <time>2025-03-23T10:04:00Z</time>
      </trkpt>
      <trkpt lat="43.62719" lon="1.40245">
        <ele>129</ele>
        <time>2025-03-23T10:04:01Z</time>
      </trkpt>
      <trkpt lat="43.62722" lon="1.40246">
        <ele>129</ele>
        <time>2025-03-23T10:04:02Z</time>
      </trkpt>
      <trkpt lat="43.62724" lon="1.40246">
        <ele>129</ele>
        <time>2025-03-23T10:04:03Z</time>
      </trkpt>
      <trkpt lat="43.62726" lon="1.40247">
        <ele>129</ele>
        <time>2025-03-23T10:04:04Z</time>
      </trkpt>
      <trkpt lat="43.62728" lon="1.40247">
        <ele>129</ele>
        <time>2025-03-23T10:04:05Z</time>
      </trkpt>
      <trkpt lat="43.62731" lon="1.40246">
        <ele>129</ele>
        <time>2025-03-23T10:04:06Z</time>
      </trkpt>
      <trkpt lat="43.62734" lon="1.40247">
        <ele>129</ele>
        <time>2025-03-23T10:04:07Z</time>
      </trkpt>
      <trkpt lat="43.62736" lon="1.40247">
        <ele>129</ele>
        <time>2025-03-23T10:04:08Z</time>
      </trkpt>
      <trkpt lat="43.62738" lon="1.40248">
        <ele>129</ele>
        <time>2025-03-23T10:04:09Z</time>
      </trkpt>
      <trkpt lat="43.6274" lon="1.40248">
        <ele>129</ele>
        <time>2025-03-23T10:04:10Z</time>
      </trkpt>
      <trkpt lat="43.62743" lon="1.40249">
        <ele>129</ele>
        <time>2025-03-23T10:04:11Z</time>
      </trkpt>
      <trkpt lat="43.62745" lon="1.40249">
        <ele>129</ele>
        <time>2025-03-23T10:04:12Z</time>
      </trkpt>
      <trkpt lat="43.62747" lon="1.40249">
        <ele>129</ele>
        <time>2025-03-23T10:04:13Z</time>
      </trkpt>
      <trkpt lat="43.62749" lon="1.40249">
        <ele>129</ele>
        <time>2025-03-23T10:04:14Z</time>
      </trkpt>
      <trkpt lat="43.62752" lon="1.4025">
        <ele>129</ele>
        <time>2025-03-23T10:04:15Z</time>
      </trkpt>
      <trkpt lat="43.62754" lon="1.40251">
        <ele>129</ele>
        <time>2025-03-23T10:04:16Z</time>
      </trkpt>
      <trkpt lat="43.62758" lon="1.40252">
        <ele>129</ele>
        <time>2025-03-23T10:04:17Z</time>
      </trkpt>
      <trkpt lat="43.62759" lon="1.40252">
        <ele>129</ele>
        <time>2025-03-23T10:04:18Z</time>
      </trkpt>
      <trkpt lat="43.62763" lon="1.40254">
        <ele>129</ele>
        <time>2025-03-23T10:04:19Z</time>
      </trkpt>
      <trkpt lat="43.62764" lon="1.40255">
        <ele>129</ele>
        <time>2025-03-23T10:04:20Z</time>
      </trkpt>
      <trkpt lat="43.62766" lon="1.40255">
        <ele>129</ele>
        <time>2025-03-23T10:04:21Z</time>
      </trkpt>
      <trkpt lat="43.62769" lon="1.40256">
        <ele>129</ele>
        <time>2025-03-23T10:04:22Z</time>
      </trkpt>
      <trkpt lat="43.62771" lon="1.40257">
        <ele>129</ele>
        <time>2025-03-23T10:04:23Z</time>
      </trkpt>
      <trkpt lat="43.62774" lon="1.40257">
        <ele>129</ele>
        <time>2025-03-23T10:04:24Z</time>
      </trkpt>
      <trkpt lat="43.62776" lon="1.40257">
        <ele>129</ele>
        <time>2025-03-23T10:04:25Z</time>
      </trkpt>
      <trkpt lat="43.62779" lon="1.40257">
        <ele>129</ele>
        <time>2025-03-23T10:04:26Z</time>
      </trkpt>
      <trkpt lat="43.62784" lon="1.40258">
        <ele>129</ele>
        <time>2025-03-23T10:04:27Z</time>
      </trkpt>
      <trkpt lat="43.62785" lon="1.40258">
        <ele>129</ele>
        <time>2025-03-23T10:04:28Z</time>
      </trkpt>
      <trkpt lat="43.62788" lon="1.40258">
        <ele>129</ele>
        <time>2025-03-23T10:04:29Z</time>
      </trkpt>
      <trkpt lat="43.62792" lon="1.40259">
        <ele>129</ele>
        <time>2025-03-23T10:04:30Z</time>
      </trkpt>
      <trkpt lat="43.62793" lon="1.4026">
        <ele>129</ele>
        <time>2025-03-23T10:04:31Z</time>
      </trkpt>
      <trkpt lat="43.62796" lon="1.40261">
        <ele>129</ele>
        <time>2025-03-23T10:04:32Z</time>
      </trkpt>
      <trkpt lat="43.62798" lon="1.40262">
        <ele>129</ele>
        <time>2025-03-23T10:04:33Z</time>
      </trkpt>
      <trkpt lat="43.62802" lon="1.40262">
        <ele>129</ele>
        <time>2025-03-23T10:04:34Z</time>
      </trkpt>
      <trkpt lat="43.62804" lon="1.40262">
        <ele>129</ele>
        <time>2025-03-23T10:04:35Z</time>
      </trkpt>
      <trkpt lat="43.62807" lon="1.40262">
        <ele>129</ele>
        <time>2025-03-23T10:04:36Z</time>
      </trkpt>
      <trkpt lat="43.6281" lon="1.40263">
        <ele>129</ele>
        <time>2025-03-23T10:04:37Z</time>
      </trkpt>
      <trkpt lat="43.62812" lon="1.40264">
        <ele>129</ele>
        <time>2025-03-23T10:04:38Z</time>
      </trkpt>
      <trkpt lat="43.62815" lon="1.40265">
        <ele>129</ele>
        <time>2025-03-23T10:04:39Z</time>
      </trkpt>
      <trkpt lat="43.62818" lon="1.40266">
        <ele>129</ele>
        <time>2025-03-23T10:04:40Z</time>
      </trkpt>
      <trkpt lat="43.6282" lon="1.40267">
        <ele>129</ele>
        <time>2025-03-23T10:04:41Z</time>
      </trkpt>
      <trkpt lat="43.62823" lon="1.40267">
        <ele>129</ele>
        <time>2025-03-23T10:04:42Z</time>
      </trkpt>
      <trkpt lat="43.62825" lon="1.40268">
        <ele>129</ele>
        <time>2025-03-23T10:04:43Z</time>
      </trkpt>
      <trkpt lat="43.62828" lon="1.40269">
        <ele>129</ele>
        <time>2025-03-23T10:04:44Z</time>
      </trkpt>
      <trkpt lat="43.6283" lon="1.4027">
        <ele>129</ele>
        <time>2025-03-23T10:04:45Z</time>
      </trkpt>
      <trkpt lat="43.62833" lon="1.40271">
        <ele>129</ele>
        <time>2025-03-23T10:04:46Z</time>
      </trkpt>
      <trkpt lat="43.62836" lon="1.40271">
        <ele>129</ele>
        <time>2025-03-23T10:04:47Z</time>
      </trkpt>
      <trkpt lat="43.62838" lon="1.40272">
        <ele>129</ele>
        <time>2025-03-23T10:04:48Z</time>
      </trkpt>
      <trkpt lat="43.62841" lon="1.40273">
        <ele>129</ele>
        <time>2025-03-23T10:04:49Z</time>
      </trkpt>
      <trkpt lat="43.62843" lon="1.40273">
        <ele>129</ele>
        <time>2025-03-23T10:04:50Z</time>
      </trkpt>
      <trkpt lat="43.62846" lon="1.40274">
        <ele>129</ele>
        <time>2025-03-23T10:04:51Z</time>
      </trkpt>
      <trkpt lat="43.62848" lon="1.40275">
        <ele>129</ele>
        <time>2025-03-23T10:04:52Z</time>
      </trkpt>
      <trkpt lat="43.6285" lon="1.40276">
        <ele>129</ele>
        <time>2025-03-23T10:04:53Z</time>
      </trkpt>
      <trkpt lat="43.62853" lon="1.40277">
        <ele>129</ele>
        <time>2025-03-23T10:04:54Z</time>
      </trkpt>
      <trkpt lat="43.62856" lon="1.40278">
        <ele>129</ele>
        <time>2025-03-23T10:04:55Z</time>
      </trkpt>
      <trkpt lat="43.62857" lon="1.40279">
        <ele>129</ele>
        <time>2025-03-23T10:04:56Z</time>
      </trkpt>
      <trkpt lat="43.62861" lon="1.40281">
        <ele>129</ele>
        <time>2025-03-23T10:04:57Z</time>
      </trkpt>
      <trkpt lat="43.62862" lon="1.40281">
        <ele>129</ele>
        <time>2025-03-23T10:04:58Z</time>
      </trkpt>
      <trkpt lat="43.62864" lon="1.40283">
        <ele>129</ele>
        <time>2025-03-23T10:04:59Z</time>
      </trkpt>
      <trkpt lat="43.62867" lon="1.40284">
        <ele>129</ele>
        <time>2025-03-23T10:05:00Z</time>
      </trkpt>
      <trkpt lat="43.6287" lon="1.40285">
        <ele>129</ele>
        <time>2025-03-23T10:05:01Z</time>
      </trkpt>
      <trkpt lat="43.62874" lon="1.40287">
        <ele>129</ele>
        <time>2025-03-23T10:05:02Z</time>
      </trkpt>
      <trkpt lat="43.62875" lon="1.40287">
        <ele>129</ele>
        <time>2025-03-23T10:05:03Z</time>
      </trkpt>
      <trkpt lat="43.62877" lon="1.40288">
        <ele>129</ele>
        <time>2025-03-23T10:05:04Z</time>
      </trkpt>
      <trkpt lat="43.62879" lon="1.40288">
        <ele>130</ele>
        <time>2025-03-23T10:05:05Z</time>
      </trkpt>
      <trkpt lat="43.62882" lon="1.40289">
        <ele>130</ele>
        <time>2025-03-23T10:05:06Z</time>
      </trkpt>
      <trkpt lat="43.62884" lon="1.40289">
        <ele>130</ele>
        <time>2025-03-23T10:05:07Z</time>
      </trkpt>
      <trkpt lat="43.62887" lon="1.4029">
        <ele>130</ele>
        <time>2025-03-23T10:05:08Z</time>
      </trkpt>
      <trkpt lat="43.62889" lon="1.40291">
        <ele>130</ele>
        <time>2025-03-23T10:05:09Z</time>
      </trkpt>
      <trkpt lat="43.62892" lon="1.40292">
        <ele>130</ele>
        <time>2025-03-23T10:05:10Z</time>
      </trkpt>
      <trkpt lat="43.62894" lon="1.40293">
        <ele>130</ele>
        <time>2025-03-23T10:05:11Z</time>
      </trkpt>
      <trkpt lat="43.62897" lon="1.40294">
        <ele>130</ele>
        <time>2025-03-23T10:05:12Z</time>
      </trkpt>
      <trkpt lat="43.62899" lon="1.40295">
        <ele>130</ele>
        <time>2025-03-23T10:05:13Z</time>
      </trkpt>
      <trkpt lat="43.62904" lon="1.40297">
        <ele>130</ele>
        <time>2025-03-23T10:05:15Z</time>
      </trkpt>
      <trkpt lat="43.62908" lon="1.40298">
        <ele>130</ele>
        <time>2025-03-23T10:05:16Z</time>
      </trkpt>
      <trkpt lat="43.6291" lon="1.40298">
        <ele>130</ele>
        <time>2025-03-23T10:05:17Z</time>
      </trkpt>
      <trkpt lat="43.62912" lon="1.40299">
        <ele>130</ele>
        <time>2025-03-23T10:05:18Z</time>
      </trkpt>
      <trkpt lat="43.62915" lon="1.403">
        <ele>130</ele>
        <time>2025-03-23T10:05:19Z</time>
      </trkpt>
      <trkpt lat="43.62918" lon="1.40301">
        <ele>130</ele>
        <time>2025-03-23T10:05:20Z</time>
      </trkpt>
      <trkpt lat="43.6292" lon="1.40302">
        <ele>130</ele>
        <time>2025-03-23T10:05:21Z</time>
      </trkpt>
      <trkpt lat="43.62923" lon="1.40302">
        <ele>130</ele>
        <time>2025-03-23T10:05:22Z</time>
      </trkpt>
      <trkpt lat="43.62926" lon="1.40302">
        <ele>130</ele>
        <time>2025-03-23T10:05:23Z</time>
      </trkpt>
      <trkpt lat="43.62928" lon="1.40302">
        <ele>130</ele>
        <time>2025-03-23T10:05:24Z</time>
      </trkpt>
      <trkpt lat="43.62931" lon="1.40303">
        <ele>130</ele>
        <time>2025-03-23T10:05:25Z</time>
      </trkpt>
      <trkpt lat="43.62935" lon="1.40304">
        <ele>130</ele>
        <time>2025-03-23T10:05:26Z</time>
      </trkpt>
      <trkpt lat="43.62936" lon="1.40304">
        <ele>130</ele>
        <time>2025-03-23T10:05:27Z</time>
      </trkpt>
      <trkpt lat="43.62938" lon="1.40305">
        <ele>130</ele>
        <time>2025-03-23T10:05:28Z</time>
      </trkpt>
      <trkpt lat="43.62941" lon="1.40306">
        <ele>130</ele>
        <time>2025-03-23T10:05:29Z</time>
      </trkpt>
      <trkpt lat="43.62944" lon="1.40307">
        <ele>130</ele>
        <time>2025-03-23T10:05:30Z</time>
      </trkpt>
      <trkpt lat="43.62945" lon="1.40308">
        <ele>130</ele>
        <time>2025-03-23T10:05:31Z</time>
      </trkpt>
      <trkpt lat="43.62947" lon="1.40309">
        <ele>130</ele>
        <time>2025-03-23T10:05:32Z</time>
      </trkpt>
      <trkpt lat="43.62951" lon="1.40311">
        <ele>130</ele>
        <time>2025-03-23T10:05:34Z</time>
      </trkpt>
      <trkpt lat="43.62953" lon="1.40313">
        <ele>130</ele>
        <time>2025-03-23T10:05:35Z</time>
      </trkpt>
      <trkpt lat="43.62956" lon="1.40314">
        <ele>130</ele>
        <time>2025-03-23T10:05:36Z</time>
      </trkpt>
      <trkpt lat="43.62957" lon="1.40315">
        <ele>129</ele>
        <time>2025-03-23T10:05:37Z</time>
      </trkpt>
      <trkpt lat="43.6296" lon="1.40316">
        <ele>129</ele>
        <time>2025-03-23T10:05:38Z</time>
      </trkpt>
      <trkpt lat="43.62962" lon="1.40317">
        <ele>129</ele>
        <time>2025-03-23T10:05:39Z</time>
      </trkpt>
      <trkpt lat="43.62965" lon="1.40318">
        <ele>129</ele>
        <time>2025-03-23T10:05:40Z</time>
      </trkpt>
      <trkpt lat="43.62967" lon="1.40319">
        <ele>129</ele>
        <time>2025-03-23T10:05:41Z</time>
      </trkpt>
      <trkpt lat="43.6297" lon="1.4032">
        <ele>129</ele>
        <time>2025-03-23T10:05:42Z</time>
      </trkpt>
      <trkpt lat="43.62972" lon="1.40321">
        <ele>129</ele>
        <time>2025-03-23T10:05:43Z</time>
      </trkpt>
      <trkpt lat="43.62975" lon="1.40323">
        <ele>129</ele>
        <time>2025-03-23T10:05:44Z</time>
      </trkpt>
      <trkpt lat="43.62978" lon="1.40324">
        <ele>129</ele>
        <time>2025-03-23T10:05:45Z</time>
      </trkpt>
      <trkpt lat="43.6298" lon="1.40325">
        <ele>129</ele>
        <time>2025-03-23T10:05:46Z</time>
      </trkpt>
      <trkpt lat="43.62982" lon="1.40326">
        <ele>129</ele>
        <time>2025-03-23T10:05:47Z</time>
      </trkpt>
      <trkpt lat="43.62984" lon="1.40327">
        <ele>129</ele>
        <time>2025-03-23T10:05:48Z</time>
      </trkpt>
      <trkpt lat="43.62986" lon="1.40327">
        <ele>129</ele>
        <time>2025-03-23T10:05:49Z</time>
      </trkpt>
      <trkpt lat="43.62988" lon="1.40328">
        <ele>129</ele>
        <time>2025-03-23T10:05:50Z</time>
      </trkpt>
      <trkpt lat="43.6299" lon="1.40329">
        <ele>129</ele>
        <time>2025-03-23T10:05:51Z</time>
      </trkpt>
      <trkpt lat="43.62992" lon="1.4033">
        <ele>129</ele>
        <time>2025-03-23T10:05:52Z</time>
      </trkpt>
      <trkpt lat="43.62994" lon="1.40331">
        <ele>129</ele>
        <time>2025-03-23T10:05:53Z</time>
      </trkpt>
      <trkpt lat="43.62996" lon="1.40332">
        <ele>129</ele>
        <time>2025-03-23T10:05:54Z</time>
      </trkpt>
      <trkpt lat="43.62998" lon="1.40333">
        <ele>129</ele>
        <time>2025-03-23T10:05:55Z</time>
      </trkpt>
      <trkpt lat="43.63" lon="1.40334">
        <ele>129</ele>
        <time>2025-03-23T10:05:56Z</time>
      </trkpt>
      <trkpt lat="43.63004" lon="1.40334">
        <ele>129</ele>
        <time>2025-03-23T10:05:57Z</time>
      </trkpt>
      <trkpt lat="43.63005" lon="1.40334">
        <ele>129</ele>
        <time>2025-03-23T10:05:58Z</time>
      </trkpt>
      <trkpt lat="43.63007" lon="1.40335">
        <ele>129</ele>
        <time>2025-03-23T10:05:59Z</time>
      </trkpt>
      <trkpt lat="43.63009" lon="1.40336">
        <ele>129</ele>
        <time>2025-03-23T10:06:00Z</time>
      </trkpt>
      <trkpt lat="43.63011" lon="1.40337">
        <ele>129</ele>
        <time>2025-03-23T10:06:01Z</time>
      </trkpt>
      <trkpt lat="43.63013" lon="1.40338">
        <ele>129</ele>
        <time>2025-03-23T10:06:02Z</time>
      </trkpt>
      <trkpt lat="43.63016" lon="1.40339">
        <ele>129</ele>
        <time>2025-03-23T10:06:03Z</time>
      </trkpt>
      <trkpt lat="43.63018" lon="1.4034">
        <ele>129</ele>
        <time>2025-03-23T10:06:04Z</time>
      </trkpt>
      <trkpt lat="43.6302" lon="1.40342">
        <ele>129</ele>
        <time>2025-03-23T10:06:05Z</time>
      </trkpt>
      <trkpt lat="43.63022" lon="1.40343">
        <ele>129</ele>
        <time>2025-03-23T10:06:06Z</time>
      </trkpt>
      <trkpt lat="43.63024" lon="1.40344">
        <ele>129</ele>
        <time>2025-03-23T10:06:07Z</time>
      </trkpt>
      <trkpt lat="43.63028" lon="1.40345">
        <ele>129</ele>
        <time>2025-03-23T10:06:08Z</time>
      </trkpt>
      <trkpt lat="43.63029" lon="1.40345">
        <ele>129</ele>
        <time>2025-03-23T10:06:09Z</time>
      </trkpt>
      <trkpt lat="43.63031" lon="1.40346">
        <ele>128</ele>
        <time>2025-03-23T10:06:10Z</time>
      </trkpt>
      <trkpt lat="43.63036" lon="1.40348">
        <ele>128</ele>
        <time>2025-03-23T10:06:11Z</time>
      </trkpt>
      <trkpt lat="43.63037" lon="1.40349">
        <ele>128</ele>
        <time>2025-03-23T10:06:12Z</time>
      </trkpt>
      <trkpt lat="43.6304" lon="1.4035">
        <ele>128</ele>
        <time>2025-03-23T10:06:13Z</time>
      </trkpt>
      <trkpt lat="43.63043" lon="1.40351">
        <ele>128</ele>
        <time>2025-03-23T10:06:14Z</time>
      </trkpt>
      <trkpt lat="43.63046" lon="1.40353">
        <ele>128</ele>
        <time>2025-03-23T10:06:15Z</time>
      </trkpt>
      <trkpt lat="43.63051" lon="1.40355">
        <ele>128</ele>
        <time>2025-03-23T10:06:16Z</time>
      </trkpt>
      <trkpt lat="43.63052" lon="1.40355">
        <ele>128</ele>
        <time>2025-03-23T10:06:17Z</time>
      </trkpt>
      <trkpt lat="43.63055" lon="1.40357">
        <ele>128</ele>
        <time>2025-03-23T10:06:18Z</time>
      </trkpt>
      <trkpt lat="43.63056" lon="1.40358">
        <ele>129</ele>
        <time>2025-03-23T10:06:19Z</time>
      </trkpt>
      <trkpt lat="43.63059" lon="1.40359">
        <ele>129</ele>
        <time>2025-03-23T10:06:20Z</time>
      </trkpt>
      <trkpt lat="43.63061" lon="1.40361">
        <ele>129</ele>
        <time>2025-03-23T10:06:21Z</time>
      </trkpt>
      <trkpt lat="43.63064" lon="1.40362">
        <ele>129</ele>
        <time>2025-03-23T10:06:22Z</time>
      </trkpt>
      <trkpt lat="43.63068" lon="1.40363">
        <ele>129</ele>
        <time>2025-03-23T10:06:23Z</time>
      </trkpt>
      <trkpt lat="43.63069" lon="1.40364">
        <ele>129</ele>
        <time>2025-03-23T10:06:24Z</time>
      </trkpt>
      <trkpt lat="43.63072" lon="1.40366">
        <ele>129</ele>
        <time>2025-03-23T10:06:25Z</time>
      </trkpt>
      <trkpt lat="43.63073" lon="1.40366">
        <ele>129</ele>
        <time>2025-03-23T10:06:26Z</time>
      </trkpt>
      <trkpt lat="43.63076" lon="1.40367">
        <ele>129</ele>
        <time>2025-03-23T10:06:27Z</time>
      </trkpt>
      <trkpt lat="43.63078" lon="1.40368">
        <ele>129</ele>
        <time>2025-03-23T10:06:28Z</time>
      </trkpt>
      <trkpt lat="43.63081" lon="1.40369">
        <ele>129</ele>
        <time>2025-03-23T10:06:29Z</time>
      </trkpt>
      <trkpt lat="43.63085" lon="1.40371">
        <ele>129</ele>
        <time>2025-03-23T10:06:30Z</time>
      </trkpt>
      <trkpt lat="43.63087" lon="1.40372">
        <ele>129</ele>
        <time>2025-03-23T10:06:31Z</time>
      </trkpt>
      <trkpt lat="43.63089" lon="1.40373">
        <ele>129</ele>
        <time>2025-03-23T10:06:32Z</time>
      </trkpt>
      <trkpt lat="43.63092" lon="1.40374">
        <ele>129</ele>
        <time>2025-03-23T10:06:33Z</time>
      </trkpt>
      <trkpt lat="43.63094" lon="1.40376">
        <ele>129</ele>
        <time>2025-03-23T10:06:34Z</time>
      </trkpt>
      <trkpt lat="43.63098" lon="1.40378">
        <ele>129</ele>
        <time>2025-03-23T10:06:35Z</time>
      </trkpt>
      <trkpt lat="43.63099" lon="1.40378">
        <ele>129</ele>
        <time>2025-03-23T10:06:36Z</time>
      </trkpt>
      <trkpt lat="43.63101" lon="1.4038">
        <ele>129</ele>
        <time>2025-03-23T10:06:37Z</time>
      </trkpt>
      <trkpt lat="43.63103" lon="1.40381">
        <ele>129</ele>
        <time>2025-03-23T10:06:38Z</time>
      </trkpt>
      <trkpt lat="43.63106" lon="1.40382">
        <ele>129</ele>
        <time>2025-03-23T10:06:39Z</time>
      </trkpt>
      <trkpt lat="43.6311" lon="1.40383">
        <ele>129</ele>
        <time>2025-03-23T10:06:40Z</time>
      </trkpt>
      <trkpt lat="43.63111" lon="1.40384">
        <ele>129</ele>
        <time>2025-03-23T10:06:41Z</time>
      </trkpt>
      <trkpt lat="43.63113" lon="1.40385">
        <ele>129</ele>
        <time>2025-03-23T10:06:42Z</time>
      </trkpt>
      <trkpt lat="43.63116" lon="1.40386">
        <ele>129</ele>
        <time>2025-03-23T10:06:43Z</time>
      </trkpt>
      <trkpt lat="43.63118" lon="1.40387">
        <ele>129</ele>
        <time>2025-03-23T10:06:44Z</time>
      </trkpt>
      <trkpt lat="43.6312" lon="1.40387">
        <ele>129</ele>
        <time>2025-03-23T10:06:45Z</time>
      </trkpt>
      <trkpt lat="43.63123" lon="1.40388">
        <ele>129</ele>
        <time>2025-03-23T10:06:46Z</time>
      </trkpt>
      <trkpt lat="43.63126" lon="1.4039">
        <ele>129</ele>
        <time>2025-03-23T10:06:47Z</time>
      </trkpt>
      <trkpt lat="43.63127" lon="1.4039">
        <ele>129</ele>
        <time>2025-03-23T10:06:48Z</time>
      </trkpt>
      <trkpt lat="43.6313" lon="1.40391">
        <ele>129</ele>
        <time>2025-03-23T10:06:49Z</time>
      </trkpt>
      <trkpt lat="43.63132" lon="1.40392">
        <ele>129</ele>
        <time>2025-03-23T10:06:50Z</time>
      </trkpt>
      <trkpt lat="43.63134" lon="1.40392">
        <ele>129</ele>
        <time>2025-03-23T10:06:51Z</time>
      </trkpt>
      <trkpt lat="43.63136" lon="1.40393">
        <ele>129</ele>
        <time>2025-03-23T10:06:52Z</time>
      </trkpt>
      <trkpt lat="43.63138" lon="1.40394">
        <ele>129</ele>
        <time>2025-03-23T10:06:53Z</time>
      </trkpt>
      <trkpt lat="43.63143" lon="1.40397">
        <ele>129</ele>
        <time>2025-03-23T10:06:54Z</time>
      </trkpt>
      <trkpt lat="43.63145" lon="1.40398">
        <ele>129</ele>
        <time>2025-03-23T10:06:55Z</time>
      </trkpt>
      <trkpt lat="43.63147" lon="1.40398">
        <ele>129</ele>
        <time>2025-03-23T10:06:56Z</time>
      </trkpt>
      <trkpt lat="43.63149" lon="1.404">
        <ele>129</ele>
        <time>2025-03-23T10:06:57Z</time>
      </trkpt>
      <trkpt lat="43.63151" lon="1.40401">
        <ele>129</ele>
        <time>2025-03-23T10:06:58Z</time>
      </trkpt>
      <trkpt lat="43.63154" lon="1.40402">
        <ele>130</ele>
        <time>2025-03-23T10:06:59Z</time>
      </trkpt>
      <trkpt lat="43.63156" lon="1.40402">
        <ele>130</ele>
        <time>2025-03-23T10:07:00Z</time>
      </trkpt>
      <trkpt lat="43.63159" lon="1.40403">
        <ele>130</ele>
        <time>2025-03-23T10:07:01Z</time>
      </trkpt>
      <trkpt lat="43.63161" lon="1.40404">
        <ele>130</ele>
        <time>2025-03-23T10:07:02Z</time>
      </trkpt>
      <trkpt lat="43.63164" lon="1.40405">
        <ele>130</ele>
        <time>2025-03-23T10:07:03Z</time>
      </trkpt>
      <trkpt lat="43.63166" lon="1.40406">
        <ele>130</ele>
        <time>2025-03-23T10:07:04Z</time>
      </trkpt>
      <trkpt lat="43.63169" lon="1.40406">
        <ele>130</ele>
        <time>2025-03-23T10:07:05Z</time>
      </trkpt>
      <trkpt lat="43.63171" lon="1.40407">
        <ele>130</ele>
        <time>2025-03-23T10:07:06Z</time>
      </trkpt>
      <trkpt lat="43.63174" lon="1.40408">
        <ele>130</ele>
        <time>2025-03-23T10:07:07Z</time>
      </trkpt>
      <trkpt lat="43.63175" lon="1.40408">
        <ele>130</ele>
        <time>2025-03-23T10:07:08Z</time>
      </trkpt>
      <trkpt lat="43.63177" lon="1.40409">
        <ele>130</ele>
        <time>2025-03-23T10:07:09Z</time>
      </trkpt>
      <trkpt lat="43.63179" lon="1.4041">
        <ele>130</ele>
        <time>2025-03-23T10:07:10Z</time>
      </trkpt>
      <trkpt lat="43.63182" lon="1.4041">
        <ele>130</ele>
        <time>2025-03-23T10:07:11Z</time>
      </trkpt>
      <trkpt lat="43.63184" lon="1.40411">
        <ele>130</ele>
        <time>2025-03-23T10:07:12Z</time>
      </trkpt>
      <trkpt lat="43.63187" lon="1.40413">
        <ele>130</ele>
        <time>2025-03-23T10:07:13Z</time>
      </trkpt>
      <trkpt lat="43.63189" lon="1.40414">
        <ele>130</ele>
        <time>2025-03-23T10:07:14Z</time>
      </trkpt>
      <trkpt lat="43.63193" lon="1.40416">
        <ele>130</ele>
        <time>2025-03-23T10:07:15Z</time>
      </trkpt>
      <trkpt lat="43.63195" lon="1.40417">
        <ele>130</ele>
        <time>2025-03-23T10:07:16Z</time>
      </trkpt>
      <trkpt lat="43.63197" lon="1.40417">
        <ele>130</ele>
        <time>2025-03-23T10:07:17Z</time>
      </trkpt>
      <trkpt lat="43.632" lon="1.40418">
        <ele>130</ele>
        <time>2025-03-23T10:07:18Z</time>
      </trkpt>
      <trkpt lat="43.63203" lon="1.4042">
        <ele>130</ele>
        <time>2025-03-23T10:07:19Z</time>
      </trkpt>
      <trkpt lat="43.63204" lon="1.40421">
        <ele>130</ele>
        <time>2025-03-23T10:07:20Z</time>
      </trkpt>
      <trkpt lat="43.63207" lon="1.40422">
        <ele>130</ele>
        <time>2025-03-23T10:07:21Z</time>
      </trkpt>
      <trkpt lat="43.6321" lon="1.40424">
        <ele>130</ele>
        <time>2025-03-23T10:07:22Z</time>
      </trkpt>
      <trkpt lat="43.63213" lon="1.40426">
        <ele>130</ele>
        <time>2025-03-23T10:07:23Z</time>
      </trkpt>
      <trkpt lat="43.63215" lon="1.40427">
        <ele>129</ele>
        <time>2025-03-23T10:07:24Z</time>
      </trkpt>
      <trkpt lat="43.63218" lon="1.40428">
        <ele>129</ele>
        <time>2025-03-23T10:07:25Z</time>
      </trkpt>
      <trkpt lat="43.63221" lon="1.40429">
        <ele>129</ele>
        <time>2025-03-23T10:07:26Z</time>
      </trkpt>
      <trkpt lat="43.63222" lon="1.40429">
        <ele>129</ele>
        <time>2025-03-23T10:07:27Z</time>
      </trkpt>
      <trkpt lat="43.63224" lon="1.4043">
        <ele>129</ele>
        <time>2025-03-23T10:07:28Z</time>
      </trkpt>
      <trkpt lat="43.63225" lon="1.40431">
        <ele>129</ele>
        <time>2025-03-23T10:07:29Z</time>
      </trkpt>
      <trkpt lat="43.63228" lon="1.40432">
        <ele>129</ele>
        <time>2025-03-23T10:07:30Z</time>
      </trkpt>
      <trkpt lat="43.6323" lon="1.40434">
        <ele>129</ele>
        <time>2025-03-23T10:07:31Z</time>
      </trkpt>
      <trkpt lat="43.63233" lon="1.40435">
        <ele>129</ele>
        <time>2025-03-23T10:07:32Z</time>
      </trkpt>
      <trkpt lat="43.63235" lon="1.40436">
        <ele>129</ele>
        <time>2025-03-23T10:07:33Z</time>
      </trkpt>
      <trkpt lat="43.63238" lon="1.40437">
        <ele>129</ele>
        <time>2025-03-23T10:07:34Z</time>
      </trkpt>
      <trkpt lat="43.63241" lon="1.40438">
        <ele>129</ele>
        <time>2025-03-23T10:07:35Z</time>
      </trkpt>
      <trkpt lat="43.63242" lon="1.40438">
        <ele>129</ele>
        <time>2025-03-23T10:07:36Z</time>
      </trkpt>
      <trkpt lat="43.63245" lon="1.40439">
        <ele>129</ele>
        <time>2025-03-23T10:07:37Z</time>
      </trkpt>
      <trkpt lat="43.63247" lon="1.4044">
        <ele>129</ele>
        <time>2025-03-23T10:07:38Z</time>
      </trkpt>
      <trkpt lat="43.6325" lon="1.4044">
        <ele>129</ele>
        <time>2025-03-23T10:07:39Z</time>
      </trkpt>
      <trkpt lat="43.63253" lon="1.40441">
        <ele>129</ele>
        <time>2025-03-23T10:07:40Z</time>
      </trkpt>
      <trkpt lat="43.63256" lon="1.40441">
        <ele>129</ele>
        <time>2025-03-23T10:07:41Z</time>
      </trkpt>
      <trkpt lat="43.63258" lon="1.40441">
        <ele>129</ele>
        <time>2025-03-23T10:07:42Z</time>
      </trkpt>
      <trkpt lat="43.63261" lon="1.40441">
        <ele>129</ele>
        <time>2025-03-23T10:07:43Z</time>
      </trkpt>
      <trkpt lat="43.63263" lon="1.40442">
        <ele>129</ele>
        <time>2025-03-23T10:07:44Z</time>
      </trkpt>
      <trkpt lat="43.63265" lon="1.40443">
        <ele>129</ele>
        <time>2025-03-23T10:07:45Z</time>
      </trkpt>
      <trkpt lat="43.63269" lon="1.40444">
        <ele>129</ele>
        <time>2025-03-23T10:07:46Z</time>
      </trkpt>
      <trkpt lat="43.6327" lon="1.40445">
        <ele>129</ele>
        <time>2025-03-23T10:07:47Z</time>
      </trkpt>
      <trkpt lat="43.63273" lon="1.40446">
        <ele>129</ele>
        <time>2025-03-23T10:07:48Z</time>
      </trkpt>
      <trkpt lat="43.63275" lon="1.40448">
        <ele>129</ele>
        <time>2025-03-23T10:07:49Z</time>
      </trkpt>
      <trkpt lat="43.63278" lon="1.40449">
        <ele>129</ele>
        <time>2025-03-23T10:07:50Z</time>
      </trkpt>
      <trkpt lat="43.6328" lon="1.40451">
        <ele>129</ele>
        <time>2025-03-23T10:07:51Z</time>
      </trkpt>
      <trkpt lat="43.63282" lon="1.40452">
        <ele>129</ele>
        <time>2025-03-23T10:07:52Z</time>
      </trkpt>
      <trkpt lat="43.63285" lon="1.40453">
        <ele>129</ele>
        <time>2025-03-23T10:07:53Z</time>
      </trkpt>
      <trkpt lat="43.63288" lon="1.40455">
        <ele>129</ele>
        <time>2025-03-23T10:07:54Z</time>
      </trkpt>
      <trkpt lat="43.63289" lon="1.40456">
        <ele>129</ele>
        <time>2025-03-23T10:07:55Z</time>
      </trkpt>
      <trkpt lat="43.63292" lon="1.40457">
        <ele>129</ele>
        <time>2025-03-23T10:07:56Z</time>
      </trkpt>
      <trkpt lat="43.63294" lon="1.40458">
        <ele>129</ele>
        <time>2025-03-23T10:07:57Z</time>
      </trkpt>
      <trkpt lat="43.63297" lon="1.40459">
        <ele>129</ele>
        <time>2025-03-23T10:07:58Z</time>
      </trkpt>
      <trkpt lat="43.63299" lon="1.4046">
        <ele>129</ele>
        <time>2025-03-23T10:07:59Z</time>
      </trkpt>
      <trkpt lat="43.63302" lon="1.40462">
        <ele>129</ele>
        <time>2025-03-23T10:08:00Z</time>
      </trkpt>
      <trkpt lat="43.63304" lon="1.40463">
        <ele>129</ele>
        <time>2025-03-23T10:08:01Z</time>
      </trkpt>
      <trkpt lat="43.63307" lon="1.40464">
        <ele>129</ele>
        <time>2025-03-23T10:08:02Z</time>
      </trkpt>
      <trkpt lat="43.6331" lon="1.40465">
        <ele>129</ele>
        <time>2025-03-23T10:08:03Z</time>
      </trkpt>
      <trkpt lat="43.63313" lon="1.40467">
        <ele>129</ele>
        <time>2025-03-23T10:08:04Z</time>
      </trkpt>
      <trkpt lat="43.63317" lon="1.40468">
        <ele>129</ele>
        <time>2025-03-23T10:08:05Z</time>
      </trkpt>
      <trkpt lat="43.63319" lon="1.40469">
        <ele>128</ele>
        <time>2025-03-23T10:08:06Z</time>
      </trkpt>
      <trkpt lat="43.63323" lon="1.4047">
        <ele>128</ele>
        <time>2025-03-23T10:08:07Z</time>
      </trkpt>
      <trkpt lat="43.63325" lon="1.40471">
        <ele>128</ele>
        <time>2025-03-23T10:08:08Z</time>
      </trkpt>
      <trkpt lat="43.63328" lon="1.40471">
        <ele>129</ele>
        <time>2025-03-23T10:08:09Z</time>
      </trkpt>
      <trkpt lat="43.63331" lon="1.40471">
        <ele>129</ele>
        <time>2025-03-23T10:08:10Z</time>
      </trkpt>
      <trkpt lat="43.63334" lon="1.40472">
        <ele>128</ele>
        <time>2025-03-23T10:08:11Z</time>
      </trkpt>
      <trkpt lat="43.63338" lon="1.40472">
        <ele>128</ele>
        <time>2025-03-23T10:08:12Z</time>
      </trkpt>
      <trkpt lat="43.6334" lon="1.40472">
        <ele>129</ele>
        <time>2025-03-23T10:08:13Z</time>
      </trkpt>
      <trkpt lat="43.63342" lon="1.40473">
        <ele>129</ele>
        <time>2025-03-23T10:08:14Z</time>
      </trkpt>
      <trkpt lat="43.63346" lon="1.40473">
        <ele>129</ele>
        <time>2025-03-23T10:08:15Z</time>
      </trkpt>
      <trkpt lat="43.63347" lon="1.40473">
        <ele>129</ele>
        <time>2025-03-23T10:08:16Z</time>
      </trkpt>
      <trkpt lat="43.63349" lon="1.40474">
        <ele>129</ele>
        <time>2025-03-23T10:08:17Z</time>
      </trkpt>
      <trkpt lat="43.63351" lon="1.40474">
        <ele>129</ele>
        <time>2025-03-23T10:08:18Z</time>
      </trkpt>
      <trkpt lat="43.63354" lon="1.40474">
        <ele>129</ele>
        <time>2025-03-23T10:08:19Z</time>
      </trkpt>
      <trkpt lat="43.63356" lon="1.40474">
        <ele>129</ele>
        <time>2025-03-23T10:08:20Z</time>
      </trkpt>
      <trkpt lat="43.63359" lon="1.40475">
        <ele>129</ele>
        <time>2025-03-23T10:08:21Z</time>
      </trkpt>
      <trkpt lat="43.63361" lon="1.40475">
        <ele>129</ele>
        <time>2025-03-23T10:08:22Z</time>
      </trkpt>
      <trkpt lat="43.63363" lon="1.40476">
        <ele>129</ele>
        <time>2025-03-23T10:08:23Z</time>
      </trkpt>
      <trkpt lat="43.63366" lon="1.40477">
        <ele>129</ele>
        <time>2025-03-23T10:08:24Z</time>
      </trkpt>
      <trkpt lat="43.63367" lon="1.40478">
        <ele>129</ele>
        <time>2025-03-23T10:08:25Z</time>
      </trkpt>
      <trkpt lat="43.63369" lon="1.40479">
        <ele>129</ele>
        <time>2025-03-23T10:08:26Z</time>
      </trkpt>
      <trkpt lat="43.63372" lon="1.40481">
        <ele>128</ele>
        <time>2025-03-23T10:08:27Z</time>
      </trkpt>
      <trkpt lat="43.63376" lon="1.40485">
        <ele>128</ele>
        <time>2025-03-23T10:08:28Z</time>
      </trkpt>
      <trkpt lat="43.63377" lon="1.40486">
        <ele>128</ele>
        <time>2025-03-23T10:08:29Z</time>
      </trkpt>
      <trkpt lat="43.6338" lon="1.40488">
        <ele>128</ele>
        <time>2025-03-23T10:08:30Z</time>
      </trkpt>
      <trkpt lat="43.63384" lon="1.4049">
        <ele>128</ele>
        <time>2025-03-23T10:08:31Z</time>
      </trkpt>
      <trkpt lat="43.63385" lon="1.40491">
        <ele>128</ele>
        <time>2025-03-23T10:08:32Z</time>
      </trkpt>
      <trkpt lat="43.63387" lon="1.40491">
        <ele>128</ele>
        <time>2025-03-23T10:08:33Z</time>
      </trkpt>
      <trkpt lat="43.6339" lon="1.40492">
        <ele>129</ele>
        <time>2025-03-23T10:08:34Z</time>
      </trkpt>
      <trkpt lat="43.63393" lon="1.40492">
        <ele>129</ele>
        <time>2025-03-23T10:08:35Z</time>
      </trkpt>
      <trkpt lat="43.63394" lon="1.40492">
        <ele>129</ele>
        <time>2025-03-23T10:08:36Z</time>
      </trkpt>
      <trkpt lat="43.63396" lon="1.40492">
        <ele>129</ele>
        <time>2025-03-23T10:08:37Z</time>
      </trkpt>
      <trkpt lat="43.63399" lon="1.40492">
        <ele>129</ele>
        <time>2025-03-23T10:08:38Z</time>
      </trkpt>
      <trkpt lat="43.63401" lon="1.40492">
        <ele>129</ele>
        <time>2025-03-23T10:08:39Z</time>
      </trkpt>
      <trkpt lat="43.63404" lon="1.40491">
        <ele>129</ele>
        <time>2025-03-23T10:08:40Z</time>
      </trkpt>
      <trkpt lat="43.63406" lon="1.40491">
        <ele>129</ele>
        <time>2025-03-23T10:08:41Z</time>
      </trkpt>
      <trkpt lat="43.63411" lon="1.40491">
        <ele>129</ele>
        <time>2025-03-23T10:08:42Z</time>
      </trkpt>
      <trkpt lat="43.63412" lon="1.40491">
        <ele>129</ele>
        <time>2025-03-23T10:08:43Z</time>
      </trkpt>
      <trkpt lat="43.63414" lon="1.40491">
        <ele>130</ele>
        <time>2025-03-23T10:08:44Z</time>
      </trkpt>
      <trkpt lat="43.63418" lon="1.4049">
        <ele>130</ele>
        <time>2025-03-23T10:08:45Z</time>
      </trkpt>
      <trkpt lat="43.63419" lon="1.4049">
        <ele>130</ele>
        <time>2025-03-23T10:08:46Z</time>
      </trkpt>
      <trkpt lat="43.63421" lon="1.4049">
        <ele>130</ele>
        <time>2025-03-23T10:08:47Z</time>
      </trkpt>
      <trkpt lat="43.63424" lon="1.40489">
        <ele>130</ele>
        <time>2025-03-23T10:08:48Z</time>
      </trkpt>
      <trkpt lat="43.63427" lon="1.40487">
        <ele>130</ele>
        <time>2025-03-23T10:08:49Z</time>
      </trkpt>
      <trkpt lat="43.63429" lon="1.40487">
        <ele>130</ele>
        <time>2025-03-23T10:08:50Z</time>
      </trkpt>
      <trkpt lat="43.63431" lon="1.40486">
        <ele>130</ele>
        <time>2025-03-23T10:08:51Z</time>
      </trkpt>
      <trkpt lat="43.63435" lon="1.40485">
        <ele>130</ele>
        <time>2025-03-23T10:08:52Z</time>
      </trkpt>
      <trkpt lat="43.63436" lon="1.40485">
        <ele>130</ele>
        <time>2025-03-23T10:08:53Z</time>
      </trkpt>
      <trkpt lat="43.63438" lon="1.40484">
        <ele>130</ele>
        <time>2025-03-23T10:08:54Z</time>
      </trkpt>
      <trkpt lat="43.6344" lon="1.40483">
        <ele>130</ele>
        <time>2025-03-23T10:08:55Z</time>
      </trkpt>
      <trkpt lat="43.63442" lon="1.40483">
        <ele>130</ele>
        <time>2025-03-23T10:08:56Z</time>
      </trkpt>
      <trkpt lat="43.63445" lon="1.40482">
        <ele>129</ele>
        <time>2025-03-23T10:08:57Z</time>
      </trkpt>
      <trkpt lat="43.63447" lon="1.40482">
        <ele>129</ele>
        <time>2025-03-23T10:08:58Z</time>
      </trkpt>
      <trkpt lat="43.6345" lon="1.40481">
        <ele>129</ele>
        <time>2025-03-23T10:08:59Z</time>
      </trkpt>
      <trkpt lat="43.63453" lon="1.40481">
        <ele>129</ele>
        <time>2025-03-23T10:09:00Z</time>
      </trkpt>
      <trkpt lat="43.63455" lon="1.40481">
        <ele>129</ele>
        <time>2025-03-23T10:09:01Z</time>
      </trkpt>
      <trkpt lat="43.63459" lon="1.4048">
        <ele>129</ele>
        <time>2025-03-23T10:09:02Z</time>
      </trkpt>
      <trkpt lat="43.6346" lon="1.4048">
        <ele>129</ele>
        <time>2025-03-23T10:09:03Z</time>
      </trkpt>
      <trkpt lat="43.63463" lon="1.4048">
        <ele>129</ele>
        <time>2025-03-23T10:09:04Z</time>
      </trkpt>
      <trkpt lat="43.63465" lon="1.4048">
        <ele>129</ele>
        <time>2025-03-23T10:09:05Z</time>
      </trkpt>
      <trkpt lat="43.63468" lon="1.40481">
        <ele>129</ele>
        <time>2025-03-23T10:09:06Z</time>
      </trkpt>
      <trkpt lat="43.6347" lon="1.40481">
        <ele>129</ele>
        <time>2025-03-23T10:09:07Z</time>
      </trkpt>
      <trkpt lat="43.63473" lon="1.40481">
        <ele>129</ele>
        <time>2025-03-23T10:09:08Z</time>
      </trkpt>
      <trkpt lat="43.63476" lon="1.40481">
        <ele>129</ele>
        <time>2025-03-23T10:09:09Z</time>
      </trkpt>
      <trkpt lat="43.63478" lon="1.40481">
        <ele>129</ele>
        <time>2025-03-23T10:09:10Z</time>
      </trkpt>
      <trkpt lat="43.63481" lon="1.40481">
        <ele>129</ele>
        <time>2025-03-23T10:09:11Z</time>
      </trkpt>
      <trkpt lat="43.63485" lon="1.40481">
        <ele>129</ele>
        <time>2025-03-23T10:09:12Z</time>
      </trkpt>
      <trkpt lat="43.63486" lon="1.40481">
        <ele>129</ele>
        <time>2025-03-23T10:09:13Z</time>
      </trkpt>
      <trkpt lat="43.63489" lon="1.40482">
        <ele>129</ele>
        <time>2025-03-23T10:09:14Z</time>
      </trkpt>
      <trkpt lat="43.63491" lon="1.40482">
        <ele>129</ele>
        <time>2025-03-23T10:09:15Z</time>
      </trkpt>
      <trkpt lat="43.63494" lon="1.40482">
        <ele>129</ele>
        <time>2025-03-23T10:09:16Z</time>
      </trkpt>
      <trkpt lat="43.63496" lon="1.40482">
        <ele>129</ele>
        <time>2025-03-23T10:09:17Z</time>
      </trkpt>
      <trkpt lat="43.63499" lon="1.40482">
        <ele>129</ele>
        <time>2025-03-23T10:09:18Z</time>
      </trkpt>
      <trkpt lat="43.63501" lon="1.40482">
        <ele>129</ele>
        <time>2025-03-23T10:09:19Z</time>
      </trkpt>
      <trkpt lat="43.63503" lon="1.40482">
        <ele>130</ele>
        <time>2025-03-23T10:09:20Z</time>
      </trkpt>
      <trkpt lat="43.63506" lon="1.40481">
        <ele>130</ele>
        <time>2025-03-23T10:09:21Z</time>
      </trkpt>
      <trkpt lat="43.63508" lon="1.40481">
        <ele>130</ele>
        <time>2025-03-23T10:09:22Z</time>
      </trkpt>
      <trkpt lat="43.6351" lon="1.40481">
        <ele>130</ele>
        <time>2025-03-23T10:09:23Z</time>
      </trkpt>
      <trkpt lat="43.63512" lon="1.4048">
        <ele>130</ele>
        <time>2025-03-23T10:09:24Z</time>
      </trkpt>
      <trkpt lat="43.63515" lon="1.4048">
        <ele>129</ele>
        <time>2025-03-23T10:09:25Z</time>
      </trkpt>
      <trkpt lat="43.63518" lon="1.4048">
        <ele>129</ele>
        <time>2025-03-23T10:09:26Z</time>
      </trkpt>
      <trkpt lat="43.63521" lon="1.4048">
        <ele>129</ele>
        <time>2025-03-23T10:09:27Z</time>
      </trkpt>
      <trkpt lat="43.63523" lon="1.4048">
        <ele>129</ele>
        <time>2025-03-23T10:09:28Z</time>
      </trkpt>
      <trkpt lat="43.63526" lon="1.40479">
        <ele>129</ele>
        <time>2025-03-23T10:09:29Z</time>
      </trkpt>
      <trkpt lat="43.63529" lon="1.40479">
        <ele>129</ele>
        <time>2025-03-23T10:09:30Z</time>
      </trkpt>
      <trkpt lat="43.63531" lon="1.40479">
        <ele>129</ele>
        <time>2025-03-23T10:09:31Z</time>
      </trkpt>
      <trkpt lat="43.63534" lon="1.40479">
        <ele>129</ele>
        <time>2025-03-23T10:09:32Z</time>
      </trkpt>
      <trkpt lat="43.63535" lon="1.40478">
        <ele>129</ele>
        <time>2025-03-23T10:09:33Z</time>
      </trkpt>
      <trkpt lat="43.63538" lon="1.40478">
        <ele>129</ele>
        <time>2025-03-23T10:09:34Z</time>
      </trkpt>
      <trkpt lat="43.6354" lon="1.40478">
        <ele>129</ele>
        <time>2025-03-23T10:09:35Z</time>
      </trkpt>
      <trkpt lat="43.63542" lon="1.40478">
        <ele>129</ele>
        <time>2025-03-23T10:09:36Z</time>
      </trkpt>
      <trkpt lat="43.63545" lon="1.40478">
        <ele>129</ele>
        <time>2025-03-23T10:09:37Z</time>
      </trkpt>
      <trkpt lat="43.63546" lon="1.40479">
        <ele>129</ele>
        <time>2025-03-23T10:09:38Z</time>
      </trkpt>
      <trkpt lat="43.63548" lon="1.40479">
        <ele>129</ele>
        <time>2025-03-23T10:09:39Z</time>
      </trkpt>
      <trkpt lat="43.63552" lon="1.40479">
        <ele>129</ele>
        <time>2025-03-23T10:09:40Z</time>
      </trkpt>
      <trkpt lat="43.63553" lon="1.40479">
        <ele>129</ele>
        <time>2025-03-23T10:09:41Z</time>
      </trkpt>
      <trkpt lat="43.63556" lon="1.4048">
        <ele>129</ele>
        <time>2025-03-23T10:09:42Z</time>
      </trkpt>
      <trkpt lat="43.63558" lon="1.4048">
        <ele>129</ele>
        <time>2025-03-23T10:09:43Z</time>
      </trkpt>
      <trkpt lat="43.6356" lon="1.4048">
        <ele>129</ele>
        <time>2025-03-23T10:09:44Z</time>
      </trkpt>
      <trkpt lat="43.63562" lon="1.4048">
        <ele>129</ele>
        <time>2025-03-23T10:09:45Z</time>
      </trkpt>
      <trkpt lat="43.63565" lon="1.4048">
        <ele>129</ele>
        <time>2025-03-23T10:09:46Z</time>
      </trkpt>
      <trkpt lat="43.63568" lon="1.40481">
        <ele>129</ele>
        <time>2025-03-23T10:09:47Z</time>
      </trkpt>
      <trkpt lat="43.6357" lon="1.40482">
        <ele>129</ele>
        <time>2025-03-23T10:09:48Z</time>
      </trkpt>
      <trkpt lat="43.63573" lon="1.40483">
        <ele>129</ele>
        <time>2025-03-23T10:09:49Z</time>
      </trkpt>
      <trkpt lat="43.63575" lon="1.40483">
        <ele>129</ele>
        <time>2025-03-23T10:09:50Z</time>
      </trkpt>
      <trkpt lat="43.63578" lon="1.40484">
        <ele>129</ele>
        <time>2025-03-23T10:09:51Z</time>
      </trkpt>
      <trkpt lat="43.63582" lon="1.40485">
        <ele>129</ele>
        <time>2025-03-23T10:09:52Z</time>
      </trkpt>
      <trkpt lat="43.63584" lon="1.40485">
        <ele>129</ele>
        <time>2025-03-23T10:09:53Z</time>
      </trkpt>
      <trkpt lat="43.63586" lon="1.40485">
        <ele>129</ele>
        <time>2025-03-23T10:09:54Z</time>
      </trkpt>
      <trkpt lat="43.63588" lon="1.40485">
        <ele>129</ele>
        <time>2025-03-23T10:09:55Z</time>
      </trkpt>
      <trkpt lat="43.63591" lon="1.40485">
        <ele>129</ele>
        <time>2025-03-23T10:09:56Z</time>
      </trkpt>
      <trkpt lat="43.63594" lon="1.40485">
        <ele>130</ele>
        <time>2025-03-23T10:09:57Z</time>
      </trkpt>
      <trkpt lat="43.63597" lon="1.40485">
        <ele>130</ele>
        <time>2025-03-23T10:09:58Z</time>
      </trkpt>
      <trkpt lat="43.636" lon="1.40485">
        <ele>130</ele>
        <time>2025-03-23T10:09:59Z</time>
      </trkpt>
      <trkpt lat="43.63603" lon="1.40487">
        <ele>129</ele>
        <time>2025-03-23T10:10:00Z</time>
      </trkpt>
      <trkpt lat="43.63606" lon="1.40488">
        <ele>129</ele>
        <time>2025-03-23T10:10:01Z</time>
      </trkpt>
      <trkpt lat="43.63608" lon="1.40488">
        <ele>129</ele>
        <time>2025-03-23T10:10:02Z</time>
      </trkpt>
      <trkpt lat="43.63611" lon="1.40488">
        <ele>129</ele>
        <time>2025-03-23T10:10:03Z</time>
      </trkpt>
      <trkpt lat="43.63615" lon="1.40488">
        <ele>129</ele>
        <time>2025-03-23T10:10:04Z</time>
      </trkpt>
      <trkpt lat="43.63616" lon="1.40488">
        <ele>129</ele>
        <time>2025-03-23T10:10:05Z</time>
      </trkpt>
      <trkpt lat="43.63618" lon="1.40487">
        <ele>129</ele>
        <time>2025-03-23T10:10:06Z</time>
      </trkpt>
      <trkpt lat="43.63621" lon="1.40487">
        <ele>129</ele>
        <time>2025-03-23T10:10:07Z</time>
      </trkpt>
      <trkpt lat="43.63625" lon="1.40486">
        <ele>129</ele>
        <time>2025-03-23T10:10:08Z</time>
      </trkpt>
      <trkpt lat="43.63626" lon="1.40485">
        <ele>129</ele>
        <time>2025-03-23T10:10:09Z</time>
      </trkpt>
      <trkpt lat="43.63628" lon="1.40485">
        <ele>129</ele>
        <time>2025-03-23T10:10:10Z</time>
      </trkpt>
      <trkpt lat="43.63632" lon="1.40485">
        <ele>129</ele>
        <time>2025-03-23T10:10:11Z</time>
      </trkpt>
      <trkpt lat="43.63634" lon="1.40485">
        <ele>129</ele>
        <time>2025-03-23T10:10:12Z</time>
      </trkpt>
      <trkpt lat="43.63636" lon="1.40485">
        <ele>129</ele>
        <time>2025-03-23T10:10:13Z</time>
      </trkpt>
      <trkpt lat="43.63638" lon="1.40484">
        <ele>129</ele>
        <time>2025-03-23T10:10:14Z</time>
      </trkpt>
      <trkpt lat="43.63641" lon="1.40484">
        <ele>129</ele>
        <time>2025-03-23T10:10:15Z</time>
      </trkpt>
      <trkpt lat="43.63643" lon="1.40483">
        <ele>129</ele>
        <time>2025-03-23T10:10:16Z</time>
      </trkpt>
      <trkpt lat="43.63645" lon="1.40483">
        <ele>129</ele>
        <time>2025-03-23T10:10:17Z</time>
      </trkpt>
      <trkpt lat="43.63648" lon="1.40483">
        <ele>129</ele>
        <time>2025-03-23T10:10:18Z</time>
      </trkpt>
      <trkpt lat="43.63649" lon="1.40483">
        <ele>129</ele>
        <time>2025-03-23T10:10:19Z</time>
      </trkpt>
      <trkpt lat="43.63652" lon="1.40483">
        <ele>129</ele>
        <time>2025-03-23T10:10:20Z</time>
      </trkpt>
      <trkpt lat="43.63655" lon="1.40483">
        <ele>129</ele>
        <time>2025-03-23T10:10:21Z</time>
      </trkpt>
      <trkpt lat="43.63657" lon="1.40483">
        <ele>129</ele>
        <time>2025-03-23T10:10:22Z</time>
      </trkpt>
      <trkpt lat="43.6366" lon="1.40484">
        <ele>129</ele>
        <time>2025-03-23T10:10:23Z</time>
      </trkpt>
      <trkpt lat="43.63662" lon="1.40484">
        <ele>129</ele>
        <time>2025-03-23T10:10:24Z</time>
      </trkpt>
      <trkpt lat="43.63665" lon="1.40483">
        <ele>129</ele>
        <time>2025-03-23T10:10:25Z</time>
      </trkpt>
      <trkpt lat="43.63666" lon="1.40483">
        <ele>129</ele>
        <time>2025-03-23T10:10:26Z</time>
      </trkpt>
      <trkpt lat="43.63669" lon="1.40483">
        <ele>129</ele>
        <time>2025-03-23T10:10:27Z</time>
      </trkpt>
      <trkpt lat="43.63671" lon="1.40482">
        <ele>129</ele>
        <time>2025-03-23T10:10:28Z</time>
      </trkpt>
      <trkpt lat="43.63675" lon="1.40482">
        <ele>129</ele>
        <time>2025-03-23T10:10:29Z</time>
      </trkpt>
      <trkpt lat="43.63676" lon="1.40482">
        <ele>129</ele>
        <time>2025-03-23T10:10:30Z</time>
      </trkpt>
      <trkpt lat="43.63679" lon="1.40482">
        <ele>129</ele>
        <time>2025-03-23T10:10:31Z</time>
      </trkpt>
      <trkpt lat="43.63683" lon="1.40482">
        <ele>129</ele>
        <time>2025-03-23T10:10:32Z</time>
      </trkpt>
      <trkpt lat="43.63685" lon="1.40482">
        <ele>129</ele>
        <time>2025-03-23T10:10:33Z</time>
      </trkpt>
      <trkpt lat="43.63686" lon="1.40483">
        <ele>129</ele>
        <time>2025-03-23T10:10:34Z</time>
      </trkpt>
      <trkpt lat="43.63689" lon="1.40483">
        <ele>129</ele>
        <time>2025-03-23T10:10:35Z</time>
      </trkpt>
      <trkpt lat="43.63692" lon="1.40482">
        <ele>129</ele>
        <time>2025-03-23T10:10:36Z</time>
      </trkpt>
      <trkpt lat="43.63696" lon="1.40482">
        <ele>129</ele>
        <time>2025-03-23T10:10:37Z</time>
      </trkpt>
      <trkpt lat="43.63697" lon="1.40482">
        <ele>129</ele>
        <time>2025-03-23T10:10:38Z</time>
      </trkpt>
      <trkpt lat="43.63701" lon="1.40483">
        <ele>129</ele>
        <time>2025-03-23T10:10:39Z</time>
      </trkpt>
      <trkpt lat="43.63702" lon="1.40483">
        <ele>129</ele>
        <time>2025-03-23T10:10:40Z</time>
      </trkpt>
      <trkpt lat="43.63705" lon="1.40483">
        <ele>129</ele>
        <time>2025-03-23T10:10:41Z</time>
      </trkpt>
      <trkpt lat="43.63707" lon="1.40484">
        <ele>129</ele>
        <time>2025-03-23T10:10:42Z</time>
      </trkpt>
      <trkpt lat="43.6371" lon="1.40484">
        <ele>129</ele>
        <time>2025-03-23T10:10:43Z</time>
      </trkpt>
      <trkpt lat="43.63712" lon="1.40484">
        <ele>129</ele>
        <time>2025-03-23T10:10:44Z</time>
      </trkpt>
      <trkpt lat="43.63715" lon="1.40484">
        <ele>129</ele>
        <time>2025-03-23T10:10:45Z</time>
      </trkpt>
      <trkpt lat="43.6372" lon="1.40484">
        <ele>129</ele>
        <time>2025-03-23T10:10:46Z</time>
      </trkpt>
      <trkpt lat="43.63721" lon="1.40484">
        <ele>129</ele>
        <time>2025-03-23T10:10:47Z</time>
      </trkpt>
      <trkpt lat="43.63724" lon="1.40483">
        <ele>129</ele>
        <time>2025-03-23T10:10:48Z</time>
      </trkpt>
      <trkpt lat="43.63726" lon="1.40482">
        <ele>129</ele>
        <time>2025-03-23T10:10:49Z</time>
      </trkpt>
      <trkpt lat="43.63729" lon="1.40482">
        <ele>129</ele>
        <time>2025-03-23T10:10:50Z</time>
      </trkpt>
      <trkpt lat="43.63733" lon="1.40481">
        <ele>129</ele>
        <time>2025-03-23T10:10:51Z</time>
      </trkpt>
      <trkpt lat="43.63734" lon="1.4048">
        <ele>129</ele>
        <time>2025-03-23T10:10:52Z</time>
      </trkpt>
      <trkpt lat="43.63736" lon="1.4048">
        <ele>129</ele>
        <time>2025-03-23T10:10:53Z</time>
      </trkpt>
      <trkpt lat="43.63739" lon="1.40479">
        <ele>129</ele>
        <time>2025-03-23T10:10:54Z</time>
      </trkpt>
      <trkpt lat="43.63741" lon="1.40478">
        <ele>129</ele>
        <time>2025-03-23T10:10:55Z</time>
      </trkpt>
      <trkpt lat="43.63745" lon="1.40477">
        <ele>129</ele>
        <time>2025-03-23T10:10:56Z</time>
      </trkpt>
      <trkpt lat="43.63746" lon="1.40477">
        <ele>129</ele>
        <time>2025-03-23T10:10:57Z</time>
      </trkpt>
      <trkpt lat="43.63749" lon="1.40476">
        <ele>129</ele>
        <time>2025-03-23T10:10:58Z</time>
      </trkpt>
      <trkpt lat="43.63752" lon="1.40476">
        <ele>129</ele>
        <time>2025-03-23T10:10:59Z</time>
      </trkpt>
      <trkpt lat="43.63754" lon="1.40475">
        <ele>129</ele>
        <time>2025-03-23T10:11:00Z</time>
      </trkpt>
      <trkpt lat="43.63757" lon="1.40475">
        <ele>129</ele>
        <time>2025-03-23T10:11:01Z</time>
      </trkpt>
      <trkpt lat="43.63759" lon="1.40474">
        <ele>129</ele>
        <time>2025-03-23T10:11:02Z</time>
      </trkpt>
      <trkpt lat="43.63762" lon="1.40473">
        <ele>129</ele>
        <time>2025-03-23T10:11:03Z</time>
      </trkpt>
      <trkpt lat="43.63765" lon="1.40473">
        <ele>129</ele>
        <time>2025-03-23T10:11:04Z</time>
      </trkpt>
      <trkpt lat="43.63767" lon="1.40472">
        <ele>128</ele>
        <time>2025-03-23T10:11:05Z</time>
      </trkpt>
      <trkpt lat="43.6377" lon="1.40472">
        <ele>128</ele>
        <time>2025-03-23T10:11:06Z</time>
      </trkpt>
      <trkpt lat="43.63773" lon="1.40472">
        <ele>128</ele>
        <time>2025-03-23T10:11:07Z</time>
      </trkpt>
      <trkpt lat="43.63775" lon="1.40472">
        <ele>128</ele>
        <time>2025-03-23T10:11:08Z</time>
      </trkpt>
      <trkpt lat="43.63777" lon="1.40472">
        <ele>128</ele>
        <time>2025-03-23T10:11:09Z</time>
      </trkpt>
      <trkpt lat="43.6378" lon="1.40472">
        <ele>128</ele>
        <time>2025-03-23T10:11:10Z</time>
      </trkpt>
      <trkpt lat="43.63781" lon="1.40471">
        <ele>128</ele>
        <time>2025-03-23T10:11:11Z</time>
      </trkpt>
      <trkpt lat="43.63783" lon="1.40471">
        <ele>128</ele>
        <time>2025-03-23T10:11:12Z</time>
      </trkpt>
      <trkpt lat="43.63785" lon="1.40471">
        <ele>128</ele>
        <time>2025-03-23T10:11:13Z</time>
      </trkpt>
      <trkpt lat="43.63787" lon="1.4047">
        <ele>129</ele>
        <time>2025-03-23T10:11:14Z</time>
      </trkpt>
      <trkpt lat="43.63791" lon="1.4047">
        <ele>129</ele>
        <time>2025-03-23T10:11:15Z</time>
      </trkpt>
      <trkpt lat="43.63793" lon="1.40469">
        <ele>129</ele>
        <time>2025-03-23T10:11:16Z</time>
      </trkpt>
      <trkpt lat="43.63795" lon="1.40468">
        <ele>129</ele>
        <time>2025-03-23T10:11:17Z</time>
      </trkpt>
      <trkpt lat="43.63798" lon="1.40468">
        <ele>129</ele>
        <time>2025-03-23T10:11:18Z</time>
      </trkpt>
      <trkpt lat="43.63801" lon="1.40468">
        <ele>129</ele>
        <time>2025-03-23T10:11:19Z</time>
      </trkpt>
      <trkpt lat="43.63803" lon="1.40468">
        <ele>129</ele>
        <time>2025-03-23T10:11:20Z</time>
      </trkpt>
      <trkpt lat="43.63806" lon="1.40468">
        <ele>129</ele>
        <time>2025-03-23T10:11:21Z</time>
      </trkpt>
      <trkpt lat="43.63811" lon="1.40469">
        <ele>129</ele>
        <time>2025-03-23T10:11:22Z</time>
      </trkpt>
      <trkpt lat="43.63812" lon="1.40469">
        <ele>129</ele>
        <time>2025-03-23T10:11:23Z</time>
      </trkpt>
      <trkpt lat="43.63815" lon="1.40469">
        <ele>129</ele>
        <time>2025-03-23T10:11:24Z</time>
      </trkpt>
      <trkpt lat="43.63818" lon="1.40469">
        <ele>130</ele>
        <time>2025-03-23T10:11:25Z</time>
      </trkpt>
      <trkpt lat="43.63821" lon="1.40469">
        <ele>130</ele>
        <time>2025-03-23T10:11:26Z</time>
      </trkpt>
      <trkpt lat="43.63823" lon="1.40468">
        <ele>130</ele>
        <time>2025-03-23T10:11:27Z</time>
      </trkpt>
      <trkpt lat="43.63826" lon="1.40468">
        <ele>130</ele>
        <time>2025-03-23T10:11:28Z</time>
      </trkpt>
      <trkpt lat="43.63831" lon="1.40466">
        <ele>130</ele>
        <time>2025-03-23T10:11:29Z</time>
      </trkpt>
      <trkpt lat="43.63833" lon="1.40466">
        <ele>130</ele>
        <time>2025-03-23T10:11:30Z</time>
      </trkpt>
      <trkpt lat="43.63835" lon="1.40465">
        <ele>130</ele>
        <time>2025-03-23T10:11:31Z</time>
      </trkpt>
      <trkpt lat="43.63838" lon="1.40464">
        <ele>130</ele>
        <time>2025-03-23T10:11:32Z</time>
      </trkpt>
      <trkpt lat="43.63841" lon="1.40463">
        <ele>130</ele>
        <time>2025-03-23T10:11:33Z</time>
      </trkpt>
      <trkpt lat="43.63845" lon="1.40462">
        <ele>130</ele>
        <time>2025-03-23T10:11:34Z</time>
      </trkpt>
      <trkpt lat="43.63847" lon="1.40462">
        <ele>130</ele>
        <time>2025-03-23T10:11:35Z</time>
      </trkpt>
      <trkpt lat="43.63849" lon="1.40462">
        <ele>130</ele>
        <time>2025-03-23T10:11:36Z</time>
      </trkpt>
      <trkpt lat="43.63851" lon="1.40462">
        <ele>130</ele>
        <time>2025-03-23T10:11:37Z</time>
      </trkpt>
      <trkpt lat="43.63854" lon="1.40462">
        <ele>130</ele>
        <time>2025-03-23T10:11:38Z</time>
      </trkpt>
      <trkpt lat="43.63856" lon="1.40462">
        <ele>130</ele>
        <time>2025-03-23T10:11:39Z</time>
      </trkpt>
      <trkpt lat="43.63858" lon="1.40462">
        <ele>130</ele>
        <time>2025-03-23T10:11:40Z</time>
      </trkpt>
      <trkpt lat="43.63862" lon="1.40461">
        <ele>130</ele>
        <time>2025-03-23T10:11:41Z</time>
      </trkpt>
      <trkpt lat="43.63863" lon="1.40461">
        <ele>130</ele>
        <time>2025-03-23T10:11:42Z</time>
      </trkpt>
      <trkpt lat="43.63866" lon="1.4046">
        <ele>130</ele>
        <time>2025-03-23T10:11:43Z</time>
      </trkpt>
      <trkpt lat="43.63869" lon="1.40459">
        <ele>130</ele>
        <time>2025-03-23T10:11:44Z</time>
      </trkpt>
      <trkpt lat="43.63873" lon="1.40458">
        <ele>130</ele>
        <time>2025-03-23T10:11:45Z</time>
      </trkpt>
      <trkpt lat="43.63874" lon="1.40458">
        <ele>130</ele>
        <time>2025-03-23T10:11:46Z</time>
      </trkpt>
      <trkpt lat="43.63876" lon="1.40457">
        <ele>130</ele>
        <time>2025-03-23T10:11:47Z</time>
      </trkpt>
      <trkpt lat="43.6388" lon="1.40456">
        <ele>130</ele>
        <time>2025-03-23T10:11:48Z</time>
      </trkpt>
      <trkpt lat="43.63882" lon="1.40455">
        <ele>130</ele>
        <time>2025-03-23T10:11:49Z</time>
      </trkpt>
      <trkpt lat="43.63883" lon="1.40454">
        <ele>130</ele>
        <time>2025-03-23T10:11:50Z</time>
      </trkpt>
      <trkpt lat="43.63885" lon="1.40453">
        <ele>130</ele>
        <time>2025-03-23T10:11:51Z</time>
      </trkpt>
      <trkpt lat="43.63888" lon="1.40452">
        <ele>130</ele>
        <time>2025-03-23T10:11:52Z</time>
      </trkpt>
      <trkpt lat="43.63891" lon="1.40451">
        <ele>130</ele>
        <time>2025-03-23T10:11:53Z</time>
      </trkpt>
      <trkpt lat="43.63892" lon="1.4045">
        <ele>130</ele>
        <time>2025-03-23T10:11:54Z</time>
      </trkpt>
      <trkpt lat="43.63895" lon="1.4045">
        <ele>130</ele>
        <time>2025-03-23T10:11:55Z</time>
      </trkpt>
      <trkpt lat="43.63897" lon="1.40449">
        <ele>130</ele>
        <time>2025-03-23T10:11:56Z</time>
      </trkpt>
      <trkpt lat="43.639" lon="1.40449">
        <ele>129</ele>
        <time>2025-03-23T10:11:57Z</time>
      </trkpt>
      <trkpt lat="43.63902" lon="1.40448">
        <ele>129</ele>
        <time>2025-03-23T10:11:58Z</time>
      </trkpt>
      <trkpt lat="43.63905" lon="1.40448">
        <ele>129</ele>
        <time>2025-03-23T10:11:59Z</time>
      </trkpt>
      <trkpt lat="43.63907" lon="1.40448">
        <ele>129</ele>
        <time>2025-03-23T10:12:00Z</time>
      </trkpt>
      <trkpt lat="43.6391" lon="1.40447">
        <ele>129</ele>
        <time>2025-03-23T10:12:01Z</time>
      </trkpt>
      <trkpt lat="43.63912" lon="1.40446">
        <ele>129</ele>
        <time>2025-03-23T10:12:02Z</time>
      </trkpt>
      <trkpt lat="43.63915" lon="1.40446">
        <ele>129</ele>
        <time>2025-03-23T10:12:03Z</time>
      </trkpt>
      <trkpt lat="43.63917" lon="1.40446">
        <ele>129</ele>
        <time>2025-03-23T10:12:04Z</time>
      </trkpt>
      <trkpt lat="43.63919" lon="1.40446">
        <ele>129</ele>
        <time>2025-03-23T10:12:05Z</time>
      </trkpt>
      <trkpt lat="43.63922" lon="1.40446">
        <ele>129</ele>
        <time>2025-03-23T10:12:06Z</time>
      </trkpt>
      <trkpt lat="43.63924" lon="1.40446">
        <ele>129</ele>
        <time>2025-03-23T10:12:07Z</time>
      </trkpt>
      <trkpt lat="43.63928" lon="1.40444">
        <ele>129</ele>
        <time>2025-03-23T10:12:08Z</time>
      </trkpt>
      <trkpt lat="43.63929" lon="1.40443">
        <ele>129</ele>
        <time>2025-03-23T10:12:09Z</time>
      </trkpt>
      <trkpt lat="43.63932" lon="1.40442">
        <ele>129</ele>
        <time>2025-03-23T10:12:10Z</time>
      </trkpt>
      <trkpt lat="43.63934" lon="1.40442">
        <ele>130</ele>
        <time>2025-03-23T10:12:11Z</time>
      </trkpt>
      <trkpt lat="43.63938" lon="1.40442">
        <ele>130</ele>
        <time>2025-03-23T10:12:12Z</time>
      </trkpt>
      <trkpt lat="43.63939" lon="1.40442">
        <ele>130</ele>
        <time>2025-03-23T10:12:13Z</time>
      </trkpt>
      <trkpt lat="43.63942" lon="1.40441">
        <ele>130</ele>
        <time>2025-03-23T10:12:14Z</time>
      </trkpt>
      <trkpt lat="43.63946" lon="1.4044">
        <ele>130</ele>
        <time>2025-03-23T10:12:15Z</time>
      </trkpt>
      <trkpt lat="43.63947" lon="1.4044">
        <ele>130</ele>
        <time>2025-03-23T10:12:16Z</time>
      </trkpt>
      <trkpt lat="43.63949" lon="1.40439">
        <ele>130</ele>
        <time>2025-03-23T10:12:17Z</time>
      </trkpt>
      <trkpt lat="43.63952" lon="1.40439">
        <ele>130</ele>
        <time>2025-03-23T10:12:18Z</time>
      </trkpt>
      <trkpt lat="43.63954" lon="1.40438">
        <ele>130</ele>
        <time>2025-03-23T10:12:19Z</time>
      </trkpt>
      <trkpt lat="43.63957" lon="1.40437">
        <ele>130</ele>
        <time>2025-03-23T10:12:20Z</time>
      </trkpt>
      <trkpt lat="43.63959" lon="1.40436">
        <ele>130</ele>
        <time>2025-03-23T10:12:21Z</time>
      </trkpt>
      <trkpt lat="43.63963" lon="1.40436">
        <ele>130</ele>
        <time>2025-03-23T10:12:22Z</time>
      </trkpt>
      <trkpt lat="43.63964" lon="1.40436">
        <ele>130</ele>
        <time>2025-03-23T10:12:23Z</time>
      </trkpt>
      <trkpt lat="43.63967" lon="1.40435">
        <ele>130</ele>
        <time>2025-03-23T10:12:24Z</time>
      </trkpt>
      <trkpt lat="43.63969" lon="1.40435">
        <ele>130</ele>
        <time>2025-03-23T10:12:25Z</time>
      </trkpt>
      <trkpt lat="43.63971" lon="1.40435">
        <ele>130</ele>
        <time>2025-03-23T10:12:26Z</time>
      </trkpt>
      <trkpt lat="43.63973" lon="1.40434">
        <ele>130</ele>
        <time>2025-03-23T10:12:27Z</time>
      </trkpt>
      <trkpt lat="43.63975" lon="1.40432">
        <ele>130</ele>
        <time>2025-03-23T10:12:28Z</time>
      </trkpt>
      <trkpt lat="43.63979" lon="1.40431">
        <ele>130</ele>
        <time>2025-03-23T10:12:29Z</time>
      </trkpt>
      <trkpt lat="43.6398" lon="1.40431">
        <ele>129</ele>
        <time>2025-03-23T10:12:30Z</time>
      </trkpt>
      <trkpt lat="43.63985" lon="1.4043">
        <ele>129</ele>
        <time>2025-03-23T10:12:31Z</time>
      </trkpt>
      <trkpt lat="43.63986" lon="1.4043">
        <ele>130</ele>
        <time>2025-03-23T10:12:32Z</time>
      </trkpt>
      <trkpt lat="43.6399" lon="1.4043">
        <ele>130</ele>
        <time>2025-03-23T10:12:33Z</time>
      </trkpt>
      <trkpt lat="43.63992" lon="1.4043">
        <ele>130</ele>
        <time>2025-03-23T10:12:34Z</time>
      </trkpt>
      <trkpt lat="43.63994" lon="1.4043">
        <ele>130</ele>
        <time>2025-03-23T10:12:35Z</time>
      </trkpt>
      <trkpt lat="43.63996" lon="1.40429">
        <ele>130</ele>
        <time>2025-03-23T10:12:36Z</time>
      </trkpt>
      <trkpt lat="43.63999" lon="1.40429">
        <ele>130</ele>
        <time>2025-03-23T10:12:37Z</time>
      </trkpt>
      <trkpt lat="43.64004" lon="1.40429">
        <ele>130</ele>
        <time>2025-03-23T10:12:38Z</time>
      </trkpt>
      <trkpt lat="43.64005" lon="1.40428">
        <ele>130</ele>
        <time>2025-03-23T10:12:39Z</time>
      </trkpt>
      <trkpt lat="43.64008" lon="1.40428">
        <ele>130</ele>
        <time>2025-03-23T10:12:40Z</time>
      </trkpt>
      <trkpt lat="43.64011" lon="1.40428">
        <ele>130</ele>
        <time>2025-03-23T10:12:41Z</time>
      </trkpt>
      <trkpt lat="43.64014" lon="1.40429">
        <ele>130</ele>
        <time>2025-03-23T10:12:42Z</time>
      </trkpt>
      <trkpt lat="43.64017" lon="1.40429">
        <ele>130</ele>
        <time>2025-03-23T10:12:43Z</time>
      </trkpt>
      <trkpt lat="43.6402" lon="1.4043">
        <ele>131</ele>
        <time>2025-03-23T10:12:44Z</time>
      </trkpt>
      <trkpt lat="43.64024" lon="1.4043">
        <ele>131</ele>
        <time>2025-03-23T10:12:45Z</time>
      </trkpt>
      <trkpt lat="43.64025" lon="1.4043">
        <ele>131</ele>
        <time>2025-03-23T10:12:46Z</time>
      </trkpt>
      <trkpt lat="43.64027" lon="1.40429">
        <ele>131</ele>
        <time>2025-03-23T10:12:47Z</time>
      </trkpt>
      <trkpt lat="43.64029" lon="1.40428">
        <ele>131</ele>
        <time>2025-03-23T10:12:48Z</time>
      </trkpt>
      <trkpt lat="43.64031" lon="1.40427">
        <ele>130</ele>
        <time>2025-03-23T10:12:49Z</time>
      </trkpt>
      <trkpt lat="43.64034" lon="1.40426">
        <ele>130</ele>
        <time>2025-03-23T10:12:50Z</time>
      </trkpt>
      <trkpt lat="43.64036" lon="1.40426">
        <ele>130</ele>
        <time>2025-03-23T10:12:51Z</time>
      </trkpt>
      <trkpt lat="43.64039" lon="1.40425">
        <ele>131</ele>
        <time>2025-03-23T10:12:52Z</time>
      </trkpt>
      <trkpt lat="43.64042" lon="1.40424">
        <ele>131</ele>
        <time>2025-03-23T10:12:53Z</time>
      </trkpt>
      <trkpt lat="43.64044" lon="1.40423">
        <ele>131</ele>
        <time>2025-03-23T10:12:54Z</time>
      </trkpt>
      <trkpt lat="43.64048" lon="1.40422">
        <ele>131</ele>
        <time>2025-03-23T10:12:55Z</time>
      </trkpt>
      <trkpt lat="43.6405" lon="1.40422">
        <ele>131</ele>
        <time>2025-03-23T10:12:56Z</time>
      </trkpt>
      <trkpt lat="43.64053" lon="1.40421">
        <ele>131</ele>
        <time>2025-03-23T10:12:57Z</time>
      </trkpt>
      <trkpt lat="43.64057" lon="1.4042">
        <ele>131</ele>
        <time>2025-03-23T10:12:58Z</time>
      </trkpt>
      <trkpt lat="43.64058" lon="1.4042">
        <ele>131</ele>
        <time>2025-03-23T10:12:59Z</time>
      </trkpt>
      <trkpt lat="43.64061" lon="1.40418">
        <ele>130</ele>
        <time>2025-03-23T10:13:00Z</time>
      </trkpt>
      <trkpt lat="43.64063" lon="1.40418">
        <ele>130</ele>
        <time>2025-03-23T10:13:01Z</time>
      </trkpt>
      <trkpt lat="43.64065" lon="1.40417">
        <ele>130</ele>
        <time>2025-03-23T10:13:02Z</time>
      </trkpt>
      <trkpt lat="43.64068" lon="1.40416">
        <ele>130</ele>
        <time>2025-03-23T10:13:03Z</time>
      </trkpt>
      <trkpt lat="43.6407" lon="1.40415">
        <ele>130</ele>
        <time>2025-03-23T10:13:04Z</time>
      </trkpt>
      <trkpt lat="43.64075" lon="1.40414">
        <ele>130</ele>
        <time>2025-03-23T10:13:05Z</time>
      </trkpt>
      <trkpt lat="43.64077" lon="1.40414">
        <ele>130</ele>
        <time>2025-03-23T10:13:06Z</time>
      </trkpt>
      <trkpt lat="43.64078" lon="1.40414">
        <ele>130</ele>
        <time>2025-03-23T10:13:07Z</time>
      </trkpt>
      <trkpt lat="43.64081" lon="1.40413">
        <ele>130</ele>
        <time>2025-03-23T10:13:08Z</time>
      </trkpt>
      <trkpt lat="43.64086" lon="1.40412">
        <ele>130</ele>
        <time>2025-03-23T10:13:10Z</time>
      </trkpt>
      <trkpt lat="43.64089" lon="1.40412">
        <ele>130</ele>
        <time>2025-03-23T10:13:11Z</time>
      </trkpt>
      <trkpt lat="43.64092" lon="1.40412">
        <ele>130</ele>
        <time>2025-03-23T10:13:12Z</time>
      </trkpt>
      <trkpt lat="43.64094" lon="1.40411">
        <ele>130</ele>
        <time>2025-03-23T10:13:13Z</time>
      </trkpt>
      <trkpt lat="43.64099" lon="1.40411">
        <ele>130</ele>
        <time>2025-03-23T10:13:14Z</time>
      </trkpt>
      <trkpt lat="43.641" lon="1.4041">
        <ele>130</ele>
        <time>2025-03-23T10:13:15Z</time>
      </trkpt>
      <trkpt lat="43.64103" lon="1.40409">
        <ele>130</ele>
        <time>2025-03-23T10:13:16Z</time>
      </trkpt>
      <trkpt lat="43.64105" lon="1.40409">
        <ele>131</ele>
        <time>2025-03-23T10:13:17Z</time>
      </trkpt>
      <trkpt lat="43.64108" lon="1.40408">
        <ele>131</ele>
        <time>2025-03-23T10:13:18Z</time>
      </trkpt>
      <trkpt lat="43.64111" lon="1.40407">
        <ele>131</ele>
        <time>2025-03-23T10:13:19Z</time>
      </trkpt>
      <trkpt lat="43.64112" lon="1.40407">
        <ele>131</ele>
        <time>2025-03-23T10:13:20Z</time>
      </trkpt>
      <trkpt lat="43.64115" lon="1.40407">
        <ele>131</ele>
        <time>2025-03-23T10:13:21Z</time>
      </trkpt>
      <trkpt lat="43.64117" lon="1.40406">
        <ele>131</ele>
        <time>2025-03-23T10:13:22Z</time>
      </trkpt>
      <trkpt lat="43.64119" lon="1.40406">
        <ele>131</ele>
        <time>2025-03-23T10:13:23Z</time>
      </trkpt>
      <trkpt lat="43.64122" lon="1.40405">
        <ele>131</ele>
        <time>2025-03-23T10:13:24Z</time>
      </trkpt>
      <trkpt lat="43.64124" lon="1.40405">
        <ele>131</ele>
        <time>2025-03-23T10:13:25Z</time>
      </trkpt>
      <trkpt lat="43.64126" lon="1.40405">
        <ele>131</ele>
        <time>2025-03-23T10:13:26Z</time>
      </trkpt>
      <trkpt lat="43.64128" lon="1.40405">
        <ele>131</ele>
        <time>2025-03-23T10:13:27Z</time>
      </trkpt>
      <trkpt lat="43.6413" lon="1.40404">
        <ele>131</ele>
        <time>2025-03-23T10:13:28Z</time>
      </trkpt>
      <trkpt lat="43.64133" lon="1.40404">
        <ele>131</ele>
        <time>2025-03-23T10:13:29Z</time>
      </trkpt>
      <trkpt lat="43.64136" lon="1.40403">
        <ele>131</ele>
        <time>2025-03-23T10:13:30Z</time>
      </trkpt>
      <trkpt lat="43.64138" lon="1.40403">
        <ele>131</ele>
        <time>2025-03-23T10:13:31Z</time>
      </trkpt>
      <trkpt lat="43.64141" lon="1.40402">
        <ele>131</ele>
        <time>2025-03-23T10:13:32Z</time>
      </trkpt>
      <trkpt lat="43.64143" lon="1.40402">
        <ele>131</ele>
        <time>2025-03-23T10:13:33Z</time>
      </trkpt>
      <trkpt lat="43.64145" lon="1.40402">
        <ele>131</ele>
        <time>2025-03-23T10:13:34Z</time>
      </trkpt>
      <trkpt lat="43.64149" lon="1.40401">
        <ele>131</ele>
        <time>2025-03-23T10:13:35Z</time>
      </trkpt>
      <trkpt lat="43.6415" lon="1.40401">
        <ele>131</ele>
        <time>2025-03-23T10:13:36Z</time>
      </trkpt>
      <trkpt lat="43.64153" lon="1.404">
        <ele>131</ele>
        <time>2025-03-23T10:13:37Z</time>
      </trkpt>
      <trkpt lat="43.64155" lon="1.404">
        <ele>131</ele>
        <time>2025-03-23T10:13:38Z</time>
      </trkpt>
      <trkpt lat="43.64158" lon="1.40399">
        <ele>131</ele>
        <time>2025-03-23T10:13:39Z</time>
      </trkpt>
      <trkpt lat="43.64161" lon="1.40399">
        <ele>131</ele>
        <time>2025-03-23T10:13:40Z</time>
      </trkpt>
      <trkpt lat="43.64163" lon="1.40398">
        <ele>131</ele>
        <time>2025-03-23T10:13:41Z</time>
      </trkpt>
      <trkpt lat="43.64166" lon="1.40397">
        <ele>131</ele>
        <time>2025-03-23T10:13:42Z</time>
      </trkpt>
      <trkpt lat="43.64169" lon="1.40397">
        <ele>131</ele>
        <time>2025-03-23T10:13:43Z</time>
      </trkpt>
      <trkpt lat="43.64171" lon="1.40397">
        <ele>130</ele>
        <time>2025-03-23T10:13:44Z</time>
      </trkpt>
      <trkpt lat="43.64176" lon="1.40396">
        <ele>130</ele>
        <time>2025-03-23T10:13:45Z</time>
      </trkpt>
      <trkpt lat="43.64177" lon="1.40396">
        <ele>131</ele>
        <time>2025-03-23T10:13:46Z</time>
      </trkpt>
      <trkpt lat="43.6418" lon="1.40394">
        <ele>131</ele>
        <time>2025-03-23T10:13:47Z</time>
      </trkpt>
      <trkpt lat="43.64181" lon="1.40394">
        <ele>131</ele>
        <time>2025-03-23T10:13:48Z</time>
      </trkpt>
      <trkpt lat="43.64184" lon="1.40393">
        <ele>131</ele>
        <time>2025-03-23T10:13:49Z</time>
      </trkpt>
      <trkpt lat="43.64187" lon="1.40392">
        <ele>131</ele>
        <time>2025-03-23T10:13:50Z</time>
      </trkpt>
      <trkpt lat="43.64189" lon="1.40392">
        <ele>131</ele>
        <time>2025-03-23T10:13:51Z</time>
      </trkpt>
      <trkpt lat="43.64192" lon="1.40391">
        <ele>131</ele>
        <time>2025-03-23T10:13:52Z</time>
      </trkpt>
      <trkpt lat="43.64194" lon="1.4039">
        <ele>131</ele>
        <time>2025-03-23T10:13:53Z</time>
      </trkpt>
      <trkpt lat="43.64197" lon="1.40389">
        <ele>131</ele>
        <time>2025-03-23T10:13:54Z</time>
      </trkpt>
      <trkpt lat="43.64199" lon="1.40388">
        <ele>131</ele>
        <time>2025-03-23T10:13:55Z</time>
      </trkpt>
      <trkpt lat="43.64202" lon="1.40386">
        <ele>131</ele>
        <time>2025-03-23T10:13:56Z</time>
      </trkpt>
      <trkpt lat="43.64204" lon="1.40385">
        <ele>131</ele>
        <time>2025-03-23T10:13:57Z</time>
      </trkpt>
      <trkpt lat="43.64207" lon="1.40384">
        <ele>131</ele>
        <time>2025-03-23T10:13:58Z</time>
      </trkpt>
      <trkpt lat="43.64209" lon="1.40384">
        <ele>131</ele>
        <time>2025-03-23T10:13:59Z</time>
      </trkpt>
      <trkpt lat="43.64212" lon="1.40383">
        <ele>130</ele>
        <time>2025-03-23T10:14:00Z</time>
      </trkpt>
      <trkpt lat="43.64214" lon="1.40382">
        <ele>130</ele>
        <time>2025-03-23T10:14:01Z</time>
      </trkpt>
      <trkpt lat="43.64217" lon="1.40382">
        <ele>130</ele>
        <time>2025-03-23T10:14:02Z</time>
      </trkpt>
      <trkpt lat="43.64219" lon="1.40381">
        <ele>130</ele>
        <time>2025-03-23T10:14:03Z</time>
      </trkpt>
      <trkpt lat="43.64224" lon="1.40379">
        <ele>130</ele>
        <time>2025-03-23T10:14:04Z</time>
      </trkpt>
      <trkpt lat="43.64225" lon="1.40379">
        <ele>130</ele>
        <time>2025-03-23T10:14:05Z</time>
      </trkpt>
      <trkpt lat="43.64227" lon="1.40379">
        <ele>131</ele>
        <time>2025-03-23T10:14:06Z</time>
      </trkpt>
      <trkpt lat="43.6423" lon="1.40378">
        <ele>131</ele>
        <time>2025-03-23T10:14:07Z</time>
      </trkpt>
      <trkpt lat="43.64234" lon="1.40376">
        <ele>131</ele>
        <time>2025-03-23T10:14:08Z</time>
      </trkpt>
      <trkpt lat="43.64235" lon="1.40375">
        <ele>131</ele>
        <time>2025-03-23T10:14:09Z</time>
      </trkpt>
      <trkpt lat="43.64237" lon="1.40374">
        <ele>131</ele>
        <time>2025-03-23T10:14:10Z</time>
      </trkpt>
      <trkpt lat="43.64239" lon="1.40373">
        <ele>131</ele>
        <time>2025-03-23T10:14:11Z</time>
      </trkpt>
      <trkpt lat="43.64242" lon="1.40372">
        <ele>131</ele>
        <time>2025-03-23T10:14:12Z</time>
      </trkpt>
      <trkpt lat="43.64245" lon="1.40371">
        <ele>131</ele>
        <time>2025-03-23T10:14:13Z</time>
      </trkpt>
      <trkpt lat="43.64246" lon="1.4037">
        <ele>131</ele>
        <time>2025-03-23T10:14:14Z</time>
      </trkpt>
      <trkpt lat="43.64249" lon="1.40369">
        <ele>131</ele>
        <time>2025-03-23T10:14:15Z</time>
      </trkpt>
      <trkpt lat="43.64251" lon="1.40369">
        <ele>131</ele>
        <time>2025-03-23T10:14:16Z</time>
      </trkpt>
      <trkpt lat="43.64253" lon="1.40368">
        <ele>131</ele>
        <time>2025-03-23T10:14:17Z</time>
      </trkpt>
      <trkpt lat="43.64256" lon="1.40366">
        <ele>131</ele>
        <time>2025-03-23T10:14:18Z</time>
      </trkpt>
      <trkpt lat="43.64258" lon="1.40365">
        <ele>131</ele>
        <time>2025-03-23T10:14:19Z</time>
      </trkpt>
      <trkpt lat="43.64262" lon="1.40364">
        <ele>131</ele>
        <time>2025-03-23T10:14:20Z</time>
      </trkpt>
      <trkpt lat="43.64263" lon="1.40363">
        <ele>131</ele>
        <time>2025-03-23T10:14:21Z</time>
      </trkpt>
      <trkpt lat="43.64265" lon="1.40363">
        <ele>131</ele>
        <time>2025-03-23T10:14:22Z</time>
      </trkpt>
      <trkpt lat="43.64268" lon="1.40363">
        <ele>130</ele>
        <time>2025-03-23T10:14:23Z</time>
      </trkpt>
      <trkpt lat="43.6427" lon="1.40362">
        <ele>130</ele>
        <time>2025-03-23T10:14:24Z</time>
      </trkpt>
      <trkpt lat="43.6427" lon="1.40362">
        <ele>130</ele>
        <time>2025-03-23T10:14:25Z</time>
      </trkpt>
      <trkpt lat="43.64274" lon="1.40361">
        <ele>130</ele>
        <time>2025-03-23T10:14:26Z</time>
      </trkpt>
      <trkpt lat="43.64278" lon="1.40361">
        <ele>130</ele>
        <time>2025-03-23T10:14:27Z</time>
      </trkpt>
      <trkpt lat="43.64279" lon="1.40361">
        <ele>130</ele>
        <time>2025-03-23T10:14:28Z</time>
      </trkpt>
      <trkpt lat="43.64282" lon="1.4036">
        <ele>130</ele>
        <time>2025-03-23T10:14:29Z</time>
      </trkpt>
      <trkpt lat="43.64284" lon="1.40359">
        <ele>130</ele>
        <time>2025-03-23T10:14:30Z</time>
      </trkpt>
      <trkpt lat="43.64287" lon="1.40357">
        <ele>130</ele>
        <time>2025-03-23T10:14:31Z</time>
      </trkpt>
      <trkpt lat="43.64289" lon="1.40357">
        <ele>130</ele>
        <time>2025-03-23T10:14:32Z</time>
      </trkpt>
      <trkpt lat="43.64291" lon="1.40356">
        <ele>130</ele>
        <time>2025-03-23T10:14:33Z</time>
      </trkpt>
      <trkpt lat="43.64294" lon="1.40355">
        <ele>130</ele>
        <time>2025-03-23T10:14:34Z</time>
      </trkpt>
      <trkpt lat="43.64297" lon="1.40353">
        <ele>130</ele>
        <time>2025-03-23T10:14:35Z</time>
      </trkpt>
      <trkpt lat="43.643" lon="1.40352">
        <ele>130</ele>
        <time>2025-03-23T10:14:36Z</time>
      </trkpt>
      <trkpt lat="43.64302" lon="1.40351">
        <ele>131</ele>
        <time>2025-03-23T10:14:37Z</time>
      </trkpt>
      <trkpt lat="43.64305" lon="1.4035">
        <ele>131</ele>
        <time>2025-03-23T10:14:38Z</time>
      </trkpt>
      <trkpt lat="43.64307" lon="1.40349">
        <ele>131</ele>
        <time>2025-03-23T10:14:39Z</time>
      </trkpt>
      <trkpt lat="43.6431" lon="1.40348">
        <ele>131</ele>
        <time>2025-03-23T10:14:40Z</time>
      </trkpt>
      <trkpt lat="43.64313" lon="1.40347">
        <ele>131</ele>
        <time>2025-03-23T10:14:41Z</time>
      </trkpt>
      <trkpt lat="43.64315" lon="1.40346">
        <ele>131</ele>
        <time>2025-03-23T10:14:42Z</time>
      </trkpt>
      <trkpt lat="43.64318" lon="1.40346">
        <ele>131</ele>
        <time>2025-03-23T10:14:43Z</time>
      </trkpt>
      <trkpt lat="43.6432" lon="1.40345">
        <ele>130</ele>
        <time>2025-03-23T10:14:44Z</time>
      </trkpt>
      <trkpt lat="43.64323" lon="1.40343">
        <ele>130</ele>
        <time>2025-03-23T10:14:45Z</time>
      </trkpt>
      <trkpt lat="43.64325" lon="1.40343">
        <ele>130</ele>
        <time>2025-03-23T10:14:46Z</time>
      </trkpt>
      <trkpt lat="43.64328" lon="1.40342">
        <ele>130</ele>
        <time>2025-03-23T10:14:47Z</time>
      </trkpt>
      <trkpt lat="43.6433" lon="1.40341">
        <ele>130</ele>
        <time>2025-03-23T10:14:48Z</time>
      </trkpt>
      <trkpt lat="43.64332" lon="1.4034">
        <ele>130</ele>
        <time>2025-03-23T10:14:49Z</time>
      </trkpt>
      <trkpt lat="43.64334" lon="1.40339">
        <ele>130</ele>
        <time>2025-03-23T10:14:50Z</time>
      </trkpt>
      <trkpt lat="43.64337" lon="1.40338">
        <ele>130</ele>
        <time>2025-03-23T10:14:51Z</time>
      </trkpt>
      <trkpt lat="43.64339" lon="1.40337">
        <ele>130</ele>
        <time>2025-03-23T10:14:52Z</time>
      </trkpt>
      <trkpt lat="43.64342" lon="1.40336">
        <ele>130</ele>
        <time>2025-03-23T10:14:53Z</time>
      </trkpt>
      <trkpt lat="43.64344" lon="1.40335">
        <ele>130</ele>
        <time>2025-03-23T10:14:54Z</time>
      </trkpt>
      <trkpt lat="43.64346" lon="1.40334">
        <ele>131</ele>
        <time>2025-03-23T10:14:55Z</time>
      </trkpt>
      <trkpt lat="43.64349" lon="1.40333">
        <ele>131</ele>
        <time>2025-03-23T10:14:56Z</time>
      </trkpt>
      <trkpt lat="43.64351" lon="1.40332">
        <ele>131</ele>
        <time>2025-03-23T10:14:57Z</time>
      </trkpt>
      <trkpt lat="43.64353" lon="1.40332">
        <ele>131</ele>
        <time>2025-03-23T10:14:58Z</time>
      </trkpt>
      <trkpt lat="43.64356" lon="1.4033">
        <ele>131</ele>
        <time>2025-03-23T10:14:59Z</time>
      </trkpt>
      <trkpt lat="43.64357" lon="1.4033">
        <ele>131</ele>
        <time>2025-03-23T10:15:00Z</time>
      </trkpt>
      <trkpt lat="43.64359" lon="1.40329">
        <ele>131</ele>
        <time>2025-03-23T10:15:01Z</time>
      </trkpt>
      <trkpt lat="43.64362" lon="1.40328">
        <ele>131</ele>
        <time>2025-03-23T10:15:02Z</time>
      </trkpt>
      <trkpt lat="43.64364" lon="1.40328">
        <ele>131</ele>
        <time>2025-03-23T10:15:03Z</time>
      </trkpt>
      <trkpt lat="43.64367" lon="1.40328">
        <ele>131</ele>
        <time>2025-03-23T10:15:04Z</time>
      </trkpt>
      <trkpt lat="43.64369" lon="1.40328">
        <ele>131</ele>
        <time>2025-03-23T10:15:05Z</time>
      </trkpt>
      <trkpt lat="43.64372" lon="1.40328">
        <ele>131</ele>
        <time>2025-03-23T10:15:06Z</time>
      </trkpt>
      <trkpt lat="43.64376" lon="1.40328">
        <ele>131</ele>
        <time>2025-03-23T10:15:07Z</time>
      </trkpt>
      <trkpt lat="43.64377" lon="1.40328">
        <ele>131</ele>
        <time>2025-03-23T10:15:08Z</time>
      </trkpt>
      <trkpt lat="43.6438" lon="1.40328">
        <ele>131</ele>
        <time>2025-03-23T10:15:09Z</time>
      </trkpt>
      <trkpt lat="43.64382" lon="1.40328">
        <ele>131</ele>
        <time>2025-03-23T10:15:10Z</time>
      </trkpt>
      <trkpt lat="43.64385" lon="1.40328">
        <ele>131</ele>
        <time>2025-03-23T10:15:11Z</time>
      </trkpt>
      <trkpt lat="43.64387" lon="1.40328">
        <ele>131</ele>
        <time>2025-03-23T10:15:12Z</time>
      </trkpt>
      <trkpt lat="43.6439" lon="1.40327">
        <ele>131</ele>
        <time>2025-03-23T10:15:13Z</time>
      </trkpt>
      <trkpt lat="43.64393" lon="1.40326">
        <ele>131</ele>
        <time>2025-03-23T10:15:14Z</time>
      </trkpt>
      <trkpt lat="43.64394" lon="1.40326">
        <ele>131</ele>
        <time>2025-03-23T10:15:15Z</time>
      </trkpt>
      <trkpt lat="43.64397" lon="1.40325">
        <ele>131</ele>
        <time>2025-03-23T10:15:16Z</time>
      </trkpt>
      <trkpt lat="43.64399" lon="1.40324">
        <ele>131</ele>
        <time>2025-03-23T10:15:17Z</time>
      </trkpt>
      <trkpt lat="43.64403" lon="1.40324">
        <ele>131</ele>
        <time>2025-03-23T10:15:18Z</time>
      </trkpt>
      <trkpt lat="43.64404" lon="1.40324">
        <ele>131</ele>
        <time>2025-03-23T10:15:19Z</time>
      </trkpt>
      <trkpt lat="43.64407" lon="1.40323">
        <ele>131</ele>
        <time>2025-03-23T10:15:20Z</time>
      </trkpt>
      <trkpt lat="43.6441" lon="1.40323">
        <ele>131</ele>
        <time>2025-03-23T10:15:21Z</time>
      </trkpt>
      <trkpt lat="43.64412" lon="1.40323">
        <ele>131</ele>
        <time>2025-03-23T10:15:22Z</time>
      </trkpt>
      <trkpt lat="43.64413" lon="1.40322">
        <ele>131</ele>
        <time>2025-03-23T10:15:23Z</time>
      </trkpt>
      <trkpt lat="43.64417" lon="1.4032">
        <ele>131</ele>
        <time>2025-03-23T10:15:24Z</time>
      </trkpt>
      <trkpt lat="43.64418" lon="1.4032">
        <ele>131</ele>
        <time>2025-03-23T10:15:25Z</time>
      </trkpt>
      <trkpt lat="43.64421" lon="1.40319">
        <ele>131</ele>
        <time>2025-03-23T10:15:26Z</time>
      </trkpt>
      <trkpt lat="43.64424" lon="1.40318">
        <ele>131</ele>
        <time>2025-03-23T10:15:27Z</time>
      </trkpt>
      <trkpt lat="43.64426" lon="1.40318">
        <ele>131</ele>
        <time>2025-03-23T10:15:28Z</time>
      </trkpt>
      <trkpt lat="43.64429" lon="1.40318">
        <ele>131</ele>
        <time>2025-03-23T10:15:29Z</time>
      </trkpt>
      <trkpt lat="43.64431" lon="1.40318">
        <ele>131</ele>
        <time>2025-03-23T10:15:30Z</time>
      </trkpt>
      <trkpt lat="43.64434" lon="1.40319">
        <ele>131</ele>
        <time>2025-03-23T10:15:31Z</time>
      </trkpt>
      <trkpt lat="43.64436" lon="1.40319">
        <ele>131</ele>
        <time>2025-03-23T10:15:32Z</time>
      </trkpt>
      <trkpt lat="43.64439" lon="1.40319">
        <ele>131</ele>
        <time>2025-03-23T10:15:33Z</time>
      </trkpt>
      <trkpt lat="43.64441" lon="1.40319">
        <ele>131</ele>
        <time>2025-03-23T10:15:34Z</time>
      </trkpt>
      <trkpt lat="43.64444" lon="1.40318">
        <ele>131</ele>
        <time>2025-03-23T10:15:35Z</time>
      </trkpt>
      <trkpt lat="43.64446" lon="1.40318">
        <ele>131</ele>
        <time>2025-03-23T10:15:36Z</time>
      </trkpt>
      <trkpt lat="43.64448" lon="1.40317">
        <ele>131</ele>
        <time>2025-03-23T10:15:37Z</time>
      </trkpt>
      <trkpt lat="43.64451" lon="1.40317">
        <ele>131</ele>
        <time>2025-03-23T10:15:38Z</time>
      </trkpt>
      <trkpt lat="43.64452" lon="1.40317">
        <ele>131</ele>
        <time>2025-03-23T10:15:39Z</time>
      </trkpt>
      <trkpt lat="43.64454" lon="1.40316">
        <ele>131</ele>
        <time>2025-03-23T10:15:40Z</time>
      </trkpt>
      <trkpt lat="43.64458" lon="1.40314">
        <ele>131</ele>
        <time>2025-03-23T10:15:42Z</time>
      </trkpt>
      <trkpt lat="43.64461" lon="1.40314">
        <ele>131</ele>
        <time>2025-03-23T10:15:43Z</time>
      </trkpt>
      <trkpt lat="43.64463" lon="1.40313">
        <ele>131</ele>
        <time>2025-03-23T10:15:44Z</time>
      </trkpt>
      <trkpt lat="43.64465" lon="1.40313">
        <ele>131</ele>
        <time>2025-03-23T10:15:45Z</time>
      </trkpt>
      <trkpt lat="43.64468" lon="1.40312">
        <ele>131</ele>
        <time>2025-03-23T10:15:46Z</time>
      </trkpt>
      <trkpt lat="43.64471" lon="1.40311">
        <ele>131</ele>
        <time>2025-03-23T10:15:47Z</time>
      </trkpt>
      <trkpt lat="43.64473" lon="1.40311">
        <ele>131</ele>
        <time>2025-03-23T10:15:48Z</time>
      </trkpt>
      <trkpt lat="43.64476" lon="1.4031">
        <ele>131</ele>
        <time>2025-03-23T10:15:49Z</time>
      </trkpt>
      <trkpt lat="43.64479" lon="1.40309">
        <ele>131</ele>
        <time>2025-03-23T10:15:50Z</time>
      </trkpt>
      <trkpt lat="43.64482" lon="1.40309">
        <ele>131</ele>
        <time>2025-03-23T10:15:51Z</time>
      </trkpt>
      <trkpt lat="43.64484" lon="1.40308">
        <ele>131</ele>
        <time>2025-03-23T10:15:52Z</time>
      </trkpt>
      <trkpt lat="43.64486" lon="1.40307">
        <ele>131</ele>
        <time>2025-03-23T10:15:53Z</time>
      </trkpt>
      <trkpt lat="43.64489" lon="1.40306">
        <ele>131</ele>
        <time>2025-03-23T10:15:54Z</time>
      </trkpt>
      <trkpt lat="43.64491" lon="1.40306">
        <ele>131</ele>
        <time>2025-03-23T10:15:55Z</time>
      </trkpt>
      <trkpt lat="43.64493" lon="1.40306">
        <ele>131</ele>
        <time>2025-03-23T10:15:56Z</time>
      </trkpt>
      <trkpt lat="43.64495" lon="1.40305">
        <ele>131</ele>
        <time>2025-03-23T10:15:57Z</time>
      </trkpt>
      <trkpt lat="43.64498" lon="1.40304">
        <ele>131</ele>
        <time>2025-03-23T10:15:58Z</time>
      </trkpt>
      <trkpt lat="43.645" lon="1.40303">
        <ele>131</ele>
        <time>2025-03-23T10:15:59Z</time>
      </trkpt>
      <trkpt lat="43.64504" lon="1.40302">
        <ele>131</ele>
        <time>2025-03-23T10:16:00Z</time>
      </trkpt>
      <trkpt lat="43.64505" lon="1.40301">
        <ele>131</ele>
        <time>2025-03-23T10:16:01Z</time>
      </trkpt>
      <trkpt lat="43.64508" lon="1.403">
        <ele>131</ele>
        <time>2025-03-23T10:16:02Z</time>
      </trkpt>
      <trkpt lat="43.6451" lon="1.40299">
        <ele>131</ele>
        <time>2025-03-23T10:16:03Z</time>
      </trkpt>
      <trkpt lat="43.64512" lon="1.40298">
        <ele>132</ele>
        <time>2025-03-23T10:16:04Z</time>
      </trkpt>
      <trkpt lat="43.64516" lon="1.40297">
        <ele>132</ele>
        <time>2025-03-23T10:16:05Z</time>
      </trkpt>
      <trkpt lat="43.64517" lon="1.40297">
        <ele>132</ele>
        <time>2025-03-23T10:16:06Z</time>
      </trkpt>
      <trkpt lat="43.6452" lon="1.40296">
        <ele>132</ele>
        <time>2025-03-23T10:16:07Z</time>
      </trkpt>
      <trkpt lat="43.64524" lon="1.40295">
        <ele>132</ele>
        <time>2025-03-23T10:16:08Z</time>
      </trkpt>
      <trkpt lat="43.64525" lon="1.40294">
        <ele>132</ele>
        <time>2025-03-23T10:16:09Z</time>
      </trkpt>
      <trkpt lat="43.64528" lon="1.40294">
        <ele>132</ele>
        <time>2025-03-23T10:16:10Z</time>
      </trkpt>
      <trkpt lat="43.6453" lon="1.40293">
        <ele>132</ele>
        <time>2025-03-23T10:16:11Z</time>
      </trkpt>
      <trkpt lat="43.64533" lon="1.40292">
        <ele>131</ele>
        <time>2025-03-23T10:16:12Z</time>
      </trkpt>
      <trkpt lat="43.64535" lon="1.40291">
        <ele>131</ele>
        <time>2025-03-23T10:16:13Z</time>
      </trkpt>
      <trkpt lat="43.64538" lon="1.4029">
        <ele>131</ele>
        <time>2025-03-23T10:16:14Z</time>
      </trkpt>
      <trkpt lat="43.64541" lon="1.40289">
        <ele>131</ele>
        <time>2025-03-23T10:16:15Z</time>
      </trkpt>
      <trkpt lat="43.64543" lon="1.40289">
        <ele>131</ele>
        <time>2025-03-23T10:16:16Z</time>
      </trkpt>
      <trkpt lat="43.64545" lon="1.40287">
        <ele>131</ele>
        <time>2025-03-23T10:16:17Z</time>
      </trkpt>
      <trkpt lat="43.64548" lon="1.40286">
        <ele>131</ele>
        <time>2025-03-23T10:16:18Z</time>
      </trkpt>
      <trkpt lat="43.64552" lon="1.40285">
        <ele>131</ele>
        <time>2025-03-23T10:16:19Z</time>
      </trkpt>
      <trkpt lat="43.64553" lon="1.40285">
        <ele>132</ele>
        <time>2025-03-23T10:16:20Z</time>
      </trkpt>
      <trkpt lat="43.64556" lon="1.40284">
        <ele>132</ele>
        <time>2025-03-23T10:16:21Z</time>
      </trkpt>
      <trkpt lat="43.64558" lon="1.40284">
        <ele>131</ele>
        <time>2025-03-23T10:16:22Z</time>
      </trkpt>
      <trkpt lat="43.64561" lon="1.40283">
        <ele>131</ele>
        <time>2025-03-23T10:16:23Z</time>
      </trkpt>
      <trkpt lat="43.64563" lon="1.40282">
        <ele>131</ele>
        <time>2025-03-23T10:16:24Z</time>
      </trkpt>
      <trkpt lat="43.64565" lon="1.40281">
        <ele>131</ele>
        <time>2025-03-23T10:16:25Z</time>
      </trkpt>
      <trkpt lat="43.64567" lon="1.4028">
        <ele>131</ele>
        <time>2025-03-23T10:16:26Z</time>
      </trkpt>
      <trkpt lat="43.6457" lon="1.4028">
        <ele>131</ele>
        <time>2025-03-23T10:16:27Z</time>
      </trkpt>
      <trkpt lat="43.64572" lon="1.4028">
        <ele>132</ele>
        <time>2025-03-23T10:16:28Z</time>
      </trkpt>
      <trkpt lat="43.64575" lon="1.40278">
        <ele>132</ele>
        <time>2025-03-23T10:16:29Z</time>
      </trkpt>
      <trkpt lat="43.64576" lon="1.40278">
        <ele>132</ele>
        <time>2025-03-23T10:16:30Z</time>
      </trkpt>
      <trkpt lat="43.64578" lon="1.40277">
        <ele>132</ele>
        <time>2025-03-23T10:16:31Z</time>
      </trkpt>
      <trkpt lat="43.64581" lon="1.40276">
        <ele>132</ele>
        <time>2025-03-23T10:16:32Z</time>
      </trkpt>
      <trkpt lat="43.64583" lon="1.40276">
        <ele>132</ele>
        <time>2025-03-23T10:16:33Z</time>
      </trkpt>
      <trkpt lat="43.64585" lon="1.40275">
        <ele>132</ele>
        <time>2025-03-23T10:16:34Z</time>
      </trkpt>
      <trkpt lat="43.64588" lon="1.40274">
        <ele>132</ele>
        <time>2025-03-23T10:16:35Z</time>
      </trkpt>
      <trkpt lat="43.64591" lon="1.40273">
        <ele>132</ele>
        <time>2025-03-23T10:16:36Z</time>
      </trkpt>
      <trkpt lat="43.64592" lon="1.40272">
        <ele>132</ele>
        <time>2025-03-23T10:16:37Z</time>
      </trkpt>
      <trkpt lat="43.64596" lon="1.40271">
        <ele>132</ele>
        <time>2025-03-23T10:16:38Z</time>
      </trkpt>
      <trkpt lat="43.64597" lon="1.40271">
        <ele>132</ele>
        <time>2025-03-23T10:16:39Z</time>
      </trkpt>
      <trkpt lat="43.64599" lon="1.4027">
        <ele>132</ele>
        <time>2025-03-23T10:16:40Z</time>
      </trkpt>
      <trkpt lat="43.64602" lon="1.40268">
        <ele>132</ele>
        <time>2025-03-23T10:16:41Z</time>
      </trkpt>
      <trkpt lat="43.64604" lon="1.40267">
        <ele>132</ele>
        <time>2025-03-23T10:16:42Z</time>
      </trkpt>
      <trkpt lat="43.64607" lon="1.40265">
        <ele>132</ele>
        <time>2025-03-23T10:16:43Z</time>
      </trkpt>
      <trkpt lat="43.64609" lon="1.40264">
        <ele>131</ele>
        <time>2025-03-23T10:16:44Z</time>
      </trkpt>
      <trkpt lat="43.64613" lon="1.40262">
        <ele>131</ele>
        <time>2025-03-23T10:16:45Z</time>
      </trkpt>
      <trkpt lat="43.64614" lon="1.40262">
        <ele>131</ele>
        <time>2025-03-23T10:16:46Z</time>
      </trkpt>
      <trkpt lat="43.64616" lon="1.40261">
        <ele>131</ele>
        <time>2025-03-23T10:16:47Z</time>
      </trkpt>
      <trkpt lat="43.64619" lon="1.4026">
        <ele>131</ele>
        <time>2025-03-23T10:16:48Z</time>
      </trkpt>
      <trkpt lat="43.64622" lon="1.40259">
        <ele>131</ele>
        <time>2025-03-23T10:16:49Z</time>
      </trkpt>
      <trkpt lat="43.64624" lon="1.40257">
        <ele>131</ele>
        <time>2025-03-23T10:16:50Z</time>
      </trkpt>
      <trkpt lat="43.64627" lon="1.40256">
        <ele>131</ele>
        <time>2025-03-23T10:16:51Z</time>
      </trkpt>
      <trkpt lat="43.64629" lon="1.40255">
        <ele>131</ele>
        <time>2025-03-23T10:16:52Z</time>
      </trkpt>
      <trkpt lat="43.64631" lon="1.40254">
        <ele>131</ele>
        <time>2025-03-23T10:16:53Z</time>
      </trkpt>
      <trkpt lat="43.64634" lon="1.40253">
        <ele>131</ele>
        <time>2025-03-23T10:16:54Z</time>
      </trkpt>
      <trkpt lat="43.64635" lon="1.40253">
        <ele>131</ele>
        <time>2025-03-23T10:16:55Z</time>
      </trkpt>
      <trkpt lat="43.64638" lon="1.40253">
        <ele>131</ele>
        <time>2025-03-23T10:16:56Z</time>
      </trkpt>
      <trkpt lat="43.64641" lon="1.40252">
        <ele>131</ele>
        <time>2025-03-23T10:16:57Z</time>
      </trkpt>
      <trkpt lat="43.64642" lon="1.40252">
        <ele>131</ele>
        <time>2025-03-23T10:16:58Z</time>
      </trkpt>
      <trkpt lat="43.64646" lon="1.40252">
        <ele>131</ele>
        <time>2025-03-23T10:16:59Z</time>
      </trkpt>
      <trkpt lat="43.64647" lon="1.40252">
        <ele>131</ele>
        <time>2025-03-23T10:17:00Z</time>
      </trkpt>
      <trkpt lat="43.6465" lon="1.40251">
        <ele>131</ele>
        <time>2025-03-23T10:17:01Z</time>
      </trkpt>
      <trkpt lat="43.64653" lon="1.40251">
        <ele>131</ele>
        <time>2025-03-23T10:17:02Z</time>
      </trkpt>
      <trkpt lat="43.64655" lon="1.4025">
        <ele>132</ele>
        <time>2025-03-23T10:17:03Z</time>
      </trkpt>
      <trkpt lat="43.64659" lon="1.40249">
        <ele>132</ele>
        <time>2025-03-23T10:17:04Z</time>
      </trkpt>
      <trkpt lat="43.64661" lon="1.40249">
        <ele>132</ele>
        <time>2025-03-23T10:17:05Z</time>
      </trkpt>
      <trkpt lat="43.64663" lon="1.40248">
        <ele>132</ele>
        <time>2025-03-23T10:17:06Z</time>
      </trkpt>
      <trkpt lat="43.64667" lon="1.40247">
        <ele>132</ele>
        <time>2025-03-23T10:17:07Z</time>
      </trkpt>
      <trkpt lat="43.64668" lon="1.40246">
        <ele>132</ele>
        <time>2025-03-23T10:17:08Z</time>
      </trkpt>
      <trkpt lat="43.64672" lon="1.40245">
        <ele>132</ele>
        <time>2025-03-23T10:17:09Z</time>
      </trkpt>
      <trkpt lat="43.64673" lon="1.40245">
        <ele>131</ele>
        <time>2025-03-23T10:17:10Z</time>
      </trkpt>
      <trkpt lat="43.64676" lon="1.40244">
        <ele>131</ele>
        <time>2025-03-23T10:17:11Z</time>
      </trkpt>
      <trkpt lat="43.64678" lon="1.40243">
        <ele>131</ele>
        <time>2025-03-23T10:17:12Z</time>
      </trkpt>
      <trkpt lat="43.64681" lon="1.40242">
        <ele>131</ele>
        <time>2025-03-23T10:17:13Z</time>
      </trkpt>
      <trkpt lat="43.64683" lon="1.40241">
        <ele>131</ele>
        <time>2025-03-23T10:17:14Z</time>
      </trkpt>
      <trkpt lat="43.64685" lon="1.4024">
        <ele>131</ele>
        <time>2025-03-23T10:17:15Z</time>
      </trkpt>
      <trkpt lat="43.6469" lon="1.40238">
        <ele>131</ele>
        <time>2025-03-23T10:17:17Z</time>
      </trkpt>
      <trkpt lat="43.64693" lon="1.40236">
        <ele>131</ele>
        <time>2025-03-23T10:17:18Z</time>
      </trkpt>
      <trkpt lat="43.64696" lon="1.40235">
        <ele>131</ele>
        <time>2025-03-23T10:17:19Z</time>
      </trkpt>
      <trkpt lat="43.64698" lon="1.40235">
        <ele>131</ele>
        <time>2025-03-23T10:17:20Z</time>
      </trkpt>
      <trkpt lat="43.64701" lon="1.40234">
        <ele>132</ele>
        <time>2025-03-23T10:17:21Z</time>
      </trkpt>
      <trkpt lat="43.64704" lon="1.40233">
        <ele>132</ele>
        <time>2025-03-23T10:17:22Z</time>
      </trkpt>
      <trkpt lat="43.64708" lon="1.40232">
        <ele>132</ele>
        <time>2025-03-23T10:17:23Z</time>
      </trkpt>
      <trkpt lat="43.64709" lon="1.40231">
        <ele>132</ele>
        <time>2025-03-23T10:17:24Z</time>
      </trkpt>
      <trkpt lat="43.64712" lon="1.40231">
        <ele>132</ele>
        <time>2025-03-23T10:17:25Z</time>
      </trkpt>
      <trkpt lat="43.64715" lon="1.40231">
        <ele>132</ele>
        <time>2025-03-23T10:17:26Z</time>
      </trkpt>
      <trkpt lat="43.64718" lon="1.40231">
        <ele>132</ele>
        <time>2025-03-23T10:17:27Z</time>
      </trkpt>
      <trkpt lat="43.6472" lon="1.4023">
        <ele>131</ele>
        <time>2025-03-23T10:17:28Z</time>
      </trkpt>
      <trkpt lat="43.64723" lon="1.40231">
        <ele>131</ele>
        <time>2025-03-23T10:17:29Z</time>
      </trkpt>
      <trkpt lat="43.64725" lon="1.40231">
        <ele>131</ele>
        <time>2025-03-23T10:17:30Z</time>
      </trkpt>
      <trkpt lat="43.64727" lon="1.40231">
        <ele>131</ele>
        <time>2025-03-23T10:17:31Z</time>
      </trkpt>
      <trkpt lat="43.6473" lon="1.40232">
        <ele>131</ele>
        <time>2025-03-23T10:17:32Z</time>
      </trkpt>
      <trkpt lat="43.64733" lon="1.40232">
        <ele>130</ele>
        <time>2025-03-23T10:17:33Z</time>
      </trkpt>
      <trkpt lat="43.64735" lon="1.40231">
        <ele>130</ele>
        <time>2025-03-23T10:17:34Z</time>
      </trkpt>
      <trkpt lat="43.64739" lon="1.40231">
        <ele>131</ele>
        <time>2025-03-23T10:17:36Z</time>
      </trkpt>
      <trkpt lat="43.64743" lon="1.40231">
        <ele>131</ele>
        <time>2025-03-23T10:17:37Z</time>
      </trkpt>
      <trkpt lat="43.64744" lon="1.40231">
        <ele>131</ele>
        <time>2025-03-23T10:17:38Z</time>
      </trkpt>
      <trkpt lat="43.64747" lon="1.40231">
        <ele>131</ele>
        <time>2025-03-23T10:17:39Z</time>
      </trkpt>
      <trkpt lat="43.6475" lon="1.4023">
        <ele>131</ele>
        <time>2025-03-23T10:17:40Z</time>
      </trkpt>
      <trkpt lat="43.64751" lon="1.4023">
        <ele>131</ele>
        <time>2025-03-23T10:17:41Z</time>
      </trkpt>
      <trkpt lat="43.64754" lon="1.40229">
        <ele>131</ele>
        <time>2025-03-23T10:17:42Z</time>
      </trkpt>
      <trkpt lat="43.64758" lon="1.40228">
        <ele>131</ele>
        <time>2025-03-23T10:17:43Z</time>
      </trkpt>
      <trkpt lat="43.64759" lon="1.40228">
        <ele>131</ele>
        <time>2025-03-23T10:17:44Z</time>
      </trkpt>
      <trkpt lat="43.64762" lon="1.40228">
        <ele>131</ele>
        <time>2025-03-23T10:17:45Z</time>
      </trkpt>
      <trkpt lat="43.64764" lon="1.40227">
        <ele>131</ele>
        <time>2025-03-23T10:17:46Z</time>
      </trkpt>
      <trkpt lat="43.64767" lon="1.40227">
        <ele>131</ele>
        <time>2025-03-23T10:17:47Z</time>
      </trkpt>
      <trkpt lat="43.64769" lon="1.40227">
        <ele>131</ele>
        <time>2025-03-23T10:17:48Z</time>
      </trkpt>
      <trkpt lat="43.64771" lon="1.40227">
        <ele>131</ele>
        <time>2025-03-23T10:17:49Z</time>
      </trkpt>
      <trkpt lat="43.64774" lon="1.40228">
        <ele>131</ele>
        <time>2025-03-23T10:17:50Z</time>
      </trkpt>
      <trkpt lat="43.64777" lon="1.40228">
        <ele>131</ele>
        <time>2025-03-23T10:17:51Z</time>
      </trkpt>
      <trkpt lat="43.6478" lon="1.40228">
        <ele>131</ele>
        <time>2025-03-23T10:17:52Z</time>
      </trkpt>
      <trkpt lat="43.64782" lon="1.40229">
        <ele>131</ele>
        <time>2025-03-23T10:17:53Z</time>
      </trkpt>
      <trkpt lat="43.64787" lon="1.4023">
        <ele>131</ele>
        <time>2025-03-23T10:17:55Z</time>
      </trkpt>
      <trkpt lat="43.6479" lon="1.4023">
        <ele>131</ele>
        <time>2025-03-23T10:17:56Z</time>
      </trkpt>
      <trkpt lat="43.64793" lon="1.40231">
        <ele>131</ele>
        <time>2025-03-23T10:17:57Z</time>
      </trkpt>
      <trkpt lat="43.64796" lon="1.40231">
        <ele>130</ele>
        <time>2025-03-23T10:17:58Z</time>
      </trkpt>
      <trkpt lat="43.64798" lon="1.40231">
        <ele>130</ele>
        <time>2025-03-23T10:17:59Z</time>
      </trkpt>
      <trkpt lat="43.64801" lon="1.40231">
        <ele>130</ele>
        <time>2025-03-23T10:18:00Z</time>
      </trkpt>
      <trkpt lat="43.64804" lon="1.40231">
        <ele>130</ele>
        <time>2025-03-23T10:18:01Z</time>
      </trkpt>
      <trkpt lat="43.64808" lon="1.40231">
        <ele>130</ele>
        <time>2025-03-23T10:18:02Z</time>
      </trkpt>
      <trkpt lat="43.64809" lon="1.40231">
        <ele>130</ele>
        <time>2025-03-23T10:18:03Z</time>
      </trkpt>
      <trkpt lat="43.64811" lon="1.4023">
        <ele>130</ele>
        <time>2025-03-23T10:18:04Z</time>
      </trkpt>
      <trkpt lat="43.64815" lon="1.40229">
        <ele>130</ele>
        <time>2025-03-23T10:18:05Z</time>
      </trkpt>
      <trkpt lat="43.64816" lon="1.40228">
        <ele>130</ele>
        <time>2025-03-23T10:18:06Z</time>
      </trkpt>
      <trkpt lat="43.64818" lon="1.40227">
        <ele>130</ele>
        <time>2025-03-23T10:18:07Z</time>
      </trkpt>
      <trkpt lat="43.64821" lon="1.40227">
        <ele>130</ele>
        <time>2025-03-23T10:18:08Z</time>
      </trkpt>
      <trkpt lat="43.64823" lon="1.40227">
        <ele>130</ele>
        <time>2025-03-23T10:18:09Z</time>
      </trkpt>
      <trkpt lat="43.64826" lon="1.40227">
        <ele>130</ele>
        <time>2025-03-23T10:18:10Z</time>
      </trkpt>
      <trkpt lat="43.64829" lon="1.40226">
        <ele>130</ele>
        <time>2025-03-23T10:18:11Z</time>
      </trkpt>
      <trkpt lat="43.64833" lon="1.40225">
        <ele>130</ele>
        <time>2025-03-23T10:18:12Z</time>
      </trkpt>
      <trkpt lat="43.64834" lon="1.40225">
        <ele>130</ele>
        <time>2025-03-23T10:18:13Z</time>
      </trkpt>
      <trkpt lat="43.64836" lon="1.40224">
        <ele>130</ele>
        <time>2025-03-23T10:18:14Z</time>
      </trkpt>
      <trkpt lat="43.6484" lon="1.40224">
        <ele>130</ele>
        <time>2025-03-23T10:18:15Z</time>
      </trkpt>
      <trkpt lat="43.64841" lon="1.40224">
        <ele>130</ele>
        <time>2025-03-23T10:18:16Z</time>
      </trkpt>
      <trkpt lat="43.64844" lon="1.40224">
        <ele>131</ele>
        <time>2025-03-23T10:18:17Z</time>
      </trkpt>
      <trkpt lat="43.64847" lon="1.40224">
        <ele>131</ele>
        <time>2025-03-23T10:18:18Z</time>
      </trkpt>
      <trkpt lat="43.64849" lon="1.40224">
        <ele>131</ele>
        <time>2025-03-23T10:18:19Z</time>
      </trkpt>
      <trkpt lat="43.64852" lon="1.40224">
        <ele>131</ele>
        <time>2025-03-23T10:18:20Z</time>
      </trkpt>
      <trkpt lat="43.64855" lon="1.40225">
        <ele>131</ele>
        <time>2025-03-23T10:18:21Z</time>
      </trkpt>
      <trkpt lat="43.64858" lon="1.40226">
        <ele>131</ele>
        <time>2025-03-23T10:18:22Z</time>
      </trkpt>
      <trkpt lat="43.64859" lon="1.40226">
        <ele>131</ele>
        <time>2025-03-23T10:18:23Z</time>
      </trkpt>
      <trkpt lat="43.64862" lon="1.40226">
        <ele>131</ele>
        <time>2025-03-23T10:18:24Z</time>
      </trkpt>
      <trkpt lat="43.64864" lon="1.40227">
        <ele>131</ele>
        <time>2025-03-23T10:18:25Z</time>
      </trkpt>
      <trkpt lat="43.64866" lon="1.40227">
        <ele>131</ele>
        <time>2025-03-23T10:18:26Z</time>
      </trkpt>
      <trkpt lat="43.64868" lon="1.40228">
        <ele>131</ele>
        <time>2025-03-23T10:18:27Z</time>
      </trkpt>
      <trkpt lat="43.64871" lon="1.40228">
        <ele>131</ele>
        <time>2025-03-23T10:18:28Z</time>
      </trkpt>
      <trkpt lat="43.64873" lon="1.40229">
        <ele>131</ele>
        <time>2025-03-23T10:18:29Z</time>
      </trkpt>
      <trkpt lat="43.64875" lon="1.4023">
        <ele>131</ele>
        <time>2025-03-23T10:18:30Z</time>
      </trkpt>
      <trkpt lat="43.64877" lon="1.40232">
        <ele>131</ele>
        <time>2025-03-23T10:18:31Z</time>
      </trkpt>
      <trkpt lat="43.64878" lon="1.40234">
        <ele>131</ele>
        <time>2025-03-23T10:18:32Z</time>
      </trkpt>
      <trkpt lat="43.6488" lon="1.40236">
        <ele>131</ele>
        <time>2025-03-23T10:18:33Z</time>
      </trkpt>
      <trkpt lat="43.64882" lon="1.40238">
        <ele>131</ele>
        <time>2025-03-23T10:18:34Z</time>
      </trkpt>
      <trkpt lat="43.64884" lon="1.40239">
        <ele>131</ele>
        <time>2025-03-23T10:18:35Z</time>
      </trkpt>
      <trkpt lat="43.64886" lon="1.40241">
        <ele>131</ele>
        <time>2025-03-23T10:18:36Z</time>
      </trkpt>
      <trkpt lat="43.64888" lon="1.40243">
        <ele>131</ele>
        <time>2025-03-23T10:18:37Z</time>
      </trkpt>
      <trkpt lat="43.64891" lon="1.40244">
        <ele>131</ele>
        <time>2025-03-23T10:18:38Z</time>
      </trkpt>
      <trkpt lat="43.64894" lon="1.40246">
        <ele>131</ele>
        <time>2025-03-23T10:18:39Z</time>
      </trkpt>
      <trkpt lat="43.64895" lon="1.40247">
        <ele>130</ele>
        <time>2025-03-23T10:18:40Z</time>
      </trkpt>
      <trkpt lat="43.64898" lon="1.40249">
        <ele>130</ele>
        <time>2025-03-23T10:18:41Z</time>
      </trkpt>
      <trkpt lat="43.649" lon="1.40251">
        <ele>130</ele>
        <time>2025-03-23T10:18:42Z</time>
      </trkpt>
      <trkpt lat="43.64903" lon="1.40254">
        <ele>130</ele>
        <time>2025-03-23T10:18:43Z</time>
      </trkpt>
      <trkpt lat="43.64904" lon="1.40255">
        <ele>131</ele>
        <time>2025-03-23T10:18:44Z</time>
      </trkpt>
      <trkpt lat="43.64906" lon="1.40257">
        <ele>130</ele>
        <time>2025-03-23T10:18:45Z</time>
      </trkpt>
      <trkpt lat="43.64908" lon="1.40259">
        <ele>130</ele>
        <time>2025-03-23T10:18:46Z</time>
      </trkpt>
      <trkpt lat="43.6491" lon="1.4026">
        <ele>130</ele>
        <time>2025-03-23T10:18:47Z</time>
      </trkpt>
      <trkpt lat="43.64912" lon="1.40261">
        <ele>130</ele>
        <time>2025-03-23T10:18:48Z</time>
      </trkpt>
      <trkpt lat="43.64914" lon="1.40263">
        <ele>130</ele>
        <time>2025-03-23T10:18:49Z</time>
      </trkpt>
      <trkpt lat="43.64915" lon="1.40264">
        <ele>130</ele>
        <time>2025-03-23T10:18:50Z</time>
      </trkpt>
      <trkpt lat="43.64917" lon="1.40265">
        <ele>130</ele>
        <time>2025-03-23T10:18:51Z</time>
      </trkpt>
      <trkpt lat="43.64919" lon="1.40267">
        <ele>130</ele>
        <time>2025-03-23T10:18:52Z</time>
      </trkpt>
      <trkpt lat="43.64921" lon="1.40269">
        <ele>130</ele>
        <time>2025-03-23T10:18:53Z</time>
      </trkpt>
      <trkpt lat="43.64922" lon="1.4027">
        <ele>130</ele>
        <time>2025-03-23T10:18:54Z</time>
      </trkpt>
      <trkpt lat="43.64924" lon="1.40271">
        <ele>130</ele>
        <time>2025-03-23T10:18:55Z</time>
      </trkpt>
      <trkpt lat="43.64926" lon="1.40273">
        <ele>130</ele>
        <time>2025-03-23T10:18:56Z</time>
      </trkpt>
      <trkpt lat="43.64928" lon="1.40274">
        <ele>130</ele>
        <time>2025-03-23T10:18:57Z</time>
      </trkpt>
      <trkpt lat="43.64931" lon="1.40276">
        <ele>130</ele>
        <time>2025-03-23T10:18:58Z</time>
      </trkpt>
      <trkpt lat="43.64932" lon="1.40277">
        <ele>130</ele>
        <time>2025-03-23T10:18:59Z</time>
      </trkpt>
      <trkpt lat="43.64935" lon="1.40278">
        <ele>130</ele>
        <time>2025-03-23T10:19:00Z</time>
      </trkpt>
      <trkpt lat="43.64937" lon="1.40279">
        <ele>130</ele>
        <time>2025-03-23T10:19:01Z</time>
      </trkpt>
      <trkpt lat="43.64939" lon="1.4028">
        <ele>130</ele>
        <time>2025-03-23T10:19:02Z</time>
      </trkpt>
      <trkpt lat="43.64941" lon="1.40281">
        <ele>130</ele>
        <time>2025-03-23T10:19:03Z</time>
      </trkpt>
      <trkpt lat="43.64943" lon="1.40283">
        <ele>130</ele>
        <time>2025-03-23T10:19:04Z</time>
      </trkpt>
      <trkpt lat="43.64946" lon="1.40286">
        <ele>130</ele>
        <time>2025-03-23T10:19:05Z</time>
      </trkpt>
      <trkpt lat="43.64947" lon="1.40288">
        <ele>130</ele>
        <time>2025-03-23T10:19:06Z</time>
      </trkpt>
      <trkpt lat="43.64949" lon="1.40289">
        <ele>130</ele>
        <time>2025-03-23T10:19:07Z</time>
      </trkpt>
      <trkpt lat="43.64951" lon="1.40291">
        <ele>130</ele>
        <time>2025-03-23T10:19:08Z</time>
      </trkpt>
      <trkpt lat="43.64953" lon="1.40293">
        <ele>130</ele>
        <time>2025-03-23T10:19:09Z</time>
      </trkpt>
      <trkpt lat="43.64957" lon="1.40296">
        <ele>130</ele>
        <time>2025-03-23T10:19:10Z</time>
      </trkpt>
      <trkpt lat="43.64958" lon="1.40298">
        <ele>130</ele>
        <time>2025-03-23T10:19:11Z</time>
      </trkpt>
      <trkpt lat="43.64961" lon="1.403">
        <ele>130</ele>
        <time>2025-03-23T10:19:12Z</time>
      </trkpt>
      <trkpt lat="43.64963" lon="1.40302">
        <ele>130</ele>
        <time>2025-03-23T10:19:13Z</time>
      </trkpt>
      <trkpt lat="43.64965" lon="1.40304">
        <ele>129</ele>
        <time>2025-03-23T10:19:14Z</time>
      </trkpt>
      <trkpt lat="43.64968" lon="1.40306">
        <ele>129</ele>
        <time>2025-03-23T10:19:15Z</time>
      </trkpt>
      <trkpt lat="43.6497" lon="1.40308">
        <ele>129</ele>
        <time>2025-03-23T10:19:16Z</time>
      </trkpt>
      <trkpt lat="43.64972" lon="1.4031">
        <ele>129</ele>
        <time>2025-03-23T10:19:17Z</time>
      </trkpt>
      <trkpt lat="43.64976" lon="1.40313">
        <ele>130</ele>
        <time>2025-03-23T10:19:18Z</time>
      </trkpt>
      <trkpt lat="43.64977" lon="1.40314">
        <ele>130</ele>
        <time>2025-03-23T10:19:19Z</time>
      </trkpt>
      <trkpt lat="43.64979" lon="1.40316">
        <ele>130</ele>
        <time>2025-03-23T10:19:20Z</time>
      </trkpt>
      <trkpt lat="43.64981" lon="1.40318">
        <ele>130</ele>
        <time>2025-03-23T10:19:21Z</time>
      </trkpt>
      <trkpt lat="43.64984" lon="1.40323">
        <ele>130</ele>
        <time>2025-03-23T10:19:22Z</time>
      </trkpt>
      <trkpt lat="43.64986" lon="1.40324">
        <ele>130</ele>
        <time>2025-03-23T10:19:23Z</time>
      </trkpt>
      <trkpt lat="43.64987" lon="1.40326">
        <ele>130</ele>
        <time>2025-03-23T10:19:24Z</time>
      </trkpt>
      <trkpt lat="43.64989" lon="1.40328">
        <ele>130</ele>
        <time>2025-03-23T10:19:25Z</time>
      </trkpt>
      <trkpt lat="43.6499" lon="1.4033">
        <ele>130</ele>
        <time>2025-03-23T10:19:26Z</time>
      </trkpt>
      <trkpt lat="43.64992" lon="1.40332">
        <ele>130</ele>
        <time>2025-03-23T10:19:27Z</time>
      </trkpt>
      <trkpt lat="43.64995" lon="1.40335">
        <ele>130</ele>
        <time>2025-03-23T10:19:28Z</time>
      </trkpt>
      <trkpt lat="43.64998" lon="1.40339">
        <ele>130</ele>
        <time>2025-03-23T10:19:29Z</time>
      </trkpt>
      <trkpt lat="43.64999" lon="1.40341">
        <ele>130</ele>
        <time>2025-03-23T10:19:30Z</time>
      </trkpt>
      <trkpt lat="43.65001" lon="1.40343">
        <ele>130</ele>
        <time>2025-03-23T10:19:31Z</time>
      </trkpt>
      <trkpt lat="43.65003" lon="1.40345">
        <ele>130</ele>
        <time>2025-03-23T10:19:32Z</time>
      </trkpt>
      <trkpt lat="43.65006" lon="1.40348">
        <ele>130</ele>
        <time>2025-03-23T10:19:33Z</time>
      </trkpt>
      <trkpt lat="43.65008" lon="1.4035">
        <ele>130</ele>
        <time>2025-03-23T10:19:34Z</time>
      </trkpt>
      <trkpt lat="43.6501" lon="1.40352">
        <ele>130</ele>
        <time>2025-03-23T10:19:35Z</time>
      </trkpt>
      <trkpt lat="43.65012" lon="1.40355">
        <ele>130</ele>
        <time>2025-03-23T10:19:36Z</time>
      </trkpt>
      <trkpt lat="43.65014" lon="1.40357">
        <ele>130</ele>
        <time>2025-03-23T10:19:37Z</time>
      </trkpt>
      <trkpt lat="43.65016" lon="1.40359">
        <ele>130</ele>
        <time>2025-03-23T10:19:38Z</time>
      </trkpt>
      <trkpt lat="43.65018" lon="1.40362">
        <ele>130</ele>
        <time>2025-03-23T10:19:39Z</time>
      </trkpt>
      <trkpt lat="43.65021" lon="1.40365">
        <ele>130</ele>
        <time>2025-03-23T10:19:40Z</time>
      </trkpt>
      <trkpt lat="43.65023" lon="1.40367">
        <ele>130</ele>
        <time>2025-03-23T10:19:41Z</time>
      </trkpt>
      <trkpt lat="43.65026" lon="1.4037">
        <ele>130</ele>
        <time>2025-03-23T10:19:42Z</time>
      </trkpt>
      <trkpt lat="43.65027" lon="1.40371">
        <ele>129</ele>
        <time>2025-03-23T10:19:43Z</time>
      </trkpt>
      <trkpt lat="43.6503" lon="1.40374">
        <ele>129</ele>
        <time>2025-03-23T10:19:44Z</time>
      </trkpt>
      <trkpt lat="43.65033" lon="1.40376">
        <ele>129</ele>
        <time>2025-03-23T10:19:45Z</time>
      </trkpt>
      <trkpt lat="43.65035" lon="1.40379">
        <ele>129</ele>
        <time>2025-03-23T10:19:46Z</time>
      </trkpt>
      <trkpt lat="43.65038" lon="1.40381">
        <ele>129</ele>
        <time>2025-03-23T10:19:47Z</time>
      </trkpt>
      <trkpt lat="43.65042" lon="1.40385">
        <ele>129</ele>
        <time>2025-03-23T10:19:48Z</time>
      </trkpt>
      <trkpt lat="43.65043" lon="1.40387">
        <ele>129</ele>
        <time>2025-03-23T10:19:49Z</time>
      </trkpt>
      <trkpt lat="43.65046" lon="1.40389">
        <ele>129</ele>
        <time>2025-03-23T10:19:50Z</time>
      </trkpt>
      <trkpt lat="43.65048" lon="1.40392">
        <ele>129</ele>
        <time>2025-03-23T10:19:51Z</time>
      </trkpt>
      <trkpt lat="43.65051" lon="1.40394">
        <ele>129</ele>
        <time>2025-03-23T10:19:52Z</time>
      </trkpt>
      <trkpt lat="43.65054" lon="1.40397">
        <ele>129</ele>
        <time>2025-03-23T10:19:53Z</time>
      </trkpt>
      <trkpt lat="43.65056" lon="1.40399">
        <ele>129</ele>
        <time>2025-03-23T10:19:54Z</time>
      </trkpt>
      <trkpt lat="43.65058" lon="1.40402">
        <ele>129</ele>
        <time>2025-03-23T10:19:55Z</time>
      </trkpt>
      <trkpt lat="43.6506" lon="1.40404">
        <ele>129</ele>
        <time>2025-03-23T10:19:56Z</time>
      </trkpt>
      <trkpt lat="43.65063" lon="1.40406">
        <ele>129</ele>
        <time>2025-03-23T10:19:57Z</time>
      </trkpt>
      <trkpt lat="43.65065" lon="1.40408">
        <ele>129</ele>
        <time>2025-03-23T10:19:58Z</time>
      </trkpt>
      <trkpt lat="43.65067" lon="1.4041">
        <ele>129</ele>
        <time>2025-03-23T10:19:59Z</time>
      </trkpt>
      <trkpt lat="43.6507" lon="1.40413">
        <ele>129</ele>
        <time>2025-03-23T10:20:00Z</time>
      </trkpt>
      <trkpt lat="43.65071" lon="1.40415">
        <ele>129</ele>
        <time>2025-03-23T10:20:01Z</time>
      </trkpt>
      <trkpt lat="43.65074" lon="1.40416">
        <ele>129</ele>
        <time>2025-03-23T10:20:02Z</time>
      </trkpt>
      <trkpt lat="43.65075" lon="1.40418">
        <ele>129</ele>
        <time>2025-03-23T10:20:03Z</time>
      </trkpt>
      <trkpt lat="43.65077" lon="1.4042">
        <ele>129</ele>
        <time>2025-03-23T10:20:04Z</time>
      </trkpt>
      <trkpt lat="43.65079" lon="1.40422">
        <ele>129</ele>
        <time>2025-03-23T10:20:05Z</time>
      </trkpt>
      <trkpt lat="43.6508" lon="1.40423">
        <ele>129</ele>
        <time>2025-03-23T10:20:06Z</time>
      </trkpt>
      <trkpt lat="43.65083" lon="1.40426">
        <ele>129</ele>
        <time>2025-03-23T10:20:07Z</time>
      </trkpt>
      <trkpt lat="43.65084" lon="1.40427">
        <ele>129</ele>
        <time>2025-03-23T10:20:08Z</time>
      </trkpt>
      <trkpt lat="43.65086" lon="1.40429">
        <ele>129</ele>
        <time>2025-03-23T10:20:09Z</time>
      </trkpt>
      <trkpt lat="43.65088" lon="1.40431">
        <ele>128</ele>
        <time>2025-03-23T10:20:10Z</time>
      </trkpt>
      <trkpt lat="43.6509" lon="1.40433">
        <ele>128</ele>
        <time>2025-03-23T10:20:11Z</time>
      </trkpt>
      <trkpt lat="43.65092" lon="1.40436">
        <ele>128</ele>
        <time>2025-03-23T10:20:12Z</time>
      </trkpt>
      <trkpt lat="43.65094" lon="1.40438">
        <ele>128</ele>
        <time>2025-03-23T10:20:13Z</time>
      </trkpt>
      <trkpt lat="43.65097" lon="1.40441">
        <ele>128</ele>
        <time>2025-03-23T10:20:14Z</time>
      </trkpt>
      <trkpt lat="43.65099" lon="1.40445">
        <ele>128</ele>
        <time>2025-03-23T10:20:15Z</time>
      </trkpt>
      <trkpt lat="43.65101" lon="1.40448">
        <ele>128</ele>
        <time>2025-03-23T10:20:16Z</time>
      </trkpt>
      <trkpt lat="43.65103" lon="1.4045">
        <ele>128</ele>
        <time>2025-03-23T10:20:17Z</time>
      </trkpt>
      <trkpt lat="43.65107" lon="1.40452">
        <ele>128</ele>
        <time>2025-03-23T10:20:18Z</time>
      </trkpt>
      <trkpt lat="43.65108" lon="1.40453">
        <ele>128</ele>
        <time>2025-03-23T10:20:19Z</time>
      </trkpt>
      <trkpt lat="43.6511" lon="1.40455">
        <ele>127</ele>
        <time>2025-03-23T10:20:20Z</time>
      </trkpt>
      <trkpt lat="43.65113" lon="1.40457">
        <ele>127</ele>
        <time>2025-03-23T10:20:21Z</time>
      </trkpt>
      <trkpt lat="43.65115" lon="1.40459">
        <ele>127</ele>
        <time>2025-03-23T10:20:22Z</time>
      </trkpt>
      <trkpt lat="43.65117" lon="1.40462">
        <ele>127</ele>
        <time>2025-03-23T10:20:23Z</time>
      </trkpt>
      <trkpt lat="43.65119" lon="1.40464">
        <ele>128</ele>
        <time>2025-03-23T10:20:24Z</time>
      </trkpt>
      <trkpt lat="43.65121" lon="1.40466">
        <ele>128</ele>
        <time>2025-03-23T10:20:25Z</time>
      </trkpt>
      <trkpt lat="43.65125" lon="1.40469">
        <ele>128</ele>
        <time>2025-03-23T10:20:26Z</time>
      </trkpt>
      <trkpt lat="43.65126" lon="1.4047">
        <ele>128</ele>
        <time>2025-03-23T10:20:27Z</time>
      </trkpt>
      <trkpt lat="43.65128" lon="1.40472">
        <ele>128</ele>
        <time>2025-03-23T10:20:28Z</time>
      </trkpt>
      <trkpt lat="43.65131" lon="1.40474">
        <ele>127</ele>
        <time>2025-03-23T10:20:29Z</time>
      </trkpt>
      <trkpt lat="43.65133" lon="1.40477">
        <ele>127</ele>
        <time>2025-03-23T10:20:30Z</time>
      </trkpt>
      <trkpt lat="43.65135" lon="1.40478">
        <ele>127</ele>
        <time>2025-03-23T10:20:31Z</time>
      </trkpt>
      <trkpt lat="43.65137" lon="1.40481">
        <ele>127</ele>
        <time>2025-03-23T10:20:32Z</time>
      </trkpt>
      <trkpt lat="43.65139" lon="1.40484">
        <ele>127</ele>
        <time>2025-03-23T10:20:33Z</time>
      </trkpt>
      <trkpt lat="43.65141" lon="1.40486">
        <ele>127</ele>
        <time>2025-03-23T10:20:34Z</time>
      </trkpt>
      <trkpt lat="43.65143" lon="1.40488">
        <ele>127</ele>
        <time>2025-03-23T10:20:35Z</time>
      </trkpt>
      <trkpt lat="43.65146" lon="1.40492">
        <ele>127</ele>
        <time>2025-03-23T10:20:36Z</time>
      </trkpt>
      <trkpt lat="43.65147" lon="1.40493">
        <ele>127</ele>
        <time>2025-03-23T10:20:37Z</time>
      </trkpt>
      <trkpt lat="43.6515" lon="1.40495">
        <ele>127</ele>
        <time>2025-03-23T10:20:38Z</time>
      </trkpt>
      <trkpt lat="43.65153" lon="1.40499">
        <ele>127</ele>
        <time>2025-03-23T10:20:39Z</time>
      </trkpt>
      <trkpt lat="43.65154" lon="1.40501">
        <ele>127</ele>
        <time>2025-03-23T10:20:40Z</time>
      </trkpt>
      <trkpt lat="43.65156" lon="1.40503">
        <ele>127</ele>
        <time>2025-03-23T10:20:41Z</time>
      </trkpt>
      <trkpt lat="43.65158" lon="1.40505">
        <ele>127</ele>
        <time>2025-03-23T10:20:42Z</time>
      </trkpt>
      <trkpt lat="43.6516" lon="1.40507">
        <ele>127</ele>
        <time>2025-03-23T10:20:43Z</time>
      </trkpt>
      <trkpt lat="43.65163" lon="1.40509">
        <ele>127</ele>
        <time>2025-03-23T10:20:44Z</time>
      </trkpt>
      <trkpt lat="43.65166" lon="1.40511">
        <ele>127</ele>
        <time>2025-03-23T10:20:45Z</time>
      </trkpt>
      <trkpt lat="43.65167" lon="1.40512">
        <ele>127</ele>
        <time>2025-03-23T10:20:46Z</time>
      </trkpt>
      <trkpt lat="43.65169" lon="1.40513">
        <ele>127</ele>
        <time>2025-03-23T10:20:47Z</time>
      </trkpt>
      <trkpt lat="43.65172" lon="1.40515">
        <ele>127</ele>
        <time>2025-03-23T10:20:48Z</time>
      </trkpt>
      <trkpt lat="43.65174" lon="1.40517">
        <ele>127</ele>
        <time>2025-03-23T10:20:49Z</time>
      </trkpt>
      <trkpt lat="43.65175" lon="1.40518">
        <ele>127</ele>
        <time>2025-03-23T10:20:50Z</time>
      </trkpt>
      <trkpt lat="43.65178" lon="1.40519">
        <ele>127</ele>
        <time>2025-03-23T10:20:51Z</time>
      </trkpt>
      <trkpt lat="43.6518" lon="1.40521">
        <ele>127</ele>
        <time>2025-03-23T10:20:52Z</time>
      </trkpt>
      <trkpt lat="43.65182" lon="1.40523">
        <ele>127</ele>
        <time>2025-03-23T10:20:53Z</time>
      </trkpt>
      <trkpt lat="43.65184" lon="1.40524">
        <ele>127</ele>
        <time>2025-03-23T10:20:54Z</time>
      </trkpt>
      <trkpt lat="43.65187" lon="1.40527">
        <ele>127</ele>
        <time>2025-03-23T10:20:55Z</time>
      </trkpt>
      <trkpt lat="43.65188" lon="1.40528">
        <ele>127</ele>
        <time>2025-03-23T10:20:56Z</time>
      </trkpt>
      <trkpt lat="43.6519" lon="1.40531">
        <ele>127</ele>
        <time>2025-03-23T10:20:57Z</time>
      </trkpt>
      <trkpt lat="43.65193" lon="1.40534">
        <ele>127</ele>
        <time>2025-03-23T10:20:58Z</time>
      </trkpt>
      <trkpt lat="43.65194" lon="1.40535">
        <ele>127</ele>
        <time>2025-03-23T10:20:59Z</time>
      </trkpt>
      <trkpt lat="43.65196" lon="1.40538">
        <ele>127</ele>
        <time>2025-03-23T10:21:00Z</time>
      </trkpt>
      <trkpt lat="43.65199" lon="1.40541">
        <ele>127</ele>
        <time>2025-03-23T10:21:01Z</time>
      </trkpt>
      <trkpt lat="43.652" lon="1.40542">
        <ele>127</ele>
        <time>2025-03-23T10:21:02Z</time>
      </trkpt>
      <trkpt lat="43.65202" lon="1.40544">
        <ele>127</ele>
        <time>2025-03-23T10:21:03Z</time>
      </trkpt>
      <trkpt lat="43.65205" lon="1.40547">
        <ele>127</ele>
        <time>2025-03-23T10:21:04Z</time>
      </trkpt>
      <trkpt lat="43.65206" lon="1.40548">
        <ele>127</ele>
        <time>2025-03-23T10:21:05Z</time>
      </trkpt>
      <trkpt lat="43.65208" lon="1.4055">
        <ele>127</ele>
        <time>2025-03-23T10:21:06Z</time>
      </trkpt>
      <trkpt lat="43.65211" lon="1.40552">
        <ele>127</ele>
        <time>2025-03-23T10:21:07Z</time>
      </trkpt>
      <trkpt lat="43.65214" lon="1.40555">
        <ele>127</ele>
        <time>2025-03-23T10:21:08Z</time>
      </trkpt>
      <trkpt lat="43.65215" lon="1.40556">
        <ele>127</ele>
        <time>2025-03-23T10:21:09Z</time>
      </trkpt>
      <trkpt lat="43.65217" lon="1.40557">
        <ele>127</ele>
        <time>2025-03-23T10:21:10Z</time>
      </trkpt>
      <trkpt lat="43.6522" lon="1.4056">
        <ele>127</ele>
        <time>2025-03-23T10:21:11Z</time>
      </trkpt>
      <trkpt lat="43.6522" lon="1.40561">
        <ele>127</ele>
        <time>2025-03-23T10:21:12Z</time>
      </trkpt>
      <trkpt lat="43.65222" lon="1.40563">
        <ele>127</ele>
        <time>2025-03-23T10:21:13Z</time>
      </trkpt>
      <trkpt lat="43.65225" lon="1.40565">
        <ele>127</ele>
        <time>2025-03-23T10:21:14Z</time>
      </trkpt>
      <trkpt lat="43.65228" lon="1.40568">
        <ele>127</ele>
        <time>2025-03-23T10:21:15Z</time>
      </trkpt>
      <trkpt lat="43.65229" lon="1.4057">
        <ele>127</ele>
        <time>2025-03-23T10:21:16Z</time>
      </trkpt>
      <trkpt lat="43.65231" lon="1.40571">
        <ele>127</ele>
        <time>2025-03-23T10:21:17Z</time>
      </trkpt>
      <trkpt lat="43.65233" lon="1.40572">
        <ele>127</ele>
        <time>2025-03-23T10:21:18Z</time>
      </trkpt>
      <trkpt lat="43.65235" lon="1.40574">
        <ele>127</ele>
        <time>2025-03-23T10:21:19Z</time>
      </trkpt>
      <trkpt lat="43.65238" lon="1.40576">
        <ele>127</ele>
        <time>2025-03-23T10:21:20Z</time>
      </trkpt>
      <trkpt lat="43.6524" lon="1.40577">
        <ele>127</ele>
        <time>2025-03-23T10:21:21Z</time>
      </trkpt>
      <trkpt lat="43.65242" lon="1.40579">
        <ele>127</ele>
        <time>2025-03-23T10:21:22Z</time>
      </trkpt>
      <trkpt lat="43.65244" lon="1.40581">
        <ele>127</ele>
        <time>2025-03-23T10:21:23Z</time>
      </trkpt>
      <trkpt lat="43.65246" lon="1.40582">
        <ele>127</ele>
        <time>2025-03-23T10:21:24Z</time>
      </trkpt>
      <trkpt lat="43.65248" lon="1.40584">
        <ele>127</ele>
        <time>2025-03-23T10:21:25Z</time>
      </trkpt>
      <trkpt lat="43.65251" lon="1.40585">
        <ele>127</ele>
        <time>2025-03-23T10:21:26Z</time>
      </trkpt>
      <trkpt lat="43.65253" lon="1.40587">
        <ele>127</ele>
        <time>2025-03-23T10:21:27Z</time>
      </trkpt>
      <trkpt lat="43.65255" lon="1.40589">
        <ele>127</ele>
        <time>2025-03-23T10:21:28Z</time>
      </trkpt>
      <trkpt lat="43.65257" lon="1.40592">
        <ele>127</ele>
        <time>2025-03-23T10:21:29Z</time>
      </trkpt>
      <trkpt lat="43.65259" lon="1.40594">
        <ele>127</ele>
        <time>2025-03-23T10:21:30Z</time>
      </trkpt>
      <trkpt lat="43.65261" lon="1.40596">
        <ele>127</ele>
        <time>2025-03-23T10:21:31Z</time>
      </trkpt>
      <trkpt lat="43.65263" lon="1.40597">
        <ele>127</ele>
        <time>2025-03-23T10:21:32Z</time>
      </trkpt>
      <trkpt lat="43.65265" lon="1.406">
        <ele>127</ele>
        <time>2025-03-23T10:21:33Z</time>
      </trkpt>
      <trkpt lat="43.65267" lon="1.40602">
        <ele>127</ele>
        <time>2025-03-23T10:21:34Z</time>
      </trkpt>
      <trkpt lat="43.65271" lon="1.40604">
        <ele>127</ele>
        <time>2025-03-23T10:21:35Z</time>
      </trkpt>
      <trkpt lat="43.65272" lon="1.40605">
        <ele>127</ele>
        <time>2025-03-23T10:21:36Z</time>
      </trkpt>
      <trkpt lat="43.65273" lon="1.40606">
        <ele>127</ele>
        <time>2025-03-23T10:21:37Z</time>
      </trkpt>
      <trkpt lat="43.65275" lon="1.40608">
        <ele>127</ele>
        <time>2025-03-23T10:21:38Z</time>
      </trkpt>
      <trkpt lat="43.65277" lon="1.40609">
        <ele>127</ele>
        <time>2025-03-23T10:21:39Z</time>
      </trkpt>
      <trkpt lat="43.65279" lon="1.40611">
        <ele>127</ele>
        <time>2025-03-23T10:21:40Z</time>
      </trkpt>
      <trkpt lat="43.65281" lon="1.40612">
        <ele>127</ele>
        <time>2025-03-23T10:21:41Z</time>
      </trkpt>
      <trkpt lat="43.65284" lon="1.40614">
        <ele>127</ele>
        <time>2025-03-23T10:21:42Z</time>
      </trkpt>
      <trkpt lat="43.65285" lon="1.40615">
        <ele>127</ele>
        <time>2025-03-23T10:21:43Z</time>
      </trkpt>
      <trkpt lat="43.65288" lon="1.40617">
        <ele>127</ele>
        <time>2025-03-23T10:21:44Z</time>
      </trkpt>
      <trkpt lat="43.6529" lon="1.40619">
        <ele>127</ele>
        <time>2025-03-23T10:21:45Z</time>
      </trkpt>
      <trkpt lat="43.65292" lon="1.40621">
        <ele>128</ele>
        <time>2025-03-23T10:21:46Z</time>
      </trkpt>
      <trkpt lat="43.65294" lon="1.40623">
        <ele>128</ele>
        <time>2025-03-23T10:21:47Z</time>
      </trkpt>
      <trkpt lat="43.65295" lon="1.40625">
        <ele>128</ele>
        <time>2025-03-23T10:21:48Z</time>
      </trkpt>
      <trkpt lat="43.65297" lon="1.40626">
        <ele>128</ele>
        <time>2025-03-23T10:21:49Z</time>
      </trkpt>
      <trkpt lat="43.65299" lon="1.40628">
        <ele>128</ele>
        <time>2025-03-23T10:21:50Z</time>
      </trkpt>
      <trkpt lat="43.65302" lon="1.40629">
        <ele>128</ele>
        <time>2025-03-23T10:21:51Z</time>
      </trkpt>
      <trkpt lat="43.65303" lon="1.4063">
        <ele>128</ele>
        <time>2025-03-23T10:21:52Z</time>
      </trkpt>
      <trkpt lat="43.65305" lon="1.40632">
        <ele>127</ele>
        <time>2025-03-23T10:21:53Z</time>
      </trkpt>
      <trkpt lat="43.65307" lon="1.40633">
        <ele>127</ele>
        <time>2025-03-23T10:21:54Z</time>
      </trkpt>
      <trkpt lat="43.65309" lon="1.40635">
        <ele>127</ele>
        <time>2025-03-23T10:21:55Z</time>
      </trkpt>
      <trkpt lat="43.65311" lon="1.40637">
        <ele>127</ele>
        <time>2025-03-23T10:21:56Z</time>
      </trkpt>
      <trkpt lat="43.65312" lon="1.40639">
        <ele>127</ele>
        <time>2025-03-23T10:21:57Z</time>
      </trkpt>
      <trkpt lat="43.65314" lon="1.4064">
        <ele>127</ele>
        <time>2025-03-23T10:21:58Z</time>
      </trkpt>
      <trkpt lat="43.65317" lon="1.40642">
        <ele>127</ele>
        <time>2025-03-23T10:21:59Z</time>
      </trkpt>
      <trkpt lat="43.65319" lon="1.40643">
        <ele>127</ele>
        <time>2025-03-23T10:22:00Z</time>
      </trkpt>
      <trkpt lat="43.65322" lon="1.40646">
        <ele>127</ele>
        <time>2025-03-23T10:22:01Z</time>
      </trkpt>
      <trkpt lat="43.65323" lon="1.40647">
        <ele>128</ele>
        <time>2025-03-23T10:22:02Z</time>
      </trkpt>
      <trkpt lat="43.65326" lon="1.40648">
        <ele>128</ele>
        <time>2025-03-23T10:22:03Z</time>
      </trkpt>
      <trkpt lat="43.65328" lon="1.4065">
        <ele>128</ele>
        <time>2025-03-23T10:22:04Z</time>
      </trkpt>
      <trkpt lat="43.65331" lon="1.40651">
        <ele>128</ele>
        <time>2025-03-23T10:22:05Z</time>
      </trkpt>
      <trkpt lat="43.65333" lon="1.40653">
        <ele>127</ele>
        <time>2025-03-23T10:22:06Z</time>
      </trkpt>
      <trkpt lat="43.65334" lon="1.40654">
        <ele>127</ele>
        <time>2025-03-23T10:22:07Z</time>
      </trkpt>
      <trkpt lat="43.65337" lon="1.40656">
        <ele>127</ele>
        <time>2025-03-23T10:22:08Z</time>
      </trkpt>
      <trkpt lat="43.65338" lon="1.40657">
        <ele>127</ele>
        <time>2025-03-23T10:22:09Z</time>
      </trkpt>
      <trkpt lat="43.65341" lon="1.40659">
        <ele>127</ele>
        <time>2025-03-23T10:22:10Z</time>
      </trkpt>
      <trkpt lat="43.65343" lon="1.40661">
        <ele>127</ele>
        <time>2025-03-23T10:22:11Z</time>
      </trkpt>
      <trkpt lat="43.65345" lon="1.40663">
        <ele>127</ele>
        <time>2025-03-23T10:22:12Z</time>
      </trkpt>
      <trkpt lat="43.65348" lon="1.40664">
        <ele>127</ele>
        <time>2025-03-23T10:22:13Z</time>
      </trkpt>
      <trkpt lat="43.6535" lon="1.40666">
        <ele>127</ele>
        <time>2025-03-23T10:22:14Z</time>
      </trkpt>
      <trkpt lat="43.65353" lon="1.40668">
        <ele>127</ele>
        <time>2025-03-23T10:22:15Z</time>
      </trkpt>
      <trkpt lat="43.65355" lon="1.40669">
        <ele>127</ele>
        <time>2025-03-23T10:22:16Z</time>
      </trkpt>
      <trkpt lat="43.65359" lon="1.40672">
        <ele>127</ele>
        <time>2025-03-23T10:22:17Z</time>
      </trkpt>
      <trkpt lat="43.65361" lon="1.40672">
        <ele>127</ele>
        <time>2025-03-23T10:22:18Z</time>
      </trkpt>
      <trkpt lat="43.65363" lon="1.40674">
        <ele>127</ele>
        <time>2025-03-23T10:22:19Z</time>
      </trkpt>
      <trkpt lat="43.65367" lon="1.40676">
        <ele>127</ele>
        <time>2025-03-23T10:22:20Z</time>
      </trkpt>
      <trkpt lat="43.65368" lon="1.40677">
        <ele>127</ele>
        <time>2025-03-23T10:22:21Z</time>
      </trkpt>
      <trkpt lat="43.65371" lon="1.40679">
        <ele>127</ele>
        <time>2025-03-23T10:22:22Z</time>
      </trkpt>
      <trkpt lat="43.65374" lon="1.4068">
        <ele>127</ele>
        <time>2025-03-23T10:22:23Z</time>
      </trkpt>
      <trkpt lat="43.65378" lon="1.40682">
        <ele>127</ele>
        <time>2025-03-23T10:22:24Z</time>
      </trkpt>
      <trkpt lat="43.65379" lon="1.40683">
        <ele>127</ele>
        <time>2025-03-23T10:22:25Z</time>
      </trkpt>
      <trkpt lat="43.65381" lon="1.40684">
        <ele>127</ele>
        <time>2025-03-23T10:22:26Z</time>
      </trkpt>
      <trkpt lat="43.65385" lon="1.40686">
        <ele>127</ele>
        <time>2025-03-23T10:22:27Z</time>
      </trkpt>
      <trkpt lat="43.65387" lon="1.40687">
        <ele>127</ele>
        <time>2025-03-23T10:22:28Z</time>
      </trkpt>
      <trkpt lat="43.6539" lon="1.40689">
        <ele>127</ele>
        <time>2025-03-23T10:22:29Z</time>
      </trkpt>
      <trkpt lat="43.65391" lon="1.4069">
        <ele>127</ele>
        <time>2025-03-23T10:22:30Z</time>
      </trkpt>
      <trkpt lat="43.65393" lon="1.40691">
        <ele>127</ele>
        <time>2025-03-23T10:22:31Z</time>
      </trkpt>
      <trkpt lat="43.65395" lon="1.40692">
        <ele>127</ele>
        <time>2025-03-23T10:22:32Z</time>
      </trkpt>
      <trkpt lat="43.65399" lon="1.40693">
        <ele>127</ele>
        <time>2025-03-23T10:22:33Z</time>
      </trkpt>
      <trkpt lat="43.654" lon="1.40694">
        <ele>127</ele>
        <time>2025-03-23T10:22:34Z</time>
      </trkpt>
      <trkpt lat="43.65404" lon="1.40697">
        <ele>127</ele>
        <time>2025-03-23T10:22:35Z</time>
      </trkpt>
      <trkpt lat="43.65405" lon="1.40698">
        <ele>127</ele>
        <time>2025-03-23T10:22:36Z</time>
      </trkpt>
      <trkpt lat="43.65408" lon="1.40699">
        <ele>127</ele>
        <time>2025-03-23T10:22:37Z</time>
      </trkpt>
      <trkpt lat="43.6541" lon="1.40701">
        <ele>127</ele>
        <time>2025-03-23T10:22:38Z</time>
      </trkpt>
      <trkpt lat="43.65413" lon="1.40704">
        <ele>127</ele>
        <time>2025-03-23T10:22:39Z</time>
      </trkpt>
      <trkpt lat="43.65414" lon="1.40705">
        <ele>128</ele>
        <time>2025-03-23T10:22:40Z</time>
      </trkpt>
      <trkpt lat="43.65416" lon="1.40706">
        <ele>128</ele>
        <time>2025-03-23T10:22:41Z</time>
      </trkpt>
      <trkpt lat="43.65418" lon="1.40708">
        <ele>128</ele>
        <time>2025-03-23T10:22:42Z</time>
      </trkpt>
      <trkpt lat="43.6542" lon="1.40709">
        <ele>128</ele>
        <time>2025-03-23T10:22:43Z</time>
      </trkpt>
      <trkpt lat="43.65422" lon="1.4071">
        <ele>128</ele>
        <time>2025-03-23T10:22:44Z</time>
      </trkpt>
      <trkpt lat="43.65424" lon="1.40711">
        <ele>128</ele>
        <time>2025-03-23T10:22:45Z</time>
      </trkpt>
      <trkpt lat="43.65427" lon="1.40713">
        <ele>128</ele>
        <time>2025-03-23T10:22:46Z</time>
      </trkpt>
      <trkpt lat="43.65428" lon="1.40714">
        <ele>128</ele>
        <time>2025-03-23T10:22:47Z</time>
      </trkpt>
      <trkpt lat="43.65431" lon="1.40715">
        <ele>128</ele>
        <time>2025-03-23T10:22:48Z</time>
      </trkpt>
      <trkpt lat="43.65433" lon="1.40716">
        <ele>128</ele>
        <time>2025-03-23T10:22:49Z</time>
      </trkpt>
      <trkpt lat="43.65435" lon="1.40718">
        <ele>128</ele>
        <time>2025-03-23T10:22:50Z</time>
      </trkpt>
      <trkpt lat="43.65438" lon="1.40719">
        <ele>128</ele>
        <time>2025-03-23T10:22:51Z</time>
      </trkpt>
      <trkpt lat="43.6544" lon="1.4072">
        <ele>128</ele>
        <time>2025-03-23T10:22:52Z</time>
      </trkpt>
      <trkpt lat="43.65442" lon="1.40722">
        <ele>128</ele>
        <time>2025-03-23T10:22:53Z</time>
      </trkpt>
      <trkpt lat="43.65444" lon="1.40724">
        <ele>129</ele>
        <time>2025-03-23T10:22:54Z</time>
      </trkpt>
      <trkpt lat="43.65446" lon="1.40726">
        <ele>129</ele>
        <time>2025-03-23T10:22:55Z</time>
      </trkpt>
      <trkpt lat="43.65449" lon="1.40728">
        <ele>129</ele>
        <time>2025-03-23T10:22:56Z</time>
      </trkpt>
      <trkpt lat="43.6545" lon="1.40729">
        <ele>129</ele>
        <time>2025-03-23T10:22:57Z</time>
      </trkpt>
      <trkpt lat="43.65454" lon="1.40731">
        <ele>129</ele>
        <time>2025-03-23T10:22:58Z</time>
      </trkpt>
      <trkpt lat="43.65455" lon="1.40732">
        <ele>128</ele>
        <time>2025-03-23T10:22:59Z</time>
      </trkpt>
      <trkpt lat="43.65458" lon="1.40733">
        <ele>128</ele>
        <time>2025-03-23T10:23:00Z</time>
      </trkpt>
      <trkpt lat="43.6546" lon="1.40735">
        <ele>129</ele>
        <time>2025-03-23T10:23:01Z</time>
      </trkpt>
      <trkpt lat="43.65463" lon="1.40737">
        <ele>129</ele>
        <time>2025-03-23T10:23:02Z</time>
      </trkpt>
      <trkpt lat="43.65467" lon="1.4074">
        <ele>128</ele>
        <time>2025-03-23T10:23:03Z</time>
      </trkpt>
      <trkpt lat="43.65469" lon="1.4074">
        <ele>128</ele>
        <time>2025-03-23T10:23:04Z</time>
      </trkpt>
      <trkpt lat="43.65471" lon="1.40742">
        <ele>128</ele>
        <time>2025-03-23T10:23:05Z</time>
      </trkpt>
      <trkpt lat="43.65473" lon="1.40743">
        <ele>128</ele>
        <time>2025-03-23T10:23:06Z</time>
      </trkpt>
      <trkpt lat="43.65476" lon="1.40745">
        <ele>129</ele>
        <time>2025-03-23T10:23:07Z</time>
      </trkpt>
      <trkpt lat="43.65479" lon="1.40746">
        <ele>129</ele>
        <time>2025-03-23T10:23:08Z</time>
      </trkpt>
      <trkpt lat="43.65481" lon="1.40748">
        <ele>129</ele>
        <time>2025-03-23T10:23:09Z</time>
      </trkpt>
      <trkpt lat="43.65485" lon="1.4075">
        <ele>129</ele>
        <time>2025-03-23T10:23:10Z</time>
      </trkpt>
      <trkpt lat="43.65486" lon="1.40751">
        <ele>128</ele>
        <time>2025-03-23T10:23:11Z</time>
      </trkpt>
      <trkpt lat="43.65488" lon="1.40752">
        <ele>128</ele>
        <time>2025-03-23T10:23:12Z</time>
      </trkpt>
      <trkpt lat="43.6549" lon="1.40754">
        <ele>128</ele>
        <time>2025-03-23T10:23:13Z</time>
      </trkpt>
      <trkpt lat="43.65492" lon="1.40755">
        <ele>128</ele>
        <time>2025-03-23T10:23:14Z</time>
      </trkpt>
      <trkpt lat="43.65496" lon="1.40757">
        <ele>128</ele>
        <time>2025-03-23T10:23:15Z</time>
      </trkpt>
      <trkpt lat="43.65497" lon="1.40758">
        <ele>129</ele>
        <time>2025-03-23T10:23:16Z</time>
      </trkpt>
      <trkpt lat="43.655" lon="1.4076">
        <ele>129</ele>
        <time>2025-03-23T10:23:17Z</time>
      </trkpt>
      <trkpt lat="43.65501" lon="1.40761">
        <ele>129</ele>
        <time>2025-03-23T10:23:18Z</time>
      </trkpt>
      <trkpt lat="43.65503" lon="1.40763">
        <ele>129</ele>
        <time>2025-03-23T10:23:19Z</time>
      </trkpt>
      <trkpt lat="43.65504" lon="1.40764">
        <ele>129</ele>
        <time>2025-03-23T10:23:20Z</time>
      </trkpt>
      <trkpt lat="43.65507" lon="1.40765">
        <ele>129</ele>
        <time>2025-03-23T10:23:21Z</time>
      </trkpt>
      <trkpt lat="43.65509" lon="1.40765">
        <ele>129</ele>
        <time>2025-03-23T10:23:22Z</time>
      </trkpt>
      <trkpt lat="43.65511" lon="1.40766">
        <ele>130</ele>
        <time>2025-03-23T10:23:23Z</time>
      </trkpt>
      <trkpt lat="43.65514" lon="1.40767">
        <ele>130</ele>
        <time>2025-03-23T10:23:24Z</time>
      </trkpt>
      <trkpt lat="43.65516" lon="1.40767">
        <ele>130</ele>
        <time>2025-03-23T10:23:25Z</time>
      </trkpt>
      <trkpt lat="43.65519" lon="1.40768">
        <ele>130</ele>
        <time>2025-03-23T10:23:26Z</time>
      </trkpt>
      <trkpt lat="43.65523" lon="1.40768">
        <ele>130</ele>
        <time>2025-03-23T10:23:27Z</time>
      </trkpt>
      <trkpt lat="43.65524" lon="1.40769">
        <ele>130</ele>
        <time>2025-03-23T10:23:28Z</time>
      </trkpt>
      <trkpt lat="43.65527" lon="1.40768">
        <ele>130</ele>
        <time>2025-03-23T10:23:29Z</time>
      </trkpt>
      <trkpt lat="43.65529" lon="1.40768">
        <ele>130</ele>
        <time>2025-03-23T10:23:30Z</time>
      </trkpt>
      <trkpt lat="43.65531" lon="1.40768">
        <ele>130</ele>
        <time>2025-03-23T10:23:31Z</time>
      </trkpt>
      <trkpt lat="43.65534" lon="1.40767">
        <ele>130</ele>
        <time>2025-03-23T10:23:32Z</time>
      </trkpt>
      <trkpt lat="43.65536" lon="1.40767">
        <ele>130</ele>
        <time>2025-03-23T10:23:33Z</time>
      </trkpt>
      <trkpt lat="43.65539" lon="1.40766">
        <ele>131</ele>
        <time>2025-03-23T10:23:34Z</time>
      </trkpt>
      <trkpt lat="43.65541" lon="1.40766">
        <ele>131</ele>
        <time>2025-03-23T10:23:35Z</time>
      </trkpt>
      <trkpt lat="43.65544" lon="1.40766">
        <ele>131</ele>
        <time>2025-03-23T10:23:36Z</time>
      </trkpt>
      <trkpt lat="43.65547" lon="1.40765">
        <ele>131</ele>
        <time>2025-03-23T10:23:37Z</time>
      </trkpt>
      <trkpt lat="43.65549" lon="1.40764">
        <ele>131</ele>
        <time>2025-03-23T10:23:38Z</time>
      </trkpt>
      <trkpt lat="43.65552" lon="1.40763">
        <ele>131</ele>
        <time>2025-03-23T10:23:39Z</time>
      </trkpt>
      <trkpt lat="43.65555" lon="1.40762">
        <ele>131</ele>
        <time>2025-03-23T10:23:40Z</time>
      </trkpt>
      <trkpt lat="43.65558" lon="1.40761">
        <ele>131</ele>
        <time>2025-03-23T10:23:41Z</time>
      </trkpt>
      <trkpt lat="43.6556" lon="1.4076">
        <ele>131</ele>
        <time>2025-03-23T10:23:42Z</time>
      </trkpt>
      <trkpt lat="43.65563" lon="1.40759">
        <ele>131</ele>
        <time>2025-03-23T10:23:43Z</time>
      </trkpt>
      <trkpt lat="43.65565" lon="1.40758">
        <ele>131</ele>
        <time>2025-03-23T10:23:44Z</time>
      </trkpt>
      <trkpt lat="43.65568" lon="1.40757">
        <ele>131</ele>
        <time>2025-03-23T10:23:45Z</time>
      </trkpt>
      <trkpt lat="43.6557" lon="1.40756">
        <ele>131</ele>
        <time>2025-03-23T10:23:46Z</time>
      </trkpt>
      <trkpt lat="43.65573" lon="1.40754">
        <ele>131</ele>
        <time>2025-03-23T10:23:47Z</time>
      </trkpt>
      <trkpt lat="43.65576" lon="1.40753">
        <ele>131</ele>
        <time>2025-03-23T10:23:48Z</time>
      </trkpt>
      <trkpt lat="43.65578" lon="1.40752">
        <ele>131</ele>
        <time>2025-03-23T10:23:49Z</time>
      </trkpt>
      <trkpt lat="43.6558" lon="1.40751">
        <ele>131</ele>
        <time>2025-03-23T10:23:50Z</time>
      </trkpt>
      <trkpt lat="43.65583" lon="1.40751">
        <ele>131</ele>
        <time>2025-03-23T10:23:51Z</time>
      </trkpt>
      <trkpt lat="43.65585" lon="1.4075">
        <ele>131</ele>
        <time>2025-03-23T10:23:52Z</time>
      </trkpt>
      <trkpt lat="43.65588" lon="1.4075">
        <ele>131</ele>
        <time>2025-03-23T10:23:53Z</time>
      </trkpt>
      <trkpt lat="43.6559" lon="1.4075">
        <ele>131</ele>
        <time>2025-03-23T10:23:54Z</time>
      </trkpt>
      <trkpt lat="43.65593" lon="1.40749">
        <ele>131</ele>
        <time>2025-03-23T10:23:55Z</time>
      </trkpt>
      <trkpt lat="43.65596" lon="1.40749">
        <ele>131</ele>
        <time>2025-03-23T10:23:56Z</time>
      </trkpt>
      <trkpt lat="43.65599" lon="1.40749">
        <ele>131</ele>
        <time>2025-03-23T10:23:57Z</time>
      </trkpt>
      <trkpt lat="43.65601" lon="1.4075">
        <ele>131</ele>
        <time>2025-03-23T10:23:58Z</time>
      </trkpt>
      <trkpt lat="43.65603" lon="1.4075">
        <ele>131</ele>
        <time>2025-03-23T10:23:59Z</time>
      </trkpt>
      <trkpt lat="43.65606" lon="1.4075">
        <ele>131</ele>
        <time>2025-03-23T10:24:00Z</time>
      </trkpt>
      <trkpt lat="43.65608" lon="1.40751">
        <ele>131</ele>
        <time>2025-03-23T10:24:01Z</time>
      </trkpt>
      <trkpt lat="43.65611" lon="1.40751">
        <ele>131</ele>
        <time>2025-03-23T10:24:02Z</time>
      </trkpt>
      <trkpt lat="43.65613" lon="1.40751">
        <ele>131</ele>
        <time>2025-03-23T10:24:03Z</time>
      </trkpt>
      <trkpt lat="43.65617" lon="1.40751">
        <ele>132</ele>
        <time>2025-03-23T10:24:04Z</time>
      </trkpt>
      <trkpt lat="43.65619" lon="1.40751">
        <ele>132</ele>
        <time>2025-03-23T10:24:05Z</time>
      </trkpt>
      <trkpt lat="43.65622" lon="1.40751">
        <ele>132</ele>
        <time>2025-03-23T10:24:06Z</time>
      </trkpt>
      <trkpt lat="43.65624" lon="1.40751">
        <ele>132</ele>
        <time>2025-03-23T10:24:07Z</time>
      </trkpt>
      <trkpt lat="43.65627" lon="1.40751">
        <ele>132</ele>
        <time>2025-03-23T10:24:08Z</time>
      </trkpt>
      <trkpt lat="43.6563" lon="1.40751">
        <ele>132</ele>
        <time>2025-03-23T10:24:09Z</time>
      </trkpt>
      <trkpt lat="43.65632" lon="1.4075">
        <ele>132</ele>
        <time>2025-03-23T10:24:10Z</time>
      </trkpt>
      <trkpt lat="43.65635" lon="1.4075">
        <ele>133</ele>
        <time>2025-03-23T10:24:11Z</time>
      </trkpt>
      <trkpt lat="43.65638" lon="1.4075">
        <ele>133</ele>
        <time>2025-03-23T10:24:12Z</time>
      </trkpt>
      <trkpt lat="43.65642" lon="1.4075">
        <ele>133</ele>
        <time>2025-03-23T10:24:13Z</time>
      </trkpt>
      <trkpt lat="43.65644" lon="1.4075">
        <ele>133</ele>
        <time>2025-03-23T10:24:14Z</time>
      </trkpt>
      <trkpt lat="43.65646" lon="1.4075">
        <ele>133</ele>
        <time>2025-03-23T10:24:15Z</time>
      </trkpt>
      <trkpt lat="43.65648" lon="1.4075">
        <ele>133</ele>
        <time>2025-03-23T10:24:16Z</time>
      </trkpt>
      <trkpt lat="43.65651" lon="1.4075">
        <ele>133</ele>
        <time>2025-03-23T10:24:17Z</time>
      </trkpt>
      <trkpt lat="43.65653" lon="1.4075">
        <ele>133</ele>
        <time>2025-03-23T10:24:18Z</time>
      </trkpt>
      <trkpt lat="43.65656" lon="1.4075">
        <ele>133</ele>
        <time>2025-03-23T10:24:19Z</time>
      </trkpt>
      <trkpt lat="43.65658" lon="1.4075">
        <ele>133</ele>
        <time>2025-03-23T10:24:20Z</time>
      </trkpt>
      <trkpt lat="43.65661" lon="1.4075">
        <ele>133</ele>
        <time>2025-03-23T10:24:21Z</time>
      </trkpt>
      <trkpt lat="43.65663" lon="1.40751">
        <ele>133</ele>
        <time>2025-03-23T10:24:22Z</time>
      </trkpt>
      <trkpt lat="43.65667" lon="1.40751">
        <ele>133</ele>
        <time>2025-03-23T10:24:23Z</time>
      </trkpt>
      <trkpt lat="43.65669" lon="1.40751">
        <ele>133</ele>
        <time>2025-03-23T10:24:24Z</time>
      </trkpt>
      <trkpt lat="43.65672" lon="1.40752">
        <ele>133</ele>
        <time>2025-03-23T10:24:25Z</time>
      </trkpt>
      <trkpt lat="43.65674" lon="1.40751">
        <ele>133</ele>
        <time>2025-03-23T10:24:26Z</time>
      </trkpt>
      <trkpt lat="43.65677" lon="1.40751">
        <ele>133</ele>
        <time>2025-03-23T10:24:27Z</time>
      </trkpt>
      <trkpt lat="43.6568" lon="1.40751">
        <ele>133</ele>
        <time>2025-03-23T10:24:28Z</time>
      </trkpt>
      <trkpt lat="43.65682" lon="1.4075">
        <ele>133</ele>
        <time>2025-03-23T10:24:29Z</time>
      </trkpt>
      <trkpt lat="43.65685" lon="1.4075">
        <ele>133</ele>
        <time>2025-03-23T10:24:30Z</time>
      </trkpt>
      <trkpt lat="43.65688" lon="1.40749">
        <ele>133</ele>
        <time>2025-03-23T10:24:31Z</time>
      </trkpt>
      <trkpt lat="43.65691" lon="1.40748">
        <ele>133</ele>
        <time>2025-03-23T10:24:32Z</time>
      </trkpt>
      <trkpt lat="43.65694" lon="1.40748">
        <ele>133</ele>
        <time>2025-03-23T10:24:33Z</time>
      </trkpt>
      <trkpt lat="43.65697" lon="1.40748">
        <ele>133</ele>
        <time>2025-03-23T10:24:34Z</time>
      </trkpt>
      <trkpt lat="43.657" lon="1.40748">
        <ele>133</ele>
        <time>2025-03-23T10:24:35Z</time>
      </trkpt>
      <trkpt lat="43.65703" lon="1.40747">
        <ele>133</ele>
        <time>2025-03-23T10:24:36Z</time>
      </trkpt>
      <trkpt lat="43.65708" lon="1.40745">
        <ele>133</ele>
        <time>2025-03-23T10:24:37Z</time>
      </trkpt>
      <trkpt lat="43.65709" lon="1.40745">
        <ele>132</ele>
        <time>2025-03-23T10:24:38Z</time>
      </trkpt>
      <trkpt lat="43.65713" lon="1.40744">
        <ele>132</ele>
        <time>2025-03-23T10:24:39Z</time>
      </trkpt>
      <trkpt lat="43.65714" lon="1.40744">
        <ele>131</ele>
        <time>2025-03-23T10:24:40Z</time>
      </trkpt>
      <trkpt lat="43.65717" lon="1.40743">
        <ele>131</ele>
        <time>2025-03-23T10:24:41Z</time>
      </trkpt>
      <trkpt lat="43.65721" lon="1.40743">
        <ele>130</ele>
        <time>2025-03-23T10:24:42Z</time>
      </trkpt>
      <trkpt lat="43.65722" lon="1.40743">
        <ele>130</ele>
        <time>2025-03-23T10:24:43Z</time>
      </trkpt>
      <trkpt lat="43.65725" lon="1.40743">
        <ele>130</ele>
        <time>2025-03-23T10:24:44Z</time>
      </trkpt>
      <trkpt lat="43.65728" lon="1.40742">
        <ele>130</ele>
        <time>2025-03-23T10:24:45Z</time>
      </trkpt>
      <trkpt lat="43.65731" lon="1.40742">
        <ele>130</ele>
        <time>2025-03-23T10:24:46Z</time>
      </trkpt>
      <trkpt lat="43.65732" lon="1.40742">
        <ele>130</ele>
        <time>2025-03-23T10:24:47Z</time>
      </trkpt>
      <trkpt lat="43.65735" lon="1.40741">
        <ele>130</ele>
        <time>2025-03-23T10:24:48Z</time>
      </trkpt>
      <trkpt lat="43.65739" lon="1.40741">
        <ele>131</ele>
        <time>2025-03-23T10:24:49Z</time>
      </trkpt>
      <trkpt lat="43.65741" lon="1.40741">
        <ele>131</ele>
        <time>2025-03-23T10:24:50Z</time>
      </trkpt>
      <trkpt lat="43.65743" lon="1.40741">
        <ele>131</ele>
        <time>2025-03-23T10:24:51Z</time>
      </trkpt>
      <trkpt lat="43.65747" lon="1.40741">
        <ele>131</ele>
        <time>2025-03-23T10:24:52Z</time>
      </trkpt>
      <trkpt lat="43.65748" lon="1.40741">
        <ele>131</ele>
        <time>2025-03-23T10:24:53Z</time>
      </trkpt>
      <trkpt lat="43.65751" lon="1.40742">
        <ele>131</ele>
        <time>2025-03-23T10:24:54Z</time>
      </trkpt>
      <trkpt lat="43.65753" lon="1.40742">
        <ele>131</ele>
        <time>2025-03-23T10:24:55Z</time>
      </trkpt>
      <trkpt lat="43.65756" lon="1.40742">
        <ele>131</ele>
        <time>2025-03-23T10:24:56Z</time>
      </trkpt>
      <trkpt lat="43.65758" lon="1.40742">
        <ele>131</ele>
        <time>2025-03-23T10:24:57Z</time>
      </trkpt>
      <trkpt lat="43.65761" lon="1.40742">
        <ele>131</ele>
        <time>2025-03-23T10:24:58Z</time>
      </trkpt>
      <trkpt lat="43.65763" lon="1.40742">
        <ele>130</ele>
        <time>2025-03-23T10:24:59Z</time>
      </trkpt>
      <trkpt lat="43.65766" lon="1.40743">
        <ele>130</ele>
        <time>2025-03-23T10:25:00Z</time>
      </trkpt>
      <trkpt lat="43.65768" lon="1.40743">
        <ele>130</ele>
        <time>2025-03-23T10:25:01Z</time>
      </trkpt>
      <trkpt lat="43.65772" lon="1.40743">
        <ele>130</ele>
        <time>2025-03-23T10:25:02Z</time>
      </trkpt>
      <trkpt lat="43.65773" lon="1.40744">
        <ele>130</ele>
        <time>2025-03-23T10:25:03Z</time>
      </trkpt>
      <trkpt lat="43.65776" lon="1.40744">
        <ele>131</ele>
        <time>2025-03-23T10:25:04Z</time>
      </trkpt>
      <trkpt lat="43.65778" lon="1.40745">
        <ele>131</ele>
        <time>2025-03-23T10:25:05Z</time>
      </trkpt>
      <trkpt lat="43.65781" lon="1.40745">
        <ele>131</ele>
        <time>2025-03-23T10:25:06Z</time>
      </trkpt>
      <trkpt lat="43.65783" lon="1.40745">
        <ele>131</ele>
        <time>2025-03-23T10:25:07Z</time>
      </trkpt>
      <trkpt lat="43.65785" lon="1.40746">
        <ele>131</ele>
        <time>2025-03-23T10:25:08Z</time>
      </trkpt>
      <trkpt lat="43.65787" lon="1.40745">
        <ele>131</ele>
        <time>2025-03-23T10:25:09Z</time>
      </trkpt>
      <trkpt lat="43.65789" lon="1.40745">
        <ele>131</ele>
        <time>2025-03-23T10:25:10Z</time>
      </trkpt>
      <trkpt lat="43.65792" lon="1.40745">
        <ele>131</ele>
        <time>2025-03-23T10:25:11Z</time>
      </trkpt>
      <trkpt lat="43.65794" lon="1.40745">
        <ele>131</ele>
        <time>2025-03-23T10:25:12Z</time>
      </trkpt>
      <trkpt lat="43.65794" lon="1.40745">
        <ele>131</ele>
        <time>2025-03-23T10:25:13Z</time>
      </trkpt>
      <trkpt lat="43.65797" lon="1.40746">
        <ele>131</ele>
        <time>2025-03-23T10:25:14Z</time>
      </trkpt>
      <trkpt lat="43.65797" lon="1.40746">
        <ele>131</ele>
        <time>2025-03-23T10:25:15Z</time>
      </trkpt>
      <trkpt lat="43.65797" lon="1.40746">
        <ele>131</ele>
        <time>2025-03-23T10:25:16Z</time>
      </trkpt>
      <trkpt lat="43.65799" lon="1.40747">
        <ele>131</ele>
        <time>2025-03-23T10:25:17Z</time>
      </trkpt>
      <trkpt lat="43.65799" lon="1.40747">
        <ele>131</ele>
        <time>2025-03-23T10:25:18Z</time>
      </trkpt>
      <trkpt lat="43.65801" lon="1.40746">
        <ele>131</ele>
        <time>2025-03-23T10:25:19Z</time>
      </trkpt>
      <trkpt lat="43.65803" lon="1.40746">
        <ele>131</ele>
        <time>2025-03-23T10:25:20Z</time>
      </trkpt>
      <trkpt lat="43.65805" lon="1.40746">
        <ele>131</ele>
        <time>2025-03-23T10:25:21Z</time>
      </trkpt>
      <trkpt lat="43.65805" lon="1.40746">
        <ele>131</ele>
        <time>2025-03-23T10:25:22Z</time>
      </trkpt>
      <trkpt lat="43.65808" lon="1.40747">
        <ele>131</ele>
        <time>2025-03-23T10:25:23Z</time>
      </trkpt>
      <trkpt lat="43.6581" lon="1.40747">
        <ele>130</ele>
        <time>2025-03-23T10:25:24Z</time>
      </trkpt>
      <trkpt lat="43.6581" lon="1.40747">
        <ele>130</ele>
        <time>2025-03-23T10:25:25Z</time>
      </trkpt>
      <trkpt lat="43.65813" lon="1.40747">
        <ele>130</ele>
        <time>2025-03-23T10:25:26Z</time>
      </trkpt>
      <trkpt lat="43.65813" lon="1.40747">
        <ele>130</ele>
        <time>2025-03-23T10:25:27Z</time>
      </trkpt>
      <trkpt lat="43.65816" lon="1.40746">
        <ele>131</ele>
        <time>2025-03-23T10:25:28Z</time>
      </trkpt>
      <trkpt lat="43.65816" lon="1.40746">
        <ele>131</ele>
        <time>2025-03-23T10:25:29Z</time>
      </trkpt>
      <trkpt lat="43.65819" lon="1.40746">
        <ele>131</ele>
        <time>2025-03-23T10:25:30Z</time>
      </trkpt>
      <trkpt lat="43.65819" lon="1.40746">
        <ele>131</ele>
        <time>2025-03-23T10:25:31Z</time>
      </trkpt>
      <trkpt lat="43.65822" lon="1.40745">
        <ele>131</ele>
        <time>2025-03-23T10:25:32Z</time>
      </trkpt>
      <trkpt lat="43.65822" lon="1.40745">
        <ele>131</ele>
        <time>2025-03-23T10:25:33Z</time>
      </trkpt>
      <trkpt lat="43.65826" lon="1.40745">
        <ele>131</ele>
        <time>2025-03-23T10:25:34Z</time>
      </trkpt>
      <trkpt lat="43.65826" lon="1.40745">
        <ele>131</ele>
        <time>2025-03-23T10:25:35Z</time>
      </trkpt>
      <trkpt lat="43.65829" lon="1.40746">
        <ele>131</ele>
        <time>2025-03-23T10:25:36Z</time>
      </trkpt>
      <trkpt lat="43.65829" lon="1.40746">
        <ele>131</ele>
        <time>2025-03-23T10:25:37Z</time>
      </trkpt>
      <trkpt lat="43.65832" lon="1.40746">
        <ele>131</ele>
        <time>2025-03-23T10:25:38Z</time>
      </trkpt>
      <trkpt lat="43.65832" lon="1.40746">
        <ele>131</ele>
        <time>2025-03-23T10:25:39Z</time>
      </trkpt>
      <trkpt lat="43.65835" lon="1.40745">
        <ele>131</ele>
        <time>2025-03-23T10:25:40Z</time>
      </trkpt>
      <trkpt lat="43.65837" lon="1.40745">
        <ele>131</ele>
        <time>2025-03-23T10:25:41Z</time>
      </trkpt>
      <trkpt lat="43.65839" lon="1.40746">
        <ele>131</ele>
        <time>2025-03-23T10:25:42Z</time>
      </trkpt>
      <trkpt lat="43.65841" lon="1.40746">
        <ele>130</ele>
        <time>2025-03-23T10:25:43Z</time>
      </trkpt>
      <trkpt lat="43.65841" lon="1.40746">
        <ele>130</ele>
        <time>2025-03-23T10:25:44Z</time>
      </trkpt>
      <trkpt lat="43.65844" lon="1.40746">
        <ele>130</ele>
        <time>2025-03-23T10:25:45Z</time>
      </trkpt>
      <trkpt lat="43.65844" lon="1.40746">
        <ele>130</ele>
        <time>2025-03-23T10:25:46Z</time>
      </trkpt>
      <trkpt lat="43.65847" lon="1.40746">
        <ele>130</ele>
        <time>2025-03-23T10:25:47Z</time>
      </trkpt>
      <trkpt lat="43.65847" lon="1.40746">
        <ele>130</ele>
        <time>2025-03-23T10:25:48Z</time>
      </trkpt>
      <trkpt lat="43.6585" lon="1.40747">
        <ele>130</ele>
        <time>2025-03-23T10:25:49Z</time>
      </trkpt>
      <trkpt lat="43.6585" lon="1.40747">
        <ele>130</ele>
        <time>2025-03-23T10:25:50Z</time>
      </trkpt>
      <trkpt lat="43.65853" lon="1.40746">
        <ele>130</ele>
        <time>2025-03-23T10:25:51Z</time>
      </trkpt>
      <trkpt lat="43.65853" lon="1.40746">
        <ele>130</ele>
        <time>2025-03-23T10:25:52Z</time>
      </trkpt>
      <trkpt lat="43.65856" lon="1.40746">
        <ele>130</ele>
        <time>2025-03-23T10:25:53Z</time>
      </trkpt>
      <trkpt lat="43.65856" lon="1.40746">
        <ele>130</ele>
        <time>2025-03-23T10:25:54Z</time>
      </trkpt>
      <trkpt lat="43.65859" lon="1.40746">
        <ele>131</ele>
        <time>2025-03-23T10:25:55Z</time>
      </trkpt>
      <trkpt lat="43.65859" lon="1.40746">
        <ele>131</ele>
        <time>2025-03-23T10:25:56Z</time>
      </trkpt>
      <trkpt lat="43.65861" lon="1.40745">
        <ele>131</ele>
        <time>2025-03-23T10:25:57Z</time>
      </trkpt>
      <trkpt lat="43.65861" lon="1.40745">
        <ele>131</ele>
        <time>2025-03-23T10:25:58Z</time>
      </trkpt>
      <trkpt lat="43.65864" lon="1.40745">
        <ele>131</ele>
        <time>2025-03-23T10:25:59Z</time>
      </trkpt>
      <trkpt lat="43.65864" lon="1.40745">
        <ele>131</ele>
        <time>2025-03-23T10:26:00Z</time>
      </trkpt>
      <trkpt lat="43.65867" lon="1.40745">
        <ele>131</ele>
        <time>2025-03-23T10:26:01Z</time>
      </trkpt>
      <trkpt lat="43.65867" lon="1.40745">
        <ele>131</ele>
        <time>2025-03-23T10:26:02Z</time>
      </trkpt>
      <trkpt lat="43.6587" lon="1.40745">
        <ele>131</ele>
        <time>2025-03-23T10:26:03Z</time>
      </trkpt>
      <trkpt lat="43.6587" lon="1.40745">
        <ele>131</ele>
        <time>2025-03-23T10:26:04Z</time>
      </trkpt>
      <trkpt lat="43.65872" lon="1.40745">
        <ele>131</ele>
        <time>2025-03-23T10:26:05Z</time>
      </trkpt>
      <trkpt lat="43.65872" lon="1.40745">
        <ele>131</ele>
        <time>2025-03-23T10:26:06Z</time>
      </trkpt>
      <trkpt lat="43.65875" lon="1.40745">
        <ele>131</ele>
        <time>2025-03-23T10:26:07Z</time>
      </trkpt>
      <trkpt lat="43.65878" lon="1.40744">
        <ele>131</ele>
        <time>2025-03-23T10:26:09Z</time>
      </trkpt>
      <trkpt lat="43.65878" lon="1.40744">
        <ele>131</ele>
        <time>2025-03-23T10:26:10Z</time>
      </trkpt>
      <trkpt lat="43.6588" lon="1.40744">
        <ele>131</ele>
        <time>2025-03-23T10:26:11Z</time>
      </trkpt>
      <trkpt lat="43.6588" lon="1.40744">
        <ele>132</ele>
        <time>2025-03-23T10:26:12Z</time>
      </trkpt>
      <trkpt lat="43.65883" lon="1.40743">
        <ele>132</ele>
        <time>2025-03-23T10:26:13Z</time>
      </trkpt>
      <trkpt lat="43.65883" lon="1.40743">
        <ele>132</ele>
        <time>2025-03-23T10:26:14Z</time>
      </trkpt>
      <trkpt lat="43.65886" lon="1.40743">
        <ele>132</ele>
        <time>2025-03-23T10:26:15Z</time>
      </trkpt>
      <trkpt lat="43.65886" lon="1.40743">
        <ele>132</ele>
        <time>2025-03-23T10:26:16Z</time>
      </trkpt>
      <trkpt lat="43.65888" lon="1.40743">
        <ele>132</ele>
        <time>2025-03-23T10:26:17Z</time>
      </trkpt>
      <trkpt lat="43.65888" lon="1.40743">
        <ele>131</ele>
        <time>2025-03-23T10:26:18Z</time>
      </trkpt>
      <trkpt lat="43.6589" lon="1.40742">
        <ele>131</ele>
        <time>2025-03-23T10:26:19Z</time>
      </trkpt>
      <trkpt lat="43.6589" lon="1.40742">
        <ele>131</ele>
        <time>2025-03-23T10:26:20Z</time>
      </trkpt>
      <trkpt lat="43.65892" lon="1.40742">
        <ele>131</ele>
        <time>2025-03-23T10:26:21Z</time>
      </trkpt>
      <trkpt lat="43.65892" lon="1.40742">
        <ele>131</ele>
        <time>2025-03-23T10:26:22Z</time>
      </trkpt>
      <trkpt lat="43.65895" lon="1.40742">
        <ele>131</ele>
        <time>2025-03-23T10:26:23Z</time>
      </trkpt>
      <trkpt lat="43.65895" lon="1.40742">
        <ele>131</ele>
        <time>2025-03-23T10:26:24Z</time>
      </trkpt>
      <trkpt lat="43.65898" lon="1.40741">
        <ele>131</ele>
        <time>2025-03-23T10:26:25Z</time>
      </trkpt>
      <trkpt lat="43.65898" lon="1.40741">
        <ele>131</ele>
        <time>2025-03-23T10:26:26Z</time>
      </trkpt>
      <trkpt lat="43.659" lon="1.40741">
        <ele>131</ele>
        <time>2025-03-23T10:26:27Z</time>
      </trkpt>
      <trkpt lat="43.659" lon="1.40741">
        <ele>131</ele>
        <time>2025-03-23T10:26:28Z</time>
      </trkpt>
      <trkpt lat="43.65902" lon="1.40741">
        <ele>131</ele>
        <time>2025-03-23T10:26:29Z</time>
      </trkpt>
      <trkpt lat="43.65902" lon="1.40741">
        <ele>131</ele>
        <time>2025-03-23T10:26:30Z</time>
      </trkpt>
      <trkpt lat="43.65905" lon="1.4074">
        <ele>131</ele>
        <time>2025-03-23T10:26:31Z</time>
      </trkpt>
      <trkpt lat="43.65905" lon="1.4074">
        <ele>131</ele>
        <time>2025-03-23T10:26:32Z</time>
      </trkpt>
      <trkpt lat="43.65908" lon="1.4074">
        <ele>131</ele>
        <time>2025-03-23T10:26:33Z</time>
      </trkpt>
      <trkpt lat="43.65908" lon="1.4074">
        <ele>131</ele>
        <time>2025-03-23T10:26:34Z</time>
      </trkpt>
      <trkpt lat="43.6591" lon="1.4074">
        <ele>131</ele>
        <time>2025-03-23T10:26:35Z</time>
      </trkpt>
      <trkpt lat="43.6591" lon="1.4074">
        <ele>131</ele>
        <time>2025-03-23T10:26:36Z</time>
      </trkpt>
      <trkpt lat="43.65913" lon="1.4074">
        <ele>131</ele>
        <time>2025-03-23T10:26:37Z</time>
      </trkpt>
      <trkpt lat="43.65913" lon="1.4074">
        <ele>131</ele>
        <time>2025-03-23T10:26:38Z</time>
      </trkpt>
      <trkpt lat="43.65915" lon="1.40739">
        <ele>131</ele>
        <time>2025-03-23T10:26:39Z</time>
      </trkpt>
      <trkpt lat="43.65915" lon="1.40739">
        <ele>131</ele>
        <time>2025-03-23T10:26:40Z</time>
      </trkpt>
      <trkpt lat="43.65918" lon="1.40739">
        <ele>131</ele>
        <time>2025-03-23T10:26:41Z</time>
      </trkpt>
      <trkpt lat="43.65918" lon="1.40739">
        <ele>131</ele>
        <time>2025-03-23T10:26:42Z</time>
      </trkpt>
      <trkpt lat="43.65921" lon="1.40738">
        <ele>131</ele>
        <time>2025-03-23T10:26:43Z</time>
      </trkpt>
      <trkpt lat="43.65921" lon="1.40738">
        <ele>131</ele>
        <time>2025-03-23T10:26:44Z</time>
      </trkpt>
      <trkpt lat="43.65924" lon="1.40738">
        <ele>131</ele>
        <time>2025-03-23T10:26:45Z</time>
      </trkpt>
      <trkpt lat="43.65926" lon="1.40738">
        <ele>130</ele>
        <time>2025-03-23T10:26:47Z</time>
      </trkpt>
      <trkpt lat="43.65926" lon="1.40738">
        <ele>130</ele>
        <time>2025-03-23T10:26:48Z</time>
      </trkpt>
      <trkpt lat="43.65929" lon="1.40738">
        <ele>130</ele>
        <time>2025-03-23T10:26:49Z</time>
      </trkpt>
      <trkpt lat="43.65929" lon="1.40738">
        <ele>130</ele>
        <time>2025-03-23T10:26:50Z</time>
      </trkpt>
      <trkpt lat="43.65931" lon="1.40737">
        <ele>130</ele>
        <time>2025-03-23T10:26:51Z</time>
      </trkpt>
      <trkpt lat="43.65931" lon="1.40737">
        <ele>130</ele>
        <time>2025-03-23T10:26:52Z</time>
      </trkpt>
      <trkpt lat="43.65934" lon="1.40737">
        <ele>130</ele>
        <time>2025-03-23T10:26:53Z</time>
      </trkpt>
      <trkpt lat="43.65934" lon="1.40737">
        <ele>130</ele>
        <time>2025-03-23T10:26:54Z</time>
      </trkpt>
      <trkpt lat="43.65937" lon="1.40737">
        <ele>130</ele>
        <time>2025-03-23T10:26:55Z</time>
      </trkpt>
      <trkpt lat="43.65937" lon="1.40737">
        <ele>130</ele>
        <time>2025-03-23T10:26:56Z</time>
      </trkpt>
      <trkpt lat="43.65939" lon="1.40737">
        <ele>130</ele>
        <time>2025-03-23T10:26:57Z</time>
      </trkpt>
      <trkpt lat="43.65942" lon="1.40736">
        <ele>131</ele>
        <time>2025-03-23T10:26:59Z</time>
      </trkpt>
      <trkpt lat="43.65942" lon="1.40736">
        <ele>131</ele>
        <time>2025-03-23T10:27:00Z</time>
      </trkpt>
      <trkpt lat="43.65944" lon="1.40736">
        <ele>131</ele>
        <time>2025-03-23T10:27:01Z</time>
      </trkpt>
      <trkpt lat="43.65944" lon="1.40736">
        <ele>131</ele>
        <time>2025-03-23T10:27:02Z</time>
      </trkpt>
      <trkpt lat="43.65947" lon="1.40736">
        <ele>131</ele>
        <time>2025-03-23T10:27:03Z</time>
      </trkpt>
      <trkpt lat="43.65947" lon="1.40736">
        <ele>131</ele>
        <time>2025-03-23T10:27:04Z</time>
      </trkpt>
      <trkpt lat="43.6595" lon="1.40735">
        <ele>131</ele>
        <time>2025-03-23T10:27:05Z</time>
      </trkpt>
      <trkpt lat="43.6595" lon="1.40735">
        <ele>131</ele>
        <time>2025-03-23T10:27:06Z</time>
      </trkpt>
      <trkpt lat="43.65953" lon="1.40735">
        <ele>131</ele>
        <time>2025-03-23T10:27:07Z</time>
      </trkpt>
      <trkpt lat="43.65953" lon="1.40735">
        <ele>131</ele>
        <time>2025-03-23T10:27:08Z</time>
      </trkpt>
      <trkpt lat="43.65956" lon="1.40734">
        <ele>130</ele>
        <time>2025-03-23T10:27:09Z</time>
      </trkpt>
      <trkpt lat="43.65956" lon="1.40734">
        <ele>130</ele>
        <time>2025-03-23T10:27:10Z</time>
      </trkpt>
      <trkpt lat="43.65958" lon="1.40734">
        <ele>130</ele>
        <time>2025-03-23T10:27:11Z</time>
      </trkpt>
      <trkpt lat="43.6596" lon="1.40733">
        <ele>130</ele>
        <time>2025-03-23T10:27:12Z</time>
      </trkpt>
      <trkpt lat="43.65962" lon="1.40733">
        <ele>130</ele>
        <time>2025-03-23T10:27:13Z</time>
      </trkpt>
      <trkpt lat="43.65964" lon="1.40733">
        <ele>130</ele>
        <time>2025-03-23T10:27:14Z</time>
      </trkpt>
      <trkpt lat="43.65966" lon="1.40732">
        <ele>130</ele>
        <time>2025-03-23T10:27:15Z</time>
      </trkpt>
      <trkpt lat="43.65969" lon="1.40731">
        <ele>130</ele>
        <time>2025-03-23T10:27:16Z</time>
      </trkpt>
      <trkpt lat="43.65972" lon="1.40731">
        <ele>130</ele>
        <time>2025-03-23T10:27:17Z</time>
      </trkpt>
      <trkpt lat="43.65973" lon="1.4073">
        <ele>130</ele>
        <time>2025-03-23T10:27:18Z</time>
      </trkpt>
      <trkpt lat="43.65976" lon="1.4073">
        <ele>130</ele>
        <time>2025-03-23T10:27:19Z</time>
      </trkpt>
      <trkpt lat="43.65978" lon="1.40729">
        <ele>130</ele>
        <time>2025-03-23T10:27:20Z</time>
      </trkpt>
      <trkpt lat="43.65981" lon="1.40729">
        <ele>130</ele>
        <time>2025-03-23T10:27:21Z</time>
      </trkpt>
      <trkpt lat="43.65983" lon="1.40728">
        <ele>130</ele>
        <time>2025-03-23T10:27:22Z</time>
      </trkpt>
      <trkpt lat="43.65985" lon="1.40728">
        <ele>130</ele>
        <time>2025-03-23T10:27:23Z</time>
      </trkpt>
      <trkpt lat="43.65992" lon="1.40727">
        <ele>130</ele>
        <time>2025-03-23T10:27:25Z</time>
      </trkpt>
      <trkpt lat="43.65993" lon="1.40726">
        <ele>130</ele>
        <time>2025-03-23T10:27:26Z</time>
      </trkpt>
      <trkpt lat="43.65996" lon="1.40726">
        <ele>130</ele>
        <time>2025-03-23T10:27:27Z</time>
      </trkpt>
      <trkpt lat="43.65998" lon="1.40726">
        <ele>129</ele>
        <time>2025-03-23T10:27:28Z</time>
      </trkpt>
      <trkpt lat="43.66001" lon="1.40725">
        <ele>130</ele>
        <time>2025-03-23T10:27:29Z</time>
      </trkpt>
      <trkpt lat="43.66004" lon="1.40725">
        <ele>130</ele>
        <time>2025-03-23T10:27:30Z</time>
      </trkpt>
      <trkpt lat="43.66006" lon="1.40724">
        <ele>131</ele>
        <time>2025-03-23T10:27:31Z</time>
      </trkpt>
      <trkpt lat="43.66009" lon="1.40723">
        <ele>131</ele>
        <time>2025-03-23T10:27:32Z</time>
      </trkpt>
      <trkpt lat="43.66011" lon="1.40723">
        <ele>131</ele>
        <time>2025-03-23T10:27:33Z</time>
      </trkpt>
      <trkpt lat="43.66014" lon="1.40722">
        <ele>131</ele>
        <time>2025-03-23T10:27:34Z</time>
      </trkpt>
      <trkpt lat="43.66016" lon="1.40722">
        <ele>131</ele>
        <time>2025-03-23T10:27:35Z</time>
      </trkpt>
      <trkpt lat="43.66019" lon="1.40721">
        <ele>131</ele>
        <time>2025-03-23T10:27:36Z</time>
      </trkpt>
      <trkpt lat="43.66022" lon="1.4072">
        <ele>131</ele>
        <time>2025-03-23T10:27:37Z</time>
      </trkpt>
      <trkpt lat="43.66023" lon="1.4072">
        <ele>131</ele>
        <time>2025-03-23T10:27:38Z</time>
      </trkpt>
      <trkpt lat="43.66026" lon="1.40719">
        <ele>131</ele>
        <time>2025-03-23T10:27:39Z</time>
      </trkpt>
      <trkpt lat="43.66028" lon="1.40718">
        <ele>131</ele>
        <time>2025-03-23T10:27:40Z</time>
      </trkpt>
      <trkpt lat="43.6603" lon="1.40717">
        <ele>131</ele>
        <time>2025-03-23T10:27:41Z</time>
      </trkpt>
      <trkpt lat="43.66032" lon="1.40716">
        <ele>131</ele>
        <time>2025-03-23T10:27:42Z</time>
      </trkpt>
      <trkpt lat="43.66035" lon="1.40715">
        <ele>131</ele>
        <time>2025-03-23T10:27:43Z</time>
      </trkpt>
      <trkpt lat="43.66037" lon="1.40714">
        <ele>131</ele>
        <time>2025-03-23T10:27:44Z</time>
      </trkpt>
      <trkpt lat="43.6604" lon="1.40714">
        <ele>131</ele>
        <time>2025-03-23T10:27:45Z</time>
      </trkpt>
      <trkpt lat="43.66042" lon="1.40713">
        <ele>131</ele>
        <time>2025-03-23T10:27:46Z</time>
      </trkpt>
      <trkpt lat="43.66045" lon="1.40712">
        <ele>131</ele>
        <time>2025-03-23T10:27:47Z</time>
      </trkpt>
      <trkpt lat="43.66048" lon="1.40711">
        <ele>131</ele>
        <time>2025-03-23T10:27:48Z</time>
      </trkpt>
      <trkpt lat="43.6605" lon="1.4071">
        <ele>131</ele>
        <time>2025-03-23T10:27:49Z</time>
      </trkpt>
      <trkpt lat="43.66052" lon="1.40709">
        <ele>131</ele>
        <time>2025-03-23T10:27:50Z</time>
      </trkpt>
      <trkpt lat="43.66056" lon="1.40707">
        <ele>131</ele>
        <time>2025-03-23T10:27:51Z</time>
      </trkpt>
      <trkpt lat="43.66057" lon="1.40707">
        <ele>131</ele>
        <time>2025-03-23T10:27:52Z</time>
      </trkpt>
      <trkpt lat="43.6606" lon="1.40706">
        <ele>131</ele>
        <time>2025-03-23T10:27:53Z</time>
      </trkpt>
      <trkpt lat="43.66064" lon="1.40705">
        <ele>131</ele>
        <time>2025-03-23T10:27:54Z</time>
      </trkpt>
      <trkpt lat="43.66066" lon="1.40705">
        <ele>131</ele>
        <time>2025-03-23T10:27:55Z</time>
      </trkpt>
      <trkpt lat="43.66068" lon="1.40704">
        <ele>130</ele>
        <time>2025-03-23T10:27:56Z</time>
      </trkpt>
      <trkpt lat="43.6607" lon="1.40703">
        <ele>130</ele>
        <time>2025-03-23T10:27:57Z</time>
      </trkpt>
      <trkpt lat="43.66074" lon="1.40702">
        <ele>130</ele>
        <time>2025-03-23T10:27:58Z</time>
      </trkpt>
      <trkpt lat="43.66075" lon="1.40701">
        <ele>130</ele>
        <time>2025-03-23T10:27:59Z</time>
      </trkpt>
      <trkpt lat="43.66078" lon="1.407">
        <ele>130</ele>
        <time>2025-03-23T10:28:00Z</time>
      </trkpt>
      <trkpt lat="43.66082" lon="1.40699">
        <ele>130</ele>
        <time>2025-03-23T10:28:01Z</time>
      </trkpt>
      <trkpt lat="43.66084" lon="1.40699">
        <ele>130</ele>
        <time>2025-03-23T10:28:02Z</time>
      </trkpt>
      <trkpt lat="43.66085" lon="1.40698">
        <ele>130</ele>
        <time>2025-03-23T10:28:03Z</time>
      </trkpt>
      <trkpt lat="43.66088" lon="1.40697">
        <ele>130</ele>
        <time>2025-03-23T10:28:04Z</time>
      </trkpt>
      <trkpt lat="43.6609" lon="1.40696">
        <ele>130</ele>
        <time>2025-03-23T10:28:05Z</time>
      </trkpt>
      <trkpt lat="43.66093" lon="1.40695">
        <ele>130</ele>
        <time>2025-03-23T10:28:06Z</time>
      </trkpt>
      <trkpt lat="43.66096" lon="1.40695">
        <ele>130</ele>
        <time>2025-03-23T10:28:07Z</time>
      </trkpt>
      <trkpt lat="43.66099" lon="1.40695">
        <ele>130</ele>
        <time>2025-03-23T10:28:08Z</time>
      </trkpt>
      <trkpt lat="43.66101" lon="1.40694">
        <ele>130</ele>
        <time>2025-03-23T10:28:09Z</time>
      </trkpt>
      <trkpt lat="43.66103" lon="1.40692">
        <ele>130</ele>
        <time>2025-03-23T10:28:10Z</time>
      </trkpt>
      <trkpt lat="43.66106" lon="1.40692">
        <ele>130</ele>
        <time>2025-03-23T10:28:11Z</time>
      </trkpt>
      <trkpt lat="43.66107" lon="1.40691">
        <ele>130</ele>
        <time>2025-03-23T10:28:12Z</time>
      </trkpt>
      <trkpt lat="43.66109" lon="1.4069">
        <ele>130</ele>
        <time>2025-03-23T10:28:13Z</time>
      </trkpt>
      <trkpt lat="43.66112" lon="1.40689">
        <ele>130</ele>
        <time>2025-03-23T10:28:14Z</time>
      </trkpt>
      <trkpt lat="43.66114" lon="1.40688">
        <ele>130</ele>
        <time>2025-03-23T10:28:15Z</time>
      </trkpt>
      <trkpt lat="43.66116" lon="1.40686">
        <ele>130</ele>
        <time>2025-03-23T10:28:16Z</time>
      </trkpt>
      <trkpt lat="43.66119" lon="1.40685">
        <ele>130</ele>
        <time>2025-03-23T10:28:17Z</time>
      </trkpt>
      <trkpt lat="43.66121" lon="1.40684">
        <ele>130</ele>
        <time>2025-03-23T10:28:18Z</time>
      </trkpt>
      <trkpt lat="43.66123" lon="1.40683">
        <ele>130</ele>
        <time>2025-03-23T10:28:19Z</time>
      </trkpt>
      <trkpt lat="43.66125" lon="1.40683">
        <ele>130</ele>
        <time>2025-03-23T10:28:20Z</time>
      </trkpt>
      <trkpt lat="43.66129" lon="1.40682">
        <ele>130</ele>
        <time>2025-03-23T10:28:21Z</time>
      </trkpt>
      <trkpt lat="43.6613" lon="1.40682">
        <ele>130</ele>
        <time>2025-03-23T10:28:22Z</time>
      </trkpt>
      <trkpt lat="43.66133" lon="1.40682">
        <ele>130</ele>
        <time>2025-03-23T10:28:23Z</time>
      </trkpt>
      <trkpt lat="43.66135" lon="1.40681">
        <ele>130</ele>
        <time>2025-03-23T10:28:24Z</time>
      </trkpt>
      <trkpt lat="43.66137" lon="1.4068">
        <ele>130</ele>
        <time>2025-03-23T10:28:25Z</time>
      </trkpt>
      <trkpt lat="43.6614" lon="1.40679">
        <ele>130</ele>
        <time>2025-03-23T10:28:26Z</time>
      </trkpt>
      <trkpt lat="43.66142" lon="1.40678">
        <ele>130</ele>
        <time>2025-03-23T10:28:27Z</time>
      </trkpt>
      <trkpt lat="43.66145" lon="1.40677">
        <ele>130</ele>
        <time>2025-03-23T10:28:28Z</time>
      </trkpt>
      <trkpt lat="43.66147" lon="1.40676">
        <ele>130</ele>
        <time>2025-03-23T10:28:29Z</time>
      </trkpt>
      <trkpt lat="43.6615" lon="1.40675">
        <ele>130</ele>
        <time>2025-03-23T10:28:30Z</time>
      </trkpt>
      <trkpt lat="43.66153" lon="1.40673">
        <ele>130</ele>
        <time>2025-03-23T10:28:31Z</time>
      </trkpt>
      <trkpt lat="43.66154" lon="1.40672">
        <ele>130</ele>
        <time>2025-03-23T10:28:32Z</time>
      </trkpt>
      <trkpt lat="43.66156" lon="1.40671">
        <ele>130</ele>
        <time>2025-03-23T10:28:33Z</time>
      </trkpt>
      <trkpt lat="43.66159" lon="1.4067">
        <ele>130</ele>
        <time>2025-03-23T10:28:34Z</time>
      </trkpt>
      <trkpt lat="43.66161" lon="1.40669">
        <ele>130</ele>
        <time>2025-03-23T10:28:35Z</time>
      </trkpt>
      <trkpt lat="43.66163" lon="1.40668">
        <ele>130</ele>
        <time>2025-03-23T10:28:36Z</time>
      </trkpt>
      <trkpt lat="43.66166" lon="1.40668">
        <ele>130</ele>
        <time>2025-03-23T10:28:37Z</time>
      </trkpt>
      <trkpt lat="43.66168" lon="1.40666">
        <ele>130</ele>
        <time>2025-03-23T10:28:38Z</time>
      </trkpt>
      <trkpt lat="43.66169" lon="1.40665">
        <ele>130</ele>
        <time>2025-03-23T10:28:39Z</time>
      </trkpt>
      <trkpt lat="43.66173" lon="1.40664">
        <ele>130</ele>
        <time>2025-03-23T10:28:40Z</time>
      </trkpt>
      <trkpt lat="43.66174" lon="1.40664">
        <ele>130</ele>
        <time>2025-03-23T10:28:41Z</time>
      </trkpt>
      <trkpt lat="43.66176" lon="1.40664">
        <ele>130</ele>
        <time>2025-03-23T10:28:42Z</time>
      </trkpt>
      <trkpt lat="43.66178" lon="1.40663">
        <ele>131</ele>
        <time>2025-03-23T10:28:43Z</time>
      </trkpt>
      <trkpt lat="43.6618" lon="1.40662">
        <ele>131</ele>
        <time>2025-03-23T10:28:44Z</time>
      </trkpt>
      <trkpt lat="43.66182" lon="1.40662">
        <ele>131</ele>
        <time>2025-03-23T10:28:45Z</time>
      </trkpt>
      <trkpt lat="43.66184" lon="1.40661">
        <ele>131</ele>
        <time>2025-03-23T10:28:46Z</time>
      </trkpt>
      <trkpt lat="43.66186" lon="1.4066">
        <ele>131</ele>
        <time>2025-03-23T10:28:47Z</time>
      </trkpt>
      <trkpt lat="43.66188" lon="1.40659">
        <ele>131</ele>
        <time>2025-03-23T10:28:48Z</time>
      </trkpt>
      <trkpt lat="43.6619" lon="1.40658">
        <ele>131</ele>
        <time>2025-03-23T10:28:49Z</time>
      </trkpt>
      <trkpt lat="43.66192" lon="1.40657">
        <ele>130</ele>
        <time>2025-03-23T10:28:50Z</time>
      </trkpt>
      <trkpt lat="43.66192" lon="1.40657">
        <ele>130</ele>
        <time>2025-03-23T10:28:51Z</time>
      </trkpt>
      <trkpt lat="43.66196" lon="1.40655">
        <ele>130</ele>
        <time>2025-03-23T10:28:52Z</time>
      </trkpt>
      <trkpt lat="43.66198" lon="1.40655">
        <ele>130</ele>
        <time>2025-03-23T10:28:53Z</time>
      </trkpt>
      <trkpt lat="43.662" lon="1.40654">
        <ele>130</ele>
        <time>2025-03-23T10:28:54Z</time>
      </trkpt>
      <trkpt lat="43.66202" lon="1.40653">
        <ele>130</ele>
        <time>2025-03-23T10:28:55Z</time>
      </trkpt>
      <trkpt lat="43.66204" lon="1.40651">
        <ele>130</ele>
        <time>2025-03-23T10:28:56Z</time>
      </trkpt>
      <trkpt lat="43.66206" lon="1.40651">
        <ele>130</ele>
        <time>2025-03-23T10:28:57Z</time>
      </trkpt>
      <trkpt lat="43.66208" lon="1.4065">
        <ele>130</ele>
        <time>2025-03-23T10:28:58Z</time>
      </trkpt>
      <trkpt lat="43.66211" lon="1.40649">
        <ele>130</ele>
        <time>2025-03-23T10:28:59Z</time>
      </trkpt>
      <trkpt lat="43.66214" lon="1.40648">
        <ele>130</ele>
        <time>2025-03-23T10:29:00Z</time>
      </trkpt>
      <trkpt lat="43.66216" lon="1.40646">
        <ele>130</ele>
        <time>2025-03-23T10:29:01Z</time>
      </trkpt>
      <trkpt lat="43.66219" lon="1.40645">
        <ele>130</ele>
        <time>2025-03-23T10:29:02Z</time>
      </trkpt>
      <trkpt lat="43.66221" lon="1.40643">
        <ele>130</ele>
        <time>2025-03-23T10:29:03Z</time>
      </trkpt>
      <trkpt lat="43.66224" lon="1.40642">
        <ele>130</ele>
        <time>2025-03-23T10:29:04Z</time>
      </trkpt>
      <trkpt lat="43.66226" lon="1.40641">
        <ele>130</ele>
        <time>2025-03-23T10:29:05Z</time>
      </trkpt>
      <trkpt lat="43.6623" lon="1.40639">
        <ele>130</ele>
        <time>2025-03-23T10:29:06Z</time>
      </trkpt>
      <trkpt lat="43.66232" lon="1.40638">
        <ele>130</ele>
        <time>2025-03-23T10:29:07Z</time>
      </trkpt>
      <trkpt lat="43.66234" lon="1.40638">
        <ele>130</ele>
        <time>2025-03-23T10:29:08Z</time>
      </trkpt>
      <trkpt lat="43.66236" lon="1.40636">
        <ele>130</ele>
        <time>2025-03-23T10:29:09Z</time>
      </trkpt>
      <trkpt lat="43.66239" lon="1.40634">
        <ele>130</ele>
        <time>2025-03-23T10:29:10Z</time>
      </trkpt>
      <trkpt lat="43.66242" lon="1.40633">
        <ele>130</ele>
        <time>2025-03-23T10:29:11Z</time>
      </trkpt>
      <trkpt lat="43.66244" lon="1.40632">
        <ele>130</ele>
        <time>2025-03-23T10:29:12Z</time>
      </trkpt>
      <trkpt lat="43.66247" lon="1.40631">
        <ele>130</ele>
        <time>2025-03-23T10:29:13Z</time>
      </trkpt>
      <trkpt lat="43.66249" lon="1.40629">
        <ele>130</ele>
        <time>2025-03-23T10:29:14Z</time>
      </trkpt>
      <trkpt lat="43.66252" lon="1.40628">
        <ele>130</ele>
        <time>2025-03-23T10:29:15Z</time>
      </trkpt>
      <trkpt lat="43.66254" lon="1.40627">
        <ele>130</ele>
        <time>2025-03-23T10:29:16Z</time>
      </trkpt>
      <trkpt lat="43.66258" lon="1.40624">
        <ele>130</ele>
        <time>2025-03-23T10:29:17Z</time>
      </trkpt>
      <trkpt lat="43.66259" lon="1.40623">
        <ele>130</ele>
        <time>2025-03-23T10:29:18Z</time>
      </trkpt>
      <trkpt lat="43.6626" lon="1.40622">
        <ele>130</ele>
        <time>2025-03-23T10:29:19Z</time>
      </trkpt>
      <trkpt lat="43.66262" lon="1.40619">
        <ele>130</ele>
        <time>2025-03-23T10:29:20Z</time>
      </trkpt>
      <trkpt lat="43.66265" lon="1.40618">
        <ele>130</ele>
        <time>2025-03-23T10:29:21Z</time>
      </trkpt>
      <trkpt lat="43.66267" lon="1.40615">
        <ele>130</ele>
        <time>2025-03-23T10:29:22Z</time>
      </trkpt>
      <trkpt lat="43.6627" lon="1.40614">
        <ele>130</ele>
        <time>2025-03-23T10:29:23Z</time>
      </trkpt>
      <trkpt lat="43.66272" lon="1.40611">
        <ele>130</ele>
        <time>2025-03-23T10:29:24Z</time>
      </trkpt>
      <trkpt lat="43.66276" lon="1.40608">
        <ele>130</ele>
        <time>2025-03-23T10:29:25Z</time>
      </trkpt>
      <trkpt lat="43.66277" lon="1.40607">
        <ele>130</ele>
        <time>2025-03-23T10:29:26Z</time>
      </trkpt>
      <trkpt lat="43.6628" lon="1.40605">
        <ele>130</ele>
        <time>2025-03-23T10:29:27Z</time>
      </trkpt>
      <trkpt lat="43.66282" lon="1.40604">
        <ele>130</ele>
        <time>2025-03-23T10:29:28Z</time>
      </trkpt>
      <trkpt lat="43.66284" lon="1.40602">
        <ele>130</ele>
        <time>2025-03-23T10:29:29Z</time>
      </trkpt>
      <trkpt lat="43.66287" lon="1.406">
        <ele>130</ele>
        <time>2025-03-23T10:29:30Z</time>
      </trkpt>
      <trkpt lat="43.66289" lon="1.40598">
        <ele>129</ele>
        <time>2025-03-23T10:29:31Z</time>
      </trkpt>
      <trkpt lat="43.66291" lon="1.40597">
        <ele>129</ele>
        <time>2025-03-23T10:29:32Z</time>
      </trkpt>
      <trkpt lat="43.66293" lon="1.40595">
        <ele>129</ele>
        <time>2025-03-23T10:29:33Z</time>
      </trkpt>
      <trkpt lat="43.66296" lon="1.40593">
        <ele>129</ele>
        <time>2025-03-23T10:29:34Z</time>
      </trkpt>
      <trkpt lat="43.66298" lon="1.40592">
        <ele>129</ele>
        <time>2025-03-23T10:29:35Z</time>
      </trkpt>
      <trkpt lat="43.663" lon="1.4059">
        <ele>129</ele>
        <time>2025-03-23T10:29:36Z</time>
      </trkpt>
      <trkpt lat="43.66303" lon="1.40588">
        <ele>129</ele>
        <time>2025-03-23T10:29:37Z</time>
      </trkpt>
      <trkpt lat="43.66304" lon="1.40587">
        <ele>129</ele>
        <time>2025-03-23T10:29:38Z</time>
      </trkpt>
      <trkpt lat="43.66307" lon="1.40585">
        <ele>129</ele>
        <time>2025-03-23T10:29:39Z</time>
      </trkpt>
      <trkpt lat="43.66308" lon="1.40584">
        <ele>129</ele>
        <time>2025-03-23T10:29:40Z</time>
      </trkpt>
      <trkpt lat="43.6631" lon="1.40582">
        <ele>129</ele>
        <time>2025-03-23T10:29:41Z</time>
      </trkpt>
      <trkpt lat="43.66313" lon="1.4058">
        <ele>130</ele>
        <time>2025-03-23T10:29:42Z</time>
      </trkpt>
      <trkpt lat="43.66315" lon="1.40578">
        <ele>130</ele>
        <time>2025-03-23T10:29:43Z</time>
      </trkpt>
      <trkpt lat="43.66317" lon="1.40575">
        <ele>130</ele>
        <time>2025-03-23T10:29:44Z</time>
      </trkpt>
      <trkpt lat="43.66319" lon="1.40573">
        <ele>130</ele>
        <time>2025-03-23T10:29:45Z</time>
      </trkpt>
      <trkpt lat="43.66321" lon="1.4057">
        <ele>130</ele>
        <time>2025-03-23T10:29:46Z</time>
      </trkpt>
      <trkpt lat="43.66323" lon="1.40567">
        <ele>130</ele>
        <time>2025-03-23T10:29:47Z</time>
      </trkpt>
      <trkpt lat="43.66324" lon="1.40564">
        <ele>130</ele>
        <time>2025-03-23T10:29:48Z</time>
      </trkpt>
      <trkpt lat="43.66326" lon="1.4056">
        <ele>130</ele>
        <time>2025-03-23T10:29:49Z</time>
      </trkpt>
      <trkpt lat="43.66327" lon="1.40559">
        <ele>130</ele>
        <time>2025-03-23T10:29:50Z</time>
      </trkpt>
      <trkpt lat="43.66329" lon="1.40557">
        <ele>130</ele>
        <time>2025-03-23T10:29:51Z</time>
      </trkpt>
      <trkpt lat="43.66332" lon="1.40553">
        <ele>130</ele>
        <time>2025-03-23T10:29:52Z</time>
      </trkpt>
      <trkpt lat="43.66333" lon="1.40552">
        <ele>129</ele>
        <time>2025-03-23T10:29:53Z</time>
      </trkpt>
      <trkpt lat="43.66337" lon="1.40549">
        <ele>129</ele>
        <time>2025-03-23T10:29:54Z</time>
      </trkpt>
      <trkpt lat="43.66338" lon="1.40548">
        <ele>129</ele>
        <time>2025-03-23T10:29:55Z</time>
      </trkpt>
      <trkpt lat="43.66342" lon="1.40545">
        <ele>129</ele>
        <time>2025-03-23T10:29:56Z</time>
      </trkpt>
      <trkpt lat="43.66343" lon="1.40544">
        <ele>129</ele>
        <time>2025-03-23T10:29:57Z</time>
      </trkpt>
      <trkpt lat="43.66345" lon="1.40543">
        <ele>129</ele>
        <time>2025-03-23T10:29:58Z</time>
      </trkpt>
      <trkpt lat="43.66348" lon="1.40541">
        <ele>129</ele>
        <time>2025-03-23T10:29:59Z</time>
      </trkpt>
      <trkpt lat="43.66349" lon="1.4054">
        <ele>129</ele>
        <time>2025-03-23T10:30:00Z</time>
      </trkpt>
      <trkpt lat="43.66351" lon="1.40537">
        <ele>129</ele>
        <time>2025-03-23T10:30:01Z</time>
      </trkpt>
      <trkpt lat="43.66353" lon="1.40535">
        <ele>129</ele>
        <time>2025-03-23T10:30:02Z</time>
      </trkpt>
      <trkpt lat="43.66355" lon="1.40532">
        <ele>129</ele>
        <time>2025-03-23T10:30:03Z</time>
      </trkpt>
      <trkpt lat="43.66357" lon="1.4053">
        <ele>129</ele>
        <time>2025-03-23T10:30:04Z</time>
      </trkpt>
      <trkpt lat="43.66359" lon="1.40528">
        <ele>129</ele>
        <time>2025-03-23T10:30:05Z</time>
      </trkpt>
      <trkpt lat="43.66361" lon="1.40527">
        <ele>129</ele>
        <time>2025-03-23T10:30:06Z</time>
      </trkpt>
      <trkpt lat="43.66363" lon="1.40525">
        <ele>129</ele>
        <time>2025-03-23T10:30:07Z</time>
      </trkpt>
      <trkpt lat="43.66366" lon="1.40523">
        <ele>129</ele>
        <time>2025-03-23T10:30:08Z</time>
      </trkpt>
      <trkpt lat="43.66368" lon="1.40521">
        <ele>130</ele>
        <time>2025-03-23T10:30:09Z</time>
      </trkpt>
      <trkpt lat="43.6637" lon="1.4052">
        <ele>130</ele>
        <time>2025-03-23T10:30:10Z</time>
      </trkpt>
      <trkpt lat="43.66372" lon="1.40519">
        <ele>130</ele>
        <time>2025-03-23T10:30:11Z</time>
      </trkpt>
      <trkpt lat="43.66374" lon="1.40517">
        <ele>130</ele>
        <time>2025-03-23T10:30:12Z</time>
      </trkpt>
      <trkpt lat="43.66376" lon="1.40516">
        <ele>130</ele>
        <time>2025-03-23T10:30:13Z</time>
      </trkpt>
      <trkpt lat="43.66378" lon="1.40514">
        <ele>130</ele>
        <time>2025-03-23T10:30:14Z</time>
      </trkpt>
      <trkpt lat="43.66381" lon="1.40512">
        <ele>130</ele>
        <time>2025-03-23T10:30:15Z</time>
      </trkpt>
      <trkpt lat="43.66382" lon="1.40511">
        <ele>129</ele>
        <time>2025-03-23T10:30:16Z</time>
      </trkpt>
      <trkpt lat="43.66384" lon="1.40509">
        <ele>130</ele>
        <time>2025-03-23T10:30:17Z</time>
      </trkpt>
      <trkpt lat="43.66387" lon="1.40507">
        <ele>130</ele>
        <time>2025-03-23T10:30:18Z</time>
      </trkpt>
      <trkpt lat="43.66389" lon="1.40505">
        <ele>129</ele>
        <time>2025-03-23T10:30:19Z</time>
      </trkpt>
      <trkpt lat="43.66391" lon="1.40503">
        <ele>129</ele>
        <time>2025-03-23T10:30:20Z</time>
      </trkpt>
      <trkpt lat="43.66394" lon="1.40502">
        <ele>129</ele>
        <time>2025-03-23T10:30:21Z</time>
      </trkpt>
      <trkpt lat="43.66396" lon="1.405">
        <ele>128</ele>
        <time>2025-03-23T10:30:22Z</time>
      </trkpt>
      <trkpt lat="43.66399" lon="1.40497">
        <ele>129</ele>
        <time>2025-03-23T10:30:23Z</time>
      </trkpt>
      <trkpt lat="43.664" lon="1.40496">
        <ele>129</ele>
        <time>2025-03-23T10:30:24Z</time>
      </trkpt>
      <trkpt lat="43.66401" lon="1.40495">
        <ele>129</ele>
        <time>2025-03-23T10:30:25Z</time>
      </trkpt>
      <trkpt lat="43.66403" lon="1.40493">
        <ele>129</ele>
        <time>2025-03-23T10:30:26Z</time>
      </trkpt>
      <trkpt lat="43.66405" lon="1.40491">
        <ele>129</ele>
        <time>2025-03-23T10:30:27Z</time>
      </trkpt>
      <trkpt lat="43.66408" lon="1.40489">
        <ele>130</ele>
        <time>2025-03-23T10:30:28Z</time>
      </trkpt>
      <trkpt lat="43.6641" lon="1.40487">
        <ele>130</ele>
        <time>2025-03-23T10:30:29Z</time>
      </trkpt>
      <trkpt lat="43.66412" lon="1.40485">
        <ele>129</ele>
        <time>2025-03-23T10:30:30Z</time>
      </trkpt>
      <trkpt lat="43.66413" lon="1.40483">
        <ele>129</ele>
        <time>2025-03-23T10:30:31Z</time>
      </trkpt>
      <trkpt lat="43.66415" lon="1.40481">
        <ele>129</ele>
        <time>2025-03-23T10:30:32Z</time>
      </trkpt>
      <trkpt lat="43.66418" lon="1.40479">
        <ele>129</ele>
        <time>2025-03-23T10:30:33Z</time>
      </trkpt>
      <trkpt lat="43.66421" lon="1.40476">
        <ele>129</ele>
        <time>2025-03-23T10:30:34Z</time>
      </trkpt>
      <trkpt lat="43.66422" lon="1.40475">
        <ele>129</ele>
        <time>2025-03-23T10:30:35Z</time>
      </trkpt>
      <trkpt lat="43.66425" lon="1.40472">
        <ele>129</ele>
        <time>2025-03-23T10:30:36Z</time>
      </trkpt>
      <trkpt lat="43.66427" lon="1.4047">
        <ele>128</ele>
        <time>2025-03-23T10:30:37Z</time>
      </trkpt>
      <trkpt lat="43.66429" lon="1.40467">
        <ele>128</ele>
        <time>2025-03-23T10:30:38Z</time>
      </trkpt>
      <trkpt lat="43.66431" lon="1.40465">
        <ele>129</ele>
        <time>2025-03-23T10:30:39Z</time>
      </trkpt>
      <trkpt lat="43.66434" lon="1.40463">
        <ele>129</ele>
        <time>2025-03-23T10:30:40Z</time>
      </trkpt>
      <trkpt lat="43.66437" lon="1.40459">
        <ele>129</ele>
        <time>2025-03-23T10:30:41Z</time>
      </trkpt>
      <trkpt lat="43.66438" lon="1.40458">
        <ele>129</ele>
        <time>2025-03-23T10:30:42Z</time>
      </trkpt>
      <trkpt lat="43.66439" lon="1.40456">
        <ele>129</ele>
        <time>2025-03-23T10:30:43Z</time>
      </trkpt>
      <trkpt lat="43.66441" lon="1.40455">
        <ele>129</ele>
        <time>2025-03-23T10:30:44Z</time>
      </trkpt>
      <trkpt lat="43.66445" lon="1.40452">
        <ele>129</ele>
        <time>2025-03-23T10:30:45Z</time>
      </trkpt>
      <trkpt lat="43.66446" lon="1.40451">
        <ele>129</ele>
        <time>2025-03-23T10:30:46Z</time>
      </trkpt>
      <trkpt lat="43.66449" lon="1.40449">
        <ele>129</ele>
        <time>2025-03-23T10:30:47Z</time>
      </trkpt>
      <trkpt lat="43.66451" lon="1.40446">
        <ele>129</ele>
        <time>2025-03-23T10:30:48Z</time>
      </trkpt>
      <trkpt lat="43.66452" lon="1.40444">
        <ele>129</ele>
        <time>2025-03-23T10:30:49Z</time>
      </trkpt>
      <trkpt lat="43.66454" lon="1.40442">
        <ele>129</ele>
        <time>2025-03-23T10:30:50Z</time>
      </trkpt>
      <trkpt lat="43.66456" lon="1.4044">
        <ele>129</ele>
        <time>2025-03-23T10:30:51Z</time>
      </trkpt>
      <trkpt lat="43.66459" lon="1.40438">
        <ele>129</ele>
        <time>2025-03-23T10:30:52Z</time>
      </trkpt>
      <trkpt lat="43.6646" lon="1.40437">
        <ele>129</ele>
        <time>2025-03-23T10:30:53Z</time>
      </trkpt>
      <trkpt lat="43.66462" lon="1.40436">
        <ele>129</ele>
        <time>2025-03-23T10:30:54Z</time>
      </trkpt>
      <trkpt lat="43.66463" lon="1.40435">
        <ele>129</ele>
        <time>2025-03-23T10:30:55Z</time>
      </trkpt>
      <trkpt lat="43.66465" lon="1.40433">
        <ele>129</ele>
        <time>2025-03-23T10:30:56Z</time>
      </trkpt>
      <trkpt lat="43.66467" lon="1.40431">
        <ele>129</ele>
        <time>2025-03-23T10:30:57Z</time>
      </trkpt>
      <trkpt lat="43.66469" lon="1.40429">
        <ele>129</ele>
        <time>2025-03-23T10:30:58Z</time>
      </trkpt>
      <trkpt lat="43.66472" lon="1.40427">
        <ele>129</ele>
        <time>2025-03-23T10:30:59Z</time>
      </trkpt>
      <trkpt lat="43.66474" lon="1.40426">
        <ele>128</ele>
        <time>2025-03-23T10:31:00Z</time>
      </trkpt>
      <trkpt lat="43.66476" lon="1.40424">
        <ele>128</ele>
        <time>2025-03-23T10:31:01Z</time>
      </trkpt>
      <trkpt lat="43.66478" lon="1.40421">
        <ele>128</ele>
        <time>2025-03-23T10:31:02Z</time>
      </trkpt>
      <trkpt lat="43.6648" lon="1.40419">
        <ele>128</ele>
        <time>2025-03-23T10:31:03Z</time>
      </trkpt>
      <trkpt lat="43.66482" lon="1.40417">
        <ele>128</ele>
        <time>2025-03-23T10:31:04Z</time>
      </trkpt>
      <trkpt lat="43.66483" lon="1.40415">
        <ele>128</ele>
        <time>2025-03-23T10:31:05Z</time>
      </trkpt>
      <trkpt lat="43.66485" lon="1.40413">
        <ele>128</ele>
        <time>2025-03-23T10:31:06Z</time>
      </trkpt>
      <trkpt lat="43.66487" lon="1.40412">
        <ele>128</ele>
        <time>2025-03-23T10:31:07Z</time>
      </trkpt>
      <trkpt lat="43.66488" lon="1.4041">
        <ele>128</ele>
        <time>2025-03-23T10:31:08Z</time>
      </trkpt>
      <trkpt lat="43.6649" lon="1.40408">
        <ele>128</ele>
        <time>2025-03-23T10:31:09Z</time>
      </trkpt>
      <trkpt lat="43.66492" lon="1.40406">
        <ele>129</ele>
        <time>2025-03-23T10:31:10Z</time>
      </trkpt>
      <trkpt lat="43.66494" lon="1.40404">
        <ele>129</ele>
        <time>2025-03-23T10:31:11Z</time>
      </trkpt>
      <trkpt lat="43.66497" lon="1.40402">
        <ele>129</ele>
        <time>2025-03-23T10:31:12Z</time>
      </trkpt>
      <trkpt lat="43.66498" lon="1.40401">
        <ele>129</ele>
        <time>2025-03-23T10:31:13Z</time>
      </trkpt>
      <trkpt lat="43.66499" lon="1.40399">
        <ele>129</ele>
        <time>2025-03-23T10:31:14Z</time>
      </trkpt>
      <trkpt lat="43.665" lon="1.40397">
        <ele>129</ele>
        <time>2025-03-23T10:31:15Z</time>
      </trkpt>
      <trkpt lat="43.66501" lon="1.40395">
        <ele>128</ele>
        <time>2025-03-23T10:31:16Z</time>
      </trkpt>
      <trkpt lat="43.66502" lon="1.40392">
        <ele>128</ele>
        <time>2025-03-23T10:31:17Z</time>
      </trkpt>
      <trkpt lat="43.66502" lon="1.40392">
        <ele>128</ele>
        <time>2025-03-23T10:31:18Z</time>
      </trkpt>
      <trkpt lat="43.66505" lon="1.40389">
        <ele>128</ele>
        <time>2025-03-23T10:31:19Z</time>
      </trkpt>
      <trkpt lat="43.66506" lon="1.40386">
        <ele>128</ele>
        <time>2025-03-23T10:31:20Z</time>
      </trkpt>
      <trkpt lat="43.66508" lon="1.40384">
        <ele>128</ele>
        <time>2025-03-23T10:31:21Z</time>
      </trkpt>
      <trkpt lat="43.6651" lon="1.40382">
        <ele>128</ele>
        <time>2025-03-23T10:31:22Z</time>
      </trkpt>
      <trkpt lat="43.66512" lon="1.40381">
        <ele>128</ele>
        <time>2025-03-23T10:31:23Z</time>
      </trkpt>
      <trkpt lat="43.66514" lon="1.40378">
        <ele>128</ele>
        <time>2025-03-23T10:31:24Z</time>
      </trkpt>
      <trkpt lat="43.66517" lon="1.40374">
        <ele>128</ele>
        <time>2025-03-23T10:31:25Z</time>
      </trkpt>
      <trkpt lat="43.66518" lon="1.40373">
        <ele>128</ele>
        <time>2025-03-23T10:31:26Z</time>
      </trkpt>
      <trkpt lat="43.66521" lon="1.40371">
        <ele>128</ele>
        <time>2025-03-23T10:31:27Z</time>
      </trkpt>
      <trkpt lat="43.66525" lon="1.40368">
        <ele>128</ele>
        <time>2025-03-23T10:31:28Z</time>
      </trkpt>
      <trkpt lat="43.66526" lon="1.40367">
        <ele>128</ele>
        <time>2025-03-23T10:31:29Z</time>
      </trkpt>
      <trkpt lat="43.66528" lon="1.40365">
        <ele>128</ele>
        <time>2025-03-23T10:31:30Z</time>
      </trkpt>
      <trkpt lat="43.66531" lon="1.40362">
        <ele>128</ele>
        <time>2025-03-23T10:31:31Z</time>
      </trkpt>
      <trkpt lat="43.66532" lon="1.40361">
        <ele>128</ele>
        <time>2025-03-23T10:31:32Z</time>
      </trkpt>
      <trkpt lat="43.66533" lon="1.40359">
        <ele>128</ele>
        <time>2025-03-23T10:31:33Z</time>
      </trkpt>
      <trkpt lat="43.66535" lon="1.40357">
        <ele>128</ele>
        <time>2025-03-23T10:31:34Z</time>
      </trkpt>
      <trkpt lat="43.66537" lon="1.40354">
        <ele>128</ele>
        <time>2025-03-23T10:31:35Z</time>
      </trkpt>
      <trkpt lat="43.66538" lon="1.40353">
        <ele>128</ele>
        <time>2025-03-23T10:31:36Z</time>
      </trkpt>
      <trkpt lat="43.66539" lon="1.40351">
        <ele>128</ele>
        <time>2025-03-23T10:31:37Z</time>
      </trkpt>
      <trkpt lat="43.66541" lon="1.40348">
        <ele>128</ele>
        <time>2025-03-23T10:31:38Z</time>
      </trkpt>
      <trkpt lat="43.66543" lon="1.40346">
        <ele>128</ele>
        <time>2025-03-23T10:31:39Z</time>
      </trkpt>
      <trkpt lat="43.66545" lon="1.40344">
        <ele>128</ele>
        <time>2025-03-23T10:31:40Z</time>
      </trkpt>
      <trkpt lat="43.66547" lon="1.40341">
        <ele>128</ele>
        <time>2025-03-23T10:31:41Z</time>
      </trkpt>
      <trkpt lat="43.66549" lon="1.4034">
        <ele>128</ele>
        <time>2025-03-23T10:31:42Z</time>
      </trkpt>
      <trkpt lat="43.6655" lon="1.40338">
        <ele>128</ele>
        <time>2025-03-23T10:31:43Z</time>
      </trkpt>
      <trkpt lat="43.66552" lon="1.40336">
        <ele>128</ele>
        <time>2025-03-23T10:31:44Z</time>
      </trkpt>
      <trkpt lat="43.66556" lon="1.40333">
        <ele>128</ele>
        <time>2025-03-23T10:31:45Z</time>
      </trkpt>
      <trkpt lat="43.66557" lon="1.40331">
        <ele>128</ele>
        <time>2025-03-23T10:31:46Z</time>
      </trkpt>
      <trkpt lat="43.66559" lon="1.4033">
        <ele>128</ele>
        <time>2025-03-23T10:31:47Z</time>
      </trkpt>
      <trkpt lat="43.66561" lon="1.40327">
        <ele>128</ele>
        <time>2025-03-23T10:31:48Z</time>
      </trkpt>
      <trkpt lat="43.66563" lon="1.40324">
        <ele>128</ele>
        <time>2025-03-23T10:31:49Z</time>
      </trkpt>
      <trkpt lat="43.66566" lon="1.40321">
        <ele>128</ele>
        <time>2025-03-23T10:31:50Z</time>
      </trkpt>
      <trkpt lat="43.66567" lon="1.4032">
        <ele>128</ele>
        <time>2025-03-23T10:31:51Z</time>
      </trkpt>
      <trkpt lat="43.66571" lon="1.40319">
        <ele>128</ele>
        <time>2025-03-23T10:31:52Z</time>
      </trkpt>
      <trkpt lat="43.66574" lon="1.40317">
        <ele>128</ele>
        <time>2025-03-23T10:31:53Z</time>
      </trkpt>
      <trkpt lat="43.66576" lon="1.40316">
        <ele>128</ele>
        <time>2025-03-23T10:31:54Z</time>
      </trkpt>
      <trkpt lat="43.66579" lon="1.40314">
        <ele>128</ele>
        <time>2025-03-23T10:31:55Z</time>
      </trkpt>
      <trkpt lat="43.66581" lon="1.40312">
        <ele>128</ele>
        <time>2025-03-23T10:31:56Z</time>
      </trkpt>
      <trkpt lat="43.66585" lon="1.40308">
        <ele>128</ele>
        <time>2025-03-23T10:31:57Z</time>
      </trkpt>
      <trkpt lat="43.66586" lon="1.40307">
        <ele>127</ele>
        <time>2025-03-23T10:31:58Z</time>
      </trkpt>
      <trkpt lat="43.66588" lon="1.40304">
        <ele>127</ele>
        <time>2025-03-23T10:31:59Z</time>
      </trkpt>
      <trkpt lat="43.66591" lon="1.40299">
        <ele>127</ele>
        <time>2025-03-23T10:32:00Z</time>
      </trkpt>
      <trkpt lat="43.66592" lon="1.40297">
        <ele>127</ele>
        <time>2025-03-23T10:32:01Z</time>
      </trkpt>
      <trkpt lat="43.66593" lon="1.40295">
        <ele>127</ele>
        <time>2025-03-23T10:32:02Z</time>
      </trkpt>
      <trkpt lat="43.66596" lon="1.40291">
        <ele>127</ele>
        <time>2025-03-23T10:32:03Z</time>
      </trkpt>
      <trkpt lat="43.66597" lon="1.4029">
        <ele>127</ele>
        <time>2025-03-23T10:32:04Z</time>
      </trkpt>
      <trkpt lat="43.66599" lon="1.40288">
        <ele>127</ele>
        <time>2025-03-23T10:32:05Z</time>
      </trkpt>
      <trkpt lat="43.666" lon="1.40285">
        <ele>127</ele>
        <time>2025-03-23T10:32:06Z</time>
      </trkpt>
      <trkpt lat="43.66604" lon="1.40281">
        <ele>127</ele>
        <time>2025-03-23T10:32:07Z</time>
      </trkpt>
      <trkpt lat="43.66605" lon="1.40279">
        <ele>128</ele>
        <time>2025-03-23T10:32:08Z</time>
      </trkpt>
      <trkpt lat="43.66608" lon="1.40276">
        <ele>128</ele>
        <time>2025-03-23T10:32:09Z</time>
      </trkpt>
      <trkpt lat="43.66609" lon="1.40274">
        <ele>128</ele>
        <time>2025-03-23T10:32:10Z</time>
      </trkpt>
      <trkpt lat="43.66611" lon="1.40271">
        <ele>128</ele>
        <time>2025-03-23T10:32:11Z</time>
      </trkpt>
      <trkpt lat="43.66613" lon="1.40268">
        <ele>128</ele>
        <time>2025-03-23T10:32:12Z</time>
      </trkpt>
      <trkpt lat="43.66615" lon="1.40266">
        <ele>128</ele>
        <time>2025-03-23T10:32:13Z</time>
      </trkpt>
      <trkpt lat="43.66617" lon="1.40264">
        <ele>128</ele>
        <time>2025-03-23T10:32:14Z</time>
      </trkpt>
      <trkpt lat="43.66619" lon="1.40262">
        <ele>128</ele>
        <time>2025-03-23T10:32:15Z</time>
      </trkpt>
      <trkpt lat="43.6662" lon="1.40259">
        <ele>128</ele>
        <time>2025-03-23T10:32:16Z</time>
      </trkpt>
      <trkpt lat="43.66622" lon="1.40256">
        <ele>128</ele>
        <time>2025-03-23T10:32:17Z</time>
      </trkpt>
      <trkpt lat="43.66624" lon="1.40253">
        <ele>128</ele>
        <time>2025-03-23T10:32:18Z</time>
      </trkpt>
      <trkpt lat="43.66625" lon="1.40251">
        <ele>128</ele>
        <time>2025-03-23T10:32:19Z</time>
      </trkpt>
      <trkpt lat="43.66627" lon="1.40248">
        <ele>128</ele>
        <time>2025-03-23T10:32:20Z</time>
      </trkpt>
      <trkpt lat="43.66629" lon="1.40245">
        <ele>128</ele>
        <time>2025-03-23T10:32:21Z</time>
      </trkpt>
      <trkpt lat="43.66632" lon="1.4024">
        <ele>128</ele>
        <time>2025-03-23T10:32:22Z</time>
      </trkpt>
      <trkpt lat="43.66633" lon="1.40239">
        <ele>128</ele>
        <time>2025-03-23T10:32:23Z</time>
      </trkpt>
      <trkpt lat="43.66635" lon="1.40236">
        <ele>128</ele>
        <time>2025-03-23T10:32:24Z</time>
      </trkpt>
      <trkpt lat="43.66637" lon="1.40234">
        <ele>128</ele>
        <time>2025-03-23T10:32:25Z</time>
      </trkpt>
      <trkpt lat="43.66638" lon="1.40232">
        <ele>128</ele>
        <time>2025-03-23T10:32:26Z</time>
      </trkpt>
      <trkpt lat="43.6664" lon="1.40229">
        <ele>128</ele>
        <time>2025-03-23T10:32:27Z</time>
      </trkpt>
      <trkpt lat="43.66642" lon="1.40225">
        <ele>128</ele>
        <time>2025-03-23T10:32:28Z</time>
      </trkpt>
      <trkpt lat="43.66643" lon="1.40223">
        <ele>128</ele>
        <time>2025-03-23T10:32:29Z</time>
      </trkpt>
      <trkpt lat="43.66645" lon="1.40221">
        <ele>128</ele>
        <time>2025-03-23T10:32:30Z</time>
      </trkpt>
      <trkpt lat="43.66646" lon="1.40218">
        <ele>128</ele>
        <time>2025-03-23T10:32:31Z</time>
      </trkpt>
      <trkpt lat="43.66648" lon="1.40214">
        <ele>128</ele>
        <time>2025-03-23T10:32:32Z</time>
      </trkpt>
      <trkpt lat="43.66649" lon="1.40211">
        <ele>128</ele>
        <time>2025-03-23T10:32:33Z</time>
      </trkpt>
      <trkpt lat="43.6665" lon="1.40207">
        <ele>128</ele>
        <time>2025-03-23T10:32:34Z</time>
      </trkpt>
      <trkpt lat="43.66652" lon="1.40204">
        <ele>128</ele>
        <time>2025-03-23T10:32:35Z</time>
      </trkpt>
      <trkpt lat="43.66653" lon="1.40201">
        <ele>128</ele>
        <time>2025-03-23T10:32:36Z</time>
      </trkpt>
      <trkpt lat="43.66655" lon="1.40197">
        <ele>128</ele>
        <time>2025-03-23T10:32:37Z</time>
      </trkpt>
      <trkpt lat="43.66656" lon="1.40196">
        <ele>128</ele>
        <time>2025-03-23T10:32:38Z</time>
      </trkpt>
      <trkpt lat="43.66657" lon="1.40193">
        <ele>128</ele>
        <time>2025-03-23T10:32:39Z</time>
      </trkpt>
      <trkpt lat="43.66658" lon="1.4019">
        <ele>128</ele>
        <time>2025-03-23T10:32:40Z</time>
      </trkpt>
      <trkpt lat="43.6666" lon="1.40186">
        <ele>128</ele>
        <time>2025-03-23T10:32:41Z</time>
      </trkpt>
      <trkpt lat="43.66661" lon="1.40185">
        <ele>128</ele>
        <time>2025-03-23T10:32:42Z</time>
      </trkpt>
      <trkpt lat="43.66663" lon="1.40182">
        <ele>128</ele>
        <time>2025-03-23T10:32:43Z</time>
      </trkpt>
      <trkpt lat="43.66665" lon="1.40179">
        <ele>128</ele>
        <time>2025-03-23T10:32:44Z</time>
      </trkpt>
      <trkpt lat="43.66667" lon="1.40177">
        <ele>128</ele>
        <time>2025-03-23T10:32:45Z</time>
      </trkpt>
      <trkpt lat="43.66668" lon="1.40174">
        <ele>128</ele>
        <time>2025-03-23T10:32:46Z</time>
      </trkpt>
      <trkpt lat="43.66671" lon="1.4017">
        <ele>128</ele>
        <time>2025-03-23T10:32:47Z</time>
      </trkpt>
      <trkpt lat="43.66671" lon="1.40169">
        <ele>128</ele>
        <time>2025-03-23T10:32:48Z</time>
      </trkpt>
      <trkpt lat="43.66673" lon="1.40166">
        <ele>128</ele>
        <time>2025-03-23T10:32:49Z</time>
      </trkpt>
      <trkpt lat="43.66675" lon="1.40163">
        <ele>128</ele>
        <time>2025-03-23T10:32:50Z</time>
      </trkpt>
      <trkpt lat="43.66676" lon="1.40161">
        <ele>128</ele>
        <time>2025-03-23T10:32:51Z</time>
      </trkpt>
      <trkpt lat="43.66677" lon="1.40158">
        <ele>128</ele>
        <time>2025-03-23T10:32:52Z</time>
      </trkpt>
      <trkpt lat="43.66679" lon="1.40155">
        <ele>128</ele>
        <time>2025-03-23T10:32:53Z</time>
      </trkpt>
      <trkpt lat="43.66681" lon="1.40152">
        <ele>128</ele>
        <time>2025-03-23T10:32:54Z</time>
      </trkpt>
      <trkpt lat="43.66683" lon="1.40149">
        <ele>128</ele>
        <time>2025-03-23T10:32:55Z</time>
      </trkpt>
      <trkpt lat="43.66685" lon="1.40147">
        <ele>128</ele>
        <time>2025-03-23T10:32:56Z</time>
      </trkpt>
      <trkpt lat="43.66687" lon="1.40145">
        <ele>128</ele>
        <time>2025-03-23T10:32:57Z</time>
      </trkpt>
      <trkpt lat="43.66689" lon="1.40143">
        <ele>128</ele>
        <time>2025-03-23T10:32:58Z</time>
      </trkpt>
      <trkpt lat="43.66691" lon="1.40142">
        <ele>128</ele>
        <time>2025-03-23T10:32:59Z</time>
      </trkpt>
      <trkpt lat="43.66694" lon="1.40138">
        <ele>128</ele>
        <time>2025-03-23T10:33:00Z</time>
      </trkpt>
      <trkpt lat="43.66695" lon="1.40137">
        <ele>128</ele>
        <time>2025-03-23T10:33:01Z</time>
      </trkpt>
      <trkpt lat="43.66697" lon="1.40134">
        <ele>128</ele>
        <time>2025-03-23T10:33:02Z</time>
      </trkpt>
      <trkpt lat="43.667" lon="1.4013">
        <ele>128</ele>
        <time>2025-03-23T10:33:03Z</time>
      </trkpt>
      <trkpt lat="43.667" lon="1.40129">
        <ele>128</ele>
        <time>2025-03-23T10:33:04Z</time>
      </trkpt>
      <trkpt lat="43.66702" lon="1.40125">
        <ele>128</ele>
        <time>2025-03-23T10:33:05Z</time>
      </trkpt>
      <trkpt lat="43.66704" lon="1.40121">
        <ele>128</ele>
        <time>2025-03-23T10:33:06Z</time>
      </trkpt>
      <trkpt lat="43.66705" lon="1.4012">
        <ele>128</ele>
        <time>2025-03-23T10:33:07Z</time>
      </trkpt>
      <trkpt lat="43.66706" lon="1.40116">
        <ele>128</ele>
        <time>2025-03-23T10:33:08Z</time>
      </trkpt>
      <trkpt lat="43.66707" lon="1.40113">
        <ele>128</ele>
        <time>2025-03-23T10:33:09Z</time>
      </trkpt>
      <trkpt lat="43.66708" lon="1.4011">
        <ele>128</ele>
        <time>2025-03-23T10:33:10Z</time>
      </trkpt>
      <trkpt lat="43.6671" lon="1.40107">
        <ele>128</ele>
        <time>2025-03-23T10:33:11Z</time>
      </trkpt>
      <trkpt lat="43.66711" lon="1.40104">
        <ele>128</ele>
        <time>2025-03-23T10:33:12Z</time>
      </trkpt>
      <trkpt lat="43.66712" lon="1.40101">
        <ele>128</ele>
        <time>2025-03-23T10:33:13Z</time>
      </trkpt>
      <trkpt lat="43.66714" lon="1.40099">
        <ele>128</ele>
        <time>2025-03-23T10:33:14Z</time>
      </trkpt>
      <trkpt lat="43.66716" lon="1.40096">
        <ele>128</ele>
        <time>2025-03-23T10:33:15Z</time>
      </trkpt>
      <trkpt lat="43.66717" lon="1.40093">
        <ele>128</ele>
        <time>2025-03-23T10:33:16Z</time>
      </trkpt>
      <trkpt lat="43.66719" lon="1.4009">
        <ele>128</ele>
        <time>2025-03-23T10:33:17Z</time>
      </trkpt>
      <trkpt lat="43.66721" lon="1.40087">
        <ele>128</ele>
        <time>2025-03-23T10:33:18Z</time>
      </trkpt>
      <trkpt lat="43.66722" lon="1.40084">
        <ele>128</ele>
        <time>2025-03-23T10:33:19Z</time>
      </trkpt>
      <trkpt lat="43.66723" lon="1.40081">
        <ele>128</ele>
        <time>2025-03-23T10:33:20Z</time>
      </trkpt>
      <trkpt lat="43.66725" lon="1.40077">
        <ele>128</ele>
        <time>2025-03-23T10:33:21Z</time>
      </trkpt>
      <trkpt lat="43.66726" lon="1.40074">
        <ele>128</ele>
        <time>2025-03-23T10:33:22Z</time>
      </trkpt>
      <trkpt lat="43.66728" lon="1.40071">
        <ele>128</ele>
        <time>2025-03-23T10:33:23Z</time>
      </trkpt>
      <trkpt lat="43.66729" lon="1.40068">
        <ele>128</ele>
        <time>2025-03-23T10:33:24Z</time>
      </trkpt>
      <trkpt lat="43.66731" lon="1.40063">
        <ele>128</ele>
        <time>2025-03-23T10:33:25Z</time>
      </trkpt>
      <trkpt lat="43.66732" lon="1.40061">
        <ele>128</ele>
        <time>2025-03-23T10:33:26Z</time>
      </trkpt>
      <trkpt lat="43.66733" lon="1.40058">
        <ele>128</ele>
        <time>2025-03-23T10:33:27Z</time>
      </trkpt>
      <trkpt lat="43.66735" lon="1.40054">
        <ele>128</ele>
        <time>2025-03-23T10:33:28Z</time>
      </trkpt>
      <trkpt lat="43.66736" lon="1.40051">
        <ele>128</ele>
        <time>2025-03-23T10:33:29Z</time>
      </trkpt>
      <trkpt lat="43.66737" lon="1.40048">
        <ele>128</ele>
        <time>2025-03-23T10:33:30Z</time>
      </trkpt>
      <trkpt lat="43.66739" lon="1.40046">
        <ele>128</ele>
        <time>2025-03-23T10:33:31Z</time>
      </trkpt>
      <trkpt lat="43.66741" lon="1.40042">
        <ele>128</ele>
        <time>2025-03-23T10:33:32Z</time>
      </trkpt>
      <trkpt lat="43.66742" lon="1.40041">
        <ele>128</ele>
        <time>2025-03-23T10:33:33Z</time>
      </trkpt>
      <trkpt lat="43.66743" lon="1.40039">
        <ele>128</ele>
        <time>2025-03-23T10:33:34Z</time>
      </trkpt>
      <trkpt lat="43.66744" lon="1.40036">
        <ele>128</ele>
        <time>2025-03-23T10:33:35Z</time>
      </trkpt>
      <trkpt lat="43.66745" lon="1.40033">
        <ele>128</ele>
        <time>2025-03-23T10:33:36Z</time>
      </trkpt>
      <trkpt lat="43.66746" lon="1.4003">
        <ele>128</ele>
        <time>2025-03-23T10:33:37Z</time>
      </trkpt>
      <trkpt lat="43.66747" lon="1.40027">
        <ele>128</ele>
        <time>2025-03-23T10:33:38Z</time>
      </trkpt>
      <trkpt lat="43.66748" lon="1.40022">
        <ele>128</ele>
        <time>2025-03-23T10:33:39Z</time>
      </trkpt>
      <trkpt lat="43.66749" lon="1.40021">
        <ele>129</ele>
        <time>2025-03-23T10:33:40Z</time>
      </trkpt>
      <trkpt lat="43.6675" lon="1.40018">
        <ele>129</ele>
        <time>2025-03-23T10:33:41Z</time>
      </trkpt>
      <trkpt lat="43.66751" lon="1.40015">
        <ele>129</ele>
        <time>2025-03-23T10:33:42Z</time>
      </trkpt>
      <trkpt lat="43.66751" lon="1.40012">
        <ele>129</ele>
        <time>2025-03-23T10:33:43Z</time>
      </trkpt>
      <trkpt lat="43.66754" lon="1.40006">
        <ele>129</ele>
        <time>2025-03-23T10:33:45Z</time>
      </trkpt>
      <trkpt lat="43.66755" lon="1.40004">
        <ele>129</ele>
        <time>2025-03-23T10:33:46Z</time>
      </trkpt>
      <trkpt lat="43.66756" lon="1.40001">
        <ele>129</ele>
        <time>2025-03-23T10:33:47Z</time>
      </trkpt>
      <trkpt lat="43.66756" lon="1.40001">
        <ele>129</ele>
        <time>2025-03-23T10:33:48Z</time>
      </trkpt>
      <trkpt lat="43.66756" lon="1.39997">
        <ele>129</ele>
        <time>2025-03-23T10:33:49Z</time>
      </trkpt>
      <trkpt lat="43.66756" lon="1.39997">
        <ele>128</ele>
        <time>2025-03-23T10:33:50Z</time>
      </trkpt>
      <trkpt lat="43.66755" lon="1.39993">
        <ele>128</ele>
        <time>2025-03-23T10:33:51Z</time>
      </trkpt>
      <trkpt lat="43.66755" lon="1.39993">
        <ele>128</ele>
        <time>2025-03-23T10:33:52Z</time>
      </trkpt>
      <trkpt lat="43.66755" lon="1.39987">
        <ele>128</ele>
        <time>2025-03-23T10:33:53Z</time>
      </trkpt>
      <trkpt lat="43.66756" lon="1.39984">
        <ele>128</ele>
        <time>2025-03-23T10:33:54Z</time>
      </trkpt>
      <trkpt lat="43.66757" lon="1.39981">
        <ele>129</ele>
        <time>2025-03-23T10:33:55Z</time>
      </trkpt>
      <trkpt lat="43.66758" lon="1.39978">
        <ele>129</ele>
        <time>2025-03-23T10:33:56Z</time>
      </trkpt>
      <trkpt lat="43.6676" lon="1.39975">
        <ele>129</ele>
        <time>2025-03-23T10:33:57Z</time>
      </trkpt>
      <trkpt lat="43.66761" lon="1.39972">
        <ele>129</ele>
        <time>2025-03-23T10:33:58Z</time>
      </trkpt>
      <trkpt lat="43.66761" lon="1.39969">
        <ele>128</ele>
        <time>2025-03-23T10:33:59Z</time>
      </trkpt>
      <trkpt lat="43.66761" lon="1.39965">
        <ele>128</ele>
        <time>2025-03-23T10:34:00Z</time>
      </trkpt>
      <trkpt lat="43.66761" lon="1.39962">
        <ele>129</ele>
        <time>2025-03-23T10:34:01Z</time>
      </trkpt>
      <trkpt lat="43.66762" lon="1.39959">
        <ele>129</ele>
        <time>2025-03-23T10:34:02Z</time>
      </trkpt>
      <trkpt lat="43.66762" lon="1.39959">
        <ele>129</ele>
        <time>2025-03-23T10:34:03Z</time>
      </trkpt>
      <trkpt lat="43.66763" lon="1.39952">
        <ele>128</ele>
        <time>2025-03-23T10:34:04Z</time>
      </trkpt>
      <trkpt lat="43.66764" lon="1.39948">
        <ele>128</ele>
        <time>2025-03-23T10:34:05Z</time>
      </trkpt>
      <trkpt lat="43.66766" lon="1.39945">
        <ele>128</ele>
        <time>2025-03-23T10:34:06Z</time>
      </trkpt>
      <trkpt lat="43.66766" lon="1.39941">
        <ele>128</ele>
        <time>2025-03-23T10:34:07Z</time>
      </trkpt>
      <trkpt lat="43.66767" lon="1.39938">
        <ele>128</ele>
        <time>2025-03-23T10:34:08Z</time>
      </trkpt>
      <trkpt lat="43.66767" lon="1.39934">
        <ele>128</ele>
        <time>2025-03-23T10:34:09Z</time>
      </trkpt>
      <trkpt lat="43.66767" lon="1.3993">
        <ele>128</ele>
        <time>2025-03-23T10:34:10Z</time>
      </trkpt>
      <trkpt lat="43.66767" lon="1.39926">
        <ele>128</ele>
        <time>2025-03-23T10:34:11Z</time>
      </trkpt>
      <trkpt lat="43.66767" lon="1.39923">
        <ele>128</ele>
        <time>2025-03-23T10:34:12Z</time>
      </trkpt>
      <trkpt lat="43.66768" lon="1.39919">
        <ele>128</ele>
        <time>2025-03-23T10:34:13Z</time>
      </trkpt>
      <trkpt lat="43.66768" lon="1.39914">
        <ele>128</ele>
        <time>2025-03-23T10:34:14Z</time>
      </trkpt>
      <trkpt lat="43.66768" lon="1.39912">
        <ele>128</ele>
        <time>2025-03-23T10:34:15Z</time>
      </trkpt>
      <trkpt lat="43.66769" lon="1.39908">
        <ele>128</ele>
        <time>2025-03-23T10:34:16Z</time>
      </trkpt>
      <trkpt lat="43.6677" lon="1.39904">
        <ele>128</ele>
        <time>2025-03-23T10:34:17Z</time>
      </trkpt>
      <trkpt lat="43.6677" lon="1.399">
        <ele>128</ele>
        <time>2025-03-23T10:34:18Z</time>
      </trkpt>
      <trkpt lat="43.66771" lon="1.39897">
        <ele>128</ele>
        <time>2025-03-23T10:34:19Z</time>
      </trkpt>
      <trkpt lat="43.66772" lon="1.39891">
        <ele>128</ele>
        <time>2025-03-23T10:34:20Z</time>
      </trkpt>
      <trkpt lat="43.66772" lon="1.39889">
        <ele>128</ele>
        <time>2025-03-23T10:34:21Z</time>
      </trkpt>
      <trkpt lat="43.66772" lon="1.39884">
        <ele>128</ele>
        <time>2025-03-23T10:34:22Z</time>
      </trkpt>
      <trkpt lat="43.66772" lon="1.39882">
        <ele>128</ele>
        <time>2025-03-23T10:34:23Z</time>
      </trkpt>
      <trkpt lat="43.66773" lon="1.39879">
        <ele>128</ele>
        <time>2025-03-23T10:34:24Z</time>
      </trkpt>
      <trkpt lat="43.66773" lon="1.39876">
        <ele>128</ele>
        <time>2025-03-23T10:34:25Z</time>
      </trkpt>
      <trkpt lat="43.66773" lon="1.39872">
        <ele>128</ele>
        <time>2025-03-23T10:34:26Z</time>
      </trkpt>
      <trkpt lat="43.66773" lon="1.39867">
        <ele>128</ele>
        <time>2025-03-23T10:34:27Z</time>
      </trkpt>
      <trkpt lat="43.66773" lon="1.39865">
        <ele>128</ele>
        <time>2025-03-23T10:34:28Z</time>
      </trkpt>
      <trkpt lat="43.66774" lon="1.39861">
        <ele>128</ele>
        <time>2025-03-23T10:34:29Z</time>
      </trkpt>
      <trkpt lat="43.66774" lon="1.39858">
        <ele>128</ele>
        <time>2025-03-23T10:34:30Z</time>
      </trkpt>
      <trkpt lat="43.66775" lon="1.39854">
        <ele>128</ele>
        <time>2025-03-23T10:34:31Z</time>
      </trkpt>
      <trkpt lat="43.66775" lon="1.39851">
        <ele>128</ele>
        <time>2025-03-23T10:34:32Z</time>
      </trkpt>
      <trkpt lat="43.66775" lon="1.39848">
        <ele>128</ele>
        <time>2025-03-23T10:34:33Z</time>
      </trkpt>
      <trkpt lat="43.66775" lon="1.39843">
        <ele>128</ele>
        <time>2025-03-23T10:34:34Z</time>
      </trkpt>
      <trkpt lat="43.66775" lon="1.39841">
        <ele>128</ele>
        <time>2025-03-23T10:34:35Z</time>
      </trkpt>
      <trkpt lat="43.66775" lon="1.39838">
        <ele>128</ele>
        <time>2025-03-23T10:34:36Z</time>
      </trkpt>
      <trkpt lat="43.66776" lon="1.39835">
        <ele>128</ele>
        <time>2025-03-23T10:34:37Z</time>
      </trkpt>
      <trkpt lat="43.66776" lon="1.39829">
        <ele>128</ele>
        <time>2025-03-23T10:34:38Z</time>
      </trkpt>
      <trkpt lat="43.66776" lon="1.39827">
        <ele>128</ele>
        <time>2025-03-23T10:34:39Z</time>
      </trkpt>
      <trkpt lat="43.66776" lon="1.39824">
        <ele>128</ele>
        <time>2025-03-23T10:34:40Z</time>
      </trkpt>
      <trkpt lat="43.66776" lon="1.3982">
        <ele>128</ele>
        <time>2025-03-23T10:34:41Z</time>
      </trkpt>
      <trkpt lat="43.66776" lon="1.39817">
        <ele>128</ele>
        <time>2025-03-23T10:34:42Z</time>
      </trkpt>
      <trkpt lat="43.66776" lon="1.39813">
        <ele>128</ele>
        <time>2025-03-23T10:34:43Z</time>
      </trkpt>
      <trkpt lat="43.66777" lon="1.3981">
        <ele>128</ele>
        <time>2025-03-23T10:34:44Z</time>
      </trkpt>
      <trkpt lat="43.66777" lon="1.39806">
        <ele>128</ele>
        <time>2025-03-23T10:34:45Z</time>
      </trkpt>
      <trkpt lat="43.66777" lon="1.39803">
        <ele>128</ele>
        <time>2025-03-23T10:34:46Z</time>
      </trkpt>
      <trkpt lat="43.66777" lon="1.398">
        <ele>128</ele>
        <time>2025-03-23T10:34:47Z</time>
      </trkpt>
      <trkpt lat="43.66778" lon="1.39796">
        <ele>128</ele>
        <time>2025-03-23T10:34:48Z</time>
      </trkpt>
      <trkpt lat="43.66778" lon="1.39793">
        <ele>128</ele>
        <time>2025-03-23T10:34:49Z</time>
      </trkpt>
      <trkpt lat="43.66778" lon="1.3979">
        <ele>128</ele>
        <time>2025-03-23T10:34:50Z</time>
      </trkpt>
      <trkpt lat="43.66779" lon="1.39787">
        <ele>128</ele>
        <time>2025-03-23T10:34:51Z</time>
      </trkpt>
      <trkpt lat="43.66779" lon="1.39781">
        <ele>128</ele>
        <time>2025-03-23T10:34:52Z</time>
      </trkpt>
      <trkpt lat="43.66779" lon="1.3978">
        <ele>128</ele>
        <time>2025-03-23T10:34:53Z</time>
      </trkpt>
      <trkpt lat="43.66779" lon="1.39776">
        <ele>128</ele>
        <time>2025-03-23T10:34:54Z</time>
      </trkpt>
      <trkpt lat="43.6678" lon="1.39772">
        <ele>128</ele>
        <time>2025-03-23T10:34:55Z</time>
      </trkpt>
      <trkpt lat="43.66779" lon="1.39768">
        <ele>128</ele>
        <time>2025-03-23T10:34:56Z</time>
      </trkpt>
      <trkpt lat="43.6678" lon="1.39764">
        <ele>128</ele>
        <time>2025-03-23T10:34:57Z</time>
      </trkpt>
      <trkpt lat="43.6678" lon="1.39761">
        <ele>128</ele>
        <time>2025-03-23T10:34:58Z</time>
      </trkpt>
      <trkpt lat="43.66781" lon="1.39755">
        <ele>128</ele>
        <time>2025-03-23T10:34:59Z</time>
      </trkpt>
      <trkpt lat="43.66781" lon="1.39753">
        <ele>128</ele>
        <time>2025-03-23T10:35:00Z</time>
      </trkpt>
      <trkpt lat="43.66781" lon="1.39751">
        <ele>128</ele>
        <time>2025-03-23T10:35:01Z</time>
      </trkpt>
      <trkpt lat="43.66781" lon="1.39747">
        <ele>128</ele>
        <time>2025-03-23T10:35:02Z</time>
      </trkpt>
      <trkpt lat="43.66781" lon="1.39744">
        <ele>128</ele>
        <time>2025-03-23T10:35:03Z</time>
      </trkpt>
      <trkpt lat="43.66781" lon="1.3974">
        <ele>128</ele>
        <time>2025-03-23T10:35:04Z</time>
      </trkpt>
      <trkpt lat="43.66781" lon="1.39737">
        <ele>128</ele>
        <time>2025-03-23T10:35:05Z</time>
      </trkpt>
      <trkpt lat="43.66781" lon="1.39733">
        <ele>128</ele>
        <time>2025-03-23T10:35:06Z</time>
      </trkpt>
      <trkpt lat="43.66781" lon="1.3973">
        <ele>128</ele>
        <time>2025-03-23T10:35:07Z</time>
      </trkpt>
      <trkpt lat="43.6678" lon="1.39726">
        <ele>128</ele>
        <time>2025-03-23T10:35:08Z</time>
      </trkpt>
      <trkpt lat="43.6678" lon="1.39723">
        <ele>128</ele>
        <time>2025-03-23T10:35:09Z</time>
      </trkpt>
      <trkpt lat="43.66781" lon="1.39719">
        <ele>128</ele>
        <time>2025-03-23T10:35:10Z</time>
      </trkpt>
      <trkpt lat="43.66781" lon="1.39714">
        <ele>128</ele>
        <time>2025-03-23T10:35:11Z</time>
      </trkpt>
      <trkpt lat="43.66781" lon="1.39712">
        <ele>128</ele>
        <time>2025-03-23T10:35:12Z</time>
      </trkpt>
      <trkpt lat="43.66782" lon="1.39708">
        <ele>128</ele>
        <time>2025-03-23T10:35:13Z</time>
      </trkpt>
      <trkpt lat="43.66783" lon="1.39703">
        <ele>128</ele>
        <time>2025-03-23T10:35:14Z</time>
      </trkpt>
      <trkpt lat="43.66783" lon="1.39701">
        <ele>128</ele>
        <time>2025-03-23T10:35:15Z</time>
      </trkpt>
      <trkpt lat="43.66783" lon="1.39698">
        <ele>128</ele>
        <time>2025-03-23T10:35:16Z</time>
      </trkpt>
      <trkpt lat="43.66783" lon="1.39695">
        <ele>128</ele>
        <time>2025-03-23T10:35:17Z</time>
      </trkpt>
      <trkpt lat="43.66783" lon="1.39692">
        <ele>128</ele>
        <time>2025-03-23T10:35:18Z</time>
      </trkpt>
      <trkpt lat="43.66783" lon="1.39688">
        <ele>128</ele>
        <time>2025-03-23T10:35:19Z</time>
      </trkpt>
      <trkpt lat="43.66783" lon="1.39685">
        <ele>128</ele>
        <time>2025-03-23T10:35:20Z</time>
      </trkpt>
      <trkpt lat="43.66784" lon="1.39681">
        <ele>128</ele>
        <time>2025-03-23T10:35:21Z</time>
      </trkpt>
      <trkpt lat="43.66784" lon="1.39677">
        <ele>128</ele>
        <time>2025-03-23T10:35:22Z</time>
      </trkpt>
      <trkpt lat="43.66785" lon="1.39673">
        <ele>128</ele>
        <time>2025-03-23T10:35:23Z</time>
      </trkpt>
      <trkpt lat="43.66785" lon="1.39672">
        <ele>128</ele>
        <time>2025-03-23T10:35:24Z</time>
      </trkpt>
      <trkpt lat="43.66785" lon="1.39668">
        <ele>128</ele>
        <time>2025-03-23T10:35:25Z</time>
      </trkpt>
      <trkpt lat="43.66785" lon="1.39665">
        <ele>128</ele>
        <time>2025-03-23T10:35:26Z</time>
      </trkpt>
      <trkpt lat="43.66786" lon="1.39661">
        <ele>128</ele>
        <time>2025-03-23T10:35:27Z</time>
      </trkpt>
      <trkpt lat="43.66786" lon="1.39658">
        <ele>128</ele>
        <time>2025-03-23T10:35:28Z</time>
      </trkpt>
      <trkpt lat="43.66786" lon="1.39655">
        <ele>128</ele>
        <time>2025-03-23T10:35:29Z</time>
      </trkpt>
      <trkpt lat="43.66786" lon="1.3965">
        <ele>128</ele>
        <time>2025-03-23T10:35:30Z</time>
      </trkpt>
      <trkpt lat="43.66786" lon="1.39648">
        <ele>128</ele>
        <time>2025-03-23T10:35:31Z</time>
      </trkpt>
      <trkpt lat="43.66786" lon="1.39645">
        <ele>128</ele>
        <time>2025-03-23T10:35:32Z</time>
      </trkpt>
      <trkpt lat="43.66786" lon="1.39641">
        <ele>128</ele>
        <time>2025-03-23T10:35:33Z</time>
      </trkpt>
      <trkpt lat="43.66786" lon="1.39637">
        <ele>128</ele>
        <time>2025-03-23T10:35:34Z</time>
      </trkpt>
      <trkpt lat="43.66786" lon="1.39634">
        <ele>128</ele>
        <time>2025-03-23T10:35:35Z</time>
      </trkpt>
      <trkpt lat="43.66786" lon="1.3963">
        <ele>128</ele>
        <time>2025-03-23T10:35:36Z</time>
      </trkpt>
      <trkpt lat="43.66787" lon="1.39627">
        <ele>128</ele>
        <time>2025-03-23T10:35:37Z</time>
      </trkpt>
      <trkpt lat="43.66787" lon="1.39623">
        <ele>128</ele>
        <time>2025-03-23T10:35:38Z</time>
      </trkpt>
      <trkpt lat="43.66788" lon="1.39619">
        <ele>128</ele>
        <time>2025-03-23T10:35:39Z</time>
      </trkpt>
      <trkpt lat="43.66788" lon="1.39616">
        <ele>128</ele>
        <time>2025-03-23T10:35:40Z</time>
      </trkpt>
      <trkpt lat="43.66789" lon="1.39612">
        <ele>128</ele>
        <time>2025-03-23T10:35:41Z</time>
      </trkpt>
      <trkpt lat="43.66789" lon="1.39609">
        <ele>128</ele>
        <time>2025-03-23T10:35:42Z</time>
      </trkpt>
      <trkpt lat="43.66789" lon="1.39605">
        <ele>128</ele>
        <time>2025-03-23T10:35:43Z</time>
      </trkpt>
      <trkpt lat="43.66789" lon="1.39602">
        <ele>128</ele>
        <time>2025-03-23T10:35:44Z</time>
      </trkpt>
      <trkpt lat="43.66789" lon="1.39596">
        <ele>128</ele>
        <time>2025-03-23T10:35:45Z</time>
      </trkpt>
      <trkpt lat="43.66789" lon="1.39595">
        <ele>128</ele>
        <time>2025-03-23T10:35:46Z</time>
      </trkpt>
      <trkpt lat="43.66789" lon="1.39591">
        <ele>128</ele>
        <time>2025-03-23T10:35:47Z</time>
      </trkpt>
      <trkpt lat="43.6679" lon="1.39588">
        <ele>128</ele>
        <time>2025-03-23T10:35:48Z</time>
      </trkpt>
      <trkpt lat="43.6679" lon="1.39583">
        <ele>129</ele>
        <time>2025-03-23T10:35:49Z</time>
      </trkpt>
      <trkpt lat="43.6679" lon="1.39581">
        <ele>129</ele>
        <time>2025-03-23T10:35:50Z</time>
      </trkpt>
      <trkpt lat="43.6679" lon="1.39577">
        <ele>129</ele>
        <time>2025-03-23T10:35:51Z</time>
      </trkpt>
      <trkpt lat="43.66791" lon="1.39574">
        <ele>129</ele>
        <time>2025-03-23T10:35:52Z</time>
      </trkpt>
      <trkpt lat="43.66791" lon="1.3957">
        <ele>128</ele>
        <time>2025-03-23T10:35:53Z</time>
      </trkpt>
      <trkpt lat="43.66791" lon="1.39566">
        <ele>128</ele>
        <time>2025-03-23T10:35:54Z</time>
      </trkpt>
      <trkpt lat="43.66791" lon="1.39563">
        <ele>128</ele>
        <time>2025-03-23T10:35:55Z</time>
      </trkpt>
      <trkpt lat="43.66792" lon="1.39556">
        <ele>128</ele>
        <time>2025-03-23T10:35:56Z</time>
      </trkpt>
      <trkpt lat="43.66792" lon="1.39554">
        <ele>128</ele>
        <time>2025-03-23T10:35:57Z</time>
      </trkpt>
      <trkpt lat="43.66792" lon="1.39552">
        <ele>128</ele>
        <time>2025-03-23T10:35:58Z</time>
      </trkpt>
      <trkpt lat="43.66792" lon="1.39546">
        <ele>128</ele>
        <time>2025-03-23T10:35:59Z</time>
      </trkpt>
      <trkpt lat="43.66792" lon="1.39544">
        <ele>128</ele>
        <time>2025-03-23T10:36:00Z</time>
      </trkpt>
      <trkpt lat="43.66792" lon="1.39541">
        <ele>128</ele>
        <time>2025-03-23T10:36:01Z</time>
      </trkpt>
      <trkpt lat="43.66792" lon="1.39537">
        <ele>128</ele>
        <time>2025-03-23T10:36:02Z</time>
      </trkpt>
      <trkpt lat="43.66792" lon="1.39533">
        <ele>128</ele>
        <time>2025-03-23T10:36:03Z</time>
      </trkpt>
      <trkpt lat="43.66792" lon="1.3953">
        <ele>128</ele>
        <time>2025-03-23T10:36:04Z</time>
      </trkpt>
      <trkpt lat="43.66792" lon="1.39526">
        <ele>128</ele>
        <time>2025-03-23T10:36:05Z</time>
      </trkpt>
      <trkpt lat="43.66792" lon="1.39522">
        <ele>129</ele>
        <time>2025-03-23T10:36:06Z</time>
      </trkpt>
      <trkpt lat="43.66792" lon="1.39519">
        <ele>129</ele>
        <time>2025-03-23T10:36:07Z</time>
      </trkpt>
      <trkpt lat="43.66792" lon="1.39515">
        <ele>129</ele>
        <time>2025-03-23T10:36:08Z</time>
      </trkpt>
      <trkpt lat="43.66792" lon="1.3951">
        <ele>128</ele>
        <time>2025-03-23T10:36:09Z</time>
      </trkpt>
      <trkpt lat="43.66792" lon="1.39508">
        <ele>128</ele>
        <time>2025-03-23T10:36:10Z</time>
      </trkpt>
      <trkpt lat="43.66793" lon="1.39505">
        <ele>128</ele>
        <time>2025-03-23T10:36:11Z</time>
      </trkpt>
      <trkpt lat="43.66793" lon="1.39501">
        <ele>128</ele>
        <time>2025-03-23T10:36:12Z</time>
      </trkpt>
      <trkpt lat="43.66793" lon="1.39498">
        <ele>128</ele>
        <time>2025-03-23T10:36:13Z</time>
      </trkpt>
      <trkpt lat="43.66794" lon="1.39495">
        <ele>128</ele>
        <time>2025-03-23T10:36:14Z</time>
      </trkpt>
      <trkpt lat="43.66794" lon="1.39491">
        <ele>128</ele>
        <time>2025-03-23T10:36:15Z</time>
      </trkpt>
      <trkpt lat="43.66794" lon="1.39485">
        <ele>128</ele>
        <time>2025-03-23T10:36:17Z</time>
      </trkpt>
      <trkpt lat="43.66793" lon="1.39479">
        <ele>128</ele>
        <time>2025-03-23T10:36:18Z</time>
      </trkpt>
      <trkpt lat="43.66793" lon="1.39477">
        <ele>128</ele>
        <time>2025-03-23T10:36:19Z</time>
      </trkpt>
      <trkpt lat="43.66793" lon="1.39473">
        <ele>128</ele>
        <time>2025-03-23T10:36:20Z</time>
      </trkpt>
      <trkpt lat="43.66794" lon="1.3947">
        <ele>128</ele>
        <time>2025-03-23T10:36:21Z</time>
      </trkpt>
      <trkpt lat="43.66794" lon="1.39466">
        <ele>128</ele>
        <time>2025-03-23T10:36:22Z</time>
      </trkpt>
      <trkpt lat="43.66794" lon="1.39464">
        <ele>128</ele>
        <time>2025-03-23T10:36:23Z</time>
      </trkpt>
      <trkpt lat="43.66794" lon="1.39461">
        <ele>128</ele>
        <time>2025-03-23T10:36:24Z</time>
      </trkpt>
      <trkpt lat="43.66794" lon="1.39458">
        <ele>128</ele>
        <time>2025-03-23T10:36:25Z</time>
      </trkpt>
      <trkpt lat="43.66794" lon="1.39454">
        <ele>128</ele>
        <time>2025-03-23T10:36:26Z</time>
      </trkpt>
      <trkpt lat="43.66794" lon="1.3945">
        <ele>128</ele>
        <time>2025-03-23T10:36:27Z</time>
      </trkpt>
      <trkpt lat="43.66794" lon="1.39447">
        <ele>128</ele>
        <time>2025-03-23T10:36:28Z</time>
      </trkpt>
      <trkpt lat="43.66794" lon="1.39442">
        <ele>128</ele>
        <time>2025-03-23T10:36:29Z</time>
      </trkpt>
      <trkpt lat="43.66794" lon="1.3944">
        <ele>128</ele>
        <time>2025-03-23T10:36:30Z</time>
      </trkpt>
      <trkpt lat="43.66794" lon="1.39436">
        <ele>128</ele>
        <time>2025-03-23T10:36:31Z</time>
      </trkpt>
      <trkpt lat="43.66794" lon="1.39432">
        <ele>128</ele>
        <time>2025-03-23T10:36:32Z</time>
      </trkpt>
      <trkpt lat="43.66794" lon="1.39428">
        <ele>128</ele>
        <time>2025-03-23T10:36:33Z</time>
      </trkpt>
      <trkpt lat="43.66794" lon="1.39424">
        <ele>128</ele>
        <time>2025-03-23T10:36:34Z</time>
      </trkpt>
      <trkpt lat="43.66795" lon="1.39419">
        <ele>128</ele>
        <time>2025-03-23T10:36:35Z</time>
      </trkpt>
      <trkpt lat="43.66795" lon="1.39417">
        <ele>128</ele>
        <time>2025-03-23T10:36:36Z</time>
      </trkpt>
      <trkpt lat="43.66795" lon="1.39413">
        <ele>128</ele>
        <time>2025-03-23T10:36:37Z</time>
      </trkpt>
      <trkpt lat="43.66795" lon="1.39408">
        <ele>128</ele>
        <time>2025-03-23T10:36:38Z</time>
      </trkpt>
      <trkpt lat="43.66795" lon="1.39405">
        <ele>128</ele>
        <time>2025-03-23T10:36:39Z</time>
      </trkpt>
      <trkpt lat="43.66795" lon="1.39403">
        <ele>128</ele>
        <time>2025-03-23T10:36:40Z</time>
      </trkpt>
      <trkpt lat="43.66796" lon="1.39399">
        <ele>128</ele>
        <time>2025-03-23T10:36:41Z</time>
      </trkpt>
      <trkpt lat="43.66796" lon="1.39394">
        <ele>128</ele>
        <time>2025-03-23T10:36:42Z</time>
      </trkpt>
      <trkpt lat="43.66796" lon="1.39391">
        <ele>128</ele>
        <time>2025-03-23T10:36:43Z</time>
      </trkpt>
      <trkpt lat="43.66797" lon="1.39385">
        <ele>128</ele>
        <time>2025-03-23T10:36:44Z</time>
      </trkpt>
      <trkpt lat="43.66797" lon="1.39383">
        <ele>128</ele>
        <time>2025-03-23T10:36:45Z</time>
      </trkpt>
      <trkpt lat="43.66797" lon="1.3938">
        <ele>128</ele>
        <time>2025-03-23T10:36:46Z</time>
      </trkpt>
      <trkpt lat="43.66797" lon="1.39376">
        <ele>128</ele>
        <time>2025-03-23T10:36:47Z</time>
      </trkpt>
      <trkpt lat="43.66797" lon="1.39372">
        <ele>128</ele>
        <time>2025-03-23T10:36:48Z</time>
      </trkpt>
      <trkpt lat="43.66798" lon="1.39369">
        <ele>128</ele>
        <time>2025-03-23T10:36:49Z</time>
      </trkpt>
      <trkpt lat="43.66798" lon="1.39365">
        <ele>128</ele>
        <time>2025-03-23T10:36:50Z</time>
      </trkpt>
      <trkpt lat="43.66798" lon="1.3936">
        <ele>128</ele>
        <time>2025-03-23T10:36:51Z</time>
      </trkpt>
      <trkpt lat="43.66798" lon="1.39358">
        <ele>128</ele>
        <time>2025-03-23T10:36:52Z</time>
      </trkpt>
      <trkpt lat="43.66799" lon="1.39355">
        <ele>128</ele>
        <time>2025-03-23T10:36:53Z</time>
      </trkpt>
      <trkpt lat="43.66799" lon="1.39349">
        <ele>128</ele>
        <time>2025-03-23T10:36:54Z</time>
      </trkpt>
      <trkpt lat="43.66799" lon="1.39347">
        <ele>128</ele>
        <time>2025-03-23T10:36:55Z</time>
      </trkpt>
      <trkpt lat="43.66799" lon="1.39344">
        <ele>128</ele>
        <time>2025-03-23T10:36:56Z</time>
      </trkpt>
      <trkpt lat="43.66799" lon="1.39338">
        <ele>128</ele>
        <time>2025-03-23T10:36:57Z</time>
      </trkpt>
      <trkpt lat="43.668" lon="1.39337">
        <ele>128</ele>
        <time>2025-03-23T10:36:58Z</time>
      </trkpt>
      <trkpt lat="43.668" lon="1.39333">
        <ele>128</ele>
        <time>2025-03-23T10:36:59Z</time>
      </trkpt>
      <trkpt lat="43.668" lon="1.3933">
        <ele>128</ele>
        <time>2025-03-23T10:37:00Z</time>
      </trkpt>
      <trkpt lat="43.668" lon="1.39327">
        <ele>128</ele>
        <time>2025-03-23T10:37:01Z</time>
      </trkpt>
      <trkpt lat="43.668" lon="1.39323">
        <ele>128</ele>
        <time>2025-03-23T10:37:02Z</time>
      </trkpt>
      <trkpt lat="43.668" lon="1.3932">
        <ele>128</ele>
        <time>2025-03-23T10:37:03Z</time>
      </trkpt>
      <trkpt lat="43.668" lon="1.39316">
        <ele>128</ele>
        <time>2025-03-23T10:37:04Z</time>
      </trkpt>
      <trkpt lat="43.668" lon="1.39313">
        <ele>128</ele>
        <time>2025-03-23T10:37:05Z</time>
      </trkpt>
      <trkpt lat="43.66801" lon="1.3931">
        <ele>128</ele>
        <time>2025-03-23T10:37:06Z</time>
      </trkpt>
      <trkpt lat="43.66801" lon="1.39306">
        <ele>128</ele>
        <time>2025-03-23T10:37:07Z</time>
      </trkpt>
      <trkpt lat="43.66801" lon="1.39303">
        <ele>128</ele>
        <time>2025-03-23T10:37:08Z</time>
      </trkpt>
      <trkpt lat="43.66801" lon="1.39299">
        <ele>128</ele>
        <time>2025-03-23T10:37:09Z</time>
      </trkpt>
      <trkpt lat="43.66801" lon="1.39296">
        <ele>128</ele>
        <time>2025-03-23T10:37:10Z</time>
      </trkpt>
      <trkpt lat="43.66801" lon="1.39291">
        <ele>128</ele>
        <time>2025-03-23T10:37:11Z</time>
      </trkpt>
      <trkpt lat="43.66801" lon="1.39289">
        <ele>128</ele>
        <time>2025-03-23T10:37:12Z</time>
      </trkpt>
      <trkpt lat="43.66802" lon="1.39283">
        <ele>128</ele>
        <time>2025-03-23T10:37:13Z</time>
      </trkpt>
      <trkpt lat="43.66802" lon="1.39282">
        <ele>128</ele>
        <time>2025-03-23T10:37:14Z</time>
      </trkpt>
      <trkpt lat="43.66802" lon="1.39278">
        <ele>128</ele>
        <time>2025-03-23T10:37:15Z</time>
      </trkpt>
      <trkpt lat="43.66802" lon="1.39271">
        <ele>128</ele>
        <time>2025-03-23T10:37:16Z</time>
      </trkpt>
      <trkpt lat="43.66802" lon="1.39269">
        <ele>128</ele>
        <time>2025-03-23T10:37:17Z</time>
      </trkpt>
      <trkpt lat="43.66802" lon="1.39266">
        <ele>128</ele>
        <time>2025-03-23T10:37:18Z</time>
      </trkpt>
      <trkpt lat="43.66801" lon="1.39262">
        <ele>128</ele>
        <time>2025-03-23T10:37:19Z</time>
      </trkpt>
      <trkpt lat="43.66801" lon="1.39259">
        <ele>128</ele>
        <time>2025-03-23T10:37:20Z</time>
      </trkpt>
      <trkpt lat="43.66801" lon="1.39256">
        <ele>128</ele>
        <time>2025-03-23T10:37:21Z</time>
      </trkpt>
      <trkpt lat="43.66801" lon="1.39252">
        <ele>128</ele>
        <time>2025-03-23T10:37:22Z</time>
      </trkpt>
      <trkpt lat="43.66801" lon="1.3925">
        <ele>128</ele>
        <time>2025-03-23T10:37:23Z</time>
      </trkpt>
      <trkpt lat="43.66801" lon="1.39246">
        <ele>128</ele>
        <time>2025-03-23T10:37:24Z</time>
      </trkpt>
      <trkpt lat="43.66801" lon="1.39241">
        <ele>128</ele>
        <time>2025-03-23T10:37:25Z</time>
      </trkpt>
      <trkpt lat="43.66801" lon="1.39239">
        <ele>128</ele>
        <time>2025-03-23T10:37:26Z</time>
      </trkpt>
      <trkpt lat="43.66801" lon="1.39236">
        <ele>128</ele>
        <time>2025-03-23T10:37:27Z</time>
      </trkpt>
      <trkpt lat="43.66802" lon="1.39233">
        <ele>128</ele>
        <time>2025-03-23T10:37:28Z</time>
      </trkpt>
      <trkpt lat="43.66802" lon="1.39229">
        <ele>128</ele>
        <time>2025-03-23T10:37:29Z</time>
      </trkpt>
      <trkpt lat="43.66802" lon="1.39226">
        <ele>128</ele>
        <time>2025-03-23T10:37:30Z</time>
      </trkpt>
      <trkpt lat="43.66802" lon="1.39223">
        <ele>128</ele>
        <time>2025-03-23T10:37:31Z</time>
      </trkpt>
      <trkpt lat="43.66803" lon="1.39216">
        <ele>128</ele>
        <time>2025-03-23T10:37:33Z</time>
      </trkpt>
      <trkpt lat="43.66803" lon="1.39213">
        <ele>128</ele>
        <time>2025-03-23T10:37:34Z</time>
      </trkpt>
      <trkpt lat="43.66803" lon="1.3921">
        <ele>128</ele>
        <time>2025-03-23T10:37:35Z</time>
      </trkpt>
      <trkpt lat="43.66804" lon="1.39206">
        <ele>128</ele>
        <time>2025-03-23T10:37:36Z</time>
      </trkpt>
      <trkpt lat="43.66804" lon="1.39202">
        <ele>128</ele>
        <time>2025-03-23T10:37:37Z</time>
      </trkpt>
      <trkpt lat="43.66804" lon="1.392">
        <ele>128</ele>
        <time>2025-03-23T10:37:38Z</time>
      </trkpt>
      <trkpt lat="43.66805" lon="1.39196">
        <ele>128</ele>
        <time>2025-03-23T10:37:39Z</time>
      </trkpt>
      <trkpt lat="43.66805" lon="1.39191">
        <ele>128</ele>
        <time>2025-03-23T10:37:40Z</time>
      </trkpt>
      <trkpt lat="43.66805" lon="1.39189">
        <ele>128</ele>
        <time>2025-03-23T10:37:41Z</time>
      </trkpt>
      <trkpt lat="43.66805" lon="1.39185">
        <ele>128</ele>
        <time>2025-03-23T10:37:42Z</time>
      </trkpt>
      <trkpt lat="43.66805" lon="1.39182">
        <ele>128</ele>
        <time>2025-03-23T10:37:43Z</time>
      </trkpt>
      <trkpt lat="43.66805" lon="1.39178">
        <ele>128</ele>
        <time>2025-03-23T10:37:44Z</time>
      </trkpt>
      <trkpt lat="43.66805" lon="1.39175">
        <ele>128</ele>
        <time>2025-03-23T10:37:45Z</time>
      </trkpt>
      <trkpt lat="43.66805" lon="1.39171">
        <ele>128</ele>
        <time>2025-03-23T10:37:46Z</time>
      </trkpt>
      <trkpt lat="43.66806" lon="1.39166">
        <ele>128</ele>
        <time>2025-03-23T10:37:47Z</time>
      </trkpt>
      <trkpt lat="43.66806" lon="1.39164">
        <ele>128</ele>
        <time>2025-03-23T10:37:48Z</time>
      </trkpt>
      <trkpt lat="43.66806" lon="1.3916">
        <ele>128</ele>
        <time>2025-03-23T10:37:49Z</time>
      </trkpt>
      <trkpt lat="43.66806" lon="1.39157">
        <ele>128</ele>
        <time>2025-03-23T10:37:50Z</time>
      </trkpt>
      <trkpt lat="43.66806" lon="1.39152">
        <ele>128</ele>
        <time>2025-03-23T10:37:51Z</time>
      </trkpt>
      <trkpt lat="43.66806" lon="1.3915">
        <ele>128</ele>
        <time>2025-03-23T10:37:52Z</time>
      </trkpt>
      <trkpt lat="43.66806" lon="1.39147">
        <ele>128</ele>
        <time>2025-03-23T10:37:53Z</time>
      </trkpt>
      <trkpt lat="43.66807" lon="1.39143">
        <ele>128</ele>
        <time>2025-03-23T10:37:54Z</time>
      </trkpt>
      <trkpt lat="43.66807" lon="1.3914">
        <ele>128</ele>
        <time>2025-03-23T10:37:55Z</time>
      </trkpt>
      <trkpt lat="43.66808" lon="1.39135">
        <ele>128</ele>
        <time>2025-03-23T10:37:56Z</time>
      </trkpt>
      <trkpt lat="43.66808" lon="1.39133">
        <ele>128</ele>
        <time>2025-03-23T10:37:57Z</time>
      </trkpt>
      <trkpt lat="43.66808" lon="1.3913">
        <ele>128</ele>
        <time>2025-03-23T10:37:58Z</time>
      </trkpt>
      <trkpt lat="43.66808" lon="1.39127">
        <ele>128</ele>
        <time>2025-03-23T10:37:59Z</time>
      </trkpt>
      <trkpt lat="43.66808" lon="1.39124">
        <ele>128</ele>
        <time>2025-03-23T10:38:00Z</time>
      </trkpt>
      <trkpt lat="43.66808" lon="1.3912">
        <ele>128</ele>
        <time>2025-03-23T10:38:01Z</time>
      </trkpt>
      <trkpt lat="43.66808" lon="1.39116">
        <ele>128</ele>
        <time>2025-03-23T10:38:02Z</time>
      </trkpt>
      <trkpt lat="43.66808" lon="1.39111">
        <ele>128</ele>
        <time>2025-03-23T10:38:03Z</time>
      </trkpt>
      <trkpt lat="43.66808" lon="1.39109">
        <ele>128</ele>
        <time>2025-03-23T10:38:04Z</time>
      </trkpt>
      <trkpt lat="43.66808" lon="1.39106">
        <ele>128</ele>
        <time>2025-03-23T10:38:05Z</time>
      </trkpt>
      <trkpt lat="43.66808" lon="1.39103">
        <ele>128</ele>
        <time>2025-03-23T10:38:06Z</time>
      </trkpt>
      <trkpt lat="43.66809" lon="1.39099">
        <ele>128</ele>
        <time>2025-03-23T10:38:07Z</time>
      </trkpt>
      <trkpt lat="43.66809" lon="1.39096">
        <ele>128</ele>
        <time>2025-03-23T10:38:08Z</time>
      </trkpt>
      <trkpt lat="43.66809" lon="1.39092">
        <ele>128</ele>
        <time>2025-03-23T10:38:09Z</time>
      </trkpt>
      <trkpt lat="43.6681" lon="1.39086">
        <ele>128</ele>
        <time>2025-03-23T10:38:10Z</time>
      </trkpt>
      <trkpt lat="43.6681" lon="1.39085">
        <ele>128</ele>
        <time>2025-03-23T10:38:11Z</time>
      </trkpt>
      <trkpt lat="43.6681" lon="1.39079">
        <ele>128</ele>
        <time>2025-03-23T10:38:12Z</time>
      </trkpt>
      <trkpt lat="43.6681" lon="1.39077">
        <ele>128</ele>
        <time>2025-03-23T10:38:13Z</time>
      </trkpt>
      <trkpt lat="43.6681" lon="1.39074">
        <ele>128</ele>
        <time>2025-03-23T10:38:14Z</time>
      </trkpt>
      <trkpt lat="43.6681" lon="1.3907">
        <ele>128</ele>
        <time>2025-03-23T10:38:15Z</time>
      </trkpt>
      <trkpt lat="43.6681" lon="1.39064">
        <ele>128</ele>
        <time>2025-03-23T10:38:16Z</time>
      </trkpt>
      <trkpt lat="43.6681" lon="1.39062">
        <ele>128</ele>
        <time>2025-03-23T10:38:17Z</time>
      </trkpt>
      <trkpt lat="43.6681" lon="1.39059">
        <ele>128</ele>
        <time>2025-03-23T10:38:18Z</time>
      </trkpt>
      <trkpt lat="43.66811" lon="1.39055">
        <ele>128</ele>
        <time>2025-03-23T10:38:19Z</time>
      </trkpt>
      <trkpt lat="43.66811" lon="1.39052">
        <ele>128</ele>
        <time>2025-03-23T10:38:20Z</time>
      </trkpt>
      <trkpt lat="43.66812" lon="1.39049">
        <ele>128</ele>
        <time>2025-03-23T10:38:21Z</time>
      </trkpt>
      <trkpt lat="43.66812" lon="1.39043">
        <ele>128</ele>
        <time>2025-03-23T10:38:22Z</time>
      </trkpt>
      <trkpt lat="43.66812" lon="1.39041">
        <ele>128</ele>
        <time>2025-03-23T10:38:23Z</time>
      </trkpt>
      <trkpt lat="43.66812" lon="1.39037">
        <ele>128</ele>
        <time>2025-03-23T10:38:24Z</time>
      </trkpt>
      <trkpt lat="43.66813" lon="1.39034">
        <ele>128</ele>
        <time>2025-03-23T10:38:25Z</time>
      </trkpt>
      <trkpt lat="43.66813" lon="1.39028">
        <ele>128</ele>
        <time>2025-03-23T10:38:26Z</time>
      </trkpt>
      <trkpt lat="43.66813" lon="1.39027">
        <ele>128</ele>
        <time>2025-03-23T10:38:27Z</time>
      </trkpt>
      <trkpt lat="43.66813" lon="1.39023">
        <ele>128</ele>
        <time>2025-03-23T10:38:28Z</time>
      </trkpt>
      <trkpt lat="43.66814" lon="1.39016">
        <ele>128</ele>
        <time>2025-03-23T10:38:30Z</time>
      </trkpt>
      <trkpt lat="43.66814" lon="1.39013">
        <ele>128</ele>
        <time>2025-03-23T10:38:31Z</time>
      </trkpt>
      <trkpt lat="43.66815" lon="1.39009">
        <ele>128</ele>
        <time>2025-03-23T10:38:32Z</time>
      </trkpt>
      <trkpt lat="43.66815" lon="1.39006">
        <ele>128</ele>
        <time>2025-03-23T10:38:33Z</time>
      </trkpt>
      <trkpt lat="43.66815" lon="1.39003">
        <ele>128</ele>
        <time>2025-03-23T10:38:34Z</time>
      </trkpt>
      <trkpt lat="43.66815" lon="1.38998">
        <ele>128</ele>
        <time>2025-03-23T10:38:35Z</time>
      </trkpt>
      <trkpt lat="43.66815" lon="1.38996">
        <ele>128</ele>
        <time>2025-03-23T10:38:36Z</time>
      </trkpt>
      <trkpt lat="43.66815" lon="1.38993">
        <ele>128</ele>
        <time>2025-03-23T10:38:37Z</time>
      </trkpt>
      <trkpt lat="43.66815" lon="1.38988">
        <ele>128</ele>
        <time>2025-03-23T10:38:38Z</time>
      </trkpt>
      <trkpt lat="43.66815" lon="1.38987">
        <ele>128</ele>
        <time>2025-03-23T10:38:39Z</time>
      </trkpt>
      <trkpt lat="43.66815" lon="1.38983">
        <ele>128</ele>
        <time>2025-03-23T10:38:40Z</time>
      </trkpt>
      <trkpt lat="43.66816" lon="1.3898">
        <ele>128</ele>
        <time>2025-03-23T10:38:41Z</time>
      </trkpt>
      <trkpt lat="43.66816" lon="1.38976">
        <ele>128</ele>
        <time>2025-03-23T10:38:42Z</time>
      </trkpt>
      <trkpt lat="43.66816" lon="1.38973">
        <ele>128</ele>
        <time>2025-03-23T10:38:43Z</time>
      </trkpt>
      <trkpt lat="43.66816" lon="1.38969">
        <ele>128</ele>
        <time>2025-03-23T10:38:44Z</time>
      </trkpt>
      <trkpt lat="43.66817" lon="1.38965">
        <ele>128</ele>
        <time>2025-03-23T10:38:45Z</time>
      </trkpt>
      <trkpt lat="43.66817" lon="1.38963">
        <ele>128</ele>
        <time>2025-03-23T10:38:46Z</time>
      </trkpt>
      <trkpt lat="43.66817" lon="1.3896">
        <ele>128</ele>
        <time>2025-03-23T10:38:47Z</time>
      </trkpt>
      <trkpt lat="43.66818" lon="1.38955">
        <ele>128</ele>
        <time>2025-03-23T10:38:48Z</time>
      </trkpt>
      <trkpt lat="43.66818" lon="1.38954">
        <ele>128</ele>
        <time>2025-03-23T10:38:49Z</time>
      </trkpt>
      <trkpt lat="43.66817" lon="1.3895">
        <ele>128</ele>
        <time>2025-03-23T10:38:50Z</time>
      </trkpt>
      <trkpt lat="43.66817" lon="1.38947">
        <ele>128</ele>
        <time>2025-03-23T10:38:51Z</time>
      </trkpt>
      <trkpt lat="43.66817" lon="1.38942">
        <ele>128</ele>
        <time>2025-03-23T10:38:52Z</time>
      </trkpt>
      <trkpt lat="43.66817" lon="1.3894">
        <ele>128</ele>
        <time>2025-03-23T10:38:53Z</time>
      </trkpt>
      <trkpt lat="43.66817" lon="1.38937">
        <ele>128</ele>
        <time>2025-03-23T10:38:54Z</time>
      </trkpt>
      <trkpt lat="43.66817" lon="1.38931">
        <ele>128</ele>
        <time>2025-03-23T10:38:55Z</time>
      </trkpt>
      <trkpt lat="43.66817" lon="1.38929">
        <ele>128</ele>
        <time>2025-03-23T10:38:56Z</time>
      </trkpt>
      <trkpt lat="43.66817" lon="1.38927">
        <ele>128</ele>
        <time>2025-03-23T10:38:57Z</time>
      </trkpt>
      <trkpt lat="43.66817" lon="1.38924">
        <ele>128</ele>
        <time>2025-03-23T10:38:58Z</time>
      </trkpt>
      <trkpt lat="43.66816" lon="1.3892">
        <ele>128</ele>
        <time>2025-03-23T10:38:59Z</time>
      </trkpt>
      <trkpt lat="43.66816" lon="1.38917">
        <ele>128</ele>
        <time>2025-03-23T10:39:00Z</time>
      </trkpt>
      <trkpt lat="43.66816" lon="1.38914">
        <ele>128</ele>
        <time>2025-03-23T10:39:01Z</time>
      </trkpt>
      <trkpt lat="43.66816" lon="1.38909">
        <ele>128</ele>
        <time>2025-03-23T10:39:02Z</time>
      </trkpt>
      <trkpt lat="43.66816" lon="1.38907">
        <ele>128</ele>
        <time>2025-03-23T10:39:03Z</time>
      </trkpt>
      <trkpt lat="43.66816" lon="1.38904">
        <ele>128</ele>
        <time>2025-03-23T10:39:04Z</time>
      </trkpt>
      <trkpt lat="43.66816" lon="1.38901">
        <ele>128</ele>
        <time>2025-03-23T10:39:05Z</time>
      </trkpt>
      <trkpt lat="43.66816" lon="1.38898">
        <ele>128</ele>
        <time>2025-03-23T10:39:06Z</time>
      </trkpt>
      <trkpt lat="43.66816" lon="1.38895">
        <ele>128</ele>
        <time>2025-03-23T10:39:07Z</time>
      </trkpt>
      <trkpt lat="43.66816" lon="1.38892">
        <ele>128</ele>
        <time>2025-03-23T10:39:08Z</time>
      </trkpt>
      <trkpt lat="43.66816" lon="1.38889">
        <ele>128</ele>
        <time>2025-03-23T10:39:09Z</time>
      </trkpt>
      <trkpt lat="43.66817" lon="1.38885">
        <ele>128</ele>
        <time>2025-03-23T10:39:10Z</time>
      </trkpt>
      <trkpt lat="43.66817" lon="1.38881">
        <ele>128</ele>
        <time>2025-03-23T10:39:11Z</time>
      </trkpt>
      <trkpt lat="43.66817" lon="1.38877">
        <ele>128</ele>
        <time>2025-03-23T10:39:12Z</time>
      </trkpt>
      <trkpt lat="43.66818" lon="1.38874">
        <ele>128</ele>
        <time>2025-03-23T10:39:13Z</time>
      </trkpt>
      <trkpt lat="43.66818" lon="1.38868">
        <ele>128</ele>
        <time>2025-03-23T10:39:14Z</time>
      </trkpt>
      <trkpt lat="43.66818" lon="1.38867">
        <ele>128</ele>
        <time>2025-03-23T10:39:15Z</time>
      </trkpt>
      <trkpt lat="43.66819" lon="1.38862">
        <ele>128</ele>
        <time>2025-03-23T10:39:16Z</time>
      </trkpt>
      <trkpt lat="43.66819" lon="1.3886">
        <ele>128</ele>
        <time>2025-03-23T10:39:17Z</time>
      </trkpt>
      <trkpt lat="43.66819" lon="1.38857">
        <ele>128</ele>
        <time>2025-03-23T10:39:18Z</time>
      </trkpt>
      <trkpt lat="43.6682" lon="1.38852">
        <ele>128</ele>
        <time>2025-03-23T10:39:19Z</time>
      </trkpt>
      <trkpt lat="43.6682" lon="1.3885">
        <ele>128</ele>
        <time>2025-03-23T10:39:20Z</time>
      </trkpt>
      <trkpt lat="43.6682" lon="1.38847">
        <ele>128</ele>
        <time>2025-03-23T10:39:21Z</time>
      </trkpt>
      <trkpt lat="43.6682" lon="1.38843">
        <ele>128</ele>
        <time>2025-03-23T10:39:22Z</time>
      </trkpt>
      <trkpt lat="43.6682" lon="1.3884">
        <ele>128</ele>
        <time>2025-03-23T10:39:23Z</time>
      </trkpt>
      <trkpt lat="43.6682" lon="1.38836">
        <ele>128</ele>
        <time>2025-03-23T10:39:24Z</time>
      </trkpt>
      <trkpt lat="43.66821" lon="1.38833">
        <ele>128</ele>
        <time>2025-03-23T10:39:25Z</time>
      </trkpt>
      <trkpt lat="43.6682" lon="1.38828">
        <ele>128</ele>
        <time>2025-03-23T10:39:26Z</time>
      </trkpt>
      <trkpt lat="43.6682" lon="1.38826">
        <ele>128</ele>
        <time>2025-03-23T10:39:27Z</time>
      </trkpt>
      <trkpt lat="43.6682" lon="1.38823">
        <ele>128</ele>
        <time>2025-03-23T10:39:28Z</time>
      </trkpt>
      <trkpt lat="43.6682" lon="1.3882">
        <ele>128</ele>
        <time>2025-03-23T10:39:29Z</time>
      </trkpt>
      <trkpt lat="43.6682" lon="1.38815">
        <ele>128</ele>
        <time>2025-03-23T10:39:30Z</time>
      </trkpt>
      <trkpt lat="43.6682" lon="1.38813">
        <ele>128</ele>
        <time>2025-03-23T10:39:31Z</time>
      </trkpt>
      <trkpt lat="43.6682" lon="1.3881">
        <ele>128</ele>
        <time>2025-03-23T10:39:32Z</time>
      </trkpt>
      <trkpt lat="43.6682" lon="1.38806">
        <ele>128</ele>
        <time>2025-03-23T10:39:33Z</time>
      </trkpt>
      <trkpt lat="43.66821" lon="1.38803">
        <ele>128</ele>
        <time>2025-03-23T10:39:34Z</time>
      </trkpt>
      <trkpt lat="43.66821" lon="1.38799">
        <ele>128</ele>
        <time>2025-03-23T10:39:35Z</time>
      </trkpt>
      <trkpt lat="43.66821" lon="1.38796">
        <ele>128</ele>
        <time>2025-03-23T10:39:36Z</time>
      </trkpt>
      <trkpt lat="43.66822" lon="1.38788">
        <ele>128</ele>
        <time>2025-03-23T10:39:38Z</time>
      </trkpt>
      <trkpt lat="43.66822" lon="1.38786">
        <ele>128</ele>
        <time>2025-03-23T10:39:39Z</time>
      </trkpt>
      <trkpt lat="43.66822" lon="1.38783">
        <ele>128</ele>
        <time>2025-03-23T10:39:40Z</time>
      </trkpt>
      <trkpt lat="43.66822" lon="1.38777">
        <ele>128</ele>
        <time>2025-03-23T10:39:41Z</time>
      </trkpt>
      <trkpt lat="43.66822" lon="1.38776">
        <ele>128</ele>
        <time>2025-03-23T10:39:42Z</time>
      </trkpt>
      <trkpt lat="43.66822" lon="1.38772">
        <ele>128</ele>
        <time>2025-03-23T10:39:43Z</time>
      </trkpt>
      <trkpt lat="43.66822" lon="1.38769">
        <ele>128</ele>
        <time>2025-03-23T10:39:44Z</time>
      </trkpt>
      <trkpt lat="43.66822" lon="1.38764">
        <ele>128</ele>
        <time>2025-03-23T10:39:45Z</time>
      </trkpt>
      <trkpt lat="43.66822" lon="1.38762">
        <ele>128</ele>
        <time>2025-03-23T10:39:46Z</time>
      </trkpt>
      <trkpt lat="43.66822" lon="1.38757">
        <ele>128</ele>
        <time>2025-03-23T10:39:47Z</time>
      </trkpt>
      <trkpt lat="43.66822" lon="1.38755">
        <ele>128</ele>
        <time>2025-03-23T10:39:48Z</time>
      </trkpt>
      <trkpt lat="43.66822" lon="1.38752">
        <ele>128</ele>
        <time>2025-03-23T10:39:49Z</time>
      </trkpt>
      <trkpt lat="43.66822" lon="1.38748">
        <ele>128</ele>
        <time>2025-03-23T10:39:50Z</time>
      </trkpt>
      <trkpt lat="43.66822" lon="1.38745">
        <ele>128</ele>
        <time>2025-03-23T10:39:51Z</time>
      </trkpt>
      <trkpt lat="43.66823" lon="1.38742">
        <ele>128</ele>
        <time>2025-03-23T10:39:52Z</time>
      </trkpt>
      <trkpt lat="43.66823" lon="1.38738">
        <ele>128</ele>
        <time>2025-03-23T10:39:53Z</time>
      </trkpt>
      <trkpt lat="43.66823" lon="1.38735">
        <ele>128</ele>
        <time>2025-03-23T10:39:54Z</time>
      </trkpt>
      <trkpt lat="43.66824" lon="1.38731">
        <ele>128</ele>
        <time>2025-03-23T10:39:55Z</time>
      </trkpt>
      <trkpt lat="43.66824" lon="1.38728">
        <ele>128</ele>
        <time>2025-03-23T10:39:56Z</time>
      </trkpt>
      <trkpt lat="43.66824" lon="1.38722">
        <ele>128</ele>
        <time>2025-03-23T10:39:57Z</time>
      </trkpt>
      <trkpt lat="43.66824" lon="1.38721">
        <ele>128</ele>
        <time>2025-03-23T10:39:58Z</time>
      </trkpt>
      <trkpt lat="43.66824" lon="1.38717">
        <ele>128</ele>
        <time>2025-03-23T10:39:59Z</time>
      </trkpt>
      <trkpt lat="43.66824" lon="1.38714">
        <ele>128</ele>
        <time>2025-03-23T10:40:00Z</time>
      </trkpt>
      <trkpt lat="43.66825" lon="1.3871">
        <ele>128</ele>
        <time>2025-03-23T10:40:01Z</time>
      </trkpt>
      <trkpt lat="43.66825" lon="1.38707">
        <ele>128</ele>
        <time>2025-03-23T10:40:02Z</time>
      </trkpt>
      <trkpt lat="43.66826" lon="1.38703">
        <ele>128</ele>
        <time>2025-03-23T10:40:03Z</time>
      </trkpt>
      <trkpt lat="43.66826" lon="1.38698">
        <ele>128</ele>
        <time>2025-03-23T10:40:04Z</time>
      </trkpt>
      <trkpt lat="43.66826" lon="1.38696">
        <ele>128</ele>
        <time>2025-03-23T10:40:05Z</time>
      </trkpt>
      <trkpt lat="43.66827" lon="1.38692">
        <ele>128</ele>
        <time>2025-03-23T10:40:06Z</time>
      </trkpt>
      <trkpt lat="43.66827" lon="1.38689">
        <ele>128</ele>
        <time>2025-03-23T10:40:07Z</time>
      </trkpt>
      <trkpt lat="43.66828" lon="1.38686">
        <ele>128</ele>
        <time>2025-03-23T10:40:08Z</time>
      </trkpt>
      <trkpt lat="43.66829" lon="1.38681">
        <ele>128</ele>
        <time>2025-03-23T10:40:09Z</time>
      </trkpt>
      <trkpt lat="43.66829" lon="1.38679">
        <ele>128</ele>
        <time>2025-03-23T10:40:10Z</time>
      </trkpt>
      <trkpt lat="43.6683" lon="1.38676">
        <ele>128</ele>
        <time>2025-03-23T10:40:11Z</time>
      </trkpt>
      <trkpt lat="43.6683" lon="1.38672">
        <ele>128</ele>
        <time>2025-03-23T10:40:12Z</time>
      </trkpt>
      <trkpt lat="43.66832" lon="1.38666">
        <ele>128</ele>
        <time>2025-03-23T10:40:13Z</time>
      </trkpt>
      <trkpt lat="43.66832" lon="1.38665">
        <ele>128</ele>
        <time>2025-03-23T10:40:14Z</time>
      </trkpt>
      <trkpt lat="43.66833" lon="1.38662">
        <ele>128</ele>
        <time>2025-03-23T10:40:15Z</time>
      </trkpt>
      <trkpt lat="43.66834" lon="1.38656">
        <ele>128</ele>
        <time>2025-03-23T10:40:16Z</time>
      </trkpt>
      <trkpt lat="43.66835" lon="1.38653">
        <ele>128</ele>
        <time>2025-03-23T10:40:17Z</time>
      </trkpt>
      <trkpt lat="43.66835" lon="1.38651">
        <ele>128</ele>
        <time>2025-03-23T10:40:18Z</time>
      </trkpt>
      <trkpt lat="43.66836" lon="1.38647">
        <ele>128</ele>
        <time>2025-03-23T10:40:19Z</time>
      </trkpt>
      <trkpt lat="43.66837" lon="1.38644">
        <ele>128</ele>
        <time>2025-03-23T10:40:20Z</time>
      </trkpt>
      <trkpt lat="43.66837" lon="1.3864">
        <ele>128</ele>
        <time>2025-03-23T10:40:21Z</time>
      </trkpt>
      <trkpt lat="43.66838" lon="1.38637">
        <ele>128</ele>
        <time>2025-03-23T10:40:22Z</time>
      </trkpt>
      <trkpt lat="43.66839" lon="1.38631">
        <ele>128</ele>
        <time>2025-03-23T10:40:23Z</time>
      </trkpt>
      <trkpt lat="43.66839" lon="1.38629">
        <ele>128</ele>
        <time>2025-03-23T10:40:24Z</time>
      </trkpt>
      <trkpt lat="43.66839" lon="1.38626">
        <ele>128</ele>
        <time>2025-03-23T10:40:25Z</time>
      </trkpt>
      <trkpt lat="43.6684" lon="1.38623">
        <ele>128</ele>
        <time>2025-03-23T10:40:26Z</time>
      </trkpt>
      <trkpt lat="43.66841" lon="1.38617">
        <ele>128</ele>
        <time>2025-03-23T10:40:27Z</time>
      </trkpt>
      <trkpt lat="43.66841" lon="1.38615">
        <ele>128</ele>
        <time>2025-03-23T10:40:28Z</time>
      </trkpt>
      <trkpt lat="43.66842" lon="1.38612">
        <ele>128</ele>
        <time>2025-03-23T10:40:29Z</time>
      </trkpt>
      <trkpt lat="43.66842" lon="1.38608">
        <ele>128</ele>
        <time>2025-03-23T10:40:30Z</time>
      </trkpt>
      <trkpt lat="43.66843" lon="1.38605">
        <ele>128</ele>
        <time>2025-03-23T10:40:31Z</time>
      </trkpt>
      <trkpt lat="43.66844" lon="1.38601">
        <ele>128</ele>
        <time>2025-03-23T10:40:32Z</time>
      </trkpt>
      <trkpt lat="43.66845" lon="1.38598">
        <ele>128</ele>
        <time>2025-03-23T10:40:33Z</time>
      </trkpt>
      <trkpt lat="43.66846" lon="1.38594">
        <ele>128</ele>
        <time>2025-03-23T10:40:34Z</time>
      </trkpt>
      <trkpt lat="43.66848" lon="1.38589">
        <ele>128</ele>
        <time>2025-03-23T10:40:35Z</time>
      </trkpt>
      <trkpt lat="43.66848" lon="1.38587">
        <ele>128</ele>
        <time>2025-03-23T10:40:36Z</time>
      </trkpt>
      <trkpt lat="43.6685" lon="1.38584">
        <ele>128</ele>
        <time>2025-03-23T10:40:37Z</time>
      </trkpt>
      <trkpt lat="43.66851" lon="1.38579">
        <ele>128</ele>
        <time>2025-03-23T10:40:38Z</time>
      </trkpt>
      <trkpt lat="43.66852" lon="1.38578">
        <ele>128</ele>
        <time>2025-03-23T10:40:39Z</time>
      </trkpt>
      <trkpt lat="43.66852" lon="1.38574">
        <ele>128</ele>
        <time>2025-03-23T10:40:40Z</time>
      </trkpt>
      <trkpt lat="43.66853" lon="1.38571">
        <ele>128</ele>
        <time>2025-03-23T10:40:41Z</time>
      </trkpt>
      <trkpt lat="43.66854" lon="1.38566">
        <ele>128</ele>
        <time>2025-03-23T10:40:42Z</time>
      </trkpt>
      <trkpt lat="43.66855" lon="1.38564">
        <ele>128</ele>
        <time>2025-03-23T10:40:43Z</time>
      </trkpt>
      <trkpt lat="43.66856" lon="1.38561">
        <ele>128</ele>
        <time>2025-03-23T10:40:44Z</time>
      </trkpt>
      <trkpt lat="43.66857" lon="1.38558">
        <ele>128</ele>
        <time>2025-03-23T10:40:45Z</time>
      </trkpt>
      <trkpt lat="43.66858" lon="1.38555">
        <ele>128</ele>
        <time>2025-03-23T10:40:46Z</time>
      </trkpt>
      <trkpt lat="43.66859" lon="1.38551">
        <ele>128</ele>
        <time>2025-03-23T10:40:47Z</time>
      </trkpt>
      <trkpt lat="43.6686" lon="1.38548">
        <ele>128</ele>
        <time>2025-03-23T10:40:48Z</time>
      </trkpt>
      <trkpt lat="43.66861" lon="1.38545">
        <ele>128</ele>
        <time>2025-03-23T10:40:49Z</time>
      </trkpt>
      <trkpt lat="43.66862" lon="1.38542">
        <ele>128</ele>
        <time>2025-03-23T10:40:50Z</time>
      </trkpt>
      <trkpt lat="43.66863" lon="1.38539">
        <ele>128</ele>
        <time>2025-03-23T10:40:51Z</time>
      </trkpt>
      <trkpt lat="43.66864" lon="1.38534">
        <ele>128</ele>
        <time>2025-03-23T10:40:52Z</time>
      </trkpt>
      <trkpt lat="43.66864" lon="1.38532">
        <ele>128</ele>
        <time>2025-03-23T10:40:53Z</time>
      </trkpt>
      <trkpt lat="43.66865" lon="1.38529">
        <ele>128</ele>
        <time>2025-03-23T10:40:54Z</time>
      </trkpt>
      <trkpt lat="43.66866" lon="1.38524">
        <ele>128</ele>
        <time>2025-03-23T10:40:55Z</time>
      </trkpt>
      <trkpt lat="43.66867" lon="1.38522">
        <ele>128</ele>
        <time>2025-03-23T10:40:56Z</time>
      </trkpt>
      <trkpt lat="43.66868" lon="1.38519">
        <ele>128</ele>
        <time>2025-03-23T10:40:57Z</time>
      </trkpt>
      <trkpt lat="43.66869" lon="1.38514">
        <ele>128</ele>
        <time>2025-03-23T10:40:58Z</time>
      </trkpt>
      <trkpt lat="43.6687" lon="1.38513">
        <ele>128</ele>
        <time>2025-03-23T10:40:59Z</time>
      </trkpt>
      <trkpt lat="43.66871" lon="1.38509">
        <ele>128</ele>
        <time>2025-03-23T10:41:00Z</time>
      </trkpt>
      <trkpt lat="43.66872" lon="1.38505">
        <ele>128</ele>
        <time>2025-03-23T10:41:01Z</time>
      </trkpt>
      <trkpt lat="43.66873" lon="1.38503">
        <ele>128</ele>
        <time>2025-03-23T10:41:02Z</time>
      </trkpt>
      <trkpt lat="43.66874" lon="1.385">
        <ele>128</ele>
        <time>2025-03-23T10:41:03Z</time>
      </trkpt>
      <trkpt lat="43.66875" lon="1.38497">
        <ele>128</ele>
        <time>2025-03-23T10:41:04Z</time>
      </trkpt>
      <trkpt lat="43.66875" lon="1.38494">
        <ele>128</ele>
        <time>2025-03-23T10:41:05Z</time>
      </trkpt>
      <trkpt lat="43.66876" lon="1.3849">
        <ele>128</ele>
        <time>2025-03-23T10:41:06Z</time>
      </trkpt>
      <trkpt lat="43.66877" lon="1.38487">
        <ele>128</ele>
        <time>2025-03-23T10:41:07Z</time>
      </trkpt>
      <trkpt lat="43.66878" lon="1.38483">
        <ele>128</ele>
        <time>2025-03-23T10:41:08Z</time>
      </trkpt>
      <trkpt lat="43.66879" lon="1.3848">
        <ele>128</ele>
        <time>2025-03-23T10:41:09Z</time>
      </trkpt>
      <trkpt lat="43.6688" lon="1.38476">
        <ele>128</ele>
        <time>2025-03-23T10:41:10Z</time>
      </trkpt>
      <trkpt lat="43.66881" lon="1.38473">
        <ele>128</ele>
        <time>2025-03-23T10:41:11Z</time>
      </trkpt>
      <trkpt lat="43.66882" lon="1.38469">
        <ele>128</ele>
        <time>2025-03-23T10:41:12Z</time>
      </trkpt>
      <trkpt lat="43.66882" lon="1.38466">
        <ele>128</ele>
        <time>2025-03-23T10:41:13Z</time>
      </trkpt>
      <trkpt lat="43.66884" lon="1.38461">
        <ele>128</ele>
        <time>2025-03-23T10:41:14Z</time>
      </trkpt>
      <trkpt lat="43.66884" lon="1.38459">
        <ele>128</ele>
        <time>2025-03-23T10:41:15Z</time>
      </trkpt>
      <trkpt lat="43.66885" lon="1.38455">
        <ele>128</ele>
        <time>2025-03-23T10:41:16Z</time>
      </trkpt>
      <trkpt lat="43.66886" lon="1.38452">
        <ele>128</ele>
        <time>2025-03-23T10:41:17Z</time>
      </trkpt>
      <trkpt lat="43.66887" lon="1.38448">
        <ele>128</ele>
        <time>2025-03-23T10:41:18Z</time>
      </trkpt>
      <trkpt lat="43.66888" lon="1.38444">
        <ele>128</ele>
        <time>2025-03-23T10:41:19Z</time>
      </trkpt>
      <trkpt lat="43.66889" lon="1.3844">
        <ele>128</ele>
        <time>2025-03-23T10:41:20Z</time>
      </trkpt>
      <trkpt lat="43.6689" lon="1.38439">
        <ele>128</ele>
        <time>2025-03-23T10:41:21Z</time>
      </trkpt>
      <trkpt lat="43.66891" lon="1.38436">
        <ele>128</ele>
        <time>2025-03-23T10:41:22Z</time>
      </trkpt>
      <trkpt lat="43.66892" lon="1.38434">
        <ele>128</ele>
        <time>2025-03-23T10:41:23Z</time>
      </trkpt>
      <trkpt lat="43.66893" lon="1.38431">
        <ele>127</ele>
        <time>2025-03-23T10:41:24Z</time>
      </trkpt>
      <trkpt lat="43.66894" lon="1.38428">
        <ele>127</ele>
        <time>2025-03-23T10:41:25Z</time>
      </trkpt>
      <trkpt lat="43.66895" lon="1.38424">
        <ele>127</ele>
        <time>2025-03-23T10:41:26Z</time>
      </trkpt>
      <trkpt lat="43.66895" lon="1.38421">
        <ele>127</ele>
        <time>2025-03-23T10:41:27Z</time>
      </trkpt>
      <trkpt lat="43.66897" lon="1.38418">
        <ele>127</ele>
        <time>2025-03-23T10:41:28Z</time>
      </trkpt>
      <trkpt lat="43.66898" lon="1.38415">
        <ele>127</ele>
        <time>2025-03-23T10:41:29Z</time>
      </trkpt>
      <trkpt lat="43.66899" lon="1.38411">
        <ele>127</ele>
        <time>2025-03-23T10:41:30Z</time>
      </trkpt>
      <trkpt lat="43.669" lon="1.38408">
        <ele>127</ele>
        <time>2025-03-23T10:41:31Z</time>
      </trkpt>
      <trkpt lat="43.66901" lon="1.38406">
        <ele>127</ele>
        <time>2025-03-23T10:41:32Z</time>
      </trkpt>
      <trkpt lat="43.66903" lon="1.38403">
        <ele>127</ele>
        <time>2025-03-23T10:41:33Z</time>
      </trkpt>
      <trkpt lat="43.66905" lon="1.38398">
        <ele>127</ele>
        <time>2025-03-23T10:41:34Z</time>
      </trkpt>
      <trkpt lat="43.66906" lon="1.38397">
        <ele>127</ele>
        <time>2025-03-23T10:41:35Z</time>
      </trkpt>
      <trkpt lat="43.66907" lon="1.38394">
        <ele>127</ele>
        <time>2025-03-23T10:41:36Z</time>
      </trkpt>
      <trkpt lat="43.6691" lon="1.38389">
        <ele>127</ele>
        <time>2025-03-23T10:41:37Z</time>
      </trkpt>
      <trkpt lat="43.6691" lon="1.38388">
        <ele>127</ele>
        <time>2025-03-23T10:41:38Z</time>
      </trkpt>
      <trkpt lat="43.66913" lon="1.38383">
        <ele>127</ele>
        <time>2025-03-23T10:41:39Z</time>
      </trkpt>
      <trkpt lat="43.66914" lon="1.38382">
        <ele>127</ele>
        <time>2025-03-23T10:41:40Z</time>
      </trkpt>
      <trkpt lat="43.66916" lon="1.38379">
        <ele>127</ele>
        <time>2025-03-23T10:41:41Z</time>
      </trkpt>
      <trkpt lat="43.66918" lon="1.38377">
        <ele>127</ele>
        <time>2025-03-23T10:41:42Z</time>
      </trkpt>
      <trkpt lat="43.6692" lon="1.38374">
        <ele>127</ele>
        <time>2025-03-23T10:41:43Z</time>
      </trkpt>
      <trkpt lat="43.66922" lon="1.38372">
        <ele>127</ele>
        <time>2025-03-23T10:41:44Z</time>
      </trkpt>
      <trkpt lat="43.66924" lon="1.3837">
        <ele>127</ele>
        <time>2025-03-23T10:41:45Z</time>
      </trkpt>
      <trkpt lat="43.66926" lon="1.38369">
        <ele>127</ele>
        <time>2025-03-23T10:41:46Z</time>
      </trkpt>
      <trkpt lat="43.66928" lon="1.38368">
        <ele>127</ele>
        <time>2025-03-23T10:41:47Z</time>
      </trkpt>
      <trkpt lat="43.6693" lon="1.38366">
        <ele>127</ele>
        <time>2025-03-23T10:41:48Z</time>
      </trkpt>
      <trkpt lat="43.66932" lon="1.38365">
        <ele>127</ele>
        <time>2025-03-23T10:41:49Z</time>
      </trkpt>
      <trkpt lat="43.66934" lon="1.38363">
        <ele>127</ele>
        <time>2025-03-23T10:41:50Z</time>
      </trkpt>
      <trkpt lat="43.66936" lon="1.38361">
        <ele>127</ele>
        <time>2025-03-23T10:41:51Z</time>
      </trkpt>
      <trkpt lat="43.66938" lon="1.3836">
        <ele>127</ele>
        <time>2025-03-23T10:41:52Z</time>
      </trkpt>
      <trkpt lat="43.66942" lon="1.38357">
        <ele>127</ele>
        <time>2025-03-23T10:41:53Z</time>
      </trkpt>
      <trkpt lat="43.66944" lon="1.38357">
        <ele>127</ele>
        <time>2025-03-23T10:41:54Z</time>
      </trkpt>
      <trkpt lat="43.66945" lon="1.38356">
        <ele>128</ele>
        <time>2025-03-23T10:41:55Z</time>
      </trkpt>
      <trkpt lat="43.66948" lon="1.38355">
        <ele>128</ele>
        <time>2025-03-23T10:41:56Z</time>
      </trkpt>
      <trkpt lat="43.66952" lon="1.38352">
        <ele>128</ele>
        <time>2025-03-23T10:41:57Z</time>
      </trkpt>
      <trkpt lat="43.66954" lon="1.38351">
        <ele>128</ele>
        <time>2025-03-23T10:41:58Z</time>
      </trkpt>
      <trkpt lat="43.66955" lon="1.3835">
        <ele>128</ele>
        <time>2025-03-23T10:41:59Z</time>
      </trkpt>
      <trkpt lat="43.66958" lon="1.38348">
        <ele>128</ele>
        <time>2025-03-23T10:42:00Z</time>
      </trkpt>
      <trkpt lat="43.6696" lon="1.38347">
        <ele>128</ele>
        <time>2025-03-23T10:42:01Z</time>
      </trkpt>
      <trkpt lat="43.66963" lon="1.38346">
        <ele>128</ele>
        <time>2025-03-23T10:42:02Z</time>
      </trkpt>
      <trkpt lat="43.66966" lon="1.38343">
        <ele>128</ele>
        <time>2025-03-23T10:42:03Z</time>
      </trkpt>
      <trkpt lat="43.66967" lon="1.38343">
        <ele>128</ele>
        <time>2025-03-23T10:42:04Z</time>
      </trkpt>
      <trkpt lat="43.66969" lon="1.38341">
        <ele>128</ele>
        <time>2025-03-23T10:42:05Z</time>
      </trkpt>
      <trkpt lat="43.66972" lon="1.38341">
        <ele>128</ele>
        <time>2025-03-23T10:42:06Z</time>
      </trkpt>
      <trkpt lat="43.66974" lon="1.38339">
        <ele>128</ele>
        <time>2025-03-23T10:42:07Z</time>
      </trkpt>
      <trkpt lat="43.66976" lon="1.38337">
        <ele>128</ele>
        <time>2025-03-23T10:42:08Z</time>
      </trkpt>
      <trkpt lat="43.66979" lon="1.38335">
        <ele>128</ele>
        <time>2025-03-23T10:42:09Z</time>
      </trkpt>
      <trkpt lat="43.66981" lon="1.38333">
        <ele>127</ele>
        <time>2025-03-23T10:42:10Z</time>
      </trkpt>
      <trkpt lat="43.66983" lon="1.38331">
        <ele>127</ele>
        <time>2025-03-23T10:42:11Z</time>
      </trkpt>
      <trkpt lat="43.66986" lon="1.3833">
        <ele>128</ele>
        <time>2025-03-23T10:42:12Z</time>
      </trkpt>
      <trkpt lat="43.6699" lon="1.38327">
        <ele>128</ele>
        <time>2025-03-23T10:42:13Z</time>
      </trkpt>
      <trkpt lat="43.66992" lon="1.38327">
        <ele>128</ele>
        <time>2025-03-23T10:42:14Z</time>
      </trkpt>
      <trkpt lat="43.66993" lon="1.38326">
        <ele>128</ele>
        <time>2025-03-23T10:42:15Z</time>
      </trkpt>
      <trkpt lat="43.66996" lon="1.38325">
        <ele>128</ele>
        <time>2025-03-23T10:42:16Z</time>
      </trkpt>
      <trkpt lat="43.67" lon="1.38323">
        <ele>128</ele>
        <time>2025-03-23T10:42:17Z</time>
      </trkpt>
      <trkpt lat="43.67001" lon="1.38323">
        <ele>128</ele>
        <time>2025-03-23T10:42:18Z</time>
      </trkpt>
      <trkpt lat="43.67004" lon="1.38322">
        <ele>128</ele>
        <time>2025-03-23T10:42:19Z</time>
      </trkpt>
      <trkpt lat="43.67006" lon="1.38322">
        <ele>128</ele>
        <time>2025-03-23T10:42:20Z</time>
      </trkpt>
      <trkpt lat="43.67008" lon="1.38321">
        <ele>128</ele>
        <time>2025-03-23T10:42:21Z</time>
      </trkpt>
      <trkpt lat="43.67011" lon="1.3832">
        <ele>128</ele>
        <time>2025-03-23T10:42:22Z</time>
      </trkpt>
      <trkpt lat="43.67013" lon="1.38319">
        <ele>128</ele>
        <time>2025-03-23T10:42:23Z</time>
      </trkpt>
      <trkpt lat="43.67017" lon="1.38317">
        <ele>128</ele>
        <time>2025-03-23T10:42:24Z</time>
      </trkpt>
      <trkpt lat="43.67018" lon="1.38316">
        <ele>128</ele>
        <time>2025-03-23T10:42:25Z</time>
      </trkpt>
      <trkpt lat="43.67018" lon="1.38313">
        <ele>128</ele>
        <time>2025-03-23T10:42:26Z</time>
      </trkpt>
      <trkpt lat="43.67017" lon="1.3831">
        <ele>128</ele>
        <time>2025-03-23T10:42:27Z</time>
      </trkpt>
      <trkpt lat="43.67017" lon="1.3831">
        <ele>128</ele>
        <time>2025-03-23T10:42:28Z</time>
      </trkpt>
      <trkpt lat="43.67017" lon="1.38305">
        <ele>128</ele>
        <time>2025-03-23T10:42:29Z</time>
      </trkpt>
      <trkpt lat="43.67016" lon="1.38301">
        <ele>128</ele>
        <time>2025-03-23T10:42:30Z</time>
      </trkpt>
      <trkpt lat="43.67016" lon="1.38298">
        <ele>128</ele>
        <time>2025-03-23T10:42:31Z</time>
      </trkpt>
      <trkpt lat="43.67016" lon="1.38295">
        <ele>128</ele>
        <time>2025-03-23T10:42:32Z</time>
      </trkpt>
      <trkpt lat="43.67016" lon="1.38292">
        <ele>128</ele>
        <time>2025-03-23T10:42:33Z</time>
      </trkpt>
      <trkpt lat="43.67016" lon="1.38286">
        <ele>128</ele>
        <time>2025-03-23T10:42:34Z</time>
      </trkpt>
      <trkpt lat="43.67016" lon="1.38284">
        <ele>128</ele>
        <time>2025-03-23T10:42:35Z</time>
      </trkpt>
      <trkpt lat="43.67016" lon="1.38281">
        <ele>128</ele>
        <time>2025-03-23T10:42:36Z</time>
      </trkpt>
      <trkpt lat="43.67016" lon="1.38278">
        <ele>128</ele>
        <time>2025-03-23T10:42:37Z</time>
      </trkpt>
      <trkpt lat="43.67017" lon="1.38275">
        <ele>128</ele>
        <time>2025-03-23T10:42:38Z</time>
      </trkpt>
      <trkpt lat="43.67018" lon="1.38272">
        <ele>128</ele>
        <time>2025-03-23T10:42:39Z</time>
      </trkpt>
      <trkpt lat="43.67018" lon="1.38269">
        <ele>128</ele>
        <time>2025-03-23T10:42:40Z</time>
      </trkpt>
      <trkpt lat="43.67019" lon="1.38266">
        <ele>128</ele>
        <time>2025-03-23T10:42:41Z</time>
      </trkpt>
      <trkpt lat="43.67019" lon="1.38263">
        <ele>128</ele>
        <time>2025-03-23T10:42:42Z</time>
      </trkpt>
      <trkpt lat="43.67018" lon="1.38261">
        <ele>128</ele>
        <time>2025-03-23T10:42:43Z</time>
      </trkpt>
      <trkpt lat="43.67016" lon="1.38258">
        <ele>128</ele>
        <time>2025-03-23T10:42:44Z</time>
      </trkpt>
      <trkpt lat="43.67014" lon="1.38256">
        <ele>128</ele>
        <time>2025-03-23T10:42:45Z</time>
      </trkpt>
      <trkpt lat="43.67012" lon="1.38254">
        <ele>128</ele>
        <time>2025-03-23T10:42:46Z</time>
      </trkpt>
      <trkpt lat="43.67011" lon="1.38252">
        <ele>128</ele>
        <time>2025-03-23T10:42:47Z</time>
      </trkpt>
      <trkpt lat="43.67009" lon="1.38249">
        <ele>128</ele>
        <time>2025-03-23T10:42:48Z</time>
      </trkpt>
      <trkpt lat="43.67007" lon="1.38247">
        <ele>128</ele>
        <time>2025-03-23T10:42:49Z</time>
      </trkpt>
      <trkpt lat="43.67005" lon="1.38243">
        <ele>128</ele>
        <time>2025-03-23T10:42:50Z</time>
      </trkpt>
      <trkpt lat="43.67004" lon="1.38242">
        <ele>128</ele>
        <time>2025-03-23T10:42:51Z</time>
      </trkpt>
      <trkpt lat="43.67003" lon="1.38239">
        <ele>128</ele>
        <time>2025-03-23T10:42:52Z</time>
      </trkpt>
      <trkpt lat="43.67002" lon="1.38236">
        <ele>128</ele>
        <time>2025-03-23T10:42:53Z</time>
      </trkpt>
      <trkpt lat="43.67" lon="1.38233">
        <ele>128</ele>
        <time>2025-03-23T10:42:54Z</time>
      </trkpt>
      <trkpt lat="43.66999" lon="1.38228">
        <ele>128</ele>
        <time>2025-03-23T10:42:55Z</time>
      </trkpt>
      <trkpt lat="43.66998" lon="1.38227">
        <ele>128</ele>
        <time>2025-03-23T10:42:56Z</time>
      </trkpt>
      <trkpt lat="43.66997" lon="1.38224">
        <ele>128</ele>
        <time>2025-03-23T10:42:57Z</time>
      </trkpt>
      <trkpt lat="43.66996" lon="1.38221">
        <ele>128</ele>
        <time>2025-03-23T10:42:58Z</time>
      </trkpt>
      <trkpt lat="43.66994" lon="1.3822">
        <ele>128</ele>
        <time>2025-03-23T10:42:59Z</time>
      </trkpt>
      <trkpt lat="43.66992" lon="1.38218">
        <ele>128</ele>
        <time>2025-03-23T10:43:00Z</time>
      </trkpt>
      <trkpt lat="43.66989" lon="1.38216">
        <ele>128</ele>
        <time>2025-03-23T10:43:01Z</time>
      </trkpt>
      <trkpt lat="43.66987" lon="1.38213">
        <ele>128</ele>
        <time>2025-03-23T10:43:02Z</time>
      </trkpt>
      <trkpt lat="43.66987" lon="1.38209">
        <ele>128</ele>
        <time>2025-03-23T10:43:03Z</time>
      </trkpt>
      <trkpt lat="43.66988" lon="1.38204">
        <ele>128</ele>
        <time>2025-03-23T10:43:04Z</time>
      </trkpt>
      <trkpt lat="43.66988" lon="1.38203">
        <ele>127</ele>
        <time>2025-03-23T10:43:05Z</time>
      </trkpt>
      <trkpt lat="43.6699" lon="1.382">
        <ele>127</ele>
        <time>2025-03-23T10:43:06Z</time>
      </trkpt>
      <trkpt lat="43.66991" lon="1.38198">
        <ele>127</ele>
        <time>2025-03-23T10:43:07Z</time>
      </trkpt>
      <trkpt lat="43.66993" lon="1.38196">
        <ele>127</ele>
        <time>2025-03-23T10:43:08Z</time>
      </trkpt>
      <trkpt lat="43.66995" lon="1.38194">
        <ele>127</ele>
        <time>2025-03-23T10:43:09Z</time>
      </trkpt>
      <trkpt lat="43.66996" lon="1.38191">
        <ele>127</ele>
        <time>2025-03-23T10:43:10Z</time>
      </trkpt>
      <trkpt lat="43.66998" lon="1.38188">
        <ele>127</ele>
        <time>2025-03-23T10:43:11Z</time>
      </trkpt>
      <trkpt lat="43.66999" lon="1.38186">
        <ele>127</ele>
        <time>2025-03-23T10:43:12Z</time>
      </trkpt>
      <trkpt lat="43.67001" lon="1.38183">
        <ele>127</ele>
        <time>2025-03-23T10:43:13Z</time>
      </trkpt>
      <trkpt lat="43.67003" lon="1.38181">
        <ele>127</ele>
        <time>2025-03-23T10:43:14Z</time>
      </trkpt>
      <trkpt lat="43.67005" lon="1.38179">
        <ele>127</ele>
        <time>2025-03-23T10:43:15Z</time>
      </trkpt>
      <trkpt lat="43.67007" lon="1.38177">
        <ele>127</ele>
        <time>2025-03-23T10:43:16Z</time>
      </trkpt>
      <trkpt lat="43.67009" lon="1.38173">
        <ele>127</ele>
        <time>2025-03-23T10:43:17Z</time>
      </trkpt>
      <trkpt lat="43.67011" lon="1.38171">
        <ele>127</ele>
        <time>2025-03-23T10:43:18Z</time>
      </trkpt>
      <trkpt lat="43.67013" lon="1.38168">
        <ele>127</ele>
        <time>2025-03-23T10:43:19Z</time>
      </trkpt>
      <trkpt lat="43.67014" lon="1.38166">
        <ele>127</ele>
        <time>2025-03-23T10:43:20Z</time>
      </trkpt>
      <trkpt lat="43.67016" lon="1.38164">
        <ele>127</ele>
        <time>2025-03-23T10:43:21Z</time>
      </trkpt>
      <trkpt lat="43.67018" lon="1.38161">
        <ele>127</ele>
        <time>2025-03-23T10:43:22Z</time>
      </trkpt>
      <trkpt lat="43.6702" lon="1.38159">
        <ele>127</ele>
        <time>2025-03-23T10:43:23Z</time>
      </trkpt>
      <trkpt lat="43.67021" lon="1.38156">
        <ele>127</ele>
        <time>2025-03-23T10:43:24Z</time>
      </trkpt>
      <trkpt lat="43.67024" lon="1.38152">
        <ele>127</ele>
        <time>2025-03-23T10:43:25Z</time>
      </trkpt>
      <trkpt lat="43.67025" lon="1.38151">
        <ele>127</ele>
        <time>2025-03-23T10:43:26Z</time>
      </trkpt>
      <trkpt lat="43.67027" lon="1.38148">
        <ele>127</ele>
        <time>2025-03-23T10:43:27Z</time>
      </trkpt>
      <trkpt lat="43.67029" lon="1.38146">
        <ele>128</ele>
        <time>2025-03-23T10:43:28Z</time>
      </trkpt>
      <trkpt lat="43.67031" lon="1.38144">
        <ele>128</ele>
        <time>2025-03-23T10:43:29Z</time>
      </trkpt>
      <trkpt lat="43.67034" lon="1.38143">
        <ele>128</ele>
        <time>2025-03-23T10:43:30Z</time>
      </trkpt>
      <trkpt lat="43.67036" lon="1.38141">
        <ele>128</ele>
        <time>2025-03-23T10:43:31Z</time>
      </trkpt>
      <trkpt lat="43.6704" lon="1.38139">
        <ele>128</ele>
        <time>2025-03-23T10:43:32Z</time>
      </trkpt>
      <trkpt lat="43.67042" lon="1.38138">
        <ele>128</ele>
        <time>2025-03-23T10:43:33Z</time>
      </trkpt>
      <trkpt lat="43.67043" lon="1.38137">
        <ele>128</ele>
        <time>2025-03-23T10:43:34Z</time>
      </trkpt>
      <trkpt lat="43.67045" lon="1.38135">
        <ele>128</ele>
        <time>2025-03-23T10:43:35Z</time>
      </trkpt>
      <trkpt lat="43.67047" lon="1.38132">
        <ele>128</ele>
        <time>2025-03-23T10:43:36Z</time>
      </trkpt>
      <trkpt lat="43.67049" lon="1.38128">
        <ele>128</ele>
        <time>2025-03-23T10:43:37Z</time>
      </trkpt>
      <trkpt lat="43.6705" lon="1.38127">
        <ele>128</ele>
        <time>2025-03-23T10:43:38Z</time>
      </trkpt>
      <trkpt lat="43.67053" lon="1.38125">
        <ele>128</ele>
        <time>2025-03-23T10:43:39Z</time>
      </trkpt>
      <trkpt lat="43.67054" lon="1.38123">
        <ele>128</ele>
        <time>2025-03-23T10:43:40Z</time>
      </trkpt>
      <trkpt lat="43.67056" lon="1.38122">
        <ele>128</ele>
        <time>2025-03-23T10:43:41Z</time>
      </trkpt>
      <trkpt lat="43.67058" lon="1.3812">
        <ele>127</ele>
        <time>2025-03-23T10:43:42Z</time>
      </trkpt>
      <trkpt lat="43.67061" lon="1.38117">
        <ele>127</ele>
        <time>2025-03-23T10:43:43Z</time>
      </trkpt>
      <trkpt lat="43.67063" lon="1.38115">
        <ele>127</ele>
        <time>2025-03-23T10:43:44Z</time>
      </trkpt>
      <trkpt lat="43.67065" lon="1.38113">
        <ele>127</ele>
        <time>2025-03-23T10:43:45Z</time>
      </trkpt>
      <trkpt lat="43.67066" lon="1.3811">
        <ele>127</ele>
        <time>2025-03-23T10:43:46Z</time>
      </trkpt>
      <trkpt lat="43.67068" lon="1.38107">
        <ele>127</ele>
        <time>2025-03-23T10:43:47Z</time>
      </trkpt>
      <trkpt lat="43.6707" lon="1.38105">
        <ele>127</ele>
        <time>2025-03-23T10:43:48Z</time>
      </trkpt>
      <trkpt lat="43.67072" lon="1.38104">
        <ele>127</ele>
        <time>2025-03-23T10:43:49Z</time>
      </trkpt>
      <trkpt lat="43.67074" lon="1.38102">
        <ele>127</ele>
        <time>2025-03-23T10:43:50Z</time>
      </trkpt>
      <trkpt lat="43.67076" lon="1.381">
        <ele>127</ele>
        <time>2025-03-23T10:43:51Z</time>
      </trkpt>
      <trkpt lat="43.67081" lon="1.38097">
        <ele>128</ele>
        <time>2025-03-23T10:43:53Z</time>
      </trkpt>
      <trkpt lat="43.67084" lon="1.38095">
        <ele>128</ele>
        <time>2025-03-23T10:43:54Z</time>
      </trkpt>
      <trkpt lat="43.67085" lon="1.38094">
        <ele>128</ele>
        <time>2025-03-23T10:43:55Z</time>
      </trkpt>
      <trkpt lat="43.67088" lon="1.38093">
        <ele>128</ele>
        <time>2025-03-23T10:43:56Z</time>
      </trkpt>
      <trkpt lat="43.6709" lon="1.38091">
        <ele>128</ele>
        <time>2025-03-23T10:43:57Z</time>
      </trkpt>
      <trkpt lat="43.67093" lon="1.3809">
        <ele>128</ele>
        <time>2025-03-23T10:43:58Z</time>
      </trkpt>
      <trkpt lat="43.67095" lon="1.38089">
        <ele>128</ele>
        <time>2025-03-23T10:43:59Z</time>
      </trkpt>
      <trkpt lat="43.67097" lon="1.38088">
        <ele>128</ele>
        <time>2025-03-23T10:44:00Z</time>
      </trkpt>
      <trkpt lat="43.67099" lon="1.38088">
        <ele>128</ele>
        <time>2025-03-23T10:44:01Z</time>
      </trkpt>
      <trkpt lat="43.67102" lon="1.38088">
        <ele>127</ele>
        <time>2025-03-23T10:44:02Z</time>
      </trkpt>
      <trkpt lat="43.67104" lon="1.38086">
        <ele>127</ele>
        <time>2025-03-23T10:44:03Z</time>
      </trkpt>
      <trkpt lat="43.67106" lon="1.38084">
        <ele>127</ele>
        <time>2025-03-23T10:44:04Z</time>
      </trkpt>
      <trkpt lat="43.67108" lon="1.38082">
        <ele>127</ele>
        <time>2025-03-23T10:44:05Z</time>
      </trkpt>
      <trkpt lat="43.6711" lon="1.38079">
        <ele>127</ele>
        <time>2025-03-23T10:44:06Z</time>
      </trkpt>
      <trkpt lat="43.67112" lon="1.38075">
        <ele>128</ele>
        <time>2025-03-23T10:44:07Z</time>
      </trkpt>
      <trkpt lat="43.67113" lon="1.38073">
        <ele>128</ele>
        <time>2025-03-23T10:44:08Z</time>
      </trkpt>
      <trkpt lat="43.67115" lon="1.38071">
        <ele>128</ele>
        <time>2025-03-23T10:44:09Z</time>
      </trkpt>
      <trkpt lat="43.67118" lon="1.38069">
        <ele>128</ele>
        <time>2025-03-23T10:44:10Z</time>
      </trkpt>
      <trkpt lat="43.67121" lon="1.38066">
        <ele>128</ele>
        <time>2025-03-23T10:44:11Z</time>
      </trkpt>
      <trkpt lat="43.67121" lon="1.38065">
        <ele>128</ele>
        <time>2025-03-23T10:44:12Z</time>
      </trkpt>
      <trkpt lat="43.67125" lon="1.38062">
        <ele>128</ele>
        <time>2025-03-23T10:44:13Z</time>
      </trkpt>
      <trkpt lat="43.67126" lon="1.38061">
        <ele>128</ele>
        <time>2025-03-23T10:44:14Z</time>
      </trkpt>
      <trkpt lat="43.67128" lon="1.3806">
        <ele>128</ele>
        <time>2025-03-23T10:44:15Z</time>
      </trkpt>
      <trkpt lat="43.6713" lon="1.38057">
        <ele>128</ele>
        <time>2025-03-23T10:44:16Z</time>
      </trkpt>
      <trkpt lat="43.67131" lon="1.38055">
        <ele>128</ele>
        <time>2025-03-23T10:44:17Z</time>
      </trkpt>
      <trkpt lat="43.67133" lon="1.38051">
        <ele>128</ele>
        <time>2025-03-23T10:44:18Z</time>
      </trkpt>
      <trkpt lat="43.67134" lon="1.38048">
        <ele>128</ele>
        <time>2025-03-23T10:44:19Z</time>
      </trkpt>
      <trkpt lat="43.67136" lon="1.38045">
        <ele>128</ele>
        <time>2025-03-23T10:44:20Z</time>
      </trkpt>
      <trkpt lat="43.67138" lon="1.38043">
        <ele>128</ele>
        <time>2025-03-23T10:44:21Z</time>
      </trkpt>
      <trkpt lat="43.6714" lon="1.3804">
        <ele>128</ele>
        <time>2025-03-23T10:44:22Z</time>
      </trkpt>
      <trkpt lat="43.67142" lon="1.38037">
        <ele>128</ele>
        <time>2025-03-23T10:44:23Z</time>
      </trkpt>
      <trkpt lat="43.67144" lon="1.38034">
        <ele>128</ele>
        <time>2025-03-23T10:44:24Z</time>
      </trkpt>
      <trkpt lat="43.67146" lon="1.38033">
        <ele>128</ele>
        <time>2025-03-23T10:44:25Z</time>
      </trkpt>
      <trkpt lat="43.67149" lon="1.38031">
        <ele>128</ele>
        <time>2025-03-23T10:44:26Z</time>
      </trkpt>
      <trkpt lat="43.6715" lon="1.38029">
        <ele>128</ele>
        <time>2025-03-23T10:44:27Z</time>
      </trkpt>
      <trkpt lat="43.67151" lon="1.38027">
        <ele>128</ele>
        <time>2025-03-23T10:44:28Z</time>
      </trkpt>
      <trkpt lat="43.67151" lon="1.38024">
        <ele>128</ele>
        <time>2025-03-23T10:44:29Z</time>
      </trkpt>
      <trkpt lat="43.67149" lon="1.38019">
        <ele>128</ele>
        <time>2025-03-23T10:44:30Z</time>
      </trkpt>
      <trkpt lat="43.67148" lon="1.38018">
        <ele>126</ele>
        <time>2025-03-23T10:44:31Z</time>
      </trkpt>
      <trkpt lat="43.67148" lon="1.38014">
        <ele>126</ele>
        <time>2025-03-23T10:44:32Z</time>
      </trkpt>
      <trkpt lat="43.6715" lon="1.38008">
        <ele>126</ele>
        <time>2025-03-23T10:44:33Z</time>
      </trkpt>
      <trkpt lat="43.67151" lon="1.38006">
        <ele>126</ele>
        <time>2025-03-23T10:44:34Z</time>
      </trkpt>
      <trkpt lat="43.67153" lon="1.38004">
        <ele>126</ele>
        <time>2025-03-23T10:44:35Z</time>
      </trkpt>
      <trkpt lat="43.67155" lon="1.38004">
        <ele>126</ele>
        <time>2025-03-23T10:44:36Z</time>
      </trkpt>
      <trkpt lat="43.67158" lon="1.38003">
        <ele>126</ele>
        <time>2025-03-23T10:44:37Z</time>
      </trkpt>
      <trkpt lat="43.6716" lon="1.38002">
        <ele>126</ele>
        <time>2025-03-23T10:44:38Z</time>
      </trkpt>
      <trkpt lat="43.67162" lon="1.38001">
        <ele>126</ele>
        <time>2025-03-23T10:44:39Z</time>
      </trkpt>
      <trkpt lat="43.67165" lon="1.37999">
        <ele>126</ele>
        <time>2025-03-23T10:44:40Z</time>
      </trkpt>
      <trkpt lat="43.67167" lon="1.37997">
        <ele>126</ele>
        <time>2025-03-23T10:44:41Z</time>
      </trkpt>
      <trkpt lat="43.6717" lon="1.37995">
        <ele>126</ele>
        <time>2025-03-23T10:44:42Z</time>
      </trkpt>
      <trkpt lat="43.67173" lon="1.37993">
        <ele>126</ele>
        <time>2025-03-23T10:44:43Z</time>
      </trkpt>
      <trkpt lat="43.67175" lon="1.37992">
        <ele>126</ele>
        <time>2025-03-23T10:44:44Z</time>
      </trkpt>
      <trkpt lat="43.67177" lon="1.3799">
        <ele>126</ele>
        <time>2025-03-23T10:44:45Z</time>
      </trkpt>
      <trkpt lat="43.6718" lon="1.37988">
        <ele>126</ele>
        <time>2025-03-23T10:44:46Z</time>
      </trkpt>
      <trkpt lat="43.67182" lon="1.37986">
        <ele>126</ele>
        <time>2025-03-23T10:44:47Z</time>
      </trkpt>
      <trkpt lat="43.67184" lon="1.37983">
        <ele>126</ele>
        <time>2025-03-23T10:44:48Z</time>
      </trkpt>
      <trkpt lat="43.67187" lon="1.3798">
        <ele>126</ele>
        <time>2025-03-23T10:44:49Z</time>
      </trkpt>
      <trkpt lat="43.67188" lon="1.37979">
        <ele>126</ele>
        <time>2025-03-23T10:44:50Z</time>
      </trkpt>
      <trkpt lat="43.67192" lon="1.37976">
        <ele>126</ele>
        <time>2025-03-23T10:44:51Z</time>
      </trkpt>
      <trkpt lat="43.67193" lon="1.37975">
        <ele>127</ele>
        <time>2025-03-23T10:44:52Z</time>
      </trkpt>
      <trkpt lat="43.67195" lon="1.37973">
        <ele>126</ele>
        <time>2025-03-23T10:44:53Z</time>
      </trkpt>
      <trkpt lat="43.67196" lon="1.3797">
        <ele>126</ele>
        <time>2025-03-23T10:44:54Z</time>
      </trkpt>
      <trkpt lat="43.67198" lon="1.37968">
        <ele>126</ele>
        <time>2025-03-23T10:44:55Z</time>
      </trkpt>
      <trkpt lat="43.67201" lon="1.37966">
        <ele>126</ele>
        <time>2025-03-23T10:44:56Z</time>
      </trkpt>
      <trkpt lat="43.67203" lon="1.37963">
        <ele>126</ele>
        <time>2025-03-23T10:44:57Z</time>
      </trkpt>
      <trkpt lat="43.67205" lon="1.37961">
        <ele>126</ele>
        <time>2025-03-23T10:44:58Z</time>
      </trkpt>
      <trkpt lat="43.67207" lon="1.37958">
        <ele>126</ele>
        <time>2025-03-23T10:44:59Z</time>
      </trkpt>
      <trkpt lat="43.67208" lon="1.37957">
        <ele>126</ele>
        <time>2025-03-23T10:45:00Z</time>
      </trkpt>
      <trkpt lat="43.67209" lon="1.37955">
        <ele>126</ele>
        <time>2025-03-23T10:45:01Z</time>
      </trkpt>
      <trkpt lat="43.67211" lon="1.37953">
        <ele>126</ele>
        <time>2025-03-23T10:45:02Z</time>
      </trkpt>
      <trkpt lat="43.67213" lon="1.37952">
        <ele>126</ele>
        <time>2025-03-23T10:45:03Z</time>
      </trkpt>
      <trkpt lat="43.67216" lon="1.37951">
        <ele>126</ele>
        <time>2025-03-23T10:45:04Z</time>
      </trkpt>
      <trkpt lat="43.67218" lon="1.37952">
        <ele>126</ele>
        <time>2025-03-23T10:45:05Z</time>
      </trkpt>
      <trkpt lat="43.67221" lon="1.37953">
        <ele>126</ele>
        <time>2025-03-23T10:45:06Z</time>
      </trkpt>
      <trkpt lat="43.67224" lon="1.37954">
        <ele>126</ele>
        <time>2025-03-23T10:45:07Z</time>
      </trkpt>
      <trkpt lat="43.67227" lon="1.37955">
        <ele>126</ele>
        <time>2025-03-23T10:45:08Z</time>
      </trkpt>
      <trkpt lat="43.67228" lon="1.37956">
        <ele>126</ele>
        <time>2025-03-23T10:45:09Z</time>
      </trkpt>
      <trkpt lat="43.6723" lon="1.37957">
        <ele>126</ele>
        <time>2025-03-23T10:45:10Z</time>
      </trkpt>
      <trkpt lat="43.67234" lon="1.37957">
        <ele>126</ele>
        <time>2025-03-23T10:45:11Z</time>
      </trkpt>
      <trkpt lat="43.67235" lon="1.37956">
        <ele>126</ele>
        <time>2025-03-23T10:45:12Z</time>
      </trkpt>
      <trkpt lat="43.67237" lon="1.37955">
        <ele>126</ele>
        <time>2025-03-23T10:45:13Z</time>
      </trkpt>
      <trkpt lat="43.67241" lon="1.37954">
        <ele>126</ele>
        <time>2025-03-23T10:45:14Z</time>
      </trkpt>
      <trkpt lat="43.67243" lon="1.37953">
        <ele>126</ele>
        <time>2025-03-23T10:45:15Z</time>
      </trkpt>
      <trkpt lat="43.67245" lon="1.37951">
        <ele>126</ele>
        <time>2025-03-23T10:45:16Z</time>
      </trkpt>
      <trkpt lat="43.67246" lon="1.37949">
        <ele>126</ele>
        <time>2025-03-23T10:45:17Z</time>
      </trkpt>
      <trkpt lat="43.67249" lon="1.37945">
        <ele>126</ele>
        <time>2025-03-23T10:45:18Z</time>
      </trkpt>
      <trkpt lat="43.6725" lon="1.37943">
        <ele>126</ele>
        <time>2025-03-23T10:45:19Z</time>
      </trkpt>
      <trkpt lat="43.67252" lon="1.37941">
        <ele>126</ele>
        <time>2025-03-23T10:45:20Z</time>
      </trkpt>
      <trkpt lat="43.67255" lon="1.37938">
        <ele>126</ele>
        <time>2025-03-23T10:45:21Z</time>
      </trkpt>
      <trkpt lat="43.67256" lon="1.37936">
        <ele>126</ele>
        <time>2025-03-23T10:45:22Z</time>
      </trkpt>
      <trkpt lat="43.67259" lon="1.37933">
        <ele>126</ele>
        <time>2025-03-23T10:45:23Z</time>
      </trkpt>
      <trkpt lat="43.6726" lon="1.37932">
        <ele>126</ele>
        <time>2025-03-23T10:45:24Z</time>
      </trkpt>
      <trkpt lat="43.67262" lon="1.37929">
        <ele>126</ele>
        <time>2025-03-23T10:45:25Z</time>
      </trkpt>
      <trkpt lat="43.67264" lon="1.37928">
        <ele>126</ele>
        <time>2025-03-23T10:45:26Z</time>
      </trkpt>
      <trkpt lat="43.67267" lon="1.37925">
        <ele>126</ele>
        <time>2025-03-23T10:45:27Z</time>
      </trkpt>
      <trkpt lat="43.67268" lon="1.37924">
        <ele>126</ele>
        <time>2025-03-23T10:45:28Z</time>
      </trkpt>
      <trkpt lat="43.67269" lon="1.37922">
        <ele>125</ele>
        <time>2025-03-23T10:45:29Z</time>
      </trkpt>
      <trkpt lat="43.67271" lon="1.3792">
        <ele>126</ele>
        <time>2025-03-23T10:45:30Z</time>
      </trkpt>
      <trkpt lat="43.67271" lon="1.3792">
        <ele>126</ele>
        <time>2025-03-23T10:45:31Z</time>
      </trkpt>
      <trkpt lat="43.67274" lon="1.37914">
        <ele>126</ele>
        <time>2025-03-23T10:45:32Z</time>
      </trkpt>
      <trkpt lat="43.67274" lon="1.37912">
        <ele>126</ele>
        <time>2025-03-23T10:45:33Z</time>
      </trkpt>
      <trkpt lat="43.67276" lon="1.3791">
        <ele>126</ele>
        <time>2025-03-23T10:45:34Z</time>
      </trkpt>
      <trkpt lat="43.67276" lon="1.37905">
        <ele>126</ele>
        <time>2025-03-23T10:45:35Z</time>
      </trkpt>
      <trkpt lat="43.67276" lon="1.37903">
        <ele>126</ele>
        <time>2025-03-23T10:45:36Z</time>
      </trkpt>
      <trkpt lat="43.67277" lon="1.37899">
        <ele>126</ele>
        <time>2025-03-23T10:45:37Z</time>
      </trkpt>
      <trkpt lat="43.67278" lon="1.37896">
        <ele>126</ele>
        <time>2025-03-23T10:45:38Z</time>
      </trkpt>
      <trkpt lat="43.67281" lon="1.37893">
        <ele>126</ele>
        <time>2025-03-23T10:45:39Z</time>
      </trkpt>
      <trkpt lat="43.67283" lon="1.37892">
        <ele>126</ele>
        <time>2025-03-23T10:45:40Z</time>
      </trkpt>
      <trkpt lat="43.67285" lon="1.37892">
        <ele>126</ele>
        <time>2025-03-23T10:45:41Z</time>
      </trkpt>
      <trkpt lat="43.67288" lon="1.37891">
        <ele>126</ele>
        <time>2025-03-23T10:45:42Z</time>
      </trkpt>
      <trkpt lat="43.6729" lon="1.3789">
        <ele>126</ele>
        <time>2025-03-23T10:45:43Z</time>
      </trkpt>
      <trkpt lat="43.67292" lon="1.37889">
        <ele>125</ele>
        <time>2025-03-23T10:45:44Z</time>
      </trkpt>
      <trkpt lat="43.67294" lon="1.37888">
        <ele>125</ele>
        <time>2025-03-23T10:45:45Z</time>
      </trkpt>
      <trkpt lat="43.67298" lon="1.37886">
        <ele>125</ele>
        <time>2025-03-23T10:45:46Z</time>
      </trkpt>
      <trkpt lat="43.67299" lon="1.37886">
        <ele>124</ele>
        <time>2025-03-23T10:45:47Z</time>
      </trkpt>
      <trkpt lat="43.67301" lon="1.37884">
        <ele>124</ele>
        <time>2025-03-23T10:45:48Z</time>
      </trkpt>
      <trkpt lat="43.67303" lon="1.37882">
        <ele>124</ele>
        <time>2025-03-23T10:45:49Z</time>
      </trkpt>
      <trkpt lat="43.67305" lon="1.3788">
        <ele>124</ele>
        <time>2025-03-23T10:45:50Z</time>
      </trkpt>
      <trkpt lat="43.67308" lon="1.37878">
        <ele>125</ele>
        <time>2025-03-23T10:45:51Z</time>
      </trkpt>
      <trkpt lat="43.67311" lon="1.37876">
        <ele>125</ele>
        <time>2025-03-23T10:45:52Z</time>
      </trkpt>
      <trkpt lat="43.67312" lon="1.37875">
        <ele>125</ele>
        <time>2025-03-23T10:45:53Z</time>
      </trkpt>
      <trkpt lat="43.67313" lon="1.37873">
        <ele>125</ele>
        <time>2025-03-23T10:45:54Z</time>
      </trkpt>
      <trkpt lat="43.67315" lon="1.37871">
        <ele>125</ele>
        <time>2025-03-23T10:45:55Z</time>
      </trkpt>
      <trkpt lat="43.67316" lon="1.37868">
        <ele>125</ele>
        <time>2025-03-23T10:45:56Z</time>
      </trkpt>
      <trkpt lat="43.67316" lon="1.37866">
        <ele>125</ele>
        <time>2025-03-23T10:45:57Z</time>
      </trkpt>
      <trkpt lat="43.67317" lon="1.37862">
        <ele>125</ele>
        <time>2025-03-23T10:45:58Z</time>
      </trkpt>
      <trkpt lat="43.67318" lon="1.37859">
        <ele>125</ele>
        <time>2025-03-23T10:45:59Z</time>
      </trkpt>
      <trkpt lat="43.6732" lon="1.37856">
        <ele>125</ele>
        <time>2025-03-23T10:46:00Z</time>
      </trkpt>
      <trkpt lat="43.67322" lon="1.37854">
        <ele>125</ele>
        <time>2025-03-23T10:46:01Z</time>
      </trkpt>
      <trkpt lat="43.67323" lon="1.37851">
        <ele>125</ele>
        <time>2025-03-23T10:46:02Z</time>
      </trkpt>
      <trkpt lat="43.67326" lon="1.37849">
        <ele>124</ele>
        <time>2025-03-23T10:46:03Z</time>
      </trkpt>
      <trkpt lat="43.67328" lon="1.37848">
        <ele>124</ele>
        <time>2025-03-23T10:46:04Z</time>
      </trkpt>
      <trkpt lat="43.6733" lon="1.37847">
        <ele>124</ele>
        <time>2025-03-23T10:46:05Z</time>
      </trkpt>
      <trkpt lat="43.67332" lon="1.37845">
        <ele>125</ele>
        <time>2025-03-23T10:46:06Z</time>
      </trkpt>
      <trkpt lat="43.67332" lon="1.37845">
        <ele>125</ele>
        <time>2025-03-23T10:46:07Z</time>
      </trkpt>
      <trkpt lat="43.67333" lon="1.37842">
        <ele>125</ele>
        <time>2025-03-23T10:46:08Z</time>
      </trkpt>
      <trkpt lat="43.67333" lon="1.37839">
        <ele>125</ele>
        <time>2025-03-23T10:46:09Z</time>
      </trkpt>
      <trkpt lat="43.67333" lon="1.37836">
        <ele>125</ele>
        <time>2025-03-23T10:46:10Z</time>
      </trkpt>
      <trkpt lat="43.67334" lon="1.37833">
        <ele>125</ele>
        <time>2025-03-23T10:46:11Z</time>
      </trkpt>
      <trkpt lat="43.67334" lon="1.3783">
        <ele>125</ele>
        <time>2025-03-23T10:46:12Z</time>
      </trkpt>
      <trkpt lat="43.67335" lon="1.37827">
        <ele>125</ele>
        <time>2025-03-23T10:46:13Z</time>
      </trkpt>
      <trkpt lat="43.67336" lon="1.37824">
        <ele>125</ele>
        <time>2025-03-23T10:46:14Z</time>
      </trkpt>
      <trkpt lat="43.67336" lon="1.37824">
        <ele>125</ele>
        <time>2025-03-23T10:46:15Z</time>
      </trkpt>
      <trkpt lat="43.67336" lon="1.37821">
        <ele>126</ele>
        <time>2025-03-23T10:46:16Z</time>
      </trkpt>
      <trkpt lat="43.67336" lon="1.37821">
        <ele>126</ele>
        <time>2025-03-23T10:46:17Z</time>
      </trkpt>
      <trkpt lat="43.67335" lon="1.37817">
        <ele>126</ele>
        <time>2025-03-23T10:46:18Z</time>
      </trkpt>
      <trkpt lat="43.67334" lon="1.37814">
        <ele>126</ele>
        <time>2025-03-23T10:46:19Z</time>
      </trkpt>
      <trkpt lat="43.67332" lon="1.3781">
        <ele>126</ele>
        <time>2025-03-23T10:46:20Z</time>
      </trkpt>
      <trkpt lat="43.6733" lon="1.37806">
        <ele>126</ele>
        <time>2025-03-23T10:46:21Z</time>
      </trkpt>
      <trkpt lat="43.67329" lon="1.37804">
        <ele>125</ele>
        <time>2025-03-23T10:46:22Z</time>
      </trkpt>
      <trkpt lat="43.67328" lon="1.37802">
        <ele>125</ele>
        <time>2025-03-23T10:46:23Z</time>
      </trkpt>
      <trkpt lat="43.67326" lon="1.37798">
        <ele>125</ele>
        <time>2025-03-23T10:46:24Z</time>
      </trkpt>
      <trkpt lat="43.67326" lon="1.37797">
        <ele>124</ele>
        <time>2025-03-23T10:46:25Z</time>
      </trkpt>
      <trkpt lat="43.67325" lon="1.37794">
        <ele>124</ele>
        <time>2025-03-23T10:46:26Z</time>
      </trkpt>
      <trkpt lat="43.67324" lon="1.37791">
        <ele>124</ele>
        <time>2025-03-23T10:46:27Z</time>
      </trkpt>
      <trkpt lat="43.67324" lon="1.37788">
        <ele>124</ele>
        <time>2025-03-23T10:46:28Z</time>
      </trkpt>
      <trkpt lat="43.67323" lon="1.37785">
        <ele>124</ele>
        <time>2025-03-23T10:46:29Z</time>
      </trkpt>
      <trkpt lat="43.67323" lon="1.37782">
        <ele>124</ele>
        <time>2025-03-23T10:46:30Z</time>
      </trkpt>
      <trkpt lat="43.67324" lon="1.37779">
        <ele>124</ele>
        <time>2025-03-23T10:46:31Z</time>
      </trkpt>
      <trkpt lat="43.67325" lon="1.37776">
        <ele>124</ele>
        <time>2025-03-23T10:46:32Z</time>
      </trkpt>
      <trkpt lat="43.67327" lon="1.37773">
        <ele>124</ele>
        <time>2025-03-23T10:46:33Z</time>
      </trkpt>
      <trkpt lat="43.67329" lon="1.3777">
        <ele>124</ele>
        <time>2025-03-23T10:46:34Z</time>
      </trkpt>
      <trkpt lat="43.6733" lon="1.37767">
        <ele>123</ele>
        <time>2025-03-23T10:46:35Z</time>
      </trkpt>
      <trkpt lat="43.67332" lon="1.37763">
        <ele>123</ele>
        <time>2025-03-23T10:46:36Z</time>
      </trkpt>
      <trkpt lat="43.67335" lon="1.37758">
        <ele>123</ele>
        <time>2025-03-23T10:46:37Z</time>
      </trkpt>
      <trkpt lat="43.67336" lon="1.37757">
        <ele>123</ele>
        <time>2025-03-23T10:46:38Z</time>
      </trkpt>
      <trkpt lat="43.67337" lon="1.37754">
        <ele>123</ele>
        <time>2025-03-23T10:46:39Z</time>
      </trkpt>
      <trkpt lat="43.67339" lon="1.37752">
        <ele>123</ele>
        <time>2025-03-23T10:46:40Z</time>
      </trkpt>
      <trkpt lat="43.6734" lon="1.37749">
        <ele>123</ele>
        <time>2025-03-23T10:46:41Z</time>
      </trkpt>
      <trkpt lat="43.67341" lon="1.37746">
        <ele>123</ele>
        <time>2025-03-23T10:46:42Z</time>
      </trkpt>
      <trkpt lat="43.67343" lon="1.37742">
        <ele>123</ele>
        <time>2025-03-23T10:46:43Z</time>
      </trkpt>
      <trkpt lat="43.67344" lon="1.3774">
        <ele>123</ele>
        <time>2025-03-23T10:46:44Z</time>
      </trkpt>
      <trkpt lat="43.67345" lon="1.37738">
        <ele>123</ele>
        <time>2025-03-23T10:46:45Z</time>
      </trkpt>
      <trkpt lat="43.67347" lon="1.37736">
        <ele>123</ele>
        <time>2025-03-23T10:46:46Z</time>
      </trkpt>
      <trkpt lat="43.67349" lon="1.37734">
        <ele>123</ele>
        <time>2025-03-23T10:46:47Z</time>
      </trkpt>
      <trkpt lat="43.67351" lon="1.37731">
        <ele>123</ele>
        <time>2025-03-23T10:46:48Z</time>
      </trkpt>
      <trkpt lat="43.67353" lon="1.37728">
        <ele>123</ele>
        <time>2025-03-23T10:46:49Z</time>
      </trkpt>
      <trkpt lat="43.67355" lon="1.37725">
        <ele>123</ele>
        <time>2025-03-23T10:46:50Z</time>
      </trkpt>
      <trkpt lat="43.67356" lon="1.37723">
        <ele>123</ele>
        <time>2025-03-23T10:46:51Z</time>
      </trkpt>
      <trkpt lat="43.67358" lon="1.3772">
        <ele>123</ele>
        <time>2025-03-23T10:46:52Z</time>
      </trkpt>
      <trkpt lat="43.6736" lon="1.37718">
        <ele>123</ele>
        <time>2025-03-23T10:46:53Z</time>
      </trkpt>
      <trkpt lat="43.67362" lon="1.37715">
        <ele>123</ele>
        <time>2025-03-23T10:46:54Z</time>
      </trkpt>
      <trkpt lat="43.67365" lon="1.37713">
        <ele>123</ele>
        <time>2025-03-23T10:46:55Z</time>
      </trkpt>
      <trkpt lat="43.67367" lon="1.37712">
        <ele>123</ele>
        <time>2025-03-23T10:46:56Z</time>
      </trkpt>
      <trkpt lat="43.67369" lon="1.3771">
        <ele>123</ele>
        <time>2025-03-23T10:46:57Z</time>
      </trkpt>
      <trkpt lat="43.67371" lon="1.37707">
        <ele>123</ele>
        <time>2025-03-23T10:46:58Z</time>
      </trkpt>
      <trkpt lat="43.67373" lon="1.37706">
        <ele>123</ele>
        <time>2025-03-23T10:46:59Z</time>
      </trkpt>
      <trkpt lat="43.67376" lon="1.37704">
        <ele>122</ele>
        <time>2025-03-23T10:47:00Z</time>
      </trkpt>
      <trkpt lat="43.67378" lon="1.37703">
        <ele>123</ele>
        <time>2025-03-23T10:47:01Z</time>
      </trkpt>
      <trkpt lat="43.67381" lon="1.37699">
        <ele>123</ele>
        <time>2025-03-23T10:47:02Z</time>
      </trkpt>
      <trkpt lat="43.67382" lon="1.37698">
        <ele>123</ele>
        <time>2025-03-23T10:47:03Z</time>
      </trkpt>
      <trkpt lat="43.67383" lon="1.37695">
        <ele>123</ele>
        <time>2025-03-23T10:47:04Z</time>
      </trkpt>
      <trkpt lat="43.67386" lon="1.3769">
        <ele>123</ele>
        <time>2025-03-23T10:47:05Z</time>
      </trkpt>
      <trkpt lat="43.67387" lon="1.37688">
        <ele>123</ele>
        <time>2025-03-23T10:47:06Z</time>
      </trkpt>
      <trkpt lat="43.67389" lon="1.37685">
        <ele>123</ele>
        <time>2025-03-23T10:47:07Z</time>
      </trkpt>
      <trkpt lat="43.67392" lon="1.37683">
        <ele>123</ele>
        <time>2025-03-23T10:47:08Z</time>
      </trkpt>
      <trkpt lat="43.67394" lon="1.37681">
        <ele>123</ele>
        <time>2025-03-23T10:47:09Z</time>
      </trkpt>
      <trkpt lat="43.67396" lon="1.37678">
        <ele>123</ele>
        <time>2025-03-23T10:47:10Z</time>
      </trkpt>
      <trkpt lat="43.67398" lon="1.37676">
        <ele>123</ele>
        <time>2025-03-23T10:47:11Z</time>
      </trkpt>
      <trkpt lat="43.674" lon="1.37674">
        <ele>123</ele>
        <time>2025-03-23T10:47:12Z</time>
      </trkpt>
      <trkpt lat="43.67403" lon="1.37672">
        <ele>123</ele>
        <time>2025-03-23T10:47:13Z</time>
      </trkpt>
      <trkpt lat="43.67405" lon="1.37668">
        <ele>123</ele>
        <time>2025-03-23T10:47:14Z</time>
      </trkpt>
      <trkpt lat="43.67406" lon="1.37666">
        <ele>123</ele>
        <time>2025-03-23T10:47:15Z</time>
      </trkpt>
      <trkpt lat="43.67408" lon="1.37664">
        <ele>123</ele>
        <time>2025-03-23T10:47:16Z</time>
      </trkpt>
      <trkpt lat="43.6741" lon="1.37662">
        <ele>123</ele>
        <time>2025-03-23T10:47:17Z</time>
      </trkpt>
      <trkpt lat="43.67412" lon="1.37661">
        <ele>123</ele>
        <time>2025-03-23T10:47:18Z</time>
      </trkpt>
      <trkpt lat="43.67415" lon="1.37661">
        <ele>124</ele>
        <time>2025-03-23T10:47:19Z</time>
      </trkpt>
      <trkpt lat="43.67417" lon="1.37659">
        <ele>124</ele>
        <time>2025-03-23T10:47:20Z</time>
      </trkpt>
      <trkpt lat="43.6742" lon="1.37657">
        <ele>124</ele>
        <time>2025-03-23T10:47:21Z</time>
      </trkpt>
      <trkpt lat="43.67421" lon="1.37656">
        <ele>124</ele>
        <time>2025-03-23T10:47:22Z</time>
      </trkpt>
      <trkpt lat="43.67423" lon="1.37654">
        <ele>124</ele>
        <time>2025-03-23T10:47:23Z</time>
      </trkpt>
      <trkpt lat="43.67425" lon="1.37652">
        <ele>124</ele>
        <time>2025-03-23T10:47:24Z</time>
      </trkpt>
      <trkpt lat="43.67427" lon="1.3765">
        <ele>124</ele>
        <time>2025-03-23T10:47:25Z</time>
      </trkpt>
      <trkpt lat="43.6743" lon="1.37647">
        <ele>124</ele>
        <time>2025-03-23T10:47:26Z</time>
      </trkpt>
      <trkpt lat="43.67431" lon="1.37646">
        <ele>124</ele>
        <time>2025-03-23T10:47:27Z</time>
      </trkpt>
      <trkpt lat="43.67433" lon="1.37643">
        <ele>124</ele>
        <time>2025-03-23T10:47:28Z</time>
      </trkpt>
      <trkpt lat="43.67435" lon="1.37641">
        <ele>124</ele>
        <time>2025-03-23T10:47:29Z</time>
      </trkpt>
      <trkpt lat="43.67437" lon="1.37638">
        <ele>124</ele>
        <time>2025-03-23T10:47:30Z</time>
      </trkpt>
      <trkpt lat="43.67439" lon="1.37636">
        <ele>124</ele>
        <time>2025-03-23T10:47:31Z</time>
      </trkpt>
      <trkpt lat="43.67441" lon="1.37633">
        <ele>124</ele>
        <time>2025-03-23T10:47:32Z</time>
      </trkpt>
      <trkpt lat="43.67444" lon="1.37629">
        <ele>123</ele>
        <time>2025-03-23T10:47:33Z</time>
      </trkpt>
      <trkpt lat="43.67445" lon="1.37628">
        <ele>123</ele>
        <time>2025-03-23T10:47:34Z</time>
      </trkpt>
      <trkpt lat="43.67446" lon="1.37627">
        <ele>124</ele>
        <time>2025-03-23T10:47:35Z</time>
      </trkpt>
      <trkpt lat="43.67448" lon="1.37624">
        <ele>124</ele>
        <time>2025-03-23T10:47:36Z</time>
      </trkpt>
      <trkpt lat="43.6745" lon="1.37621">
        <ele>124</ele>
        <time>2025-03-23T10:47:37Z</time>
      </trkpt>
      <trkpt lat="43.67451" lon="1.3762">
        <ele>124</ele>
        <time>2025-03-23T10:47:38Z</time>
      </trkpt>
      <trkpt lat="43.67452" lon="1.37619">
        <ele>124</ele>
        <time>2025-03-23T10:47:39Z</time>
      </trkpt>
      <trkpt lat="43.67456" lon="1.37617">
        <ele>123</ele>
        <time>2025-03-23T10:47:41Z</time>
      </trkpt>
      <trkpt lat="43.67456" lon="1.37617">
        <ele>123</ele>
        <time>2025-03-23T10:47:42Z</time>
      </trkpt>
      <trkpt lat="43.67459" lon="1.37616">
        <ele>124</ele>
        <time>2025-03-23T10:47:43Z</time>
      </trkpt>
      <trkpt lat="43.67461" lon="1.37614">
        <ele>124</ele>
        <time>2025-03-23T10:47:44Z</time>
      </trkpt>
      <trkpt lat="43.67462" lon="1.37612">
        <ele>124</ele>
        <time>2025-03-23T10:47:45Z</time>
      </trkpt>
      <trkpt lat="43.67464" lon="1.37609">
        <ele>124</ele>
        <time>2025-03-23T10:47:46Z</time>
      </trkpt>
      <trkpt lat="43.67465" lon="1.37607">
        <ele>124</ele>
        <time>2025-03-23T10:47:47Z</time>
      </trkpt>
      <trkpt lat="43.67468" lon="1.37605">
        <ele>124</ele>
        <time>2025-03-23T10:47:48Z</time>
      </trkpt>
      <trkpt lat="43.67471" lon="1.37601">
        <ele>123</ele>
        <time>2025-03-23T10:47:49Z</time>
      </trkpt>
      <trkpt lat="43.67472" lon="1.37601">
        <ele>123</ele>
        <time>2025-03-23T10:47:50Z</time>
      </trkpt>
      <trkpt lat="43.67473" lon="1.37599">
        <ele>123</ele>
        <time>2025-03-23T10:47:51Z</time>
      </trkpt>
      <trkpt lat="43.67475" lon="1.37597">
        <ele>123</ele>
        <time>2025-03-23T10:47:52Z</time>
      </trkpt>
      <trkpt lat="43.67477" lon="1.37596">
        <ele>123</ele>
        <time>2025-03-23T10:47:53Z</time>
      </trkpt>
      <trkpt lat="43.67479" lon="1.37595">
        <ele>123</ele>
        <time>2025-03-23T10:47:54Z</time>
      </trkpt>
      <trkpt lat="43.67481" lon="1.37594">
        <ele>123</ele>
        <time>2025-03-23T10:47:55Z</time>
      </trkpt>
      <trkpt lat="43.67483" lon="1.3759">
        <ele>123</ele>
        <time>2025-03-23T10:47:56Z</time>
      </trkpt>
      <trkpt lat="43.67484" lon="1.37588">
        <ele>123</ele>
        <time>2025-03-23T10:47:57Z</time>
      </trkpt>
      <trkpt lat="43.67485" lon="1.37587">
        <ele>124</ele>
        <time>2025-03-23T10:47:58Z</time>
      </trkpt>
      <trkpt lat="43.67488" lon="1.37583">
        <ele>124</ele>
        <time>2025-03-23T10:47:59Z</time>
      </trkpt>
      <trkpt lat="43.67488" lon="1.37582">
        <ele>124</ele>
        <time>2025-03-23T10:48:00Z</time>
      </trkpt>
      <trkpt lat="43.67489" lon="1.3758">
        <ele>124</ele>
        <time>2025-03-23T10:48:01Z</time>
      </trkpt>
      <trkpt lat="43.67491" lon="1.37578">
        <ele>124</ele>
        <time>2025-03-23T10:48:02Z</time>
      </trkpt>
      <trkpt lat="43.67494" lon="1.37576">
        <ele>124</ele>
        <time>2025-03-23T10:48:03Z</time>
      </trkpt>
      <trkpt lat="43.67496" lon="1.37574">
        <ele>123</ele>
        <time>2025-03-23T10:48:04Z</time>
      </trkpt>
      <trkpt lat="43.67498" lon="1.37572">
        <ele>123</ele>
        <time>2025-03-23T10:48:05Z</time>
      </trkpt>
      <trkpt lat="43.675" lon="1.3757">
        <ele>123</ele>
        <time>2025-03-23T10:48:06Z</time>
      </trkpt>
      <trkpt lat="43.67502" lon="1.37568">
        <ele>123</ele>
        <time>2025-03-23T10:48:07Z</time>
      </trkpt>
      <trkpt lat="43.67504" lon="1.37567">
        <ele>123</ele>
        <time>2025-03-23T10:48:08Z</time>
      </trkpt>
      <trkpt lat="43.67507" lon="1.37563">
        <ele>123</ele>
        <time>2025-03-23T10:48:09Z</time>
      </trkpt>
      <trkpt lat="43.67508" lon="1.37562">
        <ele>123</ele>
        <time>2025-03-23T10:48:10Z</time>
      </trkpt>
      <trkpt lat="43.67509" lon="1.3756">
        <ele>123</ele>
        <time>2025-03-23T10:48:11Z</time>
      </trkpt>
      <trkpt lat="43.67512" lon="1.37557">
        <ele>123</ele>
        <time>2025-03-23T10:48:12Z</time>
      </trkpt>
      <trkpt lat="43.67513" lon="1.37557">
        <ele>123</ele>
        <time>2025-03-23T10:48:13Z</time>
      </trkpt>
      <trkpt lat="43.67515" lon="1.37555">
        <ele>123</ele>
        <time>2025-03-23T10:48:14Z</time>
      </trkpt>
      <trkpt lat="43.67518" lon="1.37554">
        <ele>123</ele>
        <time>2025-03-23T10:48:15Z</time>
      </trkpt>
      <trkpt lat="43.67522" lon="1.37551">
        <ele>123</ele>
        <time>2025-03-23T10:48:16Z</time>
      </trkpt>
      <trkpt lat="43.67523" lon="1.3755">
        <ele>123</ele>
        <time>2025-03-23T10:48:17Z</time>
      </trkpt>
      <trkpt lat="43.67525" lon="1.3755">
        <ele>123</ele>
        <time>2025-03-23T10:48:18Z</time>
      </trkpt>
      <trkpt lat="43.67526" lon="1.37548">
        <ele>123</ele>
        <time>2025-03-23T10:48:19Z</time>
      </trkpt>
      <trkpt lat="43.67529" lon="1.37546">
        <ele>123</ele>
        <time>2025-03-23T10:48:20Z</time>
      </trkpt>
      <trkpt lat="43.67532" lon="1.37545">
        <ele>123</ele>
        <time>2025-03-23T10:48:21Z</time>
      </trkpt>
      <trkpt lat="43.67535" lon="1.37542">
        <ele>123</ele>
        <time>2025-03-23T10:48:22Z</time>
      </trkpt>
      <trkpt lat="43.67537" lon="1.3754">
        <ele>123</ele>
        <time>2025-03-23T10:48:23Z</time>
      </trkpt>
      <trkpt lat="43.6754" lon="1.37538">
        <ele>123</ele>
        <time>2025-03-23T10:48:24Z</time>
      </trkpt>
      <trkpt lat="43.67543" lon="1.37535">
        <ele>123</ele>
        <time>2025-03-23T10:48:25Z</time>
      </trkpt>
      <trkpt lat="43.67544" lon="1.37532">
        <ele>123</ele>
        <time>2025-03-23T10:48:26Z</time>
      </trkpt>
      <trkpt lat="43.67546" lon="1.3753">
        <ele>123</ele>
        <time>2025-03-23T10:48:27Z</time>
      </trkpt>
      <trkpt lat="43.67548" lon="1.37528">
        <ele>123</ele>
        <time>2025-03-23T10:48:28Z</time>
      </trkpt>
      <trkpt lat="43.6755" lon="1.37526">
        <ele>123</ele>
        <time>2025-03-23T10:48:29Z</time>
      </trkpt>
      <trkpt lat="43.67552" lon="1.37523">
        <ele>123</ele>
        <time>2025-03-23T10:48:30Z</time>
      </trkpt>
      <trkpt lat="43.67554" lon="1.37521">
        <ele>123</ele>
        <time>2025-03-23T10:48:31Z</time>
      </trkpt>
      <trkpt lat="43.67556" lon="1.37519">
        <ele>123</ele>
        <time>2025-03-23T10:48:32Z</time>
      </trkpt>
      <trkpt lat="43.67559" lon="1.37517">
        <ele>123</ele>
        <time>2025-03-23T10:48:33Z</time>
      </trkpt>
      <trkpt lat="43.67562" lon="1.37516">
        <ele>123</ele>
        <time>2025-03-23T10:48:34Z</time>
      </trkpt>
      <trkpt lat="43.67564" lon="1.37513">
        <ele>122</ele>
        <time>2025-03-23T10:48:35Z</time>
      </trkpt>
      <trkpt lat="43.67568" lon="1.3751">
        <ele>122</ele>
        <time>2025-03-23T10:48:36Z</time>
      </trkpt>
      <trkpt lat="43.67569" lon="1.37509">
        <ele>122</ele>
        <time>2025-03-23T10:48:37Z</time>
      </trkpt>
      <trkpt lat="43.6757" lon="1.37508">
        <ele>123</ele>
        <time>2025-03-23T10:48:38Z</time>
      </trkpt>
      <trkpt lat="43.67572" lon="1.37506">
        <ele>123</ele>
        <time>2025-03-23T10:48:39Z</time>
      </trkpt>
      <trkpt lat="43.67573" lon="1.37504">
        <ele>123</ele>
        <time>2025-03-23T10:48:40Z</time>
      </trkpt>
      <trkpt lat="43.67574" lon="1.37502">
        <ele>122</ele>
        <time>2025-03-23T10:48:41Z</time>
      </trkpt>
      <trkpt lat="43.67576" lon="1.37501">
        <ele>123</ele>
        <time>2025-03-23T10:48:42Z</time>
      </trkpt>
      <trkpt lat="43.67577" lon="1.37499">
        <ele>123</ele>
        <time>2025-03-23T10:48:43Z</time>
      </trkpt>
      <trkpt lat="43.67579" lon="1.37498">
        <ele>123</ele>
        <time>2025-03-23T10:48:44Z</time>
      </trkpt>
      <trkpt lat="43.67583" lon="1.37495">
        <ele>123</ele>
        <time>2025-03-23T10:48:45Z</time>
      </trkpt>
      <trkpt lat="43.67583" lon="1.37494">
        <ele>123</ele>
        <time>2025-03-23T10:48:46Z</time>
      </trkpt>
      <trkpt lat="43.67586" lon="1.37492">
        <ele>123</ele>
        <time>2025-03-23T10:48:47Z</time>
      </trkpt>
      <trkpt lat="43.67589" lon="1.37491">
        <ele>123</ele>
        <time>2025-03-23T10:48:48Z</time>
      </trkpt>
      <trkpt lat="43.67592" lon="1.3749">
        <ele>123</ele>
        <time>2025-03-23T10:48:49Z</time>
      </trkpt>
      <trkpt lat="43.67595" lon="1.37488">
        <ele>123</ele>
        <time>2025-03-23T10:48:50Z</time>
      </trkpt>
      <trkpt lat="43.67597" lon="1.37487">
        <ele>123</ele>
        <time>2025-03-23T10:48:51Z</time>
      </trkpt>
      <trkpt lat="43.676" lon="1.37486">
        <ele>123</ele>
        <time>2025-03-23T10:48:52Z</time>
      </trkpt>
      <trkpt lat="43.67603" lon="1.37486">
        <ele>123</ele>
        <time>2025-03-23T10:48:53Z</time>
      </trkpt>
      <trkpt lat="43.67604" lon="1.37487">
        <ele>123</ele>
        <time>2025-03-23T10:48:54Z</time>
      </trkpt>
      <trkpt lat="43.67607" lon="1.37488">
        <ele>123</ele>
        <time>2025-03-23T10:48:55Z</time>
      </trkpt>
      <trkpt lat="43.67609" lon="1.37488">
        <ele>123</ele>
        <time>2025-03-23T10:48:56Z</time>
      </trkpt>
      <trkpt lat="43.67611" lon="1.37489">
        <ele>124</ele>
        <time>2025-03-23T10:48:57Z</time>
      </trkpt>
      <trkpt lat="43.67613" lon="1.37488">
        <ele>124</ele>
        <time>2025-03-23T10:48:58Z</time>
      </trkpt>
      <trkpt lat="43.67615" lon="1.37486">
        <ele>124</ele>
        <time>2025-03-23T10:48:59Z</time>
      </trkpt>
      <trkpt lat="43.67615" lon="1.37486">
        <ele>124</ele>
        <time>2025-03-23T10:49:00Z</time>
      </trkpt>
      <trkpt lat="43.67617" lon="1.37482">
        <ele>124</ele>
        <time>2025-03-23T10:49:01Z</time>
      </trkpt>
      <trkpt lat="43.67617" lon="1.37482">
        <ele>124</ele>
        <time>2025-03-23T10:49:02Z</time>
      </trkpt>
      <trkpt lat="43.67618" lon="1.37479">
        <ele>124</ele>
        <time>2025-03-23T10:49:03Z</time>
      </trkpt>
      <trkpt lat="43.67618" lon="1.37479">
        <ele>124</ele>
        <time>2025-03-23T10:49:04Z</time>
      </trkpt>
      <trkpt lat="43.67618" lon="1.37479">
        <ele>123</ele>
        <time>2025-03-23T10:49:05Z</time>
      </trkpt>
      <trkpt lat="43.67618" lon="1.37475">
        <ele>123</ele>
        <time>2025-03-23T10:49:06Z</time>
      </trkpt>
      <trkpt lat="43.67618" lon="1.37475">
        <ele>123</ele>
        <time>2025-03-23T10:49:07Z</time>
      </trkpt>
      <trkpt lat="43.6762" lon="1.37473">
        <ele>123</ele>
        <time>2025-03-23T10:49:08Z</time>
      </trkpt>
      <trkpt lat="43.6762" lon="1.37473">
        <ele>123</ele>
        <time>2025-03-23T10:49:09Z</time>
      </trkpt>
      <trkpt lat="43.67621" lon="1.37471">
        <ele>123</ele>
        <time>2025-03-23T10:49:10Z</time>
      </trkpt>
      <trkpt lat="43.67623" lon="1.3747">
        <ele>123</ele>
        <time>2025-03-23T10:49:11Z</time>
      </trkpt>
      <trkpt lat="43.67625" lon="1.37469">
        <ele>123</ele>
        <time>2025-03-23T10:49:12Z</time>
      </trkpt>
      <trkpt lat="43.67628" lon="1.37469">
        <ele>124</ele>
        <time>2025-03-23T10:49:13Z</time>
      </trkpt>
      <trkpt lat="43.67631" lon="1.37469">
        <ele>124</ele>
        <time>2025-03-23T10:49:14Z</time>
      </trkpt>
      <trkpt lat="43.67634" lon="1.37472">
        <ele>124</ele>
        <time>2025-03-23T10:49:15Z</time>
      </trkpt>
      <trkpt lat="43.67635" lon="1.37473">
        <ele>125</ele>
        <time>2025-03-23T10:49:16Z</time>
      </trkpt>
      <trkpt lat="43.67637" lon="1.37473">
        <ele>124</ele>
        <time>2025-03-23T10:49:17Z</time>
      </trkpt>
      <trkpt lat="43.67639" lon="1.37473">
        <ele>124</ele>
        <time>2025-03-23T10:49:18Z</time>
      </trkpt>
      <trkpt lat="43.67641" lon="1.37473">
        <ele>124</ele>
        <time>2025-03-23T10:49:19Z</time>
      </trkpt>
      <trkpt lat="43.67643" lon="1.37473">
        <ele>125</ele>
        <time>2025-03-23T10:49:20Z</time>
      </trkpt>
      <trkpt lat="43.67645" lon="1.37471">
        <ele>125</ele>
        <time>2025-03-23T10:49:21Z</time>
      </trkpt>
      <trkpt lat="43.67647" lon="1.37469">
        <ele>125</ele>
        <time>2025-03-23T10:49:22Z</time>
      </trkpt>
      <trkpt lat="43.6765" lon="1.37466">
        <ele>125</ele>
        <time>2025-03-23T10:49:23Z</time>
      </trkpt>
      <trkpt lat="43.67651" lon="1.37465">
        <ele>125</ele>
        <time>2025-03-23T10:49:24Z</time>
      </trkpt>
      <trkpt lat="43.67653" lon="1.37464">
        <ele>125</ele>
        <time>2025-03-23T10:49:25Z</time>
      </trkpt>
      <trkpt lat="43.67656" lon="1.37461">
        <ele>124</ele>
        <time>2025-03-23T10:49:26Z</time>
      </trkpt>
      <trkpt lat="43.67657" lon="1.3746">
        <ele>124</ele>
        <time>2025-03-23T10:49:27Z</time>
      </trkpt>
      <trkpt lat="43.6766" lon="1.37458">
        <ele>124</ele>
        <time>2025-03-23T10:49:28Z</time>
      </trkpt>
      <trkpt lat="43.67662" lon="1.37457">
        <ele>125</ele>
        <time>2025-03-23T10:49:29Z</time>
      </trkpt>
      <trkpt lat="43.67664" lon="1.37457">
        <ele>125</ele>
        <time>2025-03-23T10:49:30Z</time>
      </trkpt>
      <trkpt lat="43.67666" lon="1.37456">
        <ele>125</ele>
        <time>2025-03-23T10:49:31Z</time>
      </trkpt>
      <trkpt lat="43.67668" lon="1.37456">
        <ele>125</ele>
        <time>2025-03-23T10:49:32Z</time>
      </trkpt>
      <trkpt lat="43.6767" lon="1.37456">
        <ele>125</ele>
        <time>2025-03-23T10:49:33Z</time>
      </trkpt>
      <trkpt lat="43.6767" lon="1.37456">
        <ele>125</ele>
        <time>2025-03-23T10:49:34Z</time>
      </trkpt>
      <trkpt lat="43.67673" lon="1.37455">
        <ele>125</ele>
        <time>2025-03-23T10:49:35Z</time>
      </trkpt>
      <trkpt lat="43.67675" lon="1.37454">
        <ele>125</ele>
        <time>2025-03-23T10:49:36Z</time>
      </trkpt>
      <trkpt lat="43.67678" lon="1.37451">
        <ele>125</ele>
        <time>2025-03-23T10:49:37Z</time>
      </trkpt>
      <trkpt lat="43.67679" lon="1.3745">
        <ele>125</ele>
        <time>2025-03-23T10:49:38Z</time>
      </trkpt>
      <trkpt lat="43.6768" lon="1.37448">
        <ele>125</ele>
        <time>2025-03-23T10:49:39Z</time>
      </trkpt>
      <trkpt lat="43.6768" lon="1.37446">
        <ele>125</ele>
        <time>2025-03-23T10:49:40Z</time>
      </trkpt>
      <trkpt lat="43.67681" lon="1.37443">
        <ele>125</ele>
        <time>2025-03-23T10:49:41Z</time>
      </trkpt>
      <trkpt lat="43.67682" lon="1.37441">
        <ele>125</ele>
        <time>2025-03-23T10:49:42Z</time>
      </trkpt>
      <trkpt lat="43.67683" lon="1.37439">
        <ele>125</ele>
        <time>2025-03-23T10:49:43Z</time>
      </trkpt>
      <trkpt lat="43.67685" lon="1.37437">
        <ele>125</ele>
        <time>2025-03-23T10:49:44Z</time>
      </trkpt>
      <trkpt lat="43.67686" lon="1.37435">
        <ele>125</ele>
        <time>2025-03-23T10:49:45Z</time>
      </trkpt>
      <trkpt lat="43.67688" lon="1.37433">
        <ele>125</ele>
        <time>2025-03-23T10:49:46Z</time>
      </trkpt>
      <trkpt lat="43.67688" lon="1.37431">
        <ele>125</ele>
        <time>2025-03-23T10:49:47Z</time>
      </trkpt>
      <trkpt lat="43.67689" lon="1.37429">
        <ele>125</ele>
        <time>2025-03-23T10:49:48Z</time>
      </trkpt>
      <trkpt lat="43.6769" lon="1.37427">
        <ele>125</ele>
        <time>2025-03-23T10:49:49Z</time>
      </trkpt>
      <trkpt lat="43.67691" lon="1.37424">
        <ele>125</ele>
        <time>2025-03-23T10:49:50Z</time>
      </trkpt>
      <trkpt lat="43.67693" lon="1.37421">
        <ele>125</ele>
        <time>2025-03-23T10:49:51Z</time>
      </trkpt>
      <trkpt lat="43.67695" lon="1.37419">
        <ele>125</ele>
        <time>2025-03-23T10:49:52Z</time>
      </trkpt>
      <trkpt lat="43.67697" lon="1.37417">
        <ele>125</ele>
        <time>2025-03-23T10:49:53Z</time>
      </trkpt>
      <trkpt lat="43.67698" lon="1.37416">
        <ele>125</ele>
        <time>2025-03-23T10:49:54Z</time>
      </trkpt>
      <trkpt lat="43.67699" lon="1.37413">
        <ele>125</ele>
        <time>2025-03-23T10:49:55Z</time>
      </trkpt>
      <trkpt lat="43.67701" lon="1.37409">
        <ele>124</ele>
        <time>2025-03-23T10:49:56Z</time>
      </trkpt>
      <trkpt lat="43.67701" lon="1.37407">
        <ele>124</ele>
        <time>2025-03-23T10:49:57Z</time>
      </trkpt>
      <trkpt lat="43.67702" lon="1.37404">
        <ele>124</ele>
        <time>2025-03-23T10:49:58Z</time>
      </trkpt>
      <trkpt lat="43.67704" lon="1.37401">
        <ele>124</ele>
        <time>2025-03-23T10:49:59Z</time>
      </trkpt>
      <trkpt lat="43.67707" lon="1.37397">
        <ele>123</ele>
        <time>2025-03-23T10:50:00Z</time>
      </trkpt>
      <trkpt lat="43.67708" lon="1.37396">
        <ele>123</ele>
        <time>2025-03-23T10:50:01Z</time>
      </trkpt>
      <trkpt lat="43.67711" lon="1.37395">
        <ele>123</ele>
        <time>2025-03-23T10:50:02Z</time>
      </trkpt>
      <trkpt lat="43.67714" lon="1.37394">
        <ele>122</ele>
        <time>2025-03-23T10:50:03Z</time>
      </trkpt>
      <trkpt lat="43.67716" lon="1.37392">
        <ele>123</ele>
        <time>2025-03-23T10:50:04Z</time>
      </trkpt>
      <trkpt lat="43.67718" lon="1.37392">
        <ele>123</ele>
        <time>2025-03-23T10:50:05Z</time>
      </trkpt>
      <trkpt lat="43.6772" lon="1.37391">
        <ele>123</ele>
        <time>2025-03-23T10:50:06Z</time>
      </trkpt>
      <trkpt lat="43.67722" lon="1.37391">
        <ele>123</ele>
        <time>2025-03-23T10:50:07Z</time>
      </trkpt>
      <trkpt lat="43.67722" lon="1.37391">
        <ele>123</ele>
        <time>2025-03-23T10:50:08Z</time>
      </trkpt>
      <trkpt lat="43.67727" lon="1.37391">
        <ele>123</ele>
        <time>2025-03-23T10:50:09Z</time>
      </trkpt>
      <trkpt lat="43.67728" lon="1.37391">
        <ele>123</ele>
        <time>2025-03-23T10:50:10Z</time>
      </trkpt>
      <trkpt lat="43.6773" lon="1.3739">
        <ele>123</ele>
        <time>2025-03-23T10:50:11Z</time>
      </trkpt>
      <trkpt lat="43.67735" lon="1.37387">
        <ele>123</ele>
        <time>2025-03-23T10:50:13Z</time>
      </trkpt>
      <trkpt lat="43.67737" lon="1.37386">
        <ele>123</ele>
        <time>2025-03-23T10:50:14Z</time>
      </trkpt>
      <trkpt lat="43.67739" lon="1.37384">
        <ele>123</ele>
        <time>2025-03-23T10:50:15Z</time>
      </trkpt>
      <trkpt lat="43.67741" lon="1.37383">
        <ele>123</ele>
        <time>2025-03-23T10:50:16Z</time>
      </trkpt>
      <trkpt lat="43.67744" lon="1.37382">
        <ele>123</ele>
        <time>2025-03-23T10:50:17Z</time>
      </trkpt>
      <trkpt lat="43.67746" lon="1.37379">
        <ele>124</ele>
        <time>2025-03-23T10:50:18Z</time>
      </trkpt>
      <trkpt lat="43.67747" lon="1.37377">
        <ele>124</ele>
        <time>2025-03-23T10:50:19Z</time>
      </trkpt>
      <trkpt lat="43.6775" lon="1.37375">
        <ele>124</ele>
        <time>2025-03-23T10:50:20Z</time>
      </trkpt>
      <trkpt lat="43.67751" lon="1.37374">
        <ele>124</ele>
        <time>2025-03-23T10:50:21Z</time>
      </trkpt>
      <trkpt lat="43.67753" lon="1.37373">
        <ele>124</ele>
        <time>2025-03-23T10:50:22Z</time>
      </trkpt>
      <trkpt lat="43.67755" lon="1.37371">
        <ele>124</ele>
        <time>2025-03-23T10:50:23Z</time>
      </trkpt>
      <trkpt lat="43.67758" lon="1.37368">
        <ele>124</ele>
        <time>2025-03-23T10:50:24Z</time>
      </trkpt>
      <trkpt lat="43.67759" lon="1.37366">
        <ele>124</ele>
        <time>2025-03-23T10:50:25Z</time>
      </trkpt>
      <trkpt lat="43.6776" lon="1.37364">
        <ele>124</ele>
        <time>2025-03-23T10:50:26Z</time>
      </trkpt>
      <trkpt lat="43.67762" lon="1.3736">
        <ele>124</ele>
        <time>2025-03-23T10:50:27Z</time>
      </trkpt>
      <trkpt lat="43.67763" lon="1.37359">
        <ele>124</ele>
        <time>2025-03-23T10:50:28Z</time>
      </trkpt>
      <trkpt lat="43.67765" lon="1.37357">
        <ele>124</ele>
        <time>2025-03-23T10:50:29Z</time>
      </trkpt>
      <trkpt lat="43.67768" lon="1.37355">
        <ele>124</ele>
        <time>2025-03-23T10:50:30Z</time>
      </trkpt>
      <trkpt lat="43.67771" lon="1.37354">
        <ele>124</ele>
        <time>2025-03-23T10:50:31Z</time>
      </trkpt>
      <trkpt lat="43.67773" lon="1.37354">
        <ele>125</ele>
        <time>2025-03-23T10:50:32Z</time>
      </trkpt>
      <trkpt lat="43.67775" lon="1.37354">
        <ele>125</ele>
        <time>2025-03-23T10:50:33Z</time>
      </trkpt>
      <trkpt lat="43.67777" lon="1.37352">
        <ele>125</ele>
        <time>2025-03-23T10:50:34Z</time>
      </trkpt>
      <trkpt lat="43.67779" lon="1.37351">
        <ele>125</ele>
        <time>2025-03-23T10:50:35Z</time>
      </trkpt>
      <trkpt lat="43.67781" lon="1.37349">
        <ele>125</ele>
        <time>2025-03-23T10:50:36Z</time>
      </trkpt>
      <trkpt lat="43.67784" lon="1.37348">
        <ele>125</ele>
        <time>2025-03-23T10:50:37Z</time>
      </trkpt>
      <trkpt lat="43.67787" lon="1.37345">
        <ele>125</ele>
        <time>2025-03-23T10:50:38Z</time>
      </trkpt>
      <trkpt lat="43.67787" lon="1.37344">
        <ele>124</ele>
        <time>2025-03-23T10:50:39Z</time>
      </trkpt>
      <trkpt lat="43.67789" lon="1.37342">
        <ele>124</ele>
        <time>2025-03-23T10:50:40Z</time>
      </trkpt>
      <trkpt lat="43.6779" lon="1.37338">
        <ele>124</ele>
        <time>2025-03-23T10:50:41Z</time>
      </trkpt>
      <trkpt lat="43.67791" lon="1.37336">
        <ele>124</ele>
        <time>2025-03-23T10:50:42Z</time>
      </trkpt>
      <trkpt lat="43.67793" lon="1.37333">
        <ele>125</ele>
        <time>2025-03-23T10:50:43Z</time>
      </trkpt>
      <trkpt lat="43.67795" lon="1.37331">
        <ele>125</ele>
        <time>2025-03-23T10:50:44Z</time>
      </trkpt>
      <trkpt lat="43.67797" lon="1.3733">
        <ele>125</ele>
        <time>2025-03-23T10:50:45Z</time>
      </trkpt>
      <trkpt lat="43.678" lon="1.37328">
        <ele>125</ele>
        <time>2025-03-23T10:50:46Z</time>
      </trkpt>
      <trkpt lat="43.67802" lon="1.37327">
        <ele>125</ele>
        <time>2025-03-23T10:50:47Z</time>
      </trkpt>
      <trkpt lat="43.67804" lon="1.37325">
        <ele>124</ele>
        <time>2025-03-23T10:50:48Z</time>
      </trkpt>
      <trkpt lat="43.67805" lon="1.37323">
        <ele>124</ele>
        <time>2025-03-23T10:50:49Z</time>
      </trkpt>
      <trkpt lat="43.67807" lon="1.37321">
        <ele>124</ele>
        <time>2025-03-23T10:50:50Z</time>
      </trkpt>
      <trkpt lat="43.67809" lon="1.37319">
        <ele>125</ele>
        <time>2025-03-23T10:50:51Z</time>
      </trkpt>
      <trkpt lat="43.6781" lon="1.37316">
        <ele>125</ele>
        <time>2025-03-23T10:50:52Z</time>
      </trkpt>
      <trkpt lat="43.67812" lon="1.37313">
        <ele>125</ele>
        <time>2025-03-23T10:50:53Z</time>
      </trkpt>
      <trkpt lat="43.67815" lon="1.37312">
        <ele>125</ele>
        <time>2025-03-23T10:50:54Z</time>
      </trkpt>
      <trkpt lat="43.67817" lon="1.3731">
        <ele>124</ele>
        <time>2025-03-23T10:50:55Z</time>
      </trkpt>
      <trkpt lat="43.6782" lon="1.37309">
        <ele>124</ele>
        <time>2025-03-23T10:50:56Z</time>
      </trkpt>
      <trkpt lat="43.67823" lon="1.37308">
        <ele>124</ele>
        <time>2025-03-23T10:50:57Z</time>
      </trkpt>
      <trkpt lat="43.67827" lon="1.37307">
        <ele>124</ele>
        <time>2025-03-23T10:50:58Z</time>
      </trkpt>
      <trkpt lat="43.67828" lon="1.37307">
        <ele>124</ele>
        <time>2025-03-23T10:50:59Z</time>
      </trkpt>
      <trkpt lat="43.6783" lon="1.37309">
        <ele>124</ele>
        <time>2025-03-23T10:51:00Z</time>
      </trkpt>
      <trkpt lat="43.67832" lon="1.37311">
        <ele>124</ele>
        <time>2025-03-23T10:51:01Z</time>
      </trkpt>
      <trkpt lat="43.67833" lon="1.37313">
        <ele>124</ele>
        <time>2025-03-23T10:51:02Z</time>
      </trkpt>
      <trkpt lat="43.67835" lon="1.37315">
        <ele>125</ele>
        <time>2025-03-23T10:51:03Z</time>
      </trkpt>
      <trkpt lat="43.67835" lon="1.37315">
        <ele>125</ele>
        <time>2025-03-23T10:51:04Z</time>
      </trkpt>
      <trkpt lat="43.67838" lon="1.37316">
        <ele>126</ele>
        <time>2025-03-23T10:51:05Z</time>
      </trkpt>
      <trkpt lat="43.6784" lon="1.37314">
        <ele>126</ele>
        <time>2025-03-23T10:51:06Z</time>
      </trkpt>
      <trkpt lat="43.67841" lon="1.37311">
        <ele>126</ele>
        <time>2025-03-23T10:51:07Z</time>
      </trkpt>
      <trkpt lat="43.67842" lon="1.37308">
        <ele>126</ele>
        <time>2025-03-23T10:51:08Z</time>
      </trkpt>
      <trkpt lat="43.67846" lon="1.37305">
        <ele>126</ele>
        <time>2025-03-23T10:51:09Z</time>
      </trkpt>
      <trkpt lat="43.67847" lon="1.37304">
        <ele>125</ele>
        <time>2025-03-23T10:51:10Z</time>
      </trkpt>
      <trkpt lat="43.67851" lon="1.37301">
        <ele>125</ele>
        <time>2025-03-23T10:51:11Z</time>
      </trkpt>
      <trkpt lat="43.67852" lon="1.373">
        <ele>125</ele>
        <time>2025-03-23T10:51:12Z</time>
      </trkpt>
      <trkpt lat="43.67854" lon="1.37299">
        <ele>125</ele>
        <time>2025-03-23T10:51:13Z</time>
      </trkpt>
      <trkpt lat="43.67857" lon="1.37298">
        <ele>125</ele>
        <time>2025-03-23T10:51:14Z</time>
      </trkpt>
      <trkpt lat="43.6786" lon="1.37298">
        <ele>125</ele>
        <time>2025-03-23T10:51:15Z</time>
      </trkpt>
      <trkpt lat="43.67862" lon="1.37299">
        <ele>125</ele>
        <time>2025-03-23T10:51:16Z</time>
      </trkpt>
      <trkpt lat="43.67865" lon="1.37299">
        <ele>125</ele>
        <time>2025-03-23T10:51:17Z</time>
      </trkpt>
      <trkpt lat="43.67867" lon="1.37298">
        <ele>125</ele>
        <time>2025-03-23T10:51:18Z</time>
      </trkpt>
      <trkpt lat="43.67868" lon="1.37296">
        <ele>125</ele>
        <time>2025-03-23T10:51:19Z</time>
      </trkpt>
      <trkpt lat="43.6787" lon="1.37293">
        <ele>125</ele>
        <time>2025-03-23T10:51:20Z</time>
      </trkpt>
      <trkpt lat="43.67872" lon="1.37291">
        <ele>125</ele>
        <time>2025-03-23T10:51:21Z</time>
      </trkpt>
      <trkpt lat="43.67874" lon="1.3729">
        <ele>125</ele>
        <time>2025-03-23T10:51:22Z</time>
      </trkpt>
      <trkpt lat="43.67874" lon="1.37287">
        <ele>125</ele>
        <time>2025-03-23T10:51:23Z</time>
      </trkpt>
      <trkpt lat="43.67875" lon="1.37285">
        <ele>125</ele>
        <time>2025-03-23T10:51:24Z</time>
      </trkpt>
      <trkpt lat="43.67876" lon="1.37281">
        <ele>125</ele>
        <time>2025-03-23T10:51:25Z</time>
      </trkpt>
      <trkpt lat="43.67879" lon="1.37278">
        <ele>125</ele>
        <time>2025-03-23T10:51:26Z</time>
      </trkpt>
      <trkpt lat="43.6788" lon="1.37277">
        <ele>125</ele>
        <time>2025-03-23T10:51:27Z</time>
      </trkpt>
      <trkpt lat="43.67881" lon="1.37276">
        <ele>125</ele>
        <time>2025-03-23T10:51:29Z</time>
      </trkpt>
      <trkpt lat="43.67881" lon="1.37276">
        <ele>125</ele>
        <time>2025-03-23T10:51:30Z</time>
      </trkpt>
      <trkpt lat="43.67881" lon="1.37279">
        <ele>125</ele>
        <time>2025-03-23T10:51:31Z</time>
      </trkpt>
      <trkpt lat="43.67881" lon="1.37279">
        <ele>125</ele>
        <time>2025-03-23T10:51:32Z</time>
      </trkpt>
      <trkpt lat="43.67881" lon="1.37279">
        <ele>125</ele>
        <time>2025-03-23T10:51:33Z</time>
      </trkpt>
      <trkpt lat="43.67882" lon="1.37281">
        <ele>125</ele>
        <time>2025-03-23T10:51:34Z</time>
      </trkpt>
      <trkpt lat="43.67882" lon="1.37281">
        <ele>125</ele>
        <time>2025-03-23T10:51:35Z</time>
      </trkpt>
      <trkpt lat="43.67882" lon="1.37281">
        <ele>125</ele>
        <time>2025-03-23T10:51:36Z</time>
      </trkpt>
      <trkpt lat="43.67884" lon="1.37281">
        <ele>125</ele>
        <time>2025-03-23T10:51:37Z</time>
      </trkpt>
      <trkpt lat="43.67884" lon="1.37281">
        <ele>125</ele>
        <time>2025-03-23T10:51:38Z</time>
      </trkpt>
      <trkpt lat="43.67887" lon="1.3728">
        <ele>124</ele>
        <time>2025-03-23T10:51:39Z</time>
      </trkpt>
      <trkpt lat="43.67887" lon="1.3728">
        <ele>124</ele>
        <time>2025-03-23T10:51:40Z</time>
      </trkpt>
      <trkpt lat="43.67887" lon="1.3728">
        <ele>124</ele>
        <time>2025-03-23T10:51:41Z</time>
      </trkpt>
      <trkpt lat="43.67889" lon="1.3728">
        <ele>124</ele>
        <time>2025-03-23T10:51:42Z</time>
      </trkpt>
      <trkpt lat="43.67889" lon="1.3728">
        <ele>124</ele>
        <time>2025-03-23T10:51:43Z</time>
      </trkpt>
      <trkpt lat="43.67889" lon="1.3728">
        <ele>124</ele>
        <time>2025-03-23T10:51:44Z</time>
      </trkpt>
      <trkpt lat="43.67891" lon="1.37279">
        <ele>124</ele>
        <time>2025-03-23T10:51:45Z</time>
      </trkpt>
      <trkpt lat="43.67893" lon="1.37278">
        <ele>124</ele>
        <time>2025-03-23T10:51:46Z</time>
      </trkpt>
      <trkpt lat="43.67896" lon="1.37279">
        <ele>124</ele>
        <time>2025-03-23T10:51:47Z</time>
      </trkpt>
      <trkpt lat="43.67897" lon="1.3728">
        <ele>124</ele>
        <time>2025-03-23T10:51:48Z</time>
      </trkpt>
      <trkpt lat="43.67899" lon="1.37282">
        <ele>124</ele>
        <time>2025-03-23T10:51:49Z</time>
      </trkpt>
      <trkpt lat="43.67901" lon="1.37283">
        <ele>124</ele>
        <time>2025-03-23T10:51:50Z</time>
      </trkpt>
      <trkpt lat="43.67904" lon="1.37283">
        <ele>124</ele>
        <time>2025-03-23T10:51:51Z</time>
      </trkpt>
      <trkpt lat="43.67905" lon="1.37283">
        <ele>124</ele>
        <time>2025-03-23T10:51:52Z</time>
      </trkpt>
      <trkpt lat="43.67907" lon="1.37283">
        <ele>124</ele>
        <time>2025-03-23T10:51:53Z</time>
      </trkpt>
      <trkpt lat="43.67911" lon="1.37282">
        <ele>123</ele>
        <time>2025-03-23T10:51:54Z</time>
      </trkpt>
      <trkpt lat="43.67912" lon="1.37281">
        <ele>123</ele>
        <time>2025-03-23T10:51:55Z</time>
      </trkpt>
      <trkpt lat="43.67914" lon="1.37279">
        <ele>123</ele>
        <time>2025-03-23T10:51:56Z</time>
      </trkpt>
      <trkpt lat="43.67916" lon="1.37277">
        <ele>123</ele>
        <time>2025-03-23T10:51:57Z</time>
      </trkpt>
      <trkpt lat="43.67918" lon="1.37276">
        <ele>123</ele>
        <time>2025-03-23T10:51:58Z</time>
      </trkpt>
      <trkpt lat="43.67921" lon="1.37274">
        <ele>123</ele>
        <time>2025-03-23T10:51:59Z</time>
      </trkpt>
      <trkpt lat="43.67923" lon="1.37274">
        <ele>123</ele>
        <time>2025-03-23T10:52:00Z</time>
      </trkpt>
      <trkpt lat="43.67926" lon="1.37274">
        <ele>123</ele>
        <time>2025-03-23T10:52:01Z</time>
      </trkpt>
      <trkpt lat="43.67928" lon="1.37274">
        <ele>123</ele>
        <time>2025-03-23T10:52:02Z</time>
      </trkpt>
      <trkpt lat="43.67931" lon="1.37274">
        <ele>123</ele>
        <time>2025-03-23T10:52:03Z</time>
      </trkpt>
      <trkpt lat="43.67933" lon="1.37274">
        <ele>123</ele>
        <time>2025-03-23T10:52:04Z</time>
      </trkpt>
      <trkpt lat="43.67936" lon="1.37274">
        <ele>123</ele>
        <time>2025-03-23T10:52:05Z</time>
      </trkpt>
      <trkpt lat="43.6794" lon="1.37276">
        <ele>123</ele>
        <time>2025-03-23T10:52:06Z</time>
      </trkpt>
      <trkpt lat="43.67941" lon="1.37276">
        <ele>124</ele>
        <time>2025-03-23T10:52:07Z</time>
      </trkpt>
      <trkpt lat="43.67944" lon="1.37276">
        <ele>124</ele>
        <time>2025-03-23T10:52:08Z</time>
      </trkpt>
      <trkpt lat="43.67947" lon="1.37277">
        <ele>123</ele>
        <time>2025-03-23T10:52:09Z</time>
      </trkpt>
      <trkpt lat="43.67947" lon="1.37277">
        <ele>123</ele>
        <time>2025-03-23T10:52:10Z</time>
      </trkpt>
      <trkpt lat="43.67951" lon="1.37277">
        <ele>123</ele>
        <time>2025-03-23T10:52:11Z</time>
      </trkpt>
      <trkpt lat="43.67954" lon="1.37276">
        <ele>123</ele>
        <time>2025-03-23T10:52:12Z</time>
      </trkpt>
      <trkpt lat="43.67955" lon="1.37276">
        <ele>123</ele>
        <time>2025-03-23T10:52:13Z</time>
      </trkpt>
      <trkpt lat="43.67958" lon="1.37275">
        <ele>123</ele>
        <time>2025-03-23T10:52:14Z</time>
      </trkpt>
      <trkpt lat="43.67961" lon="1.37275">
        <ele>123</ele>
        <time>2025-03-23T10:52:15Z</time>
      </trkpt>
      <trkpt lat="43.67963" lon="1.37276">
        <ele>123</ele>
        <time>2025-03-23T10:52:16Z</time>
      </trkpt>
      <trkpt lat="43.67965" lon="1.37277">
        <ele>120</ele>
        <time>2025-03-23T10:52:17Z</time>
      </trkpt>
      <trkpt lat="43.67967" lon="1.37278">
        <ele>123</ele>
        <time>2025-03-23T10:52:18Z</time>
      </trkpt>
      <trkpt lat="43.67969" lon="1.37279">
        <ele>123</ele>
        <time>2025-03-23T10:52:19Z</time>
      </trkpt>
      <trkpt lat="43.67969" lon="1.37279">
        <ele>123</ele>
        <time>2025-03-23T10:52:20Z</time>
      </trkpt>
      <trkpt lat="43.67972" lon="1.37281">
        <ele>123</ele>
        <time>2025-03-23T10:52:21Z</time>
      </trkpt>
      <trkpt lat="43.67974" lon="1.37281">
        <ele>124</ele>
        <time>2025-03-23T10:52:22Z</time>
      </trkpt>
      <trkpt lat="43.67975" lon="1.37282">
        <ele>124</ele>
        <time>2025-03-23T10:52:23Z</time>
      </trkpt>
      <trkpt lat="43.67977" lon="1.37283">
        <ele>125</ele>
        <time>2025-03-23T10:52:24Z</time>
      </trkpt>
      <trkpt lat="43.6798" lon="1.37282">
        <ele>125</ele>
        <time>2025-03-23T10:52:26Z</time>
      </trkpt>
      <trkpt lat="43.67982" lon="1.3728">
        <ele>125</ele>
        <time>2025-03-23T10:52:27Z</time>
      </trkpt>
      <trkpt lat="43.67984" lon="1.37278">
        <ele>125</ele>
        <time>2025-03-23T10:52:28Z</time>
      </trkpt>
      <trkpt lat="43.67986" lon="1.37277">
        <ele>125</ele>
        <time>2025-03-23T10:52:29Z</time>
      </trkpt>
      <trkpt lat="43.67988" lon="1.37275">
        <ele>125</ele>
        <time>2025-03-23T10:52:30Z</time>
      </trkpt>
      <trkpt lat="43.6799" lon="1.37273">
        <ele>125</ele>
        <time>2025-03-23T10:52:31Z</time>
      </trkpt>
      <trkpt lat="43.67991" lon="1.37269">
        <ele>125</ele>
        <time>2025-03-23T10:52:32Z</time>
      </trkpt>
      <trkpt lat="43.67992" lon="1.37267">
        <ele>125</ele>
        <time>2025-03-23T10:52:33Z</time>
      </trkpt>
      <trkpt lat="43.67993" lon="1.37265">
        <ele>125</ele>
        <time>2025-03-23T10:52:34Z</time>
      </trkpt>
      <trkpt lat="43.67994" lon="1.37262">
        <ele>125</ele>
        <time>2025-03-23T10:52:35Z</time>
      </trkpt>
      <trkpt lat="43.67994" lon="1.3726">
        <ele>125</ele>
        <time>2025-03-23T10:52:36Z</time>
      </trkpt>
      <trkpt lat="43.67996" lon="1.37258">
        <ele>125</ele>
        <time>2025-03-23T10:52:37Z</time>
      </trkpt>
      <trkpt lat="43.67998" lon="1.37257">
        <ele>125</ele>
        <time>2025-03-23T10:52:38Z</time>
      </trkpt>
      <trkpt lat="43.68001" lon="1.37256">
        <ele>126</ele>
        <time>2025-03-23T10:52:39Z</time>
      </trkpt>
      <trkpt lat="43.68002" lon="1.37256">
        <ele>126</ele>
        <time>2025-03-23T10:52:40Z</time>
      </trkpt>
      <trkpt lat="43.68004" lon="1.37255">
        <ele>125</ele>
        <time>2025-03-23T10:52:41Z</time>
      </trkpt>
      <trkpt lat="43.68006" lon="1.37253">
        <ele>125</ele>
        <time>2025-03-23T10:52:42Z</time>
      </trkpt>
      <trkpt lat="43.68008" lon="1.37252">
        <ele>125</ele>
        <time>2025-03-23T10:52:43Z</time>
      </trkpt>
      <trkpt lat="43.68011" lon="1.37248">
        <ele>125</ele>
        <time>2025-03-23T10:52:44Z</time>
      </trkpt>
      <trkpt lat="43.68012" lon="1.37246">
        <ele>125</ele>
        <time>2025-03-23T10:52:45Z</time>
      </trkpt>
      <trkpt lat="43.68014" lon="1.37244">
        <ele>125</ele>
        <time>2025-03-23T10:52:46Z</time>
      </trkpt>
      <trkpt lat="43.68016" lon="1.37241">
        <ele>125</ele>
        <time>2025-03-23T10:52:47Z</time>
      </trkpt>
      <trkpt lat="43.68017" lon="1.37239">
        <ele>125</ele>
        <time>2025-03-23T10:52:48Z</time>
      </trkpt>
      <trkpt lat="43.68018" lon="1.37234">
        <ele>125</ele>
        <time>2025-03-23T10:52:49Z</time>
      </trkpt>
      <trkpt lat="43.68018" lon="1.37233">
        <ele>125</ele>
        <time>2025-03-23T10:52:50Z</time>
      </trkpt>
      <trkpt lat="43.68019" lon="1.3723">
        <ele>125</ele>
        <time>2025-03-23T10:52:51Z</time>
      </trkpt>
      <trkpt lat="43.68021" lon="1.37226">
        <ele>125</ele>
        <time>2025-03-23T10:52:52Z</time>
      </trkpt>
      <trkpt lat="43.68021" lon="1.37225">
        <ele>125</ele>
        <time>2025-03-23T10:52:53Z</time>
      </trkpt>
      <trkpt lat="43.68023" lon="1.37221">
        <ele>125</ele>
        <time>2025-03-23T10:52:54Z</time>
      </trkpt>
      <trkpt lat="43.68024" lon="1.37218">
        <ele>125</ele>
        <time>2025-03-23T10:52:55Z</time>
      </trkpt>
      <trkpt lat="43.68026" lon="1.37215">
        <ele>125</ele>
        <time>2025-03-23T10:52:56Z</time>
      </trkpt>
      <trkpt lat="43.68029" lon="1.37213">
        <ele>125</ele>
        <time>2025-03-23T10:52:57Z</time>
      </trkpt>
      <trkpt lat="43.68031" lon="1.37211">
        <ele>125</ele>
        <time>2025-03-23T10:52:58Z</time>
      </trkpt>
      <trkpt lat="43.68035" lon="1.37209">
        <ele>125</ele>
        <time>2025-03-23T10:52:59Z</time>
      </trkpt>
      <trkpt lat="43.68036" lon="1.37208">
        <ele>124</ele>
        <time>2025-03-23T10:53:00Z</time>
      </trkpt>
      <trkpt lat="43.68038" lon="1.37206">
        <ele>124</ele>
        <time>2025-03-23T10:53:01Z</time>
      </trkpt>
      <trkpt lat="43.6804" lon="1.37202">
        <ele>124</ele>
        <time>2025-03-23T10:53:02Z</time>
      </trkpt>
      <trkpt lat="43.68042" lon="1.37197">
        <ele>124</ele>
        <time>2025-03-23T10:53:03Z</time>
      </trkpt>
      <trkpt lat="43.68043" lon="1.37195">
        <ele>124</ele>
        <time>2025-03-23T10:53:04Z</time>
      </trkpt>
      <trkpt lat="43.68045" lon="1.37193">
        <ele>124</ele>
        <time>2025-03-23T10:53:05Z</time>
      </trkpt>
      <trkpt lat="43.68047" lon="1.3719">
        <ele>124</ele>
        <time>2025-03-23T10:53:06Z</time>
      </trkpt>
      <trkpt lat="43.68051" lon="1.37188">
        <ele>124</ele>
        <time>2025-03-23T10:53:07Z</time>
      </trkpt>
      <trkpt lat="43.68052" lon="1.37187">
        <ele>124</ele>
        <time>2025-03-23T10:53:08Z</time>
      </trkpt>
      <trkpt lat="43.68054" lon="1.37185">
        <ele>124</ele>
        <time>2025-03-23T10:53:09Z</time>
      </trkpt>
      <trkpt lat="43.68057" lon="1.37183">
        <ele>124</ele>
        <time>2025-03-23T10:53:10Z</time>
      </trkpt>
      <trkpt lat="43.68058" lon="1.37182">
        <ele>124</ele>
        <time>2025-03-23T10:53:11Z</time>
      </trkpt>
      <trkpt lat="43.6806" lon="1.3718">
        <ele>124</ele>
        <time>2025-03-23T10:53:12Z</time>
      </trkpt>
      <trkpt lat="43.68062" lon="1.37178">
        <ele>124</ele>
        <time>2025-03-23T10:53:13Z</time>
      </trkpt>
      <trkpt lat="43.68065" lon="1.37177">
        <ele>124</ele>
        <time>2025-03-23T10:53:14Z</time>
      </trkpt>
      <trkpt lat="43.68067" lon="1.37174">
        <ele>123</ele>
        <time>2025-03-23T10:53:15Z</time>
      </trkpt>
      <trkpt lat="43.68069" lon="1.37172">
        <ele>123</ele>
        <time>2025-03-23T10:53:16Z</time>
      </trkpt>
      <trkpt lat="43.68071" lon="1.37167">
        <ele>123</ele>
        <time>2025-03-23T10:53:17Z</time>
      </trkpt>
      <trkpt lat="43.68072" lon="1.37165">
        <ele>123</ele>
        <time>2025-03-23T10:53:18Z</time>
      </trkpt>
      <trkpt lat="43.68074" lon="1.37163">
        <ele>123</ele>
        <time>2025-03-23T10:53:19Z</time>
      </trkpt>
      <trkpt lat="43.68077" lon="1.3716">
        <ele>123</ele>
        <time>2025-03-23T10:53:20Z</time>
      </trkpt>
      <trkpt lat="43.68079" lon="1.3716">
        <ele>123</ele>
        <time>2025-03-23T10:53:21Z</time>
      </trkpt>
      <trkpt lat="43.68082" lon="1.3716">
        <ele>123</ele>
        <time>2025-03-23T10:53:22Z</time>
      </trkpt>
      <trkpt lat="43.68083" lon="1.37163">
        <ele>123</ele>
        <time>2025-03-23T10:53:23Z</time>
      </trkpt>
      <trkpt lat="43.68084" lon="1.37165">
        <ele>124</ele>
        <time>2025-03-23T10:53:24Z</time>
      </trkpt>
      <trkpt lat="43.68084" lon="1.37165">
        <ele>124</ele>
        <time>2025-03-23T10:53:25Z</time>
      </trkpt>
      <trkpt lat="43.68086" lon="1.37169">
        <ele>124</ele>
        <time>2025-03-23T10:53:26Z</time>
      </trkpt>
      <trkpt lat="43.68087" lon="1.37171">
        <ele>124</ele>
        <time>2025-03-23T10:53:27Z</time>
      </trkpt>
      <trkpt lat="43.68089" lon="1.37173">
        <ele>124</ele>
        <time>2025-03-23T10:53:28Z</time>
      </trkpt>
      <trkpt lat="43.68091" lon="1.37175">
        <ele>124</ele>
        <time>2025-03-23T10:53:29Z</time>
      </trkpt>
      <trkpt lat="43.68093" lon="1.37176">
        <ele>124</ele>
        <time>2025-03-23T10:53:30Z</time>
      </trkpt>
      <trkpt lat="43.68094" lon="1.37178">
        <ele>124</ele>
        <time>2025-03-23T10:53:31Z</time>
      </trkpt>
      <trkpt lat="43.68097" lon="1.3718">
        <ele>124</ele>
        <time>2025-03-23T10:53:32Z</time>
      </trkpt>
      <trkpt lat="43.68098" lon="1.37182">
        <ele>124</ele>
        <time>2025-03-23T10:53:33Z</time>
      </trkpt>
      <trkpt lat="43.68098" lon="1.37184">
        <ele>124</ele>
        <time>2025-03-23T10:53:34Z</time>
      </trkpt>
      <trkpt lat="43.681" lon="1.37187">
        <ele>124</ele>
        <time>2025-03-23T10:53:35Z</time>
      </trkpt>
      <trkpt lat="43.68101" lon="1.37189">
        <ele>124</ele>
        <time>2025-03-23T10:53:36Z</time>
      </trkpt>
      <trkpt lat="43.68102" lon="1.3719">
        <ele>124</ele>
        <time>2025-03-23T10:53:37Z</time>
      </trkpt>
      <trkpt lat="43.68102" lon="1.3719">
        <ele>124</ele>
        <time>2025-03-23T10:53:38Z</time>
      </trkpt>
      <trkpt lat="43.68106" lon="1.3719">
        <ele>124</ele>
        <time>2025-03-23T10:53:39Z</time>
      </trkpt>
      <trkpt lat="43.68106" lon="1.3719">
        <ele>124</ele>
        <time>2025-03-23T10:53:40Z</time>
      </trkpt>
      <trkpt lat="43.68109" lon="1.37191">
        <ele>125</ele>
        <time>2025-03-23T10:53:42Z</time>
      </trkpt>
      <trkpt lat="43.68112" lon="1.37193">
        <ele>126</ele>
        <time>2025-03-23T10:53:43Z</time>
      </trkpt>
      <trkpt lat="43.68114" lon="1.37194">
        <ele>126</ele>
        <time>2025-03-23T10:53:44Z</time>
      </trkpt>
      <trkpt lat="43.68116" lon="1.37194">
        <ele>126</ele>
        <time>2025-03-23T10:53:45Z</time>
      </trkpt>
      <trkpt lat="43.68118" lon="1.37194">
        <ele>127</ele>
        <time>2025-03-23T10:53:46Z</time>
      </trkpt>
      <trkpt lat="43.68118" lon="1.37194">
        <ele>127</ele>
        <time>2025-03-23T10:53:47Z</time>
      </trkpt>
      <trkpt lat="43.68119" lon="1.37199">
        <ele>127</ele>
        <time>2025-03-23T10:53:48Z</time>
      </trkpt>
      <trkpt lat="43.6812" lon="1.37199">
        <ele>127</ele>
        <time>2025-03-23T10:53:49Z</time>
      </trkpt>
      <trkpt lat="43.68121" lon="1.37198">
        <ele>127</ele>
        <time>2025-03-23T10:53:50Z</time>
      </trkpt>
      <trkpt lat="43.68122" lon="1.37198">
        <ele>127</ele>
        <time>2025-03-23T10:53:51Z</time>
      </trkpt>
      <trkpt lat="43.68124" lon="1.37197">
        <ele>127</ele>
        <time>2025-03-23T10:53:52Z</time>
      </trkpt>
      <trkpt lat="43.68125" lon="1.37195">
        <ele>127</ele>
        <time>2025-03-23T10:53:53Z</time>
      </trkpt>
      <trkpt lat="43.68127" lon="1.37193">
        <ele>127</ele>
        <time>2025-03-23T10:53:54Z</time>
      </trkpt>
      <trkpt lat="43.68129" lon="1.37191">
        <ele>127</ele>
        <time>2025-03-23T10:53:55Z</time>
      </trkpt>
      <trkpt lat="43.68131" lon="1.37189">
        <ele>127</ele>
        <time>2025-03-23T10:53:56Z</time>
      </trkpt>
      <trkpt lat="43.68133" lon="1.37187">
        <ele>127</ele>
        <time>2025-03-23T10:53:57Z</time>
      </trkpt>
      <trkpt lat="43.68135" lon="1.37186">
        <ele>127</ele>
        <time>2025-03-23T10:53:58Z</time>
      </trkpt>
      <trkpt lat="43.68137" lon="1.37184">
        <ele>127</ele>
        <time>2025-03-23T10:53:59Z</time>
      </trkpt>
      <trkpt lat="43.6814" lon="1.37181">
        <ele>127</ele>
        <time>2025-03-23T10:54:00Z</time>
      </trkpt>
      <trkpt lat="43.68141" lon="1.3718">
        <ele>127</ele>
        <time>2025-03-23T10:54:01Z</time>
      </trkpt>
      <trkpt lat="43.68143" lon="1.37178">
        <ele>127</ele>
        <time>2025-03-23T10:54:02Z</time>
      </trkpt>
      <trkpt lat="43.68145" lon="1.37175">
        <ele>127</ele>
        <time>2025-03-23T10:54:03Z</time>
      </trkpt>
      <trkpt lat="43.68147" lon="1.37173">
        <ele>128</ele>
        <time>2025-03-23T10:54:04Z</time>
      </trkpt>
      <trkpt lat="43.6815" lon="1.37169">
        <ele>128</ele>
        <time>2025-03-23T10:54:05Z</time>
      </trkpt>
      <trkpt lat="43.68151" lon="1.37168">
        <ele>128</ele>
        <time>2025-03-23T10:54:06Z</time>
      </trkpt>
      <trkpt lat="43.68153" lon="1.37166">
        <ele>128</ele>
        <time>2025-03-23T10:54:07Z</time>
      </trkpt>
      <trkpt lat="43.68156" lon="1.37162">
        <ele>128</ele>
        <time>2025-03-23T10:54:08Z</time>
      </trkpt>
      <trkpt lat="43.68157" lon="1.37161">
        <ele>128</ele>
        <time>2025-03-23T10:54:09Z</time>
      </trkpt>
      <trkpt lat="43.68159" lon="1.37159">
        <ele>128</ele>
        <time>2025-03-23T10:54:10Z</time>
      </trkpt>
      <trkpt lat="43.68162" lon="1.37157">
        <ele>128</ele>
        <time>2025-03-23T10:54:11Z</time>
      </trkpt>
      <trkpt lat="43.68164" lon="1.37156">
        <ele>128</ele>
        <time>2025-03-23T10:54:12Z</time>
      </trkpt>
      <trkpt lat="43.68166" lon="1.37154">
        <ele>128</ele>
        <time>2025-03-23T10:54:13Z</time>
      </trkpt>
      <trkpt lat="43.68169" lon="1.37151">
        <ele>128</ele>
        <time>2025-03-23T10:54:14Z</time>
      </trkpt>
      <trkpt lat="43.6817" lon="1.3715">
        <ele>128</ele>
        <time>2025-03-23T10:54:15Z</time>
      </trkpt>
      <trkpt lat="43.68172" lon="1.37148">
        <ele>128</ele>
        <time>2025-03-23T10:54:16Z</time>
      </trkpt>
      <trkpt lat="43.68174" lon="1.37146">
        <ele>127</ele>
        <time>2025-03-23T10:54:17Z</time>
      </trkpt>
      <trkpt lat="43.68176" lon="1.37144">
        <ele>128</ele>
        <time>2025-03-23T10:54:18Z</time>
      </trkpt>
      <trkpt lat="43.68178" lon="1.37142">
        <ele>128</ele>
        <time>2025-03-23T10:54:19Z</time>
      </trkpt>
      <trkpt lat="43.6818" lon="1.37139">
        <ele>128</ele>
        <time>2025-03-23T10:54:20Z</time>
      </trkpt>
      <trkpt lat="43.68181" lon="1.37136">
        <ele>128</ele>
        <time>2025-03-23T10:54:21Z</time>
      </trkpt>
      <trkpt lat="43.68183" lon="1.37134">
        <ele>127</ele>
        <time>2025-03-23T10:54:22Z</time>
      </trkpt>
      <trkpt lat="43.68185" lon="1.37131">
        <ele>128</ele>
        <time>2025-03-23T10:54:23Z</time>
      </trkpt>
      <trkpt lat="43.68187" lon="1.37129">
        <ele>128</ele>
        <time>2025-03-23T10:54:24Z</time>
      </trkpt>
      <trkpt lat="43.68189" lon="1.37127">
        <ele>128</ele>
        <time>2025-03-23T10:54:25Z</time>
      </trkpt>
      <trkpt lat="43.68192" lon="1.37123">
        <ele>128</ele>
        <time>2025-03-23T10:54:26Z</time>
      </trkpt>
      <trkpt lat="43.68193" lon="1.37122">
        <ele>128</ele>
        <time>2025-03-23T10:54:27Z</time>
      </trkpt>
      <trkpt lat="43.68195" lon="1.3712">
        <ele>128</ele>
        <time>2025-03-23T10:54:28Z</time>
      </trkpt>
      <trkpt lat="43.68197" lon="1.37117">
        <ele>128</ele>
        <time>2025-03-23T10:54:29Z</time>
      </trkpt>
      <trkpt lat="43.68199" lon="1.37115">
        <ele>128</ele>
        <time>2025-03-23T10:54:30Z</time>
      </trkpt>
      <trkpt lat="43.68201" lon="1.37113">
        <ele>128</ele>
        <time>2025-03-23T10:54:31Z</time>
      </trkpt>
      <trkpt lat="43.68203" lon="1.3711">
        <ele>128</ele>
        <time>2025-03-23T10:54:32Z</time>
      </trkpt>
      <trkpt lat="43.68204" lon="1.37108">
        <ele>128</ele>
        <time>2025-03-23T10:54:33Z</time>
      </trkpt>
      <trkpt lat="43.68206" lon="1.37106">
        <ele>128</ele>
        <time>2025-03-23T10:54:34Z</time>
      </trkpt>
      <trkpt lat="43.68209" lon="1.37104">
        <ele>128</ele>
        <time>2025-03-23T10:54:35Z</time>
      </trkpt>
      <trkpt lat="43.68211" lon="1.37102">
        <ele>128</ele>
        <time>2025-03-23T10:54:36Z</time>
      </trkpt>
      <trkpt lat="43.68216" lon="1.37097">
        <ele>128</ele>
        <time>2025-03-23T10:54:38Z</time>
      </trkpt>
      <trkpt lat="43.68217" lon="1.37095">
        <ele>128</ele>
        <time>2025-03-23T10:54:39Z</time>
      </trkpt>
      <trkpt lat="43.68219" lon="1.37093">
        <ele>128</ele>
        <time>2025-03-23T10:54:40Z</time>
      </trkpt>
      <trkpt lat="43.68221" lon="1.37091">
        <ele>128</ele>
        <time>2025-03-23T10:54:41Z</time>
      </trkpt>
      <trkpt lat="43.68222" lon="1.37088">
        <ele>128</ele>
        <time>2025-03-23T10:54:42Z</time>
      </trkpt>
      <trkpt lat="43.68224" lon="1.37086">
        <ele>128</ele>
        <time>2025-03-23T10:54:43Z</time>
      </trkpt>
      <trkpt lat="43.68226" lon="1.37084">
        <ele>128</ele>
        <time>2025-03-23T10:54:44Z</time>
      </trkpt>
      <trkpt lat="43.68228" lon="1.37082">
        <ele>128</ele>
        <time>2025-03-23T10:54:45Z</time>
      </trkpt>
      <trkpt lat="43.6823" lon="1.37081">
        <ele>128</ele>
        <time>2025-03-23T10:54:46Z</time>
      </trkpt>
      <trkpt lat="43.68232" lon="1.37079">
        <ele>128</ele>
        <time>2025-03-23T10:54:47Z</time>
      </trkpt>
      <trkpt lat="43.68234" lon="1.37077">
        <ele>128</ele>
        <time>2025-03-23T10:54:48Z</time>
      </trkpt>
      <trkpt lat="43.68236" lon="1.37075">
        <ele>128</ele>
        <time>2025-03-23T10:54:49Z</time>
      </trkpt>
      <trkpt lat="43.68238" lon="1.37073">
        <ele>128</ele>
        <time>2025-03-23T10:54:50Z</time>
      </trkpt>
      <trkpt lat="43.6824" lon="1.37072">
        <ele>128</ele>
        <time>2025-03-23T10:54:51Z</time>
      </trkpt>
      <trkpt lat="43.68243" lon="1.3707">
        <ele>128</ele>
        <time>2025-03-23T10:54:52Z</time>
      </trkpt>
      <trkpt lat="43.68245" lon="1.37068">
        <ele>128</ele>
        <time>2025-03-23T10:54:53Z</time>
      </trkpt>
      <trkpt lat="43.68249" lon="1.37066">
        <ele>128</ele>
        <time>2025-03-23T10:54:54Z</time>
      </trkpt>
      <trkpt lat="43.6825" lon="1.37065">
        <ele>128</ele>
        <time>2025-03-23T10:54:55Z</time>
      </trkpt>
      <trkpt lat="43.68252" lon="1.37063">
        <ele>128</ele>
        <time>2025-03-23T10:54:56Z</time>
      </trkpt>
      <trkpt lat="43.68255" lon="1.37061">
        <ele>128</ele>
        <time>2025-03-23T10:54:57Z</time>
      </trkpt>
      <trkpt lat="43.68256" lon="1.3706">
        <ele>128</ele>
        <time>2025-03-23T10:54:58Z</time>
      </trkpt>
      <trkpt lat="43.68258" lon="1.37058">
        <ele>128</ele>
        <time>2025-03-23T10:54:59Z</time>
      </trkpt>
      <trkpt lat="43.6826" lon="1.37057">
        <ele>128</ele>
        <time>2025-03-23T10:55:00Z</time>
      </trkpt>
      <trkpt lat="43.68264" lon="1.37054">
        <ele>128</ele>
        <time>2025-03-23T10:55:01Z</time>
      </trkpt>
      <trkpt lat="43.68266" lon="1.37053">
        <ele>128</ele>
        <time>2025-03-23T10:55:02Z</time>
      </trkpt>
      <trkpt lat="43.68268" lon="1.37053">
        <ele>128</ele>
        <time>2025-03-23T10:55:03Z</time>
      </trkpt>
      <trkpt lat="43.68271" lon="1.37051">
        <ele>128</ele>
        <time>2025-03-23T10:55:04Z</time>
      </trkpt>
      <trkpt lat="43.68274" lon="1.37051">
        <ele>128</ele>
        <time>2025-03-23T10:55:05Z</time>
      </trkpt>
      <trkpt lat="43.68276" lon="1.37049">
        <ele>128</ele>
        <time>2025-03-23T10:55:06Z</time>
      </trkpt>
      <trkpt lat="43.68278" lon="1.37048">
        <ele>128</ele>
        <time>2025-03-23T10:55:07Z</time>
      </trkpt>
      <trkpt lat="43.68282" lon="1.37046">
        <ele>127</ele>
        <time>2025-03-23T10:55:08Z</time>
      </trkpt>
      <trkpt lat="43.68283" lon="1.37045">
        <ele>127</ele>
        <time>2025-03-23T10:55:09Z</time>
      </trkpt>
      <trkpt lat="43.68285" lon="1.37044">
        <ele>127</ele>
        <time>2025-03-23T10:55:10Z</time>
      </trkpt>
      <trkpt lat="43.68288" lon="1.37043">
        <ele>127</ele>
        <time>2025-03-23T10:55:11Z</time>
      </trkpt>
      <trkpt lat="43.6829" lon="1.37042">
        <ele>127</ele>
        <time>2025-03-23T10:55:12Z</time>
      </trkpt>
      <trkpt lat="43.68294" lon="1.37041">
        <ele>127</ele>
        <time>2025-03-23T10:55:13Z</time>
      </trkpt>
      <trkpt lat="43.68295" lon="1.37041">
        <ele>127</ele>
        <time>2025-03-23T10:55:14Z</time>
      </trkpt>
      <trkpt lat="43.68297" lon="1.3704">
        <ele>127</ele>
        <time>2025-03-23T10:55:15Z</time>
      </trkpt>
      <trkpt lat="43.68301" lon="1.37039">
        <ele>127</ele>
        <time>2025-03-23T10:55:16Z</time>
      </trkpt>
      <trkpt lat="43.68302" lon="1.37038">
        <ele>127</ele>
        <time>2025-03-23T10:55:17Z</time>
      </trkpt>
      <trkpt lat="43.68305" lon="1.37036">
        <ele>127</ele>
        <time>2025-03-23T10:55:18Z</time>
      </trkpt>
      <trkpt lat="43.68307" lon="1.37034">
        <ele>127</ele>
        <time>2025-03-23T10:55:19Z</time>
      </trkpt>
      <trkpt lat="43.68309" lon="1.37032">
        <ele>128</ele>
        <time>2025-03-23T10:55:20Z</time>
      </trkpt>
      <trkpt lat="43.68311" lon="1.3703">
        <ele>128</ele>
        <time>2025-03-23T10:55:21Z</time>
      </trkpt>
      <trkpt lat="43.68313" lon="1.37028">
        <ele>127</ele>
        <time>2025-03-23T10:55:22Z</time>
      </trkpt>
      <trkpt lat="43.68315" lon="1.37027">
        <ele>127</ele>
        <time>2025-03-23T10:55:23Z</time>
      </trkpt>
      <trkpt lat="43.68319" lon="1.37025">
        <ele>127</ele>
        <time>2025-03-23T10:55:24Z</time>
      </trkpt>
      <trkpt lat="43.6832" lon="1.37024">
        <ele>128</ele>
        <time>2025-03-23T10:55:25Z</time>
      </trkpt>
      <trkpt lat="43.68323" lon="1.37023">
        <ele>128</ele>
        <time>2025-03-23T10:55:26Z</time>
      </trkpt>
      <trkpt lat="43.68325" lon="1.37023">
        <ele>128</ele>
        <time>2025-03-23T10:55:27Z</time>
      </trkpt>
      <trkpt lat="43.68327" lon="1.37022">
        <ele>128</ele>
        <time>2025-03-23T10:55:28Z</time>
      </trkpt>
      <trkpt lat="43.6833" lon="1.37021">
        <ele>128</ele>
        <time>2025-03-23T10:55:29Z</time>
      </trkpt>
      <trkpt lat="43.68332" lon="1.3702">
        <ele>128</ele>
        <time>2025-03-23T10:55:30Z</time>
      </trkpt>
      <trkpt lat="43.68336" lon="1.37019">
        <ele>128</ele>
        <time>2025-03-23T10:55:31Z</time>
      </trkpt>
      <trkpt lat="43.68337" lon="1.37019">
        <ele>128</ele>
        <time>2025-03-23T10:55:32Z</time>
      </trkpt>
      <trkpt lat="43.68341" lon="1.37018">
        <ele>128</ele>
        <time>2025-03-23T10:55:33Z</time>
      </trkpt>
      <trkpt lat="43.68343" lon="1.37017">
        <ele>128</ele>
        <time>2025-03-23T10:55:34Z</time>
      </trkpt>
      <trkpt lat="43.68347" lon="1.37016">
        <ele>128</ele>
        <time>2025-03-23T10:55:35Z</time>
      </trkpt>
      <trkpt lat="43.68348" lon="1.37015">
        <ele>128</ele>
        <time>2025-03-23T10:55:36Z</time>
      </trkpt>
      <trkpt lat="43.6835" lon="1.37014">
        <ele>128</ele>
        <time>2025-03-23T10:55:37Z</time>
      </trkpt>
      <trkpt lat="43.68353" lon="1.37013">
        <ele>128</ele>
        <time>2025-03-23T10:55:38Z</time>
      </trkpt>
      <trkpt lat="43.68355" lon="1.37011">
        <ele>128</ele>
        <time>2025-03-23T10:55:39Z</time>
      </trkpt>
      <trkpt lat="43.68357" lon="1.37009">
        <ele>128</ele>
        <time>2025-03-23T10:55:40Z</time>
      </trkpt>
      <trkpt lat="43.6836" lon="1.37007">
        <ele>128</ele>
        <time>2025-03-23T10:55:41Z</time>
      </trkpt>
      <trkpt lat="43.68362" lon="1.37005">
        <ele>128</ele>
        <time>2025-03-23T10:55:42Z</time>
      </trkpt>
      <trkpt lat="43.68365" lon="1.37004">
        <ele>129</ele>
        <time>2025-03-23T10:55:43Z</time>
      </trkpt>
      <trkpt lat="43.68367" lon="1.37003">
        <ele>129</ele>
        <time>2025-03-23T10:55:44Z</time>
      </trkpt>
      <trkpt lat="43.6837" lon="1.37002">
        <ele>129</ele>
        <time>2025-03-23T10:55:45Z</time>
      </trkpt>
      <trkpt lat="43.68373" lon="1.37002">
        <ele>129</ele>
        <time>2025-03-23T10:55:46Z</time>
      </trkpt>
      <trkpt lat="43.68375" lon="1.37002">
        <ele>129</ele>
        <time>2025-03-23T10:55:47Z</time>
      </trkpt>
      <trkpt lat="43.68378" lon="1.37001">
        <ele>128</ele>
        <time>2025-03-23T10:55:48Z</time>
      </trkpt>
      <trkpt lat="43.68381" lon="1.37">
        <ele>128</ele>
        <time>2025-03-23T10:55:49Z</time>
      </trkpt>
      <trkpt lat="43.68384" lon="1.37">
        <ele>128</ele>
        <time>2025-03-23T10:55:50Z</time>
      </trkpt>
      <trkpt lat="43.68388" lon="1.36999">
        <ele>128</ele>
        <time>2025-03-23T10:55:51Z</time>
      </trkpt>
      <trkpt lat="43.68389" lon="1.36999">
        <ele>128</ele>
        <time>2025-03-23T10:55:52Z</time>
      </trkpt>
      <trkpt lat="43.68392" lon="1.36998">
        <ele>129</ele>
        <time>2025-03-23T10:55:53Z</time>
      </trkpt>
      <trkpt lat="43.68397" lon="1.36995">
        <ele>129</ele>
        <time>2025-03-23T10:55:55Z</time>
      </trkpt>
      <trkpt lat="43.684" lon="1.36994">
        <ele>129</ele>
        <time>2025-03-23T10:55:56Z</time>
      </trkpt>
      <trkpt lat="43.68402" lon="1.36993">
        <ele>129</ele>
        <time>2025-03-23T10:55:57Z</time>
      </trkpt>
      <trkpt lat="43.68406" lon="1.36991">
        <ele>129</ele>
        <time>2025-03-23T10:55:58Z</time>
      </trkpt>
      <trkpt lat="43.68408" lon="1.36991">
        <ele>128</ele>
        <time>2025-03-23T10:55:59Z</time>
      </trkpt>
      <trkpt lat="43.6841" lon="1.36989">
        <ele>128</ele>
        <time>2025-03-23T10:56:00Z</time>
      </trkpt>
      <trkpt lat="43.68413" lon="1.36988">
        <ele>128</ele>
        <time>2025-03-23T10:56:01Z</time>
      </trkpt>
      <trkpt lat="43.68415" lon="1.36987">
        <ele>128</ele>
        <time>2025-03-23T10:56:02Z</time>
      </trkpt>
      <trkpt lat="43.68418" lon="1.36986">
        <ele>128</ele>
        <time>2025-03-23T10:56:03Z</time>
      </trkpt>
      <trkpt lat="43.6842" lon="1.36985">
        <ele>128</ele>
        <time>2025-03-23T10:56:04Z</time>
      </trkpt>
      <trkpt lat="43.68425" lon="1.36983">
        <ele>128</ele>
        <time>2025-03-23T10:56:05Z</time>
      </trkpt>
      <trkpt lat="43.68426" lon="1.36983">
        <ele>128</ele>
        <time>2025-03-23T10:56:06Z</time>
      </trkpt>
      <trkpt lat="43.68429" lon="1.36982">
        <ele>128</ele>
        <time>2025-03-23T10:56:07Z</time>
      </trkpt>
      <trkpt lat="43.68432" lon="1.36982">
        <ele>128</ele>
        <time>2025-03-23T10:56:08Z</time>
      </trkpt>
      <trkpt lat="43.68436" lon="1.36982">
        <ele>128</ele>
        <time>2025-03-23T10:56:09Z</time>
      </trkpt>
      <trkpt lat="43.68437" lon="1.36982">
        <ele>128</ele>
        <time>2025-03-23T10:56:10Z</time>
      </trkpt>
      <trkpt lat="43.6844" lon="1.36982">
        <ele>128</ele>
        <time>2025-03-23T10:56:11Z</time>
      </trkpt>
      <trkpt lat="43.68443" lon="1.36981">
        <ele>128</ele>
        <time>2025-03-23T10:56:12Z</time>
      </trkpt>
      <trkpt lat="43.68446" lon="1.3698">
        <ele>128</ele>
        <time>2025-03-23T10:56:13Z</time>
      </trkpt>
      <trkpt lat="43.68448" lon="1.36979">
        <ele>128</ele>
        <time>2025-03-23T10:56:14Z</time>
      </trkpt>
      <trkpt lat="43.6845" lon="1.36978">
        <ele>128</ele>
        <time>2025-03-23T10:56:15Z</time>
      </trkpt>
      <trkpt lat="43.68452" lon="1.36977">
        <ele>128</ele>
        <time>2025-03-23T10:56:16Z</time>
      </trkpt>
      <trkpt lat="43.68455" lon="1.36976">
        <ele>128</ele>
        <time>2025-03-23T10:56:17Z</time>
      </trkpt>
      <trkpt lat="43.68457" lon="1.36975">
        <ele>128</ele>
        <time>2025-03-23T10:56:18Z</time>
      </trkpt>
      <trkpt lat="43.6846" lon="1.36974">
        <ele>128</ele>
        <time>2025-03-23T10:56:19Z</time>
      </trkpt>
      <trkpt lat="43.68462" lon="1.36973">
        <ele>128</ele>
        <time>2025-03-23T10:56:20Z</time>
      </trkpt>
      <trkpt lat="43.68465" lon="1.36972">
        <ele>128</ele>
        <time>2025-03-23T10:56:21Z</time>
      </trkpt>
      <trkpt lat="43.68467" lon="1.36971">
        <ele>129</ele>
        <time>2025-03-23T10:56:22Z</time>
      </trkpt>
      <trkpt lat="43.68471" lon="1.36969">
        <ele>129</ele>
        <time>2025-03-23T10:56:23Z</time>
      </trkpt>
      <trkpt lat="43.68472" lon="1.36969">
        <ele>128</ele>
        <time>2025-03-23T10:56:24Z</time>
      </trkpt>
      <trkpt lat="43.68475" lon="1.36967">
        <ele>128</ele>
        <time>2025-03-23T10:56:25Z</time>
      </trkpt>
      <trkpt lat="43.68477" lon="1.36966">
        <ele>128</ele>
        <time>2025-03-23T10:56:26Z</time>
      </trkpt>
      <trkpt lat="43.6848" lon="1.36965">
        <ele>128</ele>
        <time>2025-03-23T10:56:27Z</time>
      </trkpt>
      <trkpt lat="43.68483" lon="1.36963">
        <ele>128</ele>
        <time>2025-03-23T10:56:28Z</time>
      </trkpt>
      <trkpt lat="43.68485" lon="1.36963">
        <ele>128</ele>
        <time>2025-03-23T10:56:29Z</time>
      </trkpt>
      <trkpt lat="43.68487" lon="1.36962">
        <ele>128</ele>
        <time>2025-03-23T10:56:30Z</time>
      </trkpt>
      <trkpt lat="43.6849" lon="1.3696">
        <ele>128</ele>
        <time>2025-03-23T10:56:31Z</time>
      </trkpt>
      <trkpt lat="43.68494" lon="1.36958">
        <ele>128</ele>
        <time>2025-03-23T10:56:32Z</time>
      </trkpt>
      <trkpt lat="43.68495" lon="1.36958">
        <ele>129</ele>
        <time>2025-03-23T10:56:33Z</time>
      </trkpt>
      <trkpt lat="43.68497" lon="1.36956">
        <ele>129</ele>
        <time>2025-03-23T10:56:34Z</time>
      </trkpt>
      <trkpt lat="43.68499" lon="1.36955">
        <ele>128</ele>
        <time>2025-03-23T10:56:35Z</time>
      </trkpt>
      <trkpt lat="43.68502" lon="1.36954">
        <ele>128</ele>
        <time>2025-03-23T10:56:36Z</time>
      </trkpt>
      <trkpt lat="43.68505" lon="1.36953">
        <ele>128</ele>
        <time>2025-03-23T10:56:37Z</time>
      </trkpt>
      <trkpt lat="43.68508" lon="1.36952">
        <ele>128</ele>
        <time>2025-03-23T10:56:38Z</time>
      </trkpt>
      <trkpt lat="43.68511" lon="1.3695">
        <ele>128</ele>
        <time>2025-03-23T10:56:39Z</time>
      </trkpt>
      <trkpt lat="43.68513" lon="1.3695">
        <ele>128</ele>
        <time>2025-03-23T10:56:40Z</time>
      </trkpt>
      <trkpt lat="43.68515" lon="1.36949">
        <ele>128</ele>
        <time>2025-03-23T10:56:41Z</time>
      </trkpt>
      <trkpt lat="43.68519" lon="1.36949">
        <ele>128</ele>
        <time>2025-03-23T10:56:42Z</time>
      </trkpt>
      <trkpt lat="43.68521" lon="1.36949">
        <ele>128</ele>
        <time>2025-03-23T10:56:43Z</time>
      </trkpt>
      <trkpt lat="43.68524" lon="1.36949">
        <ele>128</ele>
        <time>2025-03-23T10:56:44Z</time>
      </trkpt>
      <trkpt lat="43.68527" lon="1.3695">
        <ele>128</ele>
        <time>2025-03-23T10:56:45Z</time>
      </trkpt>
      <trkpt lat="43.68531" lon="1.36948">
        <ele>128</ele>
        <time>2025-03-23T10:56:46Z</time>
      </trkpt>
      <trkpt lat="43.68533" lon="1.36948">
        <ele>128</ele>
        <time>2025-03-23T10:56:47Z</time>
      </trkpt>
      <trkpt lat="43.68535" lon="1.36947">
        <ele>128</ele>
        <time>2025-03-23T10:56:48Z</time>
      </trkpt>
      <trkpt lat="43.68538" lon="1.36947">
        <ele>128</ele>
        <time>2025-03-23T10:56:49Z</time>
      </trkpt>
      <trkpt lat="43.68541" lon="1.36946">
        <ele>128</ele>
        <time>2025-03-23T10:56:50Z</time>
      </trkpt>
      <trkpt lat="43.68545" lon="1.36946">
        <ele>128</ele>
        <time>2025-03-23T10:56:51Z</time>
      </trkpt>
      <trkpt lat="43.68546" lon="1.36945">
        <ele>128</ele>
        <time>2025-03-23T10:56:52Z</time>
      </trkpt>
      <trkpt lat="43.68549" lon="1.36945">
        <ele>128</ele>
        <time>2025-03-23T10:56:53Z</time>
      </trkpt>
      <trkpt lat="43.68552" lon="1.36944">
        <ele>128</ele>
        <time>2025-03-23T10:56:54Z</time>
      </trkpt>
      <trkpt lat="43.68554" lon="1.36944">
        <ele>128</ele>
        <time>2025-03-23T10:56:55Z</time>
      </trkpt>
      <trkpt lat="43.68557" lon="1.36944">
        <ele>128</ele>
        <time>2025-03-23T10:56:56Z</time>
      </trkpt>
      <trkpt lat="43.6856" lon="1.36943">
        <ele>128</ele>
        <time>2025-03-23T10:56:57Z</time>
      </trkpt>
      <trkpt lat="43.68563" lon="1.36942">
        <ele>128</ele>
        <time>2025-03-23T10:56:58Z</time>
      </trkpt>
      <trkpt lat="43.68565" lon="1.36942">
        <ele>128</ele>
        <time>2025-03-23T10:56:59Z</time>
      </trkpt>
      <trkpt lat="43.68568" lon="1.36941">
        <ele>128</ele>
        <time>2025-03-23T10:57:00Z</time>
      </trkpt>
      <trkpt lat="43.68571" lon="1.36941">
        <ele>128</ele>
        <time>2025-03-23T10:57:01Z</time>
      </trkpt>
      <trkpt lat="43.68573" lon="1.3694">
        <ele>128</ele>
        <time>2025-03-23T10:57:02Z</time>
      </trkpt>
      <trkpt lat="43.68576" lon="1.36939">
        <ele>128</ele>
        <time>2025-03-23T10:57:03Z</time>
      </trkpt>
      <trkpt lat="43.68578" lon="1.36938">
        <ele>128</ele>
        <time>2025-03-23T10:57:04Z</time>
      </trkpt>
      <trkpt lat="43.68583" lon="1.36938">
        <ele>128</ele>
        <time>2025-03-23T10:57:05Z</time>
      </trkpt>
      <trkpt lat="43.68585" lon="1.36937">
        <ele>128</ele>
        <time>2025-03-23T10:57:06Z</time>
      </trkpt>
      <trkpt lat="43.68587" lon="1.36937">
        <ele>128</ele>
        <time>2025-03-23T10:57:07Z</time>
      </trkpt>
      <trkpt lat="43.6859" lon="1.36936">
        <ele>128</ele>
        <time>2025-03-23T10:57:08Z</time>
      </trkpt>
      <trkpt lat="43.68592" lon="1.36935">
        <ele>128</ele>
        <time>2025-03-23T10:57:09Z</time>
      </trkpt>
      <trkpt lat="43.68596" lon="1.36934">
        <ele>128</ele>
        <time>2025-03-23T10:57:10Z</time>
      </trkpt>
      <trkpt lat="43.68597" lon="1.36934">
        <ele>128</ele>
        <time>2025-03-23T10:57:11Z</time>
      </trkpt>
      <trkpt lat="43.686" lon="1.36933">
        <ele>128</ele>
        <time>2025-03-23T10:57:12Z</time>
      </trkpt>
      <trkpt lat="43.68603" lon="1.36932">
        <ele>128</ele>
        <time>2025-03-23T10:57:13Z</time>
      </trkpt>
      <trkpt lat="43.68606" lon="1.36931">
        <ele>128</ele>
        <time>2025-03-23T10:57:14Z</time>
      </trkpt>
      <trkpt lat="43.68608" lon="1.36931">
        <ele>128</ele>
        <time>2025-03-23T10:57:15Z</time>
      </trkpt>
      <trkpt lat="43.6861" lon="1.3693">
        <ele>128</ele>
        <time>2025-03-23T10:57:16Z</time>
      </trkpt>
      <trkpt lat="43.68613" lon="1.36929">
        <ele>128</ele>
        <time>2025-03-23T10:57:17Z</time>
      </trkpt>
      <trkpt lat="43.68615" lon="1.36928">
        <ele>128</ele>
        <time>2025-03-23T10:57:18Z</time>
      </trkpt>
      <trkpt lat="43.68618" lon="1.36928">
        <ele>128</ele>
        <time>2025-03-23T10:57:19Z</time>
      </trkpt>
      <trkpt lat="43.68621" lon="1.36929">
        <ele>128</ele>
        <time>2025-03-23T10:57:20Z</time>
      </trkpt>
      <trkpt lat="43.68625" lon="1.36929">
        <ele>128</ele>
        <time>2025-03-23T10:57:21Z</time>
      </trkpt>
      <trkpt lat="43.68626" lon="1.36929">
        <ele>128</ele>
        <time>2025-03-23T10:57:22Z</time>
      </trkpt>
      <trkpt lat="43.68631" lon="1.36929">
        <ele>128</ele>
        <time>2025-03-23T10:57:23Z</time>
      </trkpt>
      <trkpt lat="43.68632" lon="1.36928">
        <ele>128</ele>
        <time>2025-03-23T10:57:24Z</time>
      </trkpt>
      <trkpt lat="43.68635" lon="1.36928">
        <ele>128</ele>
        <time>2025-03-23T10:57:25Z</time>
      </trkpt>
      <trkpt lat="43.68638" lon="1.36928">
        <ele>128</ele>
        <time>2025-03-23T10:57:26Z</time>
      </trkpt>
      <trkpt lat="43.6864" lon="1.36928">
        <ele>128</ele>
        <time>2025-03-23T10:57:27Z</time>
      </trkpt>
      <trkpt lat="43.68643" lon="1.36928">
        <ele>128</ele>
        <time>2025-03-23T10:57:28Z</time>
      </trkpt>
      <trkpt lat="43.68647" lon="1.36928">
        <ele>128</ele>
        <time>2025-03-23T10:57:29Z</time>
      </trkpt>
      <trkpt lat="43.68649" lon="1.36928">
        <ele>128</ele>
        <time>2025-03-23T10:57:30Z</time>
      </trkpt>
      <trkpt lat="43.68651" lon="1.36927">
        <ele>129</ele>
        <time>2025-03-23T10:57:31Z</time>
      </trkpt>
      <trkpt lat="43.68654" lon="1.36927">
        <ele>128</ele>
        <time>2025-03-23T10:57:32Z</time>
      </trkpt>
      <trkpt lat="43.68656" lon="1.36926">
        <ele>128</ele>
        <time>2025-03-23T10:57:33Z</time>
      </trkpt>
      <trkpt lat="43.68659" lon="1.36925">
        <ele>128</ele>
        <time>2025-03-23T10:57:34Z</time>
      </trkpt>
      <trkpt lat="43.68661" lon="1.36924">
        <ele>128</ele>
        <time>2025-03-23T10:57:35Z</time>
      </trkpt>
      <trkpt lat="43.68664" lon="1.36922">
        <ele>128</ele>
        <time>2025-03-23T10:57:36Z</time>
      </trkpt>
      <trkpt lat="43.68665" lon="1.36921">
        <ele>128</ele>
        <time>2025-03-23T10:57:37Z</time>
      </trkpt>
      <trkpt lat="43.68667" lon="1.3692">
        <ele>128</ele>
        <time>2025-03-23T10:57:38Z</time>
      </trkpt>
      <trkpt lat="43.6867" lon="1.36919">
        <ele>128</ele>
        <time>2025-03-23T10:57:39Z</time>
      </trkpt>
      <trkpt lat="43.68674" lon="1.36917">
        <ele>128</ele>
        <time>2025-03-23T10:57:40Z</time>
      </trkpt>
      <trkpt lat="43.68675" lon="1.36917">
        <ele>129</ele>
        <time>2025-03-23T10:57:41Z</time>
      </trkpt>
      <trkpt lat="43.68679" lon="1.36915">
        <ele>129</ele>
        <time>2025-03-23T10:57:42Z</time>
      </trkpt>
      <trkpt lat="43.6868" lon="1.36914">
        <ele>129</ele>
        <time>2025-03-23T10:57:43Z</time>
      </trkpt>
      <trkpt lat="43.68683" lon="1.36913">
        <ele>129</ele>
        <time>2025-03-23T10:57:44Z</time>
      </trkpt>
      <trkpt lat="43.68685" lon="1.36912">
        <ele>129</ele>
        <time>2025-03-23T10:57:45Z</time>
      </trkpt>
      <trkpt lat="43.68688" lon="1.36912">
        <ele>129</ele>
        <time>2025-03-23T10:57:46Z</time>
      </trkpt>
      <trkpt lat="43.68691" lon="1.36912">
        <ele>129</ele>
        <time>2025-03-23T10:57:47Z</time>
      </trkpt>
      <trkpt lat="43.68695" lon="1.36912">
        <ele>129</ele>
        <time>2025-03-23T10:57:48Z</time>
      </trkpt>
      <trkpt lat="43.68696" lon="1.36912">
        <ele>129</ele>
        <time>2025-03-23T10:57:49Z</time>
      </trkpt>
      <trkpt lat="43.68698" lon="1.36911">
        <ele>129</ele>
        <time>2025-03-23T10:57:50Z</time>
      </trkpt>
      <trkpt lat="43.68702" lon="1.36911">
        <ele>129</ele>
        <time>2025-03-23T10:57:51Z</time>
      </trkpt>
      <trkpt lat="43.68703" lon="1.36911">
        <ele>129</ele>
        <time>2025-03-23T10:57:52Z</time>
      </trkpt>
      <trkpt lat="43.68706" lon="1.3691">
        <ele>129</ele>
        <time>2025-03-23T10:57:53Z</time>
      </trkpt>
      <trkpt lat="43.68709" lon="1.3691">
        <ele>129</ele>
        <time>2025-03-23T10:57:54Z</time>
      </trkpt>
      <trkpt lat="43.68713" lon="1.36911">
        <ele>129</ele>
        <time>2025-03-23T10:57:55Z</time>
      </trkpt>
      <trkpt lat="43.68715" lon="1.36911">
        <ele>129</ele>
        <time>2025-03-23T10:57:56Z</time>
      </trkpt>
      <trkpt lat="43.68718" lon="1.36911">
        <ele>129</ele>
        <time>2025-03-23T10:57:57Z</time>
      </trkpt>
      <trkpt lat="43.68722" lon="1.36912">
        <ele>128</ele>
        <time>2025-03-23T10:57:58Z</time>
      </trkpt>
      <trkpt lat="43.68724" lon="1.36912">
        <ele>128</ele>
        <time>2025-03-23T10:57:59Z</time>
      </trkpt>
      <trkpt lat="43.68727" lon="1.36913">
        <ele>128</ele>
        <time>2025-03-23T10:58:00Z</time>
      </trkpt>
      <trkpt lat="43.68728" lon="1.36913">
        <ele>128</ele>
        <time>2025-03-23T10:58:01Z</time>
      </trkpt>
      <trkpt lat="43.68731" lon="1.36914">
        <ele>128</ele>
        <time>2025-03-23T10:58:02Z</time>
      </trkpt>
      <trkpt lat="43.68736" lon="1.36914">
        <ele>128</ele>
        <time>2025-03-23T10:58:03Z</time>
      </trkpt>
      <trkpt lat="43.68737" lon="1.36915">
        <ele>128</ele>
        <time>2025-03-23T10:58:04Z</time>
      </trkpt>
      <trkpt lat="43.6874" lon="1.36916">
        <ele>128</ele>
        <time>2025-03-23T10:58:05Z</time>
      </trkpt>
      <trkpt lat="43.68743" lon="1.36916">
        <ele>128</ele>
        <time>2025-03-23T10:58:06Z</time>
      </trkpt>
      <trkpt lat="43.68746" lon="1.36916">
        <ele>128</ele>
        <time>2025-03-23T10:58:07Z</time>
      </trkpt>
      <trkpt lat="43.68748" lon="1.36917">
        <ele>128</ele>
        <time>2025-03-23T10:58:08Z</time>
      </trkpt>
      <trkpt lat="43.68751" lon="1.36917">
        <ele>128</ele>
        <time>2025-03-23T10:58:09Z</time>
      </trkpt>
      <trkpt lat="43.68754" lon="1.36917">
        <ele>128</ele>
        <time>2025-03-23T10:58:10Z</time>
      </trkpt>
      <trkpt lat="43.68757" lon="1.36918">
        <ele>128</ele>
        <time>2025-03-23T10:58:11Z</time>
      </trkpt>
      <trkpt lat="43.68759" lon="1.36918">
        <ele>128</ele>
        <time>2025-03-23T10:58:12Z</time>
      </trkpt>
      <trkpt lat="43.68762" lon="1.36919">
        <ele>128</ele>
        <time>2025-03-23T10:58:13Z</time>
      </trkpt>
      <trkpt lat="43.68764" lon="1.36919">
        <ele>128</ele>
        <time>2025-03-23T10:58:14Z</time>
      </trkpt>
      <trkpt lat="43.68767" lon="1.3692">
        <ele>129</ele>
        <time>2025-03-23T10:58:15Z</time>
      </trkpt>
      <trkpt lat="43.68769" lon="1.36921">
        <ele>129</ele>
        <time>2025-03-23T10:58:16Z</time>
      </trkpt>
      <trkpt lat="43.68772" lon="1.36922">
        <ele>129</ele>
        <time>2025-03-23T10:58:17Z</time>
      </trkpt>
      <trkpt lat="43.68774" lon="1.36923">
        <ele>129</ele>
        <time>2025-03-23T10:58:18Z</time>
      </trkpt>
      <trkpt lat="43.68778" lon="1.36925">
        <ele>129</ele>
        <time>2025-03-23T10:58:19Z</time>
      </trkpt>
      <trkpt lat="43.68779" lon="1.36925">
        <ele>129</ele>
        <time>2025-03-23T10:58:20Z</time>
      </trkpt>
      <trkpt lat="43.68782" lon="1.36926">
        <ele>129</ele>
        <time>2025-03-23T10:58:21Z</time>
      </trkpt>
      <trkpt lat="43.68785" lon="1.36926">
        <ele>129</ele>
        <time>2025-03-23T10:58:22Z</time>
      </trkpt>
      <trkpt lat="43.68788" lon="1.36926">
        <ele>129</ele>
        <time>2025-03-23T10:58:23Z</time>
      </trkpt>
      <trkpt lat="43.6879" lon="1.36927">
        <ele>129</ele>
        <time>2025-03-23T10:58:24Z</time>
      </trkpt>
      <trkpt lat="43.68793" lon="1.36927">
        <ele>129</ele>
        <time>2025-03-23T10:58:25Z</time>
      </trkpt>
      <trkpt lat="43.68797" lon="1.36927">
        <ele>129</ele>
        <time>2025-03-23T10:58:26Z</time>
      </trkpt>
      <trkpt lat="43.68798" lon="1.36927">
        <ele>129</ele>
        <time>2025-03-23T10:58:27Z</time>
      </trkpt>
      <trkpt lat="43.68801" lon="1.36927">
        <ele>129</ele>
        <time>2025-03-23T10:58:28Z</time>
      </trkpt>
      <trkpt lat="43.68803" lon="1.36927">
        <ele>129</ele>
        <time>2025-03-23T10:58:29Z</time>
      </trkpt>
      <trkpt lat="43.68806" lon="1.36927">
        <ele>128</ele>
        <time>2025-03-23T10:58:30Z</time>
      </trkpt>
      <trkpt lat="43.68808" lon="1.36927">
        <ele>128</ele>
        <time>2025-03-23T10:58:31Z</time>
      </trkpt>
      <trkpt lat="43.68811" lon="1.36928">
        <ele>128</ele>
        <time>2025-03-23T10:58:32Z</time>
      </trkpt>
      <trkpt lat="43.68814" lon="1.36928">
        <ele>128</ele>
        <time>2025-03-23T10:58:33Z</time>
      </trkpt>
      <trkpt lat="43.68817" lon="1.36928">
        <ele>128</ele>
        <time>2025-03-23T10:58:34Z</time>
      </trkpt>
      <trkpt lat="43.68819" lon="1.36929">
        <ele>128</ele>
        <time>2025-03-23T10:58:35Z</time>
      </trkpt>
      <trkpt lat="43.68823" lon="1.3693">
        <ele>128</ele>
        <time>2025-03-23T10:58:36Z</time>
      </trkpt>
      <trkpt lat="43.68824" lon="1.3693">
        <ele>128</ele>
        <time>2025-03-23T10:58:37Z</time>
      </trkpt>
      <trkpt lat="43.68828" lon="1.3693">
        <ele>128</ele>
        <time>2025-03-23T10:58:38Z</time>
      </trkpt>
      <trkpt lat="43.68829" lon="1.3693">
        <ele>128</ele>
        <time>2025-03-23T10:58:39Z</time>
      </trkpt>
      <trkpt lat="43.68832" lon="1.3693">
        <ele>128</ele>
        <time>2025-03-23T10:58:40Z</time>
      </trkpt>
      <trkpt lat="43.68834" lon="1.36931">
        <ele>128</ele>
        <time>2025-03-23T10:58:41Z</time>
      </trkpt>
      <trkpt lat="43.68837" lon="1.36931">
        <ele>128</ele>
        <time>2025-03-23T10:58:42Z</time>
      </trkpt>
      <trkpt lat="43.6884" lon="1.36931">
        <ele>128</ele>
        <time>2025-03-23T10:58:43Z</time>
      </trkpt>
      <trkpt lat="43.68842" lon="1.36931">
        <ele>128</ele>
        <time>2025-03-23T10:58:44Z</time>
      </trkpt>
      <trkpt lat="43.68846" lon="1.36931">
        <ele>128</ele>
        <time>2025-03-23T10:58:45Z</time>
      </trkpt>
      <trkpt lat="43.68847" lon="1.36931">
        <ele>128</ele>
        <time>2025-03-23T10:58:46Z</time>
      </trkpt>
      <trkpt lat="43.6885" lon="1.36931">
        <ele>128</ele>
        <time>2025-03-23T10:58:47Z</time>
      </trkpt>
      <trkpt lat="43.68852" lon="1.36931">
        <ele>128</ele>
        <time>2025-03-23T10:58:48Z</time>
      </trkpt>
      <trkpt lat="43.68854" lon="1.36931">
        <ele>128</ele>
        <time>2025-03-23T10:58:49Z</time>
      </trkpt>
      <trkpt lat="43.68857" lon="1.3693">
        <ele>128</ele>
        <time>2025-03-23T10:58:50Z</time>
      </trkpt>
      <trkpt lat="43.6886" lon="1.3693">
        <ele>128</ele>
        <time>2025-03-23T10:58:51Z</time>
      </trkpt>
      <trkpt lat="43.68862" lon="1.3693">
        <ele>128</ele>
        <time>2025-03-23T10:58:52Z</time>
      </trkpt>
      <trkpt lat="43.68865" lon="1.3693">
        <ele>128</ele>
        <time>2025-03-23T10:58:53Z</time>
      </trkpt>
      <trkpt lat="43.68867" lon="1.36929">
        <ele>128</ele>
        <time>2025-03-23T10:58:54Z</time>
      </trkpt>
      <trkpt lat="43.6887" lon="1.36929">
        <ele>128</ele>
        <time>2025-03-23T10:58:55Z</time>
      </trkpt>
      <trkpt lat="43.68872" lon="1.36929">
        <ele>128</ele>
        <time>2025-03-23T10:58:56Z</time>
      </trkpt>
      <trkpt lat="43.68874" lon="1.36928">
        <ele>128</ele>
        <time>2025-03-23T10:58:57Z</time>
      </trkpt>
      <trkpt lat="43.68876" lon="1.36927">
        <ele>128</ele>
        <time>2025-03-23T10:58:58Z</time>
      </trkpt>
      <trkpt lat="43.68879" lon="1.36926">
        <ele>128</ele>
        <time>2025-03-23T10:58:59Z</time>
      </trkpt>
      <trkpt lat="43.68881" lon="1.36926">
        <ele>128</ele>
        <time>2025-03-23T10:59:00Z</time>
      </trkpt>
      <trkpt lat="43.68883" lon="1.36925">
        <ele>128</ele>
        <time>2025-03-23T10:59:01Z</time>
      </trkpt>
      <trkpt lat="43.68886" lon="1.36924">
        <ele>128</ele>
        <time>2025-03-23T10:59:02Z</time>
      </trkpt>
      <trkpt lat="43.68888" lon="1.36924">
        <ele>128</ele>
        <time>2025-03-23T10:59:03Z</time>
      </trkpt>
      <trkpt lat="43.68893" lon="1.36924">
        <ele>128</ele>
        <time>2025-03-23T10:59:04Z</time>
      </trkpt>
      <trkpt lat="43.68894" lon="1.36923">
        <ele>128</ele>
        <time>2025-03-23T10:59:05Z</time>
      </trkpt>
      <trkpt lat="43.68896" lon="1.36923">
        <ele>128</ele>
        <time>2025-03-23T10:59:06Z</time>
      </trkpt>
      <trkpt lat="43.68899" lon="1.36923">
        <ele>128</ele>
        <time>2025-03-23T10:59:07Z</time>
      </trkpt>
      <trkpt lat="43.68901" lon="1.36922">
        <ele>128</ele>
        <time>2025-03-23T10:59:08Z</time>
      </trkpt>
      <trkpt lat="43.68903" lon="1.36921">
        <ele>128</ele>
        <time>2025-03-23T10:59:09Z</time>
      </trkpt>
      <trkpt lat="43.68905" lon="1.36919">
        <ele>128</ele>
        <time>2025-03-23T10:59:10Z</time>
      </trkpt>
      <trkpt lat="43.68906" lon="1.36915">
        <ele>128</ele>
        <time>2025-03-23T10:59:11Z</time>
      </trkpt>
      <trkpt lat="43.68907" lon="1.36913">
        <ele>128</ele>
        <time>2025-03-23T10:59:12Z</time>
      </trkpt>
      <trkpt lat="43.68908" lon="1.3691">
        <ele>128</ele>
        <time>2025-03-23T10:59:13Z</time>
      </trkpt>
      <trkpt lat="43.68912" lon="1.36909">
        <ele>128</ele>
        <time>2025-03-23T10:59:14Z</time>
      </trkpt>
      <trkpt lat="43.68913" lon="1.36909">
        <ele>128</ele>
        <time>2025-03-23T10:59:15Z</time>
      </trkpt>
      <trkpt lat="43.68916" lon="1.36908">
        <ele>128</ele>
        <time>2025-03-23T10:59:16Z</time>
      </trkpt>
      <trkpt lat="43.68917" lon="1.36907">
        <ele>128</ele>
        <time>2025-03-23T10:59:17Z</time>
      </trkpt>
      <trkpt lat="43.68919" lon="1.36905">
        <ele>128</ele>
        <time>2025-03-23T10:59:18Z</time>
      </trkpt>
      <trkpt lat="43.68921" lon="1.36904">
        <ele>128</ele>
        <time>2025-03-23T10:59:19Z</time>
      </trkpt>
      <trkpt lat="43.68923" lon="1.36903">
        <ele>128</ele>
        <time>2025-03-23T10:59:20Z</time>
      </trkpt>
      <trkpt lat="43.68925" lon="1.36901">
        <ele>128</ele>
        <time>2025-03-23T10:59:21Z</time>
      </trkpt>
      <trkpt lat="43.68927" lon="1.369">
        <ele>128</ele>
        <time>2025-03-23T10:59:22Z</time>
      </trkpt>
      <trkpt lat="43.6893" lon="1.36899">
        <ele>128</ele>
        <time>2025-03-23T10:59:23Z</time>
      </trkpt>
      <trkpt lat="43.68932" lon="1.36898">
        <ele>128</ele>
        <time>2025-03-23T10:59:24Z</time>
      </trkpt>
      <trkpt lat="43.68935" lon="1.36898">
        <ele>128</ele>
        <time>2025-03-23T10:59:25Z</time>
      </trkpt>
      <trkpt lat="43.68937" lon="1.36898">
        <ele>128</ele>
        <time>2025-03-23T10:59:26Z</time>
      </trkpt>
      <trkpt lat="43.6894" lon="1.36898">
        <ele>128</ele>
        <time>2025-03-23T10:59:27Z</time>
      </trkpt>
      <trkpt lat="43.68942" lon="1.36897">
        <ele>128</ele>
        <time>2025-03-23T10:59:28Z</time>
      </trkpt>
      <trkpt lat="43.68944" lon="1.36896">
        <ele>128</ele>
        <time>2025-03-23T10:59:29Z</time>
      </trkpt>
      <trkpt lat="43.68947" lon="1.36895">
        <ele>128</ele>
        <time>2025-03-23T10:59:30Z</time>
      </trkpt>
      <trkpt lat="43.68949" lon="1.36894">
        <ele>128</ele>
        <time>2025-03-23T10:59:31Z</time>
      </trkpt>
      <trkpt lat="43.68951" lon="1.36893">
        <ele>128</ele>
        <time>2025-03-23T10:59:32Z</time>
      </trkpt>
      <trkpt lat="43.68954" lon="1.36892">
        <ele>128</ele>
        <time>2025-03-23T10:59:33Z</time>
      </trkpt>
      <trkpt lat="43.68956" lon="1.36891">
        <ele>128</ele>
        <time>2025-03-23T10:59:34Z</time>
      </trkpt>
      <trkpt lat="43.68958" lon="1.3689">
        <ele>128</ele>
        <time>2025-03-23T10:59:35Z</time>
      </trkpt>
      <trkpt lat="43.68961" lon="1.3689">
        <ele>128</ele>
        <time>2025-03-23T10:59:36Z</time>
      </trkpt>
      <trkpt lat="43.68963" lon="1.36889">
        <ele>128</ele>
        <time>2025-03-23T10:59:37Z</time>
      </trkpt>
      <trkpt lat="43.68966" lon="1.36888">
        <ele>128</ele>
        <time>2025-03-23T10:59:38Z</time>
      </trkpt>
      <trkpt lat="43.68969" lon="1.36887">
        <ele>128</ele>
        <time>2025-03-23T10:59:39Z</time>
      </trkpt>
      <trkpt lat="43.68971" lon="1.36886">
        <ele>128</ele>
        <time>2025-03-23T10:59:40Z</time>
      </trkpt>
      <trkpt lat="43.68974" lon="1.36885">
        <ele>128</ele>
        <time>2025-03-23T10:59:41Z</time>
      </trkpt>
      <trkpt lat="43.68977" lon="1.36884">
        <ele>128</ele>
        <time>2025-03-23T10:59:42Z</time>
      </trkpt>
      <trkpt lat="43.68978" lon="1.36884">
        <ele>128</ele>
        <time>2025-03-23T10:59:43Z</time>
      </trkpt>
      <trkpt lat="43.68981" lon="1.36883">
        <ele>128</ele>
        <time>2025-03-23T10:59:44Z</time>
      </trkpt>
      <trkpt lat="43.68985" lon="1.36882">
        <ele>128</ele>
        <time>2025-03-23T10:59:45Z</time>
      </trkpt>
      <trkpt lat="43.68986" lon="1.36882">
        <ele>128</ele>
        <time>2025-03-23T10:59:46Z</time>
      </trkpt>
      <trkpt lat="43.68989" lon="1.36883">
        <ele>128</ele>
        <time>2025-03-23T10:59:47Z</time>
      </trkpt>
      <trkpt lat="43.68992" lon="1.36883">
        <ele>128</ele>
        <time>2025-03-23T10:59:48Z</time>
      </trkpt>
      <trkpt lat="43.68996" lon="1.36883">
        <ele>128</ele>
        <time>2025-03-23T10:59:49Z</time>
      </trkpt>
      <trkpt lat="43.68997" lon="1.36883">
        <ele>128</ele>
        <time>2025-03-23T10:59:50Z</time>
      </trkpt>
      <trkpt lat="43.69" lon="1.36883">
        <ele>128</ele>
        <time>2025-03-23T10:59:51Z</time>
      </trkpt>
      <trkpt lat="43.69003" lon="1.36883">
        <ele>128</ele>
        <time>2025-03-23T10:59:52Z</time>
      </trkpt>
      <trkpt lat="43.69005" lon="1.36883">
        <ele>128</ele>
        <time>2025-03-23T10:59:53Z</time>
      </trkpt>
      <trkpt lat="43.69007" lon="1.36883">
        <ele>129</ele>
        <time>2025-03-23T10:59:54Z</time>
      </trkpt>
      <trkpt lat="43.69009" lon="1.36883">
        <ele>129</ele>
        <time>2025-03-23T10:59:55Z</time>
      </trkpt>
      <trkpt lat="43.69013" lon="1.36883">
        <ele>128</ele>
        <time>2025-03-23T10:59:56Z</time>
      </trkpt>
      <trkpt lat="43.69015" lon="1.36883">
        <ele>128</ele>
        <time>2025-03-23T10:59:57Z</time>
      </trkpt>
      <trkpt lat="43.69017" lon="1.36883">
        <ele>128</ele>
        <time>2025-03-23T10:59:58Z</time>
      </trkpt>
      <trkpt lat="43.69019" lon="1.36883">
        <ele>128</ele>
        <time>2025-03-23T10:59:59Z</time>
      </trkpt>
      <trkpt lat="43.69022" lon="1.36884">
        <ele>128</ele>
        <time>2025-03-23T11:00:00Z</time>
      </trkpt>
      <trkpt lat="43.69025" lon="1.36885">
        <ele>128</ele>
        <time>2025-03-23T11:00:01Z</time>
      </trkpt>
      <trkpt lat="43.69027" lon="1.36885">
        <ele>128</ele>
        <time>2025-03-23T11:00:02Z</time>
      </trkpt>
      <trkpt lat="43.69029" lon="1.36885">
        <ele>128</ele>
        <time>2025-03-23T11:00:03Z</time>
      </trkpt>
      <trkpt lat="43.69032" lon="1.36884">
        <ele>128</ele>
        <time>2025-03-23T11:00:04Z</time>
      </trkpt>
      <trkpt lat="43.69036" lon="1.36884">
        <ele>128</ele>
        <time>2025-03-23T11:00:05Z</time>
      </trkpt>
      <trkpt lat="43.69037" lon="1.36884">
        <ele>128</ele>
        <time>2025-03-23T11:00:06Z</time>
      </trkpt>
      <trkpt lat="43.6904" lon="1.36884">
        <ele>128</ele>
        <time>2025-03-23T11:00:07Z</time>
      </trkpt>
      <trkpt lat="43.69044" lon="1.36883">
        <ele>128</ele>
        <time>2025-03-23T11:00:08Z</time>
      </trkpt>
      <trkpt lat="43.69045" lon="1.36882">
        <ele>128</ele>
        <time>2025-03-23T11:00:09Z</time>
      </trkpt>
      <trkpt lat="43.69048" lon="1.36882">
        <ele>128</ele>
        <time>2025-03-23T11:00:10Z</time>
      </trkpt>
      <trkpt lat="43.69051" lon="1.36882">
        <ele>128</ele>
        <time>2025-03-23T11:00:11Z</time>
      </trkpt>
      <trkpt lat="43.69054" lon="1.36882">
        <ele>128</ele>
        <time>2025-03-23T11:00:12Z</time>
      </trkpt>
      <trkpt lat="43.69057" lon="1.36881">
        <ele>128</ele>
        <time>2025-03-23T11:00:13Z</time>
      </trkpt>
      <trkpt lat="43.6906" lon="1.36881">
        <ele>128</ele>
        <time>2025-03-23T11:00:14Z</time>
      </trkpt>
      <trkpt lat="43.69063" lon="1.36881">
        <ele>128</ele>
        <time>2025-03-23T11:00:15Z</time>
      </trkpt>
      <trkpt lat="43.69065" lon="1.36881">
        <ele>128</ele>
        <time>2025-03-23T11:00:16Z</time>
      </trkpt>
      <trkpt lat="43.6907" lon="1.36881">
        <ele>128</ele>
        <time>2025-03-23T11:00:17Z</time>
      </trkpt>
      <trkpt lat="43.69071" lon="1.36881">
        <ele>128</ele>
        <time>2025-03-23T11:00:18Z</time>
      </trkpt>
      <trkpt lat="43.69073" lon="1.36881">
        <ele>128</ele>
        <time>2025-03-23T11:00:19Z</time>
      </trkpt>
      <trkpt lat="43.69077" lon="1.36881">
        <ele>128</ele>
        <time>2025-03-23T11:00:20Z</time>
      </trkpt>
      <trkpt lat="43.69079" lon="1.36881">
        <ele>128</ele>
        <time>2025-03-23T11:00:21Z</time>
      </trkpt>
      <trkpt lat="43.69081" lon="1.36881">
        <ele>128</ele>
        <time>2025-03-23T11:00:22Z</time>
      </trkpt>
      <trkpt lat="43.69084" lon="1.36881">
        <ele>127</ele>
        <time>2025-03-23T11:00:23Z</time>
      </trkpt>
      <trkpt lat="43.69087" lon="1.36881">
        <ele>127</ele>
        <time>2025-03-23T11:00:24Z</time>
      </trkpt>
      <trkpt lat="43.69089" lon="1.36881">
        <ele>127</ele>
        <time>2025-03-23T11:00:25Z</time>
      </trkpt>
      <trkpt lat="43.69092" lon="1.36881">
        <ele>127</ele>
        <time>2025-03-23T11:00:26Z</time>
      </trkpt>
      <trkpt lat="43.69095" lon="1.36881">
        <ele>127</ele>
        <time>2025-03-23T11:00:27Z</time>
      </trkpt>
      <trkpt lat="43.69098" lon="1.36881">
        <ele>127</ele>
        <time>2025-03-23T11:00:28Z</time>
      </trkpt>
      <trkpt lat="43.691" lon="1.3688">
        <ele>127</ele>
        <time>2025-03-23T11:00:29Z</time>
      </trkpt>
      <trkpt lat="43.69103" lon="1.3688">
        <ele>127</ele>
        <time>2025-03-23T11:00:30Z</time>
      </trkpt>
      <trkpt lat="43.69105" lon="1.3688">
        <ele>127</ele>
        <time>2025-03-23T11:00:31Z</time>
      </trkpt>
      <trkpt lat="43.69107" lon="1.3688">
        <ele>127</ele>
        <time>2025-03-23T11:00:32Z</time>
      </trkpt>
      <trkpt lat="43.6911" lon="1.3688">
        <ele>128</ele>
        <time>2025-03-23T11:00:33Z</time>
      </trkpt>
      <trkpt lat="43.69113" lon="1.3688">
        <ele>128</ele>
        <time>2025-03-23T11:00:34Z</time>
      </trkpt>
      <trkpt lat="43.69116" lon="1.3688">
        <ele>128</ele>
        <time>2025-03-23T11:00:35Z</time>
      </trkpt>
      <trkpt lat="43.69118" lon="1.3688">
        <ele>128</ele>
        <time>2025-03-23T11:00:36Z</time>
      </trkpt>
      <trkpt lat="43.69121" lon="1.3688">
        <ele>128</ele>
        <time>2025-03-23T11:00:37Z</time>
      </trkpt>
      <trkpt lat="43.69123" lon="1.3688">
        <ele>128</ele>
        <time>2025-03-23T11:00:38Z</time>
      </trkpt>
      <trkpt lat="43.69128" lon="1.36881">
        <ele>128</ele>
        <time>2025-03-23T11:00:39Z</time>
      </trkpt>
      <trkpt lat="43.69129" lon="1.36882">
        <ele>128</ele>
        <time>2025-03-23T11:00:40Z</time>
      </trkpt>
      <trkpt lat="43.69132" lon="1.36882">
        <ele>128</ele>
        <time>2025-03-23T11:00:41Z</time>
      </trkpt>
      <trkpt lat="43.69134" lon="1.36883">
        <ele>128</ele>
        <time>2025-03-23T11:00:42Z</time>
      </trkpt>
      <trkpt lat="43.69137" lon="1.36883">
        <ele>128</ele>
        <time>2025-03-23T11:00:43Z</time>
      </trkpt>
      <trkpt lat="43.69139" lon="1.36883">
        <ele>128</ele>
        <time>2025-03-23T11:00:44Z</time>
      </trkpt>
      <trkpt lat="43.69142" lon="1.36884">
        <ele>128</ele>
        <time>2025-03-23T11:00:45Z</time>
      </trkpt>
      <trkpt lat="43.69145" lon="1.36884">
        <ele>128</ele>
        <time>2025-03-23T11:00:46Z</time>
      </trkpt>
      <trkpt lat="43.69148" lon="1.36884">
        <ele>128</ele>
        <time>2025-03-23T11:00:47Z</time>
      </trkpt>
      <trkpt lat="43.69151" lon="1.36885">
        <ele>128</ele>
        <time>2025-03-23T11:00:48Z</time>
      </trkpt>
      <trkpt lat="43.69154" lon="1.36885">
        <ele>128</ele>
        <time>2025-03-23T11:00:49Z</time>
      </trkpt>
      <trkpt lat="43.69156" lon="1.36886">
        <ele>128</ele>
        <time>2025-03-23T11:00:50Z</time>
      </trkpt>
      <trkpt lat="43.69159" lon="1.36886">
        <ele>127</ele>
        <time>2025-03-23T11:00:51Z</time>
      </trkpt>
      <trkpt lat="43.69162" lon="1.36886">
        <ele>127</ele>
        <time>2025-03-23T11:00:52Z</time>
      </trkpt>
      <trkpt lat="43.69166" lon="1.36886">
        <ele>127</ele>
        <time>2025-03-23T11:00:53Z</time>
      </trkpt>
      <trkpt lat="43.69168" lon="1.36886">
        <ele>127</ele>
        <time>2025-03-23T11:00:54Z</time>
      </trkpt>
      <trkpt lat="43.69169" lon="1.36886">
        <ele>127</ele>
        <time>2025-03-23T11:00:55Z</time>
      </trkpt>
      <trkpt lat="43.69172" lon="1.36886">
        <ele>127</ele>
        <time>2025-03-23T11:00:56Z</time>
      </trkpt>
      <trkpt lat="43.69176" lon="1.36886">
        <ele>127</ele>
        <time>2025-03-23T11:00:57Z</time>
      </trkpt>
      <trkpt lat="43.69179" lon="1.36886">
        <ele>127</ele>
        <time>2025-03-23T11:00:58Z</time>
      </trkpt>
      <trkpt lat="43.69181" lon="1.36886">
        <ele>127</ele>
        <time>2025-03-23T11:00:59Z</time>
      </trkpt>
      <trkpt lat="43.69184" lon="1.36887">
        <ele>127</ele>
        <time>2025-03-23T11:01:00Z</time>
      </trkpt>
      <trkpt lat="43.69186" lon="1.36887">
        <ele>127</ele>
        <time>2025-03-23T11:01:01Z</time>
      </trkpt>
      <trkpt lat="43.69189" lon="1.36888">
        <ele>127</ele>
        <time>2025-03-23T11:01:02Z</time>
      </trkpt>
      <trkpt lat="43.69191" lon="1.36888">
        <ele>127</ele>
        <time>2025-03-23T11:01:03Z</time>
      </trkpt>
      <trkpt lat="43.69194" lon="1.36888">
        <ele>127</ele>
        <time>2025-03-23T11:01:04Z</time>
      </trkpt>
      <trkpt lat="43.69196" lon="1.36888">
        <ele>127</ele>
        <time>2025-03-23T11:01:05Z</time>
      </trkpt>
      <trkpt lat="43.69199" lon="1.36888">
        <ele>127</ele>
        <time>2025-03-23T11:01:06Z</time>
      </trkpt>
      <trkpt lat="43.69202" lon="1.36888">
        <ele>127</ele>
        <time>2025-03-23T11:01:07Z</time>
      </trkpt>
      <trkpt lat="43.69205" lon="1.36887">
        <ele>127</ele>
        <time>2025-03-23T11:01:08Z</time>
      </trkpt>
      <trkpt lat="43.69208" lon="1.36887">
        <ele>128</ele>
        <time>2025-03-23T11:01:09Z</time>
      </trkpt>
      <trkpt lat="43.69211" lon="1.36888">
        <ele>128</ele>
        <time>2025-03-23T11:01:10Z</time>
      </trkpt>
      <trkpt lat="43.69213" lon="1.36888">
        <ele>127</ele>
        <time>2025-03-23T11:01:11Z</time>
      </trkpt>
      <trkpt lat="43.69218" lon="1.36889">
        <ele>127</ele>
        <time>2025-03-23T11:01:12Z</time>
      </trkpt>
      <trkpt lat="43.69219" lon="1.36889">
        <ele>127</ele>
        <time>2025-03-23T11:01:13Z</time>
      </trkpt>
      <trkpt lat="43.69221" lon="1.36889">
        <ele>128</ele>
        <time>2025-03-23T11:01:14Z</time>
      </trkpt>
      <trkpt lat="43.69224" lon="1.36889">
        <ele>128</ele>
        <time>2025-03-23T11:01:15Z</time>
      </trkpt>
      <trkpt lat="43.69227" lon="1.3689">
        <ele>127</ele>
        <time>2025-03-23T11:01:16Z</time>
      </trkpt>
      <trkpt lat="43.69232" lon="1.36891">
        <ele>127</ele>
        <time>2025-03-23T11:01:18Z</time>
      </trkpt>
      <trkpt lat="43.69235" lon="1.36891">
        <ele>128</ele>
        <time>2025-03-23T11:01:19Z</time>
      </trkpt>
      <trkpt lat="43.69237" lon="1.36891">
        <ele>128</ele>
        <time>2025-03-23T11:01:20Z</time>
      </trkpt>
      <trkpt lat="43.6924" lon="1.36891">
        <ele>127</ele>
        <time>2025-03-23T11:01:21Z</time>
      </trkpt>
      <trkpt lat="43.69243" lon="1.36891">
        <ele>127</ele>
        <time>2025-03-23T11:01:22Z</time>
      </trkpt>
      <trkpt lat="43.69245" lon="1.3689">
        <ele>127</ele>
        <time>2025-03-23T11:01:23Z</time>
      </trkpt>
      <trkpt lat="43.69248" lon="1.3689">
        <ele>127</ele>
        <time>2025-03-23T11:01:24Z</time>
      </trkpt>
      <trkpt lat="43.69252" lon="1.3689">
        <ele>127</ele>
        <time>2025-03-23T11:01:25Z</time>
      </trkpt>
      <trkpt lat="43.69253" lon="1.3689">
        <ele>127</ele>
        <time>2025-03-23T11:01:26Z</time>
      </trkpt>
      <trkpt lat="43.69256" lon="1.3689">
        <ele>127</ele>
        <time>2025-03-23T11:01:27Z</time>
      </trkpt>
      <trkpt lat="43.69258" lon="1.3689">
        <ele>127</ele>
        <time>2025-03-23T11:01:28Z</time>
      </trkpt>
      <trkpt lat="43.69261" lon="1.36891">
        <ele>127</ele>
        <time>2025-03-23T11:01:29Z</time>
      </trkpt>
      <trkpt lat="43.69264" lon="1.36892">
        <ele>127</ele>
        <time>2025-03-23T11:01:30Z</time>
      </trkpt>
      <trkpt lat="43.69268" lon="1.36892">
        <ele>127</ele>
        <time>2025-03-23T11:01:31Z</time>
      </trkpt>
      <trkpt lat="43.6927" lon="1.36892">
        <ele>127</ele>
        <time>2025-03-23T11:01:32Z</time>
      </trkpt>
      <trkpt lat="43.69272" lon="1.36893">
        <ele>127</ele>
        <time>2025-03-23T11:01:33Z</time>
      </trkpt>
      <trkpt lat="43.69275" lon="1.36893">
        <ele>127</ele>
        <time>2025-03-23T11:01:34Z</time>
      </trkpt>
      <trkpt lat="43.69278" lon="1.36894">
        <ele>127</ele>
        <time>2025-03-23T11:01:35Z</time>
      </trkpt>
      <trkpt lat="43.69282" lon="1.36894">
        <ele>127</ele>
        <time>2025-03-23T11:01:36Z</time>
      </trkpt>
      <trkpt lat="43.69283" lon="1.36895">
        <ele>127</ele>
        <time>2025-03-23T11:01:37Z</time>
      </trkpt>
      <trkpt lat="43.69285" lon="1.36895">
        <ele>127</ele>
        <time>2025-03-23T11:01:38Z</time>
      </trkpt>
      <trkpt lat="43.6929" lon="1.36896">
        <ele>127</ele>
        <time>2025-03-23T11:01:39Z</time>
      </trkpt>
      <trkpt lat="43.69291" lon="1.36896">
        <ele>128</ele>
        <time>2025-03-23T11:01:40Z</time>
      </trkpt>
      <trkpt lat="43.69293" lon="1.36897">
        <ele>128</ele>
        <time>2025-03-23T11:01:41Z</time>
      </trkpt>
      <trkpt lat="43.69296" lon="1.36898">
        <ele>128</ele>
        <time>2025-03-23T11:01:42Z</time>
      </trkpt>
      <trkpt lat="43.69298" lon="1.36898">
        <ele>128</ele>
        <time>2025-03-23T11:01:43Z</time>
      </trkpt>
      <trkpt lat="43.69301" lon="1.36899">
        <ele>128</ele>
        <time>2025-03-23T11:01:44Z</time>
      </trkpt>
      <trkpt lat="43.69303" lon="1.36899">
        <ele>128</ele>
        <time>2025-03-23T11:01:45Z</time>
      </trkpt>
      <trkpt lat="43.69306" lon="1.36899">
        <ele>128</ele>
        <time>2025-03-23T11:01:46Z</time>
      </trkpt>
      <trkpt lat="43.69308" lon="1.36899">
        <ele>127</ele>
        <time>2025-03-23T11:01:47Z</time>
      </trkpt>
      <trkpt lat="43.6931" lon="1.36899">
        <ele>127</ele>
        <time>2025-03-23T11:01:48Z</time>
      </trkpt>
      <trkpt lat="43.69315" lon="1.36899">
        <ele>127</ele>
        <time>2025-03-23T11:01:49Z</time>
      </trkpt>
      <trkpt lat="43.69316" lon="1.36899">
        <ele>127</ele>
        <time>2025-03-23T11:01:50Z</time>
      </trkpt>
      <trkpt lat="43.69318" lon="1.36899">
        <ele>127</ele>
        <time>2025-03-23T11:01:51Z</time>
      </trkpt>
      <trkpt lat="43.69321" lon="1.36899">
        <ele>127</ele>
        <time>2025-03-23T11:01:52Z</time>
      </trkpt>
      <trkpt lat="43.69323" lon="1.36899">
        <ele>127</ele>
        <time>2025-03-23T11:01:53Z</time>
      </trkpt>
      <trkpt lat="43.69326" lon="1.36899">
        <ele>127</ele>
        <time>2025-03-23T11:01:54Z</time>
      </trkpt>
      <trkpt lat="43.6933" lon="1.369">
        <ele>127</ele>
        <time>2025-03-23T11:01:55Z</time>
      </trkpt>
      <trkpt lat="43.69331" lon="1.369">
        <ele>127</ele>
        <time>2025-03-23T11:01:56Z</time>
      </trkpt>
      <trkpt lat="43.69334" lon="1.36901">
        <ele>127</ele>
        <time>2025-03-23T11:01:57Z</time>
      </trkpt>
      <trkpt lat="43.69337" lon="1.36901">
        <ele>127</ele>
        <time>2025-03-23T11:01:58Z</time>
      </trkpt>
      <trkpt lat="43.69339" lon="1.36902">
        <ele>127</ele>
        <time>2025-03-23T11:01:59Z</time>
      </trkpt>
      <trkpt lat="43.69341" lon="1.36902">
        <ele>127</ele>
        <time>2025-03-23T11:02:00Z</time>
      </trkpt>
      <trkpt lat="43.69344" lon="1.36902">
        <ele>127</ele>
        <time>2025-03-23T11:02:01Z</time>
      </trkpt>
      <trkpt lat="43.69347" lon="1.36902">
        <ele>127</ele>
        <time>2025-03-23T11:02:02Z</time>
      </trkpt>
      <trkpt lat="43.69349" lon="1.36902">
        <ele>127</ele>
        <time>2025-03-23T11:02:03Z</time>
      </trkpt>
      <trkpt lat="43.69351" lon="1.36902">
        <ele>127</ele>
        <time>2025-03-23T11:02:04Z</time>
      </trkpt>
      <trkpt lat="43.69355" lon="1.36903">
        <ele>127</ele>
        <time>2025-03-23T11:02:05Z</time>
      </trkpt>
      <trkpt lat="43.69357" lon="1.36903">
        <ele>127</ele>
        <time>2025-03-23T11:02:06Z</time>
      </trkpt>
      <trkpt lat="43.69361" lon="1.36904">
        <ele>127</ele>
        <time>2025-03-23T11:02:07Z</time>
      </trkpt>
      <trkpt lat="43.69362" lon="1.36904">
        <ele>127</ele>
        <time>2025-03-23T11:02:08Z</time>
      </trkpt>
      <trkpt lat="43.69366" lon="1.36905">
        <ele>127</ele>
        <time>2025-03-23T11:02:09Z</time>
      </trkpt>
      <trkpt lat="43.69367" lon="1.36906">
        <ele>127</ele>
        <time>2025-03-23T11:02:10Z</time>
      </trkpt>
      <trkpt lat="43.6937" lon="1.36906">
        <ele>127</ele>
        <time>2025-03-23T11:02:11Z</time>
      </trkpt>
      <trkpt lat="43.69372" lon="1.36906">
        <ele>127</ele>
        <time>2025-03-23T11:02:12Z</time>
      </trkpt>
      <trkpt lat="43.69375" lon="1.36906">
        <ele>127</ele>
        <time>2025-03-23T11:02:13Z</time>
      </trkpt>
      <trkpt lat="43.69379" lon="1.36906">
        <ele>127</ele>
        <time>2025-03-23T11:02:14Z</time>
      </trkpt>
      <trkpt lat="43.6938" lon="1.36907">
        <ele>127</ele>
        <time>2025-03-23T11:02:15Z</time>
      </trkpt>
      <trkpt lat="43.69382" lon="1.36906">
        <ele>127</ele>
        <time>2025-03-23T11:02:16Z</time>
      </trkpt>
      <trkpt lat="43.69385" lon="1.36906">
        <ele>126</ele>
        <time>2025-03-23T11:02:17Z</time>
      </trkpt>
      <trkpt lat="43.69387" lon="1.36907">
        <ele>126</ele>
        <time>2025-03-23T11:02:18Z</time>
      </trkpt>
      <trkpt lat="43.6939" lon="1.36907">
        <ele>126</ele>
        <time>2025-03-23T11:02:19Z</time>
      </trkpt>
      <trkpt lat="43.69392" lon="1.36907">
        <ele>126</ele>
        <time>2025-03-23T11:02:20Z</time>
      </trkpt>
      <trkpt lat="43.69395" lon="1.36907">
        <ele>127</ele>
        <time>2025-03-23T11:02:21Z</time>
      </trkpt>
      <trkpt lat="43.69398" lon="1.36907">
        <ele>127</ele>
        <time>2025-03-23T11:02:22Z</time>
      </trkpt>
      <trkpt lat="43.694" lon="1.36907">
        <ele>127</ele>
        <time>2025-03-23T11:02:23Z</time>
      </trkpt>
      <trkpt lat="43.69402" lon="1.36908">
        <ele>127</ele>
        <time>2025-03-23T11:02:24Z</time>
      </trkpt>
      <trkpt lat="43.69404" lon="1.36909">
        <ele>126</ele>
        <time>2025-03-23T11:02:25Z</time>
      </trkpt>
      <trkpt lat="43.69406" lon="1.3691">
        <ele>126</ele>
        <time>2025-03-23T11:02:26Z</time>
      </trkpt>
      <trkpt lat="43.69408" lon="1.36911">
        <ele>126</ele>
        <time>2025-03-23T11:02:27Z</time>
      </trkpt>
      <trkpt lat="43.6941" lon="1.36912">
        <ele>126</ele>
        <time>2025-03-23T11:02:28Z</time>
      </trkpt>
      <trkpt lat="43.69413" lon="1.36914">
        <ele>126</ele>
        <time>2025-03-23T11:02:29Z</time>
      </trkpt>
      <trkpt lat="43.69416" lon="1.36916">
        <ele>126</ele>
        <time>2025-03-23T11:02:30Z</time>
      </trkpt>
      <trkpt lat="43.69418" lon="1.36917">
        <ele>127</ele>
        <time>2025-03-23T11:02:31Z</time>
      </trkpt>
      <trkpt lat="43.6942" lon="1.36918">
        <ele>127</ele>
        <time>2025-03-23T11:02:32Z</time>
      </trkpt>
      <trkpt lat="43.69425" lon="1.3692">
        <ele>126</ele>
        <time>2025-03-23T11:02:34Z</time>
      </trkpt>
      <trkpt lat="43.69428" lon="1.36921">
        <ele>126</ele>
        <time>2025-03-23T11:02:35Z</time>
      </trkpt>
      <trkpt lat="43.6943" lon="1.36922">
        <ele>126</ele>
        <time>2025-03-23T11:02:36Z</time>
      </trkpt>
      <trkpt lat="43.69432" lon="1.36923">
        <ele>126</ele>
        <time>2025-03-23T11:02:37Z</time>
      </trkpt>
      <trkpt lat="43.69435" lon="1.36924">
        <ele>126</ele>
        <time>2025-03-23T11:02:38Z</time>
      </trkpt>
      <trkpt lat="43.69438" lon="1.36925">
        <ele>126</ele>
        <time>2025-03-23T11:02:39Z</time>
      </trkpt>
      <trkpt lat="43.6944" lon="1.36926">
        <ele>126</ele>
        <time>2025-03-23T11:02:40Z</time>
      </trkpt>
      <trkpt lat="43.69444" lon="1.36927">
        <ele>127</ele>
        <time>2025-03-23T11:02:41Z</time>
      </trkpt>
      <trkpt lat="43.69446" lon="1.36928">
        <ele>127</ele>
        <time>2025-03-23T11:02:42Z</time>
      </trkpt>
      <trkpt lat="43.69449" lon="1.36928">
        <ele>127</ele>
        <time>2025-03-23T11:02:43Z</time>
      </trkpt>
      <trkpt lat="43.69451" lon="1.36929">
        <ele>127</ele>
        <time>2025-03-23T11:02:44Z</time>
      </trkpt>
      <trkpt lat="43.69454" lon="1.3693">
        <ele>127</ele>
        <time>2025-03-23T11:02:45Z</time>
      </trkpt>
      <trkpt lat="43.69456" lon="1.36931">
        <ele>127</ele>
        <time>2025-03-23T11:02:46Z</time>
      </trkpt>
      <trkpt lat="43.69459" lon="1.36932">
        <ele>127</ele>
        <time>2025-03-23T11:02:47Z</time>
      </trkpt>
      <trkpt lat="43.69462" lon="1.36933">
        <ele>127</ele>
        <time>2025-03-23T11:02:48Z</time>
      </trkpt>
      <trkpt lat="43.69463" lon="1.36934">
        <ele>127</ele>
        <time>2025-03-23T11:02:49Z</time>
      </trkpt>
      <trkpt lat="43.69466" lon="1.36935">
        <ele>127</ele>
        <time>2025-03-23T11:02:50Z</time>
      </trkpt>
      <trkpt lat="43.69468" lon="1.36935">
        <ele>127</ele>
        <time>2025-03-23T11:02:51Z</time>
      </trkpt>
      <trkpt lat="43.69472" lon="1.36936">
        <ele>127</ele>
        <time>2025-03-23T11:02:52Z</time>
      </trkpt>
      <trkpt lat="43.69473" lon="1.36937">
        <ele>126</ele>
        <time>2025-03-23T11:02:53Z</time>
      </trkpt>
      <trkpt lat="43.69476" lon="1.36937">
        <ele>126</ele>
        <time>2025-03-23T11:02:54Z</time>
      </trkpt>
      <trkpt lat="43.69478" lon="1.36938">
        <ele>126</ele>
        <time>2025-03-23T11:02:55Z</time>
      </trkpt>
      <trkpt lat="43.69481" lon="1.36938">
        <ele>126</ele>
        <time>2025-03-23T11:02:56Z</time>
      </trkpt>
      <trkpt lat="43.69483" lon="1.36939">
        <ele>126</ele>
        <time>2025-03-23T11:02:57Z</time>
      </trkpt>
      <trkpt lat="43.69486" lon="1.3694">
        <ele>126</ele>
        <time>2025-03-23T11:02:58Z</time>
      </trkpt>
      <trkpt lat="43.69488" lon="1.3694">
        <ele>126</ele>
        <time>2025-03-23T11:02:59Z</time>
      </trkpt>
      <trkpt lat="43.69491" lon="1.36941">
        <ele>126</ele>
        <time>2025-03-23T11:03:00Z</time>
      </trkpt>
      <trkpt lat="43.69493" lon="1.36941">
        <ele>126</ele>
        <time>2025-03-23T11:03:01Z</time>
      </trkpt>
      <trkpt lat="43.69497" lon="1.36942">
        <ele>126</ele>
        <time>2025-03-23T11:03:02Z</time>
      </trkpt>
      <trkpt lat="43.69498" lon="1.36943">
        <ele>126</ele>
        <time>2025-03-23T11:03:03Z</time>
      </trkpt>
      <trkpt lat="43.695" lon="1.36943">
        <ele>126</ele>
        <time>2025-03-23T11:03:04Z</time>
      </trkpt>
      <trkpt lat="43.69503" lon="1.36944">
        <ele>126</ele>
        <time>2025-03-23T11:03:05Z</time>
      </trkpt>
      <trkpt lat="43.69506" lon="1.36944">
        <ele>126</ele>
        <time>2025-03-23T11:03:06Z</time>
      </trkpt>
      <trkpt lat="43.69508" lon="1.36945">
        <ele>126</ele>
        <time>2025-03-23T11:03:07Z</time>
      </trkpt>
      <trkpt lat="43.69512" lon="1.36946">
        <ele>126</ele>
        <time>2025-03-23T11:03:08Z</time>
      </trkpt>
      <trkpt lat="43.69513" lon="1.36947">
        <ele>126</ele>
        <time>2025-03-23T11:03:09Z</time>
      </trkpt>
      <trkpt lat="43.69515" lon="1.36948">
        <ele>126</ele>
        <time>2025-03-23T11:03:10Z</time>
      </trkpt>
      <trkpt lat="43.69519" lon="1.3695">
        <ele>126</ele>
        <time>2025-03-23T11:03:11Z</time>
      </trkpt>
      <trkpt lat="43.6952" lon="1.36951">
        <ele>126</ele>
        <time>2025-03-23T11:03:12Z</time>
      </trkpt>
      <trkpt lat="43.69524" lon="1.36952">
        <ele>126</ele>
        <time>2025-03-23T11:03:13Z</time>
      </trkpt>
      <trkpt lat="43.69525" lon="1.36952">
        <ele>126</ele>
        <time>2025-03-23T11:03:14Z</time>
      </trkpt>
      <trkpt lat="43.69528" lon="1.36953">
        <ele>126</ele>
        <time>2025-03-23T11:03:15Z</time>
      </trkpt>
      <trkpt lat="43.69531" lon="1.36954">
        <ele>126</ele>
        <time>2025-03-23T11:03:16Z</time>
      </trkpt>
      <trkpt lat="43.69533" lon="1.36955">
        <ele>126</ele>
        <time>2025-03-23T11:03:17Z</time>
      </trkpt>
      <trkpt lat="43.69537" lon="1.36956">
        <ele>126</ele>
        <time>2025-03-23T11:03:18Z</time>
      </trkpt>
      <trkpt lat="43.69539" lon="1.36957">
        <ele>126</ele>
        <time>2025-03-23T11:03:19Z</time>
      </trkpt>
      <trkpt lat="43.69541" lon="1.36958">
        <ele>126</ele>
        <time>2025-03-23T11:03:20Z</time>
      </trkpt>
      <trkpt lat="43.69544" lon="1.36959">
        <ele>126</ele>
        <time>2025-03-23T11:03:21Z</time>
      </trkpt>
      <trkpt lat="43.69547" lon="1.3696">
        <ele>126</ele>
        <time>2025-03-23T11:03:22Z</time>
      </trkpt>
      <trkpt lat="43.69549" lon="1.36961">
        <ele>126</ele>
        <time>2025-03-23T11:03:23Z</time>
      </trkpt>
      <trkpt lat="43.69552" lon="1.36961">
        <ele>126</ele>
        <time>2025-03-23T11:03:24Z</time>
      </trkpt>
      <trkpt lat="43.69556" lon="1.36963">
        <ele>126</ele>
        <time>2025-03-23T11:03:25Z</time>
      </trkpt>
      <trkpt lat="43.69557" lon="1.36963">
        <ele>126</ele>
        <time>2025-03-23T11:03:26Z</time>
      </trkpt>
      <trkpt lat="43.6956" lon="1.36965">
        <ele>126</ele>
        <time>2025-03-23T11:03:27Z</time>
      </trkpt>
      <trkpt lat="43.69561" lon="1.36966">
        <ele>126</ele>
        <time>2025-03-23T11:03:28Z</time>
      </trkpt>
      <trkpt lat="43.69564" lon="1.36967">
        <ele>126</ele>
        <time>2025-03-23T11:03:29Z</time>
      </trkpt>
      <trkpt lat="43.69567" lon="1.36969">
        <ele>126</ele>
        <time>2025-03-23T11:03:30Z</time>
      </trkpt>
      <trkpt lat="43.69568" lon="1.3697">
        <ele>126</ele>
        <time>2025-03-23T11:03:31Z</time>
      </trkpt>
      <trkpt lat="43.69571" lon="1.36971">
        <ele>126</ele>
        <time>2025-03-23T11:03:32Z</time>
      </trkpt>
      <trkpt lat="43.69573" lon="1.36971">
        <ele>126</ele>
        <time>2025-03-23T11:03:33Z</time>
      </trkpt>
      <trkpt lat="43.69575" lon="1.36971">
        <ele>126</ele>
        <time>2025-03-23T11:03:34Z</time>
      </trkpt>
      <trkpt lat="43.69578" lon="1.36972">
        <ele>126</ele>
        <time>2025-03-23T11:03:35Z</time>
      </trkpt>
      <trkpt lat="43.6958" lon="1.36972">
        <ele>126</ele>
        <time>2025-03-23T11:03:36Z</time>
      </trkpt>
      <trkpt lat="43.69583" lon="1.36973">
        <ele>126</ele>
        <time>2025-03-23T11:03:37Z</time>
      </trkpt>
      <trkpt lat="43.69585" lon="1.36974">
        <ele>126</ele>
        <time>2025-03-23T11:03:38Z</time>
      </trkpt>
      <trkpt lat="43.69587" lon="1.36975">
        <ele>126</ele>
        <time>2025-03-23T11:03:39Z</time>
      </trkpt>
      <trkpt lat="43.69589" lon="1.36976">
        <ele>126</ele>
        <time>2025-03-23T11:03:40Z</time>
      </trkpt>
      <trkpt lat="43.69592" lon="1.36976">
        <ele>126</ele>
        <time>2025-03-23T11:03:41Z</time>
      </trkpt>
      <trkpt lat="43.69594" lon="1.36977">
        <ele>126</ele>
        <time>2025-03-23T11:03:42Z</time>
      </trkpt>
      <trkpt lat="43.69597" lon="1.36978">
        <ele>126</ele>
        <time>2025-03-23T11:03:43Z</time>
      </trkpt>
      <trkpt lat="43.696" lon="1.36978">
        <ele>126</ele>
        <time>2025-03-23T11:03:44Z</time>
      </trkpt>
      <trkpt lat="43.69602" lon="1.36978">
        <ele>126</ele>
        <time>2025-03-23T11:03:45Z</time>
      </trkpt>
      <trkpt lat="43.69605" lon="1.36978">
        <ele>126</ele>
        <time>2025-03-23T11:03:46Z</time>
      </trkpt>
      <trkpt lat="43.69607" lon="1.36978">
        <ele>126</ele>
        <time>2025-03-23T11:03:47Z</time>
      </trkpt>
      <trkpt lat="43.69609" lon="1.36978">
        <ele>126</ele>
        <time>2025-03-23T11:03:48Z</time>
      </trkpt>
      <trkpt lat="43.69612" lon="1.36979">
        <ele>126</ele>
        <time>2025-03-23T11:03:49Z</time>
      </trkpt>
      <trkpt lat="43.69614" lon="1.36979">
        <ele>126</ele>
        <time>2025-03-23T11:03:50Z</time>
      </trkpt>
      <trkpt lat="43.69616" lon="1.3698">
        <ele>126</ele>
        <time>2025-03-23T11:03:51Z</time>
      </trkpt>
      <trkpt lat="43.69618" lon="1.3698">
        <ele>126</ele>
        <time>2025-03-23T11:03:52Z</time>
      </trkpt>
      <trkpt lat="43.69621" lon="1.36981">
        <ele>126</ele>
        <time>2025-03-23T11:03:53Z</time>
      </trkpt>
      <trkpt lat="43.69625" lon="1.36982">
        <ele>126</ele>
        <time>2025-03-23T11:03:54Z</time>
      </trkpt>
      <trkpt lat="43.69626" lon="1.36983">
        <ele>126</ele>
        <time>2025-03-23T11:03:55Z</time>
      </trkpt>
      <trkpt lat="43.69628" lon="1.36984">
        <ele>126</ele>
        <time>2025-03-23T11:03:56Z</time>
      </trkpt>
      <trkpt lat="43.69631" lon="1.36984">
        <ele>126</ele>
        <time>2025-03-23T11:03:57Z</time>
      </trkpt>
      <trkpt lat="43.69633" lon="1.36985">
        <ele>126</ele>
        <time>2025-03-23T11:03:58Z</time>
      </trkpt>
      <trkpt lat="43.69635" lon="1.36986">
        <ele>126</ele>
        <time>2025-03-23T11:03:59Z</time>
      </trkpt>
      <trkpt lat="43.69638" lon="1.36987">
        <ele>126</ele>
        <time>2025-03-23T11:04:00Z</time>
      </trkpt>
      <trkpt lat="43.69642" lon="1.36989">
        <ele>126</ele>
        <time>2025-03-23T11:04:01Z</time>
      </trkpt>
      <trkpt lat="43.69643" lon="1.3699">
        <ele>126</ele>
        <time>2025-03-23T11:04:02Z</time>
      </trkpt>
      <trkpt lat="43.69646" lon="1.36991">
        <ele>126</ele>
        <time>2025-03-23T11:04:03Z</time>
      </trkpt>
      <trkpt lat="43.69649" lon="1.36992">
        <ele>126</ele>
        <time>2025-03-23T11:04:04Z</time>
      </trkpt>
      <trkpt lat="43.69651" lon="1.36992">
        <ele>126</ele>
        <time>2025-03-23T11:04:05Z</time>
      </trkpt>
      <trkpt lat="43.69654" lon="1.36993">
        <ele>126</ele>
        <time>2025-03-23T11:04:06Z</time>
      </trkpt>
      <trkpt lat="43.69657" lon="1.36994">
        <ele>126</ele>
        <time>2025-03-23T11:04:07Z</time>
      </trkpt>
      <trkpt lat="43.69659" lon="1.36996">
        <ele>126</ele>
        <time>2025-03-23T11:04:08Z</time>
      </trkpt>
      <trkpt lat="43.69662" lon="1.36997">
        <ele>126</ele>
        <time>2025-03-23T11:04:09Z</time>
      </trkpt>
      <trkpt lat="43.69664" lon="1.36998">
        <ele>126</ele>
        <time>2025-03-23T11:04:10Z</time>
      </trkpt>
      <trkpt lat="43.69667" lon="1.36999">
        <ele>126</ele>
        <time>2025-03-23T11:04:11Z</time>
      </trkpt>
      <trkpt lat="43.69669" lon="1.37">
        <ele>126</ele>
        <time>2025-03-23T11:04:12Z</time>
      </trkpt>
      <trkpt lat="43.69671" lon="1.37">
        <ele>126</ele>
        <time>2025-03-23T11:04:13Z</time>
      </trkpt>
      <trkpt lat="43.69674" lon="1.37001">
        <ele>126</ele>
        <time>2025-03-23T11:04:14Z</time>
      </trkpt>
      <trkpt lat="43.69676" lon="1.37001">
        <ele>126</ele>
        <time>2025-03-23T11:04:15Z</time>
      </trkpt>
      <trkpt lat="43.69678" lon="1.37">
        <ele>126</ele>
        <time>2025-03-23T11:04:16Z</time>
      </trkpt>
      <trkpt lat="43.69681" lon="1.37">
        <ele>126</ele>
        <time>2025-03-23T11:04:17Z</time>
      </trkpt>
      <trkpt lat="43.69683" lon="1.37">
        <ele>126</ele>
        <time>2025-03-23T11:04:18Z</time>
      </trkpt>
      <trkpt lat="43.69687" lon="1.36999">
        <ele>126</ele>
        <time>2025-03-23T11:04:19Z</time>
      </trkpt>
      <trkpt lat="43.69689" lon="1.36999">
        <ele>126</ele>
        <time>2025-03-23T11:04:20Z</time>
      </trkpt>
      <trkpt lat="43.69691" lon="1.36999">
        <ele>126</ele>
        <time>2025-03-23T11:04:21Z</time>
      </trkpt>
      <trkpt lat="43.69694" lon="1.36999">
        <ele>126</ele>
        <time>2025-03-23T11:04:22Z</time>
      </trkpt>
      <trkpt lat="43.69696" lon="1.37">
        <ele>126</ele>
        <time>2025-03-23T11:04:23Z</time>
      </trkpt>
      <trkpt lat="43.69699" lon="1.37">
        <ele>126</ele>
        <time>2025-03-23T11:04:24Z</time>
      </trkpt>
      <trkpt lat="43.69702" lon="1.36999">
        <ele>126</ele>
        <time>2025-03-23T11:04:25Z</time>
      </trkpt>
      <trkpt lat="43.69705" lon="1.37">
        <ele>126</ele>
        <time>2025-03-23T11:04:26Z</time>
      </trkpt>
      <trkpt lat="43.69708" lon="1.37">
        <ele>126</ele>
        <time>2025-03-23T11:04:27Z</time>
      </trkpt>
      <trkpt lat="43.69711" lon="1.37001">
        <ele>126</ele>
        <time>2025-03-23T11:04:28Z</time>
      </trkpt>
      <trkpt lat="43.69713" lon="1.37001">
        <ele>126</ele>
        <time>2025-03-23T11:04:29Z</time>
      </trkpt>
      <trkpt lat="43.69716" lon="1.37001">
        <ele>126</ele>
        <time>2025-03-23T11:04:30Z</time>
      </trkpt>
      <trkpt lat="43.69718" lon="1.37001">
        <ele>126</ele>
        <time>2025-03-23T11:04:31Z</time>
      </trkpt>
      <trkpt lat="43.69721" lon="1.37001">
        <ele>126</ele>
        <time>2025-03-23T11:04:32Z</time>
      </trkpt>
      <trkpt lat="43.69723" lon="1.37001">
        <ele>125</ele>
        <time>2025-03-23T11:04:33Z</time>
      </trkpt>
      <trkpt lat="43.69726" lon="1.37001">
        <ele>126</ele>
        <time>2025-03-23T11:04:34Z</time>
      </trkpt>
      <trkpt lat="43.69729" lon="1.37001">
        <ele>126</ele>
        <time>2025-03-23T11:04:35Z</time>
      </trkpt>
      <trkpt lat="43.69732" lon="1.37001">
        <ele>126</ele>
        <time>2025-03-23T11:04:36Z</time>
      </trkpt>
      <trkpt lat="43.69735" lon="1.37001">
        <ele>126</ele>
        <time>2025-03-23T11:04:37Z</time>
      </trkpt>
      <trkpt lat="43.69737" lon="1.37001">
        <ele>126</ele>
        <time>2025-03-23T11:04:38Z</time>
      </trkpt>
      <trkpt lat="43.6974" lon="1.37002">
        <ele>126</ele>
        <time>2025-03-23T11:04:39Z</time>
      </trkpt>
      <trkpt lat="43.69742" lon="1.37002">
        <ele>126</ele>
        <time>2025-03-23T11:04:40Z</time>
      </trkpt>
      <trkpt lat="43.69745" lon="1.37002">
        <ele>126</ele>
        <time>2025-03-23T11:04:41Z</time>
      </trkpt>
      <trkpt lat="43.69748" lon="1.37003">
        <ele>126</ele>
        <time>2025-03-23T11:04:42Z</time>
      </trkpt>
      <trkpt lat="43.6975" lon="1.37003">
        <ele>126</ele>
        <time>2025-03-23T11:04:43Z</time>
      </trkpt>
      <trkpt lat="43.69753" lon="1.37003">
        <ele>126</ele>
        <time>2025-03-23T11:04:44Z</time>
      </trkpt>
      <trkpt lat="43.69756" lon="1.37004">
        <ele>126</ele>
        <time>2025-03-23T11:04:45Z</time>
      </trkpt>
      <trkpt lat="43.69758" lon="1.37005">
        <ele>126</ele>
        <time>2025-03-23T11:04:46Z</time>
      </trkpt>
      <trkpt lat="43.69761" lon="1.37006">
        <ele>126</ele>
        <time>2025-03-23T11:04:47Z</time>
      </trkpt>
      <trkpt lat="43.69763" lon="1.37007">
        <ele>126</ele>
        <time>2025-03-23T11:04:48Z</time>
      </trkpt>
      <trkpt lat="43.69766" lon="1.37008">
        <ele>126</ele>
        <time>2025-03-23T11:04:49Z</time>
      </trkpt>
      <trkpt lat="43.69769" lon="1.37008">
        <ele>126</ele>
        <time>2025-03-23T11:04:50Z</time>
      </trkpt>
      <trkpt lat="43.69771" lon="1.37009">
        <ele>126</ele>
        <time>2025-03-23T11:04:51Z</time>
      </trkpt>
      <trkpt lat="43.69773" lon="1.3701">
        <ele>126</ele>
        <time>2025-03-23T11:04:52Z</time>
      </trkpt>
      <trkpt lat="43.69775" lon="1.37012">
        <ele>126</ele>
        <time>2025-03-23T11:04:53Z</time>
      </trkpt>
      <trkpt lat="43.69778" lon="1.37014">
        <ele>126</ele>
        <time>2025-03-23T11:04:54Z</time>
      </trkpt>
      <trkpt lat="43.69781" lon="1.37014">
        <ele>126</ele>
        <time>2025-03-23T11:04:55Z</time>
      </trkpt>
      <trkpt lat="43.69784" lon="1.37015">
        <ele>126</ele>
        <time>2025-03-23T11:04:56Z</time>
      </trkpt>
      <trkpt lat="43.69787" lon="1.37016">
        <ele>126</ele>
        <time>2025-03-23T11:04:57Z</time>
      </trkpt>
      <trkpt lat="43.6979" lon="1.37017">
        <ele>126</ele>
        <time>2025-03-23T11:04:58Z</time>
      </trkpt>
      <trkpt lat="43.69793" lon="1.37018">
        <ele>126</ele>
        <time>2025-03-23T11:04:59Z</time>
      </trkpt>
      <trkpt lat="43.69795" lon="1.37019">
        <ele>125</ele>
        <time>2025-03-23T11:05:00Z</time>
      </trkpt>
      <trkpt lat="43.69798" lon="1.3702">
        <ele>126</ele>
        <time>2025-03-23T11:05:01Z</time>
      </trkpt>
      <trkpt lat="43.69801" lon="1.37021">
        <ele>126</ele>
        <time>2025-03-23T11:05:02Z</time>
      </trkpt>
      <trkpt lat="43.69805" lon="1.37022">
        <ele>126</ele>
        <time>2025-03-23T11:05:03Z</time>
      </trkpt>
      <trkpt lat="43.69806" lon="1.37022">
        <ele>126</ele>
        <time>2025-03-23T11:05:04Z</time>
      </trkpt>
      <trkpt lat="43.6981" lon="1.37023">
        <ele>126</ele>
        <time>2025-03-23T11:05:05Z</time>
      </trkpt>
      <trkpt lat="43.69811" lon="1.37023">
        <ele>126</ele>
        <time>2025-03-23T11:05:06Z</time>
      </trkpt>
      <trkpt lat="43.69814" lon="1.37024">
        <ele>126</ele>
        <time>2025-03-23T11:05:07Z</time>
      </trkpt>
      <trkpt lat="43.69816" lon="1.37023">
        <ele>126</ele>
        <time>2025-03-23T11:05:08Z</time>
      </trkpt>
      <trkpt lat="43.69819" lon="1.37023">
        <ele>126</ele>
        <time>2025-03-23T11:05:09Z</time>
      </trkpt>
      <trkpt lat="43.69822" lon="1.37023">
        <ele>126</ele>
        <time>2025-03-23T11:05:10Z</time>
      </trkpt>
      <trkpt lat="43.69824" lon="1.37023">
        <ele>126</ele>
        <time>2025-03-23T11:05:11Z</time>
      </trkpt>
      <trkpt lat="43.69828" lon="1.37023">
        <ele>126</ele>
        <time>2025-03-23T11:05:12Z</time>
      </trkpt>
      <trkpt lat="43.6983" lon="1.37023">
        <ele>126</ele>
        <time>2025-03-23T11:05:13Z</time>
      </trkpt>
      <trkpt lat="43.69832" lon="1.37024">
        <ele>126</ele>
        <time>2025-03-23T11:05:14Z</time>
      </trkpt>
      <trkpt lat="43.69837" lon="1.37026">
        <ele>126</ele>
        <time>2025-03-23T11:05:15Z</time>
      </trkpt>
      <trkpt lat="43.69838" lon="1.37027">
        <ele>126</ele>
        <time>2025-03-23T11:05:16Z</time>
      </trkpt>
      <trkpt lat="43.6984" lon="1.37028">
        <ele>126</ele>
        <time>2025-03-23T11:05:17Z</time>
      </trkpt>
      <trkpt lat="43.69842" lon="1.37028">
        <ele>125</ele>
        <time>2025-03-23T11:05:18Z</time>
      </trkpt>
      <trkpt lat="43.69845" lon="1.37029">
        <ele>125</ele>
        <time>2025-03-23T11:05:19Z</time>
      </trkpt>
      <trkpt lat="43.69847" lon="1.37029">
        <ele>125</ele>
        <time>2025-03-23T11:05:20Z</time>
      </trkpt>
      <trkpt lat="43.69849" lon="1.37028">
        <ele>125</ele>
        <time>2025-03-23T11:05:21Z</time>
      </trkpt>
      <trkpt lat="43.69853" lon="1.37028">
        <ele>125</ele>
        <time>2025-03-23T11:05:22Z</time>
      </trkpt>
      <trkpt lat="43.69854" lon="1.37028">
        <ele>126</ele>
        <time>2025-03-23T11:05:23Z</time>
      </trkpt>
      <trkpt lat="43.69858" lon="1.37028">
        <ele>126</ele>
        <time>2025-03-23T11:05:24Z</time>
      </trkpt>
      <trkpt lat="43.69859" lon="1.37028">
        <ele>127</ele>
        <time>2025-03-23T11:05:25Z</time>
      </trkpt>
      <trkpt lat="43.69862" lon="1.37028">
        <ele>127</ele>
        <time>2025-03-23T11:05:26Z</time>
      </trkpt>
      <trkpt lat="43.69865" lon="1.37027">
        <ele>127</ele>
        <time>2025-03-23T11:05:27Z</time>
      </trkpt>
      <trkpt lat="43.69866" lon="1.37027">
        <ele>127</ele>
        <time>2025-03-23T11:05:28Z</time>
      </trkpt>
      <trkpt lat="43.69868" lon="1.37027">
        <ele>127</ele>
        <time>2025-03-23T11:05:29Z</time>
      </trkpt>
      <trkpt lat="43.6987" lon="1.37026">
        <ele>127</ele>
        <time>2025-03-23T11:05:30Z</time>
      </trkpt>
      <trkpt lat="43.69874" lon="1.37025">
        <ele>128</ele>
        <time>2025-03-23T11:05:31Z</time>
      </trkpt>
      <trkpt lat="43.69875" lon="1.37025">
        <ele>128</ele>
        <time>2025-03-23T11:05:32Z</time>
      </trkpt>
      <trkpt lat="43.69877" lon="1.37023">
        <ele>128</ele>
        <time>2025-03-23T11:05:33Z</time>
      </trkpt>
      <trkpt lat="43.6988" lon="1.37021">
        <ele>128</ele>
        <time>2025-03-23T11:05:34Z</time>
      </trkpt>
      <trkpt lat="43.69881" lon="1.3702">
        <ele>128</ele>
        <time>2025-03-23T11:05:35Z</time>
      </trkpt>
      <trkpt lat="43.69883" lon="1.37018">
        <ele>128</ele>
        <time>2025-03-23T11:05:36Z</time>
      </trkpt>
      <trkpt lat="43.69885" lon="1.37017">
        <ele>128</ele>
        <time>2025-03-23T11:05:37Z</time>
      </trkpt>
      <trkpt lat="43.69886" lon="1.37015">
        <ele>128</ele>
        <time>2025-03-23T11:05:38Z</time>
      </trkpt>
      <trkpt lat="43.69887" lon="1.37012">
        <ele>128</ele>
        <time>2025-03-23T11:05:39Z</time>
      </trkpt>
      <trkpt lat="43.69887" lon="1.37012">
        <ele>128</ele>
        <time>2025-03-23T11:05:40Z</time>
      </trkpt>
      <trkpt lat="43.69888" lon="1.37008">
        <ele>128</ele>
        <time>2025-03-23T11:05:41Z</time>
      </trkpt>
      <trkpt lat="43.69891" lon="1.37006">
        <ele>128</ele>
        <time>2025-03-23T11:05:42Z</time>
      </trkpt>
      <trkpt lat="43.69893" lon="1.37006">
        <ele>128</ele>
        <time>2025-03-23T11:05:43Z</time>
      </trkpt>
      <trkpt lat="43.69895" lon="1.37005">
        <ele>128</ele>
        <time>2025-03-23T11:05:44Z</time>
      </trkpt>
      <trkpt lat="43.69897" lon="1.37004">
        <ele>127</ele>
        <time>2025-03-23T11:05:45Z</time>
      </trkpt>
      <trkpt lat="43.69899" lon="1.37003">
        <ele>127</ele>
        <time>2025-03-23T11:05:46Z</time>
      </trkpt>
      <trkpt lat="43.69901" lon="1.37002">
        <ele>127</ele>
        <time>2025-03-23T11:05:47Z</time>
      </trkpt>
      <trkpt lat="43.69904" lon="1.37001">
        <ele>127</ele>
        <time>2025-03-23T11:05:48Z</time>
      </trkpt>
      <trkpt lat="43.69904" lon="1.37001">
        <ele>127</ele>
        <time>2025-03-23T11:05:49Z</time>
      </trkpt>
      <trkpt lat="43.69907" lon="1.36999">
        <ele>127</ele>
        <time>2025-03-23T11:05:50Z</time>
      </trkpt>
      <trkpt lat="43.69907" lon="1.36999">
        <ele>127</ele>
        <time>2025-03-23T11:05:51Z</time>
      </trkpt>
      <trkpt lat="43.6991" lon="1.36997">
        <ele>127</ele>
        <time>2025-03-23T11:05:52Z</time>
      </trkpt>
      <trkpt lat="43.69913" lon="1.36996">
        <ele>127</ele>
        <time>2025-03-23T11:05:53Z</time>
      </trkpt>
      <trkpt lat="43.69914" lon="1.36995">
        <ele>127</ele>
        <time>2025-03-23T11:05:54Z</time>
      </trkpt>
      <trkpt lat="43.69916" lon="1.36994">
        <ele>127</ele>
        <time>2025-03-23T11:05:55Z</time>
      </trkpt>
      <trkpt lat="43.69918" lon="1.36993">
        <ele>128</ele>
        <time>2025-03-23T11:05:56Z</time>
      </trkpt>
      <trkpt lat="43.6992" lon="1.36991">
        <ele>128</ele>
        <time>2025-03-23T11:05:57Z</time>
      </trkpt>
      <trkpt lat="43.69923" lon="1.36988">
        <ele>128</ele>
        <time>2025-03-23T11:05:58Z</time>
      </trkpt>
      <trkpt lat="43.69925" lon="1.36985">
        <ele>128</ele>
        <time>2025-03-23T11:05:59Z</time>
      </trkpt>
      <trkpt lat="43.69928" lon="1.36982">
        <ele>128</ele>
        <time>2025-03-23T11:06:00Z</time>
      </trkpt>
      <trkpt lat="43.69931" lon="1.36978">
        <ele>128</ele>
        <time>2025-03-23T11:06:01Z</time>
      </trkpt>
      <trkpt lat="43.69934" lon="1.36975">
        <ele>128</ele>
        <time>2025-03-23T11:06:02Z</time>
      </trkpt>
      <trkpt lat="43.69937" lon="1.36972">
        <ele>128</ele>
        <time>2025-03-23T11:06:03Z</time>
      </trkpt>
      <trkpt lat="43.69941" lon="1.36968">
        <ele>128</ele>
        <time>2025-03-23T11:06:04Z</time>
      </trkpt>
      <trkpt lat="43.69943" lon="1.36967">
        <ele>128</ele>
        <time>2025-03-23T11:06:05Z</time>
      </trkpt>
      <trkpt lat="43.69945" lon="1.36966">
        <ele>128</ele>
        <time>2025-03-23T11:06:06Z</time>
      </trkpt>
      <trkpt lat="43.69948" lon="1.36965">
        <ele>128</ele>
        <time>2025-03-23T11:06:07Z</time>
      </trkpt>
      <trkpt lat="43.6995" lon="1.36964">
        <ele>128</ele>
        <time>2025-03-23T11:06:08Z</time>
      </trkpt>
      <trkpt lat="43.69953" lon="1.36963">
        <ele>128</ele>
        <time>2025-03-23T11:06:09Z</time>
      </trkpt>
      <trkpt lat="43.69955" lon="1.36961">
        <ele>128</ele>
        <time>2025-03-23T11:06:10Z</time>
      </trkpt>
      <trkpt lat="43.69958" lon="1.3696">
        <ele>128</ele>
        <time>2025-03-23T11:06:11Z</time>
      </trkpt>
      <trkpt lat="43.6996" lon="1.36958">
        <ele>128</ele>
        <time>2025-03-23T11:06:12Z</time>
      </trkpt>
      <trkpt lat="43.69963" lon="1.36957">
        <ele>128</ele>
        <time>2025-03-23T11:06:13Z</time>
      </trkpt>
      <trkpt lat="43.69966" lon="1.36956">
        <ele>128</ele>
        <time>2025-03-23T11:06:14Z</time>
      </trkpt>
      <trkpt lat="43.69968" lon="1.36957">
        <ele>128</ele>
        <time>2025-03-23T11:06:15Z</time>
      </trkpt>
      <trkpt lat="43.69971" lon="1.36956">
        <ele>128</ele>
        <time>2025-03-23T11:06:16Z</time>
      </trkpt>
      <trkpt lat="43.69973" lon="1.36954">
        <ele>128</ele>
        <time>2025-03-23T11:06:17Z</time>
      </trkpt>
      <trkpt lat="43.69976" lon="1.36952">
        <ele>128</ele>
        <time>2025-03-23T11:06:18Z</time>
      </trkpt>
      <trkpt lat="43.69979" lon="1.36951">
        <ele>128</ele>
        <time>2025-03-23T11:06:19Z</time>
      </trkpt>
      <trkpt lat="43.69981" lon="1.3695">
        <ele>128</ele>
        <time>2025-03-23T11:06:20Z</time>
      </trkpt>
      <trkpt lat="43.69985" lon="1.36952">
        <ele>128</ele>
        <time>2025-03-23T11:06:21Z</time>
      </trkpt>
      <trkpt lat="43.69987" lon="1.36953">
        <ele>127</ele>
        <time>2025-03-23T11:06:22Z</time>
      </trkpt>
      <trkpt lat="43.69989" lon="1.36954">
        <ele>127</ele>
        <time>2025-03-23T11:06:23Z</time>
      </trkpt>
      <trkpt lat="43.69992" lon="1.36954">
        <ele>127</ele>
        <time>2025-03-23T11:06:24Z</time>
      </trkpt>
      <trkpt lat="43.69995" lon="1.36954">
        <ele>128</ele>
        <time>2025-03-23T11:06:25Z</time>
      </trkpt>
      <trkpt lat="43.69999" lon="1.36954">
        <ele>128</ele>
        <time>2025-03-23T11:06:26Z</time>
      </trkpt>
      <trkpt lat="43.7" lon="1.36954">
        <ele>128</ele>
        <time>2025-03-23T11:06:27Z</time>
      </trkpt>
      <trkpt lat="43.70002" lon="1.36953">
        <ele>128</ele>
        <time>2025-03-23T11:06:28Z</time>
      </trkpt>
      <trkpt lat="43.70004" lon="1.36951">
        <ele>128</ele>
        <time>2025-03-23T11:06:29Z</time>
      </trkpt>
      <trkpt lat="43.70006" lon="1.36949">
        <ele>128</ele>
        <time>2025-03-23T11:06:30Z</time>
      </trkpt>
      <trkpt lat="43.70008" lon="1.36947">
        <ele>128</ele>
        <time>2025-03-23T11:06:31Z</time>
      </trkpt>
      <trkpt lat="43.7001" lon="1.36945">
        <ele>128</ele>
        <time>2025-03-23T11:06:32Z</time>
      </trkpt>
      <trkpt lat="43.70014" lon="1.36943">
        <ele>128</ele>
        <time>2025-03-23T11:06:33Z</time>
      </trkpt>
      <trkpt lat="43.70015" lon="1.36942">
        <ele>128</ele>
        <time>2025-03-23T11:06:34Z</time>
      </trkpt>
      <trkpt lat="43.70017" lon="1.36941">
        <ele>128</ele>
        <time>2025-03-23T11:06:35Z</time>
      </trkpt>
      <trkpt lat="43.7002" lon="1.3694">
        <ele>128</ele>
        <time>2025-03-23T11:06:36Z</time>
      </trkpt>
      <trkpt lat="43.70022" lon="1.36938">
        <ele>128</ele>
        <time>2025-03-23T11:06:37Z</time>
      </trkpt>
      <trkpt lat="43.70025" lon="1.36938">
        <ele>128</ele>
        <time>2025-03-23T11:06:38Z</time>
      </trkpt>
      <trkpt lat="43.70027" lon="1.36937">
        <ele>128</ele>
        <time>2025-03-23T11:06:39Z</time>
      </trkpt>
      <trkpt lat="43.7003" lon="1.36936">
        <ele>128</ele>
        <time>2025-03-23T11:06:40Z</time>
      </trkpt>
      <trkpt lat="43.70032" lon="1.36935">
        <ele>128</ele>
        <time>2025-03-23T11:06:41Z</time>
      </trkpt>
      <trkpt lat="43.70035" lon="1.36934">
        <ele>128</ele>
        <time>2025-03-23T11:06:42Z</time>
      </trkpt>
      <trkpt lat="43.70037" lon="1.36933">
        <ele>128</ele>
        <time>2025-03-23T11:06:43Z</time>
      </trkpt>
      <trkpt lat="43.70041" lon="1.36931">
        <ele>128</ele>
        <time>2025-03-23T11:06:44Z</time>
      </trkpt>
      <trkpt lat="43.70042" lon="1.36931">
        <ele>128</ele>
        <time>2025-03-23T11:06:45Z</time>
      </trkpt>
      <trkpt lat="43.70045" lon="1.3693">
        <ele>128</ele>
        <time>2025-03-23T11:06:46Z</time>
      </trkpt>
      <trkpt lat="43.70048" lon="1.36929">
        <ele>128</ele>
        <time>2025-03-23T11:06:47Z</time>
      </trkpt>
      <trkpt lat="43.7005" lon="1.36928">
        <ele>128</ele>
        <time>2025-03-23T11:06:48Z</time>
      </trkpt>
      <trkpt lat="43.70053" lon="1.36927">
        <ele>128</ele>
        <time>2025-03-23T11:06:49Z</time>
      </trkpt>
      <trkpt lat="43.70056" lon="1.36926">
        <ele>128</ele>
        <time>2025-03-23T11:06:50Z</time>
      </trkpt>
      <trkpt lat="43.70058" lon="1.36925">
        <ele>128</ele>
        <time>2025-03-23T11:06:51Z</time>
      </trkpt>
      <trkpt lat="43.70061" lon="1.36924">
        <ele>128</ele>
        <time>2025-03-23T11:06:52Z</time>
      </trkpt>
      <trkpt lat="43.70063" lon="1.36923">
        <ele>128</ele>
        <time>2025-03-23T11:06:53Z</time>
      </trkpt>
      <trkpt lat="43.70066" lon="1.36922">
        <ele>128</ele>
        <time>2025-03-23T11:06:54Z</time>
      </trkpt>
      <trkpt lat="43.70068" lon="1.3692">
        <ele>128</ele>
        <time>2025-03-23T11:06:55Z</time>
      </trkpt>
      <trkpt lat="43.70071" lon="1.36918">
        <ele>128</ele>
        <time>2025-03-23T11:06:56Z</time>
      </trkpt>
      <trkpt lat="43.70073" lon="1.36917">
        <ele>128</ele>
        <time>2025-03-23T11:06:57Z</time>
      </trkpt>
      <trkpt lat="43.70076" lon="1.36916">
        <ele>128</ele>
        <time>2025-03-23T11:06:58Z</time>
      </trkpt>
      <trkpt lat="43.7008" lon="1.36914">
        <ele>128</ele>
        <time>2025-03-23T11:06:59Z</time>
      </trkpt>
      <trkpt lat="43.70081" lon="1.36913">
        <ele>128</ele>
        <time>2025-03-23T11:07:00Z</time>
      </trkpt>
      <trkpt lat="43.70084" lon="1.36912">
        <ele>128</ele>
        <time>2025-03-23T11:07:01Z</time>
      </trkpt>
      <trkpt lat="43.70086" lon="1.36911">
        <ele>128</ele>
        <time>2025-03-23T11:07:02Z</time>
      </trkpt>
      <trkpt lat="43.70088" lon="1.36909">
        <ele>128</ele>
        <time>2025-03-23T11:07:03Z</time>
      </trkpt>
      <trkpt lat="43.70091" lon="1.36908">
        <ele>128</ele>
        <time>2025-03-23T11:07:04Z</time>
      </trkpt>
      <trkpt lat="43.70093" lon="1.36906">
        <ele>128</ele>
        <time>2025-03-23T11:07:05Z</time>
      </trkpt>
      <trkpt lat="43.70095" lon="1.36904">
        <ele>128</ele>
        <time>2025-03-23T11:07:06Z</time>
      </trkpt>
      <trkpt lat="43.70098" lon="1.36902">
        <ele>128</ele>
        <time>2025-03-23T11:07:07Z</time>
      </trkpt>
      <trkpt lat="43.701" lon="1.369">
        <ele>128</ele>
        <time>2025-03-23T11:07:08Z</time>
      </trkpt>
      <trkpt lat="43.70103" lon="1.36898">
        <ele>128</ele>
        <time>2025-03-23T11:07:09Z</time>
      </trkpt>
      <trkpt lat="43.70105" lon="1.36897">
        <ele>128</ele>
        <time>2025-03-23T11:07:10Z</time>
      </trkpt>
      <trkpt lat="43.70107" lon="1.36895">
        <ele>128</ele>
        <time>2025-03-23T11:07:11Z</time>
      </trkpt>
      <trkpt lat="43.70109" lon="1.36894">
        <ele>128</ele>
        <time>2025-03-23T11:07:12Z</time>
      </trkpt>
      <trkpt lat="43.70112" lon="1.36894">
        <ele>128</ele>
        <time>2025-03-23T11:07:13Z</time>
      </trkpt>
      <trkpt lat="43.70113" lon="1.36898">
        <ele>128</ele>
        <time>2025-03-23T11:07:14Z</time>
      </trkpt>
      <trkpt lat="43.70113" lon="1.369">
        <ele>128</ele>
        <time>2025-03-23T11:07:15Z</time>
      </trkpt>
      <trkpt lat="43.70114" lon="1.36903">
        <ele>128</ele>
        <time>2025-03-23T11:07:16Z</time>
      </trkpt>
      <trkpt lat="43.70115" lon="1.36907">
        <ele>128</ele>
        <time>2025-03-23T11:07:17Z</time>
      </trkpt>
      <trkpt lat="43.70117" lon="1.36912">
        <ele>128</ele>
        <time>2025-03-23T11:07:18Z</time>
      </trkpt>
      <trkpt lat="43.70118" lon="1.36914">
        <ele>128</ele>
        <time>2025-03-23T11:07:19Z</time>
      </trkpt>
      <trkpt lat="43.70119" lon="1.36917">
        <ele>128</ele>
        <time>2025-03-23T11:07:20Z</time>
      </trkpt>
      <trkpt lat="43.70121" lon="1.3692">
        <ele>128</ele>
        <time>2025-03-23T11:07:21Z</time>
      </trkpt>
      <trkpt lat="43.70122" lon="1.36923">
        <ele>128</ele>
        <time>2025-03-23T11:07:22Z</time>
      </trkpt>
      <trkpt lat="43.70123" lon="1.36926">
        <ele>128</ele>
        <time>2025-03-23T11:07:23Z</time>
      </trkpt>
      <trkpt lat="43.70124" lon="1.3693">
        <ele>128</ele>
        <time>2025-03-23T11:07:24Z</time>
      </trkpt>
      <trkpt lat="43.70125" lon="1.36934">
        <ele>128</ele>
        <time>2025-03-23T11:07:25Z</time>
      </trkpt>
      <trkpt lat="43.70125" lon="1.36937">
        <ele>128</ele>
        <time>2025-03-23T11:07:26Z</time>
      </trkpt>
      <trkpt lat="43.70126" lon="1.36941">
        <ele>128</ele>
        <time>2025-03-23T11:07:27Z</time>
      </trkpt>
      <trkpt lat="43.70126" lon="1.36946">
        <ele>129</ele>
        <time>2025-03-23T11:07:28Z</time>
      </trkpt>
      <trkpt lat="43.70126" lon="1.36948">
        <ele>129</ele>
        <time>2025-03-23T11:07:29Z</time>
      </trkpt>
      <trkpt lat="43.70126" lon="1.36952">
        <ele>129</ele>
        <time>2025-03-23T11:07:30Z</time>
      </trkpt>
      <trkpt lat="43.70126" lon="1.36957">
        <ele>129</ele>
        <time>2025-03-23T11:07:31Z</time>
      </trkpt>
      <trkpt lat="43.70126" lon="1.36959">
        <ele>129</ele>
        <time>2025-03-23T11:07:32Z</time>
      </trkpt>
      <trkpt lat="43.70125" lon="1.36962">
        <ele>129</ele>
        <time>2025-03-23T11:07:33Z</time>
      </trkpt>
      <trkpt lat="43.70124" lon="1.36966">
        <ele>129</ele>
        <time>2025-03-23T11:07:34Z</time>
      </trkpt>
      <trkpt lat="43.70121" lon="1.36971">
        <ele>129</ele>
        <time>2025-03-23T11:07:35Z</time>
      </trkpt>
      <trkpt lat="43.7012" lon="1.36972">
        <ele>129</ele>
        <time>2025-03-23T11:07:36Z</time>
      </trkpt>
      <trkpt lat="43.70117" lon="1.36976">
        <ele>129</ele>
        <time>2025-03-23T11:07:37Z</time>
      </trkpt>
      <trkpt lat="43.70116" lon="1.36977">
        <ele>130</ele>
        <time>2025-03-23T11:07:38Z</time>
      </trkpt>
      <trkpt lat="43.70113" lon="1.3698">
        <ele>130</ele>
        <time>2025-03-23T11:07:39Z</time>
      </trkpt>
      <trkpt lat="43.70111" lon="1.36982">
        <ele>130</ele>
        <time>2025-03-23T11:07:40Z</time>
      </trkpt>
      <trkpt lat="43.70108" lon="1.36985">
        <ele>130</ele>
        <time>2025-03-23T11:07:41Z</time>
      </trkpt>
      <trkpt lat="43.70107" lon="1.36986">
        <ele>130</ele>
        <time>2025-03-23T11:07:42Z</time>
      </trkpt>
      <trkpt lat="43.70106" lon="1.36989">
        <ele>130</ele>
        <time>2025-03-23T11:07:43Z</time>
      </trkpt>
      <trkpt lat="43.70106" lon="1.36989">
        <ele>130</ele>
        <time>2025-03-23T11:07:44Z</time>
      </trkpt>
      <trkpt lat="43.70105" lon="1.36992">
        <ele>130</ele>
        <time>2025-03-23T11:07:45Z</time>
      </trkpt>
      <trkpt lat="43.70107" lon="1.36991">
        <ele>131</ele>
        <time>2025-03-23T11:07:46Z</time>
      </trkpt>
      <trkpt lat="43.7011" lon="1.3699">
        <ele>131</ele>
        <time>2025-03-23T11:07:47Z</time>
      </trkpt>
      <trkpt lat="43.70113" lon="1.36986">
        <ele>131</ele>
        <time>2025-03-23T11:07:48Z</time>
      </trkpt>
      <trkpt lat="43.70115" lon="1.36985">
        <ele>131</ele>
        <time>2025-03-23T11:07:49Z</time>
      </trkpt>
      <trkpt lat="43.70117" lon="1.36983">
        <ele>131</ele>
        <time>2025-03-23T11:07:50Z</time>
      </trkpt>
      <trkpt lat="43.70119" lon="1.36981">
        <ele>131</ele>
        <time>2025-03-23T11:07:51Z</time>
      </trkpt>
      <trkpt lat="43.70121" lon="1.36979">
        <ele>131</ele>
        <time>2025-03-23T11:07:52Z</time>
      </trkpt>
      <trkpt lat="43.70124" lon="1.36977">
        <ele>131</ele>
        <time>2025-03-23T11:07:53Z</time>
      </trkpt>
      <trkpt lat="43.70126" lon="1.36974">
        <ele>131</ele>
        <time>2025-03-23T11:07:54Z</time>
      </trkpt>
      <trkpt lat="43.70128" lon="1.36969">
        <ele>130</ele>
        <time>2025-03-23T11:07:55Z</time>
      </trkpt>
      <trkpt lat="43.70129" lon="1.36967">
        <ele>130</ele>
        <time>2025-03-23T11:07:56Z</time>
      </trkpt>
      <trkpt lat="43.7013" lon="1.36965">
        <ele>130</ele>
        <time>2025-03-23T11:07:57Z</time>
      </trkpt>
      <trkpt lat="43.7013" lon="1.36961">
        <ele>130</ele>
        <time>2025-03-23T11:07:58Z</time>
      </trkpt>
      <trkpt lat="43.7013" lon="1.36958">
        <ele>130</ele>
        <time>2025-03-23T11:07:59Z</time>
      </trkpt>
      <trkpt lat="43.70131" lon="1.36952">
        <ele>130</ele>
        <time>2025-03-23T11:08:00Z</time>
      </trkpt>
      <trkpt lat="43.70132" lon="1.36951">
        <ele>130</ele>
        <time>2025-03-23T11:08:01Z</time>
      </trkpt>
      <trkpt lat="43.70132" lon="1.36947">
        <ele>130</ele>
        <time>2025-03-23T11:08:02Z</time>
      </trkpt>
      <trkpt lat="43.70133" lon="1.36944">
        <ele>130</ele>
        <time>2025-03-23T11:08:03Z</time>
      </trkpt>
      <trkpt lat="43.70134" lon="1.36941">
        <ele>131</ele>
        <time>2025-03-23T11:08:04Z</time>
      </trkpt>
      <trkpt lat="43.70133" lon="1.36937">
        <ele>131</ele>
        <time>2025-03-23T11:08:05Z</time>
      </trkpt>
      <trkpt lat="43.70133" lon="1.36933">
        <ele>131</ele>
        <time>2025-03-23T11:08:06Z</time>
      </trkpt>
      <trkpt lat="43.70132" lon="1.36928">
        <ele>131</ele>
        <time>2025-03-23T11:08:07Z</time>
      </trkpt>
      <trkpt lat="43.70132" lon="1.36927">
        <ele>131</ele>
        <time>2025-03-23T11:08:08Z</time>
      </trkpt>
      <trkpt lat="43.7013" lon="1.36922">
        <ele>131</ele>
        <time>2025-03-23T11:08:09Z</time>
      </trkpt>
      <trkpt lat="43.70129" lon="1.3692">
        <ele>132</ele>
        <time>2025-03-23T11:08:10Z</time>
      </trkpt>
      <trkpt lat="43.70128" lon="1.36917">
        <ele>132</ele>
        <time>2025-03-23T11:08:11Z</time>
      </trkpt>
      <trkpt lat="43.70127" lon="1.36914">
        <ele>132</ele>
        <time>2025-03-23T11:08:12Z</time>
      </trkpt>
      <trkpt lat="43.70126" lon="1.36911">
        <ele>132</ele>
        <time>2025-03-23T11:08:13Z</time>
      </trkpt>
      <trkpt lat="43.70124" lon="1.36908">
        <ele>132</ele>
        <time>2025-03-23T11:08:14Z</time>
      </trkpt>
      <trkpt lat="43.70123" lon="1.36904">
        <ele>132</ele>
        <time>2025-03-23T11:08:15Z</time>
      </trkpt>
      <trkpt lat="43.70122" lon="1.36901">
        <ele>132</ele>
        <time>2025-03-23T11:08:16Z</time>
      </trkpt>
      <trkpt lat="43.70121" lon="1.36898">
        <ele>132</ele>
        <time>2025-03-23T11:08:17Z</time>
      </trkpt>
      <trkpt lat="43.70119" lon="1.36894">
        <ele>133</ele>
        <time>2025-03-23T11:08:18Z</time>
      </trkpt>
      <trkpt lat="43.70118" lon="1.36891">
        <ele>133</ele>
        <time>2025-03-23T11:08:19Z</time>
      </trkpt>
      <trkpt lat="43.70117" lon="1.36888">
        <ele>133</ele>
        <time>2025-03-23T11:08:20Z</time>
      </trkpt>
      <trkpt lat="43.70116" lon="1.36884">
        <ele>134</ele>
        <time>2025-03-23T11:08:21Z</time>
      </trkpt>
      <trkpt lat="43.70115" lon="1.36881">
        <ele>135</ele>
        <time>2025-03-23T11:08:22Z</time>
      </trkpt>
      <trkpt lat="43.70115" lon="1.36878">
        <ele>135</ele>
        <time>2025-03-23T11:08:23Z</time>
      </trkpt>
      <trkpt lat="43.70114" lon="1.36874">
        <ele>134</ele>
        <time>2025-03-23T11:08:24Z</time>
      </trkpt>
      <trkpt lat="43.70112" lon="1.36871">
        <ele>134</ele>
        <time>2025-03-23T11:08:25Z</time>
      </trkpt>
      <trkpt lat="43.70111" lon="1.36868">
        <ele>134</ele>
        <time>2025-03-23T11:08:26Z</time>
      </trkpt>
      <trkpt lat="43.7011" lon="1.36865">
        <ele>134</ele>
        <time>2025-03-23T11:08:27Z</time>
      </trkpt>
      <trkpt lat="43.70109" lon="1.36861">
        <ele>134</ele>
        <time>2025-03-23T11:08:28Z</time>
      </trkpt>
      <trkpt lat="43.70108" lon="1.36858">
        <ele>134</ele>
        <time>2025-03-23T11:08:29Z</time>
      </trkpt>
      <trkpt lat="43.70107" lon="1.36855">
        <ele>134</ele>
        <time>2025-03-23T11:08:30Z</time>
      </trkpt>
      <trkpt lat="43.70106" lon="1.36852">
        <ele>134</ele>
        <time>2025-03-23T11:08:31Z</time>
      </trkpt>
      <trkpt lat="43.70104" lon="1.36849">
        <ele>134</ele>
        <time>2025-03-23T11:08:32Z</time>
      </trkpt>
      <trkpt lat="43.70103" lon="1.36846">
        <ele>134</ele>
        <time>2025-03-23T11:08:33Z</time>
      </trkpt>
      <trkpt lat="43.70102" lon="1.36842">
        <ele>134</ele>
        <time>2025-03-23T11:08:34Z</time>
      </trkpt>
      <trkpt lat="43.70101" lon="1.36839">
        <ele>134</ele>
        <time>2025-03-23T11:08:35Z</time>
      </trkpt>
      <trkpt lat="43.701" lon="1.36836">
        <ele>134</ele>
        <time>2025-03-23T11:08:36Z</time>
      </trkpt>
      <trkpt lat="43.70099" lon="1.36833">
        <ele>135</ele>
        <time>2025-03-23T11:08:37Z</time>
      </trkpt>
      <trkpt lat="43.70097" lon="1.36828">
        <ele>135</ele>
        <time>2025-03-23T11:08:38Z</time>
      </trkpt>
      <trkpt lat="43.70097" lon="1.36826">
        <ele>135</ele>
        <time>2025-03-23T11:08:39Z</time>
      </trkpt>
      <trkpt lat="43.70096" lon="1.36823">
        <ele>135</ele>
        <time>2025-03-23T11:08:40Z</time>
      </trkpt>
      <trkpt lat="43.70095" lon="1.36819">
        <ele>135</ele>
        <time>2025-03-23T11:08:41Z</time>
      </trkpt>
      <trkpt lat="43.70094" lon="1.36816">
        <ele>135</ele>
        <time>2025-03-23T11:08:42Z</time>
      </trkpt>
      <trkpt lat="43.70093" lon="1.36813">
        <ele>135</ele>
        <time>2025-03-23T11:08:43Z</time>
      </trkpt>
      <trkpt lat="43.70092" lon="1.3681">
        <ele>135</ele>
        <time>2025-03-23T11:08:44Z</time>
      </trkpt>
      <trkpt lat="43.70091" lon="1.36805">
        <ele>135</ele>
        <time>2025-03-23T11:08:45Z</time>
      </trkpt>
      <trkpt lat="43.7009" lon="1.36803">
        <ele>135</ele>
        <time>2025-03-23T11:08:46Z</time>
      </trkpt>
      <trkpt lat="43.70089" lon="1.368">
        <ele>135</ele>
        <time>2025-03-23T11:08:47Z</time>
      </trkpt>
      <trkpt lat="43.70088" lon="1.36797">
        <ele>135</ele>
        <time>2025-03-23T11:08:48Z</time>
      </trkpt>
      <trkpt lat="43.70087" lon="1.36794">
        <ele>135</ele>
        <time>2025-03-23T11:08:49Z</time>
      </trkpt>
      <trkpt lat="43.70086" lon="1.3679">
        <ele>135</ele>
        <time>2025-03-23T11:08:50Z</time>
      </trkpt>
      <trkpt lat="43.70085" lon="1.36787">
        <ele>135</ele>
        <time>2025-03-23T11:08:51Z</time>
      </trkpt>
      <trkpt lat="43.70085" lon="1.36784">
        <ele>135</ele>
        <time>2025-03-23T11:08:52Z</time>
      </trkpt>
      <trkpt lat="43.70083" lon="1.36779">
        <ele>135</ele>
        <time>2025-03-23T11:08:53Z</time>
      </trkpt>
      <trkpt lat="43.70082" lon="1.36778">
        <ele>136</ele>
        <time>2025-03-23T11:08:54Z</time>
      </trkpt>
      <trkpt lat="43.70081" lon="1.36773">
        <ele>136</ele>
        <time>2025-03-23T11:08:55Z</time>
      </trkpt>
      <trkpt lat="43.7008" lon="1.36771">
        <ele>136</ele>
        <time>2025-03-23T11:08:56Z</time>
      </trkpt>
      <trkpt lat="43.70079" lon="1.36768">
        <ele>136</ele>
        <time>2025-03-23T11:08:57Z</time>
      </trkpt>
      <trkpt lat="43.70077" lon="1.36763">
        <ele>136</ele>
        <time>2025-03-23T11:08:58Z</time>
      </trkpt>
      <trkpt lat="43.70077" lon="1.36761">
        <ele>136</ele>
        <time>2025-03-23T11:08:59Z</time>
      </trkpt>
      <trkpt lat="43.70075" lon="1.36758">
        <ele>136</ele>
        <time>2025-03-23T11:09:00Z</time>
      </trkpt>
      <trkpt lat="43.70075" lon="1.36755">
        <ele>136</ele>
        <time>2025-03-23T11:09:01Z</time>
      </trkpt>
      <trkpt lat="43.70073" lon="1.36751">
        <ele>136</ele>
        <time>2025-03-23T11:09:02Z</time>
      </trkpt>
      <trkpt lat="43.70072" lon="1.36748">
        <ele>136</ele>
        <time>2025-03-23T11:09:03Z</time>
      </trkpt>
      <trkpt lat="43.70071" lon="1.36744">
        <ele>136</ele>
        <time>2025-03-23T11:09:04Z</time>
      </trkpt>
      <trkpt lat="43.7007" lon="1.36741">
        <ele>136</ele>
        <time>2025-03-23T11:09:05Z</time>
      </trkpt>
      <trkpt lat="43.70068" lon="1.36738">
        <ele>136</ele>
        <time>2025-03-23T11:09:06Z</time>
      </trkpt>
      <trkpt lat="43.70067" lon="1.36735">
        <ele>136</ele>
        <time>2025-03-23T11:09:07Z</time>
      </trkpt>
      <trkpt lat="43.70066" lon="1.36731">
        <ele>135</ele>
        <time>2025-03-23T11:09:08Z</time>
      </trkpt>
      <trkpt lat="43.70064" lon="1.36728">
        <ele>135</ele>
        <time>2025-03-23T11:09:09Z</time>
      </trkpt>
      <trkpt lat="43.70063" lon="1.36725">
        <ele>135</ele>
        <time>2025-03-23T11:09:10Z</time>
      </trkpt>
      <trkpt lat="43.70062" lon="1.36722">
        <ele>135</ele>
        <time>2025-03-23T11:09:11Z</time>
      </trkpt>
      <trkpt lat="43.70059" lon="1.36716">
        <ele>135</ele>
        <time>2025-03-23T11:09:13Z</time>
      </trkpt>
      <trkpt lat="43.70058" lon="1.3671">
        <ele>135</ele>
        <time>2025-03-23T11:09:14Z</time>
      </trkpt>
      <trkpt lat="43.70058" lon="1.36709">
        <ele>135</ele>
        <time>2025-03-23T11:09:15Z</time>
      </trkpt>
      <trkpt lat="43.70057" lon="1.36705">
        <ele>135</ele>
        <time>2025-03-23T11:09:16Z</time>
      </trkpt>
      <trkpt lat="43.70055" lon="1.367">
        <ele>135</ele>
        <time>2025-03-23T11:09:17Z</time>
      </trkpt>
      <trkpt lat="43.70054" lon="1.36699">
        <ele>135</ele>
        <time>2025-03-23T11:09:18Z</time>
      </trkpt>
      <trkpt lat="43.70053" lon="1.36695">
        <ele>135</ele>
        <time>2025-03-23T11:09:19Z</time>
      </trkpt>
      <trkpt lat="43.70052" lon="1.36692">
        <ele>135</ele>
        <time>2025-03-23T11:09:20Z</time>
      </trkpt>
      <trkpt lat="43.7005" lon="1.36687">
        <ele>134</ele>
        <time>2025-03-23T11:09:21Z</time>
      </trkpt>
      <trkpt lat="43.70049" lon="1.36685">
        <ele>134</ele>
        <time>2025-03-23T11:09:22Z</time>
      </trkpt>
      <trkpt lat="43.70048" lon="1.36681">
        <ele>134</ele>
        <time>2025-03-23T11:09:23Z</time>
      </trkpt>
      <trkpt lat="43.70046" lon="1.36676">
        <ele>134</ele>
        <time>2025-03-23T11:09:24Z</time>
      </trkpt>
      <trkpt lat="43.70046" lon="1.36674">
        <ele>134</ele>
        <time>2025-03-23T11:09:25Z</time>
      </trkpt>
      <trkpt lat="43.70044" lon="1.36671">
        <ele>134</ele>
        <time>2025-03-23T11:09:26Z</time>
      </trkpt>
      <trkpt lat="43.70043" lon="1.36667">
        <ele>134</ele>
        <time>2025-03-23T11:09:27Z</time>
      </trkpt>
      <trkpt lat="43.70042" lon="1.36663">
        <ele>133</ele>
        <time>2025-03-23T11:09:28Z</time>
      </trkpt>
      <trkpt lat="43.70041" lon="1.3666">
        <ele>133</ele>
        <time>2025-03-23T11:09:29Z</time>
      </trkpt>
      <trkpt lat="43.7004" lon="1.36657">
        <ele>133</ele>
        <time>2025-03-23T11:09:30Z</time>
      </trkpt>
      <trkpt lat="43.70038" lon="1.36653">
        <ele>133</ele>
        <time>2025-03-23T11:09:31Z</time>
      </trkpt>
      <trkpt lat="43.70037" lon="1.3665">
        <ele>133</ele>
        <time>2025-03-23T11:09:32Z</time>
      </trkpt>
      <trkpt lat="43.70036" lon="1.36647">
        <ele>133</ele>
        <time>2025-03-23T11:09:33Z</time>
      </trkpt>
      <trkpt lat="43.70035" lon="1.36643">
        <ele>133</ele>
        <time>2025-03-23T11:09:34Z</time>
      </trkpt>
      <trkpt lat="43.70034" lon="1.3664">
        <ele>133</ele>
        <time>2025-03-23T11:09:35Z</time>
      </trkpt>
      <trkpt lat="43.70033" lon="1.36637">
        <ele>133</ele>
        <time>2025-03-23T11:09:36Z</time>
      </trkpt>
      <trkpt lat="43.70031" lon="1.36632">
        <ele>133</ele>
        <time>2025-03-23T11:09:37Z</time>
      </trkpt>
      <trkpt lat="43.70031" lon="1.3663">
        <ele>132</ele>
        <time>2025-03-23T11:09:38Z</time>
      </trkpt>
      <trkpt lat="43.7003" lon="1.36626">
        <ele>132</ele>
        <time>2025-03-23T11:09:39Z</time>
      </trkpt>
      <trkpt lat="43.70028" lon="1.36623">
        <ele>132</ele>
        <time>2025-03-23T11:09:40Z</time>
      </trkpt>
      <trkpt lat="43.70027" lon="1.36618">
        <ele>132</ele>
        <time>2025-03-23T11:09:41Z</time>
      </trkpt>
      <trkpt lat="43.70027" lon="1.36616">
        <ele>132</ele>
        <time>2025-03-23T11:09:42Z</time>
      </trkpt>
      <trkpt lat="43.70026" lon="1.36612">
        <ele>132</ele>
        <time>2025-03-23T11:09:43Z</time>
      </trkpt>
      <trkpt lat="43.70025" lon="1.36609">
        <ele>131</ele>
        <time>2025-03-23T11:09:44Z</time>
      </trkpt>
      <trkpt lat="43.70023" lon="1.36605">
        <ele>131</ele>
        <time>2025-03-23T11:09:45Z</time>
      </trkpt>
      <trkpt lat="43.70022" lon="1.36602">
        <ele>131</ele>
        <time>2025-03-23T11:09:46Z</time>
      </trkpt>
      <trkpt lat="43.70021" lon="1.36598">
        <ele>131</ele>
        <time>2025-03-23T11:09:47Z</time>
      </trkpt>
      <trkpt lat="43.70021" lon="1.36594">
        <ele>131</ele>
        <time>2025-03-23T11:09:48Z</time>
      </trkpt>
      <trkpt lat="43.7002" lon="1.36591">
        <ele>131</ele>
        <time>2025-03-23T11:09:49Z</time>
      </trkpt>
      <trkpt lat="43.70018" lon="1.36585">
        <ele>131</ele>
        <time>2025-03-23T11:09:50Z</time>
      </trkpt>
      <trkpt lat="43.70017" lon="1.36583">
        <ele>130</ele>
        <time>2025-03-23T11:09:51Z</time>
      </trkpt>
      <trkpt lat="43.70017" lon="1.3658">
        <ele>130</ele>
        <time>2025-03-23T11:09:52Z</time>
      </trkpt>
      <trkpt lat="43.70016" lon="1.36577">
        <ele>129</ele>
        <time>2025-03-23T11:09:53Z</time>
      </trkpt>
      <trkpt lat="43.70014" lon="1.36573">
        <ele>129</ele>
        <time>2025-03-23T11:09:54Z</time>
      </trkpt>
      <trkpt lat="43.70013" lon="1.36568">
        <ele>129</ele>
        <time>2025-03-23T11:09:55Z</time>
      </trkpt>
      <trkpt lat="43.70012" lon="1.36567">
        <ele>129</ele>
        <time>2025-03-23T11:09:56Z</time>
      </trkpt>
      <trkpt lat="43.70011" lon="1.36564">
        <ele>129</ele>
        <time>2025-03-23T11:09:57Z</time>
      </trkpt>
      <trkpt lat="43.7001" lon="1.36561">
        <ele>129</ele>
        <time>2025-03-23T11:09:58Z</time>
      </trkpt>
      <trkpt lat="43.70009" lon="1.36557">
        <ele>129</ele>
        <time>2025-03-23T11:09:59Z</time>
      </trkpt>
      <trkpt lat="43.70009" lon="1.36554">
        <ele>129</ele>
        <time>2025-03-23T11:10:00Z</time>
      </trkpt>
      <trkpt lat="43.70008" lon="1.36551">
        <ele>129</ele>
        <time>2025-03-23T11:10:01Z</time>
      </trkpt>
      <trkpt lat="43.70007" lon="1.36547">
        <ele>129</ele>
        <time>2025-03-23T11:10:02Z</time>
      </trkpt>
      <trkpt lat="43.70006" lon="1.36544">
        <ele>129</ele>
        <time>2025-03-23T11:10:03Z</time>
      </trkpt>
      <trkpt lat="43.70005" lon="1.36541">
        <ele>128</ele>
        <time>2025-03-23T11:10:04Z</time>
      </trkpt>
      <trkpt lat="43.70004" lon="1.36538">
        <ele>128</ele>
        <time>2025-03-23T11:10:05Z</time>
      </trkpt>
      <trkpt lat="43.70002" lon="1.36534">
        <ele>128</ele>
        <time>2025-03-23T11:10:06Z</time>
      </trkpt>
      <trkpt lat="43.70001" lon="1.36529">
        <ele>128</ele>
        <time>2025-03-23T11:10:07Z</time>
      </trkpt>
      <trkpt lat="43.7" lon="1.36527">
        <ele>128</ele>
        <time>2025-03-23T11:10:08Z</time>
      </trkpt>
      <trkpt lat="43.69998" lon="1.36522">
        <ele>128</ele>
        <time>2025-03-23T11:10:09Z</time>
      </trkpt>
      <trkpt lat="43.69997" lon="1.3652">
        <ele>128</ele>
        <time>2025-03-23T11:10:10Z</time>
      </trkpt>
      <trkpt lat="43.69996" lon="1.36515">
        <ele>128</ele>
        <time>2025-03-23T11:10:11Z</time>
      </trkpt>
      <trkpt lat="43.69995" lon="1.36513">
        <ele>128</ele>
        <time>2025-03-23T11:10:12Z</time>
      </trkpt>
      <trkpt lat="43.69994" lon="1.36511">
        <ele>128</ele>
        <time>2025-03-23T11:10:13Z</time>
      </trkpt>
      <trkpt lat="43.69994" lon="1.36511">
        <ele>128</ele>
        <time>2025-03-23T11:10:14Z</time>
      </trkpt>
      <trkpt lat="43.69992" lon="1.3651">
        <ele>128</ele>
        <time>2025-03-23T11:10:15Z</time>
      </trkpt>
      <trkpt lat="43.69992" lon="1.36513">
        <ele>127</ele>
        <time>2025-03-23T11:10:16Z</time>
      </trkpt>
      <trkpt lat="43.69993" lon="1.36515">
        <ele>127</ele>
        <time>2025-03-23T11:10:17Z</time>
      </trkpt>
      <trkpt lat="43.69994" lon="1.36518">
        <ele>127</ele>
        <time>2025-03-23T11:10:18Z</time>
      </trkpt>
      <trkpt lat="43.69996" lon="1.36521">
        <ele>126</ele>
        <time>2025-03-23T11:10:19Z</time>
      </trkpt>
      <trkpt lat="43.69998" lon="1.36525">
        <ele>126</ele>
        <time>2025-03-23T11:10:20Z</time>
      </trkpt>
      <trkpt lat="43.69999" lon="1.36529">
        <ele>126</ele>
        <time>2025-03-23T11:10:21Z</time>
      </trkpt>
      <trkpt lat="43.7" lon="1.36532">
        <ele>126</ele>
        <time>2025-03-23T11:10:22Z</time>
      </trkpt>
      <trkpt lat="43.70001" lon="1.36535">
        <ele>126</ele>
        <time>2025-03-23T11:10:23Z</time>
      </trkpt>
      <trkpt lat="43.70002" lon="1.36537">
        <ele>126</ele>
        <time>2025-03-23T11:10:24Z</time>
      </trkpt>
      <trkpt lat="43.70003" lon="1.36539">
        <ele>126</ele>
        <time>2025-03-23T11:10:25Z</time>
      </trkpt>
      <trkpt lat="43.70004" lon="1.36542">
        <ele>126</ele>
        <time>2025-03-23T11:10:26Z</time>
      </trkpt>
      <trkpt lat="43.70004" lon="1.36546">
        <ele>126</ele>
        <time>2025-03-23T11:10:27Z</time>
      </trkpt>
      <trkpt lat="43.70005" lon="1.36552">
        <ele>126</ele>
        <time>2025-03-23T11:10:28Z</time>
      </trkpt>
      <trkpt lat="43.70005" lon="1.36554">
        <ele>126</ele>
        <time>2025-03-23T11:10:29Z</time>
      </trkpt>
      <trkpt lat="43.70007" lon="1.36559">
        <ele>126</ele>
        <time>2025-03-23T11:10:30Z</time>
      </trkpt>
      <trkpt lat="43.70008" lon="1.3656">
        <ele>126</ele>
        <time>2025-03-23T11:10:31Z</time>
      </trkpt>
      <trkpt lat="43.70009" lon="1.36563">
        <ele>126</ele>
        <time>2025-03-23T11:10:32Z</time>
      </trkpt>
      <trkpt lat="43.7001" lon="1.36567">
        <ele>126</ele>
        <time>2025-03-23T11:10:33Z</time>
      </trkpt>
      <trkpt lat="43.70011" lon="1.3657">
        <ele>126</ele>
        <time>2025-03-23T11:10:34Z</time>
      </trkpt>
      <trkpt lat="43.70012" lon="1.36573">
        <ele>126</ele>
        <time>2025-03-23T11:10:35Z</time>
      </trkpt>
      <trkpt lat="43.70013" lon="1.36576">
        <ele>126</ele>
        <time>2025-03-23T11:10:36Z</time>
      </trkpt>
      <trkpt lat="43.70014" lon="1.36579">
        <ele>126</ele>
        <time>2025-03-23T11:10:37Z</time>
      </trkpt>
      <trkpt lat="43.70014" lon="1.36579">
        <ele>126</ele>
        <time>2025-03-23T11:10:38Z</time>
      </trkpt>
      <trkpt lat="43.70014" lon="1.36583">
        <ele>126</ele>
        <time>2025-03-23T11:10:39Z</time>
      </trkpt>
      <trkpt lat="43.70014" lon="1.36583">
        <ele>126</ele>
        <time>2025-03-23T11:10:40Z</time>
      </trkpt>
      <trkpt lat="43.70014" lon="1.36583">
        <ele>126</ele>
        <time>2025-03-23T11:10:41Z</time>
      </trkpt>
      <trkpt lat="43.70015" lon="1.36586">
        <ele>126</ele>
        <time>2025-03-23T11:10:42Z</time>
      </trkpt>
      <trkpt lat="43.70015" lon="1.36586">
        <ele>126</ele>
        <time>2025-03-23T11:10:43Z</time>
      </trkpt>
      <trkpt lat="43.70017" lon="1.36591">
        <ele>126</ele>
        <time>2025-03-23T11:10:44Z</time>
      </trkpt>
      <trkpt lat="43.70018" lon="1.36594">
        <ele>126</ele>
        <time>2025-03-23T11:10:45Z</time>
      </trkpt>
      <trkpt lat="43.70018" lon="1.36597">
        <ele>126</ele>
        <time>2025-03-23T11:10:46Z</time>
      </trkpt>
      <trkpt lat="43.70019" lon="1.36603">
        <ele>126</ele>
        <time>2025-03-23T11:10:47Z</time>
      </trkpt>
      <trkpt lat="43.7002" lon="1.36604">
        <ele>126</ele>
        <time>2025-03-23T11:10:48Z</time>
      </trkpt>
      <trkpt lat="43.70021" lon="1.36608">
        <ele>126</ele>
        <time>2025-03-23T11:10:49Z</time>
      </trkpt>
      <trkpt lat="43.70022" lon="1.36611">
        <ele>126</ele>
        <time>2025-03-23T11:10:50Z</time>
      </trkpt>
      <trkpt lat="43.70022" lon="1.36615">
        <ele>126</ele>
        <time>2025-03-23T11:10:51Z</time>
      </trkpt>
      <trkpt lat="43.70023" lon="1.36618">
        <ele>126</ele>
        <time>2025-03-23T11:10:52Z</time>
      </trkpt>
      <trkpt lat="43.70024" lon="1.36624">
        <ele>126</ele>
        <time>2025-03-23T11:10:53Z</time>
      </trkpt>
      <trkpt lat="43.70024" lon="1.36626">
        <ele>126</ele>
        <time>2025-03-23T11:10:54Z</time>
      </trkpt>
      <trkpt lat="43.70024" lon="1.3663">
        <ele>126</ele>
        <time>2025-03-23T11:10:55Z</time>
      </trkpt>
      <trkpt lat="43.70025" lon="1.36634">
        <ele>126</ele>
        <time>2025-03-23T11:10:56Z</time>
      </trkpt>
      <trkpt lat="43.70026" lon="1.36637">
        <ele>126</ele>
        <time>2025-03-23T11:10:57Z</time>
      </trkpt>
      <trkpt lat="43.70027" lon="1.36641">
        <ele>126</ele>
        <time>2025-03-23T11:10:58Z</time>
      </trkpt>
      <trkpt lat="43.70029" lon="1.36645">
        <ele>126</ele>
        <time>2025-03-23T11:10:59Z</time>
      </trkpt>
      <trkpt lat="43.70029" lon="1.36648">
        <ele>126</ele>
        <time>2025-03-23T11:11:00Z</time>
      </trkpt>
      <trkpt lat="43.7003" lon="1.36652">
        <ele>126</ele>
        <time>2025-03-23T11:11:01Z</time>
      </trkpt>
      <trkpt lat="43.70031" lon="1.36655">
        <ele>126</ele>
        <time>2025-03-23T11:11:02Z</time>
      </trkpt>
      <trkpt lat="43.70032" lon="1.36658">
        <ele>126</ele>
        <time>2025-03-23T11:11:03Z</time>
      </trkpt>
      <trkpt lat="43.70033" lon="1.36662">
        <ele>126</ele>
        <time>2025-03-23T11:11:04Z</time>
      </trkpt>
      <trkpt lat="43.70034" lon="1.36665">
        <ele>126</ele>
        <time>2025-03-23T11:11:05Z</time>
      </trkpt>
      <trkpt lat="43.70035" lon="1.3667">
        <ele>126</ele>
        <time>2025-03-23T11:11:06Z</time>
      </trkpt>
      <trkpt lat="43.70035" lon="1.36672">
        <ele>126</ele>
        <time>2025-03-23T11:11:07Z</time>
      </trkpt>
      <trkpt lat="43.70037" lon="1.36675">
        <ele>126</ele>
        <time>2025-03-23T11:11:08Z</time>
      </trkpt>
      <trkpt lat="43.70038" lon="1.36678">
        <ele>126</ele>
        <time>2025-03-23T11:11:09Z</time>
      </trkpt>
      <trkpt lat="43.7004" lon="1.36681">
        <ele>126</ele>
        <time>2025-03-23T11:11:10Z</time>
      </trkpt>
      <trkpt lat="43.70042" lon="1.36685">
        <ele>126</ele>
        <time>2025-03-23T11:11:11Z</time>
      </trkpt>
      <trkpt lat="43.70043" lon="1.36687">
        <ele>126</ele>
        <time>2025-03-23T11:11:12Z</time>
      </trkpt>
      <trkpt lat="43.70045" lon="1.36689">
        <ele>126</ele>
        <time>2025-03-23T11:11:13Z</time>
      </trkpt>
      <trkpt lat="43.70048" lon="1.3669">
        <ele>126</ele>
        <time>2025-03-23T11:11:14Z</time>
      </trkpt>
      <trkpt lat="43.7005" lon="1.36691">
        <ele>126</ele>
        <time>2025-03-23T11:11:15Z</time>
      </trkpt>
      <trkpt lat="43.70052" lon="1.36692">
        <ele>126</ele>
        <time>2025-03-23T11:11:16Z</time>
      </trkpt>
      <trkpt lat="43.70055" lon="1.36695">
        <ele>126</ele>
        <time>2025-03-23T11:11:17Z</time>
      </trkpt>
      <trkpt lat="43.70056" lon="1.36698">
        <ele>126</ele>
        <time>2025-03-23T11:11:18Z</time>
      </trkpt>
      <trkpt lat="43.70056" lon="1.36701">
        <ele>126</ele>
        <time>2025-03-23T11:11:19Z</time>
      </trkpt>
      <trkpt lat="43.70055" lon="1.36704">
        <ele>127</ele>
        <time>2025-03-23T11:11:20Z</time>
      </trkpt>
      <trkpt lat="43.70054" lon="1.36706">
        <ele>127</ele>
        <time>2025-03-23T11:11:21Z</time>
      </trkpt>
      <trkpt lat="43.70051" lon="1.36708">
        <ele>127</ele>
        <time>2025-03-23T11:11:22Z</time>
      </trkpt>
      <trkpt lat="43.70048" lon="1.36711">
        <ele>127</ele>
        <time>2025-03-23T11:11:23Z</time>
      </trkpt>
      <trkpt lat="43.70047" lon="1.36711">
        <ele>127</ele>
        <time>2025-03-23T11:11:24Z</time>
      </trkpt>
      <trkpt lat="43.70044" lon="1.36715">
        <ele>127</ele>
        <time>2025-03-23T11:11:25Z</time>
      </trkpt>
      <trkpt lat="43.70043" lon="1.36716">
        <ele>127</ele>
        <time>2025-03-23T11:11:26Z</time>
      </trkpt>
      <trkpt lat="43.70041" lon="1.36718">
        <ele>127</ele>
        <time>2025-03-23T11:11:27Z</time>
      </trkpt>
      <trkpt lat="43.70039" lon="1.36721">
        <ele>127</ele>
        <time>2025-03-23T11:11:28Z</time>
      </trkpt>
      <trkpt lat="43.70037" lon="1.36723">
        <ele>127</ele>
        <time>2025-03-23T11:11:29Z</time>
      </trkpt>
      <trkpt lat="43.70035" lon="1.36725">
        <ele>127</ele>
        <time>2025-03-23T11:11:30Z</time>
      </trkpt>
      <trkpt lat="43.70033" lon="1.36728">
        <ele>127</ele>
        <time>2025-03-23T11:11:31Z</time>
      </trkpt>
      <trkpt lat="43.70032" lon="1.36729">
        <ele>127</ele>
        <time>2025-03-23T11:11:32Z</time>
      </trkpt>
      <trkpt lat="43.70031" lon="1.36731">
        <ele>127</ele>
        <time>2025-03-23T11:11:33Z</time>
      </trkpt>
      <trkpt lat="43.70031" lon="1.36731">
        <ele>127</ele>
        <time>2025-03-23T11:11:34Z</time>
      </trkpt>
      <trkpt lat="43.70027" lon="1.36733">
        <ele>127</ele>
        <time>2025-03-23T11:11:35Z</time>
      </trkpt>
      <trkpt lat="43.70026" lon="1.36735">
        <ele>128</ele>
        <time>2025-03-23T11:11:36Z</time>
      </trkpt>
      <trkpt lat="43.70026" lon="1.36735">
        <ele>128</ele>
        <time>2025-03-23T11:11:37Z</time>
      </trkpt>
      <trkpt lat="43.70023" lon="1.36736">
        <ele>127</ele>
        <time>2025-03-23T11:11:38Z</time>
      </trkpt>
      <trkpt lat="43.70023" lon="1.36736">
        <ele>127</ele>
        <time>2025-03-23T11:11:39Z</time>
      </trkpt>
      <trkpt lat="43.7002" lon="1.36739">
        <ele>127</ele>
        <time>2025-03-23T11:11:40Z</time>
      </trkpt>
      <trkpt lat="43.7002" lon="1.36739">
        <ele>127</ele>
        <time>2025-03-23T11:11:41Z</time>
      </trkpt>
      <trkpt lat="43.70019" lon="1.3674">
        <ele>128</ele>
        <time>2025-03-23T11:11:42Z</time>
      </trkpt>
      <trkpt lat="43.70019" lon="1.3674">
        <ele>128</ele>
        <time>2025-03-23T11:11:43Z</time>
      </trkpt>
      <trkpt lat="43.70017" lon="1.36743">
        <ele>128</ele>
        <time>2025-03-23T11:11:44Z</time>
      </trkpt>
      <trkpt lat="43.70017" lon="1.36743">
        <ele>128</ele>
        <time>2025-03-23T11:11:45Z</time>
      </trkpt>
      <trkpt lat="43.70015" lon="1.36745">
        <ele>127</ele>
        <time>2025-03-23T11:11:46Z</time>
      </trkpt>
      <trkpt lat="43.70013" lon="1.36747">
        <ele>127</ele>
        <time>2025-03-23T11:11:47Z</time>
      </trkpt>
      <trkpt lat="43.70013" lon="1.36747">
        <ele>127</ele>
        <time>2025-03-23T11:11:48Z</time>
      </trkpt>
      <trkpt lat="43.70011" lon="1.36749">
        <ele>127</ele>
        <time>2025-03-23T11:11:49Z</time>
      </trkpt>
      <trkpt lat="43.70011" lon="1.36749">
        <ele>127</ele>
        <time>2025-03-23T11:11:50Z</time>
      </trkpt>
      <trkpt lat="43.70009" lon="1.36751">
        <ele>127</ele>
        <time>2025-03-23T11:11:51Z</time>
      </trkpt>
      <trkpt lat="43.70009" lon="1.36751">
        <ele>127</ele>
        <time>2025-03-23T11:11:52Z</time>
      </trkpt>
      <trkpt lat="43.70006" lon="1.36753">
        <ele>127</ele>
        <time>2025-03-23T11:11:53Z</time>
      </trkpt>
      <trkpt lat="43.70006" lon="1.36753">
        <ele>127</ele>
        <time>2025-03-23T11:11:54Z</time>
      </trkpt>
      <trkpt lat="43.70003" lon="1.36756">
        <ele>128</ele>
        <time>2025-03-23T11:11:55Z</time>
      </trkpt>
      <trkpt lat="43.70003" lon="1.36756">
        <ele>128</ele>
        <time>2025-03-23T11:11:56Z</time>
      </trkpt>
      <trkpt lat="43.70001" lon="1.36758">
        <ele>129</ele>
        <time>2025-03-23T11:11:57Z</time>
      </trkpt>
      <trkpt lat="43.70001" lon="1.36758">
        <ele>129</ele>
        <time>2025-03-23T11:11:58Z</time>
      </trkpt>
      <trkpt lat="43.69998" lon="1.36761">
        <ele>129</ele>
        <time>2025-03-23T11:11:59Z</time>
      </trkpt>
      <trkpt lat="43.69998" lon="1.36761">
        <ele>128</ele>
        <time>2025-03-23T11:12:00Z</time>
      </trkpt>
      <trkpt lat="43.69995" lon="1.36763">
        <ele>128</ele>
        <time>2025-03-23T11:12:01Z</time>
      </trkpt>
      <trkpt lat="43.69995" lon="1.36763">
        <ele>127</ele>
        <time>2025-03-23T11:12:02Z</time>
      </trkpt>
      <trkpt lat="43.69993" lon="1.36765">
        <ele>127</ele>
        <time>2025-03-23T11:12:03Z</time>
      </trkpt>
      <trkpt lat="43.69993" lon="1.36765">
        <ele>126</ele>
        <time>2025-03-23T11:12:04Z</time>
      </trkpt>
      <trkpt lat="43.69991" lon="1.36767">
        <ele>126</ele>
        <time>2025-03-23T11:12:05Z</time>
      </trkpt>
      <trkpt lat="43.69991" lon="1.36767">
        <ele>126</ele>
        <time>2025-03-23T11:12:06Z</time>
      </trkpt>
      <trkpt lat="43.69988" lon="1.36767">
        <ele>126</ele>
        <time>2025-03-23T11:12:07Z</time>
      </trkpt>
      <trkpt lat="43.69988" lon="1.36767">
        <ele>126</ele>
        <time>2025-03-23T11:12:08Z</time>
      </trkpt>
      <trkpt lat="43.69986" lon="1.36768">
        <ele>126</ele>
        <time>2025-03-23T11:12:09Z</time>
      </trkpt>
      <trkpt lat="43.69986" lon="1.36768">
        <ele>126</ele>
        <time>2025-03-23T11:12:10Z</time>
      </trkpt>
      <trkpt lat="43.69984" lon="1.3677">
        <ele>127</ele>
        <time>2025-03-23T11:12:11Z</time>
      </trkpt>
      <trkpt lat="43.69984" lon="1.3677">
        <ele>127</ele>
        <time>2025-03-23T11:12:12Z</time>
      </trkpt>
      <trkpt lat="43.69984" lon="1.3677">
        <ele>127</ele>
        <time>2025-03-23T11:12:13Z</time>
      </trkpt>
      <trkpt lat="43.69981" lon="1.36771">
        <ele>127</ele>
        <time>2025-03-23T11:12:14Z</time>
      </trkpt>
      <trkpt lat="43.69981" lon="1.36771">
        <ele>126</ele>
        <time>2025-03-23T11:12:15Z</time>
      </trkpt>
      <trkpt lat="43.69979" lon="1.36773">
        <ele>126</ele>
        <time>2025-03-23T11:12:16Z</time>
      </trkpt>
      <trkpt lat="43.69979" lon="1.36773">
        <ele>126</ele>
        <time>2025-03-23T11:12:17Z</time>
      </trkpt>
      <trkpt lat="43.69976" lon="1.36775">
        <ele>126</ele>
        <time>2025-03-23T11:12:18Z</time>
      </trkpt>
      <trkpt lat="43.69975" lon="1.36776">
        <ele>126</ele>
        <time>2025-03-23T11:12:19Z</time>
      </trkpt>
      <trkpt lat="43.69975" lon="1.36776">
        <ele>126</ele>
        <time>2025-03-23T11:12:20Z</time>
      </trkpt>
      <trkpt lat="43.69972" lon="1.36777">
        <ele>126</ele>
        <time>2025-03-23T11:12:21Z</time>
      </trkpt>
      <trkpt lat="43.69969" lon="1.36778">
        <ele>126</ele>
        <time>2025-03-23T11:12:23Z</time>
      </trkpt>
      <trkpt lat="43.69969" lon="1.36778">
        <ele>126</ele>
        <time>2025-03-23T11:12:24Z</time>
      </trkpt>
      <trkpt lat="43.69966" lon="1.36779">
        <ele>126</ele>
        <time>2025-03-23T11:12:25Z</time>
      </trkpt>
      <trkpt lat="43.69966" lon="1.36779">
        <ele>126</ele>
        <time>2025-03-23T11:12:26Z</time>
      </trkpt>
      <trkpt lat="43.69964" lon="1.36781">
        <ele>126</ele>
        <time>2025-03-23T11:12:27Z</time>
      </trkpt>
      <trkpt lat="43.69964" lon="1.36781">
        <ele>126</ele>
        <time>2025-03-23T11:12:28Z</time>
      </trkpt>
      <trkpt lat="43.69962" lon="1.36781">
        <ele>126</ele>
        <time>2025-03-23T11:12:29Z</time>
      </trkpt>
      <trkpt lat="43.6996" lon="1.36782">
        <ele>126</ele>
        <time>2025-03-23T11:12:30Z</time>
      </trkpt>
      <trkpt lat="43.69959" lon="1.36782">
        <ele>126</ele>
        <time>2025-03-23T11:12:31Z</time>
      </trkpt>
      <trkpt lat="43.69957" lon="1.36783">
        <ele>126</ele>
        <time>2025-03-23T11:12:32Z</time>
      </trkpt>
      <trkpt lat="43.69955" lon="1.36784">
        <ele>126</ele>
        <time>2025-03-23T11:12:33Z</time>
      </trkpt>
      <trkpt lat="43.69953" lon="1.36785">
        <ele>126</ele>
        <time>2025-03-23T11:12:34Z</time>
      </trkpt>
      <trkpt lat="43.69951" lon="1.36787">
        <ele>126</ele>
        <time>2025-03-23T11:12:35Z</time>
      </trkpt>
      <trkpt lat="43.69949" lon="1.36788">
        <ele>126</ele>
        <time>2025-03-23T11:12:36Z</time>
      </trkpt>
      <trkpt lat="43.69945" lon="1.36789">
        <ele>126</ele>
        <time>2025-03-23T11:12:37Z</time>
      </trkpt>
      <trkpt lat="43.69944" lon="1.3679">
        <ele>126</ele>
        <time>2025-03-23T11:12:38Z</time>
      </trkpt>
      <trkpt lat="43.69942" lon="1.36791">
        <ele>126</ele>
        <time>2025-03-23T11:12:39Z</time>
      </trkpt>
      <trkpt lat="43.69939" lon="1.36791">
        <ele>126</ele>
        <time>2025-03-23T11:12:40Z</time>
      </trkpt>
      <trkpt lat="43.69935" lon="1.36793">
        <ele>126</ele>
        <time>2025-03-23T11:12:41Z</time>
      </trkpt>
      <trkpt lat="43.69934" lon="1.36793">
        <ele>126</ele>
        <time>2025-03-23T11:12:42Z</time>
      </trkpt>
      <trkpt lat="43.6993" lon="1.36794">
        <ele>126</ele>
        <time>2025-03-23T11:12:43Z</time>
      </trkpt>
      <trkpt lat="43.69929" lon="1.36794">
        <ele>126</ele>
        <time>2025-03-23T11:12:44Z</time>
      </trkpt>
      <trkpt lat="43.69926" lon="1.36795">
        <ele>126</ele>
        <time>2025-03-23T11:12:45Z</time>
      </trkpt>
      <trkpt lat="43.69924" lon="1.36796">
        <ele>126</ele>
        <time>2025-03-23T11:12:46Z</time>
      </trkpt>
      <trkpt lat="43.69922" lon="1.36796">
        <ele>126</ele>
        <time>2025-03-23T11:12:47Z</time>
      </trkpt>
      <trkpt lat="43.69919" lon="1.36797">
        <ele>126</ele>
        <time>2025-03-23T11:12:48Z</time>
      </trkpt>
      <trkpt lat="43.69917" lon="1.36798">
        <ele>126</ele>
        <time>2025-03-23T11:12:49Z</time>
      </trkpt>
      <trkpt lat="43.69914" lon="1.36799">
        <ele>126</ele>
        <time>2025-03-23T11:12:50Z</time>
      </trkpt>
      <trkpt lat="43.69912" lon="1.368">
        <ele>126</ele>
        <time>2025-03-23T11:12:51Z</time>
      </trkpt>
      <trkpt lat="43.69909" lon="1.36801">
        <ele>126</ele>
        <time>2025-03-23T11:12:52Z</time>
      </trkpt>
      <trkpt lat="43.69906" lon="1.36801">
        <ele>126</ele>
        <time>2025-03-23T11:12:53Z</time>
      </trkpt>
      <trkpt lat="43.69904" lon="1.36801">
        <ele>125</ele>
        <time>2025-03-23T11:12:54Z</time>
      </trkpt>
      <trkpt lat="43.69901" lon="1.36801">
        <ele>125</ele>
        <time>2025-03-23T11:12:55Z</time>
      </trkpt>
      <trkpt lat="43.69899" lon="1.36802">
        <ele>125</ele>
        <time>2025-03-23T11:12:56Z</time>
      </trkpt>
      <trkpt lat="43.69893" lon="1.36802">
        <ele>125</ele>
        <time>2025-03-23T11:12:57Z</time>
      </trkpt>
      <trkpt lat="43.69891" lon="1.36803">
        <ele>125</ele>
        <time>2025-03-23T11:12:58Z</time>
      </trkpt>
      <trkpt lat="43.69891" lon="1.36803">
        <ele>125</ele>
        <time>2025-03-23T11:12:59Z</time>
      </trkpt>
      <trkpt lat="43.69887" lon="1.36804">
        <ele>125</ele>
        <time>2025-03-23T11:13:00Z</time>
      </trkpt>
      <trkpt lat="43.69886" lon="1.36804">
        <ele>125</ele>
        <time>2025-03-23T11:13:01Z</time>
      </trkpt>
      <trkpt lat="43.69883" lon="1.36804">
        <ele>125</ele>
        <time>2025-03-23T11:13:02Z</time>
      </trkpt>
      <trkpt lat="43.6988" lon="1.36804">
        <ele>125</ele>
        <time>2025-03-23T11:13:03Z</time>
      </trkpt>
      <trkpt lat="43.69877" lon="1.36803">
        <ele>125</ele>
        <time>2025-03-23T11:13:04Z</time>
      </trkpt>
      <trkpt lat="43.69875" lon="1.36803">
        <ele>125</ele>
        <time>2025-03-23T11:13:05Z</time>
      </trkpt>
      <trkpt lat="43.69872" lon="1.36802">
        <ele>126</ele>
        <time>2025-03-23T11:13:06Z</time>
      </trkpt>
      <trkpt lat="43.6987" lon="1.36801">
        <ele>126</ele>
        <time>2025-03-23T11:13:07Z</time>
      </trkpt>
      <trkpt lat="43.69867" lon="1.36801">
        <ele>126</ele>
        <time>2025-03-23T11:13:08Z</time>
      </trkpt>
      <trkpt lat="43.69865" lon="1.368">
        <ele>126</ele>
        <time>2025-03-23T11:13:09Z</time>
      </trkpt>
      <trkpt lat="43.69863" lon="1.36799">
        <ele>126</ele>
        <time>2025-03-23T11:13:10Z</time>
      </trkpt>
      <trkpt lat="43.6986" lon="1.36798">
        <ele>126</ele>
        <time>2025-03-23T11:13:11Z</time>
      </trkpt>
      <trkpt lat="43.69858" lon="1.36797">
        <ele>126</ele>
        <time>2025-03-23T11:13:12Z</time>
      </trkpt>
      <trkpt lat="43.69855" lon="1.36797">
        <ele>126</ele>
        <time>2025-03-23T11:13:13Z</time>
      </trkpt>
      <trkpt lat="43.69852" lon="1.36796">
        <ele>126</ele>
        <time>2025-03-23T11:13:14Z</time>
      </trkpt>
      <trkpt lat="43.69848" lon="1.36796">
        <ele>126</ele>
        <time>2025-03-23T11:13:15Z</time>
      </trkpt>
      <trkpt lat="43.69847" lon="1.36796">
        <ele>126</ele>
        <time>2025-03-23T11:13:16Z</time>
      </trkpt>
      <trkpt lat="43.69844" lon="1.36796">
        <ele>126</ele>
        <time>2025-03-23T11:13:17Z</time>
      </trkpt>
      <trkpt lat="43.69841" lon="1.36795">
        <ele>126</ele>
        <time>2025-03-23T11:13:18Z</time>
      </trkpt>
      <trkpt lat="43.69839" lon="1.36795">
        <ele>125</ele>
        <time>2025-03-23T11:13:19Z</time>
      </trkpt>
      <trkpt lat="43.69836" lon="1.36794">
        <ele>126</ele>
        <time>2025-03-23T11:13:20Z</time>
      </trkpt>
      <trkpt lat="43.69833" lon="1.36794">
        <ele>126</ele>
        <time>2025-03-23T11:13:21Z</time>
      </trkpt>
      <trkpt lat="43.6983" lon="1.36793">
        <ele>126</ele>
        <time>2025-03-23T11:13:22Z</time>
      </trkpt>
      <trkpt lat="43.69826" lon="1.36793">
        <ele>126</ele>
        <time>2025-03-23T11:13:23Z</time>
      </trkpt>
      <trkpt lat="43.69825" lon="1.36793">
        <ele>126</ele>
        <time>2025-03-23T11:13:24Z</time>
      </trkpt>
      <trkpt lat="43.69823" lon="1.36793">
        <ele>126</ele>
        <time>2025-03-23T11:13:25Z</time>
      </trkpt>
      <trkpt lat="43.6982" lon="1.36792">
        <ele>126</ele>
        <time>2025-03-23T11:13:26Z</time>
      </trkpt>
      <trkpt lat="43.69817" lon="1.36791">
        <ele>126</ele>
        <time>2025-03-23T11:13:27Z</time>
      </trkpt>
      <trkpt lat="43.69815" lon="1.3679">
        <ele>126</ele>
        <time>2025-03-23T11:13:28Z</time>
      </trkpt>
      <trkpt lat="43.69812" lon="1.3679">
        <ele>126</ele>
        <time>2025-03-23T11:13:29Z</time>
      </trkpt>
      <trkpt lat="43.69809" lon="1.36789">
        <ele>126</ele>
        <time>2025-03-23T11:13:30Z</time>
      </trkpt>
      <trkpt lat="43.69806" lon="1.36788">
        <ele>126</ele>
        <time>2025-03-23T11:13:31Z</time>
      </trkpt>
      <trkpt lat="43.69803" lon="1.36787">
        <ele>126</ele>
        <time>2025-03-23T11:13:32Z</time>
      </trkpt>
      <trkpt lat="43.698" lon="1.36786">
        <ele>126</ele>
        <time>2025-03-23T11:13:33Z</time>
      </trkpt>
      <trkpt lat="43.69798" lon="1.36785">
        <ele>126</ele>
        <time>2025-03-23T11:13:34Z</time>
      </trkpt>
      <trkpt lat="43.69795" lon="1.36783">
        <ele>126</ele>
        <time>2025-03-23T11:13:35Z</time>
      </trkpt>
      <trkpt lat="43.69792" lon="1.36782">
        <ele>126</ele>
        <time>2025-03-23T11:13:36Z</time>
      </trkpt>
      <trkpt lat="43.69788" lon="1.3678">
        <ele>126</ele>
        <time>2025-03-23T11:13:37Z</time>
      </trkpt>
      <trkpt lat="43.69787" lon="1.36779">
        <ele>126</ele>
        <time>2025-03-23T11:13:38Z</time>
      </trkpt>
      <trkpt lat="43.69784" lon="1.36778">
        <ele>126</ele>
        <time>2025-03-23T11:13:39Z</time>
      </trkpt>
      <trkpt lat="43.69782" lon="1.36777">
        <ele>126</ele>
        <time>2025-03-23T11:13:40Z</time>
      </trkpt>
      <trkpt lat="43.69779" lon="1.36776">
        <ele>126</ele>
        <time>2025-03-23T11:13:41Z</time>
      </trkpt>
      <trkpt lat="43.69777" lon="1.36775">
        <ele>126</ele>
        <time>2025-03-23T11:13:42Z</time>
      </trkpt>
      <trkpt lat="43.69774" lon="1.36775">
        <ele>126</ele>
        <time>2025-03-23T11:13:43Z</time>
      </trkpt>
      <trkpt lat="43.69772" lon="1.36775">
        <ele>126</ele>
        <time>2025-03-23T11:13:44Z</time>
      </trkpt>
      <trkpt lat="43.69769" lon="1.36774">
        <ele>126</ele>
        <time>2025-03-23T11:13:45Z</time>
      </trkpt>
      <trkpt lat="43.69767" lon="1.36774">
        <ele>126</ele>
        <time>2025-03-23T11:13:46Z</time>
      </trkpt>
      <trkpt lat="43.69764" lon="1.36774">
        <ele>126</ele>
        <time>2025-03-23T11:13:47Z</time>
      </trkpt>
      <trkpt lat="43.69762" lon="1.36773">
        <ele>126</ele>
        <time>2025-03-23T11:13:48Z</time>
      </trkpt>
      <trkpt lat="43.69759" lon="1.36773">
        <ele>126</ele>
        <time>2025-03-23T11:13:49Z</time>
      </trkpt>
      <trkpt lat="43.69757" lon="1.36773">
        <ele>126</ele>
        <time>2025-03-23T11:13:50Z</time>
      </trkpt>
      <trkpt lat="43.69754" lon="1.36772">
        <ele>126</ele>
        <time>2025-03-23T11:13:51Z</time>
      </trkpt>
      <trkpt lat="43.69752" lon="1.36771">
        <ele>126</ele>
        <time>2025-03-23T11:13:52Z</time>
      </trkpt>
      <trkpt lat="43.69748" lon="1.3677">
        <ele>126</ele>
        <time>2025-03-23T11:13:53Z</time>
      </trkpt>
      <trkpt lat="43.69747" lon="1.36769">
        <ele>126</ele>
        <time>2025-03-23T11:13:54Z</time>
      </trkpt>
      <trkpt lat="43.69745" lon="1.36768">
        <ele>126</ele>
        <time>2025-03-23T11:13:55Z</time>
      </trkpt>
      <trkpt lat="43.69745" lon="1.36768">
        <ele>126</ele>
        <time>2025-03-23T11:13:56Z</time>
      </trkpt>
      <trkpt lat="43.69742" lon="1.36767">
        <ele>126</ele>
        <time>2025-03-23T11:13:57Z</time>
      </trkpt>
      <trkpt lat="43.69742" lon="1.36767">
        <ele>126</ele>
        <time>2025-03-23T11:13:58Z</time>
      </trkpt>
      <trkpt lat="43.69739" lon="1.36766">
        <ele>126</ele>
        <time>2025-03-23T11:13:59Z</time>
      </trkpt>
      <trkpt lat="43.69739" lon="1.36766">
        <ele>126</ele>
        <time>2025-03-23T11:14:00Z</time>
      </trkpt>
      <trkpt lat="43.69736" lon="1.36763">
        <ele>126</ele>
        <time>2025-03-23T11:14:01Z</time>
      </trkpt>
      <trkpt lat="43.69736" lon="1.36763">
        <ele>126</ele>
        <time>2025-03-23T11:14:02Z</time>
      </trkpt>
      <trkpt lat="43.69733" lon="1.36763">
        <ele>126</ele>
        <time>2025-03-23T11:14:03Z</time>
      </trkpt>
      <trkpt lat="43.69733" lon="1.36763">
        <ele>126</ele>
        <time>2025-03-23T11:14:04Z</time>
      </trkpt>
      <trkpt lat="43.69731" lon="1.36761">
        <ele>126</ele>
        <time>2025-03-23T11:14:05Z</time>
      </trkpt>
      <trkpt lat="43.69731" lon="1.36761">
        <ele>126</ele>
        <time>2025-03-23T11:14:06Z</time>
      </trkpt>
      <trkpt lat="43.69729" lon="1.36761">
        <ele>126</ele>
        <time>2025-03-23T11:14:07Z</time>
      </trkpt>
      <trkpt lat="43.69729" lon="1.36761">
        <ele>126</ele>
        <time>2025-03-23T11:14:08Z</time>
      </trkpt>
      <trkpt lat="43.69726" lon="1.36759">
        <ele>126</ele>
        <time>2025-03-23T11:14:09Z</time>
      </trkpt>
      <trkpt lat="43.69726" lon="1.36759">
        <ele>125</ele>
        <time>2025-03-23T11:14:10Z</time>
      </trkpt>
      <trkpt lat="43.69723" lon="1.36759">
        <ele>125</ele>
        <time>2025-03-23T11:14:11Z</time>
      </trkpt>
      <trkpt lat="43.69723" lon="1.36759">
        <ele>125</ele>
        <time>2025-03-23T11:14:12Z</time>
      </trkpt>
      <trkpt lat="43.6972" lon="1.36759">
        <ele>125</ele>
        <time>2025-03-23T11:14:13Z</time>
      </trkpt>
      <trkpt lat="43.6972" lon="1.36759">
        <ele>125</ele>
        <time>2025-03-23T11:14:14Z</time>
      </trkpt>
      <trkpt lat="43.69716" lon="1.36759">
        <ele>125</ele>
        <time>2025-03-23T11:14:15Z</time>
      </trkpt>
      <trkpt lat="43.69716" lon="1.36759">
        <ele>125</ele>
        <time>2025-03-23T11:14:17Z</time>
      </trkpt>
      <trkpt lat="43.69716" lon="1.36759">
        <ele>125</ele>
        <time>2025-03-23T11:14:18Z</time>
      </trkpt>
      <trkpt lat="43.69714" lon="1.36759">
        <ele>125</ele>
        <time>2025-03-23T11:14:19Z</time>
      </trkpt>
      <trkpt lat="43.69714" lon="1.36759">
        <ele>125</ele>
        <time>2025-03-23T11:14:20Z</time>
      </trkpt>
      <trkpt lat="43.6971" lon="1.36759">
        <ele>125</ele>
        <time>2025-03-23T11:14:21Z</time>
      </trkpt>
      <trkpt lat="43.6971" lon="1.36759">
        <ele>125</ele>
        <time>2025-03-23T11:14:22Z</time>
      </trkpt>
      <trkpt lat="43.69707" lon="1.36759">
        <ele>125</ele>
        <time>2025-03-23T11:14:23Z</time>
      </trkpt>
      <trkpt lat="43.69704" lon="1.36759">
        <ele>125</ele>
        <time>2025-03-23T11:14:24Z</time>
      </trkpt>
      <trkpt lat="43.69701" lon="1.36758">
        <ele>125</ele>
        <time>2025-03-23T11:14:25Z</time>
      </trkpt>
      <trkpt lat="43.697" lon="1.36758">
        <ele>125</ele>
        <time>2025-03-23T11:14:26Z</time>
      </trkpt>
      <trkpt lat="43.69697" lon="1.36758">
        <ele>125</ele>
        <time>2025-03-23T11:14:27Z</time>
      </trkpt>
      <trkpt lat="43.69694" lon="1.36758">
        <ele>125</ele>
        <time>2025-03-23T11:14:28Z</time>
      </trkpt>
      <trkpt lat="43.69692" lon="1.36758">
        <ele>125</ele>
        <time>2025-03-23T11:14:29Z</time>
      </trkpt>
      <trkpt lat="43.6969" lon="1.36758">
        <ele>125</ele>
        <time>2025-03-23T11:14:30Z</time>
      </trkpt>
      <trkpt lat="43.69687" lon="1.36758">
        <ele>125</ele>
        <time>2025-03-23T11:14:31Z</time>
      </trkpt>
      <trkpt lat="43.69683" lon="1.36758">
        <ele>125</ele>
        <time>2025-03-23T11:14:32Z</time>
      </trkpt>
      <trkpt lat="43.69682" lon="1.36757">
        <ele>125</ele>
        <time>2025-03-23T11:14:33Z</time>
      </trkpt>
      <trkpt lat="43.69679" lon="1.36758">
        <ele>125</ele>
        <time>2025-03-23T11:14:34Z</time>
      </trkpt>
      <trkpt lat="43.69676" lon="1.36757">
        <ele>125</ele>
        <time>2025-03-23T11:14:35Z</time>
      </trkpt>
      <trkpt lat="43.69673" lon="1.36756">
        <ele>125</ele>
        <time>2025-03-23T11:14:36Z</time>
      </trkpt>
      <trkpt lat="43.69671" lon="1.36755">
        <ele>125</ele>
        <time>2025-03-23T11:14:37Z</time>
      </trkpt>
      <trkpt lat="43.69668" lon="1.36754">
        <ele>125</ele>
        <time>2025-03-23T11:14:38Z</time>
      </trkpt>
      <trkpt lat="43.69665" lon="1.36752">
        <ele>124</ele>
        <time>2025-03-23T11:14:39Z</time>
      </trkpt>
      <trkpt lat="43.69663" lon="1.36752">
        <ele>125</ele>
        <time>2025-03-23T11:14:40Z</time>
      </trkpt>
      <trkpt lat="43.6966" lon="1.36751">
        <ele>125</ele>
        <time>2025-03-23T11:14:41Z</time>
      </trkpt>
      <trkpt lat="43.69658" lon="1.36749">
        <ele>125</ele>
        <time>2025-03-23T11:14:42Z</time>
      </trkpt>
      <trkpt lat="43.69655" lon="1.36748">
        <ele>125</ele>
        <time>2025-03-23T11:14:43Z</time>
      </trkpt>
      <trkpt lat="43.69652" lon="1.36747">
        <ele>125</ele>
        <time>2025-03-23T11:14:44Z</time>
      </trkpt>
      <trkpt lat="43.6965" lon="1.36747">
        <ele>125</ele>
        <time>2025-03-23T11:14:45Z</time>
      </trkpt>
      <trkpt lat="43.69648" lon="1.36746">
        <ele>125</ele>
        <time>2025-03-23T11:14:46Z</time>
      </trkpt>
      <trkpt lat="43.69645" lon="1.36745">
        <ele>126</ele>
        <time>2025-03-23T11:14:47Z</time>
      </trkpt>
      <trkpt lat="43.69642" lon="1.36743">
        <ele>126</ele>
        <time>2025-03-23T11:14:48Z</time>
      </trkpt>
      <trkpt lat="43.6964" lon="1.36742">
        <ele>126</ele>
        <time>2025-03-23T11:14:49Z</time>
      </trkpt>
      <trkpt lat="43.69638" lon="1.36742">
        <ele>126</ele>
        <time>2025-03-23T11:14:50Z</time>
      </trkpt>
      <trkpt lat="43.69635" lon="1.36742">
        <ele>126</ele>
        <time>2025-03-23T11:14:51Z</time>
      </trkpt>
      <trkpt lat="43.69633" lon="1.36742">
        <ele>126</ele>
        <time>2025-03-23T11:14:52Z</time>
      </trkpt>
      <trkpt lat="43.6963" lon="1.36741">
        <ele>126</ele>
        <time>2025-03-23T11:14:53Z</time>
      </trkpt>
      <trkpt lat="43.69627" lon="1.3674">
        <ele>126</ele>
        <time>2025-03-23T11:14:54Z</time>
      </trkpt>
      <trkpt lat="43.69624" lon="1.36738">
        <ele>126</ele>
        <time>2025-03-23T11:14:55Z</time>
      </trkpt>
      <trkpt lat="43.69621" lon="1.36737">
        <ele>126</ele>
        <time>2025-03-23T11:14:56Z</time>
      </trkpt>
      <trkpt lat="43.69619" lon="1.36735">
        <ele>125</ele>
        <time>2025-03-23T11:14:57Z</time>
      </trkpt>
      <trkpt lat="43.69616" lon="1.36734">
        <ele>125</ele>
        <time>2025-03-23T11:14:58Z</time>
      </trkpt>
      <trkpt lat="43.69613" lon="1.36733">
        <ele>125</ele>
        <time>2025-03-23T11:14:59Z</time>
      </trkpt>
      <trkpt lat="43.69611" lon="1.36732">
        <ele>126</ele>
        <time>2025-03-23T11:15:00Z</time>
      </trkpt>
      <trkpt lat="43.69609" lon="1.36731">
        <ele>126</ele>
        <time>2025-03-23T11:15:01Z</time>
      </trkpt>
      <trkpt lat="43.69608" lon="1.36729">
        <ele>126</ele>
        <time>2025-03-23T11:15:02Z</time>
      </trkpt>
      <trkpt lat="43.69604" lon="1.36727">
        <ele>126</ele>
        <time>2025-03-23T11:15:03Z</time>
      </trkpt>
      <trkpt lat="43.69602" lon="1.36726">
        <ele>126</ele>
        <time>2025-03-23T11:15:04Z</time>
      </trkpt>
      <trkpt lat="43.69598" lon="1.36725">
        <ele>126</ele>
        <time>2025-03-23T11:15:05Z</time>
      </trkpt>
      <trkpt lat="43.69597" lon="1.36724">
        <ele>126</ele>
        <time>2025-03-23T11:15:06Z</time>
      </trkpt>
      <trkpt lat="43.69595" lon="1.36723">
        <ele>126</ele>
        <time>2025-03-23T11:15:07Z</time>
      </trkpt>
      <trkpt lat="43.69593" lon="1.36721">
        <ele>126</ele>
        <time>2025-03-23T11:15:08Z</time>
      </trkpt>
      <trkpt lat="43.69591" lon="1.3672">
        <ele>126</ele>
        <time>2025-03-23T11:15:09Z</time>
      </trkpt>
      <trkpt lat="43.69589" lon="1.36718">
        <ele>126</ele>
        <time>2025-03-23T11:15:10Z</time>
      </trkpt>
      <trkpt lat="43.69587" lon="1.36716">
        <ele>126</ele>
        <time>2025-03-23T11:15:11Z</time>
      </trkpt>
      <trkpt lat="43.69585" lon="1.36715">
        <ele>126</ele>
        <time>2025-03-23T11:15:12Z</time>
      </trkpt>
      <trkpt lat="43.69581" lon="1.36713">
        <ele>126</ele>
        <time>2025-03-23T11:15:13Z</time>
      </trkpt>
      <trkpt lat="43.69579" lon="1.36712">
        <ele>126</ele>
        <time>2025-03-23T11:15:14Z</time>
      </trkpt>
      <trkpt lat="43.69577" lon="1.36711">
        <ele>126</ele>
        <time>2025-03-23T11:15:15Z</time>
      </trkpt>
      <trkpt lat="43.69575" lon="1.3671">
        <ele>126</ele>
        <time>2025-03-23T11:15:16Z</time>
      </trkpt>
      <trkpt lat="43.69572" lon="1.36711">
        <ele>126</ele>
        <time>2025-03-23T11:15:17Z</time>
      </trkpt>
      <trkpt lat="43.69571" lon="1.36712">
        <ele>126</ele>
        <time>2025-03-23T11:15:18Z</time>
      </trkpt>
      <trkpt lat="43.69569" lon="1.36713">
        <ele>126</ele>
        <time>2025-03-23T11:15:19Z</time>
      </trkpt>
      <trkpt lat="43.69567" lon="1.36715">
        <ele>126</ele>
        <time>2025-03-23T11:15:20Z</time>
      </trkpt>
      <trkpt lat="43.69565" lon="1.36717">
        <ele>126</ele>
        <time>2025-03-23T11:15:21Z</time>
      </trkpt>
      <trkpt lat="43.69563" lon="1.36719">
        <ele>126</ele>
        <time>2025-03-23T11:15:22Z</time>
      </trkpt>
      <trkpt lat="43.69559" lon="1.36721">
        <ele>126</ele>
        <time>2025-03-23T11:15:23Z</time>
      </trkpt>
      <trkpt lat="43.69558" lon="1.36722">
        <ele>126</ele>
        <time>2025-03-23T11:15:24Z</time>
      </trkpt>
      <trkpt lat="43.69555" lon="1.36722">
        <ele>126</ele>
        <time>2025-03-23T11:15:25Z</time>
      </trkpt>
      <trkpt lat="43.69553" lon="1.36723">
        <ele>126</ele>
        <time>2025-03-23T11:15:26Z</time>
      </trkpt>
      <trkpt lat="43.6955" lon="1.36723">
        <ele>126</ele>
        <time>2025-03-23T11:15:27Z</time>
      </trkpt>
      <trkpt lat="43.69546" lon="1.36723">
        <ele>126</ele>
        <time>2025-03-23T11:15:28Z</time>
      </trkpt>
      <trkpt lat="43.69545" lon="1.36723">
        <ele>125</ele>
        <time>2025-03-23T11:15:29Z</time>
      </trkpt>
      <trkpt lat="43.69542" lon="1.36723">
        <ele>125</ele>
        <time>2025-03-23T11:15:30Z</time>
      </trkpt>
      <trkpt lat="43.69539" lon="1.36723">
        <ele>125</ele>
        <time>2025-03-23T11:15:31Z</time>
      </trkpt>
      <trkpt lat="43.69536" lon="1.36721">
        <ele>125</ele>
        <time>2025-03-23T11:15:32Z</time>
      </trkpt>
      <trkpt lat="43.69534" lon="1.3672">
        <ele>125</ele>
        <time>2025-03-23T11:15:33Z</time>
      </trkpt>
      <trkpt lat="43.69532" lon="1.36719">
        <ele>125</ele>
        <time>2025-03-23T11:15:34Z</time>
      </trkpt>
      <trkpt lat="43.69529" lon="1.36718">
        <ele>125</ele>
        <time>2025-03-23T11:15:35Z</time>
      </trkpt>
      <trkpt lat="43.69527" lon="1.36717">
        <ele>125</ele>
        <time>2025-03-23T11:15:36Z</time>
      </trkpt>
      <trkpt lat="43.69525" lon="1.36717">
        <ele>125</ele>
        <time>2025-03-23T11:15:37Z</time>
      </trkpt>
      <trkpt lat="43.69523" lon="1.36717">
        <ele>125</ele>
        <time>2025-03-23T11:15:38Z</time>
      </trkpt>
      <trkpt lat="43.6952" lon="1.36717">
        <ele>125</ele>
        <time>2025-03-23T11:15:39Z</time>
      </trkpt>
      <trkpt lat="43.69517" lon="1.36716">
        <ele>125</ele>
        <time>2025-03-23T11:15:40Z</time>
      </trkpt>
      <trkpt lat="43.69515" lon="1.36715">
        <ele>125</ele>
        <time>2025-03-23T11:15:41Z</time>
      </trkpt>
      <trkpt lat="43.69511" lon="1.36713">
        <ele>125</ele>
        <time>2025-03-23T11:15:42Z</time>
      </trkpt>
      <trkpt lat="43.69509" lon="1.36712">
        <ele>125</ele>
        <time>2025-03-23T11:15:43Z</time>
      </trkpt>
      <trkpt lat="43.69507" lon="1.36711">
        <ele>126</ele>
        <time>2025-03-23T11:15:44Z</time>
      </trkpt>
      <trkpt lat="43.69504" lon="1.36709">
        <ele>126</ele>
        <time>2025-03-23T11:15:45Z</time>
      </trkpt>
      <trkpt lat="43.69502" lon="1.36708">
        <ele>126</ele>
        <time>2025-03-23T11:15:46Z</time>
      </trkpt>
      <trkpt lat="43.69499" lon="1.36707">
        <ele>126</ele>
        <time>2025-03-23T11:15:47Z</time>
      </trkpt>
      <trkpt lat="43.69496" lon="1.36707">
        <ele>125</ele>
        <time>2025-03-23T11:15:48Z</time>
      </trkpt>
      <trkpt lat="43.69494" lon="1.36706">
        <ele>125</ele>
        <time>2025-03-23T11:15:49Z</time>
      </trkpt>
      <trkpt lat="43.69491" lon="1.36706">
        <ele>125</ele>
        <time>2025-03-23T11:15:50Z</time>
      </trkpt>
      <trkpt lat="43.69489" lon="1.36706">
        <ele>125</ele>
        <time>2025-03-23T11:15:51Z</time>
      </trkpt>
      <trkpt lat="43.69487" lon="1.36707">
        <ele>125</ele>
        <time>2025-03-23T11:15:52Z</time>
      </trkpt>
      <trkpt lat="43.69485" lon="1.36707">
        <ele>125</ele>
        <time>2025-03-23T11:15:53Z</time>
      </trkpt>
      <trkpt lat="43.69481" lon="1.36707">
        <ele>125</ele>
        <time>2025-03-23T11:15:54Z</time>
      </trkpt>
      <trkpt lat="43.6948" lon="1.36707">
        <ele>125</ele>
        <time>2025-03-23T11:15:55Z</time>
      </trkpt>
      <trkpt lat="43.69477" lon="1.36706">
        <ele>125</ele>
        <time>2025-03-23T11:15:56Z</time>
      </trkpt>
      <trkpt lat="43.69474" lon="1.36705">
        <ele>126</ele>
        <time>2025-03-23T11:15:57Z</time>
      </trkpt>
      <trkpt lat="43.69472" lon="1.36705">
        <ele>126</ele>
        <time>2025-03-23T11:15:58Z</time>
      </trkpt>
      <trkpt lat="43.6947" lon="1.36706">
        <ele>126</ele>
        <time>2025-03-23T11:15:59Z</time>
      </trkpt>
      <trkpt lat="43.69468" lon="1.36707">
        <ele>126</ele>
        <time>2025-03-23T11:16:00Z</time>
      </trkpt>
      <trkpt lat="43.69465" lon="1.36707">
        <ele>126</ele>
        <time>2025-03-23T11:16:01Z</time>
      </trkpt>
      <trkpt lat="43.69462" lon="1.36707">
        <ele>126</ele>
        <time>2025-03-23T11:16:02Z</time>
      </trkpt>
      <trkpt lat="43.69459" lon="1.36707">
        <ele>126</ele>
        <time>2025-03-23T11:16:03Z</time>
      </trkpt>
      <trkpt lat="43.69456" lon="1.36706">
        <ele>126</ele>
        <time>2025-03-23T11:16:04Z</time>
      </trkpt>
      <trkpt lat="43.69451" lon="1.36705">
        <ele>125</ele>
        <time>2025-03-23T11:16:05Z</time>
      </trkpt>
      <trkpt lat="43.69449" lon="1.36705">
        <ele>125</ele>
        <time>2025-03-23T11:16:06Z</time>
      </trkpt>
      <trkpt lat="43.69447" lon="1.36705">
        <ele>125</ele>
        <time>2025-03-23T11:16:07Z</time>
      </trkpt>
      <trkpt lat="43.69444" lon="1.36705">
        <ele>125</ele>
        <time>2025-03-23T11:16:08Z</time>
      </trkpt>
      <trkpt lat="43.69441" lon="1.36706">
        <ele>125</ele>
        <time>2025-03-23T11:16:09Z</time>
      </trkpt>
      <trkpt lat="43.69439" lon="1.36706">
        <ele>125</ele>
        <time>2025-03-23T11:16:10Z</time>
      </trkpt>
      <trkpt lat="43.69436" lon="1.36706">
        <ele>125</ele>
        <time>2025-03-23T11:16:11Z</time>
      </trkpt>
      <trkpt lat="43.69434" lon="1.36706">
        <ele>125</ele>
        <time>2025-03-23T11:16:12Z</time>
      </trkpt>
      <trkpt lat="43.69431" lon="1.36705">
        <ele>125</ele>
        <time>2025-03-23T11:16:13Z</time>
      </trkpt>
      <trkpt lat="43.69428" lon="1.36704">
        <ele>125</ele>
        <time>2025-03-23T11:16:14Z</time>
      </trkpt>
      <trkpt lat="43.69426" lon="1.36704">
        <ele>125</ele>
        <time>2025-03-23T11:16:15Z</time>
      </trkpt>
      <trkpt lat="43.69423" lon="1.36703">
        <ele>125</ele>
        <time>2025-03-23T11:16:16Z</time>
      </trkpt>
      <trkpt lat="43.69421" lon="1.36702">
        <ele>125</ele>
        <time>2025-03-23T11:16:17Z</time>
      </trkpt>
      <trkpt lat="43.69418" lon="1.367">
        <ele>125</ele>
        <time>2025-03-23T11:16:18Z</time>
      </trkpt>
      <trkpt lat="43.69416" lon="1.36698">
        <ele>126</ele>
        <time>2025-03-23T11:16:19Z</time>
      </trkpt>
      <trkpt lat="43.69413" lon="1.36696">
        <ele>126</ele>
        <time>2025-03-23T11:16:20Z</time>
      </trkpt>
      <trkpt lat="43.69411" lon="1.36694">
        <ele>125</ele>
        <time>2025-03-23T11:16:21Z</time>
      </trkpt>
      <trkpt lat="43.69408" lon="1.36692">
        <ele>125</ele>
        <time>2025-03-23T11:16:22Z</time>
      </trkpt>
      <trkpt lat="43.69405" lon="1.36687">
        <ele>124</ele>
        <time>2025-03-23T11:16:23Z</time>
      </trkpt>
      <trkpt lat="43.69404" lon="1.36686">
        <ele>125</ele>
        <time>2025-03-23T11:16:24Z</time>
      </trkpt>
      <trkpt lat="43.69402" lon="1.36683">
        <ele>125</ele>
        <time>2025-03-23T11:16:25Z</time>
      </trkpt>
      <trkpt lat="43.69399" lon="1.36681">
        <ele>125</ele>
        <time>2025-03-23T11:16:26Z</time>
      </trkpt>
      <trkpt lat="43.69395" lon="1.36678">
        <ele>125</ele>
        <time>2025-03-23T11:16:27Z</time>
      </trkpt>
      <trkpt lat="43.69394" lon="1.36677">
        <ele>125</ele>
        <time>2025-03-23T11:16:28Z</time>
      </trkpt>
      <trkpt lat="43.6939" lon="1.36676">
        <ele>125</ele>
        <time>2025-03-23T11:16:29Z</time>
      </trkpt>
      <trkpt lat="43.69388" lon="1.36676">
        <ele>125</ele>
        <time>2025-03-23T11:16:30Z</time>
      </trkpt>
      <trkpt lat="43.69386" lon="1.36675">
        <ele>125</ele>
        <time>2025-03-23T11:16:31Z</time>
      </trkpt>
      <trkpt lat="43.69383" lon="1.36674">
        <ele>126</ele>
        <time>2025-03-23T11:16:32Z</time>
      </trkpt>
      <trkpt lat="43.69381" lon="1.36674">
        <ele>126</ele>
        <time>2025-03-23T11:16:33Z</time>
      </trkpt>
      <trkpt lat="43.69378" lon="1.36673">
        <ele>126</ele>
        <time>2025-03-23T11:16:34Z</time>
      </trkpt>
      <trkpt lat="43.69376" lon="1.36672">
        <ele>126</ele>
        <time>2025-03-23T11:16:35Z</time>
      </trkpt>
      <trkpt lat="43.69373" lon="1.36672">
        <ele>126</ele>
        <time>2025-03-23T11:16:36Z</time>
      </trkpt>
      <trkpt lat="43.69371" lon="1.36671">
        <ele>126</ele>
        <time>2025-03-23T11:16:37Z</time>
      </trkpt>
      <trkpt lat="43.69367" lon="1.3667">
        <ele>126</ele>
        <time>2025-03-23T11:16:38Z</time>
      </trkpt>
      <trkpt lat="43.69366" lon="1.3667">
        <ele>126</ele>
        <time>2025-03-23T11:16:39Z</time>
      </trkpt>
      <trkpt lat="43.69364" lon="1.36669">
        <ele>126</ele>
        <time>2025-03-23T11:16:40Z</time>
      </trkpt>
      <trkpt lat="43.69362" lon="1.36669">
        <ele>126</ele>
        <time>2025-03-23T11:16:41Z</time>
      </trkpt>
      <trkpt lat="43.69359" lon="1.36668">
        <ele>126</ele>
        <time>2025-03-23T11:16:42Z</time>
      </trkpt>
      <trkpt lat="43.69356" lon="1.36668">
        <ele>126</ele>
        <time>2025-03-23T11:16:43Z</time>
      </trkpt>
      <trkpt lat="43.69354" lon="1.36667">
        <ele>126</ele>
        <time>2025-03-23T11:16:44Z</time>
      </trkpt>
      <trkpt lat="43.69351" lon="1.36666">
        <ele>126</ele>
        <time>2025-03-23T11:16:45Z</time>
      </trkpt>
      <trkpt lat="43.69348" lon="1.36664">
        <ele>125</ele>
        <time>2025-03-23T11:16:46Z</time>
      </trkpt>
      <trkpt lat="43.69346" lon="1.36663">
        <ele>125</ele>
        <time>2025-03-23T11:16:47Z</time>
      </trkpt>
      <trkpt lat="43.69344" lon="1.36662">
        <ele>125</ele>
        <time>2025-03-23T11:16:48Z</time>
      </trkpt>
      <trkpt lat="43.69341" lon="1.36661">
        <ele>125</ele>
        <time>2025-03-23T11:16:49Z</time>
      </trkpt>
      <trkpt lat="43.69338" lon="1.3666">
        <ele>125</ele>
        <time>2025-03-23T11:16:50Z</time>
      </trkpt>
      <trkpt lat="43.69336" lon="1.36659">
        <ele>126</ele>
        <time>2025-03-23T11:16:51Z</time>
      </trkpt>
      <trkpt lat="43.69333" lon="1.36658">
        <ele>126</ele>
        <time>2025-03-23T11:16:52Z</time>
      </trkpt>
      <trkpt lat="43.6933" lon="1.36657">
        <ele>126</ele>
        <time>2025-03-23T11:16:53Z</time>
      </trkpt>
      <trkpt lat="43.69327" lon="1.36656">
        <ele>126</ele>
        <time>2025-03-23T11:16:54Z</time>
      </trkpt>
      <trkpt lat="43.69324" lon="1.36655">
        <ele>126</ele>
        <time>2025-03-23T11:16:55Z</time>
      </trkpt>
      <trkpt lat="43.69322" lon="1.36654">
        <ele>126</ele>
        <time>2025-03-23T11:16:56Z</time>
      </trkpt>
      <trkpt lat="43.69318" lon="1.36653">
        <ele>126</ele>
        <time>2025-03-23T11:16:57Z</time>
      </trkpt>
      <trkpt lat="43.69317" lon="1.36652">
        <ele>126</ele>
        <time>2025-03-23T11:16:58Z</time>
      </trkpt>
      <trkpt lat="43.69315" lon="1.36651">
        <ele>125</ele>
        <time>2025-03-23T11:16:59Z</time>
      </trkpt>
      <trkpt lat="43.69312" lon="1.36651">
        <ele>124</ele>
        <time>2025-03-23T11:17:00Z</time>
      </trkpt>
      <trkpt lat="43.69309" lon="1.3665">
        <ele>124</ele>
        <time>2025-03-23T11:17:01Z</time>
      </trkpt>
      <trkpt lat="43.69307" lon="1.36649">
        <ele>125</ele>
        <time>2025-03-23T11:17:02Z</time>
      </trkpt>
      <trkpt lat="43.69304" lon="1.36648">
        <ele>126</ele>
        <time>2025-03-23T11:17:03Z</time>
      </trkpt>
      <trkpt lat="43.69301" lon="1.36647">
        <ele>126</ele>
        <time>2025-03-23T11:17:04Z</time>
      </trkpt>
      <trkpt lat="43.69298" lon="1.36645">
        <ele>126</ele>
        <time>2025-03-23T11:17:05Z</time>
      </trkpt>
      <trkpt lat="43.69296" lon="1.36645">
        <ele>125</ele>
        <time>2025-03-23T11:17:06Z</time>
      </trkpt>
      <trkpt lat="43.69293" lon="1.36644">
        <ele>125</ele>
        <time>2025-03-23T11:17:07Z</time>
      </trkpt>
      <trkpt lat="43.69291" lon="1.36643">
        <ele>126</ele>
        <time>2025-03-23T11:17:08Z</time>
      </trkpt>
      <trkpt lat="43.69289" lon="1.36642">
        <ele>126</ele>
        <time>2025-03-23T11:17:09Z</time>
      </trkpt>
      <trkpt lat="43.69286" lon="1.36641">
        <ele>126</ele>
        <time>2025-03-23T11:17:10Z</time>
      </trkpt>
      <trkpt lat="43.69282" lon="1.36639">
        <ele>125</ele>
        <time>2025-03-23T11:17:11Z</time>
      </trkpt>
      <trkpt lat="43.69281" lon="1.36639">
        <ele>125</ele>
        <time>2025-03-23T11:17:12Z</time>
      </trkpt>
      <trkpt lat="43.69278" lon="1.36638">
        <ele>125</ele>
        <time>2025-03-23T11:17:13Z</time>
      </trkpt>
      <trkpt lat="43.69276" lon="1.36637">
        <ele>125</ele>
        <time>2025-03-23T11:17:14Z</time>
      </trkpt>
      <trkpt lat="43.69273" lon="1.36636">
        <ele>125</ele>
        <time>2025-03-23T11:17:15Z</time>
      </trkpt>
      <trkpt lat="43.69271" lon="1.36635">
        <ele>125</ele>
        <time>2025-03-23T11:17:16Z</time>
      </trkpt>
      <trkpt lat="43.69268" lon="1.36634">
        <ele>125</ele>
        <time>2025-03-23T11:17:17Z</time>
      </trkpt>
      <trkpt lat="43.69266" lon="1.36633">
        <ele>124</ele>
        <time>2025-03-23T11:17:18Z</time>
      </trkpt>
      <trkpt lat="43.69263" lon="1.36633">
        <ele>125</ele>
        <time>2025-03-23T11:17:19Z</time>
      </trkpt>
      <trkpt lat="43.69261" lon="1.36632">
        <ele>125</ele>
        <time>2025-03-23T11:17:20Z</time>
      </trkpt>
      <trkpt lat="43.69259" lon="1.36631">
        <ele>125</ele>
        <time>2025-03-23T11:17:21Z</time>
      </trkpt>
      <trkpt lat="43.69256" lon="1.3663">
        <ele>125</ele>
        <time>2025-03-23T11:17:22Z</time>
      </trkpt>
      <trkpt lat="43.69254" lon="1.36629">
        <ele>126</ele>
        <time>2025-03-23T11:17:23Z</time>
      </trkpt>
      <trkpt lat="43.69251" lon="1.36628">
        <ele>126</ele>
        <time>2025-03-23T11:17:24Z</time>
      </trkpt>
      <trkpt lat="43.69249" lon="1.36627">
        <ele>126</ele>
        <time>2025-03-23T11:17:25Z</time>
      </trkpt>
      <trkpt lat="43.69246" lon="1.36626">
        <ele>126</ele>
        <time>2025-03-23T11:17:26Z</time>
      </trkpt>
      <trkpt lat="43.69244" lon="1.36625">
        <ele>126</ele>
        <time>2025-03-23T11:17:27Z</time>
      </trkpt>
      <trkpt lat="43.69241" lon="1.36625">
        <ele>126</ele>
        <time>2025-03-23T11:17:28Z</time>
      </trkpt>
      <trkpt lat="43.69239" lon="1.36625">
        <ele>126</ele>
        <time>2025-03-23T11:17:29Z</time>
      </trkpt>
      <trkpt lat="43.69237" lon="1.36626">
        <ele>125</ele>
        <time>2025-03-23T11:17:30Z</time>
      </trkpt>
      <trkpt lat="43.69234" lon="1.36627">
        <ele>125</ele>
        <time>2025-03-23T11:17:31Z</time>
      </trkpt>
      <trkpt lat="43.69231" lon="1.36628">
        <ele>125</ele>
        <time>2025-03-23T11:17:32Z</time>
      </trkpt>
      <trkpt lat="43.69228" lon="1.36628">
        <ele>125</ele>
        <time>2025-03-23T11:17:33Z</time>
      </trkpt>
      <trkpt lat="43.69226" lon="1.36626">
        <ele>125</ele>
        <time>2025-03-23T11:17:34Z</time>
      </trkpt>
      <trkpt lat="43.69223" lon="1.36621">
        <ele>125</ele>
        <time>2025-03-23T11:17:35Z</time>
      </trkpt>
      <trkpt lat="43.69222" lon="1.36619">
        <ele>124</ele>
        <time>2025-03-23T11:17:36Z</time>
      </trkpt>
      <trkpt lat="43.6922" lon="1.36616">
        <ele>124</ele>
        <time>2025-03-23T11:17:37Z</time>
      </trkpt>
      <trkpt lat="43.69218" lon="1.36614">
        <ele>124</ele>
        <time>2025-03-23T11:17:38Z</time>
      </trkpt>
      <trkpt lat="43.69216" lon="1.36613">
        <ele>125</ele>
        <time>2025-03-23T11:17:39Z</time>
      </trkpt>
      <trkpt lat="43.69216" lon="1.36613">
        <ele>125</ele>
        <time>2025-03-23T11:17:40Z</time>
      </trkpt>
      <trkpt lat="43.69213" lon="1.36616">
        <ele>125</ele>
        <time>2025-03-23T11:17:41Z</time>
      </trkpt>
      <trkpt lat="43.69211" lon="1.36618">
        <ele>125</ele>
        <time>2025-03-23T11:17:42Z</time>
      </trkpt>
      <trkpt lat="43.6921" lon="1.3662">
        <ele>125</ele>
        <time>2025-03-23T11:17:43Z</time>
      </trkpt>
      <trkpt lat="43.69208" lon="1.36623">
        <ele>125</ele>
        <time>2025-03-23T11:17:44Z</time>
      </trkpt>
      <trkpt lat="43.69206" lon="1.36625">
        <ele>125</ele>
        <time>2025-03-23T11:17:45Z</time>
      </trkpt>
      <trkpt lat="43.69204" lon="1.36625">
        <ele>125</ele>
        <time>2025-03-23T11:17:46Z</time>
      </trkpt>
      <trkpt lat="43.69201" lon="1.36625">
        <ele>125</ele>
        <time>2025-03-23T11:17:47Z</time>
      </trkpt>
      <trkpt lat="43.69199" lon="1.36624">
        <ele>125</ele>
        <time>2025-03-23T11:17:48Z</time>
      </trkpt>
      <trkpt lat="43.69195" lon="1.36624">
        <ele>125</ele>
        <time>2025-03-23T11:17:49Z</time>
      </trkpt>
      <trkpt lat="43.69194" lon="1.36624">
        <ele>125</ele>
        <time>2025-03-23T11:17:50Z</time>
      </trkpt>
      <trkpt lat="43.69191" lon="1.36624">
        <ele>125</ele>
        <time>2025-03-23T11:17:51Z</time>
      </trkpt>
      <trkpt lat="43.69189" lon="1.36623">
        <ele>125</ele>
        <time>2025-03-23T11:17:52Z</time>
      </trkpt>
      <trkpt lat="43.69186" lon="1.36623">
        <ele>125</ele>
        <time>2025-03-23T11:17:53Z</time>
      </trkpt>
      <trkpt lat="43.69183" lon="1.36623">
        <ele>125</ele>
        <time>2025-03-23T11:17:54Z</time>
      </trkpt>
      <trkpt lat="43.69181" lon="1.36622">
        <ele>125</ele>
        <time>2025-03-23T11:17:55Z</time>
      </trkpt>
      <trkpt lat="43.69178" lon="1.36621">
        <ele>125</ele>
        <time>2025-03-23T11:17:56Z</time>
      </trkpt>
      <trkpt lat="43.69176" lon="1.36619">
        <ele>125</ele>
        <time>2025-03-23T11:17:57Z</time>
      </trkpt>
      <trkpt lat="43.69173" lon="1.36616">
        <ele>125</ele>
        <time>2025-03-23T11:17:58Z</time>
      </trkpt>
      <trkpt lat="43.69171" lon="1.36614">
        <ele>125</ele>
        <time>2025-03-23T11:17:59Z</time>
      </trkpt>
      <trkpt lat="43.69169" lon="1.36611">
        <ele>125</ele>
        <time>2025-03-23T11:18:00Z</time>
      </trkpt>
      <trkpt lat="43.69167" lon="1.36609">
        <ele>125</ele>
        <time>2025-03-23T11:18:01Z</time>
      </trkpt>
      <trkpt lat="43.69165" lon="1.36607">
        <ele>125</ele>
        <time>2025-03-23T11:18:02Z</time>
      </trkpt>
      <trkpt lat="43.69162" lon="1.36604">
        <ele>125</ele>
        <time>2025-03-23T11:18:03Z</time>
      </trkpt>
      <trkpt lat="43.6916" lon="1.36601">
        <ele>125</ele>
        <time>2025-03-23T11:18:04Z</time>
      </trkpt>
      <trkpt lat="43.69158" lon="1.36599">
        <ele>125</ele>
        <time>2025-03-23T11:18:05Z</time>
      </trkpt>
      <trkpt lat="43.69155" lon="1.36595">
        <ele>124</ele>
        <time>2025-03-23T11:18:06Z</time>
      </trkpt>
      <trkpt lat="43.69154" lon="1.36594">
        <ele>124</ele>
        <time>2025-03-23T11:18:07Z</time>
      </trkpt>
      <trkpt lat="43.69152" lon="1.36591">
        <ele>124</ele>
        <time>2025-03-23T11:18:08Z</time>
      </trkpt>
      <trkpt lat="43.6915" lon="1.36589">
        <ele>124</ele>
        <time>2025-03-23T11:18:09Z</time>
      </trkpt>
      <trkpt lat="43.69148" lon="1.36587">
        <ele>124</ele>
        <time>2025-03-23T11:18:10Z</time>
      </trkpt>
      <trkpt lat="43.69146" lon="1.36585">
        <ele>124</ele>
        <time>2025-03-23T11:18:11Z</time>
      </trkpt>
      <trkpt lat="43.69145" lon="1.36582">
        <ele>124</ele>
        <time>2025-03-23T11:18:12Z</time>
      </trkpt>
      <trkpt lat="43.69142" lon="1.36578">
        <ele>124</ele>
        <time>2025-03-23T11:18:13Z</time>
      </trkpt>
      <trkpt lat="43.69141" lon="1.36577">
        <ele>124</ele>
        <time>2025-03-23T11:18:14Z</time>
      </trkpt>
      <trkpt lat="43.69139" lon="1.36575">
        <ele>124</ele>
        <time>2025-03-23T11:18:15Z</time>
      </trkpt>
      <trkpt lat="43.69136" lon="1.36572">
        <ele>125</ele>
        <time>2025-03-23T11:18:16Z</time>
      </trkpt>
      <trkpt lat="43.69135" lon="1.36571">
        <ele>125</ele>
        <time>2025-03-23T11:18:17Z</time>
      </trkpt>
      <trkpt lat="43.69133" lon="1.36569">
        <ele>125</ele>
        <time>2025-03-23T11:18:18Z</time>
      </trkpt>
      <trkpt lat="43.6913" lon="1.36567">
        <ele>125</ele>
        <time>2025-03-23T11:18:19Z</time>
      </trkpt>
      <trkpt lat="43.69128" lon="1.36566">
        <ele>125</ele>
        <time>2025-03-23T11:18:20Z</time>
      </trkpt>
      <trkpt lat="43.69126" lon="1.36564">
        <ele>125</ele>
        <time>2025-03-23T11:18:21Z</time>
      </trkpt>
      <trkpt lat="43.69124" lon="1.36563">
        <ele>125</ele>
        <time>2025-03-23T11:18:22Z</time>
      </trkpt>
      <trkpt lat="43.69121" lon="1.36562">
        <ele>125</ele>
        <time>2025-03-23T11:18:23Z</time>
      </trkpt>
      <trkpt lat="43.69119" lon="1.36561">
        <ele>125</ele>
        <time>2025-03-23T11:18:24Z</time>
      </trkpt>
      <trkpt lat="43.69117" lon="1.3656">
        <ele>125</ele>
        <time>2025-03-23T11:18:25Z</time>
      </trkpt>
      <trkpt lat="43.69115" lon="1.36559">
        <ele>125</ele>
        <time>2025-03-23T11:18:26Z</time>
      </trkpt>
      <trkpt lat="43.69112" lon="1.36558">
        <ele>124</ele>
        <time>2025-03-23T11:18:27Z</time>
      </trkpt>
      <trkpt lat="43.69109" lon="1.36557">
        <ele>124</ele>
        <time>2025-03-23T11:18:28Z</time>
      </trkpt>
      <trkpt lat="43.69107" lon="1.36556">
        <ele>124</ele>
        <time>2025-03-23T11:18:29Z</time>
      </trkpt>
      <trkpt lat="43.69104" lon="1.36555">
        <ele>124</ele>
        <time>2025-03-23T11:18:30Z</time>
      </trkpt>
      <trkpt lat="43.69102" lon="1.36553">
        <ele>124</ele>
        <time>2025-03-23T11:18:31Z</time>
      </trkpt>
      <trkpt lat="43.69098" lon="1.36551">
        <ele>124</ele>
        <time>2025-03-23T11:18:32Z</time>
      </trkpt>
      <trkpt lat="43.69096" lon="1.36551">
        <ele>124</ele>
        <time>2025-03-23T11:18:33Z</time>
      </trkpt>
      <trkpt lat="43.69094" lon="1.3655">
        <ele>124</ele>
        <time>2025-03-23T11:18:34Z</time>
      </trkpt>
      <trkpt lat="43.69091" lon="1.36549">
        <ele>124</ele>
        <time>2025-03-23T11:18:35Z</time>
      </trkpt>
      <trkpt lat="43.69088" lon="1.36548">
        <ele>124</ele>
        <time>2025-03-23T11:18:36Z</time>
      </trkpt>
      <trkpt lat="43.69086" lon="1.36547">
        <ele>124</ele>
        <time>2025-03-23T11:18:37Z</time>
      </trkpt>
      <trkpt lat="43.69083" lon="1.36546">
        <ele>124</ele>
        <time>2025-03-23T11:18:38Z</time>
      </trkpt>
      <trkpt lat="43.69081" lon="1.36544">
        <ele>124</ele>
        <time>2025-03-23T11:18:39Z</time>
      </trkpt>
      <trkpt lat="43.69079" lon="1.36542">
        <ele>124</ele>
        <time>2025-03-23T11:18:40Z</time>
      </trkpt>
      <trkpt lat="43.69076" lon="1.36538">
        <ele>124</ele>
        <time>2025-03-23T11:18:41Z</time>
      </trkpt>
      <trkpt lat="43.69074" lon="1.36536">
        <ele>124</ele>
        <time>2025-03-23T11:18:42Z</time>
      </trkpt>
      <trkpt lat="43.69073" lon="1.36534">
        <ele>124</ele>
        <time>2025-03-23T11:18:43Z</time>
      </trkpt>
      <trkpt lat="43.69071" lon="1.36532">
        <ele>124</ele>
        <time>2025-03-23T11:18:44Z</time>
      </trkpt>
      <trkpt lat="43.69069" lon="1.36529">
        <ele>124</ele>
        <time>2025-03-23T11:18:45Z</time>
      </trkpt>
      <trkpt lat="43.69067" lon="1.36526">
        <ele>124</ele>
        <time>2025-03-23T11:18:46Z</time>
      </trkpt>
      <trkpt lat="43.69065" lon="1.36523">
        <ele>124</ele>
        <time>2025-03-23T11:18:47Z</time>
      </trkpt>
      <trkpt lat="43.69063" lon="1.3652">
        <ele>124</ele>
        <time>2025-03-23T11:18:48Z</time>
      </trkpt>
      <trkpt lat="43.69062" lon="1.36518">
        <ele>124</ele>
        <time>2025-03-23T11:18:49Z</time>
      </trkpt>
      <trkpt lat="43.6906" lon="1.36515">
        <ele>124</ele>
        <time>2025-03-23T11:18:50Z</time>
      </trkpt>
      <trkpt lat="43.69057" lon="1.36511">
        <ele>124</ele>
        <time>2025-03-23T11:18:51Z</time>
      </trkpt>
      <trkpt lat="43.69056" lon="1.3651">
        <ele>124</ele>
        <time>2025-03-23T11:18:52Z</time>
      </trkpt>
      <trkpt lat="43.69055" lon="1.36507">
        <ele>124</ele>
        <time>2025-03-23T11:18:53Z</time>
      </trkpt>
      <trkpt lat="43.69053" lon="1.36504">
        <ele>124</ele>
        <time>2025-03-23T11:18:54Z</time>
      </trkpt>
      <trkpt lat="43.69052" lon="1.36501">
        <ele>124</ele>
        <time>2025-03-23T11:18:55Z</time>
      </trkpt>
      <trkpt lat="43.6905" lon="1.36498">
        <ele>124</ele>
        <time>2025-03-23T11:18:56Z</time>
      </trkpt>
      <trkpt lat="43.69049" lon="1.36496">
        <ele>124</ele>
        <time>2025-03-23T11:18:57Z</time>
      </trkpt>
      <trkpt lat="43.69047" lon="1.36494">
        <ele>124</ele>
        <time>2025-03-23T11:18:58Z</time>
      </trkpt>
      <trkpt lat="43.69046" lon="1.36492">
        <ele>124</ele>
        <time>2025-03-23T11:18:59Z</time>
      </trkpt>
      <trkpt lat="43.69045" lon="1.36488">
        <ele>124</ele>
        <time>2025-03-23T11:19:00Z</time>
      </trkpt>
      <trkpt lat="43.69043" lon="1.36484">
        <ele>124</ele>
        <time>2025-03-23T11:19:01Z</time>
      </trkpt>
      <trkpt lat="43.69043" lon="1.36482">
        <ele>124</ele>
        <time>2025-03-23T11:19:02Z</time>
      </trkpt>
      <trkpt lat="43.69043" lon="1.36478">
        <ele>124</ele>
        <time>2025-03-23T11:19:03Z</time>
      </trkpt>
      <trkpt lat="43.69042" lon="1.36475">
        <ele>123</ele>
        <time>2025-03-23T11:19:04Z</time>
      </trkpt>
      <trkpt lat="43.69043" lon="1.36472">
        <ele>123</ele>
        <time>2025-03-23T11:19:05Z</time>
      </trkpt>
      <trkpt lat="43.69043" lon="1.36468">
        <ele>123</ele>
        <time>2025-03-23T11:19:06Z</time>
      </trkpt>
      <trkpt lat="43.69043" lon="1.36465">
        <ele>123</ele>
        <time>2025-03-23T11:19:07Z</time>
      </trkpt>
      <trkpt lat="43.69042" lon="1.36462">
        <ele>123</ele>
        <time>2025-03-23T11:19:08Z</time>
      </trkpt>
      <trkpt lat="43.6904" lon="1.36459">
        <ele>123</ele>
        <time>2025-03-23T11:19:09Z</time>
      </trkpt>
      <trkpt lat="43.69039" lon="1.36456">
        <ele>123</ele>
        <time>2025-03-23T11:19:10Z</time>
      </trkpt>
      <trkpt lat="43.69036" lon="1.36451">
        <ele>123</ele>
        <time>2025-03-23T11:19:11Z</time>
      </trkpt>
      <trkpt lat="43.69035" lon="1.3645">
        <ele>124</ele>
        <time>2025-03-23T11:19:12Z</time>
      </trkpt>
      <trkpt lat="43.69034" lon="1.36447">
        <ele>124</ele>
        <time>2025-03-23T11:19:13Z</time>
      </trkpt>
      <trkpt lat="43.69033" lon="1.36444">
        <ele>124</ele>
        <time>2025-03-23T11:19:14Z</time>
      </trkpt>
      <trkpt lat="43.69031" lon="1.3644">
        <ele>124</ele>
        <time>2025-03-23T11:19:15Z</time>
      </trkpt>
      <trkpt lat="43.69029" lon="1.36437">
        <ele>124</ele>
        <time>2025-03-23T11:19:16Z</time>
      </trkpt>
      <trkpt lat="43.69027" lon="1.36435">
        <ele>124</ele>
        <time>2025-03-23T11:19:17Z</time>
      </trkpt>
      <trkpt lat="43.69026" lon="1.36432">
        <ele>124</ele>
        <time>2025-03-23T11:19:18Z</time>
      </trkpt>
      <trkpt lat="43.69024" lon="1.36428">
        <ele>124</ele>
        <time>2025-03-23T11:19:19Z</time>
      </trkpt>
      <trkpt lat="43.69022" lon="1.36426">
        <ele>124</ele>
        <time>2025-03-23T11:19:20Z</time>
      </trkpt>
      <trkpt lat="43.6902" lon="1.36424">
        <ele>124</ele>
        <time>2025-03-23T11:19:21Z</time>
      </trkpt>
      <trkpt lat="43.69017" lon="1.36423">
        <ele>124</ele>
        <time>2025-03-23T11:19:22Z</time>
      </trkpt>
      <trkpt lat="43.69015" lon="1.36422">
        <ele>124</ele>
        <time>2025-03-23T11:19:23Z</time>
      </trkpt>
      <trkpt lat="43.69015" lon="1.36422">
        <ele>124</ele>
        <time>2025-03-23T11:19:24Z</time>
      </trkpt>
      <trkpt lat="43.69013" lon="1.36423">
        <ele>124</ele>
        <time>2025-03-23T11:19:25Z</time>
      </trkpt>
      <trkpt lat="43.69013" lon="1.36423">
        <ele>124</ele>
        <time>2025-03-23T11:19:26Z</time>
      </trkpt>
      <trkpt lat="43.69009" lon="1.36425">
        <ele>124</ele>
        <time>2025-03-23T11:19:27Z</time>
      </trkpt>
      <trkpt lat="43.69009" lon="1.36425">
        <ele>124</ele>
        <time>2025-03-23T11:19:28Z</time>
      </trkpt>
      <trkpt lat="43.69006" lon="1.36427">
        <ele>124</ele>
        <time>2025-03-23T11:19:29Z</time>
      </trkpt>
      <trkpt lat="43.69004" lon="1.36428">
        <ele>124</ele>
        <time>2025-03-23T11:19:30Z</time>
      </trkpt>
      <trkpt lat="43.69002" lon="1.36428">
        <ele>124</ele>
        <time>2025-03-23T11:19:31Z</time>
      </trkpt>
      <trkpt lat="43.69" lon="1.36429">
        <ele>125</ele>
        <time>2025-03-23T11:19:32Z</time>
      </trkpt>
      <trkpt lat="43.68998" lon="1.36429">
        <ele>125</ele>
        <time>2025-03-23T11:19:33Z</time>
      </trkpt>
      <trkpt lat="43.68997" lon="1.3643">
        <ele>126</ele>
        <time>2025-03-23T11:19:34Z</time>
      </trkpt>
      <trkpt lat="43.68994" lon="1.36429">
        <ele>126</ele>
        <time>2025-03-23T11:19:35Z</time>
      </trkpt>
      <trkpt lat="43.68993" lon="1.36428">
        <ele>126</ele>
        <time>2025-03-23T11:19:36Z</time>
      </trkpt>
      <trkpt lat="43.68993" lon="1.36428">
        <ele>126</ele>
        <time>2025-03-23T11:19:37Z</time>
      </trkpt>
      <trkpt lat="43.6899" lon="1.36425">
        <ele>126</ele>
        <time>2025-03-23T11:19:38Z</time>
      </trkpt>
      <trkpt lat="43.68988" lon="1.36422">
        <ele>126</ele>
        <time>2025-03-23T11:19:40Z</time>
      </trkpt>
      <trkpt lat="43.68988" lon="1.36422">
        <ele>126</ele>
        <time>2025-03-23T11:19:41Z</time>
      </trkpt>
      <trkpt lat="43.68986" lon="1.3642">
        <ele>127</ele>
        <time>2025-03-23T11:19:42Z</time>
      </trkpt>
      <trkpt lat="43.68986" lon="1.3642">
        <ele>127</ele>
        <time>2025-03-23T11:19:43Z</time>
      </trkpt>
      <trkpt lat="43.68984" lon="1.36418">
        <ele>127</ele>
        <time>2025-03-23T11:19:44Z</time>
      </trkpt>
      <trkpt lat="43.68984" lon="1.36418">
        <ele>128</ele>
        <time>2025-03-23T11:19:45Z</time>
      </trkpt>
      <trkpt lat="43.68984" lon="1.36418">
        <ele>128</ele>
        <time>2025-03-23T11:19:46Z</time>
      </trkpt>
      <trkpt lat="43.68982" lon="1.36416">
        <ele>128</ele>
        <time>2025-03-23T11:19:47Z</time>
      </trkpt>
      <trkpt lat="43.68982" lon="1.36416">
        <ele>128</ele>
        <time>2025-03-23T11:19:48Z</time>
      </trkpt>
      <trkpt lat="43.6898" lon="1.36415">
        <ele>128</ele>
        <time>2025-03-23T11:19:49Z</time>
      </trkpt>
      <trkpt lat="43.6898" lon="1.36415">
        <ele>128</ele>
        <time>2025-03-23T11:19:50Z</time>
      </trkpt>
      <trkpt lat="43.6898" lon="1.36415">
        <ele>129</ele>
        <time>2025-03-23T11:19:51Z</time>
      </trkpt>
      <trkpt lat="43.68979" lon="1.36412">
        <ele>129</ele>
        <time>2025-03-23T11:19:52Z</time>
      </trkpt>
      <trkpt lat="43.68979" lon="1.36412">
        <ele>130</ele>
        <time>2025-03-23T11:19:53Z</time>
      </trkpt>
      <trkpt lat="43.68978" lon="1.36409">
        <ele>130</ele>
        <time>2025-03-23T11:19:54Z</time>
      </trkpt>
      <trkpt lat="43.68978" lon="1.36409">
        <ele>130</ele>
        <time>2025-03-23T11:19:55Z</time>
      </trkpt>
      <trkpt lat="43.68977" lon="1.36406">
        <ele>130</ele>
        <time>2025-03-23T11:19:56Z</time>
      </trkpt>
      <trkpt lat="43.68977" lon="1.36406">
        <ele>130</ele>
        <time>2025-03-23T11:19:57Z</time>
      </trkpt>
      <trkpt lat="43.68976" lon="1.36403">
        <ele>131</ele>
        <time>2025-03-23T11:19:59Z</time>
      </trkpt>
      <trkpt lat="43.68975" lon="1.364">
        <ele>131</ele>
        <time>2025-03-23T11:20:00Z</time>
      </trkpt>
      <trkpt lat="43.68975" lon="1.364">
        <ele>132</ele>
        <time>2025-03-23T11:20:01Z</time>
      </trkpt>
      <trkpt lat="43.68974" lon="1.36398">
        <ele>133</ele>
        <time>2025-03-23T11:20:02Z</time>
      </trkpt>
      <trkpt lat="43.68974" lon="1.36398">
        <ele>133</ele>
        <time>2025-03-23T11:20:03Z</time>
      </trkpt>
      <trkpt lat="43.68972" lon="1.36396">
        <ele>134</ele>
        <time>2025-03-23T11:20:04Z</time>
      </trkpt>
      <trkpt lat="43.68972" lon="1.36396">
        <ele>133</ele>
        <time>2025-03-23T11:20:05Z</time>
      </trkpt>
      <trkpt lat="43.6897" lon="1.36395">
        <ele>133</ele>
        <time>2025-03-23T11:20:06Z</time>
      </trkpt>
      <trkpt lat="43.6897" lon="1.36395">
        <ele>133</ele>
        <time>2025-03-23T11:20:07Z</time>
      </trkpt>
      <trkpt lat="43.6897" lon="1.36392">
        <ele>133</ele>
        <time>2025-03-23T11:20:08Z</time>
      </trkpt>
      <trkpt lat="43.6897" lon="1.36392">
        <ele>133</ele>
        <time>2025-03-23T11:20:09Z</time>
      </trkpt>
      <trkpt lat="43.68971" lon="1.3639">
        <ele>133</ele>
        <time>2025-03-23T11:20:10Z</time>
      </trkpt>
      <trkpt lat="43.68971" lon="1.3639">
        <ele>134</ele>
        <time>2025-03-23T11:20:11Z</time>
      </trkpt>
      <trkpt lat="43.68972" lon="1.36388">
        <ele>134</ele>
        <time>2025-03-23T11:20:12Z</time>
      </trkpt>
      <trkpt lat="43.68972" lon="1.36388">
        <ele>135</ele>
        <time>2025-03-23T11:20:13Z</time>
      </trkpt>
      <trkpt lat="43.68972" lon="1.36388">
        <ele>135</ele>
        <time>2025-03-23T11:20:14Z</time>
      </trkpt>
      <trkpt lat="43.68973" lon="1.36385">
        <ele>135</ele>
        <time>2025-03-23T11:20:15Z</time>
      </trkpt>
      <trkpt lat="43.68973" lon="1.36385">
        <ele>135</ele>
        <time>2025-03-23T11:20:16Z</time>
      </trkpt>
      <trkpt lat="43.68972" lon="1.36382">
        <ele>135</ele>
        <time>2025-03-23T11:20:17Z</time>
      </trkpt>
      <trkpt lat="43.68972" lon="1.36382">
        <ele>137</ele>
        <time>2025-03-23T11:20:18Z</time>
      </trkpt>
      <trkpt lat="43.68971" lon="1.36379">
        <ele>137</ele>
        <time>2025-03-23T11:20:19Z</time>
      </trkpt>
      <trkpt lat="43.68971" lon="1.36379">
        <ele>137</ele>
        <time>2025-03-23T11:20:20Z</time>
      </trkpt>
      <trkpt lat="43.68969" lon="1.36377">
        <ele>137</ele>
        <time>2025-03-23T11:20:21Z</time>
      </trkpt>
      <trkpt lat="43.68969" lon="1.36377">
        <ele>137</ele>
        <time>2025-03-23T11:20:22Z</time>
      </trkpt>
      <trkpt lat="43.68967" lon="1.36375">
        <ele>137</ele>
        <time>2025-03-23T11:20:23Z</time>
      </trkpt>
      <trkpt lat="43.68967" lon="1.36375">
        <ele>137</ele>
        <time>2025-03-23T11:20:24Z</time>
      </trkpt>
      <trkpt lat="43.68966" lon="1.36372">
        <ele>137</ele>
        <time>2025-03-23T11:20:25Z</time>
      </trkpt>
      <trkpt lat="43.68966" lon="1.36372">
        <ele>138</ele>
        <time>2025-03-23T11:20:26Z</time>
      </trkpt>
      <trkpt lat="43.68964" lon="1.3637">
        <ele>138</ele>
        <time>2025-03-23T11:20:27Z</time>
      </trkpt>
      <trkpt lat="43.68964" lon="1.3637">
        <ele>138</ele>
        <time>2025-03-23T11:20:28Z</time>
      </trkpt>
      <trkpt lat="43.68963" lon="1.36367">
        <ele>138</ele>
        <time>2025-03-23T11:20:29Z</time>
      </trkpt>
      <trkpt lat="43.68963" lon="1.36367">
        <ele>138</ele>
        <time>2025-03-23T11:20:30Z</time>
      </trkpt>
      <trkpt lat="43.6896" lon="1.36365">
        <ele>138</ele>
        <time>2025-03-23T11:20:31Z</time>
      </trkpt>
      <trkpt lat="43.6896" lon="1.36365">
        <ele>138</ele>
        <time>2025-03-23T11:20:32Z</time>
      </trkpt>
      <trkpt lat="43.68958" lon="1.36362">
        <ele>138</ele>
        <time>2025-03-23T11:20:33Z</time>
      </trkpt>
      <trkpt lat="43.68958" lon="1.36362">
        <ele>138</ele>
        <time>2025-03-23T11:20:34Z</time>
      </trkpt>
      <trkpt lat="43.68956" lon="1.3636">
        <ele>138</ele>
        <time>2025-03-23T11:20:35Z</time>
      </trkpt>
      <trkpt lat="43.68954" lon="1.36358">
        <ele>138</ele>
        <time>2025-03-23T11:20:37Z</time>
      </trkpt>
      <trkpt lat="43.68953" lon="1.36356">
        <ele>138</ele>
        <time>2025-03-23T11:20:38Z</time>
      </trkpt>
      <trkpt lat="43.68951" lon="1.36354">
        <ele>138</ele>
        <time>2025-03-23T11:20:39Z</time>
      </trkpt>
      <trkpt lat="43.68949" lon="1.36352">
        <ele>138</ele>
        <time>2025-03-23T11:20:40Z</time>
      </trkpt>
      <trkpt lat="43.68947" lon="1.3635">
        <ele>138</ele>
        <time>2025-03-23T11:20:41Z</time>
      </trkpt>
      <trkpt lat="43.68945" lon="1.36349">
        <ele>139</ele>
        <time>2025-03-23T11:20:42Z</time>
      </trkpt>
      <trkpt lat="43.68943" lon="1.36348">
        <ele>139</ele>
        <time>2025-03-23T11:20:43Z</time>
      </trkpt>
      <trkpt lat="43.68941" lon="1.36346">
        <ele>139</ele>
        <time>2025-03-23T11:20:44Z</time>
      </trkpt>
      <trkpt lat="43.68939" lon="1.36345">
        <ele>139</ele>
        <time>2025-03-23T11:20:45Z</time>
      </trkpt>
      <trkpt lat="43.68936" lon="1.36344">
        <ele>139</ele>
        <time>2025-03-23T11:20:46Z</time>
      </trkpt>
      <trkpt lat="43.68933" lon="1.36342">
        <ele>139</ele>
        <time>2025-03-23T11:20:47Z</time>
      </trkpt>
      <trkpt lat="43.68931" lon="1.36342">
        <ele>139</ele>
        <time>2025-03-23T11:20:48Z</time>
      </trkpt>
      <trkpt lat="43.6893" lon="1.36341">
        <ele>139</ele>
        <time>2025-03-23T11:20:49Z</time>
      </trkpt>
      <trkpt lat="43.68927" lon="1.36341">
        <ele>139</ele>
        <time>2025-03-23T11:20:50Z</time>
      </trkpt>
      <trkpt lat="43.68923" lon="1.3634">
        <ele>139</ele>
        <time>2025-03-23T11:20:51Z</time>
      </trkpt>
      <trkpt lat="43.68922" lon="1.36339">
        <ele>139</ele>
        <time>2025-03-23T11:20:52Z</time>
      </trkpt>
      <trkpt lat="43.6892" lon="1.36339">
        <ele>139</ele>
        <time>2025-03-23T11:20:53Z</time>
      </trkpt>
      <trkpt lat="43.68918" lon="1.36338">
        <ele>139</ele>
        <time>2025-03-23T11:20:54Z</time>
      </trkpt>
      <trkpt lat="43.68915" lon="1.36337">
        <ele>139</ele>
        <time>2025-03-23T11:20:55Z</time>
      </trkpt>
      <trkpt lat="43.68914" lon="1.36336">
        <ele>139</ele>
        <time>2025-03-23T11:20:56Z</time>
      </trkpt>
      <trkpt lat="43.68912" lon="1.36333">
        <ele>139</ele>
        <time>2025-03-23T11:20:57Z</time>
      </trkpt>
      <trkpt lat="43.68912" lon="1.3633">
        <ele>139</ele>
        <time>2025-03-23T11:20:58Z</time>
      </trkpt>
      <trkpt lat="43.6891" lon="1.36327">
        <ele>139</ele>
        <time>2025-03-23T11:20:59Z</time>
      </trkpt>
      <trkpt lat="43.68908" lon="1.36325">
        <ele>138</ele>
        <time>2025-03-23T11:21:00Z</time>
      </trkpt>
      <trkpt lat="43.68907" lon="1.36324">
        <ele>138</ele>
        <time>2025-03-23T11:21:01Z</time>
      </trkpt>
      <trkpt lat="43.68904" lon="1.36324">
        <ele>138</ele>
        <time>2025-03-23T11:21:02Z</time>
      </trkpt>
      <trkpt lat="43.68902" lon="1.36324">
        <ele>138</ele>
        <time>2025-03-23T11:21:03Z</time>
      </trkpt>
      <trkpt lat="43.689" lon="1.36323">
        <ele>138</ele>
        <time>2025-03-23T11:21:04Z</time>
      </trkpt>
      <trkpt lat="43.68897" lon="1.36323">
        <ele>139</ele>
        <time>2025-03-23T11:21:05Z</time>
      </trkpt>
      <trkpt lat="43.68895" lon="1.36323">
        <ele>139</ele>
        <time>2025-03-23T11:21:06Z</time>
      </trkpt>
      <trkpt lat="43.68891" lon="1.36322">
        <ele>139</ele>
        <time>2025-03-23T11:21:07Z</time>
      </trkpt>
      <trkpt lat="43.6889" lon="1.36322">
        <ele>139</ele>
        <time>2025-03-23T11:21:08Z</time>
      </trkpt>
      <trkpt lat="43.68886" lon="1.36319">
        <ele>139</ele>
        <time>2025-03-23T11:21:09Z</time>
      </trkpt>
      <trkpt lat="43.68885" lon="1.36318">
        <ele>140</ele>
        <time>2025-03-23T11:21:10Z</time>
      </trkpt>
      <trkpt lat="43.68883" lon="1.36316">
        <ele>140</ele>
        <time>2025-03-23T11:21:11Z</time>
      </trkpt>
      <trkpt lat="43.68882" lon="1.36313">
        <ele>140</ele>
        <time>2025-03-23T11:21:12Z</time>
      </trkpt>
      <trkpt lat="43.68881" lon="1.3631">
        <ele>140</ele>
        <time>2025-03-23T11:21:13Z</time>
      </trkpt>
      <trkpt lat="43.6888" lon="1.36305">
        <ele>140</ele>
        <time>2025-03-23T11:21:14Z</time>
      </trkpt>
      <trkpt lat="43.68879" lon="1.36304">
        <ele>140</ele>
        <time>2025-03-23T11:21:15Z</time>
      </trkpt>
      <trkpt lat="43.68878" lon="1.36301">
        <ele>140</ele>
        <time>2025-03-23T11:21:16Z</time>
      </trkpt>
      <trkpt lat="43.68877" lon="1.36297">
        <ele>140</ele>
        <time>2025-03-23T11:21:17Z</time>
      </trkpt>
      <trkpt lat="43.68876" lon="1.36294">
        <ele>140</ele>
        <time>2025-03-23T11:21:18Z</time>
      </trkpt>
      <trkpt lat="43.68874" lon="1.36292">
        <ele>140</ele>
        <time>2025-03-23T11:21:19Z</time>
      </trkpt>
      <trkpt lat="43.68872" lon="1.36291">
        <ele>140</ele>
        <time>2025-03-23T11:21:20Z</time>
      </trkpt>
      <trkpt lat="43.68869" lon="1.3629">
        <ele>140</ele>
        <time>2025-03-23T11:21:21Z</time>
      </trkpt>
      <trkpt lat="43.68867" lon="1.3629">
        <ele>140</ele>
        <time>2025-03-23T11:21:22Z</time>
      </trkpt>
      <trkpt lat="43.68865" lon="1.36289">
        <ele>140</ele>
        <time>2025-03-23T11:21:23Z</time>
      </trkpt>
      <trkpt lat="43.68862" lon="1.36287">
        <ele>140</ele>
        <time>2025-03-23T11:21:24Z</time>
      </trkpt>
      <trkpt lat="43.6886" lon="1.36286">
        <ele>140</ele>
        <time>2025-03-23T11:21:25Z</time>
      </trkpt>
      <trkpt lat="43.68858" lon="1.36285">
        <ele>140</ele>
        <time>2025-03-23T11:21:26Z</time>
      </trkpt>
      <trkpt lat="43.68856" lon="1.36284">
        <ele>140</ele>
        <time>2025-03-23T11:21:27Z</time>
      </trkpt>
      <trkpt lat="43.68854" lon="1.36283">
        <ele>140</ele>
        <time>2025-03-23T11:21:28Z</time>
      </trkpt>
      <trkpt lat="43.68851" lon="1.36283">
        <ele>140</ele>
        <time>2025-03-23T11:21:29Z</time>
      </trkpt>
      <trkpt lat="43.68849" lon="1.36281">
        <ele>141</ele>
        <time>2025-03-23T11:21:30Z</time>
      </trkpt>
      <trkpt lat="43.68847" lon="1.36279">
        <ele>141</ele>
        <time>2025-03-23T11:21:31Z</time>
      </trkpt>
      <trkpt lat="43.68846" lon="1.36276">
        <ele>140</ele>
        <time>2025-03-23T11:21:32Z</time>
      </trkpt>
      <trkpt lat="43.68844" lon="1.3627">
        <ele>140</ele>
        <time>2025-03-23T11:21:33Z</time>
      </trkpt>
      <trkpt lat="43.68843" lon="1.36269">
        <ele>141</ele>
        <time>2025-03-23T11:21:34Z</time>
      </trkpt>
      <trkpt lat="43.68842" lon="1.36265">
        <ele>141</ele>
        <time>2025-03-23T11:21:35Z</time>
      </trkpt>
      <trkpt lat="43.68841" lon="1.36262">
        <ele>141</ele>
        <time>2025-03-23T11:21:36Z</time>
      </trkpt>
      <trkpt lat="43.6884" lon="1.36259">
        <ele>141</ele>
        <time>2025-03-23T11:21:37Z</time>
      </trkpt>
      <trkpt lat="43.68839" lon="1.36255">
        <ele>141</ele>
        <time>2025-03-23T11:21:38Z</time>
      </trkpt>
      <trkpt lat="43.68838" lon="1.36252">
        <ele>141</ele>
        <time>2025-03-23T11:21:39Z</time>
      </trkpt>
      <trkpt lat="43.68836" lon="1.36249">
        <ele>141</ele>
        <time>2025-03-23T11:21:40Z</time>
      </trkpt>
      <trkpt lat="43.68835" lon="1.36246">
        <ele>141</ele>
        <time>2025-03-23T11:21:41Z</time>
      </trkpt>
      <trkpt lat="43.68834" lon="1.36244">
        <ele>141</ele>
        <time>2025-03-23T11:21:42Z</time>
      </trkpt>
      <trkpt lat="43.68833" lon="1.3624">
        <ele>142</ele>
        <time>2025-03-23T11:21:43Z</time>
      </trkpt>
      <trkpt lat="43.68831" lon="1.36237">
        <ele>142</ele>
        <time>2025-03-23T11:21:44Z</time>
      </trkpt>
      <trkpt lat="43.6883" lon="1.36234">
        <ele>142</ele>
        <time>2025-03-23T11:21:45Z</time>
      </trkpt>
      <trkpt lat="43.68828" lon="1.36231">
        <ele>142</ele>
        <time>2025-03-23T11:21:46Z</time>
      </trkpt>
      <trkpt lat="43.68827" lon="1.36228">
        <ele>142</ele>
        <time>2025-03-23T11:21:47Z</time>
      </trkpt>
      <trkpt lat="43.68825" lon="1.36224">
        <ele>142</ele>
        <time>2025-03-23T11:21:48Z</time>
      </trkpt>
      <trkpt lat="43.68825" lon="1.36222">
        <ele>142</ele>
        <time>2025-03-23T11:21:49Z</time>
      </trkpt>
      <trkpt lat="43.68824" lon="1.36219">
        <ele>142</ele>
        <time>2025-03-23T11:21:50Z</time>
      </trkpt>
      <trkpt lat="43.68822" lon="1.36213">
        <ele>142</ele>
        <time>2025-03-23T11:21:51Z</time>
      </trkpt>
      <trkpt lat="43.68822" lon="1.36211">
        <ele>142</ele>
        <time>2025-03-23T11:21:52Z</time>
      </trkpt>
      <trkpt lat="43.68821" lon="1.36209">
        <ele>143</ele>
        <time>2025-03-23T11:21:53Z</time>
      </trkpt>
      <trkpt lat="43.6882" lon="1.36205">
        <ele>143</ele>
        <time>2025-03-23T11:21:54Z</time>
      </trkpt>
      <trkpt lat="43.68819" lon="1.36202">
        <ele>142</ele>
        <time>2025-03-23T11:21:55Z</time>
      </trkpt>
      <trkpt lat="43.68817" lon="1.36197">
        <ele>143</ele>
        <time>2025-03-23T11:21:56Z</time>
      </trkpt>
      <trkpt lat="43.68817" lon="1.36195">
        <ele>143</ele>
        <time>2025-03-23T11:21:57Z</time>
      </trkpt>
      <trkpt lat="43.68816" lon="1.36192">
        <ele>143</ele>
        <time>2025-03-23T11:21:58Z</time>
      </trkpt>
      <trkpt lat="43.68815" lon="1.36189">
        <ele>143</ele>
        <time>2025-03-23T11:21:59Z</time>
      </trkpt>
      <trkpt lat="43.68814" lon="1.36186">
        <ele>143</ele>
        <time>2025-03-23T11:22:00Z</time>
      </trkpt>
      <trkpt lat="43.68813" lon="1.36182">
        <ele>143</ele>
        <time>2025-03-23T11:22:01Z</time>
      </trkpt>
      <trkpt lat="43.68812" lon="1.36179">
        <ele>143</ele>
        <time>2025-03-23T11:22:02Z</time>
      </trkpt>
      <trkpt lat="43.68811" lon="1.36176">
        <ele>143</ele>
        <time>2025-03-23T11:22:03Z</time>
      </trkpt>
      <trkpt lat="43.6881" lon="1.36174">
        <ele>143</ele>
        <time>2025-03-23T11:22:04Z</time>
      </trkpt>
      <trkpt lat="43.68808" lon="1.36171">
        <ele>143</ele>
        <time>2025-03-23T11:22:05Z</time>
      </trkpt>
      <trkpt lat="43.68807" lon="1.36169">
        <ele>144</ele>
        <time>2025-03-23T11:22:06Z</time>
      </trkpt>
      <trkpt lat="43.68806" lon="1.36166">
        <ele>144</ele>
        <time>2025-03-23T11:22:07Z</time>
      </trkpt>
      <trkpt lat="43.68806" lon="1.36164">
        <ele>144</ele>
        <time>2025-03-23T11:22:08Z</time>
      </trkpt>
      <trkpt lat="43.68804" lon="1.36165">
        <ele>144</ele>
        <time>2025-03-23T11:22:10Z</time>
      </trkpt>
      <trkpt lat="43.68803" lon="1.36166">
        <ele>144</ele>
        <time>2025-03-23T11:22:12Z</time>
      </trkpt>
      <trkpt lat="43.68802" lon="1.36167">
        <ele>144</ele>
        <time>2025-03-23T11:22:13Z</time>
      </trkpt>
      <trkpt lat="43.688" lon="1.36169">
        <ele>144</ele>
        <time>2025-03-23T11:22:14Z</time>
      </trkpt>
      <trkpt lat="43.68798" lon="1.36171">
        <ele>144</ele>
        <time>2025-03-23T11:22:15Z</time>
      </trkpt>
      <trkpt lat="43.68797" lon="1.36173">
        <ele>144</ele>
        <time>2025-03-23T11:22:16Z</time>
      </trkpt>
      <trkpt lat="43.68794" lon="1.36175">
        <ele>144</ele>
        <time>2025-03-23T11:22:17Z</time>
      </trkpt>
      <trkpt lat="43.68792" lon="1.36176">
        <ele>144</ele>
        <time>2025-03-23T11:22:18Z</time>
      </trkpt>
      <trkpt lat="43.6879" lon="1.36178">
        <ele>143</ele>
        <time>2025-03-23T11:22:19Z</time>
      </trkpt>
      <trkpt lat="43.68788" lon="1.3618">
        <ele>143</ele>
        <time>2025-03-23T11:22:20Z</time>
      </trkpt>
      <trkpt lat="43.68786" lon="1.36182">
        <ele>143</ele>
        <time>2025-03-23T11:22:21Z</time>
      </trkpt>
      <trkpt lat="43.68784" lon="1.36184">
        <ele>143</ele>
        <time>2025-03-23T11:22:22Z</time>
      </trkpt>
      <trkpt lat="43.68782" lon="1.36185">
        <ele>143</ele>
        <time>2025-03-23T11:22:23Z</time>
      </trkpt>
      <trkpt lat="43.68779" lon="1.36186">
        <ele>143</ele>
        <time>2025-03-23T11:22:24Z</time>
      </trkpt>
      <trkpt lat="43.68776" lon="1.36186">
        <ele>143</ele>
        <time>2025-03-23T11:22:25Z</time>
      </trkpt>
      <trkpt lat="43.68773" lon="1.36186">
        <ele>143</ele>
        <time>2025-03-23T11:22:26Z</time>
      </trkpt>
      <trkpt lat="43.68771" lon="1.36187">
        <ele>143</ele>
        <time>2025-03-23T11:22:27Z</time>
      </trkpt>
      <trkpt lat="43.68769" lon="1.36188">
        <ele>143</ele>
        <time>2025-03-23T11:22:28Z</time>
      </trkpt>
      <trkpt lat="43.68766" lon="1.36189">
        <ele>143</ele>
        <time>2025-03-23T11:22:29Z</time>
      </trkpt>
      <trkpt lat="43.68764" lon="1.36191">
        <ele>143</ele>
        <time>2025-03-23T11:22:30Z</time>
      </trkpt>
      <trkpt lat="43.68762" lon="1.36193">
        <ele>143</ele>
        <time>2025-03-23T11:22:31Z</time>
      </trkpt>
      <trkpt lat="43.68761" lon="1.36194">
        <ele>143</ele>
        <time>2025-03-23T11:22:32Z</time>
      </trkpt>
      <trkpt lat="43.68759" lon="1.36196">
        <ele>143</ele>
        <time>2025-03-23T11:22:33Z</time>
      </trkpt>
      <trkpt lat="43.68756" lon="1.362">
        <ele>142</ele>
        <time>2025-03-23T11:22:34Z</time>
      </trkpt>
      <trkpt lat="43.68755" lon="1.36201">
        <ele>142</ele>
        <time>2025-03-23T11:22:35Z</time>
      </trkpt>
      <trkpt lat="43.68753" lon="1.36203">
        <ele>142</ele>
        <time>2025-03-23T11:22:36Z</time>
      </trkpt>
      <trkpt lat="43.68751" lon="1.36205">
        <ele>142</ele>
        <time>2025-03-23T11:22:37Z</time>
      </trkpt>
      <trkpt lat="43.68748" lon="1.36207">
        <ele>142</ele>
        <time>2025-03-23T11:22:38Z</time>
      </trkpt>
      <trkpt lat="43.68746" lon="1.36209">
        <ele>142</ele>
        <time>2025-03-23T11:22:39Z</time>
      </trkpt>
      <trkpt lat="43.68744" lon="1.36211">
        <ele>142</ele>
        <time>2025-03-23T11:22:40Z</time>
      </trkpt>
      <trkpt lat="43.68742" lon="1.36213">
        <ele>142</ele>
        <time>2025-03-23T11:22:41Z</time>
      </trkpt>
      <trkpt lat="43.6874" lon="1.36215">
        <ele>142</ele>
        <time>2025-03-23T11:22:42Z</time>
      </trkpt>
      <trkpt lat="43.68738" lon="1.36217">
        <ele>142</ele>
        <time>2025-03-23T11:22:43Z</time>
      </trkpt>
      <trkpt lat="43.68736" lon="1.36219">
        <ele>142</ele>
        <time>2025-03-23T11:22:44Z</time>
      </trkpt>
      <trkpt lat="43.68734" lon="1.36221">
        <ele>142</ele>
        <time>2025-03-23T11:22:45Z</time>
      </trkpt>
      <trkpt lat="43.68732" lon="1.36223">
        <ele>142</ele>
        <time>2025-03-23T11:22:46Z</time>
      </trkpt>
      <trkpt lat="43.6873" lon="1.36225">
        <ele>142</ele>
        <time>2025-03-23T11:22:47Z</time>
      </trkpt>
      <trkpt lat="43.68726" lon="1.36229">
        <ele>142</ele>
        <time>2025-03-23T11:22:48Z</time>
      </trkpt>
      <trkpt lat="43.68724" lon="1.3623">
        <ele>142</ele>
        <time>2025-03-23T11:22:49Z</time>
      </trkpt>
      <trkpt lat="43.68723" lon="1.36231">
        <ele>142</ele>
        <time>2025-03-23T11:22:50Z</time>
      </trkpt>
      <trkpt lat="43.6872" lon="1.36234">
        <ele>142</ele>
        <time>2025-03-23T11:22:51Z</time>
      </trkpt>
      <trkpt lat="43.68718" lon="1.36235">
        <ele>142</ele>
        <time>2025-03-23T11:22:52Z</time>
      </trkpt>
      <trkpt lat="43.68716" lon="1.36236">
        <ele>142</ele>
        <time>2025-03-23T11:22:53Z</time>
      </trkpt>
      <trkpt lat="43.68712" lon="1.36239">
        <ele>142</ele>
        <time>2025-03-23T11:22:54Z</time>
      </trkpt>
      <trkpt lat="43.68711" lon="1.36239">
        <ele>142</ele>
        <time>2025-03-23T11:22:55Z</time>
      </trkpt>
      <trkpt lat="43.68709" lon="1.36241">
        <ele>142</ele>
        <time>2025-03-23T11:22:56Z</time>
      </trkpt>
      <trkpt lat="43.68706" lon="1.36243">
        <ele>142</ele>
        <time>2025-03-23T11:22:57Z</time>
      </trkpt>
      <trkpt lat="43.68704" lon="1.36244">
        <ele>142</ele>
        <time>2025-03-23T11:22:58Z</time>
      </trkpt>
      <trkpt lat="43.68701" lon="1.36245">
        <ele>142</ele>
        <time>2025-03-23T11:22:59Z</time>
      </trkpt>
      <trkpt lat="43.68699" lon="1.36247">
        <ele>142</ele>
        <time>2025-03-23T11:23:00Z</time>
      </trkpt>
      <trkpt lat="43.68695" lon="1.36249">
        <ele>142</ele>
        <time>2025-03-23T11:23:01Z</time>
      </trkpt>
      <trkpt lat="43.68694" lon="1.36249">
        <ele>142</ele>
        <time>2025-03-23T11:23:02Z</time>
      </trkpt>
      <trkpt lat="43.68691" lon="1.3625">
        <ele>142</ele>
        <time>2025-03-23T11:23:03Z</time>
      </trkpt>
      <trkpt lat="43.68689" lon="1.36252">
        <ele>142</ele>
        <time>2025-03-23T11:23:04Z</time>
      </trkpt>
      <trkpt lat="43.68686" lon="1.36253">
        <ele>142</ele>
        <time>2025-03-23T11:23:05Z</time>
      </trkpt>
      <trkpt lat="43.68683" lon="1.36254">
        <ele>142</ele>
        <time>2025-03-23T11:23:06Z</time>
      </trkpt>
      <trkpt lat="43.68681" lon="1.36255">
        <ele>142</ele>
        <time>2025-03-23T11:23:07Z</time>
      </trkpt>
      <trkpt lat="43.68676" lon="1.36257">
        <ele>142</ele>
        <time>2025-03-23T11:23:09Z</time>
      </trkpt>
      <trkpt lat="43.68672" lon="1.36257">
        <ele>142</ele>
        <time>2025-03-23T11:23:10Z</time>
      </trkpt>
      <trkpt lat="43.6867" lon="1.36257">
        <ele>142</ele>
        <time>2025-03-23T11:23:11Z</time>
      </trkpt>
      <trkpt lat="43.68669" lon="1.36257">
        <ele>142</ele>
        <time>2025-03-23T11:23:12Z</time>
      </trkpt>
      <trkpt lat="43.68666" lon="1.36257">
        <ele>142</ele>
        <time>2025-03-23T11:23:13Z</time>
      </trkpt>
      <trkpt lat="43.68663" lon="1.36254">
        <ele>142</ele>
        <time>2025-03-23T11:23:14Z</time>
      </trkpt>
      <trkpt lat="43.68661" lon="1.36254">
        <ele>142</ele>
        <time>2025-03-23T11:23:15Z</time>
      </trkpt>
      <trkpt lat="43.68659" lon="1.36252">
        <ele>142</ele>
        <time>2025-03-23T11:23:16Z</time>
      </trkpt>
      <trkpt lat="43.68656" lon="1.3625">
        <ele>142</ele>
        <time>2025-03-23T11:23:17Z</time>
      </trkpt>
      <trkpt lat="43.68653" lon="1.36246">
        <ele>142</ele>
        <time>2025-03-23T11:23:18Z</time>
      </trkpt>
      <trkpt lat="43.68651" lon="1.36244">
        <ele>142</ele>
        <time>2025-03-23T11:23:19Z</time>
      </trkpt>
      <trkpt lat="43.68649" lon="1.36241">
        <ele>142</ele>
        <time>2025-03-23T11:23:20Z</time>
      </trkpt>
      <trkpt lat="43.68647" lon="1.36236">
        <ele>142</ele>
        <time>2025-03-23T11:23:21Z</time>
      </trkpt>
      <trkpt lat="43.68647" lon="1.36235">
        <ele>142</ele>
        <time>2025-03-23T11:23:22Z</time>
      </trkpt>
      <trkpt lat="43.68645" lon="1.36231">
        <ele>142</ele>
        <time>2025-03-23T11:23:23Z</time>
      </trkpt>
      <trkpt lat="43.68644" lon="1.36228">
        <ele>142</ele>
        <time>2025-03-23T11:23:24Z</time>
      </trkpt>
      <trkpt lat="43.68643" lon="1.36225">
        <ele>143</ele>
        <time>2025-03-23T11:23:25Z</time>
      </trkpt>
      <trkpt lat="43.68642" lon="1.36221">
        <ele>143</ele>
        <time>2025-03-23T11:23:26Z</time>
      </trkpt>
      <trkpt lat="43.68641" lon="1.36218">
        <ele>143</ele>
        <time>2025-03-23T11:23:27Z</time>
      </trkpt>
      <trkpt lat="43.6864" lon="1.36214">
        <ele>142</ele>
        <time>2025-03-23T11:23:28Z</time>
      </trkpt>
      <trkpt lat="43.68639" lon="1.36211">
        <ele>142</ele>
        <time>2025-03-23T11:23:29Z</time>
      </trkpt>
      <trkpt lat="43.68638" lon="1.36207">
        <ele>142</ele>
        <time>2025-03-23T11:23:30Z</time>
      </trkpt>
      <trkpt lat="43.68636" lon="1.36202">
        <ele>142</ele>
        <time>2025-03-23T11:23:31Z</time>
      </trkpt>
      <trkpt lat="43.68636" lon="1.362">
        <ele>142</ele>
        <time>2025-03-23T11:23:32Z</time>
      </trkpt>
      <trkpt lat="43.68635" lon="1.36196">
        <ele>142</ele>
        <time>2025-03-23T11:23:33Z</time>
      </trkpt>
      <trkpt lat="43.68633" lon="1.36193">
        <ele>142</ele>
        <time>2025-03-23T11:23:34Z</time>
      </trkpt>
      <trkpt lat="43.68632" lon="1.36189">
        <ele>142</ele>
        <time>2025-03-23T11:23:35Z</time>
      </trkpt>
      <trkpt lat="43.6863" lon="1.36186">
        <ele>142</ele>
        <time>2025-03-23T11:23:36Z</time>
      </trkpt>
      <trkpt lat="43.68628" lon="1.36183">
        <ele>142</ele>
        <time>2025-03-23T11:23:37Z</time>
      </trkpt>
      <trkpt lat="43.68625" lon="1.36181">
        <ele>142</ele>
        <time>2025-03-23T11:23:38Z</time>
      </trkpt>
      <trkpt lat="43.68623" lon="1.36178">
        <ele>142</ele>
        <time>2025-03-23T11:23:39Z</time>
      </trkpt>
      <trkpt lat="43.6862" lon="1.36177">
        <ele>142</ele>
        <time>2025-03-23T11:23:40Z</time>
      </trkpt>
      <trkpt lat="43.68618" lon="1.36175">
        <ele>142</ele>
        <time>2025-03-23T11:23:41Z</time>
      </trkpt>
      <trkpt lat="43.68616" lon="1.36173">
        <ele>142</ele>
        <time>2025-03-23T11:23:42Z</time>
      </trkpt>
      <trkpt lat="43.68613" lon="1.36171">
        <ele>142</ele>
        <time>2025-03-23T11:23:43Z</time>
      </trkpt>
      <trkpt lat="43.68611" lon="1.36169">
        <ele>142</ele>
        <time>2025-03-23T11:23:44Z</time>
      </trkpt>
      <trkpt lat="43.68607" lon="1.36167">
        <ele>142</ele>
        <time>2025-03-23T11:23:45Z</time>
      </trkpt>
      <trkpt lat="43.68605" lon="1.36166">
        <ele>142</ele>
        <time>2025-03-23T11:23:46Z</time>
      </trkpt>
      <trkpt lat="43.68604" lon="1.36165">
        <ele>142</ele>
        <time>2025-03-23T11:23:47Z</time>
      </trkpt>
      <trkpt lat="43.68602" lon="1.36163">
        <ele>142</ele>
        <time>2025-03-23T11:23:48Z</time>
      </trkpt>
      <trkpt lat="43.686" lon="1.36161">
        <ele>142</ele>
        <time>2025-03-23T11:23:49Z</time>
      </trkpt>
      <trkpt lat="43.68599" lon="1.36157">
        <ele>142</ele>
        <time>2025-03-23T11:23:50Z</time>
      </trkpt>
      <trkpt lat="43.68598" lon="1.36154">
        <ele>142</ele>
        <time>2025-03-23T11:23:51Z</time>
      </trkpt>
      <trkpt lat="43.68597" lon="1.3615">
        <ele>142</ele>
        <time>2025-03-23T11:23:52Z</time>
      </trkpt>
      <trkpt lat="43.68596" lon="1.36147">
        <ele>142</ele>
        <time>2025-03-23T11:23:53Z</time>
      </trkpt>
      <trkpt lat="43.68595" lon="1.36143">
        <ele>142</ele>
        <time>2025-03-23T11:23:54Z</time>
      </trkpt>
      <trkpt lat="43.68595" lon="1.36139">
        <ele>142</ele>
        <time>2025-03-23T11:23:55Z</time>
      </trkpt>
      <trkpt lat="43.68594" lon="1.36136">
        <ele>142</ele>
        <time>2025-03-23T11:23:56Z</time>
      </trkpt>
      <trkpt lat="43.68593" lon="1.36132">
        <ele>142</ele>
        <time>2025-03-23T11:23:57Z</time>
      </trkpt>
      <trkpt lat="43.68592" lon="1.36129">
        <ele>142</ele>
        <time>2025-03-23T11:23:58Z</time>
      </trkpt>
      <trkpt lat="43.68592" lon="1.36125">
        <ele>142</ele>
        <time>2025-03-23T11:23:59Z</time>
      </trkpt>
      <trkpt lat="43.68591" lon="1.36122">
        <ele>142</ele>
        <time>2025-03-23T11:24:00Z</time>
      </trkpt>
      <trkpt lat="43.68589" lon="1.36118">
        <ele>142</ele>
        <time>2025-03-23T11:24:01Z</time>
      </trkpt>
      <trkpt lat="43.68588" lon="1.36115">
        <ele>142</ele>
        <time>2025-03-23T11:24:02Z</time>
      </trkpt>
      <trkpt lat="43.68587" lon="1.36111">
        <ele>142</ele>
        <time>2025-03-23T11:24:03Z</time>
      </trkpt>
      <trkpt lat="43.68586" lon="1.36108">
        <ele>142</ele>
        <time>2025-03-23T11:24:04Z</time>
      </trkpt>
      <trkpt lat="43.68585" lon="1.36104">
        <ele>142</ele>
        <time>2025-03-23T11:24:05Z</time>
      </trkpt>
      <trkpt lat="43.68584" lon="1.36101">
        <ele>142</ele>
        <time>2025-03-23T11:24:06Z</time>
      </trkpt>
      <trkpt lat="43.68582" lon="1.36097">
        <ele>142</ele>
        <time>2025-03-23T11:24:07Z</time>
      </trkpt>
      <trkpt lat="43.68581" lon="1.36094">
        <ele>142</ele>
        <time>2025-03-23T11:24:08Z</time>
      </trkpt>
      <trkpt lat="43.68578" lon="1.36091">
        <ele>142</ele>
        <time>2025-03-23T11:24:09Z</time>
      </trkpt>
      <trkpt lat="43.68577" lon="1.3609">
        <ele>142</ele>
        <time>2025-03-23T11:24:10Z</time>
      </trkpt>
      <trkpt lat="43.68575" lon="1.36089">
        <ele>142</ele>
        <time>2025-03-23T11:24:11Z</time>
      </trkpt>
      <trkpt lat="43.68573" lon="1.36087">
        <ele>142</ele>
        <time>2025-03-23T11:24:12Z</time>
      </trkpt>
      <trkpt lat="43.68571" lon="1.36086">
        <ele>142</ele>
        <time>2025-03-23T11:24:13Z</time>
      </trkpt>
      <trkpt lat="43.68568" lon="1.36085">
        <ele>142</ele>
        <time>2025-03-23T11:24:14Z</time>
      </trkpt>
      <trkpt lat="43.68566" lon="1.36084">
        <ele>142</ele>
        <time>2025-03-23T11:24:15Z</time>
      </trkpt>
      <trkpt lat="43.68562" lon="1.36083">
        <ele>142</ele>
        <time>2025-03-23T11:24:16Z</time>
      </trkpt>
      <trkpt lat="43.68561" lon="1.36082">
        <ele>142</ele>
        <time>2025-03-23T11:24:17Z</time>
      </trkpt>
      <trkpt lat="43.68559" lon="1.36082">
        <ele>143</ele>
        <time>2025-03-23T11:24:18Z</time>
      </trkpt>
      <trkpt lat="43.68556" lon="1.36082">
        <ele>143</ele>
        <time>2025-03-23T11:24:19Z</time>
      </trkpt>
      <trkpt lat="43.68554" lon="1.36082">
        <ele>143</ele>
        <time>2025-03-23T11:24:20Z</time>
      </trkpt>
      <trkpt lat="43.68551" lon="1.36083">
        <ele>143</ele>
        <time>2025-03-23T11:24:21Z</time>
      </trkpt>
      <trkpt lat="43.68549" lon="1.36084">
        <ele>143</ele>
        <time>2025-03-23T11:24:22Z</time>
      </trkpt>
      <trkpt lat="43.68547" lon="1.36085">
        <ele>143</ele>
        <time>2025-03-23T11:24:23Z</time>
      </trkpt>
      <trkpt lat="43.68543" lon="1.36086">
        <ele>143</ele>
        <time>2025-03-23T11:24:24Z</time>
      </trkpt>
      <trkpt lat="43.68541" lon="1.36087">
        <ele>143</ele>
        <time>2025-03-23T11:24:25Z</time>
      </trkpt>
      <trkpt lat="43.68538" lon="1.36088">
        <ele>143</ele>
        <time>2025-03-23T11:24:26Z</time>
      </trkpt>
      <trkpt lat="43.68537" lon="1.36088">
        <ele>143</ele>
        <time>2025-03-23T11:24:27Z</time>
      </trkpt>
      <trkpt lat="43.68534" lon="1.36089">
        <ele>143</ele>
        <time>2025-03-23T11:24:28Z</time>
      </trkpt>
      <trkpt lat="43.68532" lon="1.3609">
        <ele>143</ele>
        <time>2025-03-23T11:24:29Z</time>
      </trkpt>
      <trkpt lat="43.68529" lon="1.36091">
        <ele>143</ele>
        <time>2025-03-23T11:24:30Z</time>
      </trkpt>
      <trkpt lat="43.68527" lon="1.36092">
        <ele>143</ele>
        <time>2025-03-23T11:24:31Z</time>
      </trkpt>
      <trkpt lat="43.68525" lon="1.36093">
        <ele>143</ele>
        <time>2025-03-23T11:24:32Z</time>
      </trkpt>
      <trkpt lat="43.68521" lon="1.36095">
        <ele>142</ele>
        <time>2025-03-23T11:24:33Z</time>
      </trkpt>
      <trkpt lat="43.68519" lon="1.36096">
        <ele>142</ele>
        <time>2025-03-23T11:24:34Z</time>
      </trkpt>
      <trkpt lat="43.68517" lon="1.36096">
        <ele>142</ele>
        <time>2025-03-23T11:24:35Z</time>
      </trkpt>
      <trkpt lat="43.68515" lon="1.36097">
        <ele>142</ele>
        <time>2025-03-23T11:24:36Z</time>
      </trkpt>
      <trkpt lat="43.68511" lon="1.36098">
        <ele>142</ele>
        <time>2025-03-23T11:24:37Z</time>
      </trkpt>
      <trkpt lat="43.6851" lon="1.36098">
        <ele>142</ele>
        <time>2025-03-23T11:24:38Z</time>
      </trkpt>
      <trkpt lat="43.68507" lon="1.36099">
        <ele>142</ele>
        <time>2025-03-23T11:24:39Z</time>
      </trkpt>
      <trkpt lat="43.68504" lon="1.361">
        <ele>142</ele>
        <time>2025-03-23T11:24:40Z</time>
      </trkpt>
      <trkpt lat="43.68503" lon="1.361">
        <ele>142</ele>
        <time>2025-03-23T11:24:41Z</time>
      </trkpt>
      <trkpt lat="43.68501" lon="1.36101">
        <ele>142</ele>
        <time>2025-03-23T11:24:42Z</time>
      </trkpt>
      <trkpt lat="43.68499" lon="1.36102">
        <ele>142</ele>
        <time>2025-03-23T11:24:43Z</time>
      </trkpt>
      <trkpt lat="43.68496" lon="1.36103">
        <ele>142</ele>
        <time>2025-03-23T11:24:44Z</time>
      </trkpt>
      <trkpt lat="43.68494" lon="1.36104">
        <ele>142</ele>
        <time>2025-03-23T11:24:45Z</time>
      </trkpt>
      <trkpt lat="43.68492" lon="1.36105">
        <ele>143</ele>
        <time>2025-03-23T11:24:46Z</time>
      </trkpt>
      <trkpt lat="43.68488" lon="1.36107">
        <ele>143</ele>
        <time>2025-03-23T11:24:47Z</time>
      </trkpt>
      <trkpt lat="43.68486" lon="1.36108">
        <ele>143</ele>
        <time>2025-03-23T11:24:48Z</time>
      </trkpt>
      <trkpt lat="43.68484" lon="1.36108">
        <ele>143</ele>
        <time>2025-03-23T11:24:49Z</time>
      </trkpt>
      <trkpt lat="43.68482" lon="1.36109">
        <ele>143</ele>
        <time>2025-03-23T11:24:50Z</time>
      </trkpt>
      <trkpt lat="43.68479" lon="1.3611">
        <ele>143</ele>
        <time>2025-03-23T11:24:51Z</time>
      </trkpt>
      <trkpt lat="43.68476" lon="1.36111">
        <ele>143</ele>
        <time>2025-03-23T11:24:52Z</time>
      </trkpt>
      <trkpt lat="43.68473" lon="1.36112">
        <ele>143</ele>
        <time>2025-03-23T11:24:53Z</time>
      </trkpt>
      <trkpt lat="43.6847" lon="1.36113">
        <ele>143</ele>
        <time>2025-03-23T11:24:54Z</time>
      </trkpt>
      <trkpt lat="43.68468" lon="1.36115">
        <ele>142</ele>
        <time>2025-03-23T11:24:55Z</time>
      </trkpt>
      <trkpt lat="43.68466" lon="1.36116">
        <ele>142</ele>
        <time>2025-03-23T11:24:56Z</time>
      </trkpt>
      <trkpt lat="43.68463" lon="1.36116">
        <ele>142</ele>
        <time>2025-03-23T11:24:57Z</time>
      </trkpt>
      <trkpt lat="43.6846" lon="1.36117">
        <ele>142</ele>
        <time>2025-03-23T11:24:58Z</time>
      </trkpt>
      <trkpt lat="43.68458" lon="1.36119">
        <ele>142</ele>
        <time>2025-03-23T11:24:59Z</time>
      </trkpt>
      <trkpt lat="43.68455" lon="1.3612">
        <ele>142</ele>
        <time>2025-03-23T11:25:00Z</time>
      </trkpt>
      <trkpt lat="43.68451" lon="1.36121">
        <ele>143</ele>
        <time>2025-03-23T11:25:01Z</time>
      </trkpt>
      <trkpt lat="43.6845" lon="1.36122">
        <ele>143</ele>
        <time>2025-03-23T11:25:02Z</time>
      </trkpt>
      <trkpt lat="43.68448" lon="1.36123">
        <ele>143</ele>
        <time>2025-03-23T11:25:03Z</time>
      </trkpt>
      <trkpt lat="43.68445" lon="1.36124">
        <ele>143</ele>
        <time>2025-03-23T11:25:04Z</time>
      </trkpt>
      <trkpt lat="43.68443" lon="1.36125">
        <ele>143</ele>
        <time>2025-03-23T11:25:05Z</time>
      </trkpt>
      <trkpt lat="43.68441" lon="1.36126">
        <ele>143</ele>
        <time>2025-03-23T11:25:06Z</time>
      </trkpt>
      <trkpt lat="43.68438" lon="1.36128">
        <ele>142</ele>
        <time>2025-03-23T11:25:07Z</time>
      </trkpt>
      <trkpt lat="43.68436" lon="1.36129">
        <ele>143</ele>
        <time>2025-03-23T11:25:08Z</time>
      </trkpt>
      <trkpt lat="43.68433" lon="1.3613">
        <ele>143</ele>
        <time>2025-03-23T11:25:09Z</time>
      </trkpt>
      <trkpt lat="43.68431" lon="1.36131">
        <ele>143</ele>
        <time>2025-03-23T11:25:10Z</time>
      </trkpt>
      <trkpt lat="43.68428" lon="1.36132">
        <ele>143</ele>
        <time>2025-03-23T11:25:11Z</time>
      </trkpt>
      <trkpt lat="43.68425" lon="1.36133">
        <ele>143</ele>
        <time>2025-03-23T11:25:12Z</time>
      </trkpt>
      <trkpt lat="43.68422" lon="1.36134">
        <ele>143</ele>
        <time>2025-03-23T11:25:13Z</time>
      </trkpt>
      <trkpt lat="43.6842" lon="1.36136">
        <ele>143</ele>
        <time>2025-03-23T11:25:14Z</time>
      </trkpt>
      <trkpt lat="43.68417" lon="1.36136">
        <ele>143</ele>
        <time>2025-03-23T11:25:15Z</time>
      </trkpt>
      <trkpt lat="43.68415" lon="1.36137">
        <ele>143</ele>
        <time>2025-03-23T11:25:16Z</time>
      </trkpt>
      <trkpt lat="43.68412" lon="1.36139">
        <ele>144</ele>
        <time>2025-03-23T11:25:17Z</time>
      </trkpt>
      <trkpt lat="43.6841" lon="1.3614">
        <ele>144</ele>
        <time>2025-03-23T11:25:18Z</time>
      </trkpt>
      <trkpt lat="43.68408" lon="1.3614">
        <ele>144</ele>
        <time>2025-03-23T11:25:19Z</time>
      </trkpt>
      <trkpt lat="43.68405" lon="1.36142">
        <ele>144</ele>
        <time>2025-03-23T11:25:20Z</time>
      </trkpt>
      <trkpt lat="43.68403" lon="1.36143">
        <ele>144</ele>
        <time>2025-03-23T11:25:21Z</time>
      </trkpt>
      <trkpt lat="43.684" lon="1.36145">
        <ele>145</ele>
        <time>2025-03-23T11:25:22Z</time>
      </trkpt>
      <trkpt lat="43.68397" lon="1.36146">
        <ele>145</ele>
        <time>2025-03-23T11:25:23Z</time>
      </trkpt>
      <trkpt lat="43.68395" lon="1.36147">
        <ele>145</ele>
        <time>2025-03-23T11:25:24Z</time>
      </trkpt>
      <trkpt lat="43.68392" lon="1.36148">
        <ele>145</ele>
        <time>2025-03-23T11:25:25Z</time>
      </trkpt>
      <trkpt lat="43.6839" lon="1.3615">
        <ele>145</ele>
        <time>2025-03-23T11:25:26Z</time>
      </trkpt>
      <trkpt lat="43.68387" lon="1.36151">
        <ele>144</ele>
        <time>2025-03-23T11:25:27Z</time>
      </trkpt>
      <trkpt lat="43.68385" lon="1.36152">
        <ele>144</ele>
        <time>2025-03-23T11:25:28Z</time>
      </trkpt>
      <trkpt lat="43.68382" lon="1.36153">
        <ele>144</ele>
        <time>2025-03-23T11:25:29Z</time>
      </trkpt>
      <trkpt lat="43.68379" lon="1.36154">
        <ele>144</ele>
        <time>2025-03-23T11:25:30Z</time>
      </trkpt>
      <trkpt lat="43.68377" lon="1.36155">
        <ele>144</ele>
        <time>2025-03-23T11:25:31Z</time>
      </trkpt>
      <trkpt lat="43.68373" lon="1.36157">
        <ele>144</ele>
        <time>2025-03-23T11:25:32Z</time>
      </trkpt>
      <trkpt lat="43.68371" lon="1.36158">
        <ele>144</ele>
        <time>2025-03-23T11:25:33Z</time>
      </trkpt>
      <trkpt lat="43.68369" lon="1.36159">
        <ele>144</ele>
        <time>2025-03-23T11:25:34Z</time>
      </trkpt>
      <trkpt lat="43.68366" lon="1.3616">
        <ele>144</ele>
        <time>2025-03-23T11:25:35Z</time>
      </trkpt>
      <trkpt lat="43.68364" lon="1.36161">
        <ele>144</ele>
        <time>2025-03-23T11:25:36Z</time>
      </trkpt>
      <trkpt lat="43.68362" lon="1.36162">
        <ele>144</ele>
        <time>2025-03-23T11:25:37Z</time>
      </trkpt>
      <trkpt lat="43.68359" lon="1.36164">
        <ele>144</ele>
        <time>2025-03-23T11:25:38Z</time>
      </trkpt>
      <trkpt lat="43.68355" lon="1.36166">
        <ele>144</ele>
        <time>2025-03-23T11:25:39Z</time>
      </trkpt>
      <trkpt lat="43.68354" lon="1.36167">
        <ele>144</ele>
        <time>2025-03-23T11:25:40Z</time>
      </trkpt>
      <trkpt lat="43.68352" lon="1.36168">
        <ele>144</ele>
        <time>2025-03-23T11:25:41Z</time>
      </trkpt>
      <trkpt lat="43.68349" lon="1.36169">
        <ele>144</ele>
        <time>2025-03-23T11:25:42Z</time>
      </trkpt>
      <trkpt lat="43.68347" lon="1.36169">
        <ele>144</ele>
        <time>2025-03-23T11:25:43Z</time>
      </trkpt>
      <trkpt lat="43.68344" lon="1.36171">
        <ele>144</ele>
        <time>2025-03-23T11:25:44Z</time>
      </trkpt>
      <trkpt lat="43.68342" lon="1.36171">
        <ele>143</ele>
        <time>2025-03-23T11:25:45Z</time>
      </trkpt>
      <trkpt lat="43.6834" lon="1.36173">
        <ele>143</ele>
        <time>2025-03-23T11:25:46Z</time>
      </trkpt>
      <trkpt lat="43.68336" lon="1.36175">
        <ele>143</ele>
        <time>2025-03-23T11:25:47Z</time>
      </trkpt>
      <trkpt lat="43.68335" lon="1.36175">
        <ele>143</ele>
        <time>2025-03-23T11:25:48Z</time>
      </trkpt>
      <trkpt lat="43.68332" lon="1.36176">
        <ele>143</ele>
        <time>2025-03-23T11:25:49Z</time>
      </trkpt>
      <trkpt lat="43.6833" lon="1.36178">
        <ele>143</ele>
        <time>2025-03-23T11:25:50Z</time>
      </trkpt>
      <trkpt lat="43.68327" lon="1.36179">
        <ele>144</ele>
        <time>2025-03-23T11:25:51Z</time>
      </trkpt>
      <trkpt lat="43.68324" lon="1.3618">
        <ele>144</ele>
        <time>2025-03-23T11:25:52Z</time>
      </trkpt>
      <trkpt lat="43.68322" lon="1.36181">
        <ele>143</ele>
        <time>2025-03-23T11:25:53Z</time>
      </trkpt>
      <trkpt lat="43.68318" lon="1.36183">
        <ele>143</ele>
        <time>2025-03-23T11:25:54Z</time>
      </trkpt>
      <trkpt lat="43.68317" lon="1.36184">
        <ele>143</ele>
        <time>2025-03-23T11:25:55Z</time>
      </trkpt>
      <trkpt lat="43.68314" lon="1.36185">
        <ele>144</ele>
        <time>2025-03-23T11:25:56Z</time>
      </trkpt>
      <trkpt lat="43.68311" lon="1.36186">
        <ele>144</ele>
        <time>2025-03-23T11:25:57Z</time>
      </trkpt>
      <trkpt lat="43.68309" lon="1.36187">
        <ele>144</ele>
        <time>2025-03-23T11:25:58Z</time>
      </trkpt>
      <trkpt lat="43.68305" lon="1.36188">
        <ele>144</ele>
        <time>2025-03-23T11:25:59Z</time>
      </trkpt>
      <trkpt lat="43.68304" lon="1.36189">
        <ele>144</ele>
        <time>2025-03-23T11:26:00Z</time>
      </trkpt>
      <trkpt lat="43.68301" lon="1.3619">
        <ele>144</ele>
        <time>2025-03-23T11:26:01Z</time>
      </trkpt>
      <trkpt lat="43.68298" lon="1.36191">
        <ele>144</ele>
        <time>2025-03-23T11:26:02Z</time>
      </trkpt>
      <trkpt lat="43.68296" lon="1.36193">
        <ele>144</ele>
        <time>2025-03-23T11:26:03Z</time>
      </trkpt>
      <trkpt lat="43.68293" lon="1.36194">
        <ele>144</ele>
        <time>2025-03-23T11:26:04Z</time>
      </trkpt>
      <trkpt lat="43.68291" lon="1.36195">
        <ele>144</ele>
        <time>2025-03-23T11:26:05Z</time>
      </trkpt>
      <trkpt lat="43.68287" lon="1.36198">
        <ele>144</ele>
        <time>2025-03-23T11:26:06Z</time>
      </trkpt>
      <trkpt lat="43.68285" lon="1.36198">
        <ele>144</ele>
        <time>2025-03-23T11:26:07Z</time>
      </trkpt>
      <trkpt lat="43.68283" lon="1.362">
        <ele>144</ele>
        <time>2025-03-23T11:26:08Z</time>
      </trkpt>
      <trkpt lat="43.6828" lon="1.36201">
        <ele>144</ele>
        <time>2025-03-23T11:26:09Z</time>
      </trkpt>
      <trkpt lat="43.68276" lon="1.36203">
        <ele>144</ele>
        <time>2025-03-23T11:26:10Z</time>
      </trkpt>
      <trkpt lat="43.68274" lon="1.36204">
        <ele>144</ele>
        <time>2025-03-23T11:26:11Z</time>
      </trkpt>
      <trkpt lat="43.68271" lon="1.36205">
        <ele>143</ele>
        <time>2025-03-23T11:26:12Z</time>
      </trkpt>
      <trkpt lat="43.68267" lon="1.36207">
        <ele>143</ele>
        <time>2025-03-23T11:26:13Z</time>
      </trkpt>
      <trkpt lat="43.68266" lon="1.36207">
        <ele>143</ele>
        <time>2025-03-23T11:26:14Z</time>
      </trkpt>
      <trkpt lat="43.68263" lon="1.36208">
        <ele>143</ele>
        <time>2025-03-23T11:26:15Z</time>
      </trkpt>
      <trkpt lat="43.68261" lon="1.36209">
        <ele>143</ele>
        <time>2025-03-23T11:26:16Z</time>
      </trkpt>
      <trkpt lat="43.68259" lon="1.3621">
        <ele>143</ele>
        <time>2025-03-23T11:26:17Z</time>
      </trkpt>
      <trkpt lat="43.68256" lon="1.36212">
        <ele>143</ele>
        <time>2025-03-23T11:26:18Z</time>
      </trkpt>
      <trkpt lat="43.68253" lon="1.36213">
        <ele>143</ele>
        <time>2025-03-23T11:26:19Z</time>
      </trkpt>
      <trkpt lat="43.68251" lon="1.36214">
        <ele>143</ele>
        <time>2025-03-23T11:26:20Z</time>
      </trkpt>
      <trkpt lat="43.68248" lon="1.36215">
        <ele>143</ele>
        <time>2025-03-23T11:26:21Z</time>
      </trkpt>
      <trkpt lat="43.68244" lon="1.36217">
        <ele>143</ele>
        <time>2025-03-23T11:26:22Z</time>
      </trkpt>
      <trkpt lat="43.68242" lon="1.36218">
        <ele>143</ele>
        <time>2025-03-23T11:26:23Z</time>
      </trkpt>
      <trkpt lat="43.6824" lon="1.36219">
        <ele>143</ele>
        <time>2025-03-23T11:26:24Z</time>
      </trkpt>
      <trkpt lat="43.68237" lon="1.3622">
        <ele>143</ele>
        <time>2025-03-23T11:26:25Z</time>
      </trkpt>
      <trkpt lat="43.68235" lon="1.36221">
        <ele>143</ele>
        <time>2025-03-23T11:26:26Z</time>
      </trkpt>
      <trkpt lat="43.68232" lon="1.36222">
        <ele>142</ele>
        <time>2025-03-23T11:26:27Z</time>
      </trkpt>
      <trkpt lat="43.68229" lon="1.36224">
        <ele>142</ele>
        <time>2025-03-23T11:26:28Z</time>
      </trkpt>
      <trkpt lat="43.68227" lon="1.36225">
        <ele>142</ele>
        <time>2025-03-23T11:26:29Z</time>
      </trkpt>
      <trkpt lat="43.68224" lon="1.36226">
        <ele>142</ele>
        <time>2025-03-23T11:26:30Z</time>
      </trkpt>
      <trkpt lat="43.68222" lon="1.36227">
        <ele>142</ele>
        <time>2025-03-23T11:26:31Z</time>
      </trkpt>
      <trkpt lat="43.68219" lon="1.36228">
        <ele>142</ele>
        <time>2025-03-23T11:26:32Z</time>
      </trkpt>
      <trkpt lat="43.68217" lon="1.36229">
        <ele>142</ele>
        <time>2025-03-23T11:26:33Z</time>
      </trkpt>
      <trkpt lat="43.68214" lon="1.3623">
        <ele>142</ele>
        <time>2025-03-23T11:26:34Z</time>
      </trkpt>
      <trkpt lat="43.6821" lon="1.36232">
        <ele>142</ele>
        <time>2025-03-23T11:26:35Z</time>
      </trkpt>
      <trkpt lat="43.68209" lon="1.36232">
        <ele>142</ele>
        <time>2025-03-23T11:26:36Z</time>
      </trkpt>
      <trkpt lat="43.68205" lon="1.36234">
        <ele>142</ele>
        <time>2025-03-23T11:26:37Z</time>
      </trkpt>
      <trkpt lat="43.68203" lon="1.36235">
        <ele>142</ele>
        <time>2025-03-23T11:26:38Z</time>
      </trkpt>
      <trkpt lat="43.68201" lon="1.36236">
        <ele>142</ele>
        <time>2025-03-23T11:26:39Z</time>
      </trkpt>
      <trkpt lat="43.68198" lon="1.36237">
        <ele>142</ele>
        <time>2025-03-23T11:26:40Z</time>
      </trkpt>
      <trkpt lat="43.68196" lon="1.36238">
        <ele>142</ele>
        <time>2025-03-23T11:26:41Z</time>
      </trkpt>
      <trkpt lat="43.68193" lon="1.3624">
        <ele>142</ele>
        <time>2025-03-23T11:26:42Z</time>
      </trkpt>
      <trkpt lat="43.68191" lon="1.36241">
        <ele>142</ele>
        <time>2025-03-23T11:26:43Z</time>
      </trkpt>
      <trkpt lat="43.68188" lon="1.36242">
        <ele>142</ele>
        <time>2025-03-23T11:26:44Z</time>
      </trkpt>
      <trkpt lat="43.68186" lon="1.36243">
        <ele>142</ele>
        <time>2025-03-23T11:26:45Z</time>
      </trkpt>
      <trkpt lat="43.68183" lon="1.36244">
        <ele>142</ele>
        <time>2025-03-23T11:26:46Z</time>
      </trkpt>
      <trkpt lat="43.6818" lon="1.36245">
        <ele>142</ele>
        <time>2025-03-23T11:26:47Z</time>
      </trkpt>
      <trkpt lat="43.68178" lon="1.36247">
        <ele>142</ele>
        <time>2025-03-23T11:26:48Z</time>
      </trkpt>
      <trkpt lat="43.68175" lon="1.36248">
        <ele>142</ele>
        <time>2025-03-23T11:26:49Z</time>
      </trkpt>
      <trkpt lat="43.68173" lon="1.36249">
        <ele>142</ele>
        <time>2025-03-23T11:26:50Z</time>
      </trkpt>
      <trkpt lat="43.68169" lon="1.36251">
        <ele>142</ele>
        <time>2025-03-23T11:26:51Z</time>
      </trkpt>
      <trkpt lat="43.68168" lon="1.36251">
        <ele>142</ele>
        <time>2025-03-23T11:26:52Z</time>
      </trkpt>
      <trkpt lat="43.68165" lon="1.36252">
        <ele>142</ele>
        <time>2025-03-23T11:26:53Z</time>
      </trkpt>
      <trkpt lat="43.68163" lon="1.36253">
        <ele>142</ele>
        <time>2025-03-23T11:26:54Z</time>
      </trkpt>
      <trkpt lat="43.68161" lon="1.36255">
        <ele>142</ele>
        <time>2025-03-23T11:26:55Z</time>
      </trkpt>
      <trkpt lat="43.68157" lon="1.36257">
        <ele>142</ele>
        <time>2025-03-23T11:26:56Z</time>
      </trkpt>
      <trkpt lat="43.68156" lon="1.36258">
        <ele>142</ele>
        <time>2025-03-23T11:26:57Z</time>
      </trkpt>
      <trkpt lat="43.68154" lon="1.36259">
        <ele>142</ele>
        <time>2025-03-23T11:26:58Z</time>
      </trkpt>
      <trkpt lat="43.68152" lon="1.36261">
        <ele>142</ele>
        <time>2025-03-23T11:26:59Z</time>
      </trkpt>
      <trkpt lat="43.68149" lon="1.36262">
        <ele>142</ele>
        <time>2025-03-23T11:27:00Z</time>
      </trkpt>
      <trkpt lat="43.68147" lon="1.36263">
        <ele>142</ele>
        <time>2025-03-23T11:27:01Z</time>
      </trkpt>
      <trkpt lat="43.68145" lon="1.36263">
        <ele>142</ele>
        <time>2025-03-23T11:27:02Z</time>
      </trkpt>
      <trkpt lat="43.68141" lon="1.36264">
        <ele>142</ele>
        <time>2025-03-23T11:27:03Z</time>
      </trkpt>
      <trkpt lat="43.6814" lon="1.36264">
        <ele>142</ele>
        <time>2025-03-23T11:27:04Z</time>
      </trkpt>
      <trkpt lat="43.68137" lon="1.36265">
        <ele>142</ele>
        <time>2025-03-23T11:27:05Z</time>
      </trkpt>
      <trkpt lat="43.68134" lon="1.36266">
        <ele>142</ele>
        <time>2025-03-23T11:27:06Z</time>
      </trkpt>
      <trkpt lat="43.68132" lon="1.36267">
        <ele>142</ele>
        <time>2025-03-23T11:27:07Z</time>
      </trkpt>
      <trkpt lat="43.68129" lon="1.36268">
        <ele>142</ele>
        <time>2025-03-23T11:27:08Z</time>
      </trkpt>
      <trkpt lat="43.68126" lon="1.36268">
        <ele>142</ele>
        <time>2025-03-23T11:27:09Z</time>
      </trkpt>
      <trkpt lat="43.68123" lon="1.3627">
        <ele>142</ele>
        <time>2025-03-23T11:27:10Z</time>
      </trkpt>
      <trkpt lat="43.68122" lon="1.36271">
        <ele>142</ele>
        <time>2025-03-23T11:27:11Z</time>
      </trkpt>
      <trkpt lat="43.68119" lon="1.36272">
        <ele>142</ele>
        <time>2025-03-23T11:27:12Z</time>
      </trkpt>
      <trkpt lat="43.68116" lon="1.36273">
        <ele>142</ele>
        <time>2025-03-23T11:27:13Z</time>
      </trkpt>
      <trkpt lat="43.68114" lon="1.36274">
        <ele>142</ele>
        <time>2025-03-23T11:27:14Z</time>
      </trkpt>
      <trkpt lat="43.68111" lon="1.36275">
        <ele>142</ele>
        <time>2025-03-23T11:27:15Z</time>
      </trkpt>
      <trkpt lat="43.68109" lon="1.36275">
        <ele>142</ele>
        <time>2025-03-23T11:27:16Z</time>
      </trkpt>
      <trkpt lat="43.68107" lon="1.36276">
        <ele>142</ele>
        <time>2025-03-23T11:27:17Z</time>
      </trkpt>
      <trkpt lat="43.68104" lon="1.36277">
        <ele>142</ele>
        <time>2025-03-23T11:27:18Z</time>
      </trkpt>
      <trkpt lat="43.68101" lon="1.36278">
        <ele>142</ele>
        <time>2025-03-23T11:27:19Z</time>
      </trkpt>
      <trkpt lat="43.68098" lon="1.3628">
        <ele>142</ele>
        <time>2025-03-23T11:27:20Z</time>
      </trkpt>
      <trkpt lat="43.68097" lon="1.36281">
        <ele>142</ele>
        <time>2025-03-23T11:27:21Z</time>
      </trkpt>
      <trkpt lat="43.68095" lon="1.36283">
        <ele>142</ele>
        <time>2025-03-23T11:27:22Z</time>
      </trkpt>
      <trkpt lat="43.68093" lon="1.36284">
        <ele>142</ele>
        <time>2025-03-23T11:27:23Z</time>
      </trkpt>
      <trkpt lat="43.68092" lon="1.36286">
        <ele>142</ele>
        <time>2025-03-23T11:27:24Z</time>
      </trkpt>
      <trkpt lat="43.6809" lon="1.36288">
        <ele>142</ele>
        <time>2025-03-23T11:27:25Z</time>
      </trkpt>
      <trkpt lat="43.68089" lon="1.3629">
        <ele>142</ele>
        <time>2025-03-23T11:27:26Z</time>
      </trkpt>
      <trkpt lat="43.68087" lon="1.36295">
        <ele>142</ele>
        <time>2025-03-23T11:27:27Z</time>
      </trkpt>
      <trkpt lat="43.68086" lon="1.36296">
        <ele>142</ele>
        <time>2025-03-23T11:27:28Z</time>
      </trkpt>
      <trkpt lat="43.68084" lon="1.36299">
        <ele>142</ele>
        <time>2025-03-23T11:27:29Z</time>
      </trkpt>
      <trkpt lat="43.68082" lon="1.36302">
        <ele>142</ele>
        <time>2025-03-23T11:27:30Z</time>
      </trkpt>
      <trkpt lat="43.6808" lon="1.36304">
        <ele>142</ele>
        <time>2025-03-23T11:27:31Z</time>
      </trkpt>
      <trkpt lat="43.68078" lon="1.36305">
        <ele>142</ele>
        <time>2025-03-23T11:27:32Z</time>
      </trkpt>
      <trkpt lat="43.68078" lon="1.36308">
        <ele>142</ele>
        <time>2025-03-23T11:27:33Z</time>
      </trkpt>
      <trkpt lat="43.68078" lon="1.3631">
        <ele>142</ele>
        <time>2025-03-23T11:27:34Z</time>
      </trkpt>
      <trkpt lat="43.68078" lon="1.36313">
        <ele>142</ele>
        <time>2025-03-23T11:27:35Z</time>
      </trkpt>
      <trkpt lat="43.68078" lon="1.36316">
        <ele>142</ele>
        <time>2025-03-23T11:27:36Z</time>
      </trkpt>
      <trkpt lat="43.68079" lon="1.3632">
        <ele>142</ele>
        <time>2025-03-23T11:27:37Z</time>
      </trkpt>
      <trkpt lat="43.6808" lon="1.36323">
        <ele>142</ele>
        <time>2025-03-23T11:27:38Z</time>
      </trkpt>
      <trkpt lat="43.68081" lon="1.36328">
        <ele>142</ele>
        <time>2025-03-23T11:27:39Z</time>
      </trkpt>
      <trkpt lat="43.68081" lon="1.3633">
        <ele>142</ele>
        <time>2025-03-23T11:27:40Z</time>
      </trkpt>
      <trkpt lat="43.68082" lon="1.36333">
        <ele>142</ele>
        <time>2025-03-23T11:27:41Z</time>
      </trkpt>
      <trkpt lat="43.68083" lon="1.36337">
        <ele>142</ele>
        <time>2025-03-23T11:27:42Z</time>
      </trkpt>
      <trkpt lat="43.68084" lon="1.36341">
        <ele>142</ele>
        <time>2025-03-23T11:27:43Z</time>
      </trkpt>
      <trkpt lat="43.68084" lon="1.36344">
        <ele>142</ele>
        <time>2025-03-23T11:27:44Z</time>
      </trkpt>
      <trkpt lat="43.68085" lon="1.36348">
        <ele>142</ele>
        <time>2025-03-23T11:27:45Z</time>
      </trkpt>
      <trkpt lat="43.68086" lon="1.36353">
        <ele>142</ele>
        <time>2025-03-23T11:27:46Z</time>
      </trkpt>
      <trkpt lat="43.68087" lon="1.36355">
        <ele>142</ele>
        <time>2025-03-23T11:27:47Z</time>
      </trkpt>
      <trkpt lat="43.68088" lon="1.36359">
        <ele>142</ele>
        <time>2025-03-23T11:27:48Z</time>
      </trkpt>
      <trkpt lat="43.68089" lon="1.36362">
        <ele>142</ele>
        <time>2025-03-23T11:27:49Z</time>
      </trkpt>
      <trkpt lat="43.6809" lon="1.36366">
        <ele>142</ele>
        <time>2025-03-23T11:27:50Z</time>
      </trkpt>
      <trkpt lat="43.68091" lon="1.36369">
        <ele>142</ele>
        <time>2025-03-23T11:27:51Z</time>
      </trkpt>
      <trkpt lat="43.68092" lon="1.36373">
        <ele>142</ele>
        <time>2025-03-23T11:27:52Z</time>
      </trkpt>
      <trkpt lat="43.68093" lon="1.36378">
        <ele>142</ele>
        <time>2025-03-23T11:27:53Z</time>
      </trkpt>
      <trkpt lat="43.68093" lon="1.3638">
        <ele>141</ele>
        <time>2025-03-23T11:27:54Z</time>
      </trkpt>
      <trkpt lat="43.68094" lon="1.36385">
        <ele>141</ele>
        <time>2025-03-23T11:27:55Z</time>
      </trkpt>
      <trkpt lat="43.68094" lon="1.36387">
        <ele>141</ele>
        <time>2025-03-23T11:27:56Z</time>
      </trkpt>
      <trkpt lat="43.68095" lon="1.3639">
        <ele>141</ele>
        <time>2025-03-23T11:27:57Z</time>
      </trkpt>
      <trkpt lat="43.68096" lon="1.36394">
        <ele>141</ele>
        <time>2025-03-23T11:27:58Z</time>
      </trkpt>
      <trkpt lat="43.68097" lon="1.36399">
        <ele>141</ele>
        <time>2025-03-23T11:27:59Z</time>
      </trkpt>
      <trkpt lat="43.68098" lon="1.36401">
        <ele>141</ele>
        <time>2025-03-23T11:28:00Z</time>
      </trkpt>
      <trkpt lat="43.68099" lon="1.36404">
        <ele>141</ele>
        <time>2025-03-23T11:28:01Z</time>
      </trkpt>
      <trkpt lat="43.681" lon="1.36408">
        <ele>141</ele>
        <time>2025-03-23T11:28:02Z</time>
      </trkpt>
      <trkpt lat="43.68101" lon="1.36411">
        <ele>141</ele>
        <time>2025-03-23T11:28:03Z</time>
      </trkpt>
      <trkpt lat="43.68101" lon="1.36414">
        <ele>141</ele>
        <time>2025-03-23T11:28:04Z</time>
      </trkpt>
      <trkpt lat="43.68102" lon="1.36418">
        <ele>141</ele>
        <time>2025-03-23T11:28:05Z</time>
      </trkpt>
      <trkpt lat="43.68103" lon="1.36421">
        <ele>141</ele>
        <time>2025-03-23T11:28:06Z</time>
      </trkpt>
      <trkpt lat="43.68103" lon="1.36425">
        <ele>141</ele>
        <time>2025-03-23T11:28:07Z</time>
      </trkpt>
      <trkpt lat="43.68104" lon="1.36428">
        <ele>141</ele>
        <time>2025-03-23T11:28:08Z</time>
      </trkpt>
      <trkpt lat="43.68105" lon="1.36432">
        <ele>141</ele>
        <time>2025-03-23T11:28:09Z</time>
      </trkpt>
      <trkpt lat="43.68106" lon="1.36435">
        <ele>141</ele>
        <time>2025-03-23T11:28:10Z</time>
      </trkpt>
      <trkpt lat="43.68107" lon="1.36439">
        <ele>141</ele>
        <time>2025-03-23T11:28:11Z</time>
      </trkpt>
      <trkpt lat="43.68107" lon="1.36444">
        <ele>141</ele>
        <time>2025-03-23T11:28:12Z</time>
      </trkpt>
      <trkpt lat="43.68108" lon="1.36446">
        <ele>141</ele>
        <time>2025-03-23T11:28:13Z</time>
      </trkpt>
      <trkpt lat="43.68108" lon="1.36449">
        <ele>141</ele>
        <time>2025-03-23T11:28:14Z</time>
      </trkpt>
      <trkpt lat="43.68109" lon="1.36453">
        <ele>141</ele>
        <time>2025-03-23T11:28:15Z</time>
      </trkpt>
      <trkpt lat="43.6811" lon="1.36457">
        <ele>141</ele>
        <time>2025-03-23T11:28:16Z</time>
      </trkpt>
      <trkpt lat="43.68111" lon="1.36461">
        <ele>141</ele>
        <time>2025-03-23T11:28:17Z</time>
      </trkpt>
      <trkpt lat="43.68111" lon="1.36464">
        <ele>141</ele>
        <time>2025-03-23T11:28:18Z</time>
      </trkpt>
      <trkpt lat="43.68113" lon="1.3647">
        <ele>141</ele>
        <time>2025-03-23T11:28:19Z</time>
      </trkpt>
      <trkpt lat="43.68113" lon="1.36471">
        <ele>141</ele>
        <time>2025-03-23T11:28:20Z</time>
      </trkpt>
      <trkpt lat="43.68114" lon="1.36475">
        <ele>141</ele>
        <time>2025-03-23T11:28:21Z</time>
      </trkpt>
      <trkpt lat="43.68115" lon="1.36478">
        <ele>141</ele>
        <time>2025-03-23T11:28:22Z</time>
      </trkpt>
      <trkpt lat="43.68116" lon="1.36482">
        <ele>140</ele>
        <time>2025-03-23T11:28:23Z</time>
      </trkpt>
      <trkpt lat="43.68116" lon="1.36485">
        <ele>140</ele>
        <time>2025-03-23T11:28:24Z</time>
      </trkpt>
      <trkpt lat="43.68117" lon="1.36488">
        <ele>140</ele>
        <time>2025-03-23T11:28:25Z</time>
      </trkpt>
      <trkpt lat="43.68118" lon="1.36494">
        <ele>140</ele>
        <time>2025-03-23T11:28:26Z</time>
      </trkpt>
      <trkpt lat="43.68119" lon="1.36496">
        <ele>140</ele>
        <time>2025-03-23T11:28:27Z</time>
      </trkpt>
      <trkpt lat="43.6812" lon="1.36499">
        <ele>140</ele>
        <time>2025-03-23T11:28:28Z</time>
      </trkpt>
      <trkpt lat="43.68121" lon="1.36503">
        <ele>140</ele>
        <time>2025-03-23T11:28:29Z</time>
      </trkpt>
      <trkpt lat="43.68122" lon="1.36507">
        <ele>140</ele>
        <time>2025-03-23T11:28:30Z</time>
      </trkpt>
      <trkpt lat="43.68122" lon="1.3651">
        <ele>141</ele>
        <time>2025-03-23T11:28:31Z</time>
      </trkpt>
      <trkpt lat="43.68123" lon="1.36513">
        <ele>141</ele>
        <time>2025-03-23T11:28:32Z</time>
      </trkpt>
      <trkpt lat="43.68124" lon="1.36517">
        <ele>141</ele>
        <time>2025-03-23T11:28:33Z</time>
      </trkpt>
      <trkpt lat="43.68125" lon="1.3652">
        <ele>140</ele>
        <time>2025-03-23T11:28:34Z</time>
      </trkpt>
      <trkpt lat="43.68126" lon="1.36526">
        <ele>140</ele>
        <time>2025-03-23T11:28:35Z</time>
      </trkpt>
      <trkpt lat="43.68126" lon="1.36528">
        <ele>140</ele>
        <time>2025-03-23T11:28:36Z</time>
      </trkpt>
      <trkpt lat="43.68127" lon="1.36532">
        <ele>140</ele>
        <time>2025-03-23T11:28:37Z</time>
      </trkpt>
      <trkpt lat="43.68128" lon="1.36536">
        <ele>140</ele>
        <time>2025-03-23T11:28:38Z</time>
      </trkpt>
      <trkpt lat="43.68129" lon="1.36539">
        <ele>140</ele>
        <time>2025-03-23T11:28:39Z</time>
      </trkpt>
      <trkpt lat="43.6813" lon="1.36543">
        <ele>140</ele>
        <time>2025-03-23T11:28:40Z</time>
      </trkpt>
      <trkpt lat="43.68131" lon="1.36547">
        <ele>140</ele>
        <time>2025-03-23T11:28:41Z</time>
      </trkpt>
      <trkpt lat="43.68133" lon="1.36552">
        <ele>140</ele>
        <time>2025-03-23T11:28:42Z</time>
      </trkpt>
      <trkpt lat="43.68133" lon="1.36554">
        <ele>140</ele>
        <time>2025-03-23T11:28:43Z</time>
      </trkpt>
      <trkpt lat="43.68135" lon="1.36557">
        <ele>140</ele>
        <time>2025-03-23T11:28:44Z</time>
      </trkpt>
      <trkpt lat="43.68136" lon="1.36561">
        <ele>140</ele>
        <time>2025-03-23T11:28:45Z</time>
      </trkpt>
      <trkpt lat="43.68136" lon="1.36565">
        <ele>140</ele>
        <time>2025-03-23T11:28:46Z</time>
      </trkpt>
      <trkpt lat="43.68136" lon="1.36569">
        <ele>140</ele>
        <time>2025-03-23T11:28:47Z</time>
      </trkpt>
      <trkpt lat="43.68137" lon="1.36575">
        <ele>140</ele>
        <time>2025-03-23T11:28:48Z</time>
      </trkpt>
      <trkpt lat="43.68138" lon="1.36577">
        <ele>140</ele>
        <time>2025-03-23T11:28:49Z</time>
      </trkpt>
      <trkpt lat="43.68139" lon="1.36582">
        <ele>140</ele>
        <time>2025-03-23T11:28:50Z</time>
      </trkpt>
      <trkpt lat="43.68139" lon="1.36584">
        <ele>140</ele>
        <time>2025-03-23T11:28:51Z</time>
      </trkpt>
      <trkpt lat="43.6814" lon="1.36587">
        <ele>140</ele>
        <time>2025-03-23T11:28:52Z</time>
      </trkpt>
      <trkpt lat="43.68141" lon="1.36592">
        <ele>140</ele>
        <time>2025-03-23T11:28:53Z</time>
      </trkpt>
      <trkpt lat="43.68142" lon="1.36594">
        <ele>140</ele>
        <time>2025-03-23T11:28:54Z</time>
      </trkpt>
      <trkpt lat="43.68142" lon="1.36598">
        <ele>140</ele>
        <time>2025-03-23T11:28:55Z</time>
      </trkpt>
      <trkpt lat="43.68143" lon="1.36601">
        <ele>140</ele>
        <time>2025-03-23T11:28:56Z</time>
      </trkpt>
      <trkpt lat="43.68144" lon="1.36604">
        <ele>140</ele>
        <time>2025-03-23T11:28:57Z</time>
      </trkpt>
      <trkpt lat="43.68144" lon="1.36607">
        <ele>140</ele>
        <time>2025-03-23T11:28:58Z</time>
      </trkpt>
      <trkpt lat="43.68144" lon="1.3661">
        <ele>140</ele>
        <time>2025-03-23T11:28:59Z</time>
      </trkpt>
      <trkpt lat="43.68143" lon="1.36614">
        <ele>139</ele>
        <time>2025-03-23T11:29:00Z</time>
      </trkpt>
      <trkpt lat="43.68142" lon="1.36617">
        <ele>139</ele>
        <time>2025-03-23T11:29:01Z</time>
      </trkpt>
      <trkpt lat="43.6814" lon="1.3662">
        <ele>138</ele>
        <time>2025-03-23T11:29:02Z</time>
      </trkpt>
      <trkpt lat="43.68139" lon="1.36623">
        <ele>138</ele>
        <time>2025-03-23T11:29:03Z</time>
      </trkpt>
      <trkpt lat="43.68137" lon="1.36626">
        <ele>138</ele>
        <time>2025-03-23T11:29:04Z</time>
      </trkpt>
      <trkpt lat="43.68135" lon="1.36629">
        <ele>139</ele>
        <time>2025-03-23T11:29:05Z</time>
      </trkpt>
      <trkpt lat="43.68133" lon="1.36631">
        <ele>139</ele>
        <time>2025-03-23T11:29:06Z</time>
      </trkpt>
      <trkpt lat="43.6813" lon="1.36635">
        <ele>139</ele>
        <time>2025-03-23T11:29:07Z</time>
      </trkpt>
      <trkpt lat="43.68129" lon="1.36636">
        <ele>139</ele>
        <time>2025-03-23T11:29:08Z</time>
      </trkpt>
      <trkpt lat="43.68126" lon="1.3664">
        <ele>139</ele>
        <time>2025-03-23T11:29:09Z</time>
      </trkpt>
      <trkpt lat="43.68125" lon="1.36641">
        <ele>138</ele>
        <time>2025-03-23T11:29:10Z</time>
      </trkpt>
      <trkpt lat="43.68122" lon="1.36644">
        <ele>138</ele>
        <time>2025-03-23T11:29:11Z</time>
      </trkpt>
      <trkpt lat="43.68119" lon="1.36647">
        <ele>138</ele>
        <time>2025-03-23T11:29:12Z</time>
      </trkpt>
      <trkpt lat="43.68118" lon="1.36649">
        <ele>138</ele>
        <time>2025-03-23T11:29:13Z</time>
      </trkpt>
      <trkpt lat="43.68116" lon="1.36651">
        <ele>138</ele>
        <time>2025-03-23T11:29:14Z</time>
      </trkpt>
      <trkpt lat="43.68114" lon="1.36653">
        <ele>138</ele>
        <time>2025-03-23T11:29:15Z</time>
      </trkpt>
      <trkpt lat="43.68111" lon="1.36655">
        <ele>138</ele>
        <time>2025-03-23T11:29:16Z</time>
      </trkpt>
      <trkpt lat="43.68109" lon="1.36658">
        <ele>138</ele>
        <time>2025-03-23T11:29:17Z</time>
      </trkpt>
      <trkpt lat="43.68107" lon="1.3666">
        <ele>138</ele>
        <time>2025-03-23T11:29:18Z</time>
      </trkpt>
      <trkpt lat="43.68103" lon="1.36663">
        <ele>138</ele>
        <time>2025-03-23T11:29:19Z</time>
      </trkpt>
      <trkpt lat="43.68102" lon="1.36664">
        <ele>138</ele>
        <time>2025-03-23T11:29:20Z</time>
      </trkpt>
      <trkpt lat="43.681" lon="1.36666">
        <ele>138</ele>
        <time>2025-03-23T11:29:21Z</time>
      </trkpt>
      <trkpt lat="43.68097" lon="1.36668">
        <ele>138</ele>
        <time>2025-03-23T11:29:22Z</time>
      </trkpt>
      <trkpt lat="43.68094" lon="1.36671">
        <ele>138</ele>
        <time>2025-03-23T11:29:23Z</time>
      </trkpt>
      <trkpt lat="43.68092" lon="1.36672">
        <ele>138</ele>
        <time>2025-03-23T11:29:24Z</time>
      </trkpt>
      <trkpt lat="43.68089" lon="1.36674">
        <ele>138</ele>
        <time>2025-03-23T11:29:25Z</time>
      </trkpt>
      <trkpt lat="43.68088" lon="1.36675">
        <ele>138</ele>
        <time>2025-03-23T11:29:26Z</time>
      </trkpt>
      <trkpt lat="43.68085" lon="1.36676">
        <ele>138</ele>
        <time>2025-03-23T11:29:27Z</time>
      </trkpt>
      <trkpt lat="43.68082" lon="1.36678">
        <ele>138</ele>
        <time>2025-03-23T11:29:28Z</time>
      </trkpt>
      <trkpt lat="43.6808" lon="1.36678">
        <ele>139</ele>
        <time>2025-03-23T11:29:29Z</time>
      </trkpt>
      <trkpt lat="43.68078" lon="1.36679">
        <ele>139</ele>
        <time>2025-03-23T11:29:30Z</time>
      </trkpt>
      <trkpt lat="43.68075" lon="1.3668">
        <ele>139</ele>
        <time>2025-03-23T11:29:31Z</time>
      </trkpt>
      <trkpt lat="43.68073" lon="1.36682">
        <ele>139</ele>
        <time>2025-03-23T11:29:32Z</time>
      </trkpt>
      <trkpt lat="43.6807" lon="1.36683">
        <ele>139</ele>
        <time>2025-03-23T11:29:33Z</time>
      </trkpt>
      <trkpt lat="43.68067" lon="1.36684">
        <ele>139</ele>
        <time>2025-03-23T11:29:34Z</time>
      </trkpt>
      <trkpt lat="43.68063" lon="1.36686">
        <ele>139</ele>
        <time>2025-03-23T11:29:35Z</time>
      </trkpt>
      <trkpt lat="43.68062" lon="1.36686">
        <ele>139</ele>
        <time>2025-03-23T11:29:36Z</time>
      </trkpt>
      <trkpt lat="43.6806" lon="1.36687">
        <ele>139</ele>
        <time>2025-03-23T11:29:37Z</time>
      </trkpt>
      <trkpt lat="43.68057" lon="1.36687">
        <ele>139</ele>
        <time>2025-03-23T11:29:38Z</time>
      </trkpt>
      <trkpt lat="43.68055" lon="1.36688">
        <ele>139</ele>
        <time>2025-03-23T11:29:39Z</time>
      </trkpt>
      <trkpt lat="43.68052" lon="1.3669">
        <ele>139</ele>
        <time>2025-03-23T11:29:40Z</time>
      </trkpt>
      <trkpt lat="43.68049" lon="1.36691">
        <ele>139</ele>
        <time>2025-03-23T11:29:41Z</time>
      </trkpt>
      <trkpt lat="43.68047" lon="1.36692">
        <ele>139</ele>
        <time>2025-03-23T11:29:42Z</time>
      </trkpt>
      <trkpt lat="43.68043" lon="1.36694">
        <ele>139</ele>
        <time>2025-03-23T11:29:43Z</time>
      </trkpt>
      <trkpt lat="43.68042" lon="1.36695">
        <ele>139</ele>
        <time>2025-03-23T11:29:44Z</time>
      </trkpt>
      <trkpt lat="43.68039" lon="1.36696">
        <ele>139</ele>
        <time>2025-03-23T11:29:45Z</time>
      </trkpt>
      <trkpt lat="43.68036" lon="1.36697">
        <ele>139</ele>
        <time>2025-03-23T11:29:46Z</time>
      </trkpt>
      <trkpt lat="43.68031" lon="1.367">
        <ele>139</ele>
        <time>2025-03-23T11:29:48Z</time>
      </trkpt>
      <trkpt lat="43.68029" lon="1.36701">
        <ele>139</ele>
        <time>2025-03-23T11:29:49Z</time>
      </trkpt>
      <trkpt lat="43.68027" lon="1.36702">
        <ele>139</ele>
        <time>2025-03-23T11:29:50Z</time>
      </trkpt>
      <trkpt lat="43.68023" lon="1.36704">
        <ele>139</ele>
        <time>2025-03-23T11:29:51Z</time>
      </trkpt>
      <trkpt lat="43.68022" lon="1.36705">
        <ele>139</ele>
        <time>2025-03-23T11:29:52Z</time>
      </trkpt>
      <trkpt lat="43.68019" lon="1.36706">
        <ele>139</ele>
        <time>2025-03-23T11:29:53Z</time>
      </trkpt>
      <trkpt lat="43.68016" lon="1.36707">
        <ele>139</ele>
        <time>2025-03-23T11:29:54Z</time>
      </trkpt>
      <trkpt lat="43.68014" lon="1.36708">
        <ele>139</ele>
        <time>2025-03-23T11:29:55Z</time>
      </trkpt>
      <trkpt lat="43.68011" lon="1.36709">
        <ele>139</ele>
        <time>2025-03-23T11:29:56Z</time>
      </trkpt>
      <trkpt lat="43.68009" lon="1.3671">
        <ele>139</ele>
        <time>2025-03-23T11:29:57Z</time>
      </trkpt>
      <trkpt lat="43.68006" lon="1.36711">
        <ele>139</ele>
        <time>2025-03-23T11:29:58Z</time>
      </trkpt>
      <trkpt lat="43.68004" lon="1.36712">
        <ele>140</ele>
        <time>2025-03-23T11:29:59Z</time>
      </trkpt>
      <trkpt lat="43.68001" lon="1.36713">
        <ele>140</ele>
        <time>2025-03-23T11:30:00Z</time>
      </trkpt>
      <trkpt lat="43.67998" lon="1.36714">
        <ele>140</ele>
        <time>2025-03-23T11:30:01Z</time>
      </trkpt>
      <trkpt lat="43.67996" lon="1.36714">
        <ele>140</ele>
        <time>2025-03-23T11:30:02Z</time>
      </trkpt>
      <trkpt lat="43.67994" lon="1.36716">
        <ele>140</ele>
        <time>2025-03-23T11:30:03Z</time>
      </trkpt>
      <trkpt lat="43.67991" lon="1.36717">
        <ele>140</ele>
        <time>2025-03-23T11:30:04Z</time>
      </trkpt>
      <trkpt lat="43.67988" lon="1.36718">
        <ele>140</ele>
        <time>2025-03-23T11:30:05Z</time>
      </trkpt>
      <trkpt lat="43.67985" lon="1.36718">
        <ele>140</ele>
        <time>2025-03-23T11:30:06Z</time>
      </trkpt>
      <trkpt lat="43.67982" lon="1.36718">
        <ele>140</ele>
        <time>2025-03-23T11:30:07Z</time>
      </trkpt>
      <trkpt lat="43.67979" lon="1.36718">
        <ele>140</ele>
        <time>2025-03-23T11:30:08Z</time>
      </trkpt>
      <trkpt lat="43.67977" lon="1.36717">
        <ele>140</ele>
        <time>2025-03-23T11:30:09Z</time>
      </trkpt>
      <trkpt lat="43.67974" lon="1.36717">
        <ele>140</ele>
        <time>2025-03-23T11:30:10Z</time>
      </trkpt>
      <trkpt lat="43.67971" lon="1.36717">
        <ele>140</ele>
        <time>2025-03-23T11:30:11Z</time>
      </trkpt>
      <trkpt lat="43.67968" lon="1.36716">
        <ele>141</ele>
        <time>2025-03-23T11:30:12Z</time>
      </trkpt>
      <trkpt lat="43.67966" lon="1.36716">
        <ele>141</ele>
        <time>2025-03-23T11:30:13Z</time>
      </trkpt>
      <trkpt lat="43.67961" lon="1.36717">
        <ele>140</ele>
        <time>2025-03-23T11:30:14Z</time>
      </trkpt>
      <trkpt lat="43.6796" lon="1.36717">
        <ele>140</ele>
        <time>2025-03-23T11:30:15Z</time>
      </trkpt>
      <trkpt lat="43.67958" lon="1.36716">
        <ele>140</ele>
        <time>2025-03-23T11:30:16Z</time>
      </trkpt>
      <trkpt lat="43.67955" lon="1.36715">
        <ele>140</ele>
        <time>2025-03-23T11:30:17Z</time>
      </trkpt>
      <trkpt lat="43.67953" lon="1.36714">
        <ele>140</ele>
        <time>2025-03-23T11:30:18Z</time>
      </trkpt>
      <trkpt lat="43.6795" lon="1.36714">
        <ele>140</ele>
        <time>2025-03-23T11:30:19Z</time>
      </trkpt>
      <trkpt lat="43.67948" lon="1.36713">
        <ele>141</ele>
        <time>2025-03-23T11:30:20Z</time>
      </trkpt>
      <trkpt lat="43.67944" lon="1.36713">
        <ele>141</ele>
        <time>2025-03-23T11:30:21Z</time>
      </trkpt>
      <trkpt lat="43.67943" lon="1.36712">
        <ele>141</ele>
        <time>2025-03-23T11:30:22Z</time>
      </trkpt>
      <trkpt lat="43.6794" lon="1.36712">
        <ele>141</ele>
        <time>2025-03-23T11:30:23Z</time>
      </trkpt>
      <trkpt lat="43.67938" lon="1.36711">
        <ele>141</ele>
        <time>2025-03-23T11:30:24Z</time>
      </trkpt>
      <trkpt lat="43.67934" lon="1.36711">
        <ele>141</ele>
        <time>2025-03-23T11:30:25Z</time>
      </trkpt>
      <trkpt lat="43.67933" lon="1.3671">
        <ele>141</ele>
        <time>2025-03-23T11:30:26Z</time>
      </trkpt>
      <trkpt lat="43.6793" lon="1.3671">
        <ele>141</ele>
        <time>2025-03-23T11:30:27Z</time>
      </trkpt>
      <trkpt lat="43.67928" lon="1.36709">
        <ele>141</ele>
        <time>2025-03-23T11:30:28Z</time>
      </trkpt>
      <trkpt lat="43.67926" lon="1.36708">
        <ele>141</ele>
        <time>2025-03-23T11:30:29Z</time>
      </trkpt>
      <trkpt lat="43.67923" lon="1.36708">
        <ele>141</ele>
        <time>2025-03-23T11:30:30Z</time>
      </trkpt>
      <trkpt lat="43.67921" lon="1.36707">
        <ele>141</ele>
        <time>2025-03-23T11:30:31Z</time>
      </trkpt>
      <trkpt lat="43.67919" lon="1.36707">
        <ele>141</ele>
        <time>2025-03-23T11:30:32Z</time>
      </trkpt>
      <trkpt lat="43.67916" lon="1.36707">
        <ele>141</ele>
        <time>2025-03-23T11:30:33Z</time>
      </trkpt>
      <trkpt lat="43.67914" lon="1.36706">
        <ele>141</ele>
        <time>2025-03-23T11:30:34Z</time>
      </trkpt>
      <trkpt lat="43.67911" lon="1.36706">
        <ele>141</ele>
        <time>2025-03-23T11:30:35Z</time>
      </trkpt>
      <trkpt lat="43.67908" lon="1.36707">
        <ele>141</ele>
        <time>2025-03-23T11:30:36Z</time>
      </trkpt>
      <trkpt lat="43.67906" lon="1.36707">
        <ele>141</ele>
        <time>2025-03-23T11:30:37Z</time>
      </trkpt>
      <trkpt lat="43.67904" lon="1.36707">
        <ele>141</ele>
        <time>2025-03-23T11:30:38Z</time>
      </trkpt>
      <trkpt lat="43.67902" lon="1.36708">
        <ele>141</ele>
        <time>2025-03-23T11:30:39Z</time>
      </trkpt>
      <trkpt lat="43.67899" lon="1.36709">
        <ele>141</ele>
        <time>2025-03-23T11:30:40Z</time>
      </trkpt>
      <trkpt lat="43.67895" lon="1.3671">
        <ele>141</ele>
        <time>2025-03-23T11:30:41Z</time>
      </trkpt>
      <trkpt lat="43.67894" lon="1.36711">
        <ele>141</ele>
        <time>2025-03-23T11:30:42Z</time>
      </trkpt>
      <trkpt lat="43.67892" lon="1.36712">
        <ele>141</ele>
        <time>2025-03-23T11:30:43Z</time>
      </trkpt>
      <trkpt lat="43.67888" lon="1.36713">
        <ele>141</ele>
        <time>2025-03-23T11:30:44Z</time>
      </trkpt>
      <trkpt lat="43.67887" lon="1.36713">
        <ele>141</ele>
        <time>2025-03-23T11:30:45Z</time>
      </trkpt>
      <trkpt lat="43.67885" lon="1.36714">
        <ele>141</ele>
        <time>2025-03-23T11:30:46Z</time>
      </trkpt>
      <trkpt lat="43.67883" lon="1.36715">
        <ele>141</ele>
        <time>2025-03-23T11:30:47Z</time>
      </trkpt>
      <trkpt lat="43.6788" lon="1.36717">
        <ele>141</ele>
        <time>2025-03-23T11:30:48Z</time>
      </trkpt>
      <trkpt lat="43.67878" lon="1.36718">
        <ele>141</ele>
        <time>2025-03-23T11:30:49Z</time>
      </trkpt>
      <trkpt lat="43.67875" lon="1.3672">
        <ele>141</ele>
        <time>2025-03-23T11:30:50Z</time>
      </trkpt>
      <trkpt lat="43.67873" lon="1.36721">
        <ele>141</ele>
        <time>2025-03-23T11:30:51Z</time>
      </trkpt>
      <trkpt lat="43.6787" lon="1.36722">
        <ele>141</ele>
        <time>2025-03-23T11:30:52Z</time>
      </trkpt>
      <trkpt lat="43.67868" lon="1.36722">
        <ele>141</ele>
        <time>2025-03-23T11:30:53Z</time>
      </trkpt>
      <trkpt lat="43.67865" lon="1.36723">
        <ele>141</ele>
        <time>2025-03-23T11:30:54Z</time>
      </trkpt>
      <trkpt lat="43.67863" lon="1.36724">
        <ele>141</ele>
        <time>2025-03-23T11:30:55Z</time>
      </trkpt>
      <trkpt lat="43.6786" lon="1.36725">
        <ele>141</ele>
        <time>2025-03-23T11:30:56Z</time>
      </trkpt>
      <trkpt lat="43.67858" lon="1.36726">
        <ele>141</ele>
        <time>2025-03-23T11:30:57Z</time>
      </trkpt>
      <trkpt lat="43.67856" lon="1.36727">
        <ele>141</ele>
        <time>2025-03-23T11:30:58Z</time>
      </trkpt>
      <trkpt lat="43.67853" lon="1.36728">
        <ele>141</ele>
        <time>2025-03-23T11:30:59Z</time>
      </trkpt>
      <trkpt lat="43.67851" lon="1.36729">
        <ele>141</ele>
        <time>2025-03-23T11:31:00Z</time>
      </trkpt>
      <trkpt lat="43.67848" lon="1.3673">
        <ele>141</ele>
        <time>2025-03-23T11:31:01Z</time>
      </trkpt>
      <trkpt lat="43.67847" lon="1.3673">
        <ele>141</ele>
        <time>2025-03-23T11:31:02Z</time>
      </trkpt>
      <trkpt lat="43.67843" lon="1.36732">
        <ele>141</ele>
        <time>2025-03-23T11:31:03Z</time>
      </trkpt>
      <trkpt lat="43.67842" lon="1.36733">
        <ele>142</ele>
        <time>2025-03-23T11:31:04Z</time>
      </trkpt>
      <trkpt lat="43.6784" lon="1.36735">
        <ele>142</ele>
        <time>2025-03-23T11:31:05Z</time>
      </trkpt>
      <trkpt lat="43.67837" lon="1.36737">
        <ele>142</ele>
        <time>2025-03-23T11:31:06Z</time>
      </trkpt>
      <trkpt lat="43.67835" lon="1.36738">
        <ele>142</ele>
        <time>2025-03-23T11:31:07Z</time>
      </trkpt>
      <trkpt lat="43.67832" lon="1.36739">
        <ele>141</ele>
        <time>2025-03-23T11:31:08Z</time>
      </trkpt>
      <trkpt lat="43.6783" lon="1.3674">
        <ele>141</ele>
        <time>2025-03-23T11:31:09Z</time>
      </trkpt>
      <trkpt lat="43.67828" lon="1.36741">
        <ele>141</ele>
        <time>2025-03-23T11:31:10Z</time>
      </trkpt>
      <trkpt lat="43.67825" lon="1.36743">
        <ele>141</ele>
        <time>2025-03-23T11:31:11Z</time>
      </trkpt>
      <trkpt lat="43.67823" lon="1.36744">
        <ele>141</ele>
        <time>2025-03-23T11:31:12Z</time>
      </trkpt>
      <trkpt lat="43.6782" lon="1.36745">
        <ele>141</ele>
        <time>2025-03-23T11:31:13Z</time>
      </trkpt>
      <trkpt lat="43.67817" lon="1.36745">
        <ele>141</ele>
        <time>2025-03-23T11:31:14Z</time>
      </trkpt>
      <trkpt lat="43.67815" lon="1.36746">
        <ele>141</ele>
        <time>2025-03-23T11:31:15Z</time>
      </trkpt>
      <trkpt lat="43.67812" lon="1.36747">
        <ele>141</ele>
        <time>2025-03-23T11:31:16Z</time>
      </trkpt>
      <trkpt lat="43.6781" lon="1.36748">
        <ele>141</ele>
        <time>2025-03-23T11:31:17Z</time>
      </trkpt>
      <trkpt lat="43.67806" lon="1.36749">
        <ele>141</ele>
        <time>2025-03-23T11:31:18Z</time>
      </trkpt>
      <trkpt lat="43.67805" lon="1.3675">
        <ele>141</ele>
        <time>2025-03-23T11:31:19Z</time>
      </trkpt>
      <trkpt lat="43.67801" lon="1.36752">
        <ele>141</ele>
        <time>2025-03-23T11:31:20Z</time>
      </trkpt>
      <trkpt lat="43.67799" lon="1.36753">
        <ele>141</ele>
        <time>2025-03-23T11:31:21Z</time>
      </trkpt>
      <trkpt lat="43.67796" lon="1.36755">
        <ele>141</ele>
        <time>2025-03-23T11:31:22Z</time>
      </trkpt>
      <trkpt lat="43.67794" lon="1.36755">
        <ele>141</ele>
        <time>2025-03-23T11:31:23Z</time>
      </trkpt>
      <trkpt lat="43.67792" lon="1.36757">
        <ele>141</ele>
        <time>2025-03-23T11:31:24Z</time>
      </trkpt>
      <trkpt lat="43.6779" lon="1.36758">
        <ele>140</ele>
        <time>2025-03-23T11:31:25Z</time>
      </trkpt>
      <trkpt lat="43.67787" lon="1.36759">
        <ele>140</ele>
        <time>2025-03-23T11:31:26Z</time>
      </trkpt>
      <trkpt lat="43.67784" lon="1.36761">
        <ele>140</ele>
        <time>2025-03-23T11:31:27Z</time>
      </trkpt>
      <trkpt lat="43.67782" lon="1.36762">
        <ele>140</ele>
        <time>2025-03-23T11:31:28Z</time>
      </trkpt>
      <trkpt lat="43.67779" lon="1.36763">
        <ele>140</ele>
        <time>2025-03-23T11:31:29Z</time>
      </trkpt>
      <trkpt lat="43.67777" lon="1.36763">
        <ele>140</ele>
        <time>2025-03-23T11:31:30Z</time>
      </trkpt>
      <trkpt lat="43.67774" lon="1.36764">
        <ele>140</ele>
        <time>2025-03-23T11:31:31Z</time>
      </trkpt>
      <trkpt lat="43.67772" lon="1.36765">
        <ele>141</ele>
        <time>2025-03-23T11:31:32Z</time>
      </trkpt>
      <trkpt lat="43.67768" lon="1.36766">
        <ele>141</ele>
        <time>2025-03-23T11:31:33Z</time>
      </trkpt>
      <trkpt lat="43.67767" lon="1.36767">
        <ele>141</ele>
        <time>2025-03-23T11:31:34Z</time>
      </trkpt>
      <trkpt lat="43.67764" lon="1.36767">
        <ele>141</ele>
        <time>2025-03-23T11:31:35Z</time>
      </trkpt>
      <trkpt lat="43.67762" lon="1.36768">
        <ele>141</ele>
        <time>2025-03-23T11:31:36Z</time>
      </trkpt>
      <trkpt lat="43.6776" lon="1.36769">
        <ele>141</ele>
        <time>2025-03-23T11:31:37Z</time>
      </trkpt>
      <trkpt lat="43.67757" lon="1.3677">
        <ele>141</ele>
        <time>2025-03-23T11:31:38Z</time>
      </trkpt>
      <trkpt lat="43.67753" lon="1.36771">
        <ele>141</ele>
        <time>2025-03-23T11:31:39Z</time>
      </trkpt>
      <trkpt lat="43.67751" lon="1.36771">
        <ele>140</ele>
        <time>2025-03-23T11:31:40Z</time>
      </trkpt>
      <trkpt lat="43.67747" lon="1.36771">
        <ele>140</ele>
        <time>2025-03-23T11:31:41Z</time>
      </trkpt>
      <trkpt lat="43.67746" lon="1.36771">
        <ele>141</ele>
        <time>2025-03-23T11:31:42Z</time>
      </trkpt>
      <trkpt lat="43.67743" lon="1.36771">
        <ele>141</ele>
        <time>2025-03-23T11:31:43Z</time>
      </trkpt>
      <trkpt lat="43.6774" lon="1.36771">
        <ele>141</ele>
        <time>2025-03-23T11:31:44Z</time>
      </trkpt>
      <trkpt lat="43.67737" lon="1.3677">
        <ele>140</ele>
        <time>2025-03-23T11:31:45Z</time>
      </trkpt>
      <trkpt lat="43.67735" lon="1.3677">
        <ele>141</ele>
        <time>2025-03-23T11:31:46Z</time>
      </trkpt>
      <trkpt lat="43.67733" lon="1.36771">
        <ele>141</ele>
        <time>2025-03-23T11:31:47Z</time>
      </trkpt>
      <trkpt lat="43.6773" lon="1.36771">
        <ele>142</ele>
        <time>2025-03-23T11:31:48Z</time>
      </trkpt>
      <trkpt lat="43.67727" lon="1.36772">
        <ele>142</ele>
        <time>2025-03-23T11:31:49Z</time>
      </trkpt>
      <trkpt lat="43.67724" lon="1.36772">
        <ele>141</ele>
        <time>2025-03-23T11:31:50Z</time>
      </trkpt>
      <trkpt lat="43.6772" lon="1.36771">
        <ele>141</ele>
        <time>2025-03-23T11:31:51Z</time>
      </trkpt>
      <trkpt lat="43.67719" lon="1.36771">
        <ele>140</ele>
        <time>2025-03-23T11:31:52Z</time>
      </trkpt>
      <trkpt lat="43.67717" lon="1.36771">
        <ele>140</ele>
        <time>2025-03-23T11:31:53Z</time>
      </trkpt>
      <trkpt lat="43.67714" lon="1.36771">
        <ele>140</ele>
        <time>2025-03-23T11:31:54Z</time>
      </trkpt>
      <trkpt lat="43.67712" lon="1.36771">
        <ele>140</ele>
        <time>2025-03-23T11:31:55Z</time>
      </trkpt>
      <trkpt lat="43.67709" lon="1.36771">
        <ele>140</ele>
        <time>2025-03-23T11:31:56Z</time>
      </trkpt>
      <trkpt lat="43.67706" lon="1.36771">
        <ele>141</ele>
        <time>2025-03-23T11:31:57Z</time>
      </trkpt>
      <trkpt lat="43.67702" lon="1.36771">
        <ele>141</ele>
        <time>2025-03-23T11:31:58Z</time>
      </trkpt>
      <trkpt lat="43.67701" lon="1.36771">
        <ele>141</ele>
        <time>2025-03-23T11:31:59Z</time>
      </trkpt>
      <trkpt lat="43.67697" lon="1.36771">
        <ele>141</ele>
        <time>2025-03-23T11:32:00Z</time>
      </trkpt>
      <trkpt lat="43.67696" lon="1.36771">
        <ele>141</ele>
        <time>2025-03-23T11:32:01Z</time>
      </trkpt>
      <trkpt lat="43.67693" lon="1.36771">
        <ele>141</ele>
        <time>2025-03-23T11:32:02Z</time>
      </trkpt>
      <trkpt lat="43.6769" lon="1.36772">
        <ele>141</ele>
        <time>2025-03-23T11:32:03Z</time>
      </trkpt>
      <trkpt lat="43.67689" lon="1.36772">
        <ele>141</ele>
        <time>2025-03-23T11:32:04Z</time>
      </trkpt>
      <trkpt lat="43.67686" lon="1.36772">
        <ele>140</ele>
        <time>2025-03-23T11:32:05Z</time>
      </trkpt>
      <trkpt lat="43.67684" lon="1.36772">
        <ele>140</ele>
        <time>2025-03-23T11:32:06Z</time>
      </trkpt>
      <trkpt lat="43.67679" lon="1.36773">
        <ele>140</ele>
        <time>2025-03-23T11:32:08Z</time>
      </trkpt>
      <trkpt lat="43.67676" lon="1.36773">
        <ele>140</ele>
        <time>2025-03-23T11:32:09Z</time>
      </trkpt>
      <trkpt lat="43.67674" lon="1.36773">
        <ele>140</ele>
        <time>2025-03-23T11:32:10Z</time>
      </trkpt>
      <trkpt lat="43.67671" lon="1.36773">
        <ele>140</ele>
        <time>2025-03-23T11:32:11Z</time>
      </trkpt>
      <trkpt lat="43.67667" lon="1.36773">
        <ele>140</ele>
        <time>2025-03-23T11:32:12Z</time>
      </trkpt>
      <trkpt lat="43.67666" lon="1.36773">
        <ele>140</ele>
        <time>2025-03-23T11:32:13Z</time>
      </trkpt>
      <trkpt lat="43.67663" lon="1.36772">
        <ele>140</ele>
        <time>2025-03-23T11:32:14Z</time>
      </trkpt>
      <trkpt lat="43.67661" lon="1.36772">
        <ele>140</ele>
        <time>2025-03-23T11:32:15Z</time>
      </trkpt>
      <trkpt lat="43.67658" lon="1.36772">
        <ele>140</ele>
        <time>2025-03-23T11:32:16Z</time>
      </trkpt>
      <trkpt lat="43.67656" lon="1.36772">
        <ele>140</ele>
        <time>2025-03-23T11:32:17Z</time>
      </trkpt>
      <trkpt lat="43.67653" lon="1.36771">
        <ele>140</ele>
        <time>2025-03-23T11:32:18Z</time>
      </trkpt>
      <trkpt lat="43.6765" lon="1.36771">
        <ele>140</ele>
        <time>2025-03-23T11:32:19Z</time>
      </trkpt>
      <trkpt lat="43.67648" lon="1.36771">
        <ele>141</ele>
        <time>2025-03-23T11:32:20Z</time>
      </trkpt>
      <trkpt lat="43.67645" lon="1.36771">
        <ele>141</ele>
        <time>2025-03-23T11:32:21Z</time>
      </trkpt>
      <trkpt lat="43.67642" lon="1.36771">
        <ele>141</ele>
        <time>2025-03-23T11:32:22Z</time>
      </trkpt>
      <trkpt lat="43.67638" lon="1.36772">
        <ele>141</ele>
        <time>2025-03-23T11:32:23Z</time>
      </trkpt>
      <trkpt lat="43.67637" lon="1.36772">
        <ele>141</ele>
        <time>2025-03-23T11:32:24Z</time>
      </trkpt>
      <trkpt lat="43.67634" lon="1.36772">
        <ele>141</ele>
        <time>2025-03-23T11:32:25Z</time>
      </trkpt>
      <trkpt lat="43.67632" lon="1.36773">
        <ele>140</ele>
        <time>2025-03-23T11:32:26Z</time>
      </trkpt>
      <trkpt lat="43.67629" lon="1.36774">
        <ele>140</ele>
        <time>2025-03-23T11:32:27Z</time>
      </trkpt>
      <trkpt lat="43.67627" lon="1.36774">
        <ele>140</ele>
        <time>2025-03-23T11:32:28Z</time>
      </trkpt>
      <trkpt lat="43.67624" lon="1.36775">
        <ele>140</ele>
        <time>2025-03-23T11:32:29Z</time>
      </trkpt>
      <trkpt lat="43.67621" lon="1.36775">
        <ele>140</ele>
        <time>2025-03-23T11:32:30Z</time>
      </trkpt>
      <trkpt lat="43.67619" lon="1.36776">
        <ele>140</ele>
        <time>2025-03-23T11:32:31Z</time>
      </trkpt>
      <trkpt lat="43.67616" lon="1.36776">
        <ele>140</ele>
        <time>2025-03-23T11:32:32Z</time>
      </trkpt>
      <trkpt lat="43.67613" lon="1.36777">
        <ele>140</ele>
        <time>2025-03-23T11:32:33Z</time>
      </trkpt>
      <trkpt lat="43.67611" lon="1.36778">
        <ele>140</ele>
        <time>2025-03-23T11:32:34Z</time>
      </trkpt>
      <trkpt lat="43.67608" lon="1.36778">
        <ele>140</ele>
        <time>2025-03-23T11:32:35Z</time>
      </trkpt>
      <trkpt lat="43.67606" lon="1.36778">
        <ele>140</ele>
        <time>2025-03-23T11:32:36Z</time>
      </trkpt>
      <trkpt lat="43.67603" lon="1.36779">
        <ele>140</ele>
        <time>2025-03-23T11:32:37Z</time>
      </trkpt>
      <trkpt lat="43.67601" lon="1.36779">
        <ele>140</ele>
        <time>2025-03-23T11:32:38Z</time>
      </trkpt>
      <trkpt lat="43.67598" lon="1.3678">
        <ele>140</ele>
        <time>2025-03-23T11:32:39Z</time>
      </trkpt>
      <trkpt lat="43.67595" lon="1.3678">
        <ele>140</ele>
        <time>2025-03-23T11:32:40Z</time>
      </trkpt>
      <trkpt lat="43.67593" lon="1.36781">
        <ele>140</ele>
        <time>2025-03-23T11:32:41Z</time>
      </trkpt>
      <trkpt lat="43.6759" lon="1.36781">
        <ele>140</ele>
        <time>2025-03-23T11:32:42Z</time>
      </trkpt>
      <trkpt lat="43.67588" lon="1.36782">
        <ele>140</ele>
        <time>2025-03-23T11:32:43Z</time>
      </trkpt>
      <trkpt lat="43.67585" lon="1.36782">
        <ele>140</ele>
        <time>2025-03-23T11:32:44Z</time>
      </trkpt>
      <trkpt lat="43.67582" lon="1.36783">
        <ele>140</ele>
        <time>2025-03-23T11:32:45Z</time>
      </trkpt>
      <trkpt lat="43.6758" lon="1.36783">
        <ele>140</ele>
        <time>2025-03-23T11:32:46Z</time>
      </trkpt>
      <trkpt lat="43.67577" lon="1.36783">
        <ele>140</ele>
        <time>2025-03-23T11:32:47Z</time>
      </trkpt>
      <trkpt lat="43.67575" lon="1.36784">
        <ele>140</ele>
        <time>2025-03-23T11:32:48Z</time>
      </trkpt>
      <trkpt lat="43.67572" lon="1.36785">
        <ele>140</ele>
        <time>2025-03-23T11:32:49Z</time>
      </trkpt>
      <trkpt lat="43.6757" lon="1.36786">
        <ele>140</ele>
        <time>2025-03-23T11:32:50Z</time>
      </trkpt>
      <trkpt lat="43.67568" lon="1.36788">
        <ele>140</ele>
        <time>2025-03-23T11:32:51Z</time>
      </trkpt>
      <trkpt lat="43.67565" lon="1.3679">
        <ele>139</ele>
        <time>2025-03-23T11:32:52Z</time>
      </trkpt>
      <trkpt lat="43.67563" lon="1.36792">
        <ele>139</ele>
        <time>2025-03-23T11:32:53Z</time>
      </trkpt>
      <trkpt lat="43.67562" lon="1.36795">
        <ele>139</ele>
        <time>2025-03-23T11:32:54Z</time>
      </trkpt>
      <trkpt lat="43.6756" lon="1.36797">
        <ele>139</ele>
        <time>2025-03-23T11:32:55Z</time>
      </trkpt>
      <trkpt lat="43.67555" lon="1.36798">
        <ele>140</ele>
        <time>2025-03-23T11:32:56Z</time>
      </trkpt>
      <trkpt lat="43.67554" lon="1.36798">
        <ele>140</ele>
        <time>2025-03-23T11:32:57Z</time>
      </trkpt>
      <trkpt lat="43.67552" lon="1.36799">
        <ele>140</ele>
        <time>2025-03-23T11:32:58Z</time>
      </trkpt>
      <trkpt lat="43.67549" lon="1.36799">
        <ele>140</ele>
        <time>2025-03-23T11:32:59Z</time>
      </trkpt>
      <trkpt lat="43.67546" lon="1.36799">
        <ele>140</ele>
        <time>2025-03-23T11:33:00Z</time>
      </trkpt>
      <trkpt lat="43.67544" lon="1.368">
        <ele>140</ele>
        <time>2025-03-23T11:33:01Z</time>
      </trkpt>
      <trkpt lat="43.67541" lon="1.368">
        <ele>139</ele>
        <time>2025-03-23T11:33:02Z</time>
      </trkpt>
      <trkpt lat="43.67538" lon="1.36801">
        <ele>139</ele>
        <time>2025-03-23T11:33:03Z</time>
      </trkpt>
      <trkpt lat="43.67536" lon="1.36802">
        <ele>139</ele>
        <time>2025-03-23T11:33:04Z</time>
      </trkpt>
      <trkpt lat="43.67533" lon="1.36802">
        <ele>139</ele>
        <time>2025-03-23T11:33:05Z</time>
      </trkpt>
      <trkpt lat="43.67531" lon="1.36803">
        <ele>139</ele>
        <time>2025-03-23T11:33:06Z</time>
      </trkpt>
      <trkpt lat="43.67528" lon="1.36803">
        <ele>140</ele>
        <time>2025-03-23T11:33:07Z</time>
      </trkpt>
      <trkpt lat="43.67525" lon="1.36804">
        <ele>140</ele>
        <time>2025-03-23T11:33:08Z</time>
      </trkpt>
      <trkpt lat="43.67523" lon="1.36805">
        <ele>140</ele>
        <time>2025-03-23T11:33:09Z</time>
      </trkpt>
      <trkpt lat="43.67521" lon="1.36805">
        <ele>140</ele>
        <time>2025-03-23T11:33:10Z</time>
      </trkpt>
      <trkpt lat="43.67517" lon="1.36805">
        <ele>140</ele>
        <time>2025-03-23T11:33:11Z</time>
      </trkpt>
      <trkpt lat="43.67516" lon="1.36806">
        <ele>140</ele>
        <time>2025-03-23T11:33:12Z</time>
      </trkpt>
      <trkpt lat="43.67513" lon="1.36806">
        <ele>140</ele>
        <time>2025-03-23T11:33:13Z</time>
      </trkpt>
      <trkpt lat="43.67511" lon="1.36806">
        <ele>140</ele>
        <time>2025-03-23T11:33:14Z</time>
      </trkpt>
      <trkpt lat="43.67508" lon="1.36807">
        <ele>140</ele>
        <time>2025-03-23T11:33:15Z</time>
      </trkpt>
      <trkpt lat="43.67506" lon="1.36808">
        <ele>140</ele>
        <time>2025-03-23T11:33:16Z</time>
      </trkpt>
      <trkpt lat="43.67503" lon="1.36808">
        <ele>141</ele>
        <time>2025-03-23T11:33:17Z</time>
      </trkpt>
      <trkpt lat="43.67501" lon="1.36809">
        <ele>141</ele>
        <time>2025-03-23T11:33:18Z</time>
      </trkpt>
      <trkpt lat="43.67498" lon="1.36809">
        <ele>141</ele>
        <time>2025-03-23T11:33:19Z</time>
      </trkpt>
      <trkpt lat="43.67495" lon="1.3681">
        <ele>141</ele>
        <time>2025-03-23T11:33:20Z</time>
      </trkpt>
      <trkpt lat="43.67493" lon="1.3681">
        <ele>141</ele>
        <time>2025-03-23T11:33:21Z</time>
      </trkpt>
      <trkpt lat="43.6749" lon="1.36811">
        <ele>141</ele>
        <time>2025-03-23T11:33:22Z</time>
      </trkpt>
      <trkpt lat="43.67488" lon="1.36811">
        <ele>141</ele>
        <time>2025-03-23T11:33:23Z</time>
      </trkpt>
      <trkpt lat="43.67485" lon="1.36812">
        <ele>141</ele>
        <time>2025-03-23T11:33:24Z</time>
      </trkpt>
      <trkpt lat="43.67483" lon="1.36812">
        <ele>141</ele>
        <time>2025-03-23T11:33:25Z</time>
      </trkpt>
      <trkpt lat="43.6748" lon="1.36812">
        <ele>141</ele>
        <time>2025-03-23T11:33:26Z</time>
      </trkpt>
      <trkpt lat="43.67477" lon="1.36812">
        <ele>140</ele>
        <time>2025-03-23T11:33:27Z</time>
      </trkpt>
      <trkpt lat="43.67475" lon="1.36813">
        <ele>140</ele>
        <time>2025-03-23T11:33:28Z</time>
      </trkpt>
      <trkpt lat="43.67472" lon="1.36814">
        <ele>140</ele>
        <time>2025-03-23T11:33:29Z</time>
      </trkpt>
      <trkpt lat="43.6747" lon="1.36814">
        <ele>140</ele>
        <time>2025-03-23T11:33:30Z</time>
      </trkpt>
      <trkpt lat="43.67467" lon="1.36814">
        <ele>140</ele>
        <time>2025-03-23T11:33:31Z</time>
      </trkpt>
      <trkpt lat="43.67465" lon="1.36815">
        <ele>141</ele>
        <time>2025-03-23T11:33:32Z</time>
      </trkpt>
      <trkpt lat="43.67462" lon="1.36815">
        <ele>141</ele>
        <time>2025-03-23T11:33:33Z</time>
      </trkpt>
      <trkpt lat="43.67459" lon="1.36815">
        <ele>141</ele>
        <time>2025-03-23T11:33:34Z</time>
      </trkpt>
      <trkpt lat="43.67457" lon="1.36815">
        <ele>141</ele>
        <time>2025-03-23T11:33:35Z</time>
      </trkpt>
      <trkpt lat="43.67454" lon="1.36816">
        <ele>141</ele>
        <time>2025-03-23T11:33:36Z</time>
      </trkpt>
      <trkpt lat="43.67451" lon="1.36816">
        <ele>141</ele>
        <time>2025-03-23T11:33:37Z</time>
      </trkpt>
      <trkpt lat="43.67448" lon="1.36816">
        <ele>141</ele>
        <time>2025-03-23T11:33:38Z</time>
      </trkpt>
      <trkpt lat="43.67444" lon="1.36817">
        <ele>141</ele>
        <time>2025-03-23T11:33:39Z</time>
      </trkpt>
      <trkpt lat="43.67443" lon="1.36817">
        <ele>141</ele>
        <time>2025-03-23T11:33:40Z</time>
      </trkpt>
      <trkpt lat="43.6744" lon="1.36817">
        <ele>141</ele>
        <time>2025-03-23T11:33:41Z</time>
      </trkpt>
      <trkpt lat="43.67437" lon="1.36817">
        <ele>141</ele>
        <time>2025-03-23T11:33:42Z</time>
      </trkpt>
      <trkpt lat="43.67434" lon="1.36817">
        <ele>141</ele>
        <time>2025-03-23T11:33:43Z</time>
      </trkpt>
      <trkpt lat="43.67432" lon="1.36817">
        <ele>141</ele>
        <time>2025-03-23T11:33:44Z</time>
      </trkpt>
      <trkpt lat="43.67429" lon="1.36817">
        <ele>141</ele>
        <time>2025-03-23T11:33:45Z</time>
      </trkpt>
      <trkpt lat="43.67426" lon="1.36817">
        <ele>141</ele>
        <time>2025-03-23T11:33:46Z</time>
      </trkpt>
      <trkpt lat="43.67423" lon="1.36817">
        <ele>141</ele>
        <time>2025-03-23T11:33:47Z</time>
      </trkpt>
      <trkpt lat="43.67421" lon="1.36817">
        <ele>141</ele>
        <time>2025-03-23T11:33:48Z</time>
      </trkpt>
      <trkpt lat="43.67418" lon="1.36817">
        <ele>141</ele>
        <time>2025-03-23T11:33:49Z</time>
      </trkpt>
      <trkpt lat="43.67415" lon="1.36817">
        <ele>141</ele>
        <time>2025-03-23T11:33:50Z</time>
      </trkpt>
      <trkpt lat="43.67412" lon="1.36816">
        <ele>141</ele>
        <time>2025-03-23T11:33:51Z</time>
      </trkpt>
      <trkpt lat="43.6741" lon="1.36816">
        <ele>141</ele>
        <time>2025-03-23T11:33:52Z</time>
      </trkpt>
      <trkpt lat="43.67407" lon="1.36816">
        <ele>141</ele>
        <time>2025-03-23T11:33:53Z</time>
      </trkpt>
      <trkpt lat="43.67405" lon="1.36815">
        <ele>140</ele>
        <time>2025-03-23T11:33:54Z</time>
      </trkpt>
      <trkpt lat="43.67402" lon="1.36815">
        <ele>140</ele>
        <time>2025-03-23T11:33:55Z</time>
      </trkpt>
      <trkpt lat="43.67399" lon="1.36815">
        <ele>140</ele>
        <time>2025-03-23T11:33:56Z</time>
      </trkpt>
      <trkpt lat="43.67397" lon="1.36815">
        <ele>140</ele>
        <time>2025-03-23T11:33:57Z</time>
      </trkpt>
      <trkpt lat="43.67394" lon="1.36814">
        <ele>140</ele>
        <time>2025-03-23T11:33:58Z</time>
      </trkpt>
      <trkpt lat="43.67392" lon="1.36814">
        <ele>141</ele>
        <time>2025-03-23T11:33:59Z</time>
      </trkpt>
      <trkpt lat="43.67389" lon="1.36813">
        <ele>140</ele>
        <time>2025-03-23T11:34:00Z</time>
      </trkpt>
      <trkpt lat="43.67386" lon="1.36813">
        <ele>140</ele>
        <time>2025-03-23T11:34:01Z</time>
      </trkpt>
      <trkpt lat="43.67384" lon="1.36812">
        <ele>140</ele>
        <time>2025-03-23T11:34:02Z</time>
      </trkpt>
      <trkpt lat="43.67381" lon="1.36812">
        <ele>140</ele>
        <time>2025-03-23T11:34:03Z</time>
      </trkpt>
      <trkpt lat="43.67378" lon="1.36811">
        <ele>140</ele>
        <time>2025-03-23T11:34:04Z</time>
      </trkpt>
      <trkpt lat="43.67376" lon="1.36811">
        <ele>140</ele>
        <time>2025-03-23T11:34:05Z</time>
      </trkpt>
      <trkpt lat="43.67373" lon="1.3681">
        <ele>140</ele>
        <time>2025-03-23T11:34:06Z</time>
      </trkpt>
      <trkpt lat="43.67371" lon="1.36809">
        <ele>140</ele>
        <time>2025-03-23T11:34:07Z</time>
      </trkpt>
      <trkpt lat="43.67368" lon="1.36809">
        <ele>140</ele>
        <time>2025-03-23T11:34:08Z</time>
      </trkpt>
      <trkpt lat="43.67366" lon="1.36808">
        <ele>140</ele>
        <time>2025-03-23T11:34:09Z</time>
      </trkpt>
      <trkpt lat="43.67363" lon="1.36807">
        <ele>140</ele>
        <time>2025-03-23T11:34:10Z</time>
      </trkpt>
      <trkpt lat="43.67361" lon="1.36806">
        <ele>140</ele>
        <time>2025-03-23T11:34:11Z</time>
      </trkpt>
      <trkpt lat="43.67356" lon="1.36804">
        <ele>140</ele>
        <time>2025-03-23T11:34:12Z</time>
      </trkpt>
      <trkpt lat="43.67355" lon="1.36804">
        <ele>140</ele>
        <time>2025-03-23T11:34:13Z</time>
      </trkpt>
      <trkpt lat="43.67353" lon="1.36803">
        <ele>140</ele>
        <time>2025-03-23T11:34:14Z</time>
      </trkpt>
      <trkpt lat="43.67349" lon="1.36801">
        <ele>140</ele>
        <time>2025-03-23T11:34:15Z</time>
      </trkpt>
      <trkpt lat="43.67348" lon="1.36801">
        <ele>139</ele>
        <time>2025-03-23T11:34:16Z</time>
      </trkpt>
      <trkpt lat="43.67345" lon="1.368">
        <ele>139</ele>
        <time>2025-03-23T11:34:17Z</time>
      </trkpt>
      <trkpt lat="43.67343" lon="1.36799">
        <ele>139</ele>
        <time>2025-03-23T11:34:18Z</time>
      </trkpt>
      <trkpt lat="43.6734" lon="1.36798">
        <ele>140</ele>
        <time>2025-03-23T11:34:19Z</time>
      </trkpt>
      <trkpt lat="43.67337" lon="1.36797">
        <ele>140</ele>
        <time>2025-03-23T11:34:20Z</time>
      </trkpt>
      <trkpt lat="43.67335" lon="1.36796">
        <ele>140</ele>
        <time>2025-03-23T11:34:21Z</time>
      </trkpt>
      <trkpt lat="43.67331" lon="1.36795">
        <ele>140</ele>
        <time>2025-03-23T11:34:22Z</time>
      </trkpt>
      <trkpt lat="43.6733" lon="1.36794">
        <ele>140</ele>
        <time>2025-03-23T11:34:23Z</time>
      </trkpt>
      <trkpt lat="43.67327" lon="1.36793">
        <ele>140</ele>
        <time>2025-03-23T11:34:24Z</time>
      </trkpt>
      <trkpt lat="43.67324" lon="1.36791">
        <ele>140</ele>
        <time>2025-03-23T11:34:25Z</time>
      </trkpt>
      <trkpt lat="43.67323" lon="1.3679">
        <ele>140</ele>
        <time>2025-03-23T11:34:26Z</time>
      </trkpt>
      <trkpt lat="43.6732" lon="1.36788">
        <ele>140</ele>
        <time>2025-03-23T11:34:27Z</time>
      </trkpt>
      <trkpt lat="43.67318" lon="1.36786">
        <ele>139</ele>
        <time>2025-03-23T11:34:28Z</time>
      </trkpt>
      <trkpt lat="43.67316" lon="1.36784">
        <ele>139</ele>
        <time>2025-03-23T11:34:29Z</time>
      </trkpt>
      <trkpt lat="43.67314" lon="1.36783">
        <ele>139</ele>
        <time>2025-03-23T11:34:30Z</time>
      </trkpt>
      <trkpt lat="43.67312" lon="1.36781">
        <ele>139</ele>
        <time>2025-03-23T11:34:31Z</time>
      </trkpt>
      <trkpt lat="43.67309" lon="1.3678">
        <ele>139</ele>
        <time>2025-03-23T11:34:32Z</time>
      </trkpt>
      <trkpt lat="43.67307" lon="1.36779">
        <ele>140</ele>
        <time>2025-03-23T11:34:33Z</time>
      </trkpt>
      <trkpt lat="43.67304" lon="1.36778">
        <ele>140</ele>
        <time>2025-03-23T11:34:34Z</time>
      </trkpt>
      <trkpt lat="43.67302" lon="1.36777">
        <ele>140</ele>
        <time>2025-03-23T11:34:35Z</time>
      </trkpt>
      <trkpt lat="43.67298" lon="1.36776">
        <ele>140</ele>
        <time>2025-03-23T11:34:36Z</time>
      </trkpt>
      <trkpt lat="43.67297" lon="1.36776">
        <ele>140</ele>
        <time>2025-03-23T11:34:37Z</time>
      </trkpt>
      <trkpt lat="43.67295" lon="1.36776">
        <ele>139</ele>
        <time>2025-03-23T11:34:38Z</time>
      </trkpt>
      <trkpt lat="43.67293" lon="1.36775">
        <ele>139</ele>
        <time>2025-03-23T11:34:39Z</time>
      </trkpt>
      <trkpt lat="43.67291" lon="1.36775">
        <ele>139</ele>
        <time>2025-03-23T11:34:40Z</time>
      </trkpt>
      <trkpt lat="43.67289" lon="1.36775">
        <ele>139</ele>
        <time>2025-03-23T11:34:41Z</time>
      </trkpt>
      <trkpt lat="43.67287" lon="1.36774">
        <ele>139</ele>
        <time>2025-03-23T11:34:42Z</time>
      </trkpt>
      <trkpt lat="43.67285" lon="1.36773">
        <ele>139</ele>
        <time>2025-03-23T11:34:43Z</time>
      </trkpt>
      <trkpt lat="43.67285" lon="1.36773">
        <ele>139</ele>
        <time>2025-03-23T11:34:44Z</time>
      </trkpt>
      <trkpt lat="43.67282" lon="1.36773">
        <ele>139</ele>
        <time>2025-03-23T11:34:45Z</time>
      </trkpt>
      <trkpt lat="43.67282" lon="1.36773">
        <ele>139</ele>
        <time>2025-03-23T11:34:46Z</time>
      </trkpt>
      <trkpt lat="43.67279" lon="1.36771">
        <ele>139</ele>
        <time>2025-03-23T11:34:47Z</time>
      </trkpt>
      <trkpt lat="43.67277" lon="1.3677">
        <ele>139</ele>
        <time>2025-03-23T11:34:48Z</time>
      </trkpt>
      <trkpt lat="43.67277" lon="1.3677">
        <ele>139</ele>
        <time>2025-03-23T11:34:49Z</time>
      </trkpt>
      <trkpt lat="43.67275" lon="1.36767">
        <ele>140</ele>
        <time>2025-03-23T11:34:50Z</time>
      </trkpt>
      <trkpt lat="43.67272" lon="1.36765">
        <ele>140</ele>
        <time>2025-03-23T11:34:52Z</time>
      </trkpt>
      <trkpt lat="43.67272" lon="1.36765">
        <ele>140</ele>
        <time>2025-03-23T11:34:53Z</time>
      </trkpt>
      <trkpt lat="43.6727" lon="1.36764">
        <ele>140</ele>
        <time>2025-03-23T11:34:54Z</time>
      </trkpt>
      <trkpt lat="43.6727" lon="1.36764">
        <ele>139</ele>
        <time>2025-03-23T11:34:55Z</time>
      </trkpt>
      <trkpt lat="43.67267" lon="1.36763">
        <ele>139</ele>
        <time>2025-03-23T11:34:56Z</time>
      </trkpt>
      <trkpt lat="43.67267" lon="1.36763">
        <ele>139</ele>
        <time>2025-03-23T11:34:57Z</time>
      </trkpt>
      <trkpt lat="43.67264" lon="1.36762">
        <ele>139</ele>
        <time>2025-03-23T11:34:58Z</time>
      </trkpt>
      <trkpt lat="43.67264" lon="1.36762">
        <ele>139</ele>
        <time>2025-03-23T11:34:59Z</time>
      </trkpt>
      <trkpt lat="43.67261" lon="1.3676">
        <ele>139</ele>
        <time>2025-03-23T11:35:00Z</time>
      </trkpt>
      <trkpt lat="43.67261" lon="1.3676">
        <ele>139</ele>
        <time>2025-03-23T11:35:01Z</time>
      </trkpt>
      <trkpt lat="43.67258" lon="1.36759">
        <ele>140</ele>
        <time>2025-03-23T11:35:02Z</time>
      </trkpt>
      <trkpt lat="43.67258" lon="1.36759">
        <ele>140</ele>
        <time>2025-03-23T11:35:03Z</time>
      </trkpt>
      <trkpt lat="43.67255" lon="1.36757">
        <ele>140</ele>
        <time>2025-03-23T11:35:04Z</time>
      </trkpt>
      <trkpt lat="43.67255" lon="1.36757">
        <ele>140</ele>
        <time>2025-03-23T11:35:05Z</time>
      </trkpt>
      <trkpt lat="43.67252" lon="1.36756">
        <ele>139</ele>
        <time>2025-03-23T11:35:06Z</time>
      </trkpt>
      <trkpt lat="43.67252" lon="1.36756">
        <ele>140</ele>
        <time>2025-03-23T11:35:07Z</time>
      </trkpt>
      <trkpt lat="43.6725" lon="1.36756">
        <ele>140</ele>
        <time>2025-03-23T11:35:08Z</time>
      </trkpt>
      <trkpt lat="43.6725" lon="1.36756">
        <ele>140</ele>
        <time>2025-03-23T11:35:09Z</time>
      </trkpt>
      <trkpt lat="43.67248" lon="1.36755">
        <ele>139</ele>
        <time>2025-03-23T11:35:11Z</time>
      </trkpt>
      <trkpt lat="43.67244" lon="1.36753">
        <ele>139</ele>
        <time>2025-03-23T11:35:12Z</time>
      </trkpt>
      <trkpt lat="43.67244" lon="1.36753">
        <ele>139</ele>
        <time>2025-03-23T11:35:13Z</time>
      </trkpt>
      <trkpt lat="43.67241" lon="1.36752">
        <ele>140</ele>
        <time>2025-03-23T11:35:14Z</time>
      </trkpt>
      <trkpt lat="43.67241" lon="1.36752">
        <ele>140</ele>
        <time>2025-03-23T11:35:15Z</time>
      </trkpt>
      <trkpt lat="43.67238" lon="1.36751">
        <ele>140</ele>
        <time>2025-03-23T11:35:16Z</time>
      </trkpt>
      <trkpt lat="43.67238" lon="1.36751">
        <ele>140</ele>
        <time>2025-03-23T11:35:17Z</time>
      </trkpt>
      <trkpt lat="43.67235" lon="1.3675">
        <ele>140</ele>
        <time>2025-03-23T11:35:18Z</time>
      </trkpt>
      <trkpt lat="43.67235" lon="1.3675">
        <ele>140</ele>
        <time>2025-03-23T11:35:19Z</time>
      </trkpt>
      <trkpt lat="43.67232" lon="1.36749">
        <ele>140</ele>
        <time>2025-03-23T11:35:20Z</time>
      </trkpt>
      <trkpt lat="43.67232" lon="1.36749">
        <ele>140</ele>
        <time>2025-03-23T11:35:21Z</time>
      </trkpt>
      <trkpt lat="43.6723" lon="1.36747">
        <ele>140</ele>
        <time>2025-03-23T11:35:22Z</time>
      </trkpt>
      <trkpt lat="43.6723" lon="1.36747">
        <ele>140</ele>
        <time>2025-03-23T11:35:23Z</time>
      </trkpt>
      <trkpt lat="43.67227" lon="1.36746">
        <ele>140</ele>
        <time>2025-03-23T11:35:24Z</time>
      </trkpt>
      <trkpt lat="43.67227" lon="1.36746">
        <ele>140</ele>
        <time>2025-03-23T11:35:25Z</time>
      </trkpt>
      <trkpt lat="43.67224" lon="1.36745">
        <ele>140</ele>
        <time>2025-03-23T11:35:26Z</time>
      </trkpt>
      <trkpt lat="43.67224" lon="1.36745">
        <ele>140</ele>
        <time>2025-03-23T11:35:27Z</time>
      </trkpt>
      <trkpt lat="43.67222" lon="1.36743">
        <ele>140</ele>
        <time>2025-03-23T11:35:28Z</time>
      </trkpt>
      <trkpt lat="43.67219" lon="1.36742">
        <ele>139</ele>
        <time>2025-03-23T11:35:30Z</time>
      </trkpt>
      <trkpt lat="43.67219" lon="1.36742">
        <ele>139</ele>
        <time>2025-03-23T11:35:31Z</time>
      </trkpt>
      <trkpt lat="43.67217" lon="1.36741">
        <ele>139</ele>
        <time>2025-03-23T11:35:32Z</time>
      </trkpt>
      <trkpt lat="43.67217" lon="1.36741">
        <ele>139</ele>
        <time>2025-03-23T11:35:33Z</time>
      </trkpt>
      <trkpt lat="43.67214" lon="1.36739">
        <ele>139</ele>
        <time>2025-03-23T11:35:34Z</time>
      </trkpt>
      <trkpt lat="43.67214" lon="1.36739">
        <ele>139</ele>
        <time>2025-03-23T11:35:35Z</time>
      </trkpt>
      <trkpt lat="43.67212" lon="1.36739">
        <ele>139</ele>
        <time>2025-03-23T11:35:36Z</time>
      </trkpt>
      <trkpt lat="43.67212" lon="1.36739">
        <ele>139</ele>
        <time>2025-03-23T11:35:37Z</time>
      </trkpt>
      <trkpt lat="43.67209" lon="1.36738">
        <ele>140</ele>
        <time>2025-03-23T11:35:38Z</time>
      </trkpt>
      <trkpt lat="43.67209" lon="1.36738">
        <ele>140</ele>
        <time>2025-03-23T11:35:39Z</time>
      </trkpt>
      <trkpt lat="43.67206" lon="1.36736">
        <ele>140</ele>
        <time>2025-03-23T11:35:40Z</time>
      </trkpt>
      <trkpt lat="43.67206" lon="1.36736">
        <ele>140</ele>
        <time>2025-03-23T11:35:41Z</time>
      </trkpt>
      <trkpt lat="43.67204" lon="1.36735">
        <ele>140</ele>
        <time>2025-03-23T11:35:42Z</time>
      </trkpt>
      <trkpt lat="43.67204" lon="1.36735">
        <ele>140</ele>
        <time>2025-03-23T11:35:43Z</time>
      </trkpt>
      <trkpt lat="43.67201" lon="1.36735">
        <ele>141</ele>
        <time>2025-03-23T11:35:44Z</time>
      </trkpt>
      <trkpt lat="43.67201" lon="1.36735">
        <ele>141</ele>
        <time>2025-03-23T11:35:45Z</time>
      </trkpt>
      <trkpt lat="43.67199" lon="1.36734">
        <ele>141</ele>
        <time>2025-03-23T11:35:46Z</time>
      </trkpt>
      <trkpt lat="43.67199" lon="1.36734">
        <ele>141</ele>
        <time>2025-03-23T11:35:47Z</time>
      </trkpt>
      <trkpt lat="43.67196" lon="1.36734">
        <ele>141</ele>
        <time>2025-03-23T11:35:48Z</time>
      </trkpt>
      <trkpt lat="43.67196" lon="1.36734">
        <ele>140</ele>
        <time>2025-03-23T11:35:49Z</time>
      </trkpt>
      <trkpt lat="43.67193" lon="1.36733">
        <ele>140</ele>
        <time>2025-03-23T11:35:50Z</time>
      </trkpt>
      <trkpt lat="43.67193" lon="1.36733">
        <ele>140</ele>
        <time>2025-03-23T11:35:51Z</time>
      </trkpt>
      <trkpt lat="43.67191" lon="1.36733">
        <ele>140</ele>
        <time>2025-03-23T11:35:52Z</time>
      </trkpt>
      <trkpt lat="43.67191" lon="1.36733">
        <ele>140</ele>
        <time>2025-03-23T11:35:53Z</time>
      </trkpt>
      <trkpt lat="43.67188" lon="1.36732">
        <ele>140</ele>
        <time>2025-03-23T11:35:54Z</time>
      </trkpt>
      <trkpt lat="43.67188" lon="1.36732">
        <ele>140</ele>
        <time>2025-03-23T11:35:55Z</time>
      </trkpt>
      <trkpt lat="43.67186" lon="1.3673">
        <ele>139</ele>
        <time>2025-03-23T11:35:56Z</time>
      </trkpt>
      <trkpt lat="43.67186" lon="1.3673">
        <ele>139</ele>
        <time>2025-03-23T11:35:57Z</time>
      </trkpt>
      <trkpt lat="43.67183" lon="1.36729">
        <ele>139</ele>
        <time>2025-03-23T11:35:58Z</time>
      </trkpt>
      <trkpt lat="43.67183" lon="1.36729">
        <ele>140</ele>
        <time>2025-03-23T11:35:59Z</time>
      </trkpt>
      <trkpt lat="43.67179" lon="1.36728">
        <ele>140</ele>
        <time>2025-03-23T11:36:00Z</time>
      </trkpt>
      <trkpt lat="43.67179" lon="1.36728">
        <ele>140</ele>
        <time>2025-03-23T11:36:01Z</time>
      </trkpt>
      <trkpt lat="43.67176" lon="1.36727">
        <ele>140</ele>
        <time>2025-03-23T11:36:02Z</time>
      </trkpt>
      <trkpt lat="43.67176" lon="1.36727">
        <ele>140</ele>
        <time>2025-03-23T11:36:03Z</time>
      </trkpt>
      <trkpt lat="43.67173" lon="1.36726">
        <ele>140</ele>
        <time>2025-03-23T11:36:04Z</time>
      </trkpt>
      <trkpt lat="43.67173" lon="1.36726">
        <ele>140</ele>
        <time>2025-03-23T11:36:05Z</time>
      </trkpt>
      <trkpt lat="43.67171" lon="1.36724">
        <ele>140</ele>
        <time>2025-03-23T11:36:06Z</time>
      </trkpt>
      <trkpt lat="43.67171" lon="1.36724">
        <ele>140</ele>
        <time>2025-03-23T11:36:07Z</time>
      </trkpt>
      <trkpt lat="43.67168" lon="1.36723">
        <ele>140</ele>
        <time>2025-03-23T11:36:08Z</time>
      </trkpt>
      <trkpt lat="43.67168" lon="1.36723">
        <ele>140</ele>
        <time>2025-03-23T11:36:09Z</time>
      </trkpt>
      <trkpt lat="43.67165" lon="1.36722">
        <ele>140</ele>
        <time>2025-03-23T11:36:10Z</time>
      </trkpt>
      <trkpt lat="43.67165" lon="1.36722">
        <ele>139</ele>
        <time>2025-03-23T11:36:11Z</time>
      </trkpt>
      <trkpt lat="43.67162" lon="1.36721">
        <ele>139</ele>
        <time>2025-03-23T11:36:12Z</time>
      </trkpt>
      <trkpt lat="43.67162" lon="1.36721">
        <ele>139</ele>
        <time>2025-03-23T11:36:13Z</time>
      </trkpt>
      <trkpt lat="43.67159" lon="1.3672">
        <ele>139</ele>
        <time>2025-03-23T11:36:14Z</time>
      </trkpt>
      <trkpt lat="43.67159" lon="1.3672">
        <ele>140</ele>
        <time>2025-03-23T11:36:15Z</time>
      </trkpt>
      <trkpt lat="43.67159" lon="1.3672">
        <ele>140</ele>
        <time>2025-03-23T11:36:16Z</time>
      </trkpt>
      <trkpt lat="43.67156" lon="1.36719">
        <ele>140</ele>
        <time>2025-03-23T11:36:17Z</time>
      </trkpt>
      <trkpt lat="43.67156" lon="1.36719">
        <ele>140</ele>
        <time>2025-03-23T11:36:18Z</time>
      </trkpt>
      <trkpt lat="43.67153" lon="1.36719">
        <ele>140</ele>
        <time>2025-03-23T11:36:19Z</time>
      </trkpt>
      <trkpt lat="43.67153" lon="1.36719">
        <ele>140</ele>
        <time>2025-03-23T11:36:20Z</time>
      </trkpt>
      <trkpt lat="43.6715" lon="1.36718">
        <ele>140</ele>
        <time>2025-03-23T11:36:21Z</time>
      </trkpt>
      <trkpt lat="43.6715" lon="1.36718">
        <ele>140</ele>
        <time>2025-03-23T11:36:22Z</time>
      </trkpt>
      <trkpt lat="43.67147" lon="1.36718">
        <ele>141</ele>
        <time>2025-03-23T11:36:23Z</time>
      </trkpt>
      <trkpt lat="43.67147" lon="1.36718">
        <ele>142</ele>
        <time>2025-03-23T11:36:24Z</time>
      </trkpt>
      <trkpt lat="43.67144" lon="1.36718">
        <ele>142</ele>
        <time>2025-03-23T11:36:25Z</time>
      </trkpt>
      <trkpt lat="43.67142" lon="1.36719">
        <ele>142</ele>
        <time>2025-03-23T11:36:27Z</time>
      </trkpt>
      <trkpt lat="43.67142" lon="1.36719">
        <ele>142</ele>
        <time>2025-03-23T11:36:28Z</time>
      </trkpt>
      <trkpt lat="43.6714" lon="1.3672">
        <ele>142</ele>
        <time>2025-03-23T11:36:29Z</time>
      </trkpt>
      <trkpt lat="43.6714" lon="1.3672">
        <ele>141</ele>
        <time>2025-03-23T11:36:30Z</time>
      </trkpt>
      <trkpt lat="43.67137" lon="1.36721">
        <ele>141</ele>
        <time>2025-03-23T11:36:31Z</time>
      </trkpt>
      <trkpt lat="43.67137" lon="1.36721">
        <ele>141</ele>
        <time>2025-03-23T11:36:32Z</time>
      </trkpt>
      <trkpt lat="43.67135" lon="1.36721">
        <ele>142</ele>
        <time>2025-03-23T11:36:33Z</time>
      </trkpt>
      <trkpt lat="43.67135" lon="1.36721">
        <ele>142</ele>
        <time>2025-03-23T11:36:34Z</time>
      </trkpt>
      <trkpt lat="43.67132" lon="1.36723">
        <ele>142</ele>
        <time>2025-03-23T11:36:35Z</time>
      </trkpt>
      <trkpt lat="43.6713" lon="1.36724">
        <ele>141</ele>
        <time>2025-03-23T11:36:36Z</time>
      </trkpt>
      <trkpt lat="43.67128" lon="1.36724">
        <ele>140</ele>
        <time>2025-03-23T11:36:37Z</time>
      </trkpt>
      <trkpt lat="43.67128" lon="1.36724">
        <ele>140</ele>
        <time>2025-03-23T11:36:38Z</time>
      </trkpt>
      <trkpt lat="43.67125" lon="1.36726">
        <ele>140</ele>
        <time>2025-03-23T11:36:39Z</time>
      </trkpt>
      <trkpt lat="43.67123" lon="1.36727">
        <ele>140</ele>
        <time>2025-03-23T11:36:40Z</time>
      </trkpt>
      <trkpt lat="43.6712" lon="1.36728">
        <ele>140</ele>
        <time>2025-03-23T11:36:41Z</time>
      </trkpt>
      <trkpt lat="43.67119" lon="1.36729">
        <ele>140</ele>
        <time>2025-03-23T11:36:42Z</time>
      </trkpt>
      <trkpt lat="43.67117" lon="1.3673">
        <ele>140</ele>
        <time>2025-03-23T11:36:43Z</time>
      </trkpt>
      <trkpt lat="43.67114" lon="1.36732">
        <ele>140</ele>
        <time>2025-03-23T11:36:44Z</time>
      </trkpt>
      <trkpt lat="43.67111" lon="1.36734">
        <ele>140</ele>
        <time>2025-03-23T11:36:45Z</time>
      </trkpt>
      <trkpt lat="43.6711" lon="1.36734">
        <ele>141</ele>
        <time>2025-03-23T11:36:46Z</time>
      </trkpt>
      <trkpt lat="43.67108" lon="1.36736">
        <ele>141</ele>
        <time>2025-03-23T11:36:47Z</time>
      </trkpt>
      <trkpt lat="43.67106" lon="1.36737">
        <ele>141</ele>
        <time>2025-03-23T11:36:48Z</time>
      </trkpt>
      <trkpt lat="43.67103" lon="1.36739">
        <ele>141</ele>
        <time>2025-03-23T11:36:49Z</time>
      </trkpt>
      <trkpt lat="43.67102" lon="1.3674">
        <ele>141</ele>
        <time>2025-03-23T11:36:50Z</time>
      </trkpt>
      <trkpt lat="43.671" lon="1.36742">
        <ele>141</ele>
        <time>2025-03-23T11:36:51Z</time>
      </trkpt>
      <trkpt lat="43.67097" lon="1.36744">
        <ele>141</ele>
        <time>2025-03-23T11:36:52Z</time>
      </trkpt>
      <trkpt lat="43.67096" lon="1.36745">
        <ele>141</ele>
        <time>2025-03-23T11:36:53Z</time>
      </trkpt>
      <trkpt lat="43.67093" lon="1.36747">
        <ele>141</ele>
        <time>2025-03-23T11:36:54Z</time>
      </trkpt>
      <trkpt lat="43.67091" lon="1.36748">
        <ele>141</ele>
        <time>2025-03-23T11:36:55Z</time>
      </trkpt>
      <trkpt lat="43.67089" lon="1.3675">
        <ele>141</ele>
        <time>2025-03-23T11:36:56Z</time>
      </trkpt>
      <trkpt lat="43.67086" lon="1.36752">
        <ele>141</ele>
        <time>2025-03-23T11:36:57Z</time>
      </trkpt>
      <trkpt lat="43.67084" lon="1.36753">
        <ele>141</ele>
        <time>2025-03-23T11:36:58Z</time>
      </trkpt>
      <trkpt lat="43.6708" lon="1.36756">
        <ele>141</ele>
        <time>2025-03-23T11:36:59Z</time>
      </trkpt>
      <trkpt lat="43.67079" lon="1.36756">
        <ele>141</ele>
        <time>2025-03-23T11:37:00Z</time>
      </trkpt>
      <trkpt lat="43.67075" lon="1.36759">
        <ele>141</ele>
        <time>2025-03-23T11:37:01Z</time>
      </trkpt>
      <trkpt lat="43.67074" lon="1.36759">
        <ele>141</ele>
        <time>2025-03-23T11:37:02Z</time>
      </trkpt>
      <trkpt lat="43.67072" lon="1.36761">
        <ele>141</ele>
        <time>2025-03-23T11:37:03Z</time>
      </trkpt>
      <trkpt lat="43.67068" lon="1.36763">
        <ele>141</ele>
        <time>2025-03-23T11:37:04Z</time>
      </trkpt>
      <trkpt lat="43.67067" lon="1.36764">
        <ele>141</ele>
        <time>2025-03-23T11:37:05Z</time>
      </trkpt>
      <trkpt lat="43.67064" lon="1.36766">
        <ele>141</ele>
        <time>2025-03-23T11:37:06Z</time>
      </trkpt>
      <trkpt lat="43.67061" lon="1.36768">
        <ele>141</ele>
        <time>2025-03-23T11:37:07Z</time>
      </trkpt>
      <trkpt lat="43.67059" lon="1.3677">
        <ele>141</ele>
        <time>2025-03-23T11:37:08Z</time>
      </trkpt>
      <trkpt lat="43.67057" lon="1.36772">
        <ele>141</ele>
        <time>2025-03-23T11:37:09Z</time>
      </trkpt>
      <trkpt lat="43.67054" lon="1.36773">
        <ele>141</ele>
        <time>2025-03-23T11:37:10Z</time>
      </trkpt>
      <trkpt lat="43.67052" lon="1.36775">
        <ele>141</ele>
        <time>2025-03-23T11:37:11Z</time>
      </trkpt>
      <trkpt lat="43.6705" lon="1.36777">
        <ele>141</ele>
        <time>2025-03-23T11:37:12Z</time>
      </trkpt>
      <trkpt lat="43.67047" lon="1.36778">
        <ele>141</ele>
        <time>2025-03-23T11:37:13Z</time>
      </trkpt>
      <trkpt lat="43.67045" lon="1.3678">
        <ele>141</ele>
        <time>2025-03-23T11:37:14Z</time>
      </trkpt>
      <trkpt lat="43.67042" lon="1.36783">
        <ele>141</ele>
        <time>2025-03-23T11:37:15Z</time>
      </trkpt>
      <trkpt lat="43.67041" lon="1.36784">
        <ele>141</ele>
        <time>2025-03-23T11:37:16Z</time>
      </trkpt>
      <trkpt lat="43.67038" lon="1.36786">
        <ele>142</ele>
        <time>2025-03-23T11:37:17Z</time>
      </trkpt>
      <trkpt lat="43.67036" lon="1.36787">
        <ele>142</ele>
        <time>2025-03-23T11:37:18Z</time>
      </trkpt>
      <trkpt lat="43.67034" lon="1.36789">
        <ele>142</ele>
        <time>2025-03-23T11:37:19Z</time>
      </trkpt>
      <trkpt lat="43.6703" lon="1.36791">
        <ele>142</ele>
        <time>2025-03-23T11:37:20Z</time>
      </trkpt>
      <trkpt lat="43.67029" lon="1.36792">
        <ele>142</ele>
        <time>2025-03-23T11:37:21Z</time>
      </trkpt>
      <trkpt lat="43.67027" lon="1.36794">
        <ele>142</ele>
        <time>2025-03-23T11:37:22Z</time>
      </trkpt>
      <trkpt lat="43.67025" lon="1.36796">
        <ele>142</ele>
        <time>2025-03-23T11:37:23Z</time>
      </trkpt>
      <trkpt lat="43.67023" lon="1.36798">
        <ele>141</ele>
        <time>2025-03-23T11:37:24Z</time>
      </trkpt>
      <trkpt lat="43.67021" lon="1.368">
        <ele>141</ele>
        <time>2025-03-23T11:37:25Z</time>
      </trkpt>
      <trkpt lat="43.67018" lon="1.36802">
        <ele>141</ele>
        <time>2025-03-23T11:37:26Z</time>
      </trkpt>
      <trkpt lat="43.67016" lon="1.36804">
        <ele>141</ele>
        <time>2025-03-23T11:37:27Z</time>
      </trkpt>
      <trkpt lat="43.67015" lon="1.36806">
        <ele>141</ele>
        <time>2025-03-23T11:37:28Z</time>
      </trkpt>
      <trkpt lat="43.67013" lon="1.36809">
        <ele>141</ele>
        <time>2025-03-23T11:37:29Z</time>
      </trkpt>
      <trkpt lat="43.67011" lon="1.36811">
        <ele>141</ele>
        <time>2025-03-23T11:37:30Z</time>
      </trkpt>
      <trkpt lat="43.67009" lon="1.36814">
        <ele>141</ele>
        <time>2025-03-23T11:37:31Z</time>
      </trkpt>
      <trkpt lat="43.67007" lon="1.36816">
        <ele>141</ele>
        <time>2025-03-23T11:37:32Z</time>
      </trkpt>
      <trkpt lat="43.67006" lon="1.36819">
        <ele>142</ele>
        <time>2025-03-23T11:37:33Z</time>
      </trkpt>
      <trkpt lat="43.67004" lon="1.36822">
        <ele>142</ele>
        <time>2025-03-23T11:37:34Z</time>
      </trkpt>
      <trkpt lat="43.67003" lon="1.36825">
        <ele>142</ele>
        <time>2025-03-23T11:37:35Z</time>
      </trkpt>
      <trkpt lat="43.67002" lon="1.36828">
        <ele>142</ele>
        <time>2025-03-23T11:37:36Z</time>
      </trkpt>
      <trkpt lat="43.67" lon="1.36831">
        <ele>142</ele>
        <time>2025-03-23T11:37:37Z</time>
      </trkpt>
      <trkpt lat="43.66997" lon="1.36833">
        <ele>142</ele>
        <time>2025-03-23T11:37:38Z</time>
      </trkpt>
      <trkpt lat="43.66993" lon="1.36834">
        <ele>142</ele>
        <time>2025-03-23T11:37:39Z</time>
      </trkpt>
      <trkpt lat="43.66992" lon="1.36834">
        <ele>142</ele>
        <time>2025-03-23T11:37:40Z</time>
      </trkpt>
      <trkpt lat="43.66989" lon="1.36833">
        <ele>142</ele>
        <time>2025-03-23T11:37:41Z</time>
      </trkpt>
      <trkpt lat="43.66985" lon="1.36831">
        <ele>142</ele>
        <time>2025-03-23T11:37:42Z</time>
      </trkpt>
      <trkpt lat="43.66984" lon="1.3683">
        <ele>142</ele>
        <time>2025-03-23T11:37:43Z</time>
      </trkpt>
      <trkpt lat="43.66981" lon="1.36829">
        <ele>142</ele>
        <time>2025-03-23T11:37:44Z</time>
      </trkpt>
      <trkpt lat="43.66979" lon="1.36829">
        <ele>142</ele>
        <time>2025-03-23T11:37:45Z</time>
      </trkpt>
      <trkpt lat="43.66975" lon="1.3683">
        <ele>142</ele>
        <time>2025-03-23T11:37:46Z</time>
      </trkpt>
      <trkpt lat="43.66973" lon="1.3683">
        <ele>142</ele>
        <time>2025-03-23T11:37:47Z</time>
      </trkpt>
      <trkpt lat="43.66971" lon="1.36831">
        <ele>142</ele>
        <time>2025-03-23T11:37:48Z</time>
      </trkpt>
      <trkpt lat="43.66969" lon="1.36833">
        <ele>142</ele>
        <time>2025-03-23T11:37:49Z</time>
      </trkpt>
      <trkpt lat="43.66966" lon="1.36834">
        <ele>142</ele>
        <time>2025-03-23T11:37:50Z</time>
      </trkpt>
      <trkpt lat="43.66964" lon="1.36835">
        <ele>142</ele>
        <time>2025-03-23T11:37:51Z</time>
      </trkpt>
      <trkpt lat="43.66962" lon="1.36837">
        <ele>142</ele>
        <time>2025-03-23T11:37:52Z</time>
      </trkpt>
      <trkpt lat="43.6696" lon="1.36839">
        <ele>142</ele>
        <time>2025-03-23T11:37:53Z</time>
      </trkpt>
      <trkpt lat="43.66957" lon="1.3684">
        <ele>142</ele>
        <time>2025-03-23T11:37:54Z</time>
      </trkpt>
      <trkpt lat="43.66955" lon="1.36842">
        <ele>142</ele>
        <time>2025-03-23T11:37:55Z</time>
      </trkpt>
      <trkpt lat="43.66953" lon="1.36844">
        <ele>142</ele>
        <time>2025-03-23T11:37:56Z</time>
      </trkpt>
      <trkpt lat="43.66951" lon="1.36846">
        <ele>142</ele>
        <time>2025-03-23T11:37:57Z</time>
      </trkpt>
      <trkpt lat="43.66948" lon="1.36848">
        <ele>142</ele>
        <time>2025-03-23T11:37:58Z</time>
      </trkpt>
      <trkpt lat="43.66946" lon="1.3685">
        <ele>142</ele>
        <time>2025-03-23T11:37:59Z</time>
      </trkpt>
      <trkpt lat="43.66944" lon="1.36851">
        <ele>142</ele>
        <time>2025-03-23T11:38:00Z</time>
      </trkpt>
      <trkpt lat="43.66941" lon="1.36853">
        <ele>142</ele>
        <time>2025-03-23T11:38:01Z</time>
      </trkpt>
      <trkpt lat="43.6694" lon="1.36854">
        <ele>143</ele>
        <time>2025-03-23T11:38:02Z</time>
      </trkpt>
      <trkpt lat="43.66938" lon="1.36855">
        <ele>143</ele>
        <time>2025-03-23T11:38:03Z</time>
      </trkpt>
      <trkpt lat="43.66936" lon="1.36857">
        <ele>143</ele>
        <time>2025-03-23T11:38:04Z</time>
      </trkpt>
      <trkpt lat="43.66933" lon="1.36859">
        <ele>143</ele>
        <time>2025-03-23T11:38:05Z</time>
      </trkpt>
      <trkpt lat="43.66932" lon="1.3686">
        <ele>142</ele>
        <time>2025-03-23T11:38:06Z</time>
      </trkpt>
      <trkpt lat="43.6693" lon="1.36861">
        <ele>142</ele>
        <time>2025-03-23T11:38:07Z</time>
      </trkpt>
      <trkpt lat="43.66926" lon="1.36863">
        <ele>142</ele>
        <time>2025-03-23T11:38:08Z</time>
      </trkpt>
      <trkpt lat="43.66925" lon="1.36864">
        <ele>142</ele>
        <time>2025-03-23T11:38:09Z</time>
      </trkpt>
      <trkpt lat="43.66923" lon="1.36866">
        <ele>142</ele>
        <time>2025-03-23T11:38:10Z</time>
      </trkpt>
      <trkpt lat="43.6692" lon="1.36867">
        <ele>142</ele>
        <time>2025-03-23T11:38:11Z</time>
      </trkpt>
      <trkpt lat="43.66917" lon="1.36869">
        <ele>142</ele>
        <time>2025-03-23T11:38:12Z</time>
      </trkpt>
      <trkpt lat="43.66916" lon="1.3687">
        <ele>142</ele>
        <time>2025-03-23T11:38:13Z</time>
      </trkpt>
      <trkpt lat="43.66913" lon="1.36872">
        <ele>142</ele>
        <time>2025-03-23T11:38:14Z</time>
      </trkpt>
      <trkpt lat="43.66911" lon="1.36873">
        <ele>142</ele>
        <time>2025-03-23T11:38:15Z</time>
      </trkpt>
      <trkpt lat="43.66909" lon="1.36875">
        <ele>142</ele>
        <time>2025-03-23T11:38:16Z</time>
      </trkpt>
      <trkpt lat="43.66907" lon="1.36876">
        <ele>142</ele>
        <time>2025-03-23T11:38:17Z</time>
      </trkpt>
      <trkpt lat="43.66905" lon="1.36878">
        <ele>142</ele>
        <time>2025-03-23T11:38:18Z</time>
      </trkpt>
      <trkpt lat="43.66903" lon="1.3688">
        <ele>142</ele>
        <time>2025-03-23T11:38:19Z</time>
      </trkpt>
      <trkpt lat="43.66901" lon="1.36882">
        <ele>142</ele>
        <time>2025-03-23T11:38:20Z</time>
      </trkpt>
      <trkpt lat="43.66899" lon="1.36883">
        <ele>142</ele>
        <time>2025-03-23T11:38:21Z</time>
      </trkpt>
      <trkpt lat="43.66896" lon="1.36885">
        <ele>142</ele>
        <time>2025-03-23T11:38:22Z</time>
      </trkpt>
      <trkpt lat="43.66894" lon="1.36887">
        <ele>142</ele>
        <time>2025-03-23T11:38:23Z</time>
      </trkpt>
      <trkpt lat="43.66892" lon="1.36888">
        <ele>142</ele>
        <time>2025-03-23T11:38:24Z</time>
      </trkpt>
      <trkpt lat="43.6689" lon="1.36889">
        <ele>142</ele>
        <time>2025-03-23T11:38:25Z</time>
      </trkpt>
      <trkpt lat="43.66888" lon="1.36891">
        <ele>142</ele>
        <time>2025-03-23T11:38:26Z</time>
      </trkpt>
      <trkpt lat="43.66886" lon="1.36892">
        <ele>142</ele>
        <time>2025-03-23T11:38:27Z</time>
      </trkpt>
      <trkpt lat="43.66883" lon="1.36894">
        <ele>142</ele>
        <time>2025-03-23T11:38:28Z</time>
      </trkpt>
      <trkpt lat="43.66881" lon="1.36895">
        <ele>142</ele>
        <time>2025-03-23T11:38:29Z</time>
      </trkpt>
      <trkpt lat="43.66879" lon="1.36897">
        <ele>142</ele>
        <time>2025-03-23T11:38:30Z</time>
      </trkpt>
      <trkpt lat="43.66875" lon="1.369">
        <ele>142</ele>
        <time>2025-03-23T11:38:31Z</time>
      </trkpt>
      <trkpt lat="43.66874" lon="1.36901">
        <ele>142</ele>
        <time>2025-03-23T11:38:32Z</time>
      </trkpt>
      <trkpt lat="43.66871" lon="1.36903">
        <ele>142</ele>
        <time>2025-03-23T11:38:33Z</time>
      </trkpt>
      <trkpt lat="43.66869" lon="1.36905">
        <ele>142</ele>
        <time>2025-03-23T11:38:34Z</time>
      </trkpt>
      <trkpt lat="43.66866" lon="1.36907">
        <ele>142</ele>
        <time>2025-03-23T11:38:35Z</time>
      </trkpt>
      <trkpt lat="43.66864" lon="1.36908">
        <ele>142</ele>
        <time>2025-03-23T11:38:36Z</time>
      </trkpt>
      <trkpt lat="43.66861" lon="1.3691">
        <ele>142</ele>
        <time>2025-03-23T11:38:37Z</time>
      </trkpt>
      <trkpt lat="43.66859" lon="1.36912">
        <ele>142</ele>
        <time>2025-03-23T11:38:38Z</time>
      </trkpt>
      <trkpt lat="43.66857" lon="1.36913">
        <ele>142</ele>
        <time>2025-03-23T11:38:39Z</time>
      </trkpt>
      <trkpt lat="43.66855" lon="1.36914">
        <ele>142</ele>
        <time>2025-03-23T11:38:40Z</time>
      </trkpt>
      <trkpt lat="43.66853" lon="1.36916">
        <ele>142</ele>
        <time>2025-03-23T11:38:41Z</time>
      </trkpt>
      <trkpt lat="43.6685" lon="1.36917">
        <ele>142</ele>
        <time>2025-03-23T11:38:42Z</time>
      </trkpt>
      <trkpt lat="43.66848" lon="1.36919">
        <ele>142</ele>
        <time>2025-03-23T11:38:43Z</time>
      </trkpt>
      <trkpt lat="43.66846" lon="1.3692">
        <ele>142</ele>
        <time>2025-03-23T11:38:44Z</time>
      </trkpt>
      <trkpt lat="43.66844" lon="1.36922">
        <ele>142</ele>
        <time>2025-03-23T11:38:45Z</time>
      </trkpt>
      <trkpt lat="43.66842" lon="1.36923">
        <ele>142</ele>
        <time>2025-03-23T11:38:46Z</time>
      </trkpt>
      <trkpt lat="43.6684" lon="1.36925">
        <ele>142</ele>
        <time>2025-03-23T11:38:47Z</time>
      </trkpt>
      <trkpt lat="43.66838" lon="1.36927">
        <ele>142</ele>
        <time>2025-03-23T11:38:48Z</time>
      </trkpt>
      <trkpt lat="43.66836" lon="1.36928">
        <ele>142</ele>
        <time>2025-03-23T11:38:49Z</time>
      </trkpt>
      <trkpt lat="43.66833" lon="1.3693">
        <ele>142</ele>
        <time>2025-03-23T11:38:50Z</time>
      </trkpt>
      <trkpt lat="43.66831" lon="1.36932">
        <ele>142</ele>
        <time>2025-03-23T11:38:51Z</time>
      </trkpt>
      <trkpt lat="43.66829" lon="1.36934">
        <ele>142</ele>
        <time>2025-03-23T11:38:52Z</time>
      </trkpt>
      <trkpt lat="43.66826" lon="1.36935">
        <ele>142</ele>
        <time>2025-03-23T11:38:53Z</time>
      </trkpt>
      <trkpt lat="43.66824" lon="1.36936">
        <ele>142</ele>
        <time>2025-03-23T11:38:54Z</time>
      </trkpt>
      <trkpt lat="43.66822" lon="1.36938">
        <ele>142</ele>
        <time>2025-03-23T11:38:55Z</time>
      </trkpt>
      <trkpt lat="43.6682" lon="1.3694">
        <ele>142</ele>
        <time>2025-03-23T11:38:56Z</time>
      </trkpt>
      <trkpt lat="43.66818" lon="1.36941">
        <ele>142</ele>
        <time>2025-03-23T11:38:57Z</time>
      </trkpt>
      <trkpt lat="43.66814" lon="1.36943">
        <ele>142</ele>
        <time>2025-03-23T11:38:58Z</time>
      </trkpt>
      <trkpt lat="43.66813" lon="1.36944">
        <ele>142</ele>
        <time>2025-03-23T11:38:59Z</time>
      </trkpt>
      <trkpt lat="43.66811" lon="1.36946">
        <ele>142</ele>
        <time>2025-03-23T11:39:00Z</time>
      </trkpt>
      <trkpt lat="43.66809" lon="1.36948">
        <ele>142</ele>
        <time>2025-03-23T11:39:01Z</time>
      </trkpt>
      <trkpt lat="43.66806" lon="1.36949">
        <ele>142</ele>
        <time>2025-03-23T11:39:02Z</time>
      </trkpt>
      <trkpt lat="43.66804" lon="1.36951">
        <ele>142</ele>
        <time>2025-03-23T11:39:03Z</time>
      </trkpt>
      <trkpt lat="43.66801" lon="1.36952">
        <ele>142</ele>
        <time>2025-03-23T11:39:04Z</time>
      </trkpt>
      <trkpt lat="43.66799" lon="1.36953">
        <ele>142</ele>
        <time>2025-03-23T11:39:05Z</time>
      </trkpt>
      <trkpt lat="43.66797" lon="1.36955">
        <ele>142</ele>
        <time>2025-03-23T11:39:06Z</time>
      </trkpt>
      <trkpt lat="43.66794" lon="1.36957">
        <ele>142</ele>
        <time>2025-03-23T11:39:07Z</time>
      </trkpt>
      <trkpt lat="43.66792" lon="1.36958">
        <ele>142</ele>
        <time>2025-03-23T11:39:08Z</time>
      </trkpt>
      <trkpt lat="43.6679" lon="1.36959">
        <ele>142</ele>
        <time>2025-03-23T11:39:09Z</time>
      </trkpt>
      <trkpt lat="43.66788" lon="1.36961">
        <ele>142</ele>
        <time>2025-03-23T11:39:10Z</time>
      </trkpt>
      <trkpt lat="43.66786" lon="1.36962">
        <ele>142</ele>
        <time>2025-03-23T11:39:11Z</time>
      </trkpt>
      <trkpt lat="43.66784" lon="1.36964">
        <ele>142</ele>
        <time>2025-03-23T11:39:12Z</time>
      </trkpt>
      <trkpt lat="43.66782" lon="1.36965">
        <ele>142</ele>
        <time>2025-03-23T11:39:13Z</time>
      </trkpt>
      <trkpt lat="43.6678" lon="1.36966">
        <ele>142</ele>
        <time>2025-03-23T11:39:14Z</time>
      </trkpt>
      <trkpt lat="43.66777" lon="1.36968">
        <ele>142</ele>
        <time>2025-03-23T11:39:15Z</time>
      </trkpt>
      <trkpt lat="43.66775" lon="1.36969">
        <ele>142</ele>
        <time>2025-03-23T11:39:16Z</time>
      </trkpt>
      <trkpt lat="43.66772" lon="1.36971">
        <ele>142</ele>
        <time>2025-03-23T11:39:17Z</time>
      </trkpt>
      <trkpt lat="43.66771" lon="1.36972">
        <ele>142</ele>
        <time>2025-03-23T11:39:18Z</time>
      </trkpt>
      <trkpt lat="43.66768" lon="1.36974">
        <ele>142</ele>
        <time>2025-03-23T11:39:19Z</time>
      </trkpt>
      <trkpt lat="43.66767" lon="1.36975">
        <ele>142</ele>
        <time>2025-03-23T11:39:20Z</time>
      </trkpt>
      <trkpt lat="43.66764" lon="1.36977">
        <ele>142</ele>
        <time>2025-03-23T11:39:21Z</time>
      </trkpt>
      <trkpt lat="43.66762" lon="1.36979">
        <ele>142</ele>
        <time>2025-03-23T11:39:22Z</time>
      </trkpt>
      <trkpt lat="43.66759" lon="1.36981">
        <ele>142</ele>
        <time>2025-03-23T11:39:23Z</time>
      </trkpt>
      <trkpt lat="43.66757" lon="1.36982">
        <ele>142</ele>
        <time>2025-03-23T11:39:24Z</time>
      </trkpt>
      <trkpt lat="43.66755" lon="1.36984">
        <ele>142</ele>
        <time>2025-03-23T11:39:25Z</time>
      </trkpt>
      <trkpt lat="43.66753" lon="1.36985">
        <ele>142</ele>
        <time>2025-03-23T11:39:26Z</time>
      </trkpt>
      <trkpt lat="43.66751" lon="1.36987">
        <ele>142</ele>
        <time>2025-03-23T11:39:27Z</time>
      </trkpt>
      <trkpt lat="43.66749" lon="1.36988">
        <ele>142</ele>
        <time>2025-03-23T11:39:28Z</time>
      </trkpt>
      <trkpt lat="43.66747" lon="1.36989">
        <ele>142</ele>
        <time>2025-03-23T11:39:29Z</time>
      </trkpt>
      <trkpt lat="43.66745" lon="1.3699">
        <ele>142</ele>
        <time>2025-03-23T11:39:30Z</time>
      </trkpt>
      <trkpt lat="43.66742" lon="1.36992">
        <ele>142</ele>
        <time>2025-03-23T11:39:31Z</time>
      </trkpt>
      <trkpt lat="43.6674" lon="1.36994">
        <ele>141</ele>
        <time>2025-03-23T11:39:32Z</time>
      </trkpt>
      <trkpt lat="43.66738" lon="1.36995">
        <ele>141</ele>
        <time>2025-03-23T11:39:33Z</time>
      </trkpt>
      <trkpt lat="43.66735" lon="1.36997">
        <ele>141</ele>
        <time>2025-03-23T11:39:34Z</time>
      </trkpt>
      <trkpt lat="43.66733" lon="1.36999">
        <ele>141</ele>
        <time>2025-03-23T11:39:35Z</time>
      </trkpt>
      <trkpt lat="43.66726" lon="1.37003">
        <ele>141</ele>
        <time>2025-03-23T11:39:37Z</time>
      </trkpt>
      <trkpt lat="43.66724" lon="1.37004">
        <ele>141</ele>
        <time>2025-03-23T11:39:38Z</time>
      </trkpt>
      <trkpt lat="43.66722" lon="1.37006">
        <ele>141</ele>
        <time>2025-03-23T11:39:39Z</time>
      </trkpt>
      <trkpt lat="43.66719" lon="1.37008">
        <ele>141</ele>
        <time>2025-03-23T11:39:40Z</time>
      </trkpt>
      <trkpt lat="43.66715" lon="1.37011">
        <ele>141</ele>
        <time>2025-03-23T11:39:41Z</time>
      </trkpt>
      <trkpt lat="43.66714" lon="1.37012">
        <ele>141</ele>
        <time>2025-03-23T11:39:42Z</time>
      </trkpt>
      <trkpt lat="43.66712" lon="1.37013">
        <ele>141</ele>
        <time>2025-03-23T11:39:43Z</time>
      </trkpt>
      <trkpt lat="43.6671" lon="1.37014">
        <ele>141</ele>
        <time>2025-03-23T11:39:44Z</time>
      </trkpt>
      <trkpt lat="43.66708" lon="1.37015">
        <ele>141</ele>
        <time>2025-03-23T11:39:45Z</time>
      </trkpt>
      <trkpt lat="43.66706" lon="1.37017">
        <ele>141</ele>
        <time>2025-03-23T11:39:46Z</time>
      </trkpt>
      <trkpt lat="43.66704" lon="1.37018">
        <ele>141</ele>
        <time>2025-03-23T11:39:47Z</time>
      </trkpt>
      <trkpt lat="43.66701" lon="1.37021">
        <ele>141</ele>
        <time>2025-03-23T11:39:48Z</time>
      </trkpt>
      <trkpt lat="43.667" lon="1.37021">
        <ele>141</ele>
        <time>2025-03-23T11:39:49Z</time>
      </trkpt>
      <trkpt lat="43.66697" lon="1.37023">
        <ele>141</ele>
        <time>2025-03-23T11:39:50Z</time>
      </trkpt>
      <trkpt lat="43.66695" lon="1.37024">
        <ele>141</ele>
        <time>2025-03-23T11:39:51Z</time>
      </trkpt>
      <trkpt lat="43.66691" lon="1.37027">
        <ele>141</ele>
        <time>2025-03-23T11:39:52Z</time>
      </trkpt>
      <trkpt lat="43.6669" lon="1.37028">
        <ele>141</ele>
        <time>2025-03-23T11:39:53Z</time>
      </trkpt>
      <trkpt lat="43.66688" lon="1.3703">
        <ele>141</ele>
        <time>2025-03-23T11:39:54Z</time>
      </trkpt>
      <trkpt lat="43.66683" lon="1.37033">
        <ele>141</ele>
        <time>2025-03-23T11:39:56Z</time>
      </trkpt>
      <trkpt lat="43.66679" lon="1.37035">
        <ele>141</ele>
        <time>2025-03-23T11:39:57Z</time>
      </trkpt>
      <trkpt lat="43.66678" lon="1.37036">
        <ele>141</ele>
        <time>2025-03-23T11:39:58Z</time>
      </trkpt>
      <trkpt lat="43.66676" lon="1.37037">
        <ele>141</ele>
        <time>2025-03-23T11:39:59Z</time>
      </trkpt>
      <trkpt lat="43.66672" lon="1.3704">
        <ele>141</ele>
        <time>2025-03-23T11:40:00Z</time>
      </trkpt>
      <trkpt lat="43.66671" lon="1.37041">
        <ele>141</ele>
        <time>2025-03-23T11:40:01Z</time>
      </trkpt>
      <trkpt lat="43.66669" lon="1.37042">
        <ele>141</ele>
        <time>2025-03-23T11:40:02Z</time>
      </trkpt>
      <trkpt lat="43.66667" lon="1.37044">
        <ele>141</ele>
        <time>2025-03-23T11:40:03Z</time>
      </trkpt>
      <trkpt lat="43.66664" lon="1.37045">
        <ele>141</ele>
        <time>2025-03-23T11:40:04Z</time>
      </trkpt>
      <trkpt lat="43.66662" lon="1.37046">
        <ele>141</ele>
        <time>2025-03-23T11:40:05Z</time>
      </trkpt>
      <trkpt lat="43.6666" lon="1.37048">
        <ele>141</ele>
        <time>2025-03-23T11:40:06Z</time>
      </trkpt>
      <trkpt lat="43.66657" lon="1.37051">
        <ele>141</ele>
        <time>2025-03-23T11:40:07Z</time>
      </trkpt>
      <trkpt lat="43.66655" lon="1.37052">
        <ele>141</ele>
        <time>2025-03-23T11:40:08Z</time>
      </trkpt>
      <trkpt lat="43.66653" lon="1.37055">
        <ele>141</ele>
        <time>2025-03-23T11:40:09Z</time>
      </trkpt>
      <trkpt lat="43.6665" lon="1.37057">
        <ele>141</ele>
        <time>2025-03-23T11:40:10Z</time>
      </trkpt>
      <trkpt lat="43.66648" lon="1.3706">
        <ele>141</ele>
        <time>2025-03-23T11:40:11Z</time>
      </trkpt>
      <trkpt lat="43.66645" lon="1.37062">
        <ele>141</ele>
        <time>2025-03-23T11:40:12Z</time>
      </trkpt>
      <trkpt lat="43.66642" lon="1.37064">
        <ele>141</ele>
        <time>2025-03-23T11:40:13Z</time>
      </trkpt>
      <trkpt lat="43.66638" lon="1.37065">
        <ele>141</ele>
        <time>2025-03-23T11:40:15Z</time>
      </trkpt>
      <trkpt lat="43.66635" lon="1.37066">
        <ele>141</ele>
        <time>2025-03-23T11:40:16Z</time>
      </trkpt>
      <trkpt lat="43.66634" lon="1.37066">
        <ele>141</ele>
        <time>2025-03-23T11:40:17Z</time>
      </trkpt>
      <trkpt lat="43.66632" lon="1.37067">
        <ele>141</ele>
        <time>2025-03-23T11:40:18Z</time>
      </trkpt>
      <trkpt lat="43.66629" lon="1.3707">
        <ele>141</ele>
        <time>2025-03-23T11:40:19Z</time>
      </trkpt>
      <trkpt lat="43.66628" lon="1.3707">
        <ele>141</ele>
        <time>2025-03-23T11:40:20Z</time>
      </trkpt>
      <trkpt lat="43.66625" lon="1.37072">
        <ele>141</ele>
        <time>2025-03-23T11:40:21Z</time>
      </trkpt>
      <trkpt lat="43.66623" lon="1.37074">
        <ele>141</ele>
        <time>2025-03-23T11:40:22Z</time>
      </trkpt>
      <trkpt lat="43.66621" lon="1.37075">
        <ele>141</ele>
        <time>2025-03-23T11:40:23Z</time>
      </trkpt>
      <trkpt lat="43.66619" lon="1.37076">
        <ele>141</ele>
        <time>2025-03-23T11:40:24Z</time>
      </trkpt>
      <trkpt lat="43.66617" lon="1.37078">
        <ele>141</ele>
        <time>2025-03-23T11:40:25Z</time>
      </trkpt>
      <trkpt lat="43.66614" lon="1.3708">
        <ele>141</ele>
        <time>2025-03-23T11:40:26Z</time>
      </trkpt>
      <trkpt lat="43.66612" lon="1.37081">
        <ele>141</ele>
        <time>2025-03-23T11:40:27Z</time>
      </trkpt>
      <trkpt lat="43.6661" lon="1.37082">
        <ele>141</ele>
        <time>2025-03-23T11:40:28Z</time>
      </trkpt>
      <trkpt lat="43.66608" lon="1.37084">
        <ele>141</ele>
        <time>2025-03-23T11:40:29Z</time>
      </trkpt>
      <trkpt lat="43.66604" lon="1.37086">
        <ele>141</ele>
        <time>2025-03-23T11:40:30Z</time>
      </trkpt>
      <trkpt lat="43.66603" lon="1.37086">
        <ele>141</ele>
        <time>2025-03-23T11:40:31Z</time>
      </trkpt>
      <trkpt lat="43.66601" lon="1.37088">
        <ele>141</ele>
        <time>2025-03-23T11:40:32Z</time>
      </trkpt>
      <trkpt lat="43.66598" lon="1.3709">
        <ele>141</ele>
        <time>2025-03-23T11:40:33Z</time>
      </trkpt>
      <trkpt lat="43.66597" lon="1.37091">
        <ele>141</ele>
        <time>2025-03-23T11:40:34Z</time>
      </trkpt>
      <trkpt lat="43.66595" lon="1.37093">
        <ele>141</ele>
        <time>2025-03-23T11:40:35Z</time>
      </trkpt>
      <trkpt lat="43.66591" lon="1.37095">
        <ele>141</ele>
        <time>2025-03-23T11:40:36Z</time>
      </trkpt>
      <trkpt lat="43.6659" lon="1.37096">
        <ele>141</ele>
        <time>2025-03-23T11:40:37Z</time>
      </trkpt>
      <trkpt lat="43.66588" lon="1.37098">
        <ele>141</ele>
        <time>2025-03-23T11:40:38Z</time>
      </trkpt>
      <trkpt lat="43.66583" lon="1.37101">
        <ele>141</ele>
        <time>2025-03-23T11:40:39Z</time>
      </trkpt>
      <trkpt lat="43.66582" lon="1.37102">
        <ele>141</ele>
        <time>2025-03-23T11:40:40Z</time>
      </trkpt>
      <trkpt lat="43.6658" lon="1.37104">
        <ele>141</ele>
        <time>2025-03-23T11:40:41Z</time>
      </trkpt>
      <trkpt lat="43.66577" lon="1.37106">
        <ele>141</ele>
        <time>2025-03-23T11:40:42Z</time>
      </trkpt>
      <trkpt lat="43.66574" lon="1.37109">
        <ele>141</ele>
        <time>2025-03-23T11:40:43Z</time>
      </trkpt>
      <trkpt lat="43.66573" lon="1.3711">
        <ele>141</ele>
        <time>2025-03-23T11:40:44Z</time>
      </trkpt>
      <trkpt lat="43.6657" lon="1.37112">
        <ele>141</ele>
        <time>2025-03-23T11:40:45Z</time>
      </trkpt>
      <trkpt lat="43.66568" lon="1.37113">
        <ele>141</ele>
        <time>2025-03-23T11:40:46Z</time>
      </trkpt>
      <trkpt lat="43.66566" lon="1.37115">
        <ele>141</ele>
        <time>2025-03-23T11:40:47Z</time>
      </trkpt>
      <trkpt lat="43.66563" lon="1.37117">
        <ele>141</ele>
        <time>2025-03-23T11:40:48Z</time>
      </trkpt>
      <trkpt lat="43.66561" lon="1.37118">
        <ele>141</ele>
        <time>2025-03-23T11:40:49Z</time>
      </trkpt>
      <trkpt lat="43.66557" lon="1.37121">
        <ele>141</ele>
        <time>2025-03-23T11:40:50Z</time>
      </trkpt>
      <trkpt lat="43.66556" lon="1.37122">
        <ele>141</ele>
        <time>2025-03-23T11:40:51Z</time>
      </trkpt>
      <trkpt lat="43.66552" lon="1.37124">
        <ele>141</ele>
        <time>2025-03-23T11:40:52Z</time>
      </trkpt>
      <trkpt lat="43.66551" lon="1.37125">
        <ele>141</ele>
        <time>2025-03-23T11:40:53Z</time>
      </trkpt>
      <trkpt lat="43.66549" lon="1.37127">
        <ele>141</ele>
        <time>2025-03-23T11:40:54Z</time>
      </trkpt>
      <trkpt lat="43.66546" lon="1.37129">
        <ele>141</ele>
        <time>2025-03-23T11:40:55Z</time>
      </trkpt>
      <trkpt lat="43.66544" lon="1.3713">
        <ele>141</ele>
        <time>2025-03-23T11:40:56Z</time>
      </trkpt>
      <trkpt lat="43.66542" lon="1.37132">
        <ele>142</ele>
        <time>2025-03-23T11:40:57Z</time>
      </trkpt>
      <trkpt lat="43.66539" lon="1.37135">
        <ele>142</ele>
        <time>2025-03-23T11:40:58Z</time>
      </trkpt>
      <trkpt lat="43.66537" lon="1.37136">
        <ele>142</ele>
        <time>2025-03-23T11:40:59Z</time>
      </trkpt>
      <trkpt lat="43.66535" lon="1.37137">
        <ele>142</ele>
        <time>2025-03-23T11:41:00Z</time>
      </trkpt>
      <trkpt lat="43.66533" lon="1.37139">
        <ele>142</ele>
        <time>2025-03-23T11:41:01Z</time>
      </trkpt>
      <trkpt lat="43.66529" lon="1.37142">
        <ele>142</ele>
        <time>2025-03-23T11:41:02Z</time>
      </trkpt>
      <trkpt lat="43.66528" lon="1.37143">
        <ele>142</ele>
        <time>2025-03-23T11:41:03Z</time>
      </trkpt>
      <trkpt lat="43.66526" lon="1.37145">
        <ele>142</ele>
        <time>2025-03-23T11:41:04Z</time>
      </trkpt>
      <trkpt lat="43.66523" lon="1.37148">
        <ele>142</ele>
        <time>2025-03-23T11:41:05Z</time>
      </trkpt>
      <trkpt lat="43.66521" lon="1.37148">
        <ele>142</ele>
        <time>2025-03-23T11:41:06Z</time>
      </trkpt>
      <trkpt lat="43.66519" lon="1.3715">
        <ele>142</ele>
        <time>2025-03-23T11:41:07Z</time>
      </trkpt>
      <trkpt lat="43.66517" lon="1.37151">
        <ele>142</ele>
        <time>2025-03-23T11:41:08Z</time>
      </trkpt>
      <trkpt lat="43.66514" lon="1.37152">
        <ele>141</ele>
        <time>2025-03-23T11:41:09Z</time>
      </trkpt>
      <trkpt lat="43.66512" lon="1.37153">
        <ele>141</ele>
        <time>2025-03-23T11:41:10Z</time>
      </trkpt>
      <trkpt lat="43.66508" lon="1.37155">
        <ele>141</ele>
        <time>2025-03-23T11:41:11Z</time>
      </trkpt>
      <trkpt lat="43.66507" lon="1.37155">
        <ele>141</ele>
        <time>2025-03-23T11:41:12Z</time>
      </trkpt>
      <trkpt lat="43.66505" lon="1.37157">
        <ele>141</ele>
        <time>2025-03-23T11:41:13Z</time>
      </trkpt>
      <trkpt lat="43.66502" lon="1.37158">
        <ele>141</ele>
        <time>2025-03-23T11:41:14Z</time>
      </trkpt>
      <trkpt lat="43.665" lon="1.37159">
        <ele>141</ele>
        <time>2025-03-23T11:41:15Z</time>
      </trkpt>
      <trkpt lat="43.66499" lon="1.3716">
        <ele>141</ele>
        <time>2025-03-23T11:41:16Z</time>
      </trkpt>
      <trkpt lat="43.66497" lon="1.37162">
        <ele>141</ele>
        <time>2025-03-23T11:41:17Z</time>
      </trkpt>
      <trkpt lat="43.66495" lon="1.37164">
        <ele>141</ele>
        <time>2025-03-23T11:41:18Z</time>
      </trkpt>
      <trkpt lat="43.66493" lon="1.37165">
        <ele>141</ele>
        <time>2025-03-23T11:41:19Z</time>
      </trkpt>
      <trkpt lat="43.66491" lon="1.37166">
        <ele>141</ele>
        <time>2025-03-23T11:41:20Z</time>
      </trkpt>
      <trkpt lat="43.66489" lon="1.37168">
        <ele>141</ele>
        <time>2025-03-23T11:41:21Z</time>
      </trkpt>
      <trkpt lat="43.66487" lon="1.37168">
        <ele>141</ele>
        <time>2025-03-23T11:41:22Z</time>
      </trkpt>
      <trkpt lat="43.66485" lon="1.37169">
        <ele>141</ele>
        <time>2025-03-23T11:41:23Z</time>
      </trkpt>
      <trkpt lat="43.66483" lon="1.3717">
        <ele>141</ele>
        <time>2025-03-23T11:41:24Z</time>
      </trkpt>
      <trkpt lat="43.66481" lon="1.37172">
        <ele>141</ele>
        <time>2025-03-23T11:41:25Z</time>
      </trkpt>
      <trkpt lat="43.66479" lon="1.37173">
        <ele>141</ele>
        <time>2025-03-23T11:41:26Z</time>
      </trkpt>
      <trkpt lat="43.66476" lon="1.37175">
        <ele>141</ele>
        <time>2025-03-23T11:41:27Z</time>
      </trkpt>
      <trkpt lat="43.66474" lon="1.37176">
        <ele>141</ele>
        <time>2025-03-23T11:41:28Z</time>
      </trkpt>
      <trkpt lat="43.66471" lon="1.37178">
        <ele>141</ele>
        <time>2025-03-23T11:41:29Z</time>
      </trkpt>
      <trkpt lat="43.66468" lon="1.37181">
        <ele>141</ele>
        <time>2025-03-23T11:41:30Z</time>
      </trkpt>
      <trkpt lat="43.66467" lon="1.37182">
        <ele>142</ele>
        <time>2025-03-23T11:41:31Z</time>
      </trkpt>
      <trkpt lat="43.66464" lon="1.37184">
        <ele>142</ele>
        <time>2025-03-23T11:41:32Z</time>
      </trkpt>
      <trkpt lat="43.66462" lon="1.37186">
        <ele>142</ele>
        <time>2025-03-23T11:41:33Z</time>
      </trkpt>
      <trkpt lat="43.66458" lon="1.37189">
        <ele>142</ele>
        <time>2025-03-23T11:41:34Z</time>
      </trkpt>
      <trkpt lat="43.66457" lon="1.37191">
        <ele>142</ele>
        <time>2025-03-23T11:41:35Z</time>
      </trkpt>
      <trkpt lat="43.66455" lon="1.37192">
        <ele>142</ele>
        <time>2025-03-23T11:41:36Z</time>
      </trkpt>
      <trkpt lat="43.66453" lon="1.37194">
        <ele>142</ele>
        <time>2025-03-23T11:41:37Z</time>
      </trkpt>
      <trkpt lat="43.6645" lon="1.37196">
        <ele>142</ele>
        <time>2025-03-23T11:41:38Z</time>
      </trkpt>
      <trkpt lat="43.66448" lon="1.37197">
        <ele>142</ele>
        <time>2025-03-23T11:41:39Z</time>
      </trkpt>
      <trkpt lat="43.66446" lon="1.37199">
        <ele>142</ele>
        <time>2025-03-23T11:41:40Z</time>
      </trkpt>
      <trkpt lat="43.66444" lon="1.37201">
        <ele>142</ele>
        <time>2025-03-23T11:41:41Z</time>
      </trkpt>
      <trkpt lat="43.66442" lon="1.37202">
        <ele>142</ele>
        <time>2025-03-23T11:41:42Z</time>
      </trkpt>
      <trkpt lat="43.6644" lon="1.37204">
        <ele>142</ele>
        <time>2025-03-23T11:41:43Z</time>
      </trkpt>
      <trkpt lat="43.66438" lon="1.37206">
        <ele>142</ele>
        <time>2025-03-23T11:41:44Z</time>
      </trkpt>
      <trkpt lat="43.66436" lon="1.37208">
        <ele>142</ele>
        <time>2025-03-23T11:41:45Z</time>
      </trkpt>
      <trkpt lat="43.66433" lon="1.3721">
        <ele>142</ele>
        <time>2025-03-23T11:41:46Z</time>
      </trkpt>
      <trkpt lat="43.66431" lon="1.37212">
        <ele>142</ele>
        <time>2025-03-23T11:41:47Z</time>
      </trkpt>
      <trkpt lat="43.66428" lon="1.37214">
        <ele>142</ele>
        <time>2025-03-23T11:41:48Z</time>
      </trkpt>
      <trkpt lat="43.66425" lon="1.37217">
        <ele>142</ele>
        <time>2025-03-23T11:41:49Z</time>
      </trkpt>
      <trkpt lat="43.66424" lon="1.37218">
        <ele>142</ele>
        <time>2025-03-23T11:41:50Z</time>
      </trkpt>
      <trkpt lat="43.66421" lon="1.37221">
        <ele>142</ele>
        <time>2025-03-23T11:41:51Z</time>
      </trkpt>
      <trkpt lat="43.6642" lon="1.37222">
        <ele>142</ele>
        <time>2025-03-23T11:41:52Z</time>
      </trkpt>
      <trkpt lat="43.66417" lon="1.37224">
        <ele>142</ele>
        <time>2025-03-23T11:41:53Z</time>
      </trkpt>
      <trkpt lat="43.66415" lon="1.37226">
        <ele>142</ele>
        <time>2025-03-23T11:41:54Z</time>
      </trkpt>
      <trkpt lat="43.66414" lon="1.37229">
        <ele>142</ele>
        <time>2025-03-23T11:41:55Z</time>
      </trkpt>
      <trkpt lat="43.66412" lon="1.37232">
        <ele>142</ele>
        <time>2025-03-23T11:41:56Z</time>
      </trkpt>
      <trkpt lat="43.66411" lon="1.37235">
        <ele>142</ele>
        <time>2025-03-23T11:41:57Z</time>
      </trkpt>
      <trkpt lat="43.66409" lon="1.37237">
        <ele>142</ele>
        <time>2025-03-23T11:41:58Z</time>
      </trkpt>
      <trkpt lat="43.66408" lon="1.3724">
        <ele>142</ele>
        <time>2025-03-23T11:41:59Z</time>
      </trkpt>
      <trkpt lat="43.66406" lon="1.37243">
        <ele>141</ele>
        <time>2025-03-23T11:42:00Z</time>
      </trkpt>
      <trkpt lat="43.66404" lon="1.37246">
        <ele>141</ele>
        <time>2025-03-23T11:42:01Z</time>
      </trkpt>
      <trkpt lat="43.66401" lon="1.37248">
        <ele>141</ele>
        <time>2025-03-23T11:42:02Z</time>
      </trkpt>
      <trkpt lat="43.66398" lon="1.3725">
        <ele>141</ele>
        <time>2025-03-23T11:42:03Z</time>
      </trkpt>
      <trkpt lat="43.66395" lon="1.37251">
        <ele>141</ele>
        <time>2025-03-23T11:42:04Z</time>
      </trkpt>
      <trkpt lat="43.66393" lon="1.37252">
        <ele>141</ele>
        <time>2025-03-23T11:42:05Z</time>
      </trkpt>
      <trkpt lat="43.6639" lon="1.37253">
        <ele>141</ele>
        <time>2025-03-23T11:42:06Z</time>
      </trkpt>
      <trkpt lat="43.66387" lon="1.37252">
        <ele>141</ele>
        <time>2025-03-23T11:42:07Z</time>
      </trkpt>
      <trkpt lat="43.66383" lon="1.37252">
        <ele>141</ele>
        <time>2025-03-23T11:42:08Z</time>
      </trkpt>
      <trkpt lat="43.66382" lon="1.37252">
        <ele>141</ele>
        <time>2025-03-23T11:42:09Z</time>
      </trkpt>
      <trkpt lat="43.66378" lon="1.37253">
        <ele>141</ele>
        <time>2025-03-23T11:42:10Z</time>
      </trkpt>
      <trkpt lat="43.66376" lon="1.37254">
        <ele>141</ele>
        <time>2025-03-23T11:42:11Z</time>
      </trkpt>
      <trkpt lat="43.66374" lon="1.37255">
        <ele>141</ele>
        <time>2025-03-23T11:42:12Z</time>
      </trkpt>
      <trkpt lat="43.66371" lon="1.37256">
        <ele>142</ele>
        <time>2025-03-23T11:42:13Z</time>
      </trkpt>
      <trkpt lat="43.66368" lon="1.37258">
        <ele>141</ele>
        <time>2025-03-23T11:42:14Z</time>
      </trkpt>
      <trkpt lat="43.66366" lon="1.37259">
        <ele>141</ele>
        <time>2025-03-23T11:42:15Z</time>
      </trkpt>
      <trkpt lat="43.66363" lon="1.3726">
        <ele>141</ele>
        <time>2025-03-23T11:42:16Z</time>
      </trkpt>
      <trkpt lat="43.66361" lon="1.37261">
        <ele>141</ele>
        <time>2025-03-23T11:42:17Z</time>
      </trkpt>
      <trkpt lat="43.66359" lon="1.37262">
        <ele>141</ele>
        <time>2025-03-23T11:42:18Z</time>
      </trkpt>
      <trkpt lat="43.66356" lon="1.37263">
        <ele>141</ele>
        <time>2025-03-23T11:42:19Z</time>
      </trkpt>
      <trkpt lat="43.66354" lon="1.37264">
        <ele>142</ele>
        <time>2025-03-23T11:42:20Z</time>
      </trkpt>
      <trkpt lat="43.66352" lon="1.37266">
        <ele>142</ele>
        <time>2025-03-23T11:42:21Z</time>
      </trkpt>
      <trkpt lat="43.66349" lon="1.37267">
        <ele>142</ele>
        <time>2025-03-23T11:42:22Z</time>
      </trkpt>
      <trkpt lat="43.66347" lon="1.37269">
        <ele>142</ele>
        <time>2025-03-23T11:42:23Z</time>
      </trkpt>
      <trkpt lat="43.66345" lon="1.3727">
        <ele>142</ele>
        <time>2025-03-23T11:42:24Z</time>
      </trkpt>
      <trkpt lat="43.66343" lon="1.37271">
        <ele>142</ele>
        <time>2025-03-23T11:42:25Z</time>
      </trkpt>
      <trkpt lat="43.6634" lon="1.37272">
        <ele>142</ele>
        <time>2025-03-23T11:42:26Z</time>
      </trkpt>
      <trkpt lat="43.66338" lon="1.37273">
        <ele>141</ele>
        <time>2025-03-23T11:42:27Z</time>
      </trkpt>
      <trkpt lat="43.66336" lon="1.37275">
        <ele>141</ele>
        <time>2025-03-23T11:42:28Z</time>
      </trkpt>
      <trkpt lat="43.66334" lon="1.37277">
        <ele>141</ele>
        <time>2025-03-23T11:42:29Z</time>
      </trkpt>
      <trkpt lat="43.66332" lon="1.37278">
        <ele>141</ele>
        <time>2025-03-23T11:42:30Z</time>
      </trkpt>
      <trkpt lat="43.66328" lon="1.37281">
        <ele>141</ele>
        <time>2025-03-23T11:42:31Z</time>
      </trkpt>
      <trkpt lat="43.66326" lon="1.37282">
        <ele>141</ele>
        <time>2025-03-23T11:42:32Z</time>
      </trkpt>
      <trkpt lat="43.66324" lon="1.37283">
        <ele>141</ele>
        <time>2025-03-23T11:42:33Z</time>
      </trkpt>
      <trkpt lat="43.66322" lon="1.37284">
        <ele>141</ele>
        <time>2025-03-23T11:42:34Z</time>
      </trkpt>
      <trkpt lat="43.6632" lon="1.37286">
        <ele>141</ele>
        <time>2025-03-23T11:42:35Z</time>
      </trkpt>
      <trkpt lat="43.66317" lon="1.37287">
        <ele>141</ele>
        <time>2025-03-23T11:42:36Z</time>
      </trkpt>
      <trkpt lat="43.66315" lon="1.37289">
        <ele>142</ele>
        <time>2025-03-23T11:42:37Z</time>
      </trkpt>
      <trkpt lat="43.66313" lon="1.37291">
        <ele>142</ele>
        <time>2025-03-23T11:42:38Z</time>
      </trkpt>
      <trkpt lat="43.66309" lon="1.37293">
        <ele>142</ele>
        <time>2025-03-23T11:42:39Z</time>
      </trkpt>
      <trkpt lat="43.66308" lon="1.37294">
        <ele>142</ele>
        <time>2025-03-23T11:42:40Z</time>
      </trkpt>
      <trkpt lat="43.66306" lon="1.37295">
        <ele>142</ele>
        <time>2025-03-23T11:42:41Z</time>
      </trkpt>
      <trkpt lat="43.66303" lon="1.37297">
        <ele>142</ele>
        <time>2025-03-23T11:42:42Z</time>
      </trkpt>
      <trkpt lat="43.66301" lon="1.37298">
        <ele>142</ele>
        <time>2025-03-23T11:42:43Z</time>
      </trkpt>
      <trkpt lat="43.66299" lon="1.373">
        <ele>142</ele>
        <time>2025-03-23T11:42:44Z</time>
      </trkpt>
      <trkpt lat="43.66296" lon="1.37301">
        <ele>142</ele>
        <time>2025-03-23T11:42:45Z</time>
      </trkpt>
      <trkpt lat="43.66292" lon="1.37304">
        <ele>142</ele>
        <time>2025-03-23T11:42:47Z</time>
      </trkpt>
      <trkpt lat="43.66289" lon="1.37306">
        <ele>142</ele>
        <time>2025-03-23T11:42:48Z</time>
      </trkpt>
      <trkpt lat="43.66287" lon="1.37308">
        <ele>142</ele>
        <time>2025-03-23T11:42:49Z</time>
      </trkpt>
      <trkpt lat="43.66285" lon="1.37309">
        <ele>142</ele>
        <time>2025-03-23T11:42:50Z</time>
      </trkpt>
      <trkpt lat="43.66283" lon="1.3731">
        <ele>142</ele>
        <time>2025-03-23T11:42:51Z</time>
      </trkpt>
      <trkpt lat="43.6628" lon="1.37312">
        <ele>142</ele>
        <time>2025-03-23T11:42:52Z</time>
      </trkpt>
      <trkpt lat="43.66278" lon="1.37313">
        <ele>142</ele>
        <time>2025-03-23T11:42:53Z</time>
      </trkpt>
      <trkpt lat="43.66276" lon="1.37315">
        <ele>142</ele>
        <time>2025-03-23T11:42:54Z</time>
      </trkpt>
      <trkpt lat="43.66273" lon="1.37317">
        <ele>142</ele>
        <time>2025-03-23T11:42:55Z</time>
      </trkpt>
      <trkpt lat="43.6627" lon="1.37319">
        <ele>142</ele>
        <time>2025-03-23T11:42:56Z</time>
      </trkpt>
      <trkpt lat="43.66268" lon="1.3732">
        <ele>142</ele>
        <time>2025-03-23T11:42:57Z</time>
      </trkpt>
      <trkpt lat="43.66264" lon="1.37322">
        <ele>142</ele>
        <time>2025-03-23T11:42:58Z</time>
      </trkpt>
      <trkpt lat="43.66263" lon="1.37323">
        <ele>142</ele>
        <time>2025-03-23T11:42:59Z</time>
      </trkpt>
      <trkpt lat="43.6626" lon="1.37324">
        <ele>142</ele>
        <time>2025-03-23T11:43:00Z</time>
      </trkpt>
      <trkpt lat="43.66257" lon="1.37326">
        <ele>142</ele>
        <time>2025-03-23T11:43:01Z</time>
      </trkpt>
      <trkpt lat="43.66256" lon="1.37327">
        <ele>142</ele>
        <time>2025-03-23T11:43:02Z</time>
      </trkpt>
      <trkpt lat="43.66253" lon="1.37329">
        <ele>142</ele>
        <time>2025-03-23T11:43:03Z</time>
      </trkpt>
      <trkpt lat="43.66251" lon="1.3733">
        <ele>142</ele>
        <time>2025-03-23T11:43:04Z</time>
      </trkpt>
      <trkpt lat="43.66247" lon="1.37332">
        <ele>142</ele>
        <time>2025-03-23T11:43:05Z</time>
      </trkpt>
      <trkpt lat="43.66246" lon="1.37332">
        <ele>142</ele>
        <time>2025-03-23T11:43:06Z</time>
      </trkpt>
      <trkpt lat="43.66243" lon="1.37335">
        <ele>142</ele>
        <time>2025-03-23T11:43:07Z</time>
      </trkpt>
      <trkpt lat="43.66242" lon="1.37336">
        <ele>142</ele>
        <time>2025-03-23T11:43:08Z</time>
      </trkpt>
      <trkpt lat="43.66239" lon="1.37337">
        <ele>142</ele>
        <time>2025-03-23T11:43:09Z</time>
      </trkpt>
      <trkpt lat="43.66236" lon="1.3734">
        <ele>142</ele>
        <time>2025-03-23T11:43:10Z</time>
      </trkpt>
      <trkpt lat="43.66235" lon="1.37341">
        <ele>142</ele>
        <time>2025-03-23T11:43:11Z</time>
      </trkpt>
      <trkpt lat="43.66232" lon="1.37342">
        <ele>142</ele>
        <time>2025-03-23T11:43:12Z</time>
      </trkpt>
      <trkpt lat="43.6623" lon="1.37344">
        <ele>142</ele>
        <time>2025-03-23T11:43:13Z</time>
      </trkpt>
      <trkpt lat="43.66227" lon="1.37346">
        <ele>142</ele>
        <time>2025-03-23T11:43:14Z</time>
      </trkpt>
      <trkpt lat="43.66225" lon="1.37347">
        <ele>142</ele>
        <time>2025-03-23T11:43:15Z</time>
      </trkpt>
      <trkpt lat="43.66223" lon="1.37349">
        <ele>142</ele>
        <time>2025-03-23T11:43:16Z</time>
      </trkpt>
      <trkpt lat="43.66221" lon="1.3735">
        <ele>142</ele>
        <time>2025-03-23T11:43:17Z</time>
      </trkpt>
      <trkpt lat="43.66218" lon="1.37352">
        <ele>142</ele>
        <time>2025-03-23T11:43:18Z</time>
      </trkpt>
      <trkpt lat="43.66216" lon="1.37353">
        <ele>142</ele>
        <time>2025-03-23T11:43:19Z</time>
      </trkpt>
      <trkpt lat="43.66214" lon="1.37355">
        <ele>142</ele>
        <time>2025-03-23T11:43:20Z</time>
      </trkpt>
      <trkpt lat="43.66212" lon="1.37356">
        <ele>142</ele>
        <time>2025-03-23T11:43:21Z</time>
      </trkpt>
      <trkpt lat="43.6621" lon="1.37357">
        <ele>142</ele>
        <time>2025-03-23T11:43:22Z</time>
      </trkpt>
      <trkpt lat="43.66208" lon="1.37358">
        <ele>142</ele>
        <time>2025-03-23T11:43:23Z</time>
      </trkpt>
      <trkpt lat="43.66205" lon="1.37361">
        <ele>142</ele>
        <time>2025-03-23T11:43:24Z</time>
      </trkpt>
      <trkpt lat="43.66204" lon="1.37361">
        <ele>142</ele>
        <time>2025-03-23T11:43:25Z</time>
      </trkpt>
      <trkpt lat="43.66202" lon="1.37363">
        <ele>142</ele>
        <time>2025-03-23T11:43:26Z</time>
      </trkpt>
      <trkpt lat="43.662" lon="1.37364">
        <ele>142</ele>
        <time>2025-03-23T11:43:27Z</time>
      </trkpt>
      <trkpt lat="43.66198" lon="1.37366">
        <ele>142</ele>
        <time>2025-03-23T11:43:28Z</time>
      </trkpt>
      <trkpt lat="43.66195" lon="1.37367">
        <ele>142</ele>
        <time>2025-03-23T11:43:29Z</time>
      </trkpt>
      <trkpt lat="43.66193" lon="1.37369">
        <ele>142</ele>
        <time>2025-03-23T11:43:30Z</time>
      </trkpt>
      <trkpt lat="43.66191" lon="1.37371">
        <ele>142</ele>
        <time>2025-03-23T11:43:31Z</time>
      </trkpt>
      <trkpt lat="43.66188" lon="1.37372">
        <ele>142</ele>
        <time>2025-03-23T11:43:32Z</time>
      </trkpt>
      <trkpt lat="43.66186" lon="1.37374">
        <ele>142</ele>
        <time>2025-03-23T11:43:33Z</time>
      </trkpt>
      <trkpt lat="43.66183" lon="1.37376">
        <ele>142</ele>
        <time>2025-03-23T11:43:34Z</time>
      </trkpt>
      <trkpt lat="43.66181" lon="1.37377">
        <ele>142</ele>
        <time>2025-03-23T11:43:35Z</time>
      </trkpt>
      <trkpt lat="43.66179" lon="1.37379">
        <ele>142</ele>
        <time>2025-03-23T11:43:36Z</time>
      </trkpt>
      <trkpt lat="43.66177" lon="1.3738">
        <ele>142</ele>
        <time>2025-03-23T11:43:37Z</time>
      </trkpt>
      <trkpt lat="43.66173" lon="1.37382">
        <ele>142</ele>
        <time>2025-03-23T11:43:38Z</time>
      </trkpt>
      <trkpt lat="43.66172" lon="1.37383">
        <ele>142</ele>
        <time>2025-03-23T11:43:39Z</time>
      </trkpt>
      <trkpt lat="43.66169" lon="1.37385">
        <ele>142</ele>
        <time>2025-03-23T11:43:40Z</time>
      </trkpt>
      <trkpt lat="43.66167" lon="1.37386">
        <ele>142</ele>
        <time>2025-03-23T11:43:41Z</time>
      </trkpt>
      <trkpt lat="43.66164" lon="1.37388">
        <ele>142</ele>
        <time>2025-03-23T11:43:42Z</time>
      </trkpt>
      <trkpt lat="43.66161" lon="1.3739">
        <ele>142</ele>
        <time>2025-03-23T11:43:43Z</time>
      </trkpt>
      <trkpt lat="43.66159" lon="1.37391">
        <ele>142</ele>
        <time>2025-03-23T11:43:44Z</time>
      </trkpt>
      <trkpt lat="43.66157" lon="1.37393">
        <ele>142</ele>
        <time>2025-03-23T11:43:45Z</time>
      </trkpt>
      <trkpt lat="43.66154" lon="1.37394">
        <ele>142</ele>
        <time>2025-03-23T11:43:46Z</time>
      </trkpt>
      <trkpt lat="43.66151" lon="1.37396">
        <ele>142</ele>
        <time>2025-03-23T11:43:47Z</time>
      </trkpt>
      <trkpt lat="43.66149" lon="1.37398">
        <ele>142</ele>
        <time>2025-03-23T11:43:48Z</time>
      </trkpt>
      <trkpt lat="43.66145" lon="1.37401">
        <ele>142</ele>
        <time>2025-03-23T11:43:49Z</time>
      </trkpt>
      <trkpt lat="43.66144" lon="1.37402">
        <ele>142</ele>
        <time>2025-03-23T11:43:50Z</time>
      </trkpt>
      <trkpt lat="43.66141" lon="1.37403">
        <ele>142</ele>
        <time>2025-03-23T11:43:51Z</time>
      </trkpt>
      <trkpt lat="43.66139" lon="1.37406">
        <ele>142</ele>
        <time>2025-03-23T11:43:52Z</time>
      </trkpt>
      <trkpt lat="43.66136" lon="1.37408">
        <ele>142</ele>
        <time>2025-03-23T11:43:53Z</time>
      </trkpt>
      <trkpt lat="43.66134" lon="1.37409">
        <ele>142</ele>
        <time>2025-03-23T11:43:54Z</time>
      </trkpt>
      <trkpt lat="43.6613" lon="1.37411">
        <ele>142</ele>
        <time>2025-03-23T11:43:55Z</time>
      </trkpt>
      <trkpt lat="43.66129" lon="1.37412">
        <ele>142</ele>
        <time>2025-03-23T11:43:56Z</time>
      </trkpt>
      <trkpt lat="43.66126" lon="1.37413">
        <ele>142</ele>
        <time>2025-03-23T11:43:57Z</time>
      </trkpt>
      <trkpt lat="43.66124" lon="1.37415">
        <ele>142</ele>
        <time>2025-03-23T11:43:58Z</time>
      </trkpt>
      <trkpt lat="43.66122" lon="1.37416">
        <ele>142</ele>
        <time>2025-03-23T11:43:59Z</time>
      </trkpt>
      <trkpt lat="43.6612" lon="1.37418">
        <ele>142</ele>
        <time>2025-03-23T11:44:00Z</time>
      </trkpt>
      <trkpt lat="43.66118" lon="1.37419">
        <ele>142</ele>
        <time>2025-03-23T11:44:01Z</time>
      </trkpt>
      <trkpt lat="43.66114" lon="1.37422">
        <ele>142</ele>
        <time>2025-03-23T11:44:02Z</time>
      </trkpt>
      <trkpt lat="43.66113" lon="1.37423">
        <ele>142</ele>
        <time>2025-03-23T11:44:03Z</time>
      </trkpt>
      <trkpt lat="43.66111" lon="1.37425">
        <ele>142</ele>
        <time>2025-03-23T11:44:04Z</time>
      </trkpt>
      <trkpt lat="43.66109" lon="1.37427">
        <ele>142</ele>
        <time>2025-03-23T11:44:05Z</time>
      </trkpt>
      <trkpt lat="43.66105" lon="1.3743">
        <ele>142</ele>
        <time>2025-03-23T11:44:06Z</time>
      </trkpt>
      <trkpt lat="43.66103" lon="1.37431">
        <ele>142</ele>
        <time>2025-03-23T11:44:07Z</time>
      </trkpt>
      <trkpt lat="43.66102" lon="1.37432">
        <ele>142</ele>
        <time>2025-03-23T11:44:08Z</time>
      </trkpt>
      <trkpt lat="43.66099" lon="1.37433">
        <ele>142</ele>
        <time>2025-03-23T11:44:09Z</time>
      </trkpt>
      <trkpt lat="43.66096" lon="1.37436">
        <ele>142</ele>
        <time>2025-03-23T11:44:10Z</time>
      </trkpt>
      <trkpt lat="43.66095" lon="1.37438">
        <ele>142</ele>
        <time>2025-03-23T11:44:11Z</time>
      </trkpt>
      <trkpt lat="43.66092" lon="1.3744">
        <ele>142</ele>
        <time>2025-03-23T11:44:12Z</time>
      </trkpt>
      <trkpt lat="43.6609" lon="1.37442">
        <ele>142</ele>
        <time>2025-03-23T11:44:13Z</time>
      </trkpt>
      <trkpt lat="43.66087" lon="1.37445">
        <ele>142</ele>
        <time>2025-03-23T11:44:14Z</time>
      </trkpt>
      <trkpt lat="43.66087" lon="1.37447">
        <ele>142</ele>
        <time>2025-03-23T11:44:15Z</time>
      </trkpt>
      <trkpt lat="43.66085" lon="1.3745">
        <ele>142</ele>
        <time>2025-03-23T11:44:16Z</time>
      </trkpt>
      <trkpt lat="43.66083" lon="1.37454">
        <ele>142</ele>
        <time>2025-03-23T11:44:17Z</time>
      </trkpt>
      <trkpt lat="43.66083" lon="1.37456">
        <ele>142</ele>
        <time>2025-03-23T11:44:18Z</time>
      </trkpt>
      <trkpt lat="43.66081" lon="1.37459">
        <ele>142</ele>
        <time>2025-03-23T11:44:19Z</time>
      </trkpt>
      <trkpt lat="43.6608" lon="1.37462">
        <ele>142</ele>
        <time>2025-03-23T11:44:20Z</time>
      </trkpt>
      <trkpt lat="43.66078" lon="1.37467">
        <ele>142</ele>
        <time>2025-03-23T11:44:21Z</time>
      </trkpt>
      <trkpt lat="43.66077" lon="1.37468">
        <ele>142</ele>
        <time>2025-03-23T11:44:22Z</time>
      </trkpt>
      <trkpt lat="43.66075" lon="1.37473">
        <ele>142</ele>
        <time>2025-03-23T11:44:23Z</time>
      </trkpt>
      <trkpt lat="43.66075" lon="1.37474">
        <ele>142</ele>
        <time>2025-03-23T11:44:24Z</time>
      </trkpt>
      <trkpt lat="43.66073" lon="1.37477">
        <ele>142</ele>
        <time>2025-03-23T11:44:25Z</time>
      </trkpt>
      <trkpt lat="43.66069" lon="1.37481">
        <ele>142</ele>
        <time>2025-03-23T11:44:26Z</time>
      </trkpt>
      <trkpt lat="43.66068" lon="1.37482">
        <ele>142</ele>
        <time>2025-03-23T11:44:27Z</time>
      </trkpt>
      <trkpt lat="43.66066" lon="1.37484">
        <ele>142</ele>
        <time>2025-03-23T11:44:28Z</time>
      </trkpt>
      <trkpt lat="43.66062" lon="1.37485">
        <ele>142</ele>
        <time>2025-03-23T11:44:29Z</time>
      </trkpt>
      <trkpt lat="43.66061" lon="1.37486">
        <ele>142</ele>
        <time>2025-03-23T11:44:30Z</time>
      </trkpt>
      <trkpt lat="43.66058" lon="1.37486">
        <ele>142</ele>
        <time>2025-03-23T11:44:31Z</time>
      </trkpt>
      <trkpt lat="43.66055" lon="1.37486">
        <ele>142</ele>
        <time>2025-03-23T11:44:32Z</time>
      </trkpt>
      <trkpt lat="43.66052" lon="1.37485">
        <ele>142</ele>
        <time>2025-03-23T11:44:33Z</time>
      </trkpt>
      <trkpt lat="43.66049" lon="1.37484">
        <ele>143</ele>
        <time>2025-03-23T11:44:34Z</time>
      </trkpt>
      <trkpt lat="43.66047" lon="1.37483">
        <ele>143</ele>
        <time>2025-03-23T11:44:35Z</time>
      </trkpt>
      <trkpt lat="43.66044" lon="1.37482">
        <ele>143</ele>
        <time>2025-03-23T11:44:36Z</time>
      </trkpt>
      <trkpt lat="43.66041" lon="1.3748">
        <ele>143</ele>
        <time>2025-03-23T11:44:37Z</time>
      </trkpt>
      <trkpt lat="43.66038" lon="1.3748">
        <ele>142</ele>
        <time>2025-03-23T11:44:38Z</time>
      </trkpt>
      <trkpt lat="43.66036" lon="1.37479">
        <ele>142</ele>
        <time>2025-03-23T11:44:39Z</time>
      </trkpt>
      <trkpt lat="43.66036" lon="1.37479">
        <ele>142</ele>
        <time>2025-03-23T11:44:40Z</time>
      </trkpt>
    </trkseg>
  </trk>
</gpx>